<?xml version="1.0" encoding="UTF-8" standalone="no" ?>
<gpx xmlns="http://www.topografix.com/GPX/1/1" xmlns:xsi="http://www.w3.org/2001/XMLSchema-instance" xsi:schemaLocation="http://www.topografix.com/GPX/1/1 http://www.topografix.com/GPX/1/1/gpx.xsd" version="1.1" creator="VisuGPX - https://www.visugpx.com">
  <metadata>
    <name>val d'oingt</name>
    <desc><![CDATA[Val d'Oigt avec Claude Aout 2018]]></desc>
  </metadata>
  <trk>
    <name><![CDATA[20180805184736-Wq11B]]></name>
    <trkseg>
      <trkpt lat="45.95203" lon="4.58598">
        <ele>545</ele>
        <time>2018-08-05T06:01:41.000Z</time>
      </trkpt>
      <trkpt lat="45.95205" lon="4.58602">
        <ele>545</ele>
        <time>2018-08-05T06:01:42.000Z</time>
      </trkpt>
      <trkpt lat="45.95207" lon="4.58606">
        <ele>545</ele>
        <time>2018-08-05T06:01:43.000Z</time>
      </trkpt>
      <trkpt lat="45.95209" lon="4.58611">
        <ele>545</ele>
        <time>2018-08-05T06:01:44.000Z</time>
      </trkpt>
      <trkpt lat="45.9521" lon="4.58615">
        <ele>545</ele>
        <time>2018-08-05T06:01:45.000Z</time>
      </trkpt>
      <trkpt lat="45.95212" lon="4.5862">
        <ele>545</ele>
        <time>2018-08-05T06:01:46.000Z</time>
      </trkpt>
      <trkpt lat="45.95214" lon="4.58624">
        <ele>545</ele>
        <time>2018-08-05T06:01:47.000Z</time>
      </trkpt>
      <trkpt lat="45.95216" lon="4.58629">
        <ele>545</ele>
        <time>2018-08-05T06:01:48.000Z</time>
      </trkpt>
      <trkpt lat="45.95218" lon="4.58633">
        <ele>545</ele>
        <time>2018-08-05T06:01:49.000Z</time>
      </trkpt>
      <trkpt lat="45.9522" lon="4.58638">
        <ele>545</ele>
        <time>2018-08-05T06:01:50.000Z</time>
      </trkpt>
      <trkpt lat="45.95222" lon="4.58643">
        <ele>545</ele>
        <time>2018-08-05T06:01:51.000Z</time>
      </trkpt>
      <trkpt lat="45.95224" lon="4.58648">
        <ele>545</ele>
        <time>2018-08-05T06:01:52.000Z</time>
      </trkpt>
      <trkpt lat="45.95226" lon="4.58652">
        <ele>545</ele>
        <time>2018-08-05T06:01:53.000Z</time>
      </trkpt>
      <trkpt lat="45.95228" lon="4.58657">
        <ele>545</ele>
        <time>2018-08-05T06:01:54.000Z</time>
      </trkpt>
      <trkpt lat="45.9523" lon="4.58661">
        <ele>545</ele>
        <time>2018-08-05T06:01:55.000Z</time>
      </trkpt>
      <trkpt lat="45.95232" lon="4.58665">
        <ele>546</ele>
        <time>2018-08-05T06:01:56.000Z</time>
      </trkpt>
      <trkpt lat="45.95234" lon="4.58669">
        <ele>546</ele>
        <time>2018-08-05T06:01:57.000Z</time>
      </trkpt>
      <trkpt lat="45.95237" lon="4.58672">
        <ele>546</ele>
        <time>2018-08-05T06:01:58.000Z</time>
      </trkpt>
      <trkpt lat="45.9524" lon="4.58674">
        <ele>546</ele>
        <time>2018-08-05T06:01:59.000Z</time>
      </trkpt>
      <trkpt lat="45.95243" lon="4.58676">
        <ele>546</ele>
        <time>2018-08-05T06:02:00.000Z</time>
      </trkpt>
      <trkpt lat="45.95247" lon="4.58676">
        <ele>546</ele>
        <time>2018-08-05T06:02:01.000Z</time>
      </trkpt>
      <trkpt lat="45.9525" lon="4.58676">
        <ele>547</ele>
        <time>2018-08-05T06:02:02.000Z</time>
      </trkpt>
      <trkpt lat="45.95253" lon="4.58675">
        <ele>546</ele>
        <time>2018-08-05T06:02:03.000Z</time>
      </trkpt>
      <trkpt lat="45.95257" lon="4.58675">
        <ele>546</ele>
        <time>2018-08-05T06:02:04.000Z</time>
      </trkpt>
      <trkpt lat="45.9526" lon="4.58674">
        <ele>546</ele>
        <time>2018-08-05T06:02:05.000Z</time>
      </trkpt>
      <trkpt lat="45.95264" lon="4.58674">
        <ele>546</ele>
        <time>2018-08-05T06:02:06.000Z</time>
      </trkpt>
      <trkpt lat="45.95268" lon="4.58673">
        <ele>546</ele>
        <time>2018-08-05T06:02:07.000Z</time>
      </trkpt>
      <trkpt lat="45.95271" lon="4.58673">
        <ele>546</ele>
        <time>2018-08-05T06:02:08.000Z</time>
      </trkpt>
      <trkpt lat="45.95275" lon="4.58674">
        <ele>546</ele>
        <time>2018-08-05T06:02:09.000Z</time>
      </trkpt>
      <trkpt lat="45.95279" lon="4.58675">
        <ele>545</ele>
        <time>2018-08-05T06:02:10.000Z</time>
      </trkpt>
      <trkpt lat="45.95283" lon="4.58677">
        <ele>545</ele>
        <time>2018-08-05T06:02:11.000Z</time>
      </trkpt>
      <trkpt lat="45.95287" lon="4.58678">
        <ele>545</ele>
        <time>2018-08-05T06:02:12.000Z</time>
      </trkpt>
      <trkpt lat="45.95291" lon="4.5868">
        <ele>545</ele>
        <time>2018-08-05T06:02:13.000Z</time>
      </trkpt>
      <trkpt lat="45.95295" lon="4.58682">
        <ele>545</ele>
        <time>2018-08-05T06:02:14.000Z</time>
      </trkpt>
      <trkpt lat="45.95299" lon="4.58685">
        <ele>545</ele>
        <time>2018-08-05T06:02:15.000Z</time>
      </trkpt>
      <trkpt lat="45.95303" lon="4.58687">
        <ele>545</ele>
        <time>2018-08-05T06:02:16.000Z</time>
      </trkpt>
      <trkpt lat="45.95308" lon="4.5869">
        <ele>545</ele>
        <time>2018-08-05T06:02:17.000Z</time>
      </trkpt>
      <trkpt lat="45.95312" lon="4.58694">
        <ele>544</ele>
        <time>2018-08-05T06:02:18.000Z</time>
      </trkpt>
      <trkpt lat="45.95317" lon="4.58698">
        <ele>544</ele>
        <time>2018-08-05T06:02:19.000Z</time>
      </trkpt>
      <trkpt lat="45.95322" lon="4.58703">
        <ele>544</ele>
        <time>2018-08-05T06:02:20.000Z</time>
      </trkpt>
      <trkpt lat="45.95327" lon="4.58708">
        <ele>544</ele>
        <time>2018-08-05T06:02:21.000Z</time>
      </trkpt>
      <trkpt lat="45.95332" lon="4.58713">
        <ele>544</ele>
        <time>2018-08-05T06:02:22.000Z</time>
      </trkpt>
      <trkpt lat="45.95337" lon="4.58717">
        <ele>540</ele>
        <time>2018-08-05T06:02:23.000Z</time>
      </trkpt>
      <trkpt lat="45.95342" lon="4.58722">
        <ele>540</ele>
        <time>2018-08-05T06:02:24.000Z</time>
      </trkpt>
      <trkpt lat="45.95347" lon="4.58727">
        <ele>540</ele>
        <time>2018-08-05T06:02:25.000Z</time>
      </trkpt>
      <trkpt lat="45.95353" lon="4.58732">
        <ele>540</ele>
        <time>2018-08-05T06:02:26.000Z</time>
      </trkpt>
      <trkpt lat="45.95358" lon="4.58738">
        <ele>540</ele>
        <time>2018-08-05T06:02:27.000Z</time>
      </trkpt>
      <trkpt lat="45.95364" lon="4.58743">
        <ele>539</ele>
        <time>2018-08-05T06:02:28.000Z</time>
      </trkpt>
      <trkpt lat="45.9537" lon="4.58748">
        <ele>539</ele>
        <time>2018-08-05T06:02:29.000Z</time>
      </trkpt>
      <trkpt lat="45.95375" lon="4.58754">
        <ele>540</ele>
        <time>2018-08-05T06:02:30.000Z</time>
      </trkpt>
      <trkpt lat="45.95381" lon="4.58759">
        <ele>540</ele>
        <time>2018-08-05T06:02:31.000Z</time>
      </trkpt>
      <trkpt lat="45.95387" lon="4.58764">
        <ele>540</ele>
        <time>2018-08-05T06:02:32.000Z</time>
      </trkpt>
      <trkpt lat="45.95393" lon="4.58769">
        <ele>540</ele>
        <time>2018-08-05T06:02:33.000Z</time>
      </trkpt>
      <trkpt lat="45.95399" lon="4.58774">
        <ele>539</ele>
        <time>2018-08-05T06:02:34.000Z</time>
      </trkpt>
      <trkpt lat="45.95405" lon="4.58779">
        <ele>540</ele>
        <time>2018-08-05T06:02:35.000Z</time>
      </trkpt>
      <trkpt lat="45.95411" lon="4.58784">
        <ele>540</ele>
        <time>2018-08-05T06:02:36.000Z</time>
      </trkpt>
      <trkpt lat="45.95417" lon="4.5879">
        <ele>533</ele>
        <time>2018-08-05T06:02:37.000Z</time>
      </trkpt>
      <trkpt lat="45.95424" lon="4.58796">
        <ele>533</ele>
        <time>2018-08-05T06:02:38.000Z</time>
      </trkpt>
      <trkpt lat="45.95431" lon="4.58802">
        <ele>533</ele>
        <time>2018-08-05T06:02:39.000Z</time>
      </trkpt>
      <trkpt lat="45.95437" lon="4.58809">
        <ele>533</ele>
        <time>2018-08-05T06:02:40.000Z</time>
      </trkpt>
      <trkpt lat="45.95443" lon="4.58816">
        <ele>533</ele>
        <time>2018-08-05T06:02:41.000Z</time>
      </trkpt>
      <trkpt lat="45.95449" lon="4.58824">
        <ele>533</ele>
        <time>2018-08-05T06:02:42.000Z</time>
      </trkpt>
      <trkpt lat="45.95455" lon="4.58833">
        <ele>532</ele>
        <time>2018-08-05T06:02:43.000Z</time>
      </trkpt>
      <trkpt lat="45.9546" lon="4.58841">
        <ele>536</ele>
        <time>2018-08-05T06:02:44.000Z</time>
      </trkpt>
      <trkpt lat="45.95465" lon="4.58849">
        <ele>536</ele>
        <time>2018-08-05T06:02:45.000Z</time>
      </trkpt>
      <trkpt lat="45.95469" lon="4.58857">
        <ele>536</ele>
        <time>2018-08-05T06:02:46.000Z</time>
      </trkpt>
      <trkpt lat="45.95475" lon="4.58865">
        <ele>536</ele>
        <time>2018-08-05T06:02:47.000Z</time>
      </trkpt>
      <trkpt lat="45.95481" lon="4.58873">
        <ele>536</ele>
        <time>2018-08-05T06:02:48.000Z</time>
      </trkpt>
      <trkpt lat="45.95488" lon="4.58879">
        <ele>537</ele>
        <time>2018-08-05T06:02:49.000Z</time>
      </trkpt>
      <trkpt lat="45.95496" lon="4.58886">
        <ele>537</ele>
        <time>2018-08-05T06:02:50.000Z</time>
      </trkpt>
      <trkpt lat="45.95505" lon="4.58891">
        <ele>531</ele>
        <time>2018-08-05T06:02:51.000Z</time>
      </trkpt>
      <trkpt lat="45.95514" lon="4.58894">
        <ele>531</ele>
        <time>2018-08-05T06:02:52.000Z</time>
      </trkpt>
      <trkpt lat="45.95524" lon="4.58897">
        <ele>531</ele>
        <time>2018-08-05T06:02:53.000Z</time>
      </trkpt>
      <trkpt lat="45.95535" lon="4.58898">
        <ele>531</ele>
        <time>2018-08-05T06:02:54.000Z</time>
      </trkpt>
      <trkpt lat="45.95545" lon="4.58899">
        <ele>530</ele>
        <time>2018-08-05T06:02:55.000Z</time>
      </trkpt>
      <trkpt lat="45.95555" lon="4.58898">
        <ele>530</ele>
        <time>2018-08-05T06:02:56.000Z</time>
      </trkpt>
      <trkpt lat="45.95565" lon="4.58897">
        <ele>530</ele>
        <time>2018-08-05T06:02:57.000Z</time>
      </trkpt>
      <trkpt lat="45.95575" lon="4.58895">
        <ele>530</ele>
        <time>2018-08-05T06:02:58.000Z</time>
      </trkpt>
      <trkpt lat="45.95584" lon="4.58894">
        <ele>529</ele>
        <time>2018-08-05T06:02:59.000Z</time>
      </trkpt>
      <trkpt lat="45.95592" lon="4.58891">
        <ele>529</ele>
        <time>2018-08-05T06:03:00.000Z</time>
      </trkpt>
      <trkpt lat="45.956" lon="4.58888">
        <ele>528</ele>
        <time>2018-08-05T06:03:01.000Z</time>
      </trkpt>
      <trkpt lat="45.95607" lon="4.58885">
        <ele>528</ele>
        <time>2018-08-05T06:03:02.000Z</time>
      </trkpt>
      <trkpt lat="45.95614" lon="4.58882">
        <ele>528</ele>
        <time>2018-08-05T06:03:03.000Z</time>
      </trkpt>
      <trkpt lat="45.95619" lon="4.58879">
        <ele>527</ele>
        <time>2018-08-05T06:03:04.000Z</time>
      </trkpt>
      <trkpt lat="45.95624" lon="4.58876">
        <ele>527</ele>
        <time>2018-08-05T06:03:05.000Z</time>
      </trkpt>
      <trkpt lat="45.95628" lon="4.58873">
        <ele>527</ele>
        <time>2018-08-05T06:03:06.000Z</time>
      </trkpt>
      <trkpt lat="45.95634" lon="4.58869">
        <ele>526</ele>
        <time>2018-08-05T06:03:07.000Z</time>
      </trkpt>
      <trkpt lat="45.9564" lon="4.58865">
        <ele>526</ele>
        <time>2018-08-05T06:03:08.000Z</time>
      </trkpt>
      <trkpt lat="45.95648" lon="4.58862">
        <ele>525</ele>
        <time>2018-08-05T06:03:09.000Z</time>
      </trkpt>
      <trkpt lat="45.95655" lon="4.58859">
        <ele>524</ele>
        <time>2018-08-05T06:03:10.000Z</time>
      </trkpt>
      <trkpt lat="45.95663" lon="4.58857">
        <ele>524</ele>
        <time>2018-08-05T06:03:11.000Z</time>
      </trkpt>
      <trkpt lat="45.95671" lon="4.58856">
        <ele>527</ele>
        <time>2018-08-05T06:03:12.000Z</time>
      </trkpt>
      <trkpt lat="45.95678" lon="4.58854">
        <ele>527</ele>
        <time>2018-08-05T06:03:13.000Z</time>
      </trkpt>
      <trkpt lat="45.95686" lon="4.58852">
        <ele>528</ele>
        <time>2018-08-05T06:03:14.000Z</time>
      </trkpt>
      <trkpt lat="45.95693" lon="4.58849">
        <ele>529</ele>
        <time>2018-08-05T06:03:15.000Z</time>
      </trkpt>
      <trkpt lat="45.957" lon="4.58846">
        <ele>529</ele>
        <time>2018-08-05T06:03:16.000Z</time>
      </trkpt>
      <trkpt lat="45.95707" lon="4.58842">
        <ele>530</ele>
        <time>2018-08-05T06:03:17.000Z</time>
      </trkpt>
      <trkpt lat="45.95714" lon="4.58838">
        <ele>530</ele>
        <time>2018-08-05T06:03:18.000Z</time>
      </trkpt>
      <trkpt lat="45.95719" lon="4.58833">
        <ele>530</ele>
        <time>2018-08-05T06:03:19.000Z</time>
      </trkpt>
      <trkpt lat="45.95724" lon="4.58829">
        <ele>519</ele>
        <time>2018-08-05T06:03:20.000Z</time>
      </trkpt>
      <trkpt lat="45.95729" lon="4.58824">
        <ele>520</ele>
        <time>2018-08-05T06:03:21.000Z</time>
      </trkpt>
      <trkpt lat="45.95733" lon="4.5882">
        <ele>520</ele>
        <time>2018-08-05T06:03:22.000Z</time>
      </trkpt>
      <trkpt lat="45.95737" lon="4.58816">
        <ele>520</ele>
        <time>2018-08-05T06:03:23.000Z</time>
      </trkpt>
      <trkpt lat="45.95741" lon="4.58812">
        <ele>520</ele>
        <time>2018-08-05T06:03:24.000Z</time>
      </trkpt>
      <trkpt lat="45.95746" lon="4.58808">
        <ele>519</ele>
        <time>2018-08-05T06:03:25.000Z</time>
      </trkpt>
      <trkpt lat="45.9575" lon="4.58805">
        <ele>525</ele>
        <time>2018-08-05T06:03:26.000Z</time>
      </trkpt>
      <trkpt lat="45.95755" lon="4.58802">
        <ele>525</ele>
        <time>2018-08-05T06:03:27.000Z</time>
      </trkpt>
      <trkpt lat="45.95759" lon="4.58799">
        <ele>525</ele>
        <time>2018-08-05T06:03:28.000Z</time>
      </trkpt>
      <trkpt lat="45.95764" lon="4.58796">
        <ele>525</ele>
        <time>2018-08-05T06:03:29.000Z</time>
      </trkpt>
      <trkpt lat="45.95768" lon="4.58793">
        <ele>525</ele>
        <time>2018-08-05T06:03:30.000Z</time>
      </trkpt>
      <trkpt lat="45.95772" lon="4.58791">
        <ele>525</ele>
        <time>2018-08-05T06:03:31.000Z</time>
      </trkpt>
      <trkpt lat="45.95776" lon="4.58788">
        <ele>525</ele>
        <time>2018-08-05T06:03:32.000Z</time>
      </trkpt>
      <trkpt lat="45.95781" lon="4.58786">
        <ele>525</ele>
        <time>2018-08-05T06:03:33.000Z</time>
      </trkpt>
      <trkpt lat="45.95785" lon="4.58783">
        <ele>525</ele>
        <time>2018-08-05T06:03:34.000Z</time>
      </trkpt>
      <trkpt lat="45.95789" lon="4.58781">
        <ele>525</ele>
        <time>2018-08-05T06:03:35.000Z</time>
      </trkpt>
      <trkpt lat="45.95794" lon="4.58779">
        <ele>525</ele>
        <time>2018-08-05T06:03:36.000Z</time>
      </trkpt>
      <trkpt lat="45.95798" lon="4.58776">
        <ele>525</ele>
        <time>2018-08-05T06:03:37.000Z</time>
      </trkpt>
      <trkpt lat="45.95802" lon="4.58773">
        <ele>525</ele>
        <time>2018-08-05T06:03:38.000Z</time>
      </trkpt>
      <trkpt lat="45.95806" lon="4.58771">
        <ele>525</ele>
        <time>2018-08-05T06:03:39.000Z</time>
      </trkpt>
      <trkpt lat="45.95811" lon="4.58768">
        <ele>525</ele>
        <time>2018-08-05T06:03:40.000Z</time>
      </trkpt>
      <trkpt lat="45.95815" lon="4.58765">
        <ele>525</ele>
        <time>2018-08-05T06:03:41.000Z</time>
      </trkpt>
      <trkpt lat="45.95819" lon="4.58762">
        <ele>525</ele>
        <time>2018-08-05T06:03:42.000Z</time>
      </trkpt>
      <trkpt lat="45.95823" lon="4.58759">
        <ele>525</ele>
        <time>2018-08-05T06:03:43.000Z</time>
      </trkpt>
      <trkpt lat="45.95826" lon="4.58756">
        <ele>525</ele>
        <time>2018-08-05T06:03:44.000Z</time>
      </trkpt>
      <trkpt lat="45.9583" lon="4.58753">
        <ele>524</ele>
        <time>2018-08-05T06:03:45.000Z</time>
      </trkpt>
      <trkpt lat="45.95834" lon="4.58749">
        <ele>524</ele>
        <time>2018-08-05T06:03:46.000Z</time>
      </trkpt>
      <trkpt lat="45.95838" lon="4.58746">
        <ele>525</ele>
        <time>2018-08-05T06:03:47.000Z</time>
      </trkpt>
      <trkpt lat="45.95842" lon="4.58743">
        <ele>525</ele>
        <time>2018-08-05T06:03:48.000Z</time>
      </trkpt>
      <trkpt lat="45.95846" lon="4.5874">
        <ele>526</ele>
        <time>2018-08-05T06:03:49.000Z</time>
      </trkpt>
      <trkpt lat="45.9585" lon="4.58736">
        <ele>526</ele>
        <time>2018-08-05T06:03:50.000Z</time>
      </trkpt>
      <trkpt lat="45.95854" lon="4.58732">
        <ele>527</ele>
        <time>2018-08-05T06:03:51.000Z</time>
      </trkpt>
      <trkpt lat="45.95858" lon="4.58728">
        <ele>527</ele>
        <time>2018-08-05T06:03:52.000Z</time>
      </trkpt>
      <trkpt lat="45.95862" lon="4.58723">
        <ele>527</ele>
        <time>2018-08-05T06:03:53.000Z</time>
      </trkpt>
      <trkpt lat="45.95866" lon="4.58718">
        <ele>527</ele>
        <time>2018-08-05T06:03:54.000Z</time>
      </trkpt>
      <trkpt lat="45.95869" lon="4.58713">
        <ele>527</ele>
        <time>2018-08-05T06:03:55.000Z</time>
      </trkpt>
      <trkpt lat="45.95873" lon="4.58707">
        <ele>527</ele>
        <time>2018-08-05T06:03:56.000Z</time>
      </trkpt>
      <trkpt lat="45.95877" lon="4.58701">
        <ele>527</ele>
        <time>2018-08-05T06:03:57.000Z</time>
      </trkpt>
      <trkpt lat="45.95881" lon="4.58695">
        <ele>527</ele>
        <time>2018-08-05T06:03:58.000Z</time>
      </trkpt>
      <trkpt lat="45.95884" lon="4.58688">
        <ele>527</ele>
        <time>2018-08-05T06:03:59.000Z</time>
      </trkpt>
      <trkpt lat="45.95887" lon="4.58682">
        <ele>527</ele>
        <time>2018-08-05T06:04:00.000Z</time>
      </trkpt>
      <trkpt lat="45.95891" lon="4.58675">
        <ele>527</ele>
        <time>2018-08-05T06:04:01.000Z</time>
      </trkpt>
      <trkpt lat="45.95895" lon="4.58668">
        <ele>528</ele>
        <time>2018-08-05T06:04:02.000Z</time>
      </trkpt>
      <trkpt lat="45.95898" lon="4.58661">
        <ele>520</ele>
        <time>2018-08-05T06:04:03.000Z</time>
      </trkpt>
      <trkpt lat="45.95902" lon="4.58654">
        <ele>520</ele>
        <time>2018-08-05T06:04:04.000Z</time>
      </trkpt>
      <trkpt lat="45.95906" lon="4.58646">
        <ele>519</ele>
        <time>2018-08-05T06:04:05.000Z</time>
      </trkpt>
      <trkpt lat="45.95911" lon="4.58639">
        <ele>518</ele>
        <time>2018-08-05T06:04:06.000Z</time>
      </trkpt>
      <trkpt lat="45.95915" lon="4.58632">
        <ele>517</ele>
        <time>2018-08-05T06:04:07.000Z</time>
      </trkpt>
      <trkpt lat="45.9592" lon="4.58624">
        <ele>526</ele>
        <time>2018-08-05T06:04:08.000Z</time>
      </trkpt>
      <trkpt lat="45.95924" lon="4.58617">
        <ele>525</ele>
        <time>2018-08-05T06:04:09.000Z</time>
      </trkpt>
      <trkpt lat="45.95929" lon="4.5861">
        <ele>524</ele>
        <time>2018-08-05T06:04:10.000Z</time>
      </trkpt>
      <trkpt lat="45.95935" lon="4.58604">
        <ele>523</ele>
        <time>2018-08-05T06:04:11.000Z</time>
      </trkpt>
      <trkpt lat="45.9594" lon="4.58597">
        <ele>523</ele>
        <time>2018-08-05T06:04:12.000Z</time>
      </trkpt>
      <trkpt lat="45.95945" lon="4.58592">
        <ele>523</ele>
        <time>2018-08-05T06:04:13.000Z</time>
      </trkpt>
      <trkpt lat="45.95951" lon="4.58587">
        <ele>523</ele>
        <time>2018-08-05T06:04:14.000Z</time>
      </trkpt>
      <trkpt lat="45.95957" lon="4.58584">
        <ele>524</ele>
        <time>2018-08-05T06:04:15.000Z</time>
      </trkpt>
      <trkpt lat="45.95963" lon="4.58582">
        <ele>514</ele>
        <time>2018-08-05T06:04:16.000Z</time>
      </trkpt>
      <trkpt lat="45.95971" lon="4.58581">
        <ele>515</ele>
        <time>2018-08-05T06:04:17.000Z</time>
      </trkpt>
      <trkpt lat="45.95978" lon="4.58581">
        <ele>515</ele>
        <time>2018-08-05T06:04:18.000Z</time>
      </trkpt>
      <trkpt lat="45.95985" lon="4.58583">
        <ele>516</ele>
        <time>2018-08-05T06:04:19.000Z</time>
      </trkpt>
      <trkpt lat="45.95992" lon="4.58586">
        <ele>522</ele>
        <time>2018-08-05T06:04:20.000Z</time>
      </trkpt>
      <trkpt lat="45.95999" lon="4.58589">
        <ele>522</ele>
        <time>2018-08-05T06:04:21.000Z</time>
      </trkpt>
      <trkpt lat="45.96006" lon="4.58594">
        <ele>523</ele>
        <time>2018-08-05T06:04:22.000Z</time>
      </trkpt>
      <trkpt lat="45.96012" lon="4.58598">
        <ele>524</ele>
        <time>2018-08-05T06:04:23.000Z</time>
      </trkpt>
      <trkpt lat="45.96018" lon="4.58603">
        <ele>525</ele>
        <time>2018-08-05T06:04:24.000Z</time>
      </trkpt>
      <trkpt lat="45.96024" lon="4.58608">
        <ele>526</ele>
        <time>2018-08-05T06:04:25.000Z</time>
      </trkpt>
      <trkpt lat="45.96031" lon="4.58613">
        <ele>526</ele>
        <time>2018-08-05T06:04:26.000Z</time>
      </trkpt>
      <trkpt lat="45.96038" lon="4.58618">
        <ele>526</ele>
        <time>2018-08-05T06:04:27.000Z</time>
      </trkpt>
      <trkpt lat="45.96044" lon="4.58621">
        <ele>527</ele>
        <time>2018-08-05T06:04:28.000Z</time>
      </trkpt>
      <trkpt lat="45.96051" lon="4.58625">
        <ele>527</ele>
        <time>2018-08-05T06:04:29.000Z</time>
      </trkpt>
      <trkpt lat="45.96057" lon="4.58628">
        <ele>527</ele>
        <time>2018-08-05T06:04:30.000Z</time>
      </trkpt>
      <trkpt lat="45.96064" lon="4.5863">
        <ele>527</ele>
        <time>2018-08-05T06:04:31.000Z</time>
      </trkpt>
      <trkpt lat="45.96071" lon="4.58632">
        <ele>528</ele>
        <time>2018-08-05T06:04:32.000Z</time>
      </trkpt>
      <trkpt lat="45.96078" lon="4.58633">
        <ele>528</ele>
        <time>2018-08-05T06:04:33.000Z</time>
      </trkpt>
      <trkpt lat="45.96085" lon="4.58634">
        <ele>531</ele>
        <time>2018-08-05T06:04:34.000Z</time>
      </trkpt>
      <trkpt lat="45.96092" lon="4.58633">
        <ele>532</ele>
        <time>2018-08-05T06:04:35.000Z</time>
      </trkpt>
      <trkpt lat="45.96098" lon="4.58633">
        <ele>532</ele>
        <time>2018-08-05T06:04:36.000Z</time>
      </trkpt>
      <trkpt lat="45.96104" lon="4.58631">
        <ele>532</ele>
        <time>2018-08-05T06:04:37.000Z</time>
      </trkpt>
      <trkpt lat="45.9611" lon="4.58628">
        <ele>532</ele>
        <time>2018-08-05T06:04:38.000Z</time>
      </trkpt>
      <trkpt lat="45.96116" lon="4.58625">
        <ele>532</ele>
        <time>2018-08-05T06:04:39.000Z</time>
      </trkpt>
      <trkpt lat="45.96121" lon="4.58622">
        <ele>532</ele>
        <time>2018-08-05T06:04:40.000Z</time>
      </trkpt>
      <trkpt lat="45.96127" lon="4.58618">
        <ele>532</ele>
        <time>2018-08-05T06:04:41.000Z</time>
      </trkpt>
      <trkpt lat="45.96131" lon="4.58613">
        <ele>532</ele>
        <time>2018-08-05T06:04:42.000Z</time>
      </trkpt>
      <trkpt lat="45.96136" lon="4.58608">
        <ele>532</ele>
        <time>2018-08-05T06:04:43.000Z</time>
      </trkpt>
      <trkpt lat="45.96141" lon="4.58602">
        <ele>532</ele>
        <time>2018-08-05T06:04:44.000Z</time>
      </trkpt>
      <trkpt lat="45.96145" lon="4.58596">
        <ele>532</ele>
        <time>2018-08-05T06:04:45.000Z</time>
      </trkpt>
      <trkpt lat="45.9615" lon="4.5859">
        <ele>532</ele>
        <time>2018-08-05T06:04:46.000Z</time>
      </trkpt>
      <trkpt lat="45.96154" lon="4.58584">
        <ele>531</ele>
        <time>2018-08-05T06:04:47.000Z</time>
      </trkpt>
      <trkpt lat="45.96158" lon="4.58578">
        <ele>524</ele>
        <time>2018-08-05T06:04:48.000Z</time>
      </trkpt>
      <trkpt lat="45.96162" lon="4.58572">
        <ele>523</ele>
        <time>2018-08-05T06:04:49.000Z</time>
      </trkpt>
      <trkpt lat="45.96166" lon="4.58566">
        <ele>521</ele>
        <time>2018-08-05T06:04:50.000Z</time>
      </trkpt>
      <trkpt lat="45.9617" lon="4.5856">
        <ele>527</ele>
        <time>2018-08-05T06:04:51.000Z</time>
      </trkpt>
      <trkpt lat="45.96175" lon="4.58554">
        <ele>526</ele>
        <time>2018-08-05T06:04:52.000Z</time>
      </trkpt>
      <trkpt lat="45.96179" lon="4.58549">
        <ele>525</ele>
        <time>2018-08-05T06:04:53.000Z</time>
      </trkpt>
      <trkpt lat="45.96183" lon="4.58543">
        <ele>524</ele>
        <time>2018-08-05T06:04:54.000Z</time>
      </trkpt>
      <trkpt lat="45.96187" lon="4.58538">
        <ele>524</ele>
        <time>2018-08-05T06:04:55.000Z</time>
      </trkpt>
      <trkpt lat="45.96191" lon="4.58534">
        <ele>523</ele>
        <time>2018-08-05T06:04:56.000Z</time>
      </trkpt>
      <trkpt lat="45.96195" lon="4.5853">
        <ele>523</ele>
        <time>2018-08-05T06:04:57.000Z</time>
      </trkpt>
      <trkpt lat="45.96199" lon="4.58526">
        <ele>523</ele>
        <time>2018-08-05T06:04:58.000Z</time>
      </trkpt>
      <trkpt lat="45.96204" lon="4.58522">
        <ele>523</ele>
        <time>2018-08-05T06:04:59.000Z</time>
      </trkpt>
      <trkpt lat="45.96208" lon="4.58519">
        <ele>523</ele>
        <time>2018-08-05T06:05:00.000Z</time>
      </trkpt>
      <trkpt lat="45.96213" lon="4.58516">
        <ele>523</ele>
        <time>2018-08-05T06:05:01.000Z</time>
      </trkpt>
      <trkpt lat="45.96217" lon="4.58514">
        <ele>523</ele>
        <time>2018-08-05T06:05:02.000Z</time>
      </trkpt>
      <trkpt lat="45.96222" lon="4.58512">
        <ele>522</ele>
        <time>2018-08-05T06:05:03.000Z</time>
      </trkpt>
      <trkpt lat="45.96227" lon="4.5851">
        <ele>522</ele>
        <time>2018-08-05T06:05:04.000Z</time>
      </trkpt>
      <trkpt lat="45.96231" lon="4.58509">
        <ele>522</ele>
        <time>2018-08-05T06:05:05.000Z</time>
      </trkpt>
      <trkpt lat="45.96236" lon="4.58508">
        <ele>521</ele>
        <time>2018-08-05T06:05:06.000Z</time>
      </trkpt>
      <trkpt lat="45.96241" lon="4.58507">
        <ele>521</ele>
        <time>2018-08-05T06:05:07.000Z</time>
      </trkpt>
      <trkpt lat="45.96246" lon="4.58507">
        <ele>520</ele>
        <time>2018-08-05T06:05:08.000Z</time>
      </trkpt>
      <trkpt lat="45.96251" lon="4.58508">
        <ele>521</ele>
        <time>2018-08-05T06:05:09.000Z</time>
      </trkpt>
      <trkpt lat="45.96257" lon="4.5851">
        <ele>522</ele>
        <time>2018-08-05T06:05:10.000Z</time>
      </trkpt>
      <trkpt lat="45.96262" lon="4.58513">
        <ele>523</ele>
        <time>2018-08-05T06:05:11.000Z</time>
      </trkpt>
      <trkpt lat="45.96267" lon="4.58515">
        <ele>524</ele>
        <time>2018-08-05T06:05:12.000Z</time>
      </trkpt>
      <trkpt lat="45.96272" lon="4.58518">
        <ele>524</ele>
        <time>2018-08-05T06:05:13.000Z</time>
      </trkpt>
      <trkpt lat="45.96277" lon="4.5852">
        <ele>525</ele>
        <time>2018-08-05T06:05:14.000Z</time>
      </trkpt>
      <trkpt lat="45.96282" lon="4.58523">
        <ele>525</ele>
        <time>2018-08-05T06:05:15.000Z</time>
      </trkpt>
      <trkpt lat="45.96287" lon="4.58526">
        <ele>525</ele>
        <time>2018-08-05T06:05:16.000Z</time>
      </trkpt>
      <trkpt lat="45.96292" lon="4.58528">
        <ele>526</ele>
        <time>2018-08-05T06:05:17.000Z</time>
      </trkpt>
      <trkpt lat="45.96297" lon="4.58531">
        <ele>526</ele>
        <time>2018-08-05T06:05:18.000Z</time>
      </trkpt>
      <trkpt lat="45.96302" lon="4.58534">
        <ele>526</ele>
        <time>2018-08-05T06:05:19.000Z</time>
      </trkpt>
      <trkpt lat="45.96307" lon="4.58537">
        <ele>526</ele>
        <time>2018-08-05T06:05:20.000Z</time>
      </trkpt>
      <trkpt lat="45.96312" lon="4.58539">
        <ele>526</ele>
        <time>2018-08-05T06:05:21.000Z</time>
      </trkpt>
      <trkpt lat="45.96318" lon="4.58541">
        <ele>527</ele>
        <time>2018-08-05T06:05:22.000Z</time>
      </trkpt>
      <trkpt lat="45.96323" lon="4.58543">
        <ele>527</ele>
        <time>2018-08-05T06:05:23.000Z</time>
      </trkpt>
      <trkpt lat="45.96328" lon="4.58544">
        <ele>527</ele>
        <time>2018-08-05T06:05:24.000Z</time>
      </trkpt>
      <trkpt lat="45.96333" lon="4.58545">
        <ele>527</ele>
        <time>2018-08-05T06:05:25.000Z</time>
      </trkpt>
      <trkpt lat="45.96338" lon="4.58545">
        <ele>531</ele>
        <time>2018-08-05T06:05:26.000Z</time>
      </trkpt>
      <trkpt lat="45.96343" lon="4.58545">
        <ele>531</ele>
        <time>2018-08-05T06:05:27.000Z</time>
      </trkpt>
      <trkpt lat="45.96347" lon="4.58544">
        <ele>531</ele>
        <time>2018-08-05T06:05:28.000Z</time>
      </trkpt>
      <trkpt lat="45.96352" lon="4.58542">
        <ele>531</ele>
        <time>2018-08-05T06:05:29.000Z</time>
      </trkpt>
      <trkpt lat="45.96356" lon="4.5854">
        <ele>531</ele>
        <time>2018-08-05T06:05:30.000Z</time>
      </trkpt>
      <trkpt lat="45.96361" lon="4.58537">
        <ele>531</ele>
        <time>2018-08-05T06:05:31.000Z</time>
      </trkpt>
      <trkpt lat="45.96365" lon="4.58534">
        <ele>531</ele>
        <time>2018-08-05T06:05:32.000Z</time>
      </trkpt>
      <trkpt lat="45.96369" lon="4.5853">
        <ele>531</ele>
        <time>2018-08-05T06:05:33.000Z</time>
      </trkpt>
      <trkpt lat="45.96373" lon="4.58527">
        <ele>531</ele>
        <time>2018-08-05T06:05:34.000Z</time>
      </trkpt>
      <trkpt lat="45.96377" lon="4.58523">
        <ele>532</ele>
        <time>2018-08-05T06:05:35.000Z</time>
      </trkpt>
      <trkpt lat="45.96381" lon="4.58519">
        <ele>532</ele>
        <time>2018-08-05T06:05:36.000Z</time>
      </trkpt>
      <trkpt lat="45.96384" lon="4.58515">
        <ele>532</ele>
        <time>2018-08-05T06:05:37.000Z</time>
      </trkpt>
      <trkpt lat="45.96388" lon="4.58511">
        <ele>532</ele>
        <time>2018-08-05T06:05:38.000Z</time>
      </trkpt>
      <trkpt lat="45.96392" lon="4.58507">
        <ele>532</ele>
        <time>2018-08-05T06:05:39.000Z</time>
      </trkpt>
      <trkpt lat="45.96395" lon="4.58503">
        <ele>533</ele>
        <time>2018-08-05T06:05:40.000Z</time>
      </trkpt>
      <trkpt lat="45.96399" lon="4.58498">
        <ele>523</ele>
        <time>2018-08-05T06:05:41.000Z</time>
      </trkpt>
      <trkpt lat="45.96403" lon="4.58494">
        <ele>524</ele>
        <time>2018-08-05T06:05:42.000Z</time>
      </trkpt>
      <trkpt lat="45.96406" lon="4.5849">
        <ele>524</ele>
        <time>2018-08-05T06:05:43.000Z</time>
      </trkpt>
      <trkpt lat="45.9641" lon="4.58486">
        <ele>524</ele>
        <time>2018-08-05T06:05:44.000Z</time>
      </trkpt>
      <trkpt lat="45.96414" lon="4.58482">
        <ele>523</ele>
        <time>2018-08-05T06:05:45.000Z</time>
      </trkpt>
      <trkpt lat="45.96417" lon="4.58478">
        <ele>531</ele>
        <time>2018-08-05T06:05:46.000Z</time>
      </trkpt>
      <trkpt lat="45.96421" lon="4.58474">
        <ele>531</ele>
        <time>2018-08-05T06:05:47.000Z</time>
      </trkpt>
      <trkpt lat="45.96425" lon="4.5847">
        <ele>530</ele>
        <time>2018-08-05T06:05:48.000Z</time>
      </trkpt>
      <trkpt lat="45.96429" lon="4.58465">
        <ele>530</ele>
        <time>2018-08-05T06:05:49.000Z</time>
      </trkpt>
      <trkpt lat="45.96432" lon="4.58461">
        <ele>529</ele>
        <time>2018-08-05T06:05:50.000Z</time>
      </trkpt>
      <trkpt lat="45.96436" lon="4.58456">
        <ele>528</ele>
        <time>2018-08-05T06:05:51.000Z</time>
      </trkpt>
      <trkpt lat="45.9644" lon="4.58451">
        <ele>528</ele>
        <time>2018-08-05T06:05:52.000Z</time>
      </trkpt>
      <trkpt lat="45.96443" lon="4.58447">
        <ele>528</ele>
        <time>2018-08-05T06:05:53.000Z</time>
      </trkpt>
      <trkpt lat="45.96447" lon="4.58442">
        <ele>527</ele>
        <time>2018-08-05T06:05:54.000Z</time>
      </trkpt>
      <trkpt lat="45.96451" lon="4.58438">
        <ele>527</ele>
        <time>2018-08-05T06:05:55.000Z</time>
      </trkpt>
      <trkpt lat="45.96455" lon="4.58434">
        <ele>527</ele>
        <time>2018-08-05T06:05:56.000Z</time>
      </trkpt>
      <trkpt lat="45.96459" lon="4.5843">
        <ele>527</ele>
        <time>2018-08-05T06:05:57.000Z</time>
      </trkpt>
      <trkpt lat="45.96463" lon="4.58426">
        <ele>528</ele>
        <time>2018-08-05T06:05:58.000Z</time>
      </trkpt>
      <trkpt lat="45.96467" lon="4.58422">
        <ele>528</ele>
        <time>2018-08-05T06:05:59.000Z</time>
      </trkpt>
      <trkpt lat="45.96471" lon="4.58418">
        <ele>528</ele>
        <time>2018-08-05T06:06:00.000Z</time>
      </trkpt>
      <trkpt lat="45.96476" lon="4.58415">
        <ele>517</ele>
        <time>2018-08-05T06:06:01.000Z</time>
      </trkpt>
      <trkpt lat="45.9648" lon="4.58412">
        <ele>518</ele>
        <time>2018-08-05T06:06:02.000Z</time>
      </trkpt>
      <trkpt lat="45.96485" lon="4.58409">
        <ele>519</ele>
        <time>2018-08-05T06:06:03.000Z</time>
      </trkpt>
      <trkpt lat="45.9649" lon="4.58407">
        <ele>520</ele>
        <time>2018-08-05T06:06:04.000Z</time>
      </trkpt>
      <trkpt lat="45.96495" lon="4.58406">
        <ele>521</ele>
        <time>2018-08-05T06:06:05.000Z</time>
      </trkpt>
      <trkpt lat="45.965" lon="4.58406">
        <ele>521</ele>
        <time>2018-08-05T06:06:06.000Z</time>
      </trkpt>
      <trkpt lat="45.96505" lon="4.58406">
        <ele>521</ele>
        <time>2018-08-05T06:06:07.000Z</time>
      </trkpt>
      <trkpt lat="45.9651" lon="4.58407">
        <ele>520</ele>
        <time>2018-08-05T06:06:08.000Z</time>
      </trkpt>
      <trkpt lat="45.96515" lon="4.58409">
        <ele>519</ele>
        <time>2018-08-05T06:06:09.000Z</time>
      </trkpt>
      <trkpt lat="45.9652" lon="4.58412">
        <ele>518</ele>
        <time>2018-08-05T06:06:10.000Z</time>
      </trkpt>
      <trkpt lat="45.96525" lon="4.58414">
        <ele>517</ele>
        <time>2018-08-05T06:06:11.000Z</time>
      </trkpt>
      <trkpt lat="45.9653" lon="4.58417">
        <ele>529</ele>
        <time>2018-08-05T06:06:12.000Z</time>
      </trkpt>
      <trkpt lat="45.96534" lon="4.5842">
        <ele>528</ele>
        <time>2018-08-05T06:06:13.000Z</time>
      </trkpt>
      <trkpt lat="45.96539" lon="4.58422">
        <ele>528</ele>
        <time>2018-08-05T06:06:14.000Z</time>
      </trkpt>
      <trkpt lat="45.96544" lon="4.58425">
        <ele>528</ele>
        <time>2018-08-05T06:06:15.000Z</time>
      </trkpt>
      <trkpt lat="45.96548" lon="4.58428">
        <ele>527</ele>
        <time>2018-08-05T06:06:16.000Z</time>
      </trkpt>
      <trkpt lat="45.96552" lon="4.58432">
        <ele>527</ele>
        <time>2018-08-05T06:06:17.000Z</time>
      </trkpt>
      <trkpt lat="45.96557" lon="4.58435">
        <ele>527</ele>
        <time>2018-08-05T06:06:18.000Z</time>
      </trkpt>
      <trkpt lat="45.96561" lon="4.58438">
        <ele>527</ele>
        <time>2018-08-05T06:06:19.000Z</time>
      </trkpt>
      <trkpt lat="45.96565" lon="4.58441">
        <ele>527</ele>
        <time>2018-08-05T06:06:20.000Z</time>
      </trkpt>
      <trkpt lat="45.96569" lon="4.58444">
        <ele>527</ele>
        <time>2018-08-05T06:06:21.000Z</time>
      </trkpt>
      <trkpt lat="45.96573" lon="4.58448">
        <ele>527</ele>
        <time>2018-08-05T06:06:22.000Z</time>
      </trkpt>
      <trkpt lat="45.96578" lon="4.58451">
        <ele>528</ele>
        <time>2018-08-05T06:06:23.000Z</time>
      </trkpt>
      <trkpt lat="45.96582" lon="4.58455">
        <ele>528</ele>
        <time>2018-08-05T06:06:24.000Z</time>
      </trkpt>
      <trkpt lat="45.96587" lon="4.58459">
        <ele>520</ele>
        <time>2018-08-05T06:06:25.000Z</time>
      </trkpt>
      <trkpt lat="45.96592" lon="4.58462">
        <ele>521</ele>
        <time>2018-08-05T06:06:26.000Z</time>
      </trkpt>
      <trkpt lat="45.96597" lon="4.58466">
        <ele>521</ele>
        <time>2018-08-05T06:06:27.000Z</time>
      </trkpt>
      <trkpt lat="45.96603" lon="4.58471">
        <ele>521</ele>
        <time>2018-08-05T06:06:28.000Z</time>
      </trkpt>
      <trkpt lat="45.96607" lon="4.58475">
        <ele>522</ele>
        <time>2018-08-05T06:06:29.000Z</time>
      </trkpt>
      <trkpt lat="45.96612" lon="4.58479">
        <ele>522</ele>
        <time>2018-08-05T06:06:30.000Z</time>
      </trkpt>
      <trkpt lat="45.96617" lon="4.58484">
        <ele>521</ele>
        <time>2018-08-05T06:06:31.000Z</time>
      </trkpt>
      <trkpt lat="45.96622" lon="4.58489">
        <ele>521</ele>
        <time>2018-08-05T06:06:32.000Z</time>
      </trkpt>
      <trkpt lat="45.96627" lon="4.58495">
        <ele>521</ele>
        <time>2018-08-05T06:06:33.000Z</time>
      </trkpt>
      <trkpt lat="45.96631" lon="4.58501">
        <ele>533</ele>
        <time>2018-08-05T06:06:34.000Z</time>
      </trkpt>
      <trkpt lat="45.96636" lon="4.58507">
        <ele>532</ele>
        <time>2018-08-05T06:06:35.000Z</time>
      </trkpt>
      <trkpt lat="45.96641" lon="4.58513">
        <ele>532</ele>
        <time>2018-08-05T06:06:36.000Z</time>
      </trkpt>
      <trkpt lat="45.96645" lon="4.58519">
        <ele>532</ele>
        <time>2018-08-05T06:06:37.000Z</time>
      </trkpt>
      <trkpt lat="45.9665" lon="4.58525">
        <ele>532</ele>
        <time>2018-08-05T06:06:38.000Z</time>
      </trkpt>
      <trkpt lat="45.96656" lon="4.5853">
        <ele>533</ele>
        <time>2018-08-05T06:06:39.000Z</time>
      </trkpt>
      <trkpt lat="45.96662" lon="4.58535">
        <ele>534</ele>
        <time>2018-08-05T06:06:40.000Z</time>
      </trkpt>
      <trkpt lat="45.96668" lon="4.58539">
        <ele>532</ele>
        <time>2018-08-05T06:06:41.000Z</time>
      </trkpt>
      <trkpt lat="45.96674" lon="4.58541">
        <ele>533</ele>
        <time>2018-08-05T06:06:42.000Z</time>
      </trkpt>
      <trkpt lat="45.96681" lon="4.58543">
        <ele>533</ele>
        <time>2018-08-05T06:06:43.000Z</time>
      </trkpt>
      <trkpt lat="45.96688" lon="4.58544">
        <ele>534</ele>
        <time>2018-08-05T06:06:44.000Z</time>
      </trkpt>
      <trkpt lat="45.96694" lon="4.58545">
        <ele>534</ele>
        <time>2018-08-05T06:06:45.000Z</time>
      </trkpt>
      <trkpt lat="45.967" lon="4.58546">
        <ele>535</ele>
        <time>2018-08-05T06:06:46.000Z</time>
      </trkpt>
      <trkpt lat="45.96706" lon="4.58546">
        <ele>535</ele>
        <time>2018-08-05T06:06:47.000Z</time>
      </trkpt>
      <trkpt lat="45.96712" lon="4.58545">
        <ele>536</ele>
        <time>2018-08-05T06:06:48.000Z</time>
      </trkpt>
      <trkpt lat="45.96717" lon="4.58542">
        <ele>536</ele>
        <time>2018-08-05T06:06:49.000Z</time>
      </trkpt>
      <trkpt lat="45.96723" lon="4.58539">
        <ele>536</ele>
        <time>2018-08-05T06:06:50.000Z</time>
      </trkpt>
      <trkpt lat="45.96728" lon="4.58534">
        <ele>536</ele>
        <time>2018-08-05T06:06:51.000Z</time>
      </trkpt>
      <trkpt lat="45.96733" lon="4.58528">
        <ele>535</ele>
        <time>2018-08-05T06:06:52.000Z</time>
      </trkpt>
      <trkpt lat="45.96736" lon="4.58522">
        <ele>535</ele>
        <time>2018-08-05T06:06:53.000Z</time>
      </trkpt>
      <trkpt lat="45.9674" lon="4.58514">
        <ele>535</ele>
        <time>2018-08-05T06:06:54.000Z</time>
      </trkpt>
      <trkpt lat="45.96742" lon="4.58506">
        <ele>535</ele>
        <time>2018-08-05T06:06:55.000Z</time>
      </trkpt>
      <trkpt lat="45.96745" lon="4.58498">
        <ele>532</ele>
        <time>2018-08-05T06:06:56.000Z</time>
      </trkpt>
      <trkpt lat="45.96747" lon="4.5849">
        <ele>530</ele>
        <time>2018-08-05T06:06:57.000Z</time>
      </trkpt>
      <trkpt lat="45.9675" lon="4.58481">
        <ele>528</ele>
        <time>2018-08-05T06:06:58.000Z</time>
      </trkpt>
      <trkpt lat="45.96752" lon="4.58473">
        <ele>545</ele>
        <time>2018-08-05T06:06:59.000Z</time>
      </trkpt>
      <trkpt lat="45.96754" lon="4.58465">
        <ele>545</ele>
        <time>2018-08-05T06:07:00.000Z</time>
      </trkpt>
      <trkpt lat="45.96755" lon="4.58456">
        <ele>545</ele>
        <time>2018-08-05T06:07:01.000Z</time>
      </trkpt>
      <trkpt lat="45.96756" lon="4.58447">
        <ele>544</ele>
        <time>2018-08-05T06:07:02.000Z</time>
      </trkpt>
      <trkpt lat="45.96757" lon="4.58439">
        <ele>543</ele>
        <time>2018-08-05T06:07:03.000Z</time>
      </trkpt>
      <trkpt lat="45.96757" lon="4.58431">
        <ele>540</ele>
        <time>2018-08-05T06:07:04.000Z</time>
      </trkpt>
      <trkpt lat="45.96757" lon="4.58422">
        <ele>536</ele>
        <time>2018-08-05T06:07:05.000Z</time>
      </trkpt>
      <trkpt lat="45.96756" lon="4.58413">
        <ele>535</ele>
        <time>2018-08-05T06:07:06.000Z</time>
      </trkpt>
      <trkpt lat="45.96755" lon="4.58405">
        <ele>539</ele>
        <time>2018-08-05T06:07:07.000Z</time>
      </trkpt>
      <trkpt lat="45.96755" lon="4.58399">
        <ele>541</ele>
        <time>2018-08-05T06:07:08.000Z</time>
      </trkpt>
      <trkpt lat="45.96754" lon="4.58389">
        <ele>544</ele>
        <time>2018-08-05T06:07:09.000Z</time>
      </trkpt>
      <trkpt lat="45.96753" lon="4.5838">
        <ele>545</ele>
        <time>2018-08-05T06:07:10.000Z</time>
      </trkpt>
      <trkpt lat="45.96752" lon="4.58372">
        <ele>545</ele>
        <time>2018-08-05T06:07:11.000Z</time>
      </trkpt>
      <trkpt lat="45.9675" lon="4.58363">
        <ele>523</ele>
        <time>2018-08-05T06:07:12.000Z</time>
      </trkpt>
      <trkpt lat="45.96749" lon="4.58354">
        <ele>525</ele>
        <time>2018-08-05T06:07:13.000Z</time>
      </trkpt>
      <trkpt lat="45.96747" lon="4.58346">
        <ele>527</ele>
        <time>2018-08-05T06:07:14.000Z</time>
      </trkpt>
      <trkpt lat="45.96745" lon="4.58338">
        <ele>530</ele>
        <time>2018-08-05T06:07:15.000Z</time>
      </trkpt>
      <trkpt lat="45.96743" lon="4.5833">
        <ele>530</ele>
        <time>2018-08-05T06:07:16.000Z</time>
      </trkpt>
      <trkpt lat="45.96741" lon="4.58322">
        <ele>527</ele>
        <time>2018-08-05T06:07:17.000Z</time>
      </trkpt>
      <trkpt lat="45.96738" lon="4.58315">
        <ele>525</ele>
        <time>2018-08-05T06:07:18.000Z</time>
      </trkpt>
      <trkpt lat="45.96736" lon="4.58308">
        <ele>524</ele>
        <time>2018-08-05T06:07:19.000Z</time>
      </trkpt>
      <trkpt lat="45.96733" lon="4.58301">
        <ele>523</ele>
        <time>2018-08-05T06:07:20.000Z</time>
      </trkpt>
      <trkpt lat="45.9673" lon="4.58294">
        <ele>522</ele>
        <time>2018-08-05T06:07:21.000Z</time>
      </trkpt>
      <trkpt lat="45.96727" lon="4.58286">
        <ele>522</ele>
        <time>2018-08-05T06:07:22.000Z</time>
      </trkpt>
      <trkpt lat="45.96725" lon="4.58279">
        <ele>522</ele>
        <time>2018-08-05T06:07:23.000Z</time>
      </trkpt>
      <trkpt lat="45.96723" lon="4.58271">
        <ele>523</ele>
        <time>2018-08-05T06:07:24.000Z</time>
      </trkpt>
      <trkpt lat="45.96721" lon="4.58263">
        <ele>523</ele>
        <time>2018-08-05T06:07:25.000Z</time>
      </trkpt>
      <trkpt lat="45.9672" lon="4.58254">
        <ele>523</ele>
        <time>2018-08-05T06:07:26.000Z</time>
      </trkpt>
      <trkpt lat="45.96719" lon="4.58246">
        <ele>522</ele>
        <time>2018-08-05T06:07:27.000Z</time>
      </trkpt>
      <trkpt lat="45.96719" lon="4.58238">
        <ele>521</ele>
        <time>2018-08-05T06:07:28.000Z</time>
      </trkpt>
      <trkpt lat="45.9672" lon="4.58229">
        <ele>521</ele>
        <time>2018-08-05T06:07:29.000Z</time>
      </trkpt>
      <trkpt lat="45.9672" lon="4.58221">
        <ele>520</ele>
        <time>2018-08-05T06:07:30.000Z</time>
      </trkpt>
      <trkpt lat="45.96721" lon="4.58214">
        <ele>520</ele>
        <time>2018-08-05T06:07:31.000Z</time>
      </trkpt>
      <trkpt lat="45.96723" lon="4.58206">
        <ele>520</ele>
        <time>2018-08-05T06:07:32.000Z</time>
      </trkpt>
      <trkpt lat="45.96724" lon="4.58199">
        <ele>520</ele>
        <time>2018-08-05T06:07:33.000Z</time>
      </trkpt>
      <trkpt lat="45.96727" lon="4.58191">
        <ele>520</ele>
        <time>2018-08-05T06:07:34.000Z</time>
      </trkpt>
      <trkpt lat="45.96729" lon="4.58183">
        <ele>521</ele>
        <time>2018-08-05T06:07:35.000Z</time>
      </trkpt>
      <trkpt lat="45.96732" lon="4.58176">
        <ele>522</ele>
        <time>2018-08-05T06:07:36.000Z</time>
      </trkpt>
      <trkpt lat="45.96735" lon="4.58168">
        <ele>524</ele>
        <time>2018-08-05T06:07:37.000Z</time>
      </trkpt>
      <trkpt lat="45.96738" lon="4.58161">
        <ele>521</ele>
        <time>2018-08-05T06:07:38.000Z</time>
      </trkpt>
      <trkpt lat="45.96741" lon="4.58155">
        <ele>520</ele>
        <time>2018-08-05T06:07:39.000Z</time>
      </trkpt>
      <trkpt lat="45.96745" lon="4.58148">
        <ele>519</ele>
        <time>2018-08-05T06:07:40.000Z</time>
      </trkpt>
      <trkpt lat="45.96748" lon="4.58142">
        <ele>517</ele>
        <time>2018-08-05T06:07:41.000Z</time>
      </trkpt>
      <trkpt lat="45.96751" lon="4.58136">
        <ele>531</ele>
        <time>2018-08-05T06:07:42.000Z</time>
      </trkpt>
      <trkpt lat="45.96755" lon="4.5813">
        <ele>531</ele>
        <time>2018-08-05T06:07:43.000Z</time>
      </trkpt>
      <trkpt lat="45.96758" lon="4.58124">
        <ele>531</ele>
        <time>2018-08-05T06:07:44.000Z</time>
      </trkpt>
      <trkpt lat="45.96761" lon="4.58119">
        <ele>530</ele>
        <time>2018-08-05T06:07:45.000Z</time>
      </trkpt>
      <trkpt lat="45.96764" lon="4.58113">
        <ele>530</ele>
        <time>2018-08-05T06:07:46.000Z</time>
      </trkpt>
      <trkpt lat="45.96767" lon="4.58108">
        <ele>529</ele>
        <time>2018-08-05T06:07:47.000Z</time>
      </trkpt>
      <trkpt lat="45.9677" lon="4.58102">
        <ele>529</ele>
        <time>2018-08-05T06:07:48.000Z</time>
      </trkpt>
      <trkpt lat="45.96773" lon="4.58097">
        <ele>529</ele>
        <time>2018-08-05T06:07:49.000Z</time>
      </trkpt>
      <trkpt lat="45.96775" lon="4.58092">
        <ele>529</ele>
        <time>2018-08-05T06:07:50.000Z</time>
      </trkpt>
      <trkpt lat="45.96778" lon="4.58086">
        <ele>529</ele>
        <time>2018-08-05T06:07:51.000Z</time>
      </trkpt>
      <trkpt lat="45.96781" lon="4.58081">
        <ele>522</ele>
        <time>2018-08-05T06:07:52.000Z</time>
      </trkpt>
      <trkpt lat="45.96784" lon="4.58076">
        <ele>522</ele>
        <time>2018-08-05T06:07:53.000Z</time>
      </trkpt>
      <trkpt lat="45.96786" lon="4.58071">
        <ele>522</ele>
        <time>2018-08-05T06:07:54.000Z</time>
      </trkpt>
      <trkpt lat="45.96789" lon="4.58065">
        <ele>523</ele>
        <time>2018-08-05T06:07:55.000Z</time>
      </trkpt>
      <trkpt lat="45.96792" lon="4.5806">
        <ele>523</ele>
        <time>2018-08-05T06:07:56.000Z</time>
      </trkpt>
      <trkpt lat="45.96795" lon="4.58055">
        <ele>523</ele>
        <time>2018-08-05T06:07:57.000Z</time>
      </trkpt>
      <trkpt lat="45.96798" lon="4.5805">
        <ele>523</ele>
        <time>2018-08-05T06:07:58.000Z</time>
      </trkpt>
      <trkpt lat="45.96802" lon="4.58045">
        <ele>523</ele>
        <time>2018-08-05T06:07:59.000Z</time>
      </trkpt>
      <trkpt lat="45.96805" lon="4.58041">
        <ele>523</ele>
        <time>2018-08-05T06:08:00.000Z</time>
      </trkpt>
      <trkpt lat="45.96809" lon="4.58037">
        <ele>523</ele>
        <time>2018-08-05T06:08:01.000Z</time>
      </trkpt>
      <trkpt lat="45.96812" lon="4.58032">
        <ele>523</ele>
        <time>2018-08-05T06:08:02.000Z</time>
      </trkpt>
      <trkpt lat="45.96816" lon="4.58028">
        <ele>523</ele>
        <time>2018-08-05T06:08:03.000Z</time>
      </trkpt>
      <trkpt lat="45.9682" lon="4.58025">
        <ele>523</ele>
        <time>2018-08-05T06:08:04.000Z</time>
      </trkpt>
      <trkpt lat="45.96825" lon="4.58022">
        <ele>523</ele>
        <time>2018-08-05T06:08:05.000Z</time>
      </trkpt>
      <trkpt lat="45.96829" lon="4.58019">
        <ele>523</ele>
        <time>2018-08-05T06:08:06.000Z</time>
      </trkpt>
      <trkpt lat="45.96834" lon="4.58016">
        <ele>527</ele>
        <time>2018-08-05T06:08:07.000Z</time>
      </trkpt>
      <trkpt lat="45.96838" lon="4.58015">
        <ele>527</ele>
        <time>2018-08-05T06:08:08.000Z</time>
      </trkpt>
      <trkpt lat="45.96843" lon="4.58013">
        <ele>527</ele>
        <time>2018-08-05T06:08:09.000Z</time>
      </trkpt>
      <trkpt lat="45.96847" lon="4.58013">
        <ele>527</ele>
        <time>2018-08-05T06:08:10.000Z</time>
      </trkpt>
      <trkpt lat="45.96852" lon="4.58013">
        <ele>527</ele>
        <time>2018-08-05T06:08:11.000Z</time>
      </trkpt>
      <trkpt lat="45.96857" lon="4.58013">
        <ele>528</ele>
        <time>2018-08-05T06:08:12.000Z</time>
      </trkpt>
      <trkpt lat="45.96861" lon="4.58014">
        <ele>528</ele>
        <time>2018-08-05T06:08:13.000Z</time>
      </trkpt>
      <trkpt lat="45.96866" lon="4.58016">
        <ele>528</ele>
        <time>2018-08-05T06:08:14.000Z</time>
      </trkpt>
      <trkpt lat="45.9687" lon="4.58017">
        <ele>528</ele>
        <time>2018-08-05T06:08:15.000Z</time>
      </trkpt>
      <trkpt lat="45.96874" lon="4.58019">
        <ele>528</ele>
        <time>2018-08-05T06:08:16.000Z</time>
      </trkpt>
      <trkpt lat="45.96878" lon="4.58021">
        <ele>529</ele>
        <time>2018-08-05T06:08:17.000Z</time>
      </trkpt>
      <trkpt lat="45.96882" lon="4.58023">
        <ele>529</ele>
        <time>2018-08-05T06:08:18.000Z</time>
      </trkpt>
      <trkpt lat="45.96886" lon="4.58025">
        <ele>529</ele>
        <time>2018-08-05T06:08:19.000Z</time>
      </trkpt>
      <trkpt lat="45.9689" lon="4.58028">
        <ele>529</ele>
        <time>2018-08-05T06:08:20.000Z</time>
      </trkpt>
      <trkpt lat="45.96894" lon="4.58031">
        <ele>529</ele>
        <time>2018-08-05T06:08:21.000Z</time>
      </trkpt>
      <trkpt lat="45.96898" lon="4.58034">
        <ele>529</ele>
        <time>2018-08-05T06:08:22.000Z</time>
      </trkpt>
      <trkpt lat="45.96902" lon="4.58038">
        <ele>530</ele>
        <time>2018-08-05T06:08:23.000Z</time>
      </trkpt>
      <trkpt lat="45.96906" lon="4.58041">
        <ele>530</ele>
        <time>2018-08-05T06:08:24.000Z</time>
      </trkpt>
      <trkpt lat="45.96909" lon="4.58044">
        <ele>531</ele>
        <time>2018-08-05T06:08:25.000Z</time>
      </trkpt>
      <trkpt lat="45.96913" lon="4.58048">
        <ele>531</ele>
        <time>2018-08-05T06:08:26.000Z</time>
      </trkpt>
      <trkpt lat="45.96917" lon="4.58052">
        <ele>532</ele>
        <time>2018-08-05T06:08:27.000Z</time>
      </trkpt>
      <trkpt lat="45.9692" lon="4.58056">
        <ele>530</ele>
        <time>2018-08-05T06:08:28.000Z</time>
      </trkpt>
      <trkpt lat="45.96923" lon="4.5806">
        <ele>531</ele>
        <time>2018-08-05T06:08:29.000Z</time>
      </trkpt>
      <trkpt lat="45.96927" lon="4.58064">
        <ele>532</ele>
        <time>2018-08-05T06:08:30.000Z</time>
      </trkpt>
      <trkpt lat="45.9693" lon="4.58068">
        <ele>532</ele>
        <time>2018-08-05T06:08:31.000Z</time>
      </trkpt>
      <trkpt lat="45.96933" lon="4.58072">
        <ele>532</ele>
        <time>2018-08-05T06:08:32.000Z</time>
      </trkpt>
      <trkpt lat="45.96936" lon="4.58075">
        <ele>532</ele>
        <time>2018-08-05T06:08:33.000Z</time>
      </trkpt>
      <trkpt lat="45.96939" lon="4.58079">
        <ele>532</ele>
        <time>2018-08-05T06:08:34.000Z</time>
      </trkpt>
      <trkpt lat="45.96942" lon="4.58083">
        <ele>532</ele>
        <time>2018-08-05T06:08:35.000Z</time>
      </trkpt>
      <trkpt lat="45.96945" lon="4.58087">
        <ele>542</ele>
        <time>2018-08-05T06:08:36.000Z</time>
      </trkpt>
      <trkpt lat="45.96948" lon="4.5809">
        <ele>542</ele>
        <time>2018-08-05T06:08:37.000Z</time>
      </trkpt>
      <trkpt lat="45.96951" lon="4.58094">
        <ele>543</ele>
        <time>2018-08-05T06:08:38.000Z</time>
      </trkpt>
      <trkpt lat="45.96954" lon="4.58097">
        <ele>543</ele>
        <time>2018-08-05T06:08:39.000Z</time>
      </trkpt>
      <trkpt lat="45.96957" lon="4.58101">
        <ele>543</ele>
        <time>2018-08-05T06:08:40.000Z</time>
      </trkpt>
      <trkpt lat="45.9696" lon="4.58103">
        <ele>543</ele>
        <time>2018-08-05T06:08:41.000Z</time>
      </trkpt>
      <trkpt lat="45.96963" lon="4.58106">
        <ele>543</ele>
        <time>2018-08-05T06:08:42.000Z</time>
      </trkpt>
      <trkpt lat="45.96966" lon="4.58109">
        <ele>544</ele>
        <time>2018-08-05T06:08:43.000Z</time>
      </trkpt>
      <trkpt lat="45.9697" lon="4.58111">
        <ele>544</ele>
        <time>2018-08-05T06:08:44.000Z</time>
      </trkpt>
      <trkpt lat="45.96973" lon="4.58114">
        <ele>544</ele>
        <time>2018-08-05T06:08:45.000Z</time>
      </trkpt>
      <trkpt lat="45.96975" lon="4.58116">
        <ele>544</ele>
        <time>2018-08-05T06:08:46.000Z</time>
      </trkpt>
      <trkpt lat="45.96978" lon="4.58117">
        <ele>544</ele>
        <time>2018-08-05T06:08:47.000Z</time>
      </trkpt>
      <trkpt lat="45.96982" lon="4.58119">
        <ele>544</ele>
        <time>2018-08-05T06:08:48.000Z</time>
      </trkpt>
      <trkpt lat="45.96987" lon="4.5812">
        <ele>544</ele>
        <time>2018-08-05T06:08:49.000Z</time>
      </trkpt>
      <trkpt lat="45.96991" lon="4.5812">
        <ele>544</ele>
        <time>2018-08-05T06:08:50.000Z</time>
      </trkpt>
      <trkpt lat="45.96995" lon="4.5812">
        <ele>544</ele>
        <time>2018-08-05T06:08:51.000Z</time>
      </trkpt>
      <trkpt lat="45.96999" lon="4.58119">
        <ele>544</ele>
        <time>2018-08-05T06:08:52.000Z</time>
      </trkpt>
      <trkpt lat="45.97004" lon="4.58118">
        <ele>546</ele>
        <time>2018-08-05T06:08:53.000Z</time>
      </trkpt>
      <trkpt lat="45.97008" lon="4.58116">
        <ele>545</ele>
        <time>2018-08-05T06:08:54.000Z</time>
      </trkpt>
      <trkpt lat="45.97012" lon="4.58113">
        <ele>545</ele>
        <time>2018-08-05T06:08:55.000Z</time>
      </trkpt>
      <trkpt lat="45.97016" lon="4.5811">
        <ele>545</ele>
        <time>2018-08-05T06:08:56.000Z</time>
      </trkpt>
      <trkpt lat="45.9702" lon="4.58106">
        <ele>545</ele>
        <time>2018-08-05T06:08:57.000Z</time>
      </trkpt>
      <trkpt lat="45.97024" lon="4.58103">
        <ele>545</ele>
        <time>2018-08-05T06:08:58.000Z</time>
      </trkpt>
      <trkpt lat="45.97027" lon="4.58099">
        <ele>545</ele>
        <time>2018-08-05T06:08:59.000Z</time>
      </trkpt>
      <trkpt lat="45.97031" lon="4.58095">
        <ele>545</ele>
        <time>2018-08-05T06:09:00.000Z</time>
      </trkpt>
      <trkpt lat="45.97034" lon="4.58091">
        <ele>545</ele>
        <time>2018-08-05T06:09:01.000Z</time>
      </trkpt>
      <trkpt lat="45.97037" lon="4.58087">
        <ele>545</ele>
        <time>2018-08-05T06:09:02.000Z</time>
      </trkpt>
      <trkpt lat="45.9704" lon="4.58084">
        <ele>545</ele>
        <time>2018-08-05T06:09:03.000Z</time>
      </trkpt>
      <trkpt lat="45.97043" lon="4.5808">
        <ele>534</ele>
        <time>2018-08-05T06:09:04.000Z</time>
      </trkpt>
      <trkpt lat="45.97046" lon="4.58075">
        <ele>534</ele>
        <time>2018-08-05T06:09:05.000Z</time>
      </trkpt>
      <trkpt lat="45.97049" lon="4.58071">
        <ele>534</ele>
        <time>2018-08-05T06:09:06.000Z</time>
      </trkpt>
      <trkpt lat="45.97053" lon="4.58067">
        <ele>534</ele>
        <time>2018-08-05T06:09:07.000Z</time>
      </trkpt>
      <trkpt lat="45.97056" lon="4.58062">
        <ele>534</ele>
        <time>2018-08-05T06:09:08.000Z</time>
      </trkpt>
      <trkpt lat="45.97059" lon="4.58058">
        <ele>534</ele>
        <time>2018-08-05T06:09:09.000Z</time>
      </trkpt>
      <trkpt lat="45.97063" lon="4.58053">
        <ele>534</ele>
        <time>2018-08-05T06:09:10.000Z</time>
      </trkpt>
      <trkpt lat="45.97066" lon="4.58048">
        <ele>533</ele>
        <time>2018-08-05T06:09:11.000Z</time>
      </trkpt>
      <trkpt lat="45.97069" lon="4.58044">
        <ele>533</ele>
        <time>2018-08-05T06:09:12.000Z</time>
      </trkpt>
      <trkpt lat="45.97072" lon="4.58039">
        <ele>533</ele>
        <time>2018-08-05T06:09:13.000Z</time>
      </trkpt>
      <trkpt lat="45.97075" lon="4.58035">
        <ele>532</ele>
        <time>2018-08-05T06:09:14.000Z</time>
      </trkpt>
      <trkpt lat="45.97078" lon="4.58031">
        <ele>532</ele>
        <time>2018-08-05T06:09:15.000Z</time>
      </trkpt>
      <trkpt lat="45.97082" lon="4.58027">
        <ele>532</ele>
        <time>2018-08-05T06:09:16.000Z</time>
      </trkpt>
      <trkpt lat="45.97085" lon="4.58023">
        <ele>536</ele>
        <time>2018-08-05T06:09:17.000Z</time>
      </trkpt>
      <trkpt lat="45.97088" lon="4.58019">
        <ele>535</ele>
        <time>2018-08-05T06:09:18.000Z</time>
      </trkpt>
      <trkpt lat="45.97092" lon="4.58015">
        <ele>535</ele>
        <time>2018-08-05T06:09:19.000Z</time>
      </trkpt>
      <trkpt lat="45.97096" lon="4.58012">
        <ele>534</ele>
        <time>2018-08-05T06:09:20.000Z</time>
      </trkpt>
      <trkpt lat="45.971" lon="4.58009">
        <ele>535</ele>
        <time>2018-08-05T06:09:21.000Z</time>
      </trkpt>
      <trkpt lat="45.97104" lon="4.58006">
        <ele>535</ele>
        <time>2018-08-05T06:09:22.000Z</time>
      </trkpt>
      <trkpt lat="45.97108" lon="4.58004">
        <ele>535</ele>
        <time>2018-08-05T06:09:23.000Z</time>
      </trkpt>
      <trkpt lat="45.97113" lon="4.58003">
        <ele>536</ele>
        <time>2018-08-05T06:09:24.000Z</time>
      </trkpt>
      <trkpt lat="45.97117" lon="4.58002">
        <ele>536</ele>
        <time>2018-08-05T06:09:25.000Z</time>
      </trkpt>
      <trkpt lat="45.97122" lon="4.58001">
        <ele>536</ele>
        <time>2018-08-05T06:09:26.000Z</time>
      </trkpt>
      <trkpt lat="45.97126" lon="4.58001">
        <ele>536</ele>
        <time>2018-08-05T06:09:27.000Z</time>
      </trkpt>
      <trkpt lat="45.97131" lon="4.58002">
        <ele>536</ele>
        <time>2018-08-05T06:09:28.000Z</time>
      </trkpt>
      <trkpt lat="45.97135" lon="4.58003">
        <ele>536</ele>
        <time>2018-08-05T06:09:29.000Z</time>
      </trkpt>
      <trkpt lat="45.97139" lon="4.58004">
        <ele>536</ele>
        <time>2018-08-05T06:09:30.000Z</time>
      </trkpt>
      <trkpt lat="45.97143" lon="4.58005">
        <ele>536</ele>
        <time>2018-08-05T06:09:31.000Z</time>
      </trkpt>
      <trkpt lat="45.97148" lon="4.58006">
        <ele>536</ele>
        <time>2018-08-05T06:09:32.000Z</time>
      </trkpt>
      <trkpt lat="45.97152" lon="4.58008">
        <ele>535</ele>
        <time>2018-08-05T06:09:33.000Z</time>
      </trkpt>
      <trkpt lat="45.97156" lon="4.58011">
        <ele>535</ele>
        <time>2018-08-05T06:09:34.000Z</time>
      </trkpt>
      <trkpt lat="45.97161" lon="4.58013">
        <ele>535</ele>
        <time>2018-08-05T06:09:35.000Z</time>
      </trkpt>
      <trkpt lat="45.97165" lon="4.58015">
        <ele>536</ele>
        <time>2018-08-05T06:09:36.000Z</time>
      </trkpt>
      <trkpt lat="45.97169" lon="4.58018">
        <ele>535</ele>
        <time>2018-08-05T06:09:37.000Z</time>
      </trkpt>
      <trkpt lat="45.97173" lon="4.58021">
        <ele>535</ele>
        <time>2018-08-05T06:09:38.000Z</time>
      </trkpt>
      <trkpt lat="45.97177" lon="4.58024">
        <ele>536</ele>
        <time>2018-08-05T06:09:39.000Z</time>
      </trkpt>
      <trkpt lat="45.97181" lon="4.58028">
        <ele>536</ele>
        <time>2018-08-05T06:09:40.000Z</time>
      </trkpt>
      <trkpt lat="45.97185" lon="4.58031">
        <ele>537</ele>
        <time>2018-08-05T06:09:41.000Z</time>
      </trkpt>
      <trkpt lat="45.97188" lon="4.58035">
        <ele>537</ele>
        <time>2018-08-05T06:09:42.000Z</time>
      </trkpt>
      <trkpt lat="45.97192" lon="4.58039">
        <ele>537</ele>
        <time>2018-08-05T06:09:43.000Z</time>
      </trkpt>
      <trkpt lat="45.97196" lon="4.58044">
        <ele>538</ele>
        <time>2018-08-05T06:09:44.000Z</time>
      </trkpt>
      <trkpt lat="45.97199" lon="4.58048">
        <ele>538</ele>
        <time>2018-08-05T06:09:45.000Z</time>
      </trkpt>
      <trkpt lat="45.97202" lon="4.58052">
        <ele>539</ele>
        <time>2018-08-05T06:09:46.000Z</time>
      </trkpt>
      <trkpt lat="45.97206" lon="4.58057">
        <ele>539</ele>
        <time>2018-08-05T06:09:47.000Z</time>
      </trkpt>
      <trkpt lat="45.97209" lon="4.58061">
        <ele>539</ele>
        <time>2018-08-05T06:09:48.000Z</time>
      </trkpt>
      <trkpt lat="45.97212" lon="4.58066">
        <ele>539</ele>
        <time>2018-08-05T06:09:49.000Z</time>
      </trkpt>
      <trkpt lat="45.97216" lon="4.5807">
        <ele>540</ele>
        <time>2018-08-05T06:09:50.000Z</time>
      </trkpt>
      <trkpt lat="45.97219" lon="4.58074">
        <ele>540</ele>
        <time>2018-08-05T06:09:51.000Z</time>
      </trkpt>
      <trkpt lat="45.97222" lon="4.58078">
        <ele>540</ele>
        <time>2018-08-05T06:09:52.000Z</time>
      </trkpt>
      <trkpt lat="45.97226" lon="4.58082">
        <ele>541</ele>
        <time>2018-08-05T06:09:53.000Z</time>
      </trkpt>
      <trkpt lat="45.97229" lon="4.58086">
        <ele>550</ele>
        <time>2018-08-05T06:09:54.000Z</time>
      </trkpt>
      <trkpt lat="45.97233" lon="4.5809">
        <ele>550</ele>
        <time>2018-08-05T06:09:55.000Z</time>
      </trkpt>
      <trkpt lat="45.97236" lon="4.58093">
        <ele>550</ele>
        <time>2018-08-05T06:09:56.000Z</time>
      </trkpt>
      <trkpt lat="45.9724" lon="4.58097">
        <ele>550</ele>
        <time>2018-08-05T06:09:57.000Z</time>
      </trkpt>
      <trkpt lat="45.97244" lon="4.58099">
        <ele>550</ele>
        <time>2018-08-05T06:09:58.000Z</time>
      </trkpt>
      <trkpt lat="45.97248" lon="4.58101">
        <ele>550</ele>
        <time>2018-08-05T06:09:59.000Z</time>
      </trkpt>
      <trkpt lat="45.97252" lon="4.58103">
        <ele>549</ele>
        <time>2018-08-05T06:10:00.000Z</time>
      </trkpt>
      <trkpt lat="45.97256" lon="4.58104">
        <ele>550</ele>
        <time>2018-08-05T06:10:01.000Z</time>
      </trkpt>
      <trkpt lat="45.9726" lon="4.58105">
        <ele>550</ele>
        <time>2018-08-05T06:10:02.000Z</time>
      </trkpt>
      <trkpt lat="45.97265" lon="4.58106">
        <ele>551</ele>
        <time>2018-08-05T06:10:03.000Z</time>
      </trkpt>
      <trkpt lat="45.97269" lon="4.58107">
        <ele>551</ele>
        <time>2018-08-05T06:10:04.000Z</time>
      </trkpt>
      <trkpt lat="45.97273" lon="4.58107">
        <ele>551</ele>
        <time>2018-08-05T06:10:05.000Z</time>
      </trkpt>
      <trkpt lat="45.97277" lon="4.58106">
        <ele>551</ele>
        <time>2018-08-05T06:10:06.000Z</time>
      </trkpt>
      <trkpt lat="45.97281" lon="4.58105">
        <ele>551</ele>
        <time>2018-08-05T06:10:07.000Z</time>
      </trkpt>
      <trkpt lat="45.97285" lon="4.58104">
        <ele>551</ele>
        <time>2018-08-05T06:10:08.000Z</time>
      </trkpt>
      <trkpt lat="45.97289" lon="4.58102">
        <ele>551</ele>
        <time>2018-08-05T06:10:09.000Z</time>
      </trkpt>
      <trkpt lat="45.97294" lon="4.581">
        <ele>551</ele>
        <time>2018-08-05T06:10:10.000Z</time>
      </trkpt>
      <trkpt lat="45.97298" lon="4.58097">
        <ele>551</ele>
        <time>2018-08-05T06:10:11.000Z</time>
      </trkpt>
      <trkpt lat="45.97301" lon="4.58094">
        <ele>550</ele>
        <time>2018-08-05T06:10:12.000Z</time>
      </trkpt>
      <trkpt lat="45.97305" lon="4.58091">
        <ele>550</ele>
        <time>2018-08-05T06:10:13.000Z</time>
      </trkpt>
      <trkpt lat="45.97309" lon="4.58088">
        <ele>549</ele>
        <time>2018-08-05T06:10:14.000Z</time>
      </trkpt>
      <trkpt lat="45.97313" lon="4.58084">
        <ele>549</ele>
        <time>2018-08-05T06:10:15.000Z</time>
      </trkpt>
      <trkpt lat="45.97316" lon="4.58081">
        <ele>539</ele>
        <time>2018-08-05T06:10:16.000Z</time>
      </trkpt>
      <trkpt lat="45.9732" lon="4.58078">
        <ele>539</ele>
        <time>2018-08-05T06:10:17.000Z</time>
      </trkpt>
      <trkpt lat="45.97324" lon="4.58074">
        <ele>540</ele>
        <time>2018-08-05T06:10:18.000Z</time>
      </trkpt>
      <trkpt lat="45.97328" lon="4.58071">
        <ele>539</ele>
        <time>2018-08-05T06:10:19.000Z</time>
      </trkpt>
      <trkpt lat="45.97332" lon="4.58067">
        <ele>539</ele>
        <time>2018-08-05T06:10:20.000Z</time>
      </trkpt>
      <trkpt lat="45.97335" lon="4.58064">
        <ele>539</ele>
        <time>2018-08-05T06:10:21.000Z</time>
      </trkpt>
      <trkpt lat="45.9734" lon="4.58061">
        <ele>538</ele>
        <time>2018-08-05T06:10:22.000Z</time>
      </trkpt>
      <trkpt lat="45.97344" lon="4.58058">
        <ele>538</ele>
        <time>2018-08-05T06:10:23.000Z</time>
      </trkpt>
      <trkpt lat="45.97348" lon="4.58056">
        <ele>537</ele>
        <time>2018-08-05T06:10:24.000Z</time>
      </trkpt>
      <trkpt lat="45.97353" lon="4.58054">
        <ele>537</ele>
        <time>2018-08-05T06:10:25.000Z</time>
      </trkpt>
      <trkpt lat="45.97357" lon="4.58052">
        <ele>536</ele>
        <time>2018-08-05T06:10:26.000Z</time>
      </trkpt>
      <trkpt lat="45.97362" lon="4.5805">
        <ele>536</ele>
        <time>2018-08-05T06:10:27.000Z</time>
      </trkpt>
      <trkpt lat="45.97366" lon="4.58049">
        <ele>536</ele>
        <time>2018-08-05T06:10:28.000Z</time>
      </trkpt>
      <trkpt lat="45.97371" lon="4.58049">
        <ele>536</ele>
        <time>2018-08-05T06:10:29.000Z</time>
      </trkpt>
      <trkpt lat="45.97375" lon="4.58049">
        <ele>536</ele>
        <time>2018-08-05T06:10:30.000Z</time>
      </trkpt>
      <trkpt lat="45.9738" lon="4.5805">
        <ele>536</ele>
        <time>2018-08-05T06:10:31.000Z</time>
      </trkpt>
      <trkpt lat="45.97384" lon="4.58051">
        <ele>537</ele>
        <time>2018-08-05T06:10:32.000Z</time>
      </trkpt>
      <trkpt lat="45.97388" lon="4.58053">
        <ele>537</ele>
        <time>2018-08-05T06:10:33.000Z</time>
      </trkpt>
      <trkpt lat="45.97392" lon="4.58055">
        <ele>537</ele>
        <time>2018-08-05T06:10:34.000Z</time>
      </trkpt>
      <trkpt lat="45.97396" lon="4.58057">
        <ele>538</ele>
        <time>2018-08-05T06:10:35.000Z</time>
      </trkpt>
      <trkpt lat="45.974" lon="4.58059">
        <ele>538</ele>
        <time>2018-08-05T06:10:36.000Z</time>
      </trkpt>
      <trkpt lat="45.97403" lon="4.58063">
        <ele>539</ele>
        <time>2018-08-05T06:10:37.000Z</time>
      </trkpt>
      <trkpt lat="45.97407" lon="4.58066">
        <ele>539</ele>
        <time>2018-08-05T06:10:38.000Z</time>
      </trkpt>
      <trkpt lat="45.9741" lon="4.58069">
        <ele>540</ele>
        <time>2018-08-05T06:10:39.000Z</time>
      </trkpt>
      <trkpt lat="45.97414" lon="4.58073">
        <ele>541</ele>
        <time>2018-08-05T06:10:40.000Z</time>
      </trkpt>
      <trkpt lat="45.97417" lon="4.58077">
        <ele>541</ele>
        <time>2018-08-05T06:10:41.000Z</time>
      </trkpt>
      <trkpt lat="45.9742" lon="4.58081">
        <ele>542</ele>
        <time>2018-08-05T06:10:42.000Z</time>
      </trkpt>
      <trkpt lat="45.97424" lon="4.58085">
        <ele>544</ele>
        <time>2018-08-05T06:10:43.000Z</time>
      </trkpt>
      <trkpt lat="45.97427" lon="4.58088">
        <ele>545</ele>
        <time>2018-08-05T06:10:44.000Z</time>
      </trkpt>
      <trkpt lat="45.9743" lon="4.58092">
        <ele>545</ele>
        <time>2018-08-05T06:10:45.000Z</time>
      </trkpt>
      <trkpt lat="45.97433" lon="4.58095">
        <ele>545</ele>
        <time>2018-08-05T06:10:46.000Z</time>
      </trkpt>
      <trkpt lat="45.97436" lon="4.58099">
        <ele>545</ele>
        <time>2018-08-05T06:10:47.000Z</time>
      </trkpt>
      <trkpt lat="45.9744" lon="4.58102">
        <ele>545</ele>
        <time>2018-08-05T06:10:48.000Z</time>
      </trkpt>
      <trkpt lat="45.97444" lon="4.58106">
        <ele>545</ele>
        <time>2018-08-05T06:10:49.000Z</time>
      </trkpt>
      <trkpt lat="45.97447" lon="4.5811">
        <ele>546</ele>
        <time>2018-08-05T06:10:50.000Z</time>
      </trkpt>
      <trkpt lat="45.97451" lon="4.58113">
        <ele>546</ele>
        <time>2018-08-05T06:10:51.000Z</time>
      </trkpt>
      <trkpt lat="45.97455" lon="4.58116">
        <ele>546</ele>
        <time>2018-08-05T06:10:52.000Z</time>
      </trkpt>
      <trkpt lat="45.97459" lon="4.58119">
        <ele>546</ele>
        <time>2018-08-05T06:10:53.000Z</time>
      </trkpt>
      <trkpt lat="45.97464" lon="4.58122">
        <ele>546</ele>
        <time>2018-08-05T06:10:54.000Z</time>
      </trkpt>
      <trkpt lat="45.97468" lon="4.58125">
        <ele>546</ele>
        <time>2018-08-05T06:10:55.000Z</time>
      </trkpt>
      <trkpt lat="45.97472" lon="4.58128">
        <ele>546</ele>
        <time>2018-08-05T06:10:56.000Z</time>
      </trkpt>
      <trkpt lat="45.97476" lon="4.5813">
        <ele>546</ele>
        <time>2018-08-05T06:10:57.000Z</time>
      </trkpt>
      <trkpt lat="45.9748" lon="4.58133">
        <ele>546</ele>
        <time>2018-08-05T06:10:58.000Z</time>
      </trkpt>
      <trkpt lat="45.97485" lon="4.58135">
        <ele>546</ele>
        <time>2018-08-05T06:10:59.000Z</time>
      </trkpt>
      <trkpt lat="45.97489" lon="4.58138">
        <ele>546</ele>
        <time>2018-08-05T06:11:00.000Z</time>
      </trkpt>
      <trkpt lat="45.97493" lon="4.5814">
        <ele>547</ele>
        <time>2018-08-05T06:11:01.000Z</time>
      </trkpt>
      <trkpt lat="45.97497" lon="4.58142">
        <ele>547</ele>
        <time>2018-08-05T06:11:02.000Z</time>
      </trkpt>
      <trkpt lat="45.97501" lon="4.58145">
        <ele>542</ele>
        <time>2018-08-05T06:11:03.000Z</time>
      </trkpt>
      <trkpt lat="45.97506" lon="4.58147">
        <ele>543</ele>
        <time>2018-08-05T06:11:04.000Z</time>
      </trkpt>
      <trkpt lat="45.9751" lon="4.58149">
        <ele>543</ele>
        <time>2018-08-05T06:11:05.000Z</time>
      </trkpt>
      <trkpt lat="45.97514" lon="4.58151">
        <ele>543</ele>
        <time>2018-08-05T06:11:06.000Z</time>
      </trkpt>
      <trkpt lat="45.97518" lon="4.58153">
        <ele>542</ele>
        <time>2018-08-05T06:11:07.000Z</time>
      </trkpt>
      <trkpt lat="45.97523" lon="4.58154">
        <ele>542</ele>
        <time>2018-08-05T06:11:08.000Z</time>
      </trkpt>
      <trkpt lat="45.97527" lon="4.58156">
        <ele>541</ele>
        <time>2018-08-05T06:11:09.000Z</time>
      </trkpt>
      <trkpt lat="45.97531" lon="4.58157">
        <ele>541</ele>
        <time>2018-08-05T06:11:10.000Z</time>
      </trkpt>
      <trkpt lat="45.97536" lon="4.58159">
        <ele>541</ele>
        <time>2018-08-05T06:11:11.000Z</time>
      </trkpt>
      <trkpt lat="45.9754" lon="4.5816">
        <ele>540</ele>
        <time>2018-08-05T06:11:12.000Z</time>
      </trkpt>
      <trkpt lat="45.97545" lon="4.58161">
        <ele>540</ele>
        <time>2018-08-05T06:11:13.000Z</time>
      </trkpt>
      <trkpt lat="45.97549" lon="4.58162">
        <ele>540</ele>
        <time>2018-08-05T06:11:14.000Z</time>
      </trkpt>
      <trkpt lat="45.97553" lon="4.58163">
        <ele>540</ele>
        <time>2018-08-05T06:11:15.000Z</time>
      </trkpt>
      <trkpt lat="45.97558" lon="4.58164">
        <ele>540</ele>
        <time>2018-08-05T06:11:16.000Z</time>
      </trkpt>
      <trkpt lat="45.97562" lon="4.58165">
        <ele>540</ele>
        <time>2018-08-05T06:11:17.000Z</time>
      </trkpt>
      <trkpt lat="45.97566" lon="4.58166">
        <ele>540</ele>
        <time>2018-08-05T06:11:18.000Z</time>
      </trkpt>
      <trkpt lat="45.9757" lon="4.58166">
        <ele>540</ele>
        <time>2018-08-05T06:11:19.000Z</time>
      </trkpt>
      <trkpt lat="45.97575" lon="4.58166">
        <ele>540</ele>
        <time>2018-08-05T06:11:20.000Z</time>
      </trkpt>
      <trkpt lat="45.97579" lon="4.58167">
        <ele>540</ele>
        <time>2018-08-05T06:11:21.000Z</time>
      </trkpt>
      <trkpt lat="45.97584" lon="4.58167">
        <ele>541</ele>
        <time>2018-08-05T06:11:22.000Z</time>
      </trkpt>
      <trkpt lat="45.97588" lon="4.58167">
        <ele>542</ele>
        <time>2018-08-05T06:11:23.000Z</time>
      </trkpt>
      <trkpt lat="45.97593" lon="4.58167">
        <ele>543</ele>
        <time>2018-08-05T06:11:24.000Z</time>
      </trkpt>
      <trkpt lat="45.97597" lon="4.58167">
        <ele>544</ele>
        <time>2018-08-05T06:11:25.000Z</time>
      </trkpt>
      <trkpt lat="45.97601" lon="4.58168">
        <ele>544</ele>
        <time>2018-08-05T06:11:26.000Z</time>
      </trkpt>
      <trkpt lat="45.97605" lon="4.58168">
        <ele>545</ele>
        <time>2018-08-05T06:11:27.000Z</time>
      </trkpt>
      <trkpt lat="45.9761" lon="4.58169">
        <ele>545</ele>
        <time>2018-08-05T06:11:28.000Z</time>
      </trkpt>
      <trkpt lat="45.97614" lon="4.58169">
        <ele>545</ele>
        <time>2018-08-05T06:11:29.000Z</time>
      </trkpt>
      <trkpt lat="45.97618" lon="4.58169">
        <ele>545</ele>
        <time>2018-08-05T06:11:30.000Z</time>
      </trkpt>
      <trkpt lat="45.97623" lon="4.5817">
        <ele>546</ele>
        <time>2018-08-05T06:11:31.000Z</time>
      </trkpt>
      <trkpt lat="45.97627" lon="4.58171">
        <ele>546</ele>
        <time>2018-08-05T06:11:32.000Z</time>
      </trkpt>
      <trkpt lat="45.97632" lon="4.58171">
        <ele>546</ele>
        <time>2018-08-05T06:11:33.000Z</time>
      </trkpt>
      <trkpt lat="45.97636" lon="4.58172">
        <ele>546</ele>
        <time>2018-08-05T06:11:34.000Z</time>
      </trkpt>
      <trkpt lat="45.9764" lon="4.58173">
        <ele>545</ele>
        <time>2018-08-05T06:11:35.000Z</time>
      </trkpt>
      <trkpt lat="45.97645" lon="4.58174">
        <ele>545</ele>
        <time>2018-08-05T06:11:36.000Z</time>
      </trkpt>
      <trkpt lat="45.97649" lon="4.58175">
        <ele>545</ele>
        <time>2018-08-05T06:11:37.000Z</time>
      </trkpt>
      <trkpt lat="45.97653" lon="4.58176">
        <ele>545</ele>
        <time>2018-08-05T06:11:38.000Z</time>
      </trkpt>
      <trkpt lat="45.97657" lon="4.58178">
        <ele>545</ele>
        <time>2018-08-05T06:11:39.000Z</time>
      </trkpt>
      <trkpt lat="45.97662" lon="4.58179">
        <ele>544</ele>
        <time>2018-08-05T06:11:40.000Z</time>
      </trkpt>
      <trkpt lat="45.97666" lon="4.5818">
        <ele>545</ele>
        <time>2018-08-05T06:11:41.000Z</time>
      </trkpt>
      <trkpt lat="45.9767" lon="4.58182">
        <ele>545</ele>
        <time>2018-08-05T06:11:42.000Z</time>
      </trkpt>
      <trkpt lat="45.97674" lon="4.58183">
        <ele>545</ele>
        <time>2018-08-05T06:11:43.000Z</time>
      </trkpt>
      <trkpt lat="45.97678" lon="4.58185">
        <ele>545</ele>
        <time>2018-08-05T06:11:44.000Z</time>
      </trkpt>
      <trkpt lat="45.97682" lon="4.58186">
        <ele>546</ele>
        <time>2018-08-05T06:11:45.000Z</time>
      </trkpt>
      <trkpt lat="45.97686" lon="4.58187">
        <ele>546</ele>
        <time>2018-08-05T06:11:46.000Z</time>
      </trkpt>
      <trkpt lat="45.9769" lon="4.58189">
        <ele>546</ele>
        <time>2018-08-05T06:11:47.000Z</time>
      </trkpt>
      <trkpt lat="45.97694" lon="4.5819">
        <ele>546</ele>
        <time>2018-08-05T06:11:48.000Z</time>
      </trkpt>
      <trkpt lat="45.97698" lon="4.58192">
        <ele>546</ele>
        <time>2018-08-05T06:11:49.000Z</time>
      </trkpt>
      <trkpt lat="45.97702" lon="4.58194">
        <ele>547</ele>
        <time>2018-08-05T06:11:50.000Z</time>
      </trkpt>
      <trkpt lat="45.97705" lon="4.58195">
        <ele>547</ele>
        <time>2018-08-05T06:11:51.000Z</time>
      </trkpt>
      <trkpt lat="45.97708" lon="4.58197">
        <ele>547</ele>
        <time>2018-08-05T06:11:52.000Z</time>
      </trkpt>
      <trkpt lat="45.97711" lon="4.58199">
        <ele>547</ele>
        <time>2018-08-05T06:11:53.000Z</time>
      </trkpt>
      <trkpt lat="45.97714" lon="4.58201">
        <ele>547</ele>
        <time>2018-08-05T06:11:54.000Z</time>
      </trkpt>
      <trkpt lat="45.97715" lon="4.58202">
        <ele>547</ele>
        <time>2018-08-05T06:11:55.000Z</time>
      </trkpt>
      <trkpt lat="45.97716" lon="4.58202">
        <ele>547</ele>
        <time>2018-08-05T06:11:56.000Z</time>
      </trkpt>
      <trkpt lat="45.97717" lon="4.58202">
        <ele>547</ele>
        <time>2018-08-05T06:11:57.000Z</time>
      </trkpt>
      <trkpt lat="45.97717" lon="4.58201">
        <ele>547</ele>
        <time>2018-08-05T06:11:58.000Z</time>
      </trkpt>
      <trkpt lat="45.97717" lon="4.58201">
        <ele>547</ele>
        <time>2018-08-05T06:11:59.000Z</time>
      </trkpt>
      <trkpt lat="45.97717" lon="4.582">
        <ele>547</ele>
        <time>2018-08-05T06:12:00.000Z</time>
      </trkpt>
      <trkpt lat="45.97717" lon="4.582">
        <ele>547</ele>
        <time>2018-08-05T06:12:01.000Z</time>
      </trkpt>
      <trkpt lat="45.97717" lon="4.58199">
        <ele>547</ele>
        <time>2018-08-05T06:12:02.000Z</time>
      </trkpt>
      <trkpt lat="45.97717" lon="4.58199">
        <ele>547</ele>
        <time>2018-08-05T06:12:03.000Z</time>
      </trkpt>
      <trkpt lat="45.97717" lon="4.58199">
        <ele>547</ele>
        <time>2018-08-05T06:12:04.000Z</time>
      </trkpt>
      <trkpt lat="45.97717" lon="4.58199">
        <ele>547</ele>
        <time>2018-08-05T06:12:05.000Z</time>
      </trkpt>
      <trkpt lat="45.97717" lon="4.58199">
        <ele>547</ele>
        <time>2018-08-05T06:12:06.000Z</time>
      </trkpt>
      <trkpt lat="45.97716" lon="4.58199">
        <ele>547</ele>
        <time>2018-08-05T06:12:07.000Z</time>
      </trkpt>
      <trkpt lat="45.97716" lon="4.58199">
        <ele>547</ele>
        <time>2018-08-05T06:12:08.000Z</time>
      </trkpt>
      <trkpt lat="45.97717" lon="4.58199">
        <ele>547</ele>
        <time>2018-08-05T06:12:09.000Z</time>
      </trkpt>
      <trkpt lat="45.97717" lon="4.58204">
        <ele>547</ele>
        <time>2018-08-05T06:12:24.000Z</time>
      </trkpt>
      <trkpt lat="45.97718" lon="4.58204">
        <ele>547</ele>
        <time>2018-08-05T06:12:25.000Z</time>
      </trkpt>
      <trkpt lat="45.97719" lon="4.58205">
        <ele>547</ele>
        <time>2018-08-05T06:12:26.000Z</time>
      </trkpt>
      <trkpt lat="45.97721" lon="4.58206">
        <ele>547</ele>
        <time>2018-08-05T06:12:27.000Z</time>
      </trkpt>
      <trkpt lat="45.97723" lon="4.58207">
        <ele>547</ele>
        <time>2018-08-05T06:12:28.000Z</time>
      </trkpt>
      <trkpt lat="45.97725" lon="4.58208">
        <ele>547</ele>
        <time>2018-08-05T06:12:29.000Z</time>
      </trkpt>
      <trkpt lat="45.97728" lon="4.58209">
        <ele>548</ele>
        <time>2018-08-05T06:12:30.000Z</time>
      </trkpt>
      <trkpt lat="45.9773" lon="4.5821">
        <ele>548</ele>
        <time>2018-08-05T06:12:31.000Z</time>
      </trkpt>
      <trkpt lat="45.97733" lon="4.58212">
        <ele>548</ele>
        <time>2018-08-05T06:12:32.000Z</time>
      </trkpt>
      <trkpt lat="45.97736" lon="4.58214">
        <ele>548</ele>
        <time>2018-08-05T06:12:33.000Z</time>
      </trkpt>
      <trkpt lat="45.97738" lon="4.58216">
        <ele>548</ele>
        <time>2018-08-05T06:12:34.000Z</time>
      </trkpt>
      <trkpt lat="45.97741" lon="4.58218">
        <ele>548</ele>
        <time>2018-08-05T06:12:35.000Z</time>
      </trkpt>
      <trkpt lat="45.97744" lon="4.58219">
        <ele>548</ele>
        <time>2018-08-05T06:12:36.000Z</time>
      </trkpt>
      <trkpt lat="45.97746" lon="4.58221">
        <ele>549</ele>
        <time>2018-08-05T06:12:37.000Z</time>
      </trkpt>
      <trkpt lat="45.97748" lon="4.58223">
        <ele>549</ele>
        <time>2018-08-05T06:12:38.000Z</time>
      </trkpt>
      <trkpt lat="45.97751" lon="4.58225">
        <ele>549</ele>
        <time>2018-08-05T06:12:39.000Z</time>
      </trkpt>
      <trkpt lat="45.97753" lon="4.58227">
        <ele>549</ele>
        <time>2018-08-05T06:12:40.000Z</time>
      </trkpt>
      <trkpt lat="45.97756" lon="4.58229">
        <ele>549</ele>
        <time>2018-08-05T06:12:41.000Z</time>
      </trkpt>
      <trkpt lat="45.97758" lon="4.58231">
        <ele>550</ele>
        <time>2018-08-05T06:12:42.000Z</time>
      </trkpt>
      <trkpt lat="45.97761" lon="4.58234">
        <ele>550</ele>
        <time>2018-08-05T06:12:43.000Z</time>
      </trkpt>
      <trkpt lat="45.97764" lon="4.58237">
        <ele>550</ele>
        <time>2018-08-05T06:12:44.000Z</time>
      </trkpt>
      <trkpt lat="45.97767" lon="4.5824">
        <ele>550</ele>
        <time>2018-08-05T06:12:45.000Z</time>
      </trkpt>
      <trkpt lat="45.97769" lon="4.58243">
        <ele>550</ele>
        <time>2018-08-05T06:12:46.000Z</time>
      </trkpt>
      <trkpt lat="45.97772" lon="4.58247">
        <ele>550</ele>
        <time>2018-08-05T06:12:47.000Z</time>
      </trkpt>
      <trkpt lat="45.97775" lon="4.5825">
        <ele>552</ele>
        <time>2018-08-05T06:12:48.000Z</time>
      </trkpt>
      <trkpt lat="45.97778" lon="4.58253">
        <ele>551</ele>
        <time>2018-08-05T06:12:49.000Z</time>
      </trkpt>
      <trkpt lat="45.9778" lon="4.58257">
        <ele>551</ele>
        <time>2018-08-05T06:12:50.000Z</time>
      </trkpt>
      <trkpt lat="45.97783" lon="4.5826">
        <ele>551</ele>
        <time>2018-08-05T06:12:51.000Z</time>
      </trkpt>
      <trkpt lat="45.97785" lon="4.58263">
        <ele>551</ele>
        <time>2018-08-05T06:12:52.000Z</time>
      </trkpt>
      <trkpt lat="45.97787" lon="4.58266">
        <ele>551</ele>
        <time>2018-08-05T06:12:53.000Z</time>
      </trkpt>
      <trkpt lat="45.9779" lon="4.5827">
        <ele>551</ele>
        <time>2018-08-05T06:12:54.000Z</time>
      </trkpt>
      <trkpt lat="45.97792" lon="4.58274">
        <ele>551</ele>
        <time>2018-08-05T06:12:55.000Z</time>
      </trkpt>
      <trkpt lat="45.97794" lon="4.58278">
        <ele>551</ele>
        <time>2018-08-05T06:12:56.000Z</time>
      </trkpt>
      <trkpt lat="45.97796" lon="4.58281">
        <ele>551</ele>
        <time>2018-08-05T06:12:57.000Z</time>
      </trkpt>
      <trkpt lat="45.97798" lon="4.58286">
        <ele>551</ele>
        <time>2018-08-05T06:12:58.000Z</time>
      </trkpt>
      <trkpt lat="45.97801" lon="4.5829">
        <ele>551</ele>
        <time>2018-08-05T06:12:59.000Z</time>
      </trkpt>
      <trkpt lat="45.97804" lon="4.58294">
        <ele>551</ele>
        <time>2018-08-05T06:13:00.000Z</time>
      </trkpt>
      <trkpt lat="45.97807" lon="4.58297">
        <ele>551</ele>
        <time>2018-08-05T06:13:01.000Z</time>
      </trkpt>
      <trkpt lat="45.9781" lon="4.58298">
        <ele>551</ele>
        <time>2018-08-05T06:13:02.000Z</time>
      </trkpt>
      <trkpt lat="45.97814" lon="4.58298">
        <ele>551</ele>
        <time>2018-08-05T06:13:03.000Z</time>
      </trkpt>
      <trkpt lat="45.97818" lon="4.58298">
        <ele>551</ele>
        <time>2018-08-05T06:13:04.000Z</time>
      </trkpt>
      <trkpt lat="45.97821" lon="4.58296">
        <ele>551</ele>
        <time>2018-08-05T06:13:05.000Z</time>
      </trkpt>
      <trkpt lat="45.97824" lon="4.58293">
        <ele>551</ele>
        <time>2018-08-05T06:13:06.000Z</time>
      </trkpt>
      <trkpt lat="45.97828" lon="4.58289">
        <ele>551</ele>
        <time>2018-08-05T06:13:07.000Z</time>
      </trkpt>
      <trkpt lat="45.9783" lon="4.58284">
        <ele>551</ele>
        <time>2018-08-05T06:13:08.000Z</time>
      </trkpt>
      <trkpt lat="45.97832" lon="4.58278">
        <ele>551</ele>
        <time>2018-08-05T06:13:09.000Z</time>
      </trkpt>
      <trkpt lat="45.97834" lon="4.58273">
        <ele>552</ele>
        <time>2018-08-05T06:13:10.000Z</time>
      </trkpt>
      <trkpt lat="45.97836" lon="4.58267">
        <ele>552</ele>
        <time>2018-08-05T06:13:11.000Z</time>
      </trkpt>
      <trkpt lat="45.97838" lon="4.58261">
        <ele>552</ele>
        <time>2018-08-05T06:13:12.000Z</time>
      </trkpt>
      <trkpt lat="45.9784" lon="4.58255">
        <ele>552</ele>
        <time>2018-08-05T06:13:13.000Z</time>
      </trkpt>
      <trkpt lat="45.97841" lon="4.58249">
        <ele>551</ele>
        <time>2018-08-05T06:13:14.000Z</time>
      </trkpt>
      <trkpt lat="45.97843" lon="4.58242">
        <ele>552</ele>
        <time>2018-08-05T06:13:15.000Z</time>
      </trkpt>
      <trkpt lat="45.97845" lon="4.58236">
        <ele>552</ele>
        <time>2018-08-05T06:13:16.000Z</time>
      </trkpt>
      <trkpt lat="45.97847" lon="4.58229">
        <ele>552</ele>
        <time>2018-08-05T06:13:17.000Z</time>
      </trkpt>
      <trkpt lat="45.97849" lon="4.58221">
        <ele>552</ele>
        <time>2018-08-05T06:13:18.000Z</time>
      </trkpt>
      <trkpt lat="45.97851" lon="4.58214">
        <ele>552</ele>
        <time>2018-08-05T06:13:19.000Z</time>
      </trkpt>
      <trkpt lat="45.97854" lon="4.58206">
        <ele>551</ele>
        <time>2018-08-05T06:13:20.000Z</time>
      </trkpt>
      <trkpt lat="45.97856" lon="4.58198">
        <ele>551</ele>
        <time>2018-08-05T06:13:21.000Z</time>
      </trkpt>
      <trkpt lat="45.97858" lon="4.5819">
        <ele>551</ele>
        <time>2018-08-05T06:13:22.000Z</time>
      </trkpt>
      <trkpt lat="45.97861" lon="4.58182">
        <ele>551</ele>
        <time>2018-08-05T06:13:23.000Z</time>
      </trkpt>
      <trkpt lat="45.97863" lon="4.58174">
        <ele>551</ele>
        <time>2018-08-05T06:13:24.000Z</time>
      </trkpt>
      <trkpt lat="45.97866" lon="4.58165">
        <ele>549</ele>
        <time>2018-08-05T06:13:25.000Z</time>
      </trkpt>
      <trkpt lat="45.97868" lon="4.58157">
        <ele>549</ele>
        <time>2018-08-05T06:13:26.000Z</time>
      </trkpt>
      <trkpt lat="45.97871" lon="4.58149">
        <ele>549</ele>
        <time>2018-08-05T06:13:27.000Z</time>
      </trkpt>
      <trkpt lat="45.97874" lon="4.5814">
        <ele>550</ele>
        <time>2018-08-05T06:13:28.000Z</time>
      </trkpt>
      <trkpt lat="45.97877" lon="4.58132">
        <ele>550</ele>
        <time>2018-08-05T06:13:29.000Z</time>
      </trkpt>
      <trkpt lat="45.97879" lon="4.58123">
        <ele>550</ele>
        <time>2018-08-05T06:13:30.000Z</time>
      </trkpt>
      <trkpt lat="45.97882" lon="4.58115">
        <ele>550</ele>
        <time>2018-08-05T06:13:31.000Z</time>
      </trkpt>
      <trkpt lat="45.97885" lon="4.58106">
        <ele>550</ele>
        <time>2018-08-05T06:13:32.000Z</time>
      </trkpt>
      <trkpt lat="45.97887" lon="4.58097">
        <ele>550</ele>
        <time>2018-08-05T06:13:33.000Z</time>
      </trkpt>
      <trkpt lat="45.9789" lon="4.58088">
        <ele>550</ele>
        <time>2018-08-05T06:13:34.000Z</time>
      </trkpt>
      <trkpt lat="45.97893" lon="4.58079">
        <ele>547</ele>
        <time>2018-08-05T06:13:35.000Z</time>
      </trkpt>
      <trkpt lat="45.97896" lon="4.58069">
        <ele>547</ele>
        <time>2018-08-05T06:13:36.000Z</time>
      </trkpt>
      <trkpt lat="45.97898" lon="4.5806">
        <ele>546</ele>
        <time>2018-08-05T06:13:37.000Z</time>
      </trkpt>
      <trkpt lat="45.979" lon="4.5805">
        <ele>545</ele>
        <time>2018-08-05T06:13:38.000Z</time>
      </trkpt>
      <trkpt lat="45.97901" lon="4.5804">
        <ele>545</ele>
        <time>2018-08-05T06:13:39.000Z</time>
      </trkpt>
      <trkpt lat="45.97903" lon="4.58029">
        <ele>544</ele>
        <time>2018-08-05T06:13:40.000Z</time>
      </trkpt>
      <trkpt lat="45.97905" lon="4.5802">
        <ele>544</ele>
        <time>2018-08-05T06:13:41.000Z</time>
      </trkpt>
      <trkpt lat="45.97906" lon="4.58011">
        <ele>545</ele>
        <time>2018-08-05T06:13:42.000Z</time>
      </trkpt>
      <trkpt lat="45.97908" lon="4.58001">
        <ele>545</ele>
        <time>2018-08-05T06:13:43.000Z</time>
      </trkpt>
      <trkpt lat="45.97911" lon="4.57993">
        <ele>543</ele>
        <time>2018-08-05T06:13:44.000Z</time>
      </trkpt>
      <trkpt lat="45.97915" lon="4.57985">
        <ele>542</ele>
        <time>2018-08-05T06:13:45.000Z</time>
      </trkpt>
      <trkpt lat="45.97921" lon="4.57978">
        <ele>550</ele>
        <time>2018-08-05T06:13:46.000Z</time>
      </trkpt>
      <trkpt lat="45.97927" lon="4.57972">
        <ele>550</ele>
        <time>2018-08-05T06:13:47.000Z</time>
      </trkpt>
      <trkpt lat="45.97933" lon="4.57966">
        <ele>551</ele>
        <time>2018-08-05T06:13:48.000Z</time>
      </trkpt>
      <trkpt lat="45.9794" lon="4.57961">
        <ele>551</ele>
        <time>2018-08-05T06:13:49.000Z</time>
      </trkpt>
      <trkpt lat="45.97946" lon="4.57955">
        <ele>552</ele>
        <time>2018-08-05T06:13:50.000Z</time>
      </trkpt>
      <trkpt lat="45.97951" lon="4.57947">
        <ele>552</ele>
        <time>2018-08-05T06:13:51.000Z</time>
      </trkpt>
      <trkpt lat="45.97955" lon="4.57938">
        <ele>552</ele>
        <time>2018-08-05T06:13:52.000Z</time>
      </trkpt>
      <trkpt lat="45.97959" lon="4.57929">
        <ele>553</ele>
        <time>2018-08-05T06:13:53.000Z</time>
      </trkpt>
      <trkpt lat="45.97961" lon="4.57918">
        <ele>553</ele>
        <time>2018-08-05T06:13:54.000Z</time>
      </trkpt>
      <trkpt lat="45.97962" lon="4.57907">
        <ele>554</ele>
        <time>2018-08-05T06:13:55.000Z</time>
      </trkpt>
      <trkpt lat="45.97962" lon="4.57896">
        <ele>555</ele>
        <time>2018-08-05T06:13:56.000Z</time>
      </trkpt>
      <trkpt lat="45.97962" lon="4.57885">
        <ele>555</ele>
        <time>2018-08-05T06:13:57.000Z</time>
      </trkpt>
      <trkpt lat="45.97961" lon="4.57874">
        <ele>555</ele>
        <time>2018-08-05T06:13:58.000Z</time>
      </trkpt>
      <trkpt lat="45.97961" lon="4.57863">
        <ele>556</ele>
        <time>2018-08-05T06:13:59.000Z</time>
      </trkpt>
      <trkpt lat="45.9796" lon="4.57852">
        <ele>556</ele>
        <time>2018-08-05T06:14:00.000Z</time>
      </trkpt>
      <trkpt lat="45.97958" lon="4.57842">
        <ele>556</ele>
        <time>2018-08-05T06:14:01.000Z</time>
      </trkpt>
      <trkpt lat="45.97954" lon="4.57832">
        <ele>563</ele>
        <time>2018-08-05T06:14:02.000Z</time>
      </trkpt>
      <trkpt lat="45.97948" lon="4.57824">
        <ele>562</ele>
        <time>2018-08-05T06:14:03.000Z</time>
      </trkpt>
      <trkpt lat="45.97941" lon="4.57819">
        <ele>562</ele>
        <time>2018-08-05T06:14:04.000Z</time>
      </trkpt>
      <trkpt lat="45.97933" lon="4.57816">
        <ele>561</ele>
        <time>2018-08-05T06:14:05.000Z</time>
      </trkpt>
      <trkpt lat="45.97926" lon="4.57813">
        <ele>561</ele>
        <time>2018-08-05T06:14:06.000Z</time>
      </trkpt>
      <trkpt lat="45.97918" lon="4.57811">
        <ele>561</ele>
        <time>2018-08-05T06:14:07.000Z</time>
      </trkpt>
      <trkpt lat="45.97911" lon="4.57808">
        <ele>554</ele>
        <time>2018-08-05T06:14:08.000Z</time>
      </trkpt>
      <trkpt lat="45.97903" lon="4.57803">
        <ele>555</ele>
        <time>2018-08-05T06:14:09.000Z</time>
      </trkpt>
      <trkpt lat="45.97896" lon="4.57799">
        <ele>555</ele>
        <time>2018-08-05T06:14:10.000Z</time>
      </trkpt>
      <trkpt lat="45.97889" lon="4.57794">
        <ele>555</ele>
        <time>2018-08-05T06:14:11.000Z</time>
      </trkpt>
      <trkpt lat="45.97882" lon="4.57789">
        <ele>555</ele>
        <time>2018-08-05T06:14:12.000Z</time>
      </trkpt>
      <trkpt lat="45.97876" lon="4.57784">
        <ele>555</ele>
        <time>2018-08-05T06:14:13.000Z</time>
      </trkpt>
      <trkpt lat="45.9787" lon="4.57779">
        <ele>555</ele>
        <time>2018-08-05T06:14:14.000Z</time>
      </trkpt>
      <trkpt lat="45.97863" lon="4.57774">
        <ele>555</ele>
        <time>2018-08-05T06:14:15.000Z</time>
      </trkpt>
      <trkpt lat="45.97857" lon="4.57769">
        <ele>555</ele>
        <time>2018-08-05T06:14:16.000Z</time>
      </trkpt>
      <trkpt lat="45.97852" lon="4.57765">
        <ele>555</ele>
        <time>2018-08-05T06:14:17.000Z</time>
      </trkpt>
      <trkpt lat="45.97846" lon="4.5776">
        <ele>555</ele>
        <time>2018-08-05T06:14:18.000Z</time>
      </trkpt>
      <trkpt lat="45.9784" lon="4.57755">
        <ele>555</ele>
        <time>2018-08-05T06:14:19.000Z</time>
      </trkpt>
      <trkpt lat="45.97835" lon="4.5775">
        <ele>555</ele>
        <time>2018-08-05T06:14:20.000Z</time>
      </trkpt>
      <trkpt lat="45.9783" lon="4.57745">
        <ele>554</ele>
        <time>2018-08-05T06:14:21.000Z</time>
      </trkpt>
      <trkpt lat="45.97825" lon="4.5774">
        <ele>554</ele>
        <time>2018-08-05T06:14:22.000Z</time>
      </trkpt>
      <trkpt lat="45.9782" lon="4.57735">
        <ele>553</ele>
        <time>2018-08-05T06:14:23.000Z</time>
      </trkpt>
      <trkpt lat="45.97816" lon="4.5773">
        <ele>553</ele>
        <time>2018-08-05T06:14:24.000Z</time>
      </trkpt>
      <trkpt lat="45.97811" lon="4.57726">
        <ele>553</ele>
        <time>2018-08-05T06:14:25.000Z</time>
      </trkpt>
      <trkpt lat="45.97807" lon="4.57721">
        <ele>552</ele>
        <time>2018-08-05T06:14:26.000Z</time>
      </trkpt>
      <trkpt lat="45.97803" lon="4.57716">
        <ele>552</ele>
        <time>2018-08-05T06:14:27.000Z</time>
      </trkpt>
      <trkpt lat="45.97799" lon="4.57712">
        <ele>552</ele>
        <time>2018-08-05T06:14:28.000Z</time>
      </trkpt>
      <trkpt lat="45.97794" lon="4.57706">
        <ele>552</ele>
        <time>2018-08-05T06:14:29.000Z</time>
      </trkpt>
      <trkpt lat="45.9779" lon="4.57701">
        <ele>552</ele>
        <time>2018-08-05T06:14:30.000Z</time>
      </trkpt>
      <trkpt lat="45.97786" lon="4.57696">
        <ele>552</ele>
        <time>2018-08-05T06:14:31.000Z</time>
      </trkpt>
      <trkpt lat="45.97782" lon="4.57691">
        <ele>551</ele>
        <time>2018-08-05T06:14:32.000Z</time>
      </trkpt>
      <trkpt lat="45.97779" lon="4.57686">
        <ele>551</ele>
        <time>2018-08-05T06:14:33.000Z</time>
      </trkpt>
      <trkpt lat="45.97775" lon="4.5768">
        <ele>550</ele>
        <time>2018-08-05T06:14:34.000Z</time>
      </trkpt>
      <trkpt lat="45.97772" lon="4.57674">
        <ele>550</ele>
        <time>2018-08-05T06:14:35.000Z</time>
      </trkpt>
      <trkpt lat="45.97769" lon="4.57668">
        <ele>549</ele>
        <time>2018-08-05T06:14:36.000Z</time>
      </trkpt>
      <trkpt lat="45.97766" lon="4.57662">
        <ele>554</ele>
        <time>2018-08-05T06:14:37.000Z</time>
      </trkpt>
      <trkpt lat="45.97763" lon="4.57656">
        <ele>554</ele>
        <time>2018-08-05T06:14:38.000Z</time>
      </trkpt>
      <trkpt lat="45.97761" lon="4.5765">
        <ele>555</ele>
        <time>2018-08-05T06:14:39.000Z</time>
      </trkpt>
      <trkpt lat="45.97759" lon="4.57643">
        <ele>557</ele>
        <time>2018-08-05T06:14:40.000Z</time>
      </trkpt>
      <trkpt lat="45.97757" lon="4.57636">
        <ele>558</ele>
        <time>2018-08-05T06:14:41.000Z</time>
      </trkpt>
      <trkpt lat="45.97756" lon="4.5763">
        <ele>559</ele>
        <time>2018-08-05T06:14:42.000Z</time>
      </trkpt>
      <trkpt lat="45.97755" lon="4.57623">
        <ele>559</ele>
        <time>2018-08-05T06:14:43.000Z</time>
      </trkpt>
      <trkpt lat="45.97754" lon="4.57615">
        <ele>560</ele>
        <time>2018-08-05T06:14:44.000Z</time>
      </trkpt>
      <trkpt lat="45.97753" lon="4.57609">
        <ele>560</ele>
        <time>2018-08-05T06:14:45.000Z</time>
      </trkpt>
      <trkpt lat="45.97751" lon="4.57603">
        <ele>559</ele>
        <time>2018-08-05T06:14:46.000Z</time>
      </trkpt>
      <trkpt lat="45.97749" lon="4.57597">
        <ele>551</ele>
        <time>2018-08-05T06:14:47.000Z</time>
      </trkpt>
      <trkpt lat="45.97746" lon="4.5759">
        <ele>552</ele>
        <time>2018-08-05T06:14:48.000Z</time>
      </trkpt>
      <trkpt lat="45.97743" lon="4.57584">
        <ele>553</ele>
        <time>2018-08-05T06:14:49.000Z</time>
      </trkpt>
      <trkpt lat="45.97739" lon="4.57578">
        <ele>558</ele>
        <time>2018-08-05T06:14:50.000Z</time>
      </trkpt>
      <trkpt lat="45.97735" lon="4.57573">
        <ele>558</ele>
        <time>2018-08-05T06:14:51.000Z</time>
      </trkpt>
      <trkpt lat="45.9773" lon="4.57568">
        <ele>559</ele>
        <time>2018-08-05T06:14:52.000Z</time>
      </trkpt>
      <trkpt lat="45.97726" lon="4.57564">
        <ele>559</ele>
        <time>2018-08-05T06:14:53.000Z</time>
      </trkpt>
      <trkpt lat="45.97722" lon="4.5756">
        <ele>560</ele>
        <time>2018-08-05T06:14:54.000Z</time>
      </trkpt>
      <trkpt lat="45.97717" lon="4.57557">
        <ele>560</ele>
        <time>2018-08-05T06:14:55.000Z</time>
      </trkpt>
      <trkpt lat="45.97713" lon="4.57554">
        <ele>560</ele>
        <time>2018-08-05T06:14:56.000Z</time>
      </trkpt>
      <trkpt lat="45.97708" lon="4.57551">
        <ele>560</ele>
        <time>2018-08-05T06:14:57.000Z</time>
      </trkpt>
      <trkpt lat="45.97704" lon="4.57549">
        <ele>560</ele>
        <time>2018-08-05T06:14:58.000Z</time>
      </trkpt>
      <trkpt lat="45.97699" lon="4.57547">
        <ele>560</ele>
        <time>2018-08-05T06:14:59.000Z</time>
      </trkpt>
      <trkpt lat="45.97694" lon="4.57544">
        <ele>560</ele>
        <time>2018-08-05T06:15:00.000Z</time>
      </trkpt>
      <trkpt lat="45.9769" lon="4.57542">
        <ele>560</ele>
        <time>2018-08-05T06:15:01.000Z</time>
      </trkpt>
      <trkpt lat="45.97685" lon="4.5754">
        <ele>560</ele>
        <time>2018-08-05T06:15:02.000Z</time>
      </trkpt>
      <trkpt lat="45.9768" lon="4.57538">
        <ele>560</ele>
        <time>2018-08-05T06:15:03.000Z</time>
      </trkpt>
      <trkpt lat="45.97675" lon="4.57536">
        <ele>560</ele>
        <time>2018-08-05T06:15:04.000Z</time>
      </trkpt>
      <trkpt lat="45.9767" lon="4.57534">
        <ele>560</ele>
        <time>2018-08-05T06:15:05.000Z</time>
      </trkpt>
      <trkpt lat="45.97665" lon="4.57532">
        <ele>553</ele>
        <time>2018-08-05T06:15:06.000Z</time>
      </trkpt>
      <trkpt lat="45.97661" lon="4.57529">
        <ele>553</ele>
        <time>2018-08-05T06:15:07.000Z</time>
      </trkpt>
      <trkpt lat="45.97656" lon="4.57527">
        <ele>553</ele>
        <time>2018-08-05T06:15:08.000Z</time>
      </trkpt>
      <trkpt lat="45.97651" lon="4.57525">
        <ele>553</ele>
        <time>2018-08-05T06:15:09.000Z</time>
      </trkpt>
      <trkpt lat="45.97646" lon="4.57523">
        <ele>553</ele>
        <time>2018-08-05T06:15:10.000Z</time>
      </trkpt>
      <trkpt lat="45.9764" lon="4.57522">
        <ele>553</ele>
        <time>2018-08-05T06:15:11.000Z</time>
      </trkpt>
      <trkpt lat="45.97635" lon="4.5752">
        <ele>552</ele>
        <time>2018-08-05T06:15:12.000Z</time>
      </trkpt>
      <trkpt lat="45.9763" lon="4.57518">
        <ele>552</ele>
        <time>2018-08-05T06:15:13.000Z</time>
      </trkpt>
      <trkpt lat="45.97624" lon="4.57515">
        <ele>552</ele>
        <time>2018-08-05T06:15:14.000Z</time>
      </trkpt>
      <trkpt lat="45.97619" lon="4.57513">
        <ele>551</ele>
        <time>2018-08-05T06:15:15.000Z</time>
      </trkpt>
      <trkpt lat="45.97613" lon="4.57511">
        <ele>551</ele>
        <time>2018-08-05T06:15:16.000Z</time>
      </trkpt>
      <trkpt lat="45.97608" lon="4.57508">
        <ele>551</ele>
        <time>2018-08-05T06:15:17.000Z</time>
      </trkpt>
      <trkpt lat="45.97603" lon="4.57504">
        <ele>551</ele>
        <time>2018-08-05T06:15:18.000Z</time>
      </trkpt>
      <trkpt lat="45.97598" lon="4.57501">
        <ele>552</ele>
        <time>2018-08-05T06:15:19.000Z</time>
      </trkpt>
      <trkpt lat="45.97593" lon="4.57497">
        <ele>558</ele>
        <time>2018-08-05T06:15:20.000Z</time>
      </trkpt>
      <trkpt lat="45.97588" lon="4.57493">
        <ele>557</ele>
        <time>2018-08-05T06:15:21.000Z</time>
      </trkpt>
      <trkpt lat="45.97583" lon="4.57489">
        <ele>558</ele>
        <time>2018-08-05T06:15:22.000Z</time>
      </trkpt>
      <trkpt lat="45.97578" lon="4.57486">
        <ele>554</ele>
        <time>2018-08-05T06:15:23.000Z</time>
      </trkpt>
      <trkpt lat="45.97573" lon="4.57482">
        <ele>555</ele>
        <time>2018-08-05T06:15:24.000Z</time>
      </trkpt>
      <trkpt lat="45.97568" lon="4.57478">
        <ele>555</ele>
        <time>2018-08-05T06:15:25.000Z</time>
      </trkpt>
      <trkpt lat="45.97563" lon="4.57476">
        <ele>555</ele>
        <time>2018-08-05T06:15:26.000Z</time>
      </trkpt>
      <trkpt lat="45.97557" lon="4.57473">
        <ele>555</ele>
        <time>2018-08-05T06:15:27.000Z</time>
      </trkpt>
      <trkpt lat="45.97552" lon="4.57471">
        <ele>555</ele>
        <time>2018-08-05T06:15:28.000Z</time>
      </trkpt>
      <trkpt lat="45.97547" lon="4.57469">
        <ele>554</ele>
        <time>2018-08-05T06:15:29.000Z</time>
      </trkpt>
      <trkpt lat="45.97541" lon="4.57468">
        <ele>554</ele>
        <time>2018-08-05T06:15:30.000Z</time>
      </trkpt>
      <trkpt lat="45.97536" lon="4.57466">
        <ele>554</ele>
        <time>2018-08-05T06:15:31.000Z</time>
      </trkpt>
      <trkpt lat="45.97531" lon="4.57464">
        <ele>554</ele>
        <time>2018-08-05T06:15:32.000Z</time>
      </trkpt>
      <trkpt lat="45.97525" lon="4.57463">
        <ele>553</ele>
        <time>2018-08-05T06:15:33.000Z</time>
      </trkpt>
      <trkpt lat="45.97519" lon="4.57462">
        <ele>553</ele>
        <time>2018-08-05T06:15:34.000Z</time>
      </trkpt>
      <trkpt lat="45.97514" lon="4.5746">
        <ele>553</ele>
        <time>2018-08-05T06:15:35.000Z</time>
      </trkpt>
      <trkpt lat="45.97509" lon="4.57459">
        <ele>553</ele>
        <time>2018-08-05T06:15:36.000Z</time>
      </trkpt>
      <trkpt lat="45.97503" lon="4.57456">
        <ele>553</ele>
        <time>2018-08-05T06:15:37.000Z</time>
      </trkpt>
      <trkpt lat="45.97499" lon="4.57453">
        <ele>544</ele>
        <time>2018-08-05T06:15:38.000Z</time>
      </trkpt>
      <trkpt lat="45.97494" lon="4.5745">
        <ele>545</ele>
        <time>2018-08-05T06:15:39.000Z</time>
      </trkpt>
      <trkpt lat="45.97488" lon="4.57447">
        <ele>545</ele>
        <time>2018-08-05T06:15:40.000Z</time>
      </trkpt>
      <trkpt lat="45.97482" lon="4.57444">
        <ele>545</ele>
        <time>2018-08-05T06:15:41.000Z</time>
      </trkpt>
      <trkpt lat="45.97477" lon="4.57441">
        <ele>544</ele>
        <time>2018-08-05T06:15:42.000Z</time>
      </trkpt>
      <trkpt lat="45.97471" lon="4.57437">
        <ele>544</ele>
        <time>2018-08-05T06:15:43.000Z</time>
      </trkpt>
      <trkpt lat="45.97466" lon="4.57433">
        <ele>544</ele>
        <time>2018-08-05T06:15:44.000Z</time>
      </trkpt>
      <trkpt lat="45.97461" lon="4.57429">
        <ele>543</ele>
        <time>2018-08-05T06:15:45.000Z</time>
      </trkpt>
      <trkpt lat="45.97455" lon="4.57424">
        <ele>543</ele>
        <time>2018-08-05T06:15:46.000Z</time>
      </trkpt>
      <trkpt lat="45.9745" lon="4.5742">
        <ele>542</ele>
        <time>2018-08-05T06:15:47.000Z</time>
      </trkpt>
      <trkpt lat="45.97446" lon="4.57414">
        <ele>547</ele>
        <time>2018-08-05T06:15:48.000Z</time>
      </trkpt>
      <trkpt lat="45.97441" lon="4.57409">
        <ele>547</ele>
        <time>2018-08-05T06:15:49.000Z</time>
      </trkpt>
      <trkpt lat="45.97436" lon="4.57403">
        <ele>546</ele>
        <time>2018-08-05T06:15:50.000Z</time>
      </trkpt>
      <trkpt lat="45.97431" lon="4.57397">
        <ele>546</ele>
        <time>2018-08-05T06:15:51.000Z</time>
      </trkpt>
      <trkpt lat="45.97427" lon="4.5739">
        <ele>546</ele>
        <time>2018-08-05T06:15:52.000Z</time>
      </trkpt>
      <trkpt lat="45.97424" lon="4.57382">
        <ele>547</ele>
        <time>2018-08-05T06:15:53.000Z</time>
      </trkpt>
      <trkpt lat="45.97421" lon="4.57374">
        <ele>547</ele>
        <time>2018-08-05T06:15:54.000Z</time>
      </trkpt>
      <trkpt lat="45.97419" lon="4.57365">
        <ele>547</ele>
        <time>2018-08-05T06:15:55.000Z</time>
      </trkpt>
      <trkpt lat="45.97417" lon="4.57356">
        <ele>547</ele>
        <time>2018-08-05T06:15:56.000Z</time>
      </trkpt>
      <trkpt lat="45.97417" lon="4.57346">
        <ele>539</ele>
        <time>2018-08-05T06:15:57.000Z</time>
      </trkpt>
      <trkpt lat="45.97416" lon="4.57337">
        <ele>542</ele>
        <time>2018-08-05T06:15:58.000Z</time>
      </trkpt>
      <trkpt lat="45.97417" lon="4.57328">
        <ele>545</ele>
        <time>2018-08-05T06:15:59.000Z</time>
      </trkpt>
      <trkpt lat="45.97418" lon="4.57319">
        <ele>546</ele>
        <time>2018-08-05T06:16:00.000Z</time>
      </trkpt>
      <trkpt lat="45.9742" lon="4.57309">
        <ele>547</ele>
        <time>2018-08-05T06:16:01.000Z</time>
      </trkpt>
      <trkpt lat="45.97422" lon="4.57301">
        <ele>547</ele>
        <time>2018-08-05T06:16:02.000Z</time>
      </trkpt>
      <trkpt lat="45.97424" lon="4.57292">
        <ele>547</ele>
        <time>2018-08-05T06:16:03.000Z</time>
      </trkpt>
      <trkpt lat="45.97427" lon="4.57284">
        <ele>546</ele>
        <time>2018-08-05T06:16:04.000Z</time>
      </trkpt>
      <trkpt lat="45.9743" lon="4.57276">
        <ele>546</ele>
        <time>2018-08-05T06:16:05.000Z</time>
      </trkpt>
      <trkpt lat="45.97433" lon="4.57268">
        <ele>545</ele>
        <time>2018-08-05T06:16:06.000Z</time>
      </trkpt>
      <trkpt lat="45.97436" lon="4.5726">
        <ele>545</ele>
        <time>2018-08-05T06:16:07.000Z</time>
      </trkpt>
      <trkpt lat="45.97439" lon="4.57252">
        <ele>545</ele>
        <time>2018-08-05T06:16:08.000Z</time>
      </trkpt>
      <trkpt lat="45.97443" lon="4.57244">
        <ele>541</ele>
        <time>2018-08-05T06:16:09.000Z</time>
      </trkpt>
      <trkpt lat="45.97447" lon="4.57236">
        <ele>541</ele>
        <time>2018-08-05T06:16:10.000Z</time>
      </trkpt>
      <trkpt lat="45.9745" lon="4.57228">
        <ele>542</ele>
        <time>2018-08-05T06:16:11.000Z</time>
      </trkpt>
      <trkpt lat="45.97454" lon="4.57221">
        <ele>542</ele>
        <time>2018-08-05T06:16:12.000Z</time>
      </trkpt>
      <trkpt lat="45.97458" lon="4.57213">
        <ele>542</ele>
        <time>2018-08-05T06:16:13.000Z</time>
      </trkpt>
      <trkpt lat="45.97461" lon="4.57205">
        <ele>541</ele>
        <time>2018-08-05T06:16:14.000Z</time>
      </trkpt>
      <trkpt lat="45.97466" lon="4.57198">
        <ele>541</ele>
        <time>2018-08-05T06:16:15.000Z</time>
      </trkpt>
      <trkpt lat="45.97469" lon="4.5719">
        <ele>542</ele>
        <time>2018-08-05T06:16:16.000Z</time>
      </trkpt>
      <trkpt lat="45.97473" lon="4.57183">
        <ele>542</ele>
        <time>2018-08-05T06:16:17.000Z</time>
      </trkpt>
      <trkpt lat="45.97477" lon="4.57176">
        <ele>542</ele>
        <time>2018-08-05T06:16:18.000Z</time>
      </trkpt>
      <trkpt lat="45.97481" lon="4.57168">
        <ele>543</ele>
        <time>2018-08-05T06:16:19.000Z</time>
      </trkpt>
      <trkpt lat="45.97485" lon="4.57161">
        <ele>538</ele>
        <time>2018-08-05T06:16:20.000Z</time>
      </trkpt>
      <trkpt lat="45.97489" lon="4.57154">
        <ele>538</ele>
        <time>2018-08-05T06:16:21.000Z</time>
      </trkpt>
      <trkpt lat="45.97493" lon="4.57147">
        <ele>537</ele>
        <time>2018-08-05T06:16:22.000Z</time>
      </trkpt>
      <trkpt lat="45.97497" lon="4.5714">
        <ele>535</ele>
        <time>2018-08-05T06:16:23.000Z</time>
      </trkpt>
      <trkpt lat="45.97501" lon="4.57133">
        <ele>546</ele>
        <time>2018-08-05T06:16:24.000Z</time>
      </trkpt>
      <trkpt lat="45.97505" lon="4.57126">
        <ele>545</ele>
        <time>2018-08-05T06:16:25.000Z</time>
      </trkpt>
      <trkpt lat="45.9751" lon="4.57119">
        <ele>544</ele>
        <time>2018-08-05T06:16:26.000Z</time>
      </trkpt>
      <trkpt lat="45.97515" lon="4.57113">
        <ele>544</ele>
        <time>2018-08-05T06:16:27.000Z</time>
      </trkpt>
      <trkpt lat="45.97519" lon="4.57107">
        <ele>543</ele>
        <time>2018-08-05T06:16:28.000Z</time>
      </trkpt>
      <trkpt lat="45.97524" lon="4.571">
        <ele>543</ele>
        <time>2018-08-05T06:16:29.000Z</time>
      </trkpt>
      <trkpt lat="45.9753" lon="4.57094">
        <ele>544</ele>
        <time>2018-08-05T06:16:30.000Z</time>
      </trkpt>
      <trkpt lat="45.97535" lon="4.57089">
        <ele>544</ele>
        <time>2018-08-05T06:16:31.000Z</time>
      </trkpt>
      <trkpt lat="45.97541" lon="4.57083">
        <ele>545</ele>
        <time>2018-08-05T06:16:32.000Z</time>
      </trkpt>
      <trkpt lat="45.97547" lon="4.57078">
        <ele>538</ele>
        <time>2018-08-05T06:16:33.000Z</time>
      </trkpt>
      <trkpt lat="45.97553" lon="4.57073">
        <ele>539</ele>
        <time>2018-08-05T06:16:34.000Z</time>
      </trkpt>
      <trkpt lat="45.97559" lon="4.57069">
        <ele>540</ele>
        <time>2018-08-05T06:16:35.000Z</time>
      </trkpt>
      <trkpt lat="45.97565" lon="4.57064">
        <ele>540</ele>
        <time>2018-08-05T06:16:36.000Z</time>
      </trkpt>
      <trkpt lat="45.97571" lon="4.5706">
        <ele>540</ele>
        <time>2018-08-05T06:16:37.000Z</time>
      </trkpt>
      <trkpt lat="45.97578" lon="4.57055">
        <ele>540</ele>
        <time>2018-08-05T06:16:38.000Z</time>
      </trkpt>
      <trkpt lat="45.97584" lon="4.5705">
        <ele>549</ele>
        <time>2018-08-05T06:16:39.000Z</time>
      </trkpt>
      <trkpt lat="45.9759" lon="4.57045">
        <ele>548</ele>
        <time>2018-08-05T06:16:40.000Z</time>
      </trkpt>
      <trkpt lat="45.97596" lon="4.5704">
        <ele>548</ele>
        <time>2018-08-05T06:16:41.000Z</time>
      </trkpt>
      <trkpt lat="45.97601" lon="4.57034">
        <ele>548</ele>
        <time>2018-08-05T06:16:42.000Z</time>
      </trkpt>
      <trkpt lat="45.97607" lon="4.57029">
        <ele>548</ele>
        <time>2018-08-05T06:16:43.000Z</time>
      </trkpt>
      <trkpt lat="45.97613" lon="4.57023">
        <ele>548</ele>
        <time>2018-08-05T06:16:44.000Z</time>
      </trkpt>
      <trkpt lat="45.97618" lon="4.57017">
        <ele>548</ele>
        <time>2018-08-05T06:16:45.000Z</time>
      </trkpt>
      <trkpt lat="45.97624" lon="4.57011">
        <ele>548</ele>
        <time>2018-08-05T06:16:46.000Z</time>
      </trkpt>
      <trkpt lat="45.97629" lon="4.57005">
        <ele>549</ele>
        <time>2018-08-05T06:16:47.000Z</time>
      </trkpt>
      <trkpt lat="45.97634" lon="4.56997">
        <ele>547</ele>
        <time>2018-08-05T06:16:48.000Z</time>
      </trkpt>
      <trkpt lat="45.97637" lon="4.56989">
        <ele>548</ele>
        <time>2018-08-05T06:16:49.000Z</time>
      </trkpt>
      <trkpt lat="45.97639" lon="4.56979">
        <ele>548</ele>
        <time>2018-08-05T06:16:50.000Z</time>
      </trkpt>
      <trkpt lat="45.97638" lon="4.56969">
        <ele>548</ele>
        <time>2018-08-05T06:16:51.000Z</time>
      </trkpt>
      <trkpt lat="45.97634" lon="4.5696">
        <ele>549</ele>
        <time>2018-08-05T06:16:52.000Z</time>
      </trkpt>
      <trkpt lat="45.97629" lon="4.56953">
        <ele>549</ele>
        <time>2018-08-05T06:16:53.000Z</time>
      </trkpt>
      <trkpt lat="45.97623" lon="4.56949">
        <ele>548</ele>
        <time>2018-08-05T06:16:54.000Z</time>
      </trkpt>
      <trkpt lat="45.97616" lon="4.56946">
        <ele>548</ele>
        <time>2018-08-05T06:16:55.000Z</time>
      </trkpt>
      <trkpt lat="45.9761" lon="4.56945">
        <ele>548</ele>
        <time>2018-08-05T06:16:56.000Z</time>
      </trkpt>
      <trkpt lat="45.97603" lon="4.56944">
        <ele>547</ele>
        <time>2018-08-05T06:16:57.000Z</time>
      </trkpt>
      <trkpt lat="45.97597" lon="4.56943">
        <ele>547</ele>
        <time>2018-08-05T06:16:58.000Z</time>
      </trkpt>
      <trkpt lat="45.97591" lon="4.56942">
        <ele>547</ele>
        <time>2018-08-05T06:16:59.000Z</time>
      </trkpt>
      <trkpt lat="45.97585" lon="4.56941">
        <ele>547</ele>
        <time>2018-08-05T06:17:00.000Z</time>
      </trkpt>
      <trkpt lat="45.97579" lon="4.5694">
        <ele>541</ele>
        <time>2018-08-05T06:17:01.000Z</time>
      </trkpt>
      <trkpt lat="45.97573" lon="4.56938">
        <ele>541</ele>
        <time>2018-08-05T06:17:02.000Z</time>
      </trkpt>
      <trkpt lat="45.97568" lon="4.56936">
        <ele>541</ele>
        <time>2018-08-05T06:17:03.000Z</time>
      </trkpt>
      <trkpt lat="45.97564" lon="4.56934">
        <ele>541</ele>
        <time>2018-08-05T06:17:04.000Z</time>
      </trkpt>
      <trkpt lat="45.97559" lon="4.56932">
        <ele>541</ele>
        <time>2018-08-05T06:17:05.000Z</time>
      </trkpt>
      <trkpt lat="45.97554" lon="4.56931">
        <ele>540</ele>
        <time>2018-08-05T06:17:06.000Z</time>
      </trkpt>
      <trkpt lat="45.97549" lon="4.56929">
        <ele>540</ele>
        <time>2018-08-05T06:17:07.000Z</time>
      </trkpt>
      <trkpt lat="45.97545" lon="4.56927">
        <ele>540</ele>
        <time>2018-08-05T06:17:08.000Z</time>
      </trkpt>
      <trkpt lat="45.9754" lon="4.56925">
        <ele>540</ele>
        <time>2018-08-05T06:17:09.000Z</time>
      </trkpt>
      <trkpt lat="45.97535" lon="4.56923">
        <ele>540</ele>
        <time>2018-08-05T06:17:10.000Z</time>
      </trkpt>
      <trkpt lat="45.9753" lon="4.5692">
        <ele>540</ele>
        <time>2018-08-05T06:17:11.000Z</time>
      </trkpt>
      <trkpt lat="45.97525" lon="4.56918">
        <ele>540</ele>
        <time>2018-08-05T06:17:12.000Z</time>
      </trkpt>
      <trkpt lat="45.9752" lon="4.56916">
        <ele>551</ele>
        <time>2018-08-05T06:17:13.000Z</time>
      </trkpt>
      <trkpt lat="45.97515" lon="4.56914">
        <ele>549</ele>
        <time>2018-08-05T06:17:14.000Z</time>
      </trkpt>
      <trkpt lat="45.9751" lon="4.56911">
        <ele>548</ele>
        <time>2018-08-05T06:17:15.000Z</time>
      </trkpt>
      <trkpt lat="45.97505" lon="4.56909">
        <ele>547</ele>
        <time>2018-08-05T06:17:16.000Z</time>
      </trkpt>
      <trkpt lat="45.975" lon="4.56908">
        <ele>547</ele>
        <time>2018-08-05T06:17:17.000Z</time>
      </trkpt>
      <trkpt lat="45.97495" lon="4.56907">
        <ele>547</ele>
        <time>2018-08-05T06:17:18.000Z</time>
      </trkpt>
      <trkpt lat="45.9749" lon="4.56907">
        <ele>547</ele>
        <time>2018-08-05T06:17:19.000Z</time>
      </trkpt>
      <trkpt lat="45.97485" lon="4.56908">
        <ele>548</ele>
        <time>2018-08-05T06:17:20.000Z</time>
      </trkpt>
      <trkpt lat="45.9748" lon="4.56909">
        <ele>549</ele>
        <time>2018-08-05T06:17:21.000Z</time>
      </trkpt>
      <trkpt lat="45.97475" lon="4.5691">
        <ele>550</ele>
        <time>2018-08-05T06:17:22.000Z</time>
      </trkpt>
      <trkpt lat="45.9747" lon="4.56911">
        <ele>551</ele>
        <time>2018-08-05T06:17:23.000Z</time>
      </trkpt>
      <trkpt lat="45.97465" lon="4.56912">
        <ele>551</ele>
        <time>2018-08-05T06:17:24.000Z</time>
      </trkpt>
      <trkpt lat="45.9746" lon="4.56913">
        <ele>551</ele>
        <time>2018-08-05T06:17:25.000Z</time>
      </trkpt>
      <trkpt lat="45.97455" lon="4.56914">
        <ele>551</ele>
        <time>2018-08-05T06:17:26.000Z</time>
      </trkpt>
      <trkpt lat="45.97449" lon="4.56914">
        <ele>551</ele>
        <time>2018-08-05T06:17:27.000Z</time>
      </trkpt>
      <trkpt lat="45.97444" lon="4.56914">
        <ele>551</ele>
        <time>2018-08-05T06:17:28.000Z</time>
      </trkpt>
      <trkpt lat="45.97438" lon="4.56914">
        <ele>550</ele>
        <time>2018-08-05T06:17:29.000Z</time>
      </trkpt>
      <trkpt lat="45.97432" lon="4.56913">
        <ele>549</ele>
        <time>2018-08-05T06:17:30.000Z</time>
      </trkpt>
      <trkpt lat="45.97427" lon="4.56912">
        <ele>548</ele>
        <time>2018-08-05T06:17:31.000Z</time>
      </trkpt>
      <trkpt lat="45.97421" lon="4.56912">
        <ele>547</ele>
        <time>2018-08-05T06:17:32.000Z</time>
      </trkpt>
      <trkpt lat="45.97416" lon="4.56911">
        <ele>547</ele>
        <time>2018-08-05T06:17:33.000Z</time>
      </trkpt>
      <trkpt lat="45.97411" lon="4.56911">
        <ele>547</ele>
        <time>2018-08-05T06:17:34.000Z</time>
      </trkpt>
      <trkpt lat="45.97406" lon="4.56912">
        <ele>549</ele>
        <time>2018-08-05T06:17:35.000Z</time>
      </trkpt>
      <trkpt lat="45.97401" lon="4.56913">
        <ele>550</ele>
        <time>2018-08-05T06:17:36.000Z</time>
      </trkpt>
      <trkpt lat="45.97395" lon="4.56914">
        <ele>551</ele>
        <time>2018-08-05T06:17:37.000Z</time>
      </trkpt>
      <trkpt lat="45.9739" lon="4.56915">
        <ele>551</ele>
        <time>2018-08-05T06:17:38.000Z</time>
      </trkpt>
      <trkpt lat="45.97384" lon="4.56916">
        <ele>552</ele>
        <time>2018-08-05T06:17:39.000Z</time>
      </trkpt>
      <trkpt lat="45.97379" lon="4.56917">
        <ele>539</ele>
        <time>2018-08-05T06:17:40.000Z</time>
      </trkpt>
      <trkpt lat="45.97373" lon="4.56918">
        <ele>539</ele>
        <time>2018-08-05T06:17:41.000Z</time>
      </trkpt>
      <trkpt lat="45.97368" lon="4.56919">
        <ele>539</ele>
        <time>2018-08-05T06:17:42.000Z</time>
      </trkpt>
      <trkpt lat="45.97363" lon="4.5692">
        <ele>540</ele>
        <time>2018-08-05T06:17:43.000Z</time>
      </trkpt>
      <trkpt lat="45.97358" lon="4.56921">
        <ele>541</ele>
        <time>2018-08-05T06:17:44.000Z</time>
      </trkpt>
      <trkpt lat="45.97352" lon="4.56921">
        <ele>542</ele>
        <time>2018-08-05T06:17:45.000Z</time>
      </trkpt>
      <trkpt lat="45.97347" lon="4.56923">
        <ele>543</ele>
        <time>2018-08-05T06:17:46.000Z</time>
      </trkpt>
      <trkpt lat="45.97342" lon="4.56924">
        <ele>544</ele>
        <time>2018-08-05T06:17:47.000Z</time>
      </trkpt>
      <trkpt lat="45.97337" lon="4.56925">
        <ele>544</ele>
        <time>2018-08-05T06:17:48.000Z</time>
      </trkpt>
      <trkpt lat="45.97332" lon="4.56927">
        <ele>546</ele>
        <time>2018-08-05T06:17:49.000Z</time>
      </trkpt>
      <trkpt lat="45.97326" lon="4.56928">
        <ele>546</ele>
        <time>2018-08-05T06:17:50.000Z</time>
      </trkpt>
      <trkpt lat="45.97321" lon="4.5693">
        <ele>545</ele>
        <time>2018-08-05T06:17:51.000Z</time>
      </trkpt>
      <trkpt lat="45.97316" lon="4.56932">
        <ele>545</ele>
        <time>2018-08-05T06:17:52.000Z</time>
      </trkpt>
      <trkpt lat="45.97311" lon="4.56934">
        <ele>544</ele>
        <time>2018-08-05T06:17:53.000Z</time>
      </trkpt>
      <trkpt lat="45.97306" lon="4.56936">
        <ele>544</ele>
        <time>2018-08-05T06:17:54.000Z</time>
      </trkpt>
      <trkpt lat="45.97301" lon="4.56939">
        <ele>544</ele>
        <time>2018-08-05T06:17:55.000Z</time>
      </trkpt>
      <trkpt lat="45.97296" lon="4.56942">
        <ele>544</ele>
        <time>2018-08-05T06:17:56.000Z</time>
      </trkpt>
      <trkpt lat="45.9729" lon="4.56945">
        <ele>544</ele>
        <time>2018-08-05T06:17:57.000Z</time>
      </trkpt>
      <trkpt lat="45.97286" lon="4.56948">
        <ele>544</ele>
        <time>2018-08-05T06:17:58.000Z</time>
      </trkpt>
      <trkpt lat="45.97281" lon="4.56952">
        <ele>544</ele>
        <time>2018-08-05T06:17:59.000Z</time>
      </trkpt>
      <trkpt lat="45.97276" lon="4.56956">
        <ele>543</ele>
        <time>2018-08-05T06:18:00.000Z</time>
      </trkpt>
      <trkpt lat="45.97272" lon="4.5696">
        <ele>543</ele>
        <time>2018-08-05T06:18:01.000Z</time>
      </trkpt>
      <trkpt lat="45.97267" lon="4.56964">
        <ele>543</ele>
        <time>2018-08-05T06:18:02.000Z</time>
      </trkpt>
      <trkpt lat="45.97263" lon="4.56968">
        <ele>542</ele>
        <time>2018-08-05T06:18:03.000Z</time>
      </trkpt>
      <trkpt lat="45.97258" lon="4.56972">
        <ele>542</ele>
        <time>2018-08-05T06:18:04.000Z</time>
      </trkpt>
      <trkpt lat="45.97254" lon="4.56975">
        <ele>542</ele>
        <time>2018-08-05T06:18:05.000Z</time>
      </trkpt>
      <trkpt lat="45.97249" lon="4.56979">
        <ele>545</ele>
        <time>2018-08-05T06:18:06.000Z</time>
      </trkpt>
      <trkpt lat="45.97245" lon="4.56983">
        <ele>544</ele>
        <time>2018-08-05T06:18:07.000Z</time>
      </trkpt>
      <trkpt lat="45.9724" lon="4.56987">
        <ele>544</ele>
        <time>2018-08-05T06:18:08.000Z</time>
      </trkpt>
      <trkpt lat="45.97235" lon="4.5699">
        <ele>544</ele>
        <time>2018-08-05T06:18:09.000Z</time>
      </trkpt>
      <trkpt lat="45.97231" lon="4.56994">
        <ele>544</ele>
        <time>2018-08-05T06:18:10.000Z</time>
      </trkpt>
      <trkpt lat="45.97227" lon="4.56997">
        <ele>544</ele>
        <time>2018-08-05T06:18:11.000Z</time>
      </trkpt>
      <trkpt lat="45.97222" lon="4.57001">
        <ele>535</ele>
        <time>2018-08-05T06:18:12.000Z</time>
      </trkpt>
      <trkpt lat="45.97217" lon="4.57004">
        <ele>534</ele>
        <time>2018-08-05T06:18:13.000Z</time>
      </trkpt>
      <trkpt lat="45.97212" lon="4.57007">
        <ele>534</ele>
        <time>2018-08-05T06:18:14.000Z</time>
      </trkpt>
      <trkpt lat="45.97207" lon="4.5701">
        <ele>534</ele>
        <time>2018-08-05T06:18:15.000Z</time>
      </trkpt>
      <trkpt lat="45.97202" lon="4.57012">
        <ele>535</ele>
        <time>2018-08-05T06:18:16.000Z</time>
      </trkpt>
      <trkpt lat="45.97197" lon="4.57013">
        <ele>535</ele>
        <time>2018-08-05T06:18:17.000Z</time>
      </trkpt>
      <trkpt lat="45.97192" lon="4.57014">
        <ele>535</ele>
        <time>2018-08-05T06:18:18.000Z</time>
      </trkpt>
      <trkpt lat="45.97186" lon="4.57015">
        <ele>536</ele>
        <time>2018-08-05T06:18:19.000Z</time>
      </trkpt>
      <trkpt lat="45.97181" lon="4.57016">
        <ele>537</ele>
        <time>2018-08-05T06:18:20.000Z</time>
      </trkpt>
      <trkpt lat="45.97176" lon="4.57016">
        <ele>537</ele>
        <time>2018-08-05T06:18:21.000Z</time>
      </trkpt>
      <trkpt lat="45.97171" lon="4.57016">
        <ele>538</ele>
        <time>2018-08-05T06:18:22.000Z</time>
      </trkpt>
      <trkpt lat="45.97165" lon="4.57015">
        <ele>538</ele>
        <time>2018-08-05T06:18:23.000Z</time>
      </trkpt>
      <trkpt lat="45.9716" lon="4.57014">
        <ele>538</ele>
        <time>2018-08-05T06:18:24.000Z</time>
      </trkpt>
      <trkpt lat="45.97155" lon="4.57013">
        <ele>537</ele>
        <time>2018-08-05T06:18:25.000Z</time>
      </trkpt>
      <trkpt lat="45.97149" lon="4.57011">
        <ele>537</ele>
        <time>2018-08-05T06:18:26.000Z</time>
      </trkpt>
      <trkpt lat="45.97144" lon="4.57009">
        <ele>536</ele>
        <time>2018-08-05T06:18:27.000Z</time>
      </trkpt>
      <trkpt lat="45.97139" lon="4.57005">
        <ele>535</ele>
        <time>2018-08-05T06:18:28.000Z</time>
      </trkpt>
      <trkpt lat="45.97135" lon="4.57">
        <ele>535</ele>
        <time>2018-08-05T06:18:29.000Z</time>
      </trkpt>
      <trkpt lat="45.9713" lon="4.56995">
        <ele>541</ele>
        <time>2018-08-05T06:18:30.000Z</time>
      </trkpt>
      <trkpt lat="45.97127" lon="4.56989">
        <ele>541</ele>
        <time>2018-08-05T06:18:31.000Z</time>
      </trkpt>
      <trkpt lat="45.97123" lon="4.56983">
        <ele>541</ele>
        <time>2018-08-05T06:18:32.000Z</time>
      </trkpt>
      <trkpt lat="45.97121" lon="4.56976">
        <ele>541</ele>
        <time>2018-08-05T06:18:33.000Z</time>
      </trkpt>
      <trkpt lat="45.97118" lon="4.5697">
        <ele>541</ele>
        <time>2018-08-05T06:18:34.000Z</time>
      </trkpt>
      <trkpt lat="45.97115" lon="4.56963">
        <ele>541</ele>
        <time>2018-08-05T06:18:35.000Z</time>
      </trkpt>
      <trkpt lat="45.97113" lon="4.56956">
        <ele>542</ele>
        <time>2018-08-05T06:18:36.000Z</time>
      </trkpt>
      <trkpt lat="45.97111" lon="4.56948">
        <ele>542</ele>
        <time>2018-08-05T06:18:37.000Z</time>
      </trkpt>
      <trkpt lat="45.97109" lon="4.56941">
        <ele>542</ele>
        <time>2018-08-05T06:18:38.000Z</time>
      </trkpt>
      <trkpt lat="45.97107" lon="4.56934">
        <ele>542</ele>
        <time>2018-08-05T06:18:39.000Z</time>
      </trkpt>
      <trkpt lat="45.97105" lon="4.56927">
        <ele>542</ele>
        <time>2018-08-05T06:18:40.000Z</time>
      </trkpt>
      <trkpt lat="45.97103" lon="4.5692">
        <ele>542</ele>
        <time>2018-08-05T06:18:41.000Z</time>
      </trkpt>
      <trkpt lat="45.97101" lon="4.56913">
        <ele>545</ele>
        <time>2018-08-05T06:18:42.000Z</time>
      </trkpt>
      <trkpt lat="45.97099" lon="4.56906">
        <ele>545</ele>
        <time>2018-08-05T06:18:43.000Z</time>
      </trkpt>
      <trkpt lat="45.97097" lon="4.56899">
        <ele>546</ele>
        <time>2018-08-05T06:18:44.000Z</time>
      </trkpt>
      <trkpt lat="45.97095" lon="4.56893">
        <ele>546</ele>
        <time>2018-08-05T06:18:45.000Z</time>
      </trkpt>
      <trkpt lat="45.97093" lon="4.56886">
        <ele>547</ele>
        <time>2018-08-05T06:18:46.000Z</time>
      </trkpt>
      <trkpt lat="45.97092" lon="4.56879">
        <ele>547</ele>
        <time>2018-08-05T06:18:47.000Z</time>
      </trkpt>
      <trkpt lat="45.9709" lon="4.56872">
        <ele>547</ele>
        <time>2018-08-05T06:18:48.000Z</time>
      </trkpt>
      <trkpt lat="45.97088" lon="4.56866">
        <ele>547</ele>
        <time>2018-08-05T06:18:49.000Z</time>
      </trkpt>
      <trkpt lat="45.97086" lon="4.56859">
        <ele>547</ele>
        <time>2018-08-05T06:18:50.000Z</time>
      </trkpt>
      <trkpt lat="45.97085" lon="4.56853">
        <ele>547</ele>
        <time>2018-08-05T06:18:51.000Z</time>
      </trkpt>
      <trkpt lat="45.97083" lon="4.56847">
        <ele>543</ele>
        <time>2018-08-05T06:18:52.000Z</time>
      </trkpt>
      <trkpt lat="45.97081" lon="4.5684">
        <ele>544</ele>
        <time>2018-08-05T06:18:53.000Z</time>
      </trkpt>
      <trkpt lat="45.97079" lon="4.56834">
        <ele>545</ele>
        <time>2018-08-05T06:18:54.000Z</time>
      </trkpt>
      <trkpt lat="45.97078" lon="4.56827">
        <ele>545</ele>
        <time>2018-08-05T06:18:55.000Z</time>
      </trkpt>
      <trkpt lat="45.97076" lon="4.5682">
        <ele>545</ele>
        <time>2018-08-05T06:18:56.000Z</time>
      </trkpt>
      <trkpt lat="45.97074" lon="4.56814">
        <ele>544</ele>
        <time>2018-08-05T06:18:57.000Z</time>
      </trkpt>
      <trkpt lat="45.97073" lon="4.56807">
        <ele>544</ele>
        <time>2018-08-05T06:18:58.000Z</time>
      </trkpt>
      <trkpt lat="45.97071" lon="4.56801">
        <ele>544</ele>
        <time>2018-08-05T06:18:59.000Z</time>
      </trkpt>
      <trkpt lat="45.9707" lon="4.56795">
        <ele>544</ele>
        <time>2018-08-05T06:19:00.000Z</time>
      </trkpt>
      <trkpt lat="45.97068" lon="4.56788">
        <ele>544</ele>
        <time>2018-08-05T06:19:01.000Z</time>
      </trkpt>
      <trkpt lat="45.97067" lon="4.56782">
        <ele>544</ele>
        <time>2018-08-05T06:19:02.000Z</time>
      </trkpt>
      <trkpt lat="45.97067" lon="4.56775">
        <ele>544</ele>
        <time>2018-08-05T06:19:03.000Z</time>
      </trkpt>
      <trkpt lat="45.97069" lon="4.56769">
        <ele>544</ele>
        <time>2018-08-05T06:19:04.000Z</time>
      </trkpt>
      <trkpt lat="45.97071" lon="4.56764">
        <ele>545</ele>
        <time>2018-08-05T06:19:05.000Z</time>
      </trkpt>
      <trkpt lat="45.97075" lon="4.56762">
        <ele>545</ele>
        <time>2018-08-05T06:19:06.000Z</time>
      </trkpt>
      <trkpt lat="45.97078" lon="4.56761">
        <ele>545</ele>
        <time>2018-08-05T06:19:07.000Z</time>
      </trkpt>
      <trkpt lat="45.97082" lon="4.56762">
        <ele>545</ele>
        <time>2018-08-05T06:19:08.000Z</time>
      </trkpt>
      <trkpt lat="45.97085" lon="4.56763">
        <ele>547</ele>
        <time>2018-08-05T06:19:09.000Z</time>
      </trkpt>
      <trkpt lat="45.97089" lon="4.56764">
        <ele>548</ele>
        <time>2018-08-05T06:19:10.000Z</time>
      </trkpt>
      <trkpt lat="45.97092" lon="4.56766">
        <ele>548</ele>
        <time>2018-08-05T06:19:11.000Z</time>
      </trkpt>
      <trkpt lat="45.97096" lon="4.56766">
        <ele>548</ele>
        <time>2018-08-05T06:19:12.000Z</time>
      </trkpt>
      <trkpt lat="45.97099" lon="4.56766">
        <ele>548</ele>
        <time>2018-08-05T06:19:13.000Z</time>
      </trkpt>
      <trkpt lat="45.97102" lon="4.56766">
        <ele>548</ele>
        <time>2018-08-05T06:19:14.000Z</time>
      </trkpt>
      <trkpt lat="45.97105" lon="4.56765">
        <ele>549</ele>
        <time>2018-08-05T06:19:15.000Z</time>
      </trkpt>
      <trkpt lat="45.97108" lon="4.56764">
        <ele>549</ele>
        <time>2018-08-05T06:19:16.000Z</time>
      </trkpt>
      <trkpt lat="45.97111" lon="4.56762">
        <ele>549</ele>
        <time>2018-08-05T06:19:17.000Z</time>
      </trkpt>
      <trkpt lat="45.97114" lon="4.5676">
        <ele>549</ele>
        <time>2018-08-05T06:19:18.000Z</time>
      </trkpt>
      <trkpt lat="45.97116" lon="4.56758">
        <ele>549</ele>
        <time>2018-08-05T06:19:19.000Z</time>
      </trkpt>
      <trkpt lat="45.97119" lon="4.56755">
        <ele>549</ele>
        <time>2018-08-05T06:19:20.000Z</time>
      </trkpt>
      <trkpt lat="45.97121" lon="4.56753">
        <ele>549</ele>
        <time>2018-08-05T06:19:21.000Z</time>
      </trkpt>
      <trkpt lat="45.97124" lon="4.5675">
        <ele>550</ele>
        <time>2018-08-05T06:19:22.000Z</time>
      </trkpt>
      <trkpt lat="45.97126" lon="4.56747">
        <ele>550</ele>
        <time>2018-08-05T06:19:23.000Z</time>
      </trkpt>
      <trkpt lat="45.97128" lon="4.56744">
        <ele>550</ele>
        <time>2018-08-05T06:19:24.000Z</time>
      </trkpt>
      <trkpt lat="45.9713" lon="4.56741">
        <ele>550</ele>
        <time>2018-08-05T06:19:25.000Z</time>
      </trkpt>
      <trkpt lat="45.97132" lon="4.56738">
        <ele>550</ele>
        <time>2018-08-05T06:19:26.000Z</time>
      </trkpt>
      <trkpt lat="45.97134" lon="4.56735">
        <ele>550</ele>
        <time>2018-08-05T06:19:27.000Z</time>
      </trkpt>
      <trkpt lat="45.97135" lon="4.56731">
        <ele>550</ele>
        <time>2018-08-05T06:19:28.000Z</time>
      </trkpt>
      <trkpt lat="45.97136" lon="4.56726">
        <ele>550</ele>
        <time>2018-08-05T06:19:29.000Z</time>
      </trkpt>
      <trkpt lat="45.97136" lon="4.56722">
        <ele>550</ele>
        <time>2018-08-05T06:19:30.000Z</time>
      </trkpt>
      <trkpt lat="45.97135" lon="4.56717">
        <ele>550</ele>
        <time>2018-08-05T06:19:31.000Z</time>
      </trkpt>
      <trkpt lat="45.97133" lon="4.56712">
        <ele>550</ele>
        <time>2018-08-05T06:19:32.000Z</time>
      </trkpt>
      <trkpt lat="45.97131" lon="4.56708">
        <ele>550</ele>
        <time>2018-08-05T06:19:33.000Z</time>
      </trkpt>
      <trkpt lat="45.97129" lon="4.56704">
        <ele>550</ele>
        <time>2018-08-05T06:19:34.000Z</time>
      </trkpt>
      <trkpt lat="45.97127" lon="4.56701">
        <ele>550</ele>
        <time>2018-08-05T06:19:35.000Z</time>
      </trkpt>
      <trkpt lat="45.97124" lon="4.56698">
        <ele>550</ele>
        <time>2018-08-05T06:19:36.000Z</time>
      </trkpt>
      <trkpt lat="45.97121" lon="4.56694">
        <ele>550</ele>
        <time>2018-08-05T06:19:37.000Z</time>
      </trkpt>
      <trkpt lat="45.97119" lon="4.56691">
        <ele>550</ele>
        <time>2018-08-05T06:19:38.000Z</time>
      </trkpt>
      <trkpt lat="45.97116" lon="4.56688">
        <ele>550</ele>
        <time>2018-08-05T06:19:39.000Z</time>
      </trkpt>
      <trkpt lat="45.97114" lon="4.56685">
        <ele>550</ele>
        <time>2018-08-05T06:19:40.000Z</time>
      </trkpt>
      <trkpt lat="45.97111" lon="4.56681">
        <ele>550</ele>
        <time>2018-08-05T06:19:41.000Z</time>
      </trkpt>
      <trkpt lat="45.97108" lon="4.56678">
        <ele>551</ele>
        <time>2018-08-05T06:19:42.000Z</time>
      </trkpt>
      <trkpt lat="45.97106" lon="4.56675">
        <ele>551</ele>
        <time>2018-08-05T06:19:43.000Z</time>
      </trkpt>
      <trkpt lat="45.97103" lon="4.56671">
        <ele>551</ele>
        <time>2018-08-05T06:19:44.000Z</time>
      </trkpt>
      <trkpt lat="45.97101" lon="4.56668">
        <ele>551</ele>
        <time>2018-08-05T06:19:45.000Z</time>
      </trkpt>
      <trkpt lat="45.97098" lon="4.56664">
        <ele>552</ele>
        <time>2018-08-05T06:19:46.000Z</time>
      </trkpt>
      <trkpt lat="45.97096" lon="4.56661">
        <ele>552</ele>
        <time>2018-08-05T06:19:47.000Z</time>
      </trkpt>
      <trkpt lat="45.97094" lon="4.56657">
        <ele>552</ele>
        <time>2018-08-05T06:19:48.000Z</time>
      </trkpt>
      <trkpt lat="45.97092" lon="4.56654">
        <ele>552</ele>
        <time>2018-08-05T06:19:49.000Z</time>
      </trkpt>
      <trkpt lat="45.9709" lon="4.5665">
        <ele>552</ele>
        <time>2018-08-05T06:19:50.000Z</time>
      </trkpt>
      <trkpt lat="45.97088" lon="4.56646">
        <ele>552</ele>
        <time>2018-08-05T06:19:51.000Z</time>
      </trkpt>
      <trkpt lat="45.97086" lon="4.56643">
        <ele>553</ele>
        <time>2018-08-05T06:19:52.000Z</time>
      </trkpt>
      <trkpt lat="45.97084" lon="4.56639">
        <ele>553</ele>
        <time>2018-08-05T06:19:53.000Z</time>
      </trkpt>
      <trkpt lat="45.97081" lon="4.56635">
        <ele>552</ele>
        <time>2018-08-05T06:19:54.000Z</time>
      </trkpt>
      <trkpt lat="45.97079" lon="4.56632">
        <ele>552</ele>
        <time>2018-08-05T06:19:55.000Z</time>
      </trkpt>
      <trkpt lat="45.97077" lon="4.56628">
        <ele>553</ele>
        <time>2018-08-05T06:19:56.000Z</time>
      </trkpt>
      <trkpt lat="45.97075" lon="4.56624">
        <ele>553</ele>
        <time>2018-08-05T06:19:57.000Z</time>
      </trkpt>
      <trkpt lat="45.97073" lon="4.5662">
        <ele>553</ele>
        <time>2018-08-05T06:19:58.000Z</time>
      </trkpt>
      <trkpt lat="45.97071" lon="4.56617">
        <ele>553</ele>
        <time>2018-08-05T06:19:59.000Z</time>
      </trkpt>
      <trkpt lat="45.97069" lon="4.56613">
        <ele>553</ele>
        <time>2018-08-05T06:20:00.000Z</time>
      </trkpt>
      <trkpt lat="45.97067" lon="4.5661">
        <ele>553</ele>
        <time>2018-08-05T06:20:01.000Z</time>
      </trkpt>
      <trkpt lat="45.97065" lon="4.56607">
        <ele>553</ele>
        <time>2018-08-05T06:20:02.000Z</time>
      </trkpt>
      <trkpt lat="45.97063" lon="4.56603">
        <ele>553</ele>
        <time>2018-08-05T06:20:03.000Z</time>
      </trkpt>
      <trkpt lat="45.97062" lon="4.566">
        <ele>553</ele>
        <time>2018-08-05T06:20:04.000Z</time>
      </trkpt>
      <trkpt lat="45.9706" lon="4.56597">
        <ele>554</ele>
        <time>2018-08-05T06:20:05.000Z</time>
      </trkpt>
      <trkpt lat="45.97058" lon="4.56593">
        <ele>554</ele>
        <time>2018-08-05T06:20:06.000Z</time>
      </trkpt>
      <trkpt lat="45.97055" lon="4.5659">
        <ele>554</ele>
        <time>2018-08-05T06:20:07.000Z</time>
      </trkpt>
      <trkpt lat="45.97053" lon="4.56586">
        <ele>553</ele>
        <time>2018-08-05T06:20:08.000Z</time>
      </trkpt>
      <trkpt lat="45.97051" lon="4.56583">
        <ele>555</ele>
        <time>2018-08-05T06:20:09.000Z</time>
      </trkpt>
      <trkpt lat="45.97049" lon="4.5658">
        <ele>555</ele>
        <time>2018-08-05T06:20:10.000Z</time>
      </trkpt>
      <trkpt lat="45.97047" lon="4.56577">
        <ele>555</ele>
        <time>2018-08-05T06:20:11.000Z</time>
      </trkpt>
      <trkpt lat="45.97045" lon="4.56574">
        <ele>555</ele>
        <time>2018-08-05T06:20:12.000Z</time>
      </trkpt>
      <trkpt lat="45.97043" lon="4.5657">
        <ele>555</ele>
        <time>2018-08-05T06:20:13.000Z</time>
      </trkpt>
      <trkpt lat="45.9704" lon="4.56567">
        <ele>555</ele>
        <time>2018-08-05T06:20:14.000Z</time>
      </trkpt>
      <trkpt lat="45.97038" lon="4.56565">
        <ele>555</ele>
        <time>2018-08-05T06:20:15.000Z</time>
      </trkpt>
      <trkpt lat="45.97036" lon="4.56562">
        <ele>555</ele>
        <time>2018-08-05T06:20:16.000Z</time>
      </trkpt>
      <trkpt lat="45.97034" lon="4.56559">
        <ele>555</ele>
        <time>2018-08-05T06:20:17.000Z</time>
      </trkpt>
      <trkpt lat="45.97031" lon="4.56556">
        <ele>555</ele>
        <time>2018-08-05T06:20:18.000Z</time>
      </trkpt>
      <trkpt lat="45.97029" lon="4.56553">
        <ele>555</ele>
        <time>2018-08-05T06:20:19.000Z</time>
      </trkpt>
      <trkpt lat="45.97027" lon="4.5655">
        <ele>555</ele>
        <time>2018-08-05T06:20:20.000Z</time>
      </trkpt>
      <trkpt lat="45.97024" lon="4.56547">
        <ele>555</ele>
        <time>2018-08-05T06:20:21.000Z</time>
      </trkpt>
      <trkpt lat="45.97022" lon="4.56544">
        <ele>555</ele>
        <time>2018-08-05T06:20:22.000Z</time>
      </trkpt>
      <trkpt lat="45.9702" lon="4.56541">
        <ele>555</ele>
        <time>2018-08-05T06:20:23.000Z</time>
      </trkpt>
      <trkpt lat="45.97018" lon="4.56538">
        <ele>555</ele>
        <time>2018-08-05T06:20:24.000Z</time>
      </trkpt>
      <trkpt lat="45.97016" lon="4.56535">
        <ele>555</ele>
        <time>2018-08-05T06:20:25.000Z</time>
      </trkpt>
      <trkpt lat="45.97014" lon="4.56532">
        <ele>555</ele>
        <time>2018-08-05T06:20:26.000Z</time>
      </trkpt>
      <trkpt lat="45.97012" lon="4.56529">
        <ele>555</ele>
        <time>2018-08-05T06:20:27.000Z</time>
      </trkpt>
      <trkpt lat="45.9701" lon="4.56525">
        <ele>555</ele>
        <time>2018-08-05T06:20:28.000Z</time>
      </trkpt>
      <trkpt lat="45.97008" lon="4.56522">
        <ele>555</ele>
        <time>2018-08-05T06:20:29.000Z</time>
      </trkpt>
      <trkpt lat="45.97006" lon="4.56518">
        <ele>555</ele>
        <time>2018-08-05T06:20:30.000Z</time>
      </trkpt>
      <trkpt lat="45.97004" lon="4.56514">
        <ele>555</ele>
        <time>2018-08-05T06:20:31.000Z</time>
      </trkpt>
      <trkpt lat="45.97002" lon="4.5651">
        <ele>555</ele>
        <time>2018-08-05T06:20:32.000Z</time>
      </trkpt>
      <trkpt lat="45.97001" lon="4.56506">
        <ele>555</ele>
        <time>2018-08-05T06:20:33.000Z</time>
      </trkpt>
      <trkpt lat="45.96999" lon="4.56502">
        <ele>555</ele>
        <time>2018-08-05T06:20:34.000Z</time>
      </trkpt>
      <trkpt lat="45.96998" lon="4.56498">
        <ele>555</ele>
        <time>2018-08-05T06:20:35.000Z</time>
      </trkpt>
      <trkpt lat="45.96998" lon="4.56493">
        <ele>555</ele>
        <time>2018-08-05T06:20:36.000Z</time>
      </trkpt>
      <trkpt lat="45.96998" lon="4.56488">
        <ele>554</ele>
        <time>2018-08-05T06:20:37.000Z</time>
      </trkpt>
      <trkpt lat="45.97" lon="4.56484">
        <ele>554</ele>
        <time>2018-08-05T06:20:38.000Z</time>
      </trkpt>
      <trkpt lat="45.97002" lon="4.5648">
        <ele>554</ele>
        <time>2018-08-05T06:20:39.000Z</time>
      </trkpt>
      <trkpt lat="45.97005" lon="4.56476">
        <ele>554</ele>
        <time>2018-08-05T06:20:40.000Z</time>
      </trkpt>
      <trkpt lat="45.97008" lon="4.56474">
        <ele>554</ele>
        <time>2018-08-05T06:20:41.000Z</time>
      </trkpt>
      <trkpt lat="45.97012" lon="4.56472">
        <ele>553</ele>
        <time>2018-08-05T06:20:42.000Z</time>
      </trkpt>
      <trkpt lat="45.97017" lon="4.5647">
        <ele>553</ele>
        <time>2018-08-05T06:20:43.000Z</time>
      </trkpt>
      <trkpt lat="45.97021" lon="4.56469">
        <ele>553</ele>
        <time>2018-08-05T06:20:44.000Z</time>
      </trkpt>
      <trkpt lat="45.97026" lon="4.56468">
        <ele>553</ele>
        <time>2018-08-05T06:20:45.000Z</time>
      </trkpt>
      <trkpt lat="45.9703" lon="4.56467">
        <ele>553</ele>
        <time>2018-08-05T06:20:46.000Z</time>
      </trkpt>
      <trkpt lat="45.97035" lon="4.56467">
        <ele>553</ele>
        <time>2018-08-05T06:20:47.000Z</time>
      </trkpt>
      <trkpt lat="45.9704" lon="4.56467">
        <ele>554</ele>
        <time>2018-08-05T06:20:48.000Z</time>
      </trkpt>
      <trkpt lat="45.97045" lon="4.56467">
        <ele>554</ele>
        <time>2018-08-05T06:20:49.000Z</time>
      </trkpt>
      <trkpt lat="45.97051" lon="4.56467">
        <ele>554</ele>
        <time>2018-08-05T06:20:50.000Z</time>
      </trkpt>
      <trkpt lat="45.97056" lon="4.56468">
        <ele>554</ele>
        <time>2018-08-05T06:20:51.000Z</time>
      </trkpt>
      <trkpt lat="45.97061" lon="4.56468">
        <ele>554</ele>
        <time>2018-08-05T06:20:52.000Z</time>
      </trkpt>
      <trkpt lat="45.97066" lon="4.56468">
        <ele>554</ele>
        <time>2018-08-05T06:20:53.000Z</time>
      </trkpt>
      <trkpt lat="45.97071" lon="4.56467">
        <ele>554</ele>
        <time>2018-08-05T06:20:54.000Z</time>
      </trkpt>
      <trkpt lat="45.97076" lon="4.56467">
        <ele>554</ele>
        <time>2018-08-05T06:20:55.000Z</time>
      </trkpt>
      <trkpt lat="45.97081" lon="4.56467">
        <ele>554</ele>
        <time>2018-08-05T06:20:56.000Z</time>
      </trkpt>
      <trkpt lat="45.97085" lon="4.56466">
        <ele>556</ele>
        <time>2018-08-05T06:20:57.000Z</time>
      </trkpt>
      <trkpt lat="45.9709" lon="4.56465">
        <ele>556</ele>
        <time>2018-08-05T06:20:58.000Z</time>
      </trkpt>
      <trkpt lat="45.97095" lon="4.56465">
        <ele>556</ele>
        <time>2018-08-05T06:20:59.000Z</time>
      </trkpt>
      <trkpt lat="45.97099" lon="4.56464">
        <ele>556</ele>
        <time>2018-08-05T06:21:00.000Z</time>
      </trkpt>
      <trkpt lat="45.97104" lon="4.56463">
        <ele>556</ele>
        <time>2018-08-05T06:21:01.000Z</time>
      </trkpt>
      <trkpt lat="45.97109" lon="4.56462">
        <ele>556</ele>
        <time>2018-08-05T06:21:02.000Z</time>
      </trkpt>
      <trkpt lat="45.97113" lon="4.56461">
        <ele>556</ele>
        <time>2018-08-05T06:21:03.000Z</time>
      </trkpt>
      <trkpt lat="45.97118" lon="4.5646">
        <ele>556</ele>
        <time>2018-08-05T06:21:04.000Z</time>
      </trkpt>
      <trkpt lat="45.97123" lon="4.56459">
        <ele>556</ele>
        <time>2018-08-05T06:21:05.000Z</time>
      </trkpt>
      <trkpt lat="45.97127" lon="4.56458">
        <ele>556</ele>
        <time>2018-08-05T06:21:06.000Z</time>
      </trkpt>
      <trkpt lat="45.97132" lon="4.56457">
        <ele>556</ele>
        <time>2018-08-05T06:21:07.000Z</time>
      </trkpt>
      <trkpt lat="45.97136" lon="4.56456">
        <ele>556</ele>
        <time>2018-08-05T06:21:08.000Z</time>
      </trkpt>
      <trkpt lat="45.9714" lon="4.56455">
        <ele>556</ele>
        <time>2018-08-05T06:21:09.000Z</time>
      </trkpt>
      <trkpt lat="45.97145" lon="4.56454">
        <ele>556</ele>
        <time>2018-08-05T06:21:10.000Z</time>
      </trkpt>
      <trkpt lat="45.97149" lon="4.56453">
        <ele>556</ele>
        <time>2018-08-05T06:21:11.000Z</time>
      </trkpt>
      <trkpt lat="45.97153" lon="4.56452">
        <ele>556</ele>
        <time>2018-08-05T06:21:12.000Z</time>
      </trkpt>
      <trkpt lat="45.97157" lon="4.56451">
        <ele>556</ele>
        <time>2018-08-05T06:21:13.000Z</time>
      </trkpt>
      <trkpt lat="45.97161" lon="4.56449">
        <ele>556</ele>
        <time>2018-08-05T06:21:14.000Z</time>
      </trkpt>
      <trkpt lat="45.97165" lon="4.56448">
        <ele>556</ele>
        <time>2018-08-05T06:21:15.000Z</time>
      </trkpt>
      <trkpt lat="45.97169" lon="4.56446">
        <ele>559</ele>
        <time>2018-08-05T06:21:16.000Z</time>
      </trkpt>
      <trkpt lat="45.97173" lon="4.56445">
        <ele>559</ele>
        <time>2018-08-05T06:21:17.000Z</time>
      </trkpt>
      <trkpt lat="45.97177" lon="4.56443">
        <ele>559</ele>
        <time>2018-08-05T06:21:18.000Z</time>
      </trkpt>
      <trkpt lat="45.97181" lon="4.56442">
        <ele>559</ele>
        <time>2018-08-05T06:21:19.000Z</time>
      </trkpt>
      <trkpt lat="45.97184" lon="4.5644">
        <ele>559</ele>
        <time>2018-08-05T06:21:20.000Z</time>
      </trkpt>
      <trkpt lat="45.97188" lon="4.56439">
        <ele>559</ele>
        <time>2018-08-05T06:21:21.000Z</time>
      </trkpt>
      <trkpt lat="45.97191" lon="4.56437">
        <ele>559</ele>
        <time>2018-08-05T06:21:22.000Z</time>
      </trkpt>
      <trkpt lat="45.97194" lon="4.56435">
        <ele>560</ele>
        <time>2018-08-05T06:21:23.000Z</time>
      </trkpt>
      <trkpt lat="45.97197" lon="4.56434">
        <ele>560</ele>
        <time>2018-08-05T06:21:24.000Z</time>
      </trkpt>
      <trkpt lat="45.972" lon="4.56433">
        <ele>560</ele>
        <time>2018-08-05T06:21:25.000Z</time>
      </trkpt>
      <trkpt lat="45.97204" lon="4.56432">
        <ele>560</ele>
        <time>2018-08-05T06:21:26.000Z</time>
      </trkpt>
      <trkpt lat="45.97207" lon="4.56431">
        <ele>560</ele>
        <time>2018-08-05T06:21:27.000Z</time>
      </trkpt>
      <trkpt lat="45.9721" lon="4.56429">
        <ele>560</ele>
        <time>2018-08-05T06:21:28.000Z</time>
      </trkpt>
      <trkpt lat="45.97213" lon="4.56427">
        <ele>560</ele>
        <time>2018-08-05T06:21:29.000Z</time>
      </trkpt>
      <trkpt lat="45.97216" lon="4.56426">
        <ele>561</ele>
        <time>2018-08-05T06:21:30.000Z</time>
      </trkpt>
      <trkpt lat="45.97219" lon="4.56425">
        <ele>561</ele>
        <time>2018-08-05T06:21:31.000Z</time>
      </trkpt>
      <trkpt lat="45.97222" lon="4.56424">
        <ele>561</ele>
        <time>2018-08-05T06:21:32.000Z</time>
      </trkpt>
      <trkpt lat="45.97225" lon="4.56423">
        <ele>561</ele>
        <time>2018-08-05T06:21:33.000Z</time>
      </trkpt>
      <trkpt lat="45.97228" lon="4.56422">
        <ele>561</ele>
        <time>2018-08-05T06:21:34.000Z</time>
      </trkpt>
      <trkpt lat="45.97231" lon="4.56421">
        <ele>561</ele>
        <time>2018-08-05T06:21:35.000Z</time>
      </trkpt>
      <trkpt lat="45.97234" lon="4.5642">
        <ele>562</ele>
        <time>2018-08-05T06:21:36.000Z</time>
      </trkpt>
      <trkpt lat="45.97237" lon="4.56418">
        <ele>562</ele>
        <time>2018-08-05T06:21:37.000Z</time>
      </trkpt>
      <trkpt lat="45.9724" lon="4.56417">
        <ele>562</ele>
        <time>2018-08-05T06:21:38.000Z</time>
      </trkpt>
      <trkpt lat="45.97243" lon="4.56416">
        <ele>561</ele>
        <time>2018-08-05T06:21:39.000Z</time>
      </trkpt>
      <trkpt lat="45.97245" lon="4.56415">
        <ele>561</ele>
        <time>2018-08-05T06:21:40.000Z</time>
      </trkpt>
      <trkpt lat="45.97248" lon="4.56413">
        <ele>562</ele>
        <time>2018-08-05T06:21:41.000Z</time>
      </trkpt>
      <trkpt lat="45.97251" lon="4.56412">
        <ele>563</ele>
        <time>2018-08-05T06:21:42.000Z</time>
      </trkpt>
      <trkpt lat="45.97254" lon="4.56411">
        <ele>563</ele>
        <time>2018-08-05T06:21:43.000Z</time>
      </trkpt>
      <trkpt lat="45.97256" lon="4.56409">
        <ele>563</ele>
        <time>2018-08-05T06:21:44.000Z</time>
      </trkpt>
      <trkpt lat="45.97259" lon="4.56408">
        <ele>563</ele>
        <time>2018-08-05T06:21:45.000Z</time>
      </trkpt>
      <trkpt lat="45.97262" lon="4.56406">
        <ele>563</ele>
        <time>2018-08-05T06:21:46.000Z</time>
      </trkpt>
      <trkpt lat="45.97264" lon="4.56405">
        <ele>563</ele>
        <time>2018-08-05T06:21:47.000Z</time>
      </trkpt>
      <trkpt lat="45.97267" lon="4.56404">
        <ele>564</ele>
        <time>2018-08-05T06:21:48.000Z</time>
      </trkpt>
      <trkpt lat="45.97269" lon="4.56402">
        <ele>564</ele>
        <time>2018-08-05T06:21:49.000Z</time>
      </trkpt>
      <trkpt lat="45.97272" lon="4.56401">
        <ele>564</ele>
        <time>2018-08-05T06:21:50.000Z</time>
      </trkpt>
      <trkpt lat="45.97274" lon="4.56399">
        <ele>564</ele>
        <time>2018-08-05T06:21:51.000Z</time>
      </trkpt>
      <trkpt lat="45.97277" lon="4.56398">
        <ele>564</ele>
        <time>2018-08-05T06:21:52.000Z</time>
      </trkpt>
      <trkpt lat="45.97279" lon="4.56396">
        <ele>564</ele>
        <time>2018-08-05T06:21:53.000Z</time>
      </trkpt>
      <trkpt lat="45.97282" lon="4.56395">
        <ele>564</ele>
        <time>2018-08-05T06:21:54.000Z</time>
      </trkpt>
      <trkpt lat="45.97284" lon="4.56393">
        <ele>564</ele>
        <time>2018-08-05T06:21:55.000Z</time>
      </trkpt>
      <trkpt lat="45.97287" lon="4.56391">
        <ele>564</ele>
        <time>2018-08-05T06:21:56.000Z</time>
      </trkpt>
      <trkpt lat="45.9729" lon="4.5639">
        <ele>564</ele>
        <time>2018-08-05T06:21:57.000Z</time>
      </trkpt>
      <trkpt lat="45.97292" lon="4.56388">
        <ele>565</ele>
        <time>2018-08-05T06:21:58.000Z</time>
      </trkpt>
      <trkpt lat="45.97295" lon="4.56386">
        <ele>565</ele>
        <time>2018-08-05T06:21:59.000Z</time>
      </trkpt>
      <trkpt lat="45.97298" lon="4.56385">
        <ele>565</ele>
        <time>2018-08-05T06:22:00.000Z</time>
      </trkpt>
      <trkpt lat="45.97301" lon="4.56383">
        <ele>565</ele>
        <time>2018-08-05T06:22:01.000Z</time>
      </trkpt>
      <trkpt lat="45.97304" lon="4.56382">
        <ele>565</ele>
        <time>2018-08-05T06:22:02.000Z</time>
      </trkpt>
      <trkpt lat="45.97306" lon="4.5638">
        <ele>565</ele>
        <time>2018-08-05T06:22:03.000Z</time>
      </trkpt>
      <trkpt lat="45.97309" lon="4.56379">
        <ele>565</ele>
        <time>2018-08-05T06:22:04.000Z</time>
      </trkpt>
      <trkpt lat="45.97312" lon="4.56377">
        <ele>565</ele>
        <time>2018-08-05T06:22:05.000Z</time>
      </trkpt>
      <trkpt lat="45.97314" lon="4.56376">
        <ele>565</ele>
        <time>2018-08-05T06:22:06.000Z</time>
      </trkpt>
      <trkpt lat="45.97317" lon="4.56374">
        <ele>565</ele>
        <time>2018-08-05T06:22:07.000Z</time>
      </trkpt>
      <trkpt lat="45.9732" lon="4.56373">
        <ele>566</ele>
        <time>2018-08-05T06:22:08.000Z</time>
      </trkpt>
      <trkpt lat="45.97322" lon="4.56372">
        <ele>566</ele>
        <time>2018-08-05T06:22:09.000Z</time>
      </trkpt>
      <trkpt lat="45.97325" lon="4.56371">
        <ele>566</ele>
        <time>2018-08-05T06:22:10.000Z</time>
      </trkpt>
      <trkpt lat="45.97327" lon="4.56369">
        <ele>566</ele>
        <time>2018-08-05T06:22:11.000Z</time>
      </trkpt>
      <trkpt lat="45.9733" lon="4.56368">
        <ele>566</ele>
        <time>2018-08-05T06:22:12.000Z</time>
      </trkpt>
      <trkpt lat="45.97333" lon="4.56367">
        <ele>566</ele>
        <time>2018-08-05T06:22:13.000Z</time>
      </trkpt>
      <trkpt lat="45.97335" lon="4.56365">
        <ele>571</ele>
        <time>2018-08-05T06:22:14.000Z</time>
      </trkpt>
      <trkpt lat="45.97338" lon="4.56364">
        <ele>571</ele>
        <time>2018-08-05T06:22:15.000Z</time>
      </trkpt>
      <trkpt lat="45.9734" lon="4.56362">
        <ele>571</ele>
        <time>2018-08-05T06:22:16.000Z</time>
      </trkpt>
      <trkpt lat="45.97343" lon="4.56361">
        <ele>571</ele>
        <time>2018-08-05T06:22:17.000Z</time>
      </trkpt>
      <trkpt lat="45.97346" lon="4.5636">
        <ele>571</ele>
        <time>2018-08-05T06:22:18.000Z</time>
      </trkpt>
      <trkpt lat="45.97348" lon="4.56359">
        <ele>571</ele>
        <time>2018-08-05T06:22:19.000Z</time>
      </trkpt>
      <trkpt lat="45.97351" lon="4.56357">
        <ele>571</ele>
        <time>2018-08-05T06:22:20.000Z</time>
      </trkpt>
      <trkpt lat="45.97353" lon="4.56356">
        <ele>571</ele>
        <time>2018-08-05T06:22:21.000Z</time>
      </trkpt>
      <trkpt lat="45.97356" lon="4.56355">
        <ele>571</ele>
        <time>2018-08-05T06:22:22.000Z</time>
      </trkpt>
      <trkpt lat="45.97358" lon="4.56355">
        <ele>571</ele>
        <time>2018-08-05T06:22:23.000Z</time>
      </trkpt>
      <trkpt lat="45.97361" lon="4.56354">
        <ele>572</ele>
        <time>2018-08-05T06:22:24.000Z</time>
      </trkpt>
      <trkpt lat="45.97363" lon="4.56353">
        <ele>572</ele>
        <time>2018-08-05T06:22:25.000Z</time>
      </trkpt>
      <trkpt lat="45.97366" lon="4.56352">
        <ele>572</ele>
        <time>2018-08-05T06:22:26.000Z</time>
      </trkpt>
      <trkpt lat="45.97369" lon="4.56351">
        <ele>572</ele>
        <time>2018-08-05T06:22:27.000Z</time>
      </trkpt>
      <trkpt lat="45.97371" lon="4.56351">
        <ele>572</ele>
        <time>2018-08-05T06:22:28.000Z</time>
      </trkpt>
      <trkpt lat="45.97374" lon="4.5635">
        <ele>572</ele>
        <time>2018-08-05T06:22:29.000Z</time>
      </trkpt>
      <trkpt lat="45.97377" lon="4.56349">
        <ele>572</ele>
        <time>2018-08-05T06:22:30.000Z</time>
      </trkpt>
      <trkpt lat="45.9738" lon="4.56349">
        <ele>573</ele>
        <time>2018-08-05T06:22:31.000Z</time>
      </trkpt>
      <trkpt lat="45.97382" lon="4.56348">
        <ele>573</ele>
        <time>2018-08-05T06:22:32.000Z</time>
      </trkpt>
      <trkpt lat="45.97385" lon="4.56347">
        <ele>573</ele>
        <time>2018-08-05T06:22:33.000Z</time>
      </trkpt>
      <trkpt lat="45.97388" lon="4.56346">
        <ele>573</ele>
        <time>2018-08-05T06:22:34.000Z</time>
      </trkpt>
      <trkpt lat="45.97391" lon="4.56346">
        <ele>573</ele>
        <time>2018-08-05T06:22:35.000Z</time>
      </trkpt>
      <trkpt lat="45.97394" lon="4.56345">
        <ele>573</ele>
        <time>2018-08-05T06:22:36.000Z</time>
      </trkpt>
      <trkpt lat="45.97396" lon="4.56344">
        <ele>573</ele>
        <time>2018-08-05T06:22:37.000Z</time>
      </trkpt>
      <trkpt lat="45.97399" lon="4.56344">
        <ele>573</ele>
        <time>2018-08-05T06:22:38.000Z</time>
      </trkpt>
      <trkpt lat="45.97402" lon="4.56343">
        <ele>573</ele>
        <time>2018-08-05T06:22:39.000Z</time>
      </trkpt>
      <trkpt lat="45.97404" lon="4.56343">
        <ele>574</ele>
        <time>2018-08-05T06:22:40.000Z</time>
      </trkpt>
      <trkpt lat="45.97407" lon="4.56343">
        <ele>574</ele>
        <time>2018-08-05T06:22:41.000Z</time>
      </trkpt>
      <trkpt lat="45.9741" lon="4.56343">
        <ele>574</ele>
        <time>2018-08-05T06:22:42.000Z</time>
      </trkpt>
      <trkpt lat="45.97413" lon="4.56342">
        <ele>574</ele>
        <time>2018-08-05T06:22:43.000Z</time>
      </trkpt>
      <trkpt lat="45.97415" lon="4.56342">
        <ele>574</ele>
        <time>2018-08-05T06:22:44.000Z</time>
      </trkpt>
      <trkpt lat="45.97418" lon="4.56342">
        <ele>576</ele>
        <time>2018-08-05T06:22:45.000Z</time>
      </trkpt>
      <trkpt lat="45.9742" lon="4.56341">
        <ele>576</ele>
        <time>2018-08-05T06:22:46.000Z</time>
      </trkpt>
      <trkpt lat="45.97423" lon="4.56341">
        <ele>576</ele>
        <time>2018-08-05T06:22:47.000Z</time>
      </trkpt>
      <trkpt lat="45.97425" lon="4.56341">
        <ele>576</ele>
        <time>2018-08-05T06:22:48.000Z</time>
      </trkpt>
      <trkpt lat="45.97428" lon="4.56341">
        <ele>576</ele>
        <time>2018-08-05T06:22:49.000Z</time>
      </trkpt>
      <trkpt lat="45.9743" lon="4.56342">
        <ele>577</ele>
        <time>2018-08-05T06:22:50.000Z</time>
      </trkpt>
      <trkpt lat="45.97433" lon="4.56342">
        <ele>577</ele>
        <time>2018-08-05T06:22:51.000Z</time>
      </trkpt>
      <trkpt lat="45.97436" lon="4.56342">
        <ele>577</ele>
        <time>2018-08-05T06:22:52.000Z</time>
      </trkpt>
      <trkpt lat="45.97439" lon="4.56342">
        <ele>578</ele>
        <time>2018-08-05T06:22:53.000Z</time>
      </trkpt>
      <trkpt lat="45.97442" lon="4.56342">
        <ele>578</ele>
        <time>2018-08-05T06:22:54.000Z</time>
      </trkpt>
      <trkpt lat="45.97445" lon="4.56342">
        <ele>578</ele>
        <time>2018-08-05T06:22:55.000Z</time>
      </trkpt>
      <trkpt lat="45.97448" lon="4.56343">
        <ele>578</ele>
        <time>2018-08-05T06:22:56.000Z</time>
      </trkpt>
      <trkpt lat="45.97451" lon="4.56343">
        <ele>579</ele>
        <time>2018-08-05T06:22:57.000Z</time>
      </trkpt>
      <trkpt lat="45.97454" lon="4.56343">
        <ele>579</ele>
        <time>2018-08-05T06:22:58.000Z</time>
      </trkpt>
      <trkpt lat="45.97457" lon="4.56343">
        <ele>579</ele>
        <time>2018-08-05T06:22:59.000Z</time>
      </trkpt>
      <trkpt lat="45.9746" lon="4.56344">
        <ele>579</ele>
        <time>2018-08-05T06:23:00.000Z</time>
      </trkpt>
      <trkpt lat="45.97463" lon="4.56344">
        <ele>579</ele>
        <time>2018-08-05T06:23:01.000Z</time>
      </trkpt>
      <trkpt lat="45.97465" lon="4.56345">
        <ele>580</ele>
        <time>2018-08-05T06:23:02.000Z</time>
      </trkpt>
      <trkpt lat="45.97468" lon="4.56345">
        <ele>580</ele>
        <time>2018-08-05T06:23:03.000Z</time>
      </trkpt>
      <trkpt lat="45.9747" lon="4.56346">
        <ele>580</ele>
        <time>2018-08-05T06:23:04.000Z</time>
      </trkpt>
      <trkpt lat="45.97473" lon="4.56346">
        <ele>580</ele>
        <time>2018-08-05T06:23:05.000Z</time>
      </trkpt>
      <trkpt lat="45.97475" lon="4.56346">
        <ele>580</ele>
        <time>2018-08-05T06:23:06.000Z</time>
      </trkpt>
      <trkpt lat="45.97478" lon="4.56347">
        <ele>580</ele>
        <time>2018-08-05T06:23:07.000Z</time>
      </trkpt>
      <trkpt lat="45.9748" lon="4.56347">
        <ele>580</ele>
        <time>2018-08-05T06:23:08.000Z</time>
      </trkpt>
      <trkpt lat="45.97483" lon="4.56348">
        <ele>580</ele>
        <time>2018-08-05T06:23:09.000Z</time>
      </trkpt>
      <trkpt lat="45.97485" lon="4.56348">
        <ele>580</ele>
        <time>2018-08-05T06:23:10.000Z</time>
      </trkpt>
      <trkpt lat="45.97488" lon="4.56348">
        <ele>581</ele>
        <time>2018-08-05T06:23:11.000Z</time>
      </trkpt>
      <trkpt lat="45.9749" lon="4.56348">
        <ele>581</ele>
        <time>2018-08-05T06:23:12.000Z</time>
      </trkpt>
      <trkpt lat="45.97493" lon="4.56348">
        <ele>581</ele>
        <time>2018-08-05T06:23:13.000Z</time>
      </trkpt>
      <trkpt lat="45.97495" lon="4.56348">
        <ele>581</ele>
        <time>2018-08-05T06:23:14.000Z</time>
      </trkpt>
      <trkpt lat="45.97498" lon="4.56347">
        <ele>581</ele>
        <time>2018-08-05T06:23:15.000Z</time>
      </trkpt>
      <trkpt lat="45.975" lon="4.56347">
        <ele>581</ele>
        <time>2018-08-05T06:23:16.000Z</time>
      </trkpt>
      <trkpt lat="45.97502" lon="4.56347">
        <ele>584</ele>
        <time>2018-08-05T06:23:17.000Z</time>
      </trkpt>
      <trkpt lat="45.97504" lon="4.56347">
        <ele>584</ele>
        <time>2018-08-05T06:23:18.000Z</time>
      </trkpt>
      <trkpt lat="45.97507" lon="4.56347">
        <ele>584</ele>
        <time>2018-08-05T06:23:19.000Z</time>
      </trkpt>
      <trkpt lat="45.97509" lon="4.56346">
        <ele>584</ele>
        <time>2018-08-05T06:23:20.000Z</time>
      </trkpt>
      <trkpt lat="45.97512" lon="4.56346">
        <ele>584</ele>
        <time>2018-08-05T06:23:21.000Z</time>
      </trkpt>
      <trkpt lat="45.97514" lon="4.56345">
        <ele>584</ele>
        <time>2018-08-05T06:23:22.000Z</time>
      </trkpt>
      <trkpt lat="45.97517" lon="4.56345">
        <ele>584</ele>
        <time>2018-08-05T06:23:23.000Z</time>
      </trkpt>
      <trkpt lat="45.97519" lon="4.56344">
        <ele>585</ele>
        <time>2018-08-05T06:23:24.000Z</time>
      </trkpt>
      <trkpt lat="45.97521" lon="4.56343">
        <ele>585</ele>
        <time>2018-08-05T06:23:25.000Z</time>
      </trkpt>
      <trkpt lat="45.97523" lon="4.56343">
        <ele>585</ele>
        <time>2018-08-05T06:23:26.000Z</time>
      </trkpt>
      <trkpt lat="45.97526" lon="4.56342">
        <ele>585</ele>
        <time>2018-08-05T06:23:27.000Z</time>
      </trkpt>
      <trkpt lat="45.97528" lon="4.56341">
        <ele>585</ele>
        <time>2018-08-05T06:23:28.000Z</time>
      </trkpt>
      <trkpt lat="45.9753" lon="4.5634">
        <ele>585</ele>
        <time>2018-08-05T06:23:29.000Z</time>
      </trkpt>
      <trkpt lat="45.97532" lon="4.5634">
        <ele>586</ele>
        <time>2018-08-05T06:23:30.000Z</time>
      </trkpt>
      <trkpt lat="45.97534" lon="4.56339">
        <ele>586</ele>
        <time>2018-08-05T06:23:31.000Z</time>
      </trkpt>
      <trkpt lat="45.97537" lon="4.56339">
        <ele>586</ele>
        <time>2018-08-05T06:23:32.000Z</time>
      </trkpt>
      <trkpt lat="45.97539" lon="4.56338">
        <ele>586</ele>
        <time>2018-08-05T06:23:33.000Z</time>
      </trkpt>
      <trkpt lat="45.97541" lon="4.56338">
        <ele>586</ele>
        <time>2018-08-05T06:23:34.000Z</time>
      </trkpt>
      <trkpt lat="45.97543" lon="4.56337">
        <ele>586</ele>
        <time>2018-08-05T06:23:35.000Z</time>
      </trkpt>
      <trkpt lat="45.97546" lon="4.56337">
        <ele>586</ele>
        <time>2018-08-05T06:23:36.000Z</time>
      </trkpt>
      <trkpt lat="45.97548" lon="4.56336">
        <ele>587</ele>
        <time>2018-08-05T06:23:37.000Z</time>
      </trkpt>
      <trkpt lat="45.97551" lon="4.56336">
        <ele>587</ele>
        <time>2018-08-05T06:23:38.000Z</time>
      </trkpt>
      <trkpt lat="45.97553" lon="4.56336">
        <ele>587</ele>
        <time>2018-08-05T06:23:39.000Z</time>
      </trkpt>
      <trkpt lat="45.97555" lon="4.56335">
        <ele>587</ele>
        <time>2018-08-05T06:23:40.000Z</time>
      </trkpt>
      <trkpt lat="45.97558" lon="4.56335">
        <ele>587</ele>
        <time>2018-08-05T06:23:41.000Z</time>
      </trkpt>
      <trkpt lat="45.9756" lon="4.56334">
        <ele>587</ele>
        <time>2018-08-05T06:23:42.000Z</time>
      </trkpt>
      <trkpt lat="45.97562" lon="4.56333">
        <ele>587</ele>
        <time>2018-08-05T06:23:43.000Z</time>
      </trkpt>
      <trkpt lat="45.97565" lon="4.56333">
        <ele>582</ele>
        <time>2018-08-05T06:23:44.000Z</time>
      </trkpt>
      <trkpt lat="45.97568" lon="4.56333">
        <ele>583</ele>
        <time>2018-08-05T06:23:45.000Z</time>
      </trkpt>
      <trkpt lat="45.9757" lon="4.56332">
        <ele>583</ele>
        <time>2018-08-05T06:23:46.000Z</time>
      </trkpt>
      <trkpt lat="45.97573" lon="4.56332">
        <ele>584</ele>
        <time>2018-08-05T06:23:47.000Z</time>
      </trkpt>
      <trkpt lat="45.97575" lon="4.56332">
        <ele>585</ele>
        <time>2018-08-05T06:23:48.000Z</time>
      </trkpt>
      <trkpt lat="45.97578" lon="4.56332">
        <ele>586</ele>
        <time>2018-08-05T06:23:49.000Z</time>
      </trkpt>
      <trkpt lat="45.9758" lon="4.56332">
        <ele>586</ele>
        <time>2018-08-05T06:23:50.000Z</time>
      </trkpt>
      <trkpt lat="45.97583" lon="4.56332">
        <ele>587</ele>
        <time>2018-08-05T06:23:51.000Z</time>
      </trkpt>
      <trkpt lat="45.97585" lon="4.56332">
        <ele>587</ele>
        <time>2018-08-05T06:23:52.000Z</time>
      </trkpt>
      <trkpt lat="45.97588" lon="4.56332">
        <ele>587</ele>
        <time>2018-08-05T06:23:53.000Z</time>
      </trkpt>
      <trkpt lat="45.97591" lon="4.56332">
        <ele>586</ele>
        <time>2018-08-05T06:23:54.000Z</time>
      </trkpt>
      <trkpt lat="45.97594" lon="4.56332">
        <ele>585</ele>
        <time>2018-08-05T06:23:55.000Z</time>
      </trkpt>
      <trkpt lat="45.97598" lon="4.56331">
        <ele>585</ele>
        <time>2018-08-05T06:23:56.000Z</time>
      </trkpt>
      <trkpt lat="45.97601" lon="4.56331">
        <ele>584</ele>
        <time>2018-08-05T06:23:57.000Z</time>
      </trkpt>
      <trkpt lat="45.97604" lon="4.5633">
        <ele>584</ele>
        <time>2018-08-05T06:23:58.000Z</time>
      </trkpt>
      <trkpt lat="45.97607" lon="4.5633">
        <ele>584</ele>
        <time>2018-08-05T06:23:59.000Z</time>
      </trkpt>
      <trkpt lat="45.9761" lon="4.5633">
        <ele>584</ele>
        <time>2018-08-05T06:24:00.000Z</time>
      </trkpt>
      <trkpt lat="45.97613" lon="4.56329">
        <ele>583</ele>
        <time>2018-08-05T06:24:01.000Z</time>
      </trkpt>
      <trkpt lat="45.97616" lon="4.56329">
        <ele>583</ele>
        <time>2018-08-05T06:24:02.000Z</time>
      </trkpt>
      <trkpt lat="45.97618" lon="4.56329">
        <ele>583</ele>
        <time>2018-08-05T06:24:03.000Z</time>
      </trkpt>
      <trkpt lat="45.97621" lon="4.56329">
        <ele>583</ele>
        <time>2018-08-05T06:24:04.000Z</time>
      </trkpt>
      <trkpt lat="45.97624" lon="4.56329">
        <ele>583</ele>
        <time>2018-08-05T06:24:05.000Z</time>
      </trkpt>
      <trkpt lat="45.97626" lon="4.56329">
        <ele>583</ele>
        <time>2018-08-05T06:24:06.000Z</time>
      </trkpt>
      <trkpt lat="45.97629" lon="4.56329">
        <ele>583</ele>
        <time>2018-08-05T06:24:07.000Z</time>
      </trkpt>
      <trkpt lat="45.97632" lon="4.56329">
        <ele>583</ele>
        <time>2018-08-05T06:24:08.000Z</time>
      </trkpt>
      <trkpt lat="45.97634" lon="4.5633">
        <ele>584</ele>
        <time>2018-08-05T06:24:09.000Z</time>
      </trkpt>
      <trkpt lat="45.97637" lon="4.5633">
        <ele>584</ele>
        <time>2018-08-05T06:24:10.000Z</time>
      </trkpt>
      <trkpt lat="45.9764" lon="4.56331">
        <ele>584</ele>
        <time>2018-08-05T06:24:11.000Z</time>
      </trkpt>
      <trkpt lat="45.97643" lon="4.56332">
        <ele>584</ele>
        <time>2018-08-05T06:24:12.000Z</time>
      </trkpt>
      <trkpt lat="45.97645" lon="4.56332">
        <ele>585</ele>
        <time>2018-08-05T06:24:13.000Z</time>
      </trkpt>
      <trkpt lat="45.97648" lon="4.56333">
        <ele>592</ele>
        <time>2018-08-05T06:24:14.000Z</time>
      </trkpt>
      <trkpt lat="45.9765" lon="4.56335">
        <ele>591</ele>
        <time>2018-08-05T06:24:15.000Z</time>
      </trkpt>
      <trkpt lat="45.97653" lon="4.56336">
        <ele>591</ele>
        <time>2018-08-05T06:24:16.000Z</time>
      </trkpt>
      <trkpt lat="45.97655" lon="4.56337">
        <ele>591</ele>
        <time>2018-08-05T06:24:17.000Z</time>
      </trkpt>
      <trkpt lat="45.97657" lon="4.56337">
        <ele>591</ele>
        <time>2018-08-05T06:24:18.000Z</time>
      </trkpt>
      <trkpt lat="45.97659" lon="4.56339">
        <ele>591</ele>
        <time>2018-08-05T06:24:19.000Z</time>
      </trkpt>
      <trkpt lat="45.97661" lon="4.5634">
        <ele>591</ele>
        <time>2018-08-05T06:24:20.000Z</time>
      </trkpt>
      <trkpt lat="45.97663" lon="4.56342">
        <ele>591</ele>
        <time>2018-08-05T06:24:21.000Z</time>
      </trkpt>
      <trkpt lat="45.97665" lon="4.56343">
        <ele>591</ele>
        <time>2018-08-05T06:24:22.000Z</time>
      </trkpt>
      <trkpt lat="45.97667" lon="4.56345">
        <ele>592</ele>
        <time>2018-08-05T06:24:23.000Z</time>
      </trkpt>
      <trkpt lat="45.9767" lon="4.56348">
        <ele>592</ele>
        <time>2018-08-05T06:24:24.000Z</time>
      </trkpt>
      <trkpt lat="45.97672" lon="4.5635">
        <ele>592</ele>
        <time>2018-08-05T06:24:25.000Z</time>
      </trkpt>
      <trkpt lat="45.97675" lon="4.56353">
        <ele>593</ele>
        <time>2018-08-05T06:24:26.000Z</time>
      </trkpt>
      <trkpt lat="45.97677" lon="4.56356">
        <ele>593</ele>
        <time>2018-08-05T06:24:27.000Z</time>
      </trkpt>
      <trkpt lat="45.97679" lon="4.56358">
        <ele>593</ele>
        <time>2018-08-05T06:24:28.000Z</time>
      </trkpt>
      <trkpt lat="45.97681" lon="4.5636">
        <ele>594</ele>
        <time>2018-08-05T06:24:29.000Z</time>
      </trkpt>
      <trkpt lat="45.97684" lon="4.56363">
        <ele>594</ele>
        <time>2018-08-05T06:24:30.000Z</time>
      </trkpt>
      <trkpt lat="45.97687" lon="4.56366">
        <ele>594</ele>
        <time>2018-08-05T06:24:31.000Z</time>
      </trkpt>
      <trkpt lat="45.97689" lon="4.56368">
        <ele>594</ele>
        <time>2018-08-05T06:24:32.000Z</time>
      </trkpt>
      <trkpt lat="45.97692" lon="4.56371">
        <ele>595</ele>
        <time>2018-08-05T06:24:33.000Z</time>
      </trkpt>
      <trkpt lat="45.97695" lon="4.56373">
        <ele>595</ele>
        <time>2018-08-05T06:24:34.000Z</time>
      </trkpt>
      <trkpt lat="45.97697" lon="4.56376">
        <ele>595</ele>
        <time>2018-08-05T06:24:35.000Z</time>
      </trkpt>
      <trkpt lat="45.977" lon="4.56379">
        <ele>595</ele>
        <time>2018-08-05T06:24:36.000Z</time>
      </trkpt>
      <trkpt lat="45.97702" lon="4.56381">
        <ele>596</ele>
        <time>2018-08-05T06:24:37.000Z</time>
      </trkpt>
      <trkpt lat="45.97705" lon="4.56384">
        <ele>596</ele>
        <time>2018-08-05T06:24:38.000Z</time>
      </trkpt>
      <trkpt lat="45.97708" lon="4.56386">
        <ele>596</ele>
        <time>2018-08-05T06:24:39.000Z</time>
      </trkpt>
      <trkpt lat="45.97711" lon="4.56389">
        <ele>596</ele>
        <time>2018-08-05T06:24:40.000Z</time>
      </trkpt>
      <trkpt lat="45.97714" lon="4.56391">
        <ele>597</ele>
        <time>2018-08-05T06:24:41.000Z</time>
      </trkpt>
      <trkpt lat="45.97717" lon="4.56393">
        <ele>597</ele>
        <time>2018-08-05T06:24:42.000Z</time>
      </trkpt>
      <trkpt lat="45.9772" lon="4.56395">
        <ele>597</ele>
        <time>2018-08-05T06:24:43.000Z</time>
      </trkpt>
      <trkpt lat="45.97723" lon="4.56397">
        <ele>598</ele>
        <time>2018-08-05T06:24:44.000Z</time>
      </trkpt>
      <trkpt lat="45.97726" lon="4.56398">
        <ele>598</ele>
        <time>2018-08-05T06:24:45.000Z</time>
      </trkpt>
      <trkpt lat="45.9773" lon="4.56399">
        <ele>599</ele>
        <time>2018-08-05T06:24:46.000Z</time>
      </trkpt>
      <trkpt lat="45.97733" lon="4.56401">
        <ele>599</ele>
        <time>2018-08-05T06:24:47.000Z</time>
      </trkpt>
      <trkpt lat="45.97737" lon="4.56401">
        <ele>600</ele>
        <time>2018-08-05T06:24:48.000Z</time>
      </trkpt>
      <trkpt lat="45.97741" lon="4.56402">
        <ele>600</ele>
        <time>2018-08-05T06:24:49.000Z</time>
      </trkpt>
      <trkpt lat="45.97745" lon="4.56402">
        <ele>601</ele>
        <time>2018-08-05T06:24:50.000Z</time>
      </trkpt>
      <trkpt lat="45.97749" lon="4.56402">
        <ele>601</ele>
        <time>2018-08-05T06:24:51.000Z</time>
      </trkpt>
      <trkpt lat="45.97752" lon="4.56402">
        <ele>602</ele>
        <time>2018-08-05T06:24:52.000Z</time>
      </trkpt>
      <trkpt lat="45.97756" lon="4.56402">
        <ele>602</ele>
        <time>2018-08-05T06:24:53.000Z</time>
      </trkpt>
      <trkpt lat="45.9776" lon="4.56402">
        <ele>602</ele>
        <time>2018-08-05T06:24:54.000Z</time>
      </trkpt>
      <trkpt lat="45.97763" lon="4.56401">
        <ele>602</ele>
        <time>2018-08-05T06:24:55.000Z</time>
      </trkpt>
      <trkpt lat="45.97767" lon="4.56401">
        <ele>602</ele>
        <time>2018-08-05T06:24:56.000Z</time>
      </trkpt>
      <trkpt lat="45.97771" lon="4.564">
        <ele>601</ele>
        <time>2018-08-05T06:24:57.000Z</time>
      </trkpt>
      <trkpt lat="45.97775" lon="4.564">
        <ele>601</ele>
        <time>2018-08-05T06:24:58.000Z</time>
      </trkpt>
      <trkpt lat="45.97779" lon="4.56399">
        <ele>601</ele>
        <time>2018-08-05T06:24:59.000Z</time>
      </trkpt>
      <trkpt lat="45.97782" lon="4.56399">
        <ele>601</ele>
        <time>2018-08-05T06:25:00.000Z</time>
      </trkpt>
      <trkpt lat="45.97786" lon="4.56399">
        <ele>601</ele>
        <time>2018-08-05T06:25:01.000Z</time>
      </trkpt>
      <trkpt lat="45.9779" lon="4.56398">
        <ele>601</ele>
        <time>2018-08-05T06:25:02.000Z</time>
      </trkpt>
      <trkpt lat="45.97793" lon="4.56397">
        <ele>602</ele>
        <time>2018-08-05T06:25:03.000Z</time>
      </trkpt>
      <trkpt lat="45.97797" lon="4.56396">
        <ele>602</ele>
        <time>2018-08-05T06:25:04.000Z</time>
      </trkpt>
      <trkpt lat="45.978" lon="4.56396">
        <ele>602</ele>
        <time>2018-08-05T06:25:05.000Z</time>
      </trkpt>
      <trkpt lat="45.97804" lon="4.56395">
        <ele>602</ele>
        <time>2018-08-05T06:25:06.000Z</time>
      </trkpt>
      <trkpt lat="45.97808" lon="4.56394">
        <ele>602</ele>
        <time>2018-08-05T06:25:07.000Z</time>
      </trkpt>
      <trkpt lat="45.97811" lon="4.56393">
        <ele>603</ele>
        <time>2018-08-05T06:25:08.000Z</time>
      </trkpt>
      <trkpt lat="45.97814" lon="4.56391">
        <ele>603</ele>
        <time>2018-08-05T06:25:09.000Z</time>
      </trkpt>
      <trkpt lat="45.97818" lon="4.5639">
        <ele>603</ele>
        <time>2018-08-05T06:25:10.000Z</time>
      </trkpt>
      <trkpt lat="45.97821" lon="4.56388">
        <ele>603</ele>
        <time>2018-08-05T06:25:11.000Z</time>
      </trkpt>
      <trkpt lat="45.97825" lon="4.56387">
        <ele>603</ele>
        <time>2018-08-05T06:25:12.000Z</time>
      </trkpt>
      <trkpt lat="45.97828" lon="4.56385">
        <ele>602</ele>
        <time>2018-08-05T06:25:13.000Z</time>
      </trkpt>
      <trkpt lat="45.97831" lon="4.56383">
        <ele>602</ele>
        <time>2018-08-05T06:25:14.000Z</time>
      </trkpt>
      <trkpt lat="45.97835" lon="4.56381">
        <ele>609</ele>
        <time>2018-08-05T06:25:15.000Z</time>
      </trkpt>
      <trkpt lat="45.97838" lon="4.56379">
        <ele>608</ele>
        <time>2018-08-05T06:25:16.000Z</time>
      </trkpt>
      <trkpt lat="45.97841" lon="4.56376">
        <ele>608</ele>
        <time>2018-08-05T06:25:17.000Z</time>
      </trkpt>
      <trkpt lat="45.97845" lon="4.56374">
        <ele>608</ele>
        <time>2018-08-05T06:25:18.000Z</time>
      </trkpt>
      <trkpt lat="45.97848" lon="4.56372">
        <ele>608</ele>
        <time>2018-08-05T06:25:19.000Z</time>
      </trkpt>
      <trkpt lat="45.97852" lon="4.5637">
        <ele>607</ele>
        <time>2018-08-05T06:25:20.000Z</time>
      </trkpt>
      <trkpt lat="45.97855" lon="4.56368">
        <ele>607</ele>
        <time>2018-08-05T06:25:21.000Z</time>
      </trkpt>
      <trkpt lat="45.97858" lon="4.56365">
        <ele>607</ele>
        <time>2018-08-05T06:25:22.000Z</time>
      </trkpt>
      <trkpt lat="45.97862" lon="4.56363">
        <ele>607</ele>
        <time>2018-08-05T06:25:23.000Z</time>
      </trkpt>
      <trkpt lat="45.97865" lon="4.56361">
        <ele>607</ele>
        <time>2018-08-05T06:25:24.000Z</time>
      </trkpt>
      <trkpt lat="45.97868" lon="4.56358">
        <ele>607</ele>
        <time>2018-08-05T06:25:25.000Z</time>
      </trkpt>
      <trkpt lat="45.97872" lon="4.56356">
        <ele>607</ele>
        <time>2018-08-05T06:25:26.000Z</time>
      </trkpt>
      <trkpt lat="45.97875" lon="4.56353">
        <ele>607</ele>
        <time>2018-08-05T06:25:27.000Z</time>
      </trkpt>
      <trkpt lat="45.97878" lon="4.56351">
        <ele>608</ele>
        <time>2018-08-05T06:25:28.000Z</time>
      </trkpt>
      <trkpt lat="45.97881" lon="4.56349">
        <ele>608</ele>
        <time>2018-08-05T06:25:29.000Z</time>
      </trkpt>
      <trkpt lat="45.97885" lon="4.56347">
        <ele>608</ele>
        <time>2018-08-05T06:25:30.000Z</time>
      </trkpt>
      <trkpt lat="45.97888" lon="4.56345">
        <ele>608</ele>
        <time>2018-08-05T06:25:31.000Z</time>
      </trkpt>
      <trkpt lat="45.97891" lon="4.56342">
        <ele>608</ele>
        <time>2018-08-05T06:25:32.000Z</time>
      </trkpt>
      <trkpt lat="45.97894" lon="4.5634">
        <ele>608</ele>
        <time>2018-08-05T06:25:33.000Z</time>
      </trkpt>
      <trkpt lat="45.97897" lon="4.56338">
        <ele>608</ele>
        <time>2018-08-05T06:25:34.000Z</time>
      </trkpt>
      <trkpt lat="45.979" lon="4.56336">
        <ele>608</ele>
        <time>2018-08-05T06:25:35.000Z</time>
      </trkpt>
      <trkpt lat="45.97903" lon="4.56334">
        <ele>607</ele>
        <time>2018-08-05T06:25:36.000Z</time>
      </trkpt>
      <trkpt lat="45.97906" lon="4.56332">
        <ele>600</ele>
        <time>2018-08-05T06:25:37.000Z</time>
      </trkpt>
      <trkpt lat="45.97909" lon="4.5633">
        <ele>601</ele>
        <time>2018-08-05T06:25:38.000Z</time>
      </trkpt>
      <trkpt lat="45.97912" lon="4.56328">
        <ele>602</ele>
        <time>2018-08-05T06:25:39.000Z</time>
      </trkpt>
      <trkpt lat="45.97915" lon="4.56326">
        <ele>602</ele>
        <time>2018-08-05T06:25:40.000Z</time>
      </trkpt>
      <trkpt lat="45.97919" lon="4.56324">
        <ele>605</ele>
        <time>2018-08-05T06:25:41.000Z</time>
      </trkpt>
      <trkpt lat="45.97922" lon="4.56323">
        <ele>605</ele>
        <time>2018-08-05T06:25:42.000Z</time>
      </trkpt>
      <trkpt lat="45.97926" lon="4.56321">
        <ele>604</ele>
        <time>2018-08-05T06:25:43.000Z</time>
      </trkpt>
      <trkpt lat="45.97929" lon="4.56319">
        <ele>604</ele>
        <time>2018-08-05T06:25:44.000Z</time>
      </trkpt>
      <trkpt lat="45.97933" lon="4.56318">
        <ele>604</ele>
        <time>2018-08-05T06:25:45.000Z</time>
      </trkpt>
      <trkpt lat="45.97936" lon="4.56317">
        <ele>604</ele>
        <time>2018-08-05T06:25:46.000Z</time>
      </trkpt>
      <trkpt lat="45.9794" lon="4.56316">
        <ele>604</ele>
        <time>2018-08-05T06:25:47.000Z</time>
      </trkpt>
      <trkpt lat="45.97943" lon="4.56315">
        <ele>604</ele>
        <time>2018-08-05T06:25:48.000Z</time>
      </trkpt>
      <trkpt lat="45.97947" lon="4.56314">
        <ele>604</ele>
        <time>2018-08-05T06:25:49.000Z</time>
      </trkpt>
      <trkpt lat="45.9795" lon="4.56313">
        <ele>605</ele>
        <time>2018-08-05T06:25:50.000Z</time>
      </trkpt>
      <trkpt lat="45.97954" lon="4.56313">
        <ele>605</ele>
        <time>2018-08-05T06:25:51.000Z</time>
      </trkpt>
      <trkpt lat="45.97957" lon="4.56312">
        <ele>605</ele>
        <time>2018-08-05T06:25:52.000Z</time>
      </trkpt>
      <trkpt lat="45.97961" lon="4.56311">
        <ele>605</ele>
        <time>2018-08-05T06:25:53.000Z</time>
      </trkpt>
      <trkpt lat="45.97964" lon="4.56311">
        <ele>606</ele>
        <time>2018-08-05T06:25:54.000Z</time>
      </trkpt>
      <trkpt lat="45.97968" lon="4.5631">
        <ele>606</ele>
        <time>2018-08-05T06:25:55.000Z</time>
      </trkpt>
      <trkpt lat="45.97971" lon="4.5631">
        <ele>606</ele>
        <time>2018-08-05T06:25:56.000Z</time>
      </trkpt>
      <trkpt lat="45.97974" lon="4.56309">
        <ele>607</ele>
        <time>2018-08-05T06:25:57.000Z</time>
      </trkpt>
      <trkpt lat="45.97978" lon="4.56309">
        <ele>607</ele>
        <time>2018-08-05T06:25:58.000Z</time>
      </trkpt>
      <trkpt lat="45.97981" lon="4.56308">
        <ele>607</ele>
        <time>2018-08-05T06:25:59.000Z</time>
      </trkpt>
      <trkpt lat="45.97984" lon="4.56307">
        <ele>608</ele>
        <time>2018-08-05T06:26:00.000Z</time>
      </trkpt>
      <trkpt lat="45.97988" lon="4.56306">
        <ele>608</ele>
        <time>2018-08-05T06:26:01.000Z</time>
      </trkpt>
      <trkpt lat="45.97991" lon="4.56306">
        <ele>608</ele>
        <time>2018-08-05T06:26:02.000Z</time>
      </trkpt>
      <trkpt lat="45.97994" lon="4.56304">
        <ele>608</ele>
        <time>2018-08-05T06:26:03.000Z</time>
      </trkpt>
      <trkpt lat="45.97997" lon="4.56303">
        <ele>608</ele>
        <time>2018-08-05T06:26:04.000Z</time>
      </trkpt>
      <trkpt lat="45.98001" lon="4.56302">
        <ele>619</ele>
        <time>2018-08-05T06:26:05.000Z</time>
      </trkpt>
      <trkpt lat="45.98004" lon="4.563">
        <ele>619</ele>
        <time>2018-08-05T06:26:06.000Z</time>
      </trkpt>
      <trkpt lat="45.98008" lon="4.56298">
        <ele>619</ele>
        <time>2018-08-05T06:26:07.000Z</time>
      </trkpt>
      <trkpt lat="45.98011" lon="4.56296">
        <ele>619</ele>
        <time>2018-08-05T06:26:08.000Z</time>
      </trkpt>
      <trkpt lat="45.98014" lon="4.56294">
        <ele>619</ele>
        <time>2018-08-05T06:26:09.000Z</time>
      </trkpt>
      <trkpt lat="45.98017" lon="4.56292">
        <ele>619</ele>
        <time>2018-08-05T06:26:10.000Z</time>
      </trkpt>
      <trkpt lat="45.9802" lon="4.5629">
        <ele>619</ele>
        <time>2018-08-05T06:26:11.000Z</time>
      </trkpt>
      <trkpt lat="45.98023" lon="4.56287">
        <ele>618</ele>
        <time>2018-08-05T06:26:12.000Z</time>
      </trkpt>
      <trkpt lat="45.98026" lon="4.56284">
        <ele>618</ele>
        <time>2018-08-05T06:26:13.000Z</time>
      </trkpt>
      <trkpt lat="45.98029" lon="4.56282">
        <ele>618</ele>
        <time>2018-08-05T06:26:14.000Z</time>
      </trkpt>
      <trkpt lat="45.98032" lon="4.5628">
        <ele>619</ele>
        <time>2018-08-05T06:26:15.000Z</time>
      </trkpt>
      <trkpt lat="45.98035" lon="4.56277">
        <ele>619</ele>
        <time>2018-08-05T06:26:16.000Z</time>
      </trkpt>
      <trkpt lat="45.98037" lon="4.56274">
        <ele>619</ele>
        <time>2018-08-05T06:26:17.000Z</time>
      </trkpt>
      <trkpt lat="45.9804" lon="4.5627">
        <ele>619</ele>
        <time>2018-08-05T06:26:18.000Z</time>
      </trkpt>
      <trkpt lat="45.98043" lon="4.56267">
        <ele>619</ele>
        <time>2018-08-05T06:26:19.000Z</time>
      </trkpt>
      <trkpt lat="45.98046" lon="4.56263">
        <ele>619</ele>
        <time>2018-08-05T06:26:20.000Z</time>
      </trkpt>
      <trkpt lat="45.98049" lon="4.56259">
        <ele>620</ele>
        <time>2018-08-05T06:26:21.000Z</time>
      </trkpt>
      <trkpt lat="45.98052" lon="4.56256">
        <ele>620</ele>
        <time>2018-08-05T06:26:22.000Z</time>
      </trkpt>
      <trkpt lat="45.98055" lon="4.56252">
        <ele>620</ele>
        <time>2018-08-05T06:26:23.000Z</time>
      </trkpt>
      <trkpt lat="45.98058" lon="4.56248">
        <ele>610</ele>
        <time>2018-08-05T06:26:24.000Z</time>
      </trkpt>
      <trkpt lat="45.9806" lon="4.56244">
        <ele>611</ele>
        <time>2018-08-05T06:26:25.000Z</time>
      </trkpt>
      <trkpt lat="45.98063" lon="4.56241">
        <ele>612</ele>
        <time>2018-08-05T06:26:26.000Z</time>
      </trkpt>
      <trkpt lat="45.98066" lon="4.56238">
        <ele>612</ele>
        <time>2018-08-05T06:26:27.000Z</time>
      </trkpt>
      <trkpt lat="45.98069" lon="4.56234">
        <ele>612</ele>
        <time>2018-08-05T06:26:28.000Z</time>
      </trkpt>
      <trkpt lat="45.98072" lon="4.56231">
        <ele>612</ele>
        <time>2018-08-05T06:26:29.000Z</time>
      </trkpt>
      <trkpt lat="45.98074" lon="4.56228">
        <ele>612</ele>
        <time>2018-08-05T06:26:30.000Z</time>
      </trkpt>
      <trkpt lat="45.98077" lon="4.56224">
        <ele>611</ele>
        <time>2018-08-05T06:26:31.000Z</time>
      </trkpt>
      <trkpt lat="45.9808" lon="4.56221">
        <ele>611</ele>
        <time>2018-08-05T06:26:32.000Z</time>
      </trkpt>
      <trkpt lat="45.98083" lon="4.56217">
        <ele>610</ele>
        <time>2018-08-05T06:26:33.000Z</time>
      </trkpt>
      <trkpt lat="45.98085" lon="4.56214">
        <ele>628</ele>
        <time>2018-08-05T06:26:34.000Z</time>
      </trkpt>
      <trkpt lat="45.98088" lon="4.56211">
        <ele>628</ele>
        <time>2018-08-05T06:26:35.000Z</time>
      </trkpt>
      <trkpt lat="45.98091" lon="4.56207">
        <ele>627</ele>
        <time>2018-08-05T06:26:36.000Z</time>
      </trkpt>
      <trkpt lat="45.98093" lon="4.56203">
        <ele>627</ele>
        <time>2018-08-05T06:26:37.000Z</time>
      </trkpt>
      <trkpt lat="45.98095" lon="4.56199">
        <ele>626</ele>
        <time>2018-08-05T06:26:38.000Z</time>
      </trkpt>
      <trkpt lat="45.98097" lon="4.56194">
        <ele>626</ele>
        <time>2018-08-05T06:26:39.000Z</time>
      </trkpt>
      <trkpt lat="45.98098" lon="4.56189">
        <ele>625</ele>
        <time>2018-08-05T06:26:40.000Z</time>
      </trkpt>
      <trkpt lat="45.98099" lon="4.56184">
        <ele>624</ele>
        <time>2018-08-05T06:26:41.000Z</time>
      </trkpt>
      <trkpt lat="45.98101" lon="4.5618">
        <ele>624</ele>
        <time>2018-08-05T06:26:42.000Z</time>
      </trkpt>
      <trkpt lat="45.98101" lon="4.56175">
        <ele>623</ele>
        <time>2018-08-05T06:26:43.000Z</time>
      </trkpt>
      <trkpt lat="45.98102" lon="4.56169">
        <ele>622</ele>
        <time>2018-08-05T06:26:44.000Z</time>
      </trkpt>
      <trkpt lat="45.98102" lon="4.56164">
        <ele>616</ele>
        <time>2018-08-05T06:26:45.000Z</time>
      </trkpt>
      <trkpt lat="45.98102" lon="4.56159">
        <ele>616</ele>
        <time>2018-08-05T06:26:46.000Z</time>
      </trkpt>
      <trkpt lat="45.98103" lon="4.56153">
        <ele>616</ele>
        <time>2018-08-05T06:26:47.000Z</time>
      </trkpt>
      <trkpt lat="45.98103" lon="4.56148">
        <ele>617</ele>
        <time>2018-08-05T06:26:48.000Z</time>
      </trkpt>
      <trkpt lat="45.98103" lon="4.56142">
        <ele>617</ele>
        <time>2018-08-05T06:26:49.000Z</time>
      </trkpt>
      <trkpt lat="45.98103" lon="4.56137">
        <ele>617</ele>
        <time>2018-08-05T06:26:50.000Z</time>
      </trkpt>
      <trkpt lat="45.98103" lon="4.56132">
        <ele>617</ele>
        <time>2018-08-05T06:26:51.000Z</time>
      </trkpt>
      <trkpt lat="45.98104" lon="4.56127">
        <ele>616</ele>
        <time>2018-08-05T06:26:52.000Z</time>
      </trkpt>
      <trkpt lat="45.98105" lon="4.56121">
        <ele>616</ele>
        <time>2018-08-05T06:26:53.000Z</time>
      </trkpt>
      <trkpt lat="45.98106" lon="4.56116">
        <ele>616</ele>
        <time>2018-08-05T06:26:54.000Z</time>
      </trkpt>
      <trkpt lat="45.98107" lon="4.56111">
        <ele>616</ele>
        <time>2018-08-05T06:26:55.000Z</time>
      </trkpt>
      <trkpt lat="45.98108" lon="4.56107">
        <ele>615</ele>
        <time>2018-08-05T06:26:56.000Z</time>
      </trkpt>
      <trkpt lat="45.9811" lon="4.56102">
        <ele>615</ele>
        <time>2018-08-05T06:26:57.000Z</time>
      </trkpt>
      <trkpt lat="45.98112" lon="4.56098">
        <ele>615</ele>
        <time>2018-08-05T06:26:58.000Z</time>
      </trkpt>
      <trkpt lat="45.98114" lon="4.56094">
        <ele>615</ele>
        <time>2018-08-05T06:26:59.000Z</time>
      </trkpt>
      <trkpt lat="45.98116" lon="4.5609">
        <ele>615</ele>
        <time>2018-08-05T06:27:00.000Z</time>
      </trkpt>
      <trkpt lat="45.98119" lon="4.56086">
        <ele>616</ele>
        <time>2018-08-05T06:27:01.000Z</time>
      </trkpt>
      <trkpt lat="45.98121" lon="4.56082">
        <ele>608</ele>
        <time>2018-08-05T06:27:02.000Z</time>
      </trkpt>
      <trkpt lat="45.98124" lon="4.56079">
        <ele>608</ele>
        <time>2018-08-05T06:27:03.000Z</time>
      </trkpt>
      <trkpt lat="45.98128" lon="4.56076">
        <ele>608</ele>
        <time>2018-08-05T06:27:04.000Z</time>
      </trkpt>
      <trkpt lat="45.98131" lon="4.56073">
        <ele>609</ele>
        <time>2018-08-05T06:27:05.000Z</time>
      </trkpt>
      <trkpt lat="45.98134" lon="4.56071">
        <ele>609</ele>
        <time>2018-08-05T06:27:06.000Z</time>
      </trkpt>
      <trkpt lat="45.98138" lon="4.56068">
        <ele>609</ele>
        <time>2018-08-05T06:27:07.000Z</time>
      </trkpt>
      <trkpt lat="45.98141" lon="4.56067">
        <ele>610</ele>
        <time>2018-08-05T06:27:08.000Z</time>
      </trkpt>
      <trkpt lat="45.98144" lon="4.56065">
        <ele>610</ele>
        <time>2018-08-05T06:27:09.000Z</time>
      </trkpt>
      <trkpt lat="45.98148" lon="4.56064">
        <ele>611</ele>
        <time>2018-08-05T06:27:10.000Z</time>
      </trkpt>
      <trkpt lat="45.98151" lon="4.56063">
        <ele>611</ele>
        <time>2018-08-05T06:27:11.000Z</time>
      </trkpt>
      <trkpt lat="45.98155" lon="4.56062">
        <ele>611</ele>
        <time>2018-08-05T06:27:12.000Z</time>
      </trkpt>
      <trkpt lat="45.98158" lon="4.56062">
        <ele>612</ele>
        <time>2018-08-05T06:27:13.000Z</time>
      </trkpt>
      <trkpt lat="45.98162" lon="4.56061">
        <ele>612</ele>
        <time>2018-08-05T06:27:14.000Z</time>
      </trkpt>
      <trkpt lat="45.98166" lon="4.56061">
        <ele>612</ele>
        <time>2018-08-05T06:27:15.000Z</time>
      </trkpt>
      <trkpt lat="45.9817" lon="4.56061">
        <ele>616</ele>
        <time>2018-08-05T06:27:16.000Z</time>
      </trkpt>
      <trkpt lat="45.98173" lon="4.56061">
        <ele>616</ele>
        <time>2018-08-05T06:27:17.000Z</time>
      </trkpt>
      <trkpt lat="45.98177" lon="4.56061">
        <ele>616</ele>
        <time>2018-08-05T06:27:18.000Z</time>
      </trkpt>
      <trkpt lat="45.9818" lon="4.56061">
        <ele>616</ele>
        <time>2018-08-05T06:27:19.000Z</time>
      </trkpt>
      <trkpt lat="45.98184" lon="4.56062">
        <ele>616</ele>
        <time>2018-08-05T06:27:20.000Z</time>
      </trkpt>
      <trkpt lat="45.98188" lon="4.56062">
        <ele>615</ele>
        <time>2018-08-05T06:27:21.000Z</time>
      </trkpt>
      <trkpt lat="45.98191" lon="4.56063">
        <ele>615</ele>
        <time>2018-08-05T06:27:22.000Z</time>
      </trkpt>
      <trkpt lat="45.98195" lon="4.56064">
        <ele>615</ele>
        <time>2018-08-05T06:27:23.000Z</time>
      </trkpt>
      <trkpt lat="45.98198" lon="4.56064">
        <ele>615</ele>
        <time>2018-08-05T06:27:24.000Z</time>
      </trkpt>
      <trkpt lat="45.98202" lon="4.56065">
        <ele>615</ele>
        <time>2018-08-05T06:27:25.000Z</time>
      </trkpt>
      <trkpt lat="45.98205" lon="4.56065">
        <ele>615</ele>
        <time>2018-08-05T06:27:26.000Z</time>
      </trkpt>
      <trkpt lat="45.98209" lon="4.56066">
        <ele>616</ele>
        <time>2018-08-05T06:27:27.000Z</time>
      </trkpt>
      <trkpt lat="45.98212" lon="4.56067">
        <ele>616</ele>
        <time>2018-08-05T06:27:28.000Z</time>
      </trkpt>
      <trkpt lat="45.98216" lon="4.56067">
        <ele>616</ele>
        <time>2018-08-05T06:27:29.000Z</time>
      </trkpt>
      <trkpt lat="45.98219" lon="4.56067">
        <ele>616</ele>
        <time>2018-08-05T06:27:30.000Z</time>
      </trkpt>
      <trkpt lat="45.98222" lon="4.56068">
        <ele>616</ele>
        <time>2018-08-05T06:27:31.000Z</time>
      </trkpt>
      <trkpt lat="45.98226" lon="4.56069">
        <ele>617</ele>
        <time>2018-08-05T06:27:32.000Z</time>
      </trkpt>
      <trkpt lat="45.9823" lon="4.5607">
        <ele>617</ele>
        <time>2018-08-05T06:27:33.000Z</time>
      </trkpt>
      <trkpt lat="45.98233" lon="4.56071">
        <ele>618</ele>
        <time>2018-08-05T06:27:34.000Z</time>
      </trkpt>
      <trkpt lat="45.98237" lon="4.56071">
        <ele>618</ele>
        <time>2018-08-05T06:27:35.000Z</time>
      </trkpt>
      <trkpt lat="45.9824" lon="4.56072">
        <ele>619</ele>
        <time>2018-08-05T06:27:36.000Z</time>
      </trkpt>
      <trkpt lat="45.98243" lon="4.56073">
        <ele>620</ele>
        <time>2018-08-05T06:27:37.000Z</time>
      </trkpt>
      <trkpt lat="45.98246" lon="4.56075">
        <ele>620</ele>
        <time>2018-08-05T06:27:38.000Z</time>
      </trkpt>
      <trkpt lat="45.9825" lon="4.56076">
        <ele>621</ele>
        <time>2018-08-05T06:27:39.000Z</time>
      </trkpt>
      <trkpt lat="45.98253" lon="4.56078">
        <ele>621</ele>
        <time>2018-08-05T06:27:40.000Z</time>
      </trkpt>
      <trkpt lat="45.98256" lon="4.56079">
        <ele>621</ele>
        <time>2018-08-05T06:27:41.000Z</time>
      </trkpt>
      <trkpt lat="45.9826" lon="4.56081">
        <ele>620</ele>
        <time>2018-08-05T06:27:42.000Z</time>
      </trkpt>
      <trkpt lat="45.98263" lon="4.56083">
        <ele>619</ele>
        <time>2018-08-05T06:27:43.000Z</time>
      </trkpt>
      <trkpt lat="45.98266" lon="4.56085">
        <ele>628</ele>
        <time>2018-08-05T06:27:44.000Z</time>
      </trkpt>
      <trkpt lat="45.9827" lon="4.56087">
        <ele>629</ele>
        <time>2018-08-05T06:27:45.000Z</time>
      </trkpt>
      <trkpt lat="45.98273" lon="4.56089">
        <ele>629</ele>
        <time>2018-08-05T06:27:46.000Z</time>
      </trkpt>
      <trkpt lat="45.98276" lon="4.56092">
        <ele>629</ele>
        <time>2018-08-05T06:27:47.000Z</time>
      </trkpt>
      <trkpt lat="45.98279" lon="4.56094">
        <ele>630</ele>
        <time>2018-08-05T06:27:48.000Z</time>
      </trkpt>
      <trkpt lat="45.98283" lon="4.56097">
        <ele>630</ele>
        <time>2018-08-05T06:27:49.000Z</time>
      </trkpt>
      <trkpt lat="45.98286" lon="4.56099">
        <ele>630</ele>
        <time>2018-08-05T06:27:50.000Z</time>
      </trkpt>
      <trkpt lat="45.98289" lon="4.56102">
        <ele>631</ele>
        <time>2018-08-05T06:27:51.000Z</time>
      </trkpt>
      <trkpt lat="45.98292" lon="4.56104">
        <ele>631</ele>
        <time>2018-08-05T06:27:52.000Z</time>
      </trkpt>
      <trkpt lat="45.98295" lon="4.56106">
        <ele>631</ele>
        <time>2018-08-05T06:27:53.000Z</time>
      </trkpt>
      <trkpt lat="45.98298" lon="4.56109">
        <ele>631</ele>
        <time>2018-08-05T06:27:54.000Z</time>
      </trkpt>
      <trkpt lat="45.98301" lon="4.56111">
        <ele>631</ele>
        <time>2018-08-05T06:27:55.000Z</time>
      </trkpt>
      <trkpt lat="45.98305" lon="4.56113">
        <ele>631</ele>
        <time>2018-08-05T06:27:56.000Z</time>
      </trkpt>
      <trkpt lat="45.98308" lon="4.56115">
        <ele>631</ele>
        <time>2018-08-05T06:27:57.000Z</time>
      </trkpt>
      <trkpt lat="45.98311" lon="4.56117">
        <ele>631</ele>
        <time>2018-08-05T06:27:58.000Z</time>
      </trkpt>
      <trkpt lat="45.98315" lon="4.56119">
        <ele>632</ele>
        <time>2018-08-05T06:27:59.000Z</time>
      </trkpt>
      <trkpt lat="45.98318" lon="4.5612">
        <ele>632</ele>
        <time>2018-08-05T06:28:00.000Z</time>
      </trkpt>
      <trkpt lat="45.98321" lon="4.56122">
        <ele>632</ele>
        <time>2018-08-05T06:28:01.000Z</time>
      </trkpt>
      <trkpt lat="45.98325" lon="4.56123">
        <ele>632</ele>
        <time>2018-08-05T06:28:02.000Z</time>
      </trkpt>
      <trkpt lat="45.98328" lon="4.56124">
        <ele>632</ele>
        <time>2018-08-05T06:28:03.000Z</time>
      </trkpt>
      <trkpt lat="45.98331" lon="4.56125">
        <ele>632</ele>
        <time>2018-08-05T06:28:04.000Z</time>
      </trkpt>
      <trkpt lat="45.98334" lon="4.56126">
        <ele>632</ele>
        <time>2018-08-05T06:28:05.000Z</time>
      </trkpt>
      <trkpt lat="45.98337" lon="4.56128">
        <ele>632</ele>
        <time>2018-08-05T06:28:06.000Z</time>
      </trkpt>
      <trkpt lat="45.9834" lon="4.56128">
        <ele>633</ele>
        <time>2018-08-05T06:28:07.000Z</time>
      </trkpt>
      <trkpt lat="45.98344" lon="4.56129">
        <ele>633</ele>
        <time>2018-08-05T06:28:08.000Z</time>
      </trkpt>
      <trkpt lat="45.98347" lon="4.5613">
        <ele>633</ele>
        <time>2018-08-05T06:28:09.000Z</time>
      </trkpt>
      <trkpt lat="45.9835" lon="4.5613">
        <ele>633</ele>
        <time>2018-08-05T06:28:10.000Z</time>
      </trkpt>
      <trkpt lat="45.98353" lon="4.56131">
        <ele>633</ele>
        <time>2018-08-05T06:28:11.000Z</time>
      </trkpt>
      <trkpt lat="45.98356" lon="4.56131">
        <ele>633</ele>
        <time>2018-08-05T06:28:12.000Z</time>
      </trkpt>
      <trkpt lat="45.9836" lon="4.56131">
        <ele>633</ele>
        <time>2018-08-05T06:28:13.000Z</time>
      </trkpt>
      <trkpt lat="45.98363" lon="4.56131">
        <ele>633</ele>
        <time>2018-08-05T06:28:14.000Z</time>
      </trkpt>
      <trkpt lat="45.98366" lon="4.5613">
        <ele>633</ele>
        <time>2018-08-05T06:28:15.000Z</time>
      </trkpt>
      <trkpt lat="45.9837" lon="4.5613">
        <ele>633</ele>
        <time>2018-08-05T06:28:16.000Z</time>
      </trkpt>
      <trkpt lat="45.98373" lon="4.56129">
        <ele>633</ele>
        <time>2018-08-05T06:28:17.000Z</time>
      </trkpt>
      <trkpt lat="45.98376" lon="4.56128">
        <ele>633</ele>
        <time>2018-08-05T06:28:18.000Z</time>
      </trkpt>
      <trkpt lat="45.98378" lon="4.56127">
        <ele>633</ele>
        <time>2018-08-05T06:28:19.000Z</time>
      </trkpt>
      <trkpt lat="45.98381" lon="4.56126">
        <ele>633</ele>
        <time>2018-08-05T06:28:20.000Z</time>
      </trkpt>
      <trkpt lat="45.98385" lon="4.56124">
        <ele>633</ele>
        <time>2018-08-05T06:28:21.000Z</time>
      </trkpt>
      <trkpt lat="45.98388" lon="4.56122">
        <ele>633</ele>
        <time>2018-08-05T06:28:22.000Z</time>
      </trkpt>
      <trkpt lat="45.98391" lon="4.5612">
        <ele>633</ele>
        <time>2018-08-05T06:28:23.000Z</time>
      </trkpt>
      <trkpt lat="45.98394" lon="4.56118">
        <ele>632</ele>
        <time>2018-08-05T06:28:24.000Z</time>
      </trkpt>
      <trkpt lat="45.98397" lon="4.56117">
        <ele>632</ele>
        <time>2018-08-05T06:28:25.000Z</time>
      </trkpt>
      <trkpt lat="45.984" lon="4.56114">
        <ele>632</ele>
        <time>2018-08-05T06:28:26.000Z</time>
      </trkpt>
      <trkpt lat="45.98403" lon="4.56112">
        <ele>631</ele>
        <time>2018-08-05T06:28:27.000Z</time>
      </trkpt>
      <trkpt lat="45.98406" lon="4.5611">
        <ele>631</ele>
        <time>2018-08-05T06:28:28.000Z</time>
      </trkpt>
      <trkpt lat="45.98409" lon="4.56108">
        <ele>630</ele>
        <time>2018-08-05T06:28:29.000Z</time>
      </trkpt>
      <trkpt lat="45.98412" lon="4.56106">
        <ele>630</ele>
        <time>2018-08-05T06:28:30.000Z</time>
      </trkpt>
      <trkpt lat="45.98415" lon="4.56104">
        <ele>630</ele>
        <time>2018-08-05T06:28:31.000Z</time>
      </trkpt>
      <trkpt lat="45.98418" lon="4.56103">
        <ele>631</ele>
        <time>2018-08-05T06:28:32.000Z</time>
      </trkpt>
      <trkpt lat="45.98422" lon="4.56101">
        <ele>630</ele>
        <time>2018-08-05T06:28:33.000Z</time>
      </trkpt>
      <trkpt lat="45.98425" lon="4.561">
        <ele>630</ele>
        <time>2018-08-05T06:28:34.000Z</time>
      </trkpt>
      <trkpt lat="45.98428" lon="4.56099">
        <ele>630</ele>
        <time>2018-08-05T06:28:35.000Z</time>
      </trkpt>
      <trkpt lat="45.98432" lon="4.56098">
        <ele>631</ele>
        <time>2018-08-05T06:28:36.000Z</time>
      </trkpt>
      <trkpt lat="45.98435" lon="4.56098">
        <ele>631</ele>
        <time>2018-08-05T06:28:37.000Z</time>
      </trkpt>
      <trkpt lat="45.98438" lon="4.56098">
        <ele>632</ele>
        <time>2018-08-05T06:28:38.000Z</time>
      </trkpt>
      <trkpt lat="45.98442" lon="4.56098">
        <ele>632</ele>
        <time>2018-08-05T06:28:39.000Z</time>
      </trkpt>
      <trkpt lat="45.98445" lon="4.56098">
        <ele>632</ele>
        <time>2018-08-05T06:28:40.000Z</time>
      </trkpt>
      <trkpt lat="45.98449" lon="4.56099">
        <ele>633</ele>
        <time>2018-08-05T06:28:41.000Z</time>
      </trkpt>
      <trkpt lat="45.98452" lon="4.561">
        <ele>633</ele>
        <time>2018-08-05T06:28:42.000Z</time>
      </trkpt>
      <trkpt lat="45.98455" lon="4.56101">
        <ele>633</ele>
        <time>2018-08-05T06:28:43.000Z</time>
      </trkpt>
      <trkpt lat="45.98458" lon="4.56102">
        <ele>633</ele>
        <time>2018-08-05T06:28:44.000Z</time>
      </trkpt>
      <trkpt lat="45.98462" lon="4.56104">
        <ele>633</ele>
        <time>2018-08-05T06:28:45.000Z</time>
      </trkpt>
      <trkpt lat="45.98465" lon="4.56105">
        <ele>634</ele>
        <time>2018-08-05T06:28:46.000Z</time>
      </trkpt>
      <trkpt lat="45.98468" lon="4.56107">
        <ele>634</ele>
        <time>2018-08-05T06:28:47.000Z</time>
      </trkpt>
      <trkpt lat="45.98471" lon="4.56109">
        <ele>634</ele>
        <time>2018-08-05T06:28:48.000Z</time>
      </trkpt>
      <trkpt lat="45.98474" lon="4.56111">
        <ele>634</ele>
        <time>2018-08-05T06:28:49.000Z</time>
      </trkpt>
      <trkpt lat="45.98477" lon="4.56113">
        <ele>634</ele>
        <time>2018-08-05T06:28:50.000Z</time>
      </trkpt>
      <trkpt lat="45.9848" lon="4.56115">
        <ele>635</ele>
        <time>2018-08-05T06:28:51.000Z</time>
      </trkpt>
      <trkpt lat="45.98483" lon="4.56117">
        <ele>635</ele>
        <time>2018-08-05T06:28:52.000Z</time>
      </trkpt>
      <trkpt lat="45.98485" lon="4.56119">
        <ele>635</ele>
        <time>2018-08-05T06:28:53.000Z</time>
      </trkpt>
      <trkpt lat="45.98488" lon="4.56121">
        <ele>636</ele>
        <time>2018-08-05T06:28:54.000Z</time>
      </trkpt>
      <trkpt lat="45.9849" lon="4.56123">
        <ele>636</ele>
        <time>2018-08-05T06:28:55.000Z</time>
      </trkpt>
      <trkpt lat="45.98493" lon="4.56125">
        <ele>636</ele>
        <time>2018-08-05T06:28:56.000Z</time>
      </trkpt>
      <trkpt lat="45.98495" lon="4.56128">
        <ele>637</ele>
        <time>2018-08-05T06:28:57.000Z</time>
      </trkpt>
      <trkpt lat="45.98498" lon="4.5613">
        <ele>637</ele>
        <time>2018-08-05T06:28:58.000Z</time>
      </trkpt>
      <trkpt lat="45.985" lon="4.56133">
        <ele>638</ele>
        <time>2018-08-05T06:28:59.000Z</time>
      </trkpt>
      <trkpt lat="45.98502" lon="4.56136">
        <ele>642</ele>
        <time>2018-08-05T06:29:00.000Z</time>
      </trkpt>
      <trkpt lat="45.98504" lon="4.56139">
        <ele>642</ele>
        <time>2018-08-05T06:29:01.000Z</time>
      </trkpt>
      <trkpt lat="45.98507" lon="4.56141">
        <ele>643</ele>
        <time>2018-08-05T06:29:02.000Z</time>
      </trkpt>
      <trkpt lat="45.98509" lon="4.56144">
        <ele>643</ele>
        <time>2018-08-05T06:29:03.000Z</time>
      </trkpt>
      <trkpt lat="45.98511" lon="4.56147">
        <ele>644</ele>
        <time>2018-08-05T06:29:04.000Z</time>
      </trkpt>
      <trkpt lat="45.98514" lon="4.5615">
        <ele>644</ele>
        <time>2018-08-05T06:29:05.000Z</time>
      </trkpt>
      <trkpt lat="45.98517" lon="4.56154">
        <ele>644</ele>
        <time>2018-08-05T06:29:06.000Z</time>
      </trkpt>
      <trkpt lat="45.9852" lon="4.56157">
        <ele>644</ele>
        <time>2018-08-05T06:29:07.000Z</time>
      </trkpt>
      <trkpt lat="45.98523" lon="4.5616">
        <ele>644</ele>
        <time>2018-08-05T06:29:08.000Z</time>
      </trkpt>
      <trkpt lat="45.98526" lon="4.56162">
        <ele>645</ele>
        <time>2018-08-05T06:29:09.000Z</time>
      </trkpt>
      <trkpt lat="45.98529" lon="4.56164">
        <ele>645</ele>
        <time>2018-08-05T06:29:10.000Z</time>
      </trkpt>
      <trkpt lat="45.98532" lon="4.56166">
        <ele>645</ele>
        <time>2018-08-05T06:29:11.000Z</time>
      </trkpt>
      <trkpt lat="45.98535" lon="4.56168">
        <ele>655</ele>
        <time>2018-08-05T06:29:12.000Z</time>
      </trkpt>
      <trkpt lat="45.98539" lon="4.56169">
        <ele>656</ele>
        <time>2018-08-05T06:29:13.000Z</time>
      </trkpt>
      <trkpt lat="45.98543" lon="4.56169">
        <ele>656</ele>
        <time>2018-08-05T06:29:14.000Z</time>
      </trkpt>
      <trkpt lat="45.98547" lon="4.56168">
        <ele>656</ele>
        <time>2018-08-05T06:29:15.000Z</time>
      </trkpt>
      <trkpt lat="45.98551" lon="4.56167">
        <ele>656</ele>
        <time>2018-08-05T06:29:16.000Z</time>
      </trkpt>
      <trkpt lat="45.98554" lon="4.56165">
        <ele>646</ele>
        <time>2018-08-05T06:29:17.000Z</time>
      </trkpt>
      <trkpt lat="45.98558" lon="4.56162">
        <ele>646</ele>
        <time>2018-08-05T06:29:18.000Z</time>
      </trkpt>
      <trkpt lat="45.98561" lon="4.56159">
        <ele>646</ele>
        <time>2018-08-05T06:29:19.000Z</time>
      </trkpt>
      <trkpt lat="45.98563" lon="4.56155">
        <ele>646</ele>
        <time>2018-08-05T06:29:20.000Z</time>
      </trkpt>
      <trkpt lat="45.98566" lon="4.56151">
        <ele>646</ele>
        <time>2018-08-05T06:29:21.000Z</time>
      </trkpt>
      <trkpt lat="45.98569" lon="4.56147">
        <ele>646</ele>
        <time>2018-08-05T06:29:22.000Z</time>
      </trkpt>
      <trkpt lat="45.98571" lon="4.56142">
        <ele>645</ele>
        <time>2018-08-05T06:29:23.000Z</time>
      </trkpt>
      <trkpt lat="45.98573" lon="4.56138">
        <ele>645</ele>
        <time>2018-08-05T06:29:24.000Z</time>
      </trkpt>
      <trkpt lat="45.98575" lon="4.56134">
        <ele>644</ele>
        <time>2018-08-05T06:29:25.000Z</time>
      </trkpt>
      <trkpt lat="45.98577" lon="4.56129">
        <ele>644</ele>
        <time>2018-08-05T06:29:26.000Z</time>
      </trkpt>
      <trkpt lat="45.98579" lon="4.56125">
        <ele>643</ele>
        <time>2018-08-05T06:29:27.000Z</time>
      </trkpt>
      <trkpt lat="45.9858" lon="4.56121">
        <ele>643</ele>
        <time>2018-08-05T06:29:28.000Z</time>
      </trkpt>
      <trkpt lat="45.98582" lon="4.56117">
        <ele>642</ele>
        <time>2018-08-05T06:29:29.000Z</time>
      </trkpt>
      <trkpt lat="45.98583" lon="4.56112">
        <ele>642</ele>
        <time>2018-08-05T06:29:30.000Z</time>
      </trkpt>
      <trkpt lat="45.98584" lon="4.56108">
        <ele>649</ele>
        <time>2018-08-05T06:29:31.000Z</time>
      </trkpt>
      <trkpt lat="45.98586" lon="4.56104">
        <ele>648</ele>
        <time>2018-08-05T06:29:32.000Z</time>
      </trkpt>
      <trkpt lat="45.98587" lon="4.56099">
        <ele>647</ele>
        <time>2018-08-05T06:29:33.000Z</time>
      </trkpt>
      <trkpt lat="45.98588" lon="4.56095">
        <ele>646</ele>
        <time>2018-08-05T06:29:34.000Z</time>
      </trkpt>
      <trkpt lat="45.9859" lon="4.5609">
        <ele>644</ele>
        <time>2018-08-05T06:29:35.000Z</time>
      </trkpt>
      <trkpt lat="45.98592" lon="4.56085">
        <ele>644</ele>
        <time>2018-08-05T06:29:36.000Z</time>
      </trkpt>
      <trkpt lat="45.98593" lon="4.56081">
        <ele>640</ele>
        <time>2018-08-05T06:29:37.000Z</time>
      </trkpt>
      <trkpt lat="45.98595" lon="4.56075">
        <ele>640</ele>
        <time>2018-08-05T06:29:38.000Z</time>
      </trkpt>
      <trkpt lat="45.98597" lon="4.5607">
        <ele>640</ele>
        <time>2018-08-05T06:29:39.000Z</time>
      </trkpt>
      <trkpt lat="45.98599" lon="4.56066">
        <ele>640</ele>
        <time>2018-08-05T06:29:40.000Z</time>
      </trkpt>
      <trkpt lat="45.98601" lon="4.56061">
        <ele>640</ele>
        <time>2018-08-05T06:29:41.000Z</time>
      </trkpt>
      <trkpt lat="45.98603" lon="4.56056">
        <ele>640</ele>
        <time>2018-08-05T06:29:42.000Z</time>
      </trkpt>
      <trkpt lat="45.98605" lon="4.56052">
        <ele>640</ele>
        <time>2018-08-05T06:29:43.000Z</time>
      </trkpt>
      <trkpt lat="45.98608" lon="4.56048">
        <ele>640</ele>
        <time>2018-08-05T06:29:44.000Z</time>
      </trkpt>
      <trkpt lat="45.9861" lon="4.56043">
        <ele>640</ele>
        <time>2018-08-05T06:29:45.000Z</time>
      </trkpt>
      <trkpt lat="45.98613" lon="4.56039">
        <ele>640</ele>
        <time>2018-08-05T06:29:46.000Z</time>
      </trkpt>
      <trkpt lat="45.98615" lon="4.56036">
        <ele>639</ele>
        <time>2018-08-05T06:29:47.000Z</time>
      </trkpt>
      <trkpt lat="45.98618" lon="4.56032">
        <ele>639</ele>
        <time>2018-08-05T06:29:48.000Z</time>
      </trkpt>
      <trkpt lat="45.9862" lon="4.56028">
        <ele>639</ele>
        <time>2018-08-05T06:29:49.000Z</time>
      </trkpt>
      <trkpt lat="45.98623" lon="4.56024">
        <ele>639</ele>
        <time>2018-08-05T06:29:50.000Z</time>
      </trkpt>
      <trkpt lat="45.98625" lon="4.5602">
        <ele>639</ele>
        <time>2018-08-05T06:29:51.000Z</time>
      </trkpt>
      <trkpt lat="45.98628" lon="4.56017">
        <ele>639</ele>
        <time>2018-08-05T06:29:52.000Z</time>
      </trkpt>
      <trkpt lat="45.98631" lon="4.56014">
        <ele>639</ele>
        <time>2018-08-05T06:29:53.000Z</time>
      </trkpt>
      <trkpt lat="45.98634" lon="4.56011">
        <ele>639</ele>
        <time>2018-08-05T06:29:54.000Z</time>
      </trkpt>
      <trkpt lat="45.98638" lon="4.56008">
        <ele>640</ele>
        <time>2018-08-05T06:29:55.000Z</time>
      </trkpt>
      <trkpt lat="45.98641" lon="4.56005">
        <ele>640</ele>
        <time>2018-08-05T06:29:56.000Z</time>
      </trkpt>
      <trkpt lat="45.98644" lon="4.56003">
        <ele>640</ele>
        <time>2018-08-05T06:29:57.000Z</time>
      </trkpt>
      <trkpt lat="45.98648" lon="4.56002">
        <ele>640</ele>
        <time>2018-08-05T06:29:58.000Z</time>
      </trkpt>
      <trkpt lat="45.98651" lon="4.56">
        <ele>640</ele>
        <time>2018-08-05T06:29:59.000Z</time>
      </trkpt>
      <trkpt lat="45.98655" lon="4.55999">
        <ele>634</ele>
        <time>2018-08-05T06:30:00.000Z</time>
      </trkpt>
      <trkpt lat="45.98658" lon="4.55998">
        <ele>636</ele>
        <time>2018-08-05T06:30:01.000Z</time>
      </trkpt>
      <trkpt lat="45.98662" lon="4.55998">
        <ele>637</ele>
        <time>2018-08-05T06:30:02.000Z</time>
      </trkpt>
      <trkpt lat="45.98665" lon="4.55997">
        <ele>638</ele>
        <time>2018-08-05T06:30:03.000Z</time>
      </trkpt>
      <trkpt lat="45.98669" lon="4.55997">
        <ele>638</ele>
        <time>2018-08-05T06:30:04.000Z</time>
      </trkpt>
      <trkpt lat="45.98672" lon="4.55997">
        <ele>638</ele>
        <time>2018-08-05T06:30:05.000Z</time>
      </trkpt>
      <trkpt lat="45.98676" lon="4.55998">
        <ele>637</ele>
        <time>2018-08-05T06:30:06.000Z</time>
      </trkpt>
      <trkpt lat="45.98679" lon="4.55999">
        <ele>636</ele>
        <time>2018-08-05T06:30:07.000Z</time>
      </trkpt>
      <trkpt lat="45.98682" lon="4.56">
        <ele>642</ele>
        <time>2018-08-05T06:30:08.000Z</time>
      </trkpt>
      <trkpt lat="45.98686" lon="4.56002">
        <ele>643</ele>
        <time>2018-08-05T06:30:09.000Z</time>
      </trkpt>
      <trkpt lat="45.98689" lon="4.56003">
        <ele>643</ele>
        <time>2018-08-05T06:30:10.000Z</time>
      </trkpt>
      <trkpt lat="45.98692" lon="4.56005">
        <ele>643</ele>
        <time>2018-08-05T06:30:11.000Z</time>
      </trkpt>
      <trkpt lat="45.98695" lon="4.56007">
        <ele>643</ele>
        <time>2018-08-05T06:30:12.000Z</time>
      </trkpt>
      <trkpt lat="45.98698" lon="4.56009">
        <ele>643</ele>
        <time>2018-08-05T06:30:13.000Z</time>
      </trkpt>
      <trkpt lat="45.98701" lon="4.56011">
        <ele>643</ele>
        <time>2018-08-05T06:30:14.000Z</time>
      </trkpt>
      <trkpt lat="45.98704" lon="4.56014">
        <ele>644</ele>
        <time>2018-08-05T06:30:15.000Z</time>
      </trkpt>
      <trkpt lat="45.98707" lon="4.56016">
        <ele>644</ele>
        <time>2018-08-05T06:30:16.000Z</time>
      </trkpt>
      <trkpt lat="45.9871" lon="4.56019">
        <ele>644</ele>
        <time>2018-08-05T06:30:17.000Z</time>
      </trkpt>
      <trkpt lat="45.98712" lon="4.56021">
        <ele>644</ele>
        <time>2018-08-05T06:30:18.000Z</time>
      </trkpt>
      <trkpt lat="45.98715" lon="4.56024">
        <ele>644</ele>
        <time>2018-08-05T06:30:19.000Z</time>
      </trkpt>
      <trkpt lat="45.98718" lon="4.56027">
        <ele>644</ele>
        <time>2018-08-05T06:30:20.000Z</time>
      </trkpt>
      <trkpt lat="45.98721" lon="4.5603">
        <ele>644</ele>
        <time>2018-08-05T06:30:21.000Z</time>
      </trkpt>
      <trkpt lat="45.98723" lon="4.56033">
        <ele>644</ele>
        <time>2018-08-05T06:30:22.000Z</time>
      </trkpt>
      <trkpt lat="45.98726" lon="4.56035">
        <ele>645</ele>
        <time>2018-08-05T06:30:23.000Z</time>
      </trkpt>
      <trkpt lat="45.98729" lon="4.56038">
        <ele>645</ele>
        <time>2018-08-05T06:30:24.000Z</time>
      </trkpt>
      <trkpt lat="45.98731" lon="4.56041">
        <ele>645</ele>
        <time>2018-08-05T06:30:25.000Z</time>
      </trkpt>
      <trkpt lat="45.98734" lon="4.56044">
        <ele>646</ele>
        <time>2018-08-05T06:30:26.000Z</time>
      </trkpt>
      <trkpt lat="45.98736" lon="4.56047">
        <ele>646</ele>
        <time>2018-08-05T06:30:27.000Z</time>
      </trkpt>
      <trkpt lat="45.98738" lon="4.56049">
        <ele>646</ele>
        <time>2018-08-05T06:30:28.000Z</time>
      </trkpt>
      <trkpt lat="45.98741" lon="4.56052">
        <ele>647</ele>
        <time>2018-08-05T06:30:29.000Z</time>
      </trkpt>
      <trkpt lat="45.98744" lon="4.56056">
        <ele>647</ele>
        <time>2018-08-05T06:30:30.000Z</time>
      </trkpt>
      <trkpt lat="45.98747" lon="4.56059">
        <ele>648</ele>
        <time>2018-08-05T06:30:31.000Z</time>
      </trkpt>
      <trkpt lat="45.9875" lon="4.56063">
        <ele>649</ele>
        <time>2018-08-05T06:30:32.000Z</time>
      </trkpt>
      <trkpt lat="45.98752" lon="4.56066">
        <ele>644</ele>
        <time>2018-08-05T06:30:33.000Z</time>
      </trkpt>
      <trkpt lat="45.98755" lon="4.56069">
        <ele>645</ele>
        <time>2018-08-05T06:30:34.000Z</time>
      </trkpt>
      <trkpt lat="45.98758" lon="4.56073">
        <ele>645</ele>
        <time>2018-08-05T06:30:35.000Z</time>
      </trkpt>
      <trkpt lat="45.98761" lon="4.56076">
        <ele>645</ele>
        <time>2018-08-05T06:30:36.000Z</time>
      </trkpt>
      <trkpt lat="45.98764" lon="4.56079">
        <ele>645</ele>
        <time>2018-08-05T06:30:37.000Z</time>
      </trkpt>
      <trkpt lat="45.98767" lon="4.56082">
        <ele>644</ele>
        <time>2018-08-05T06:30:38.000Z</time>
      </trkpt>
      <trkpt lat="45.9877" lon="4.56086">
        <ele>652</ele>
        <time>2018-08-05T06:30:39.000Z</time>
      </trkpt>
      <trkpt lat="45.98773" lon="4.56089">
        <ele>652</ele>
        <time>2018-08-05T06:30:40.000Z</time>
      </trkpt>
      <trkpt lat="45.98775" lon="4.56092">
        <ele>652</ele>
        <time>2018-08-05T06:30:41.000Z</time>
      </trkpt>
      <trkpt lat="45.98778" lon="4.56095">
        <ele>652</ele>
        <time>2018-08-05T06:30:42.000Z</time>
      </trkpt>
      <trkpt lat="45.98781" lon="4.56098">
        <ele>652</ele>
        <time>2018-08-05T06:30:43.000Z</time>
      </trkpt>
      <trkpt lat="45.98783" lon="4.56102">
        <ele>652</ele>
        <time>2018-08-05T06:30:44.000Z</time>
      </trkpt>
      <trkpt lat="45.98786" lon="4.56105">
        <ele>652</ele>
        <time>2018-08-05T06:30:45.000Z</time>
      </trkpt>
      <trkpt lat="45.98788" lon="4.56108">
        <ele>652</ele>
        <time>2018-08-05T06:30:46.000Z</time>
      </trkpt>
      <trkpt lat="45.98791" lon="4.5611">
        <ele>652</ele>
        <time>2018-08-05T06:30:47.000Z</time>
      </trkpt>
      <trkpt lat="45.98793" lon="4.56113">
        <ele>652</ele>
        <time>2018-08-05T06:30:48.000Z</time>
      </trkpt>
      <trkpt lat="45.98796" lon="4.56116">
        <ele>652</ele>
        <time>2018-08-05T06:30:49.000Z</time>
      </trkpt>
      <trkpt lat="45.98798" lon="4.56119">
        <ele>652</ele>
        <time>2018-08-05T06:30:50.000Z</time>
      </trkpt>
      <trkpt lat="45.98801" lon="4.56122">
        <ele>652</ele>
        <time>2018-08-05T06:30:51.000Z</time>
      </trkpt>
      <trkpt lat="45.98804" lon="4.56125">
        <ele>652</ele>
        <time>2018-08-05T06:30:52.000Z</time>
      </trkpt>
      <trkpt lat="45.98806" lon="4.56129">
        <ele>652</ele>
        <time>2018-08-05T06:30:53.000Z</time>
      </trkpt>
      <trkpt lat="45.98809" lon="4.56131">
        <ele>653</ele>
        <time>2018-08-05T06:30:54.000Z</time>
      </trkpt>
      <trkpt lat="45.98812" lon="4.56135">
        <ele>653</ele>
        <time>2018-08-05T06:30:55.000Z</time>
      </trkpt>
      <trkpt lat="45.98814" lon="4.56138">
        <ele>653</ele>
        <time>2018-08-05T06:30:56.000Z</time>
      </trkpt>
      <trkpt lat="45.98817" lon="4.5614">
        <ele>653</ele>
        <time>2018-08-05T06:30:57.000Z</time>
      </trkpt>
      <trkpt lat="45.9882" lon="4.56143">
        <ele>653</ele>
        <time>2018-08-05T06:30:58.000Z</time>
      </trkpt>
      <trkpt lat="45.98822" lon="4.56146">
        <ele>654</ele>
        <time>2018-08-05T06:30:59.000Z</time>
      </trkpt>
      <trkpt lat="45.98825" lon="4.56149">
        <ele>654</ele>
        <time>2018-08-05T06:31:00.000Z</time>
      </trkpt>
      <trkpt lat="45.98828" lon="4.56152">
        <ele>654</ele>
        <time>2018-08-05T06:31:01.000Z</time>
      </trkpt>
      <trkpt lat="45.98831" lon="4.56155">
        <ele>654</ele>
        <time>2018-08-05T06:31:02.000Z</time>
      </trkpt>
      <trkpt lat="45.98833" lon="4.56157">
        <ele>654</ele>
        <time>2018-08-05T06:31:03.000Z</time>
      </trkpt>
      <trkpt lat="45.98836" lon="4.5616">
        <ele>653</ele>
        <time>2018-08-05T06:31:04.000Z</time>
      </trkpt>
      <trkpt lat="45.98838" lon="4.56163">
        <ele>653</ele>
        <time>2018-08-05T06:31:05.000Z</time>
      </trkpt>
      <trkpt lat="45.9884" lon="4.56166">
        <ele>653</ele>
        <time>2018-08-05T06:31:06.000Z</time>
      </trkpt>
      <trkpt lat="45.98843" lon="4.56168">
        <ele>657</ele>
        <time>2018-08-05T06:31:07.000Z</time>
      </trkpt>
      <trkpt lat="45.98845" lon="4.56171">
        <ele>658</ele>
        <time>2018-08-05T06:31:08.000Z</time>
      </trkpt>
      <trkpt lat="45.98848" lon="4.56174">
        <ele>659</ele>
        <time>2018-08-05T06:31:09.000Z</time>
      </trkpt>
      <trkpt lat="45.98851" lon="4.56177">
        <ele>659</ele>
        <time>2018-08-05T06:31:10.000Z</time>
      </trkpt>
      <trkpt lat="45.98854" lon="4.5618">
        <ele>660</ele>
        <time>2018-08-05T06:31:11.000Z</time>
      </trkpt>
      <trkpt lat="45.98856" lon="4.56183">
        <ele>660</ele>
        <time>2018-08-05T06:31:12.000Z</time>
      </trkpt>
      <trkpt lat="45.98859" lon="4.56186">
        <ele>661</ele>
        <time>2018-08-05T06:31:13.000Z</time>
      </trkpt>
      <trkpt lat="45.98862" lon="4.56188">
        <ele>661</ele>
        <time>2018-08-05T06:31:14.000Z</time>
      </trkpt>
      <trkpt lat="45.98866" lon="4.56191">
        <ele>661</ele>
        <time>2018-08-05T06:31:15.000Z</time>
      </trkpt>
      <trkpt lat="45.98869" lon="4.56193">
        <ele>662</ele>
        <time>2018-08-05T06:31:16.000Z</time>
      </trkpt>
      <trkpt lat="45.98872" lon="4.56196">
        <ele>662</ele>
        <time>2018-08-05T06:31:17.000Z</time>
      </trkpt>
      <trkpt lat="45.98876" lon="4.56198">
        <ele>662</ele>
        <time>2018-08-05T06:31:18.000Z</time>
      </trkpt>
      <trkpt lat="45.98879" lon="4.56199">
        <ele>662</ele>
        <time>2018-08-05T06:31:19.000Z</time>
      </trkpt>
      <trkpt lat="45.98883" lon="4.562">
        <ele>662</ele>
        <time>2018-08-05T06:31:20.000Z</time>
      </trkpt>
      <trkpt lat="45.98886" lon="4.56201">
        <ele>662</ele>
        <time>2018-08-05T06:31:21.000Z</time>
      </trkpt>
      <trkpt lat="45.9889" lon="4.56202">
        <ele>662</ele>
        <time>2018-08-05T06:31:22.000Z</time>
      </trkpt>
      <trkpt lat="45.98893" lon="4.56202">
        <ele>662</ele>
        <time>2018-08-05T06:31:23.000Z</time>
      </trkpt>
      <trkpt lat="45.98897" lon="4.56202">
        <ele>662</ele>
        <time>2018-08-05T06:31:24.000Z</time>
      </trkpt>
      <trkpt lat="45.989" lon="4.56202">
        <ele>662</ele>
        <time>2018-08-05T06:31:25.000Z</time>
      </trkpt>
      <trkpt lat="45.98904" lon="4.56201">
        <ele>662</ele>
        <time>2018-08-05T06:31:26.000Z</time>
      </trkpt>
      <trkpt lat="45.98907" lon="4.562">
        <ele>662</ele>
        <time>2018-08-05T06:31:27.000Z</time>
      </trkpt>
      <trkpt lat="45.9891" lon="4.562">
        <ele>661</ele>
        <time>2018-08-05T06:31:28.000Z</time>
      </trkpt>
      <trkpt lat="45.98913" lon="4.56199">
        <ele>661</ele>
        <time>2018-08-05T06:31:29.000Z</time>
      </trkpt>
      <trkpt lat="45.98916" lon="4.56197">
        <ele>661</ele>
        <time>2018-08-05T06:31:30.000Z</time>
      </trkpt>
      <trkpt lat="45.98919" lon="4.56195">
        <ele>665</ele>
        <time>2018-08-05T06:31:31.000Z</time>
      </trkpt>
      <trkpt lat="45.98922" lon="4.56194">
        <ele>665</ele>
        <time>2018-08-05T06:31:32.000Z</time>
      </trkpt>
      <trkpt lat="45.98925" lon="4.56192">
        <ele>664</ele>
        <time>2018-08-05T06:31:33.000Z</time>
      </trkpt>
      <trkpt lat="45.98928" lon="4.5619">
        <ele>664</ele>
        <time>2018-08-05T06:31:34.000Z</time>
      </trkpt>
      <trkpt lat="45.9893" lon="4.56187">
        <ele>664</ele>
        <time>2018-08-05T06:31:35.000Z</time>
      </trkpt>
      <trkpt lat="45.98933" lon="4.56185">
        <ele>664</ele>
        <time>2018-08-05T06:31:36.000Z</time>
      </trkpt>
      <trkpt lat="45.98936" lon="4.56182">
        <ele>664</ele>
        <time>2018-08-05T06:31:37.000Z</time>
      </trkpt>
      <trkpt lat="45.98938" lon="4.5618">
        <ele>664</ele>
        <time>2018-08-05T06:31:38.000Z</time>
      </trkpt>
      <trkpt lat="45.98941" lon="4.56177">
        <ele>665</ele>
        <time>2018-08-05T06:31:39.000Z</time>
      </trkpt>
      <trkpt lat="45.98944" lon="4.56174">
        <ele>665</ele>
        <time>2018-08-05T06:31:40.000Z</time>
      </trkpt>
      <trkpt lat="45.98946" lon="4.56172">
        <ele>665</ele>
        <time>2018-08-05T06:31:41.000Z</time>
      </trkpt>
      <trkpt lat="45.98949" lon="4.5617">
        <ele>666</ele>
        <time>2018-08-05T06:31:42.000Z</time>
      </trkpt>
      <trkpt lat="45.98952" lon="4.56167">
        <ele>666</ele>
        <time>2018-08-05T06:31:43.000Z</time>
      </trkpt>
      <trkpt lat="45.98955" lon="4.56165">
        <ele>657</ele>
        <time>2018-08-05T06:31:44.000Z</time>
      </trkpt>
      <trkpt lat="45.98957" lon="4.56163">
        <ele>658</ele>
        <time>2018-08-05T06:31:45.000Z</time>
      </trkpt>
      <trkpt lat="45.9896" lon="4.5616">
        <ele>658</ele>
        <time>2018-08-05T06:31:46.000Z</time>
      </trkpt>
      <trkpt lat="45.98963" lon="4.56158">
        <ele>659</ele>
        <time>2018-08-05T06:31:47.000Z</time>
      </trkpt>
      <trkpt lat="45.98966" lon="4.56156">
        <ele>659</ele>
        <time>2018-08-05T06:31:48.000Z</time>
      </trkpt>
      <trkpt lat="45.98969" lon="4.56155">
        <ele>659</ele>
        <time>2018-08-05T06:31:49.000Z</time>
      </trkpt>
      <trkpt lat="45.98972" lon="4.56153">
        <ele>660</ele>
        <time>2018-08-05T06:31:50.000Z</time>
      </trkpt>
      <trkpt lat="45.98975" lon="4.56151">
        <ele>660</ele>
        <time>2018-08-05T06:31:51.000Z</time>
      </trkpt>
      <trkpt lat="45.98978" lon="4.56149">
        <ele>661</ele>
        <time>2018-08-05T06:31:52.000Z</time>
      </trkpt>
      <trkpt lat="45.98981" lon="4.56147">
        <ele>661</ele>
        <time>2018-08-05T06:31:53.000Z</time>
      </trkpt>
      <trkpt lat="45.98984" lon="4.56146">
        <ele>661</ele>
        <time>2018-08-05T06:31:54.000Z</time>
      </trkpt>
      <trkpt lat="45.98987" lon="4.56144">
        <ele>661</ele>
        <time>2018-08-05T06:31:55.000Z</time>
      </trkpt>
      <trkpt lat="45.9899" lon="4.56143">
        <ele>661</ele>
        <time>2018-08-05T06:31:56.000Z</time>
      </trkpt>
      <trkpt lat="45.98993" lon="4.56141">
        <ele>661</ele>
        <time>2018-08-05T06:31:57.000Z</time>
      </trkpt>
      <trkpt lat="45.98995" lon="4.56139">
        <ele>661</ele>
        <time>2018-08-05T06:31:58.000Z</time>
      </trkpt>
      <trkpt lat="45.98998" lon="4.56137">
        <ele>661</ele>
        <time>2018-08-05T06:31:59.000Z</time>
      </trkpt>
      <trkpt lat="45.99" lon="4.56135">
        <ele>671</ele>
        <time>2018-08-05T06:32:00.000Z</time>
      </trkpt>
      <trkpt lat="45.99003" lon="4.56133">
        <ele>671</ele>
        <time>2018-08-05T06:32:01.000Z</time>
      </trkpt>
      <trkpt lat="45.99005" lon="4.56131">
        <ele>671</ele>
        <time>2018-08-05T06:32:02.000Z</time>
      </trkpt>
      <trkpt lat="45.99008" lon="4.56129">
        <ele>671</ele>
        <time>2018-08-05T06:32:03.000Z</time>
      </trkpt>
      <trkpt lat="45.9901" lon="4.56126">
        <ele>671</ele>
        <time>2018-08-05T06:32:04.000Z</time>
      </trkpt>
      <trkpt lat="45.99013" lon="4.56124">
        <ele>671</ele>
        <time>2018-08-05T06:32:05.000Z</time>
      </trkpt>
      <trkpt lat="45.99015" lon="4.56122">
        <ele>671</ele>
        <time>2018-08-05T06:32:06.000Z</time>
      </trkpt>
      <trkpt lat="45.99018" lon="4.5612">
        <ele>670</ele>
        <time>2018-08-05T06:32:07.000Z</time>
      </trkpt>
      <trkpt lat="45.9902" lon="4.56117">
        <ele>670</ele>
        <time>2018-08-05T06:32:08.000Z</time>
      </trkpt>
      <trkpt lat="45.99023" lon="4.56115">
        <ele>670</ele>
        <time>2018-08-05T06:32:09.000Z</time>
      </trkpt>
      <trkpt lat="45.99025" lon="4.56113">
        <ele>670</ele>
        <time>2018-08-05T06:32:10.000Z</time>
      </trkpt>
      <trkpt lat="45.99028" lon="4.56112">
        <ele>671</ele>
        <time>2018-08-05T06:32:11.000Z</time>
      </trkpt>
      <trkpt lat="45.99031" lon="4.5611">
        <ele>671</ele>
        <time>2018-08-05T06:32:12.000Z</time>
      </trkpt>
      <trkpt lat="45.99034" lon="4.56109">
        <ele>671</ele>
        <time>2018-08-05T06:32:13.000Z</time>
      </trkpt>
      <trkpt lat="45.99037" lon="4.56107">
        <ele>671</ele>
        <time>2018-08-05T06:32:14.000Z</time>
      </trkpt>
      <trkpt lat="45.9904" lon="4.56106">
        <ele>672</ele>
        <time>2018-08-05T06:32:15.000Z</time>
      </trkpt>
      <trkpt lat="45.99043" lon="4.56105">
        <ele>672</ele>
        <time>2018-08-05T06:32:16.000Z</time>
      </trkpt>
      <trkpt lat="45.99046" lon="4.56104">
        <ele>672</ele>
        <time>2018-08-05T06:32:17.000Z</time>
      </trkpt>
      <trkpt lat="45.99048" lon="4.56102">
        <ele>672</ele>
        <time>2018-08-05T06:32:18.000Z</time>
      </trkpt>
      <trkpt lat="45.99051" lon="4.56101">
        <ele>673</ele>
        <time>2018-08-05T06:32:19.000Z</time>
      </trkpt>
      <trkpt lat="45.99053" lon="4.56098">
        <ele>673</ele>
        <time>2018-08-05T06:32:20.000Z</time>
      </trkpt>
      <trkpt lat="45.99055" lon="4.56096">
        <ele>673</ele>
        <time>2018-08-05T06:32:21.000Z</time>
      </trkpt>
      <trkpt lat="45.99057" lon="4.56093">
        <ele>673</ele>
        <time>2018-08-05T06:32:22.000Z</time>
      </trkpt>
      <trkpt lat="45.99059" lon="4.5609">
        <ele>673</ele>
        <time>2018-08-05T06:32:23.000Z</time>
      </trkpt>
      <trkpt lat="45.99061" lon="4.56087">
        <ele>673</ele>
        <time>2018-08-05T06:32:24.000Z</time>
      </trkpt>
      <trkpt lat="45.99064" lon="4.56085">
        <ele>673</ele>
        <time>2018-08-05T06:32:25.000Z</time>
      </trkpt>
      <trkpt lat="45.99066" lon="4.56082">
        <ele>669</ele>
        <time>2018-08-05T06:32:26.000Z</time>
      </trkpt>
      <trkpt lat="45.99068" lon="4.56079">
        <ele>669</ele>
        <time>2018-08-05T06:32:27.000Z</time>
      </trkpt>
      <trkpt lat="45.99071" lon="4.56077">
        <ele>670</ele>
        <time>2018-08-05T06:32:28.000Z</time>
      </trkpt>
      <trkpt lat="45.99074" lon="4.56074">
        <ele>670</ele>
        <time>2018-08-05T06:32:29.000Z</time>
      </trkpt>
      <trkpt lat="45.99076" lon="4.56071">
        <ele>670</ele>
        <time>2018-08-05T06:32:30.000Z</time>
      </trkpt>
      <trkpt lat="45.99079" lon="4.56069">
        <ele>670</ele>
        <time>2018-08-05T06:32:31.000Z</time>
      </trkpt>
      <trkpt lat="45.99081" lon="4.56066">
        <ele>669</ele>
        <time>2018-08-05T06:32:32.000Z</time>
      </trkpt>
      <trkpt lat="45.99084" lon="4.56063">
        <ele>679</ele>
        <time>2018-08-05T06:32:33.000Z</time>
      </trkpt>
      <trkpt lat="45.99086" lon="4.5606">
        <ele>679</ele>
        <time>2018-08-05T06:32:34.000Z</time>
      </trkpt>
      <trkpt lat="45.99089" lon="4.56057">
        <ele>680</ele>
        <time>2018-08-05T06:32:35.000Z</time>
      </trkpt>
      <trkpt lat="45.99091" lon="4.56054">
        <ele>680</ele>
        <time>2018-08-05T06:32:36.000Z</time>
      </trkpt>
      <trkpt lat="45.99093" lon="4.56051">
        <ele>680</ele>
        <time>2018-08-05T06:32:37.000Z</time>
      </trkpt>
      <trkpt lat="45.99095" lon="4.56048">
        <ele>680</ele>
        <time>2018-08-05T06:32:38.000Z</time>
      </trkpt>
      <trkpt lat="45.99097" lon="4.56044">
        <ele>680</ele>
        <time>2018-08-05T06:32:39.000Z</time>
      </trkpt>
      <trkpt lat="45.99099" lon="4.56041">
        <ele>680</ele>
        <time>2018-08-05T06:32:40.000Z</time>
      </trkpt>
      <trkpt lat="45.99101" lon="4.56037">
        <ele>680</ele>
        <time>2018-08-05T06:32:41.000Z</time>
      </trkpt>
      <trkpt lat="45.99102" lon="4.56033">
        <ele>680</ele>
        <time>2018-08-05T06:32:42.000Z</time>
      </trkpt>
      <trkpt lat="45.99103" lon="4.56029">
        <ele>680</ele>
        <time>2018-08-05T06:32:43.000Z</time>
      </trkpt>
      <trkpt lat="45.99103" lon="4.56025">
        <ele>679</ele>
        <time>2018-08-05T06:32:44.000Z</time>
      </trkpt>
      <trkpt lat="45.99104" lon="4.56021">
        <ele>679</ele>
        <time>2018-08-05T06:32:45.000Z</time>
      </trkpt>
      <trkpt lat="45.99105" lon="4.56017">
        <ele>679</ele>
        <time>2018-08-05T06:32:46.000Z</time>
      </trkpt>
      <trkpt lat="45.99105" lon="4.56013">
        <ele>678</ele>
        <time>2018-08-05T06:32:47.000Z</time>
      </trkpt>
      <trkpt lat="45.99106" lon="4.56008">
        <ele>678</ele>
        <time>2018-08-05T06:32:48.000Z</time>
      </trkpt>
      <trkpt lat="45.99106" lon="4.56004">
        <ele>678</ele>
        <time>2018-08-05T06:32:49.000Z</time>
      </trkpt>
      <trkpt lat="45.99106" lon="4.55999">
        <ele>674</ele>
        <time>2018-08-05T06:32:50.000Z</time>
      </trkpt>
      <trkpt lat="45.99105" lon="4.55995">
        <ele>674</ele>
        <time>2018-08-05T06:32:51.000Z</time>
      </trkpt>
      <trkpt lat="45.99105" lon="4.5599">
        <ele>674</ele>
        <time>2018-08-05T06:32:52.000Z</time>
      </trkpt>
      <trkpt lat="45.99104" lon="4.55986">
        <ele>675</ele>
        <time>2018-08-05T06:32:53.000Z</time>
      </trkpt>
      <trkpt lat="45.99104" lon="4.55981">
        <ele>675</ele>
        <time>2018-08-05T06:32:54.000Z</time>
      </trkpt>
      <trkpt lat="45.99103" lon="4.55977">
        <ele>675</ele>
        <time>2018-08-05T06:32:55.000Z</time>
      </trkpt>
      <trkpt lat="45.99103" lon="4.55972">
        <ele>675</ele>
        <time>2018-08-05T06:32:56.000Z</time>
      </trkpt>
      <trkpt lat="45.99103" lon="4.55967">
        <ele>675</ele>
        <time>2018-08-05T06:32:57.000Z</time>
      </trkpt>
      <trkpt lat="45.99103" lon="4.55961">
        <ele>675</ele>
        <time>2018-08-05T06:32:58.000Z</time>
      </trkpt>
      <trkpt lat="45.99102" lon="4.55957">
        <ele>675</ele>
        <time>2018-08-05T06:32:59.000Z</time>
      </trkpt>
      <trkpt lat="45.99102" lon="4.55954">
        <ele>675</ele>
        <time>2018-08-05T06:33:00.000Z</time>
      </trkpt>
      <trkpt lat="45.99102" lon="4.5595">
        <ele>675</ele>
        <time>2018-08-05T06:33:01.000Z</time>
      </trkpt>
      <trkpt lat="45.99103" lon="4.55948">
        <ele>675</ele>
        <time>2018-08-05T06:33:02.000Z</time>
      </trkpt>
      <trkpt lat="45.99104" lon="4.55945">
        <ele>675</ele>
        <time>2018-08-05T06:33:03.000Z</time>
      </trkpt>
      <trkpt lat="45.99105" lon="4.55944">
        <ele>675</ele>
        <time>2018-08-05T06:33:04.000Z</time>
      </trkpt>
      <trkpt lat="45.99105" lon="4.55943">
        <ele>675</ele>
        <time>2018-08-05T06:33:05.000Z</time>
      </trkpt>
      <trkpt lat="45.99104" lon="4.55944">
        <ele>675</ele>
        <time>2018-08-05T06:33:06.000Z</time>
      </trkpt>
      <trkpt lat="45.99104" lon="4.55946">
        <ele>675</ele>
        <time>2018-08-05T06:33:07.000Z</time>
      </trkpt>
      <trkpt lat="45.99104" lon="4.55947">
        <ele>675</ele>
        <time>2018-08-05T06:33:08.000Z</time>
      </trkpt>
      <trkpt lat="45.99104" lon="4.55949">
        <ele>675</ele>
        <time>2018-08-05T06:33:09.000Z</time>
      </trkpt>
      <trkpt lat="45.99104" lon="4.55951">
        <ele>675</ele>
        <time>2018-08-05T06:33:10.000Z</time>
      </trkpt>
      <trkpt lat="45.99104" lon="4.55952">
        <ele>675</ele>
        <time>2018-08-05T06:33:11.000Z</time>
      </trkpt>
      <trkpt lat="45.99104" lon="4.55953">
        <ele>675</ele>
        <time>2018-08-05T06:33:12.000Z</time>
      </trkpt>
      <trkpt lat="45.99104" lon="4.55954">
        <ele>675</ele>
        <time>2018-08-05T06:33:13.000Z</time>
      </trkpt>
      <trkpt lat="45.99104" lon="4.55955">
        <ele>675</ele>
        <time>2018-08-05T06:33:14.000Z</time>
      </trkpt>
      <trkpt lat="45.99103" lon="4.55956">
        <ele>675</ele>
        <time>2018-08-05T06:33:15.000Z</time>
      </trkpt>
      <trkpt lat="45.99102" lon="4.55957">
        <ele>675</ele>
        <time>2018-08-05T06:33:16.000Z</time>
      </trkpt>
      <trkpt lat="45.99102" lon="4.55956">
        <ele>675</ele>
        <time>2018-08-05T06:33:17.000Z</time>
      </trkpt>
      <trkpt lat="45.99101" lon="4.55956">
        <ele>675</ele>
        <time>2018-08-05T06:33:18.000Z</time>
      </trkpt>
      <trkpt lat="45.99101" lon="4.55956">
        <ele>675</ele>
        <time>2018-08-05T06:33:19.000Z</time>
      </trkpt>
      <trkpt lat="45.991" lon="4.55956">
        <ele>675</ele>
        <time>2018-08-05T06:33:20.000Z</time>
      </trkpt>
      <trkpt lat="45.99099" lon="4.55956">
        <ele>675</ele>
        <time>2018-08-05T06:33:21.000Z</time>
      </trkpt>
      <trkpt lat="45.99099" lon="4.55955">
        <ele>675</ele>
        <time>2018-08-05T06:33:22.000Z</time>
      </trkpt>
      <trkpt lat="45.99099" lon="4.55954">
        <ele>675</ele>
        <time>2018-08-05T06:33:23.000Z</time>
      </trkpt>
      <trkpt lat="45.99099" lon="4.55953">
        <ele>675</ele>
        <time>2018-08-05T06:33:24.000Z</time>
      </trkpt>
      <trkpt lat="45.99099" lon="4.55953">
        <ele>675</ele>
        <time>2018-08-05T06:33:25.000Z</time>
      </trkpt>
      <trkpt lat="45.99099" lon="4.55952">
        <ele>675</ele>
        <time>2018-08-05T06:33:26.000Z</time>
      </trkpt>
      <trkpt lat="45.991" lon="4.55952">
        <ele>675</ele>
        <time>2018-08-05T06:33:27.000Z</time>
      </trkpt>
      <trkpt lat="45.99101" lon="4.55951">
        <ele>675</ele>
        <time>2018-08-05T06:33:28.000Z</time>
      </trkpt>
      <trkpt lat="45.99101" lon="4.55951">
        <ele>675</ele>
        <time>2018-08-05T06:33:29.000Z</time>
      </trkpt>
      <trkpt lat="45.99102" lon="4.5595">
        <ele>675</ele>
        <time>2018-08-05T06:33:30.000Z</time>
      </trkpt>
      <trkpt lat="45.99102" lon="4.55949">
        <ele>675</ele>
        <time>2018-08-05T06:33:31.000Z</time>
      </trkpt>
      <trkpt lat="45.99102" lon="4.55948">
        <ele>675</ele>
        <time>2018-08-05T06:33:32.000Z</time>
      </trkpt>
      <trkpt lat="45.99103" lon="4.55947">
        <ele>675</ele>
        <time>2018-08-05T06:33:33.000Z</time>
      </trkpt>
      <trkpt lat="45.99103" lon="4.55946">
        <ele>675</ele>
        <time>2018-08-05T06:33:34.000Z</time>
      </trkpt>
      <trkpt lat="45.99103" lon="4.55944">
        <ele>675</ele>
        <time>2018-08-05T06:33:35.000Z</time>
      </trkpt>
      <trkpt lat="45.99103" lon="4.55942">
        <ele>675</ele>
        <time>2018-08-05T06:33:36.000Z</time>
      </trkpt>
      <trkpt lat="45.99104" lon="4.5594">
        <ele>675</ele>
        <time>2018-08-05T06:33:37.000Z</time>
      </trkpt>
      <trkpt lat="45.99104" lon="4.55937">
        <ele>675</ele>
        <time>2018-08-05T06:33:38.000Z</time>
      </trkpt>
      <trkpt lat="45.99105" lon="4.55934">
        <ele>675</ele>
        <time>2018-08-05T06:33:39.000Z</time>
      </trkpt>
      <trkpt lat="45.99107" lon="4.55932">
        <ele>675</ele>
        <time>2018-08-05T06:33:40.000Z</time>
      </trkpt>
      <trkpt lat="45.99108" lon="4.55929">
        <ele>675</ele>
        <time>2018-08-05T06:33:41.000Z</time>
      </trkpt>
      <trkpt lat="45.9911" lon="4.55928">
        <ele>675</ele>
        <time>2018-08-05T06:33:42.000Z</time>
      </trkpt>
      <trkpt lat="45.99111" lon="4.55928">
        <ele>675</ele>
        <time>2018-08-05T06:33:43.000Z</time>
      </trkpt>
      <trkpt lat="45.99113" lon="4.55928">
        <ele>675</ele>
        <time>2018-08-05T06:33:44.000Z</time>
      </trkpt>
      <trkpt lat="45.99115" lon="4.55928">
        <ele>675</ele>
        <time>2018-08-05T06:33:45.000Z</time>
      </trkpt>
      <trkpt lat="45.99117" lon="4.55928">
        <ele>676</ele>
        <time>2018-08-05T06:33:46.000Z</time>
      </trkpt>
      <trkpt lat="45.99119" lon="4.55928">
        <ele>676</ele>
        <time>2018-08-05T06:33:47.000Z</time>
      </trkpt>
      <trkpt lat="45.99122" lon="4.55927">
        <ele>676</ele>
        <time>2018-08-05T06:33:48.000Z</time>
      </trkpt>
      <trkpt lat="45.99125" lon="4.55925">
        <ele>676</ele>
        <time>2018-08-05T06:33:49.000Z</time>
      </trkpt>
      <trkpt lat="45.99128" lon="4.55924">
        <ele>676</ele>
        <time>2018-08-05T06:33:50.000Z</time>
      </trkpt>
      <trkpt lat="45.99132" lon="4.55923">
        <ele>676</ele>
        <time>2018-08-05T06:33:51.000Z</time>
      </trkpt>
      <trkpt lat="45.99136" lon="4.55921">
        <ele>676</ele>
        <time>2018-08-05T06:33:52.000Z</time>
      </trkpt>
      <trkpt lat="45.9914" lon="4.5592">
        <ele>677</ele>
        <time>2018-08-05T06:33:53.000Z</time>
      </trkpt>
      <trkpt lat="45.99144" lon="4.5592">
        <ele>677</ele>
        <time>2018-08-05T06:33:54.000Z</time>
      </trkpt>
      <trkpt lat="45.99148" lon="4.5592">
        <ele>677</ele>
        <time>2018-08-05T06:33:55.000Z</time>
      </trkpt>
      <trkpt lat="45.99152" lon="4.55921">
        <ele>677</ele>
        <time>2018-08-05T06:33:56.000Z</time>
      </trkpt>
      <trkpt lat="45.99156" lon="4.55921">
        <ele>677</ele>
        <time>2018-08-05T06:33:57.000Z</time>
      </trkpt>
      <trkpt lat="45.9916" lon="4.55922">
        <ele>677</ele>
        <time>2018-08-05T06:33:58.000Z</time>
      </trkpt>
      <trkpt lat="45.99164" lon="4.55923">
        <ele>677</ele>
        <time>2018-08-05T06:33:59.000Z</time>
      </trkpt>
      <trkpt lat="45.99168" lon="4.55924">
        <ele>678</ele>
        <time>2018-08-05T06:34:00.000Z</time>
      </trkpt>
      <trkpt lat="45.99171" lon="4.55925">
        <ele>678</ele>
        <time>2018-08-05T06:34:01.000Z</time>
      </trkpt>
      <trkpt lat="45.99175" lon="4.55926">
        <ele>679</ele>
        <time>2018-08-05T06:34:02.000Z</time>
      </trkpt>
      <trkpt lat="45.99179" lon="4.55927">
        <ele>679</ele>
        <time>2018-08-05T06:34:03.000Z</time>
      </trkpt>
      <trkpt lat="45.99182" lon="4.55928">
        <ele>679</ele>
        <time>2018-08-05T06:34:04.000Z</time>
      </trkpt>
      <trkpt lat="45.99186" lon="4.5593">
        <ele>680</ele>
        <time>2018-08-05T06:34:05.000Z</time>
      </trkpt>
      <trkpt lat="45.99189" lon="4.55932">
        <ele>680</ele>
        <time>2018-08-05T06:34:06.000Z</time>
      </trkpt>
      <trkpt lat="45.99193" lon="4.55933">
        <ele>680</ele>
        <time>2018-08-05T06:34:07.000Z</time>
      </trkpt>
      <trkpt lat="45.99196" lon="4.55935">
        <ele>680</ele>
        <time>2018-08-05T06:34:08.000Z</time>
      </trkpt>
      <trkpt lat="45.992" lon="4.55937">
        <ele>680</ele>
        <time>2018-08-05T06:34:09.000Z</time>
      </trkpt>
      <trkpt lat="45.99204" lon="4.55939">
        <ele>680</ele>
        <time>2018-08-05T06:34:10.000Z</time>
      </trkpt>
      <trkpt lat="45.99207" lon="4.55941">
        <ele>680</ele>
        <time>2018-08-05T06:34:11.000Z</time>
      </trkpt>
      <trkpt lat="45.99211" lon="4.55942">
        <ele>680</ele>
        <time>2018-08-05T06:34:12.000Z</time>
      </trkpt>
      <trkpt lat="45.99214" lon="4.55944">
        <ele>681</ele>
        <time>2018-08-05T06:34:13.000Z</time>
      </trkpt>
      <trkpt lat="45.99218" lon="4.55946">
        <ele>681</ele>
        <time>2018-08-05T06:34:14.000Z</time>
      </trkpt>
      <trkpt lat="45.99222" lon="4.55948">
        <ele>681</ele>
        <time>2018-08-05T06:34:15.000Z</time>
      </trkpt>
      <trkpt lat="45.99225" lon="4.5595">
        <ele>681</ele>
        <time>2018-08-05T06:34:16.000Z</time>
      </trkpt>
      <trkpt lat="45.99229" lon="4.55952">
        <ele>681</ele>
        <time>2018-08-05T06:34:17.000Z</time>
      </trkpt>
      <trkpt lat="45.99232" lon="4.55954">
        <ele>681</ele>
        <time>2018-08-05T06:34:18.000Z</time>
      </trkpt>
      <trkpt lat="45.99236" lon="4.55956">
        <ele>681</ele>
        <time>2018-08-05T06:34:19.000Z</time>
      </trkpt>
      <trkpt lat="45.99239" lon="4.55957">
        <ele>682</ele>
        <time>2018-08-05T06:34:20.000Z</time>
      </trkpt>
      <trkpt lat="45.99242" lon="4.55959">
        <ele>682</ele>
        <time>2018-08-05T06:34:21.000Z</time>
      </trkpt>
      <trkpt lat="45.99246" lon="4.55961">
        <ele>682</ele>
        <time>2018-08-05T06:34:22.000Z</time>
      </trkpt>
      <trkpt lat="45.99249" lon="4.55963">
        <ele>682</ele>
        <time>2018-08-05T06:34:23.000Z</time>
      </trkpt>
      <trkpt lat="45.99253" lon="4.55964">
        <ele>683</ele>
        <time>2018-08-05T06:34:24.000Z</time>
      </trkpt>
      <trkpt lat="45.99256" lon="4.55965">
        <ele>683</ele>
        <time>2018-08-05T06:34:25.000Z</time>
      </trkpt>
      <trkpt lat="45.9926" lon="4.55966">
        <ele>683</ele>
        <time>2018-08-05T06:34:26.000Z</time>
      </trkpt>
      <trkpt lat="45.99264" lon="4.55967">
        <ele>684</ele>
        <time>2018-08-05T06:34:27.000Z</time>
      </trkpt>
      <trkpt lat="45.99268" lon="4.55968">
        <ele>684</ele>
        <time>2018-08-05T06:34:28.000Z</time>
      </trkpt>
      <trkpt lat="45.99271" lon="4.55968">
        <ele>684</ele>
        <time>2018-08-05T06:34:29.000Z</time>
      </trkpt>
      <trkpt lat="45.99275" lon="4.55968">
        <ele>684</ele>
        <time>2018-08-05T06:34:30.000Z</time>
      </trkpt>
      <trkpt lat="45.99279" lon="4.55968">
        <ele>684</ele>
        <time>2018-08-05T06:34:31.000Z</time>
      </trkpt>
      <trkpt lat="45.99283" lon="4.55968">
        <ele>684</ele>
        <time>2018-08-05T06:34:32.000Z</time>
      </trkpt>
      <trkpt lat="45.99287" lon="4.55968">
        <ele>684</ele>
        <time>2018-08-05T06:34:33.000Z</time>
      </trkpt>
      <trkpt lat="45.99291" lon="4.55968">
        <ele>684</ele>
        <time>2018-08-05T06:34:34.000Z</time>
      </trkpt>
      <trkpt lat="45.99295" lon="4.55968">
        <ele>684</ele>
        <time>2018-08-05T06:34:35.000Z</time>
      </trkpt>
      <trkpt lat="45.993" lon="4.55968">
        <ele>684</ele>
        <time>2018-08-05T06:34:36.000Z</time>
      </trkpt>
      <trkpt lat="45.99304" lon="4.55968">
        <ele>684</ele>
        <time>2018-08-05T06:34:37.000Z</time>
      </trkpt>
      <trkpt lat="45.99307" lon="4.55968">
        <ele>684</ele>
        <time>2018-08-05T06:34:38.000Z</time>
      </trkpt>
      <trkpt lat="45.99312" lon="4.55969">
        <ele>684</ele>
        <time>2018-08-05T06:34:39.000Z</time>
      </trkpt>
      <trkpt lat="45.99316" lon="4.55969">
        <ele>684</ele>
        <time>2018-08-05T06:34:40.000Z</time>
      </trkpt>
      <trkpt lat="45.9932" lon="4.55969">
        <ele>684</ele>
        <time>2018-08-05T06:34:41.000Z</time>
      </trkpt>
      <trkpt lat="45.99324" lon="4.55969">
        <ele>684</ele>
        <time>2018-08-05T06:34:42.000Z</time>
      </trkpt>
      <trkpt lat="45.99328" lon="4.5597">
        <ele>685</ele>
        <time>2018-08-05T06:34:43.000Z</time>
      </trkpt>
      <trkpt lat="45.99332" lon="4.5597">
        <ele>685</ele>
        <time>2018-08-05T06:34:44.000Z</time>
      </trkpt>
      <trkpt lat="45.99336" lon="4.5597">
        <ele>690</ele>
        <time>2018-08-05T06:34:45.000Z</time>
      </trkpt>
      <trkpt lat="45.99339" lon="4.5597">
        <ele>690</ele>
        <time>2018-08-05T06:34:46.000Z</time>
      </trkpt>
      <trkpt lat="45.99343" lon="4.5597">
        <ele>690</ele>
        <time>2018-08-05T06:34:47.000Z</time>
      </trkpt>
      <trkpt lat="45.99347" lon="4.55969">
        <ele>690</ele>
        <time>2018-08-05T06:34:48.000Z</time>
      </trkpt>
      <trkpt lat="45.99351" lon="4.55967">
        <ele>690</ele>
        <time>2018-08-05T06:34:49.000Z</time>
      </trkpt>
      <trkpt lat="45.99355" lon="4.55965">
        <ele>690</ele>
        <time>2018-08-05T06:34:50.000Z</time>
      </trkpt>
      <trkpt lat="45.99359" lon="4.55961">
        <ele>691</ele>
        <time>2018-08-05T06:34:51.000Z</time>
      </trkpt>
      <trkpt lat="45.99362" lon="4.55956">
        <ele>691</ele>
        <time>2018-08-05T06:34:52.000Z</time>
      </trkpt>
      <trkpt lat="45.99365" lon="4.55951">
        <ele>690</ele>
        <time>2018-08-05T06:34:53.000Z</time>
      </trkpt>
      <trkpt lat="45.99366" lon="4.55944">
        <ele>690</ele>
        <time>2018-08-05T06:34:54.000Z</time>
      </trkpt>
      <trkpt lat="45.99367" lon="4.55937">
        <ele>690</ele>
        <time>2018-08-05T06:34:55.000Z</time>
      </trkpt>
      <trkpt lat="45.99367" lon="4.5593">
        <ele>689</ele>
        <time>2018-08-05T06:34:56.000Z</time>
      </trkpt>
      <trkpt lat="45.99367" lon="4.55924">
        <ele>689</ele>
        <time>2018-08-05T06:34:57.000Z</time>
      </trkpt>
      <trkpt lat="45.99366" lon="4.55917">
        <ele>689</ele>
        <time>2018-08-05T06:34:58.000Z</time>
      </trkpt>
      <trkpt lat="45.99366" lon="4.5591">
        <ele>685</ele>
        <time>2018-08-05T06:34:59.000Z</time>
      </trkpt>
      <trkpt lat="45.99365" lon="4.55904">
        <ele>684</ele>
        <time>2018-08-05T06:35:00.000Z</time>
      </trkpt>
      <trkpt lat="45.99364" lon="4.55898">
        <ele>684</ele>
        <time>2018-08-05T06:35:01.000Z</time>
      </trkpt>
      <trkpt lat="45.99363" lon="4.55891">
        <ele>684</ele>
        <time>2018-08-05T06:35:02.000Z</time>
      </trkpt>
      <trkpt lat="45.99362" lon="4.55885">
        <ele>684</ele>
        <time>2018-08-05T06:35:03.000Z</time>
      </trkpt>
      <trkpt lat="45.99361" lon="4.55878">
        <ele>684</ele>
        <time>2018-08-05T06:35:04.000Z</time>
      </trkpt>
      <trkpt lat="45.99361" lon="4.55872">
        <ele>683</ele>
        <time>2018-08-05T06:35:05.000Z</time>
      </trkpt>
      <trkpt lat="45.9936" lon="4.55865">
        <ele>683</ele>
        <time>2018-08-05T06:35:06.000Z</time>
      </trkpt>
      <trkpt lat="45.9936" lon="4.55858">
        <ele>682</ele>
        <time>2018-08-05T06:35:07.000Z</time>
      </trkpt>
      <trkpt lat="45.99361" lon="4.55851">
        <ele>682</ele>
        <time>2018-08-05T06:35:08.000Z</time>
      </trkpt>
      <trkpt lat="45.99362" lon="4.55843">
        <ele>682</ele>
        <time>2018-08-05T06:35:09.000Z</time>
      </trkpt>
      <trkpt lat="45.99364" lon="4.55837">
        <ele>682</ele>
        <time>2018-08-05T06:35:10.000Z</time>
      </trkpt>
      <trkpt lat="45.99368" lon="4.55831">
        <ele>676</ele>
        <time>2018-08-05T06:35:11.000Z</time>
      </trkpt>
      <trkpt lat="45.99372" lon="4.55827">
        <ele>676</ele>
        <time>2018-08-05T06:35:12.000Z</time>
      </trkpt>
      <trkpt lat="45.99377" lon="4.55823">
        <ele>677</ele>
        <time>2018-08-05T06:35:13.000Z</time>
      </trkpt>
      <trkpt lat="45.99381" lon="4.5582">
        <ele>677</ele>
        <time>2018-08-05T06:35:14.000Z</time>
      </trkpt>
      <trkpt lat="45.99386" lon="4.55818">
        <ele>677</ele>
        <time>2018-08-05T06:35:15.000Z</time>
      </trkpt>
      <trkpt lat="45.9939" lon="4.55817">
        <ele>678</ele>
        <time>2018-08-05T06:35:16.000Z</time>
      </trkpt>
      <trkpt lat="45.99395" lon="4.55816">
        <ele>679</ele>
        <time>2018-08-05T06:35:17.000Z</time>
      </trkpt>
      <trkpt lat="45.99399" lon="4.55816">
        <ele>679</ele>
        <time>2018-08-05T06:35:18.000Z</time>
      </trkpt>
      <trkpt lat="45.99404" lon="4.55815">
        <ele>680</ele>
        <time>2018-08-05T06:35:19.000Z</time>
      </trkpt>
      <trkpt lat="45.99408" lon="4.55815">
        <ele>680</ele>
        <time>2018-08-05T06:35:20.000Z</time>
      </trkpt>
      <trkpt lat="45.99413" lon="4.55815">
        <ele>681</ele>
        <time>2018-08-05T06:35:21.000Z</time>
      </trkpt>
      <trkpt lat="45.99418" lon="4.55814">
        <ele>686</ele>
        <time>2018-08-05T06:35:22.000Z</time>
      </trkpt>
      <trkpt lat="45.99422" lon="4.55814">
        <ele>686</ele>
        <time>2018-08-05T06:35:23.000Z</time>
      </trkpt>
      <trkpt lat="45.99427" lon="4.55814">
        <ele>686</ele>
        <time>2018-08-05T06:35:24.000Z</time>
      </trkpt>
      <trkpt lat="45.99431" lon="4.55814">
        <ele>686</ele>
        <time>2018-08-05T06:35:25.000Z</time>
      </trkpt>
      <trkpt lat="45.99436" lon="4.55813">
        <ele>686</ele>
        <time>2018-08-05T06:35:26.000Z</time>
      </trkpt>
      <trkpt lat="45.99441" lon="4.55813">
        <ele>686</ele>
        <time>2018-08-05T06:35:27.000Z</time>
      </trkpt>
      <trkpt lat="45.99445" lon="4.55813">
        <ele>686</ele>
        <time>2018-08-05T06:35:28.000Z</time>
      </trkpt>
      <trkpt lat="45.9945" lon="4.55813">
        <ele>686</ele>
        <time>2018-08-05T06:35:29.000Z</time>
      </trkpt>
      <trkpt lat="45.99454" lon="4.55813">
        <ele>686</ele>
        <time>2018-08-05T06:35:30.000Z</time>
      </trkpt>
      <trkpt lat="45.99459" lon="4.55813">
        <ele>686</ele>
        <time>2018-08-05T06:35:31.000Z</time>
      </trkpt>
      <trkpt lat="45.99463" lon="4.55813">
        <ele>687</ele>
        <time>2018-08-05T06:35:32.000Z</time>
      </trkpt>
      <trkpt lat="45.99468" lon="4.55813">
        <ele>687</ele>
        <time>2018-08-05T06:35:33.000Z</time>
      </trkpt>
      <trkpt lat="45.99472" lon="4.55812">
        <ele>687</ele>
        <time>2018-08-05T06:35:34.000Z</time>
      </trkpt>
      <trkpt lat="45.99477" lon="4.55812">
        <ele>688</ele>
        <time>2018-08-05T06:35:35.000Z</time>
      </trkpt>
      <trkpt lat="45.99481" lon="4.55812">
        <ele>688</ele>
        <time>2018-08-05T06:35:36.000Z</time>
      </trkpt>
      <trkpt lat="45.99485" lon="4.55811">
        <ele>688</ele>
        <time>2018-08-05T06:35:37.000Z</time>
      </trkpt>
      <trkpt lat="45.9949" lon="4.5581">
        <ele>688</ele>
        <time>2018-08-05T06:35:38.000Z</time>
      </trkpt>
      <trkpt lat="45.99494" lon="4.55808">
        <ele>688</ele>
        <time>2018-08-05T06:35:39.000Z</time>
      </trkpt>
      <trkpt lat="45.99498" lon="4.55806">
        <ele>688</ele>
        <time>2018-08-05T06:35:40.000Z</time>
      </trkpt>
      <trkpt lat="45.99501" lon="4.55803">
        <ele>702</ele>
        <time>2018-08-05T06:35:41.000Z</time>
      </trkpt>
      <trkpt lat="45.99504" lon="4.55799">
        <ele>702</ele>
        <time>2018-08-05T06:35:42.000Z</time>
      </trkpt>
      <trkpt lat="45.99507" lon="4.55795">
        <ele>702</ele>
        <time>2018-08-05T06:35:43.000Z</time>
      </trkpt>
      <trkpt lat="45.99509" lon="4.55789">
        <ele>702</ele>
        <time>2018-08-05T06:35:44.000Z</time>
      </trkpt>
      <trkpt lat="45.99511" lon="4.55783">
        <ele>702</ele>
        <time>2018-08-05T06:35:45.000Z</time>
      </trkpt>
      <trkpt lat="45.99513" lon="4.55776">
        <ele>701</ele>
        <time>2018-08-05T06:35:46.000Z</time>
      </trkpt>
      <trkpt lat="45.99514" lon="4.55769">
        <ele>699</ele>
        <time>2018-08-05T06:35:47.000Z</time>
      </trkpt>
      <trkpt lat="45.99514" lon="4.55763">
        <ele>698</ele>
        <time>2018-08-05T06:35:48.000Z</time>
      </trkpt>
      <trkpt lat="45.99515" lon="4.55756">
        <ele>696</ele>
        <time>2018-08-05T06:35:49.000Z</time>
      </trkpt>
      <trkpt lat="45.99515" lon="4.5575">
        <ele>693</ele>
        <time>2018-08-05T06:35:50.000Z</time>
      </trkpt>
      <trkpt lat="45.99516" lon="4.55743">
        <ele>694</ele>
        <time>2018-08-05T06:35:51.000Z</time>
      </trkpt>
      <trkpt lat="45.99516" lon="4.55737">
        <ele>694</ele>
        <time>2018-08-05T06:35:52.000Z</time>
      </trkpt>
      <trkpt lat="45.99516" lon="4.55731">
        <ele>695</ele>
        <time>2018-08-05T06:35:53.000Z</time>
      </trkpt>
      <trkpt lat="45.99516" lon="4.55724">
        <ele>696</ele>
        <time>2018-08-05T06:35:54.000Z</time>
      </trkpt>
      <trkpt lat="45.99516" lon="4.55718">
        <ele>696</ele>
        <time>2018-08-05T06:35:55.000Z</time>
      </trkpt>
      <trkpt lat="45.99516" lon="4.55712">
        <ele>697</ele>
        <time>2018-08-05T06:35:56.000Z</time>
      </trkpt>
      <trkpt lat="45.99516" lon="4.55705">
        <ele>696</ele>
        <time>2018-08-05T06:35:57.000Z</time>
      </trkpt>
      <trkpt lat="45.99516" lon="4.55699">
        <ele>696</ele>
        <time>2018-08-05T06:35:58.000Z</time>
      </trkpt>
      <trkpt lat="45.99516" lon="4.55693">
        <ele>695</ele>
        <time>2018-08-05T06:35:59.000Z</time>
      </trkpt>
      <trkpt lat="45.99516" lon="4.55686">
        <ele>695</ele>
        <time>2018-08-05T06:36:00.000Z</time>
      </trkpt>
      <trkpt lat="45.99516" lon="4.55679">
        <ele>693</ele>
        <time>2018-08-05T06:36:01.000Z</time>
      </trkpt>
      <trkpt lat="45.99517" lon="4.55673">
        <ele>693</ele>
        <time>2018-08-05T06:36:02.000Z</time>
      </trkpt>
      <trkpt lat="45.99517" lon="4.55666">
        <ele>690</ele>
        <time>2018-08-05T06:36:03.000Z</time>
      </trkpt>
      <trkpt lat="45.99518" lon="4.55659">
        <ele>691</ele>
        <time>2018-08-05T06:36:04.000Z</time>
      </trkpt>
      <trkpt lat="45.99519" lon="4.55653">
        <ele>691</ele>
        <time>2018-08-05T06:36:05.000Z</time>
      </trkpt>
      <trkpt lat="45.9952" lon="4.55646">
        <ele>692</ele>
        <time>2018-08-05T06:36:06.000Z</time>
      </trkpt>
      <trkpt lat="45.99522" lon="4.5564">
        <ele>693</ele>
        <time>2018-08-05T06:36:07.000Z</time>
      </trkpt>
      <trkpt lat="45.99523" lon="4.55633">
        <ele>693</ele>
        <time>2018-08-05T06:36:08.000Z</time>
      </trkpt>
      <trkpt lat="45.99525" lon="4.55627">
        <ele>693</ele>
        <time>2018-08-05T06:36:09.000Z</time>
      </trkpt>
      <trkpt lat="45.99527" lon="4.55621">
        <ele>693</ele>
        <time>2018-08-05T06:36:10.000Z</time>
      </trkpt>
      <trkpt lat="45.99529" lon="4.55614">
        <ele>693</ele>
        <time>2018-08-05T06:36:11.000Z</time>
      </trkpt>
      <trkpt lat="45.99531" lon="4.55608">
        <ele>693</ele>
        <time>2018-08-05T06:36:12.000Z</time>
      </trkpt>
      <trkpt lat="45.99533" lon="4.55602">
        <ele>693</ele>
        <time>2018-08-05T06:36:13.000Z</time>
      </trkpt>
      <trkpt lat="45.99535" lon="4.55595">
        <ele>693</ele>
        <time>2018-08-05T06:36:14.000Z</time>
      </trkpt>
      <trkpt lat="45.99536" lon="4.55589">
        <ele>694</ele>
        <time>2018-08-05T06:36:15.000Z</time>
      </trkpt>
      <trkpt lat="45.99538" lon="4.55582">
        <ele>689</ele>
        <time>2018-08-05T06:36:16.000Z</time>
      </trkpt>
      <trkpt lat="45.9954" lon="4.55576">
        <ele>690</ele>
        <time>2018-08-05T06:36:17.000Z</time>
      </trkpt>
      <trkpt lat="45.99542" lon="4.55569">
        <ele>690</ele>
        <time>2018-08-05T06:36:18.000Z</time>
      </trkpt>
      <trkpt lat="45.99545" lon="4.55562">
        <ele>690</ele>
        <time>2018-08-05T06:36:19.000Z</time>
      </trkpt>
      <trkpt lat="45.99547" lon="4.55556">
        <ele>691</ele>
        <time>2018-08-05T06:36:20.000Z</time>
      </trkpt>
      <trkpt lat="45.99549" lon="4.55549">
        <ele>691</ele>
        <time>2018-08-05T06:36:21.000Z</time>
      </trkpt>
      <trkpt lat="45.99551" lon="4.55542">
        <ele>691</ele>
        <time>2018-08-05T06:36:22.000Z</time>
      </trkpt>
      <trkpt lat="45.99554" lon="4.55536">
        <ele>691</ele>
        <time>2018-08-05T06:36:23.000Z</time>
      </trkpt>
      <trkpt lat="45.99556" lon="4.5553">
        <ele>691</ele>
        <time>2018-08-05T06:36:24.000Z</time>
      </trkpt>
      <trkpt lat="45.99559" lon="4.55524">
        <ele>692</ele>
        <time>2018-08-05T06:36:25.000Z</time>
      </trkpt>
      <trkpt lat="45.99561" lon="4.55517">
        <ele>693</ele>
        <time>2018-08-05T06:36:26.000Z</time>
      </trkpt>
      <trkpt lat="45.99564" lon="4.55511">
        <ele>694</ele>
        <time>2018-08-05T06:36:27.000Z</time>
      </trkpt>
      <trkpt lat="45.99567" lon="4.55506">
        <ele>695</ele>
        <time>2018-08-05T06:36:28.000Z</time>
      </trkpt>
      <trkpt lat="45.99571" lon="4.555">
        <ele>697</ele>
        <time>2018-08-05T06:36:29.000Z</time>
      </trkpt>
      <trkpt lat="45.99574" lon="4.55495">
        <ele>694</ele>
        <time>2018-08-05T06:36:30.000Z</time>
      </trkpt>
      <trkpt lat="45.99578" lon="4.5549">
        <ele>693</ele>
        <time>2018-08-05T06:36:31.000Z</time>
      </trkpt>
      <trkpt lat="45.99582" lon="4.55486">
        <ele>691</ele>
        <time>2018-08-05T06:36:32.000Z</time>
      </trkpt>
      <trkpt lat="45.99587" lon="4.55482">
        <ele>698</ele>
        <time>2018-08-05T06:36:33.000Z</time>
      </trkpt>
      <trkpt lat="45.99591" lon="4.5548">
        <ele>698</ele>
        <time>2018-08-05T06:36:34.000Z</time>
      </trkpt>
      <trkpt lat="45.99596" lon="4.55478">
        <ele>697</ele>
        <time>2018-08-05T06:36:35.000Z</time>
      </trkpt>
      <trkpt lat="45.99601" lon="4.55477">
        <ele>697</ele>
        <time>2018-08-05T06:36:36.000Z</time>
      </trkpt>
      <trkpt lat="45.99606" lon="4.55476">
        <ele>697</ele>
        <time>2018-08-05T06:36:37.000Z</time>
      </trkpt>
      <trkpt lat="45.99611" lon="4.55476">
        <ele>697</ele>
        <time>2018-08-05T06:36:38.000Z</time>
      </trkpt>
      <trkpt lat="45.99616" lon="4.55475">
        <ele>697</ele>
        <time>2018-08-05T06:36:39.000Z</time>
      </trkpt>
      <trkpt lat="45.99621" lon="4.55475">
        <ele>697</ele>
        <time>2018-08-05T06:36:40.000Z</time>
      </trkpt>
      <trkpt lat="45.99625" lon="4.55474">
        <ele>698</ele>
        <time>2018-08-05T06:36:41.000Z</time>
      </trkpt>
      <trkpt lat="45.9963" lon="4.55473">
        <ele>698</ele>
        <time>2018-08-05T06:36:42.000Z</time>
      </trkpt>
      <trkpt lat="45.99635" lon="4.55472">
        <ele>698</ele>
        <time>2018-08-05T06:36:43.000Z</time>
      </trkpt>
      <trkpt lat="45.99639" lon="4.55471">
        <ele>698</ele>
        <time>2018-08-05T06:36:44.000Z</time>
      </trkpt>
      <trkpt lat="45.99644" lon="4.5547">
        <ele>699</ele>
        <time>2018-08-05T06:36:45.000Z</time>
      </trkpt>
      <trkpt lat="45.99649" lon="4.55469">
        <ele>699</ele>
        <time>2018-08-05T06:36:46.000Z</time>
      </trkpt>
      <trkpt lat="45.99653" lon="4.55467">
        <ele>699</ele>
        <time>2018-08-05T06:36:47.000Z</time>
      </trkpt>
      <trkpt lat="45.99658" lon="4.55466">
        <ele>699</ele>
        <time>2018-08-05T06:36:48.000Z</time>
      </trkpt>
      <trkpt lat="45.99663" lon="4.55464">
        <ele>698</ele>
        <time>2018-08-05T06:36:49.000Z</time>
      </trkpt>
      <trkpt lat="45.99667" lon="4.55462">
        <ele>706</ele>
        <time>2018-08-05T06:36:50.000Z</time>
      </trkpt>
      <trkpt lat="45.99671" lon="4.5546">
        <ele>706</ele>
        <time>2018-08-05T06:36:51.000Z</time>
      </trkpt>
      <trkpt lat="45.99676" lon="4.55457">
        <ele>705</ele>
        <time>2018-08-05T06:36:52.000Z</time>
      </trkpt>
      <trkpt lat="45.9968" lon="4.55455">
        <ele>705</ele>
        <time>2018-08-05T06:36:53.000Z</time>
      </trkpt>
      <trkpt lat="45.99684" lon="4.55452">
        <ele>705</ele>
        <time>2018-08-05T06:36:54.000Z</time>
      </trkpt>
      <trkpt lat="45.99687" lon="4.55449">
        <ele>704</ele>
        <time>2018-08-05T06:36:55.000Z</time>
      </trkpt>
      <trkpt lat="45.99691" lon="4.55446">
        <ele>704</ele>
        <time>2018-08-05T06:36:56.000Z</time>
      </trkpt>
      <trkpt lat="45.99695" lon="4.55443">
        <ele>704</ele>
        <time>2018-08-05T06:36:57.000Z</time>
      </trkpt>
      <trkpt lat="45.99698" lon="4.55439">
        <ele>704</ele>
        <time>2018-08-05T06:36:58.000Z</time>
      </trkpt>
      <trkpt lat="45.99702" lon="4.55434">
        <ele>704</ele>
        <time>2018-08-05T06:36:59.000Z</time>
      </trkpt>
      <trkpt lat="45.99705" lon="4.5543">
        <ele>704</ele>
        <time>2018-08-05T06:37:00.000Z</time>
      </trkpt>
      <trkpt lat="45.99709" lon="4.55426">
        <ele>705</ele>
        <time>2018-08-05T06:37:01.000Z</time>
      </trkpt>
      <trkpt lat="45.99712" lon="4.55421">
        <ele>705</ele>
        <time>2018-08-05T06:37:02.000Z</time>
      </trkpt>
      <trkpt lat="45.99716" lon="4.55417">
        <ele>705</ele>
        <time>2018-08-05T06:37:03.000Z</time>
      </trkpt>
      <trkpt lat="45.99719" lon="4.55413">
        <ele>694</ele>
        <time>2018-08-05T06:37:04.000Z</time>
      </trkpt>
      <trkpt lat="45.99723" lon="4.55408">
        <ele>694</ele>
        <time>2018-08-05T06:37:05.000Z</time>
      </trkpt>
      <trkpt lat="45.99726" lon="4.55404">
        <ele>695</ele>
        <time>2018-08-05T06:37:06.000Z</time>
      </trkpt>
      <trkpt lat="45.9973" lon="4.554">
        <ele>695</ele>
        <time>2018-08-05T06:37:07.000Z</time>
      </trkpt>
      <trkpt lat="45.99734" lon="4.55396">
        <ele>695</ele>
        <time>2018-08-05T06:37:08.000Z</time>
      </trkpt>
      <trkpt lat="45.99738" lon="4.55391">
        <ele>695</ele>
        <time>2018-08-05T06:37:09.000Z</time>
      </trkpt>
      <trkpt lat="45.99741" lon="4.55388">
        <ele>694</ele>
        <time>2018-08-05T06:37:10.000Z</time>
      </trkpt>
      <trkpt lat="45.99745" lon="4.55384">
        <ele>694</ele>
        <time>2018-08-05T06:37:11.000Z</time>
      </trkpt>
      <trkpt lat="45.99749" lon="4.55379">
        <ele>693</ele>
        <time>2018-08-05T06:37:12.000Z</time>
      </trkpt>
      <trkpt lat="45.99753" lon="4.55375">
        <ele>707</ele>
        <time>2018-08-05T06:37:13.000Z</time>
      </trkpt>
      <trkpt lat="45.99757" lon="4.55371">
        <ele>707</ele>
        <time>2018-08-05T06:37:14.000Z</time>
      </trkpt>
      <trkpt lat="45.9976" lon="4.55366">
        <ele>706</ele>
        <time>2018-08-05T06:37:15.000Z</time>
      </trkpt>
      <trkpt lat="45.99764" lon="4.55362">
        <ele>706</ele>
        <time>2018-08-05T06:37:16.000Z</time>
      </trkpt>
      <trkpt lat="45.99767" lon="4.55358">
        <ele>705</ele>
        <time>2018-08-05T06:37:17.000Z</time>
      </trkpt>
      <trkpt lat="45.99771" lon="4.55354">
        <ele>705</ele>
        <time>2018-08-05T06:37:18.000Z</time>
      </trkpt>
      <trkpt lat="45.99774" lon="4.55349">
        <ele>705</ele>
        <time>2018-08-05T06:37:19.000Z</time>
      </trkpt>
      <trkpt lat="45.99778" lon="4.55345">
        <ele>706</ele>
        <time>2018-08-05T06:37:20.000Z</time>
      </trkpt>
      <trkpt lat="45.99782" lon="4.5534">
        <ele>706</ele>
        <time>2018-08-05T06:37:21.000Z</time>
      </trkpt>
      <trkpt lat="45.99785" lon="4.55336">
        <ele>707</ele>
        <time>2018-08-05T06:37:22.000Z</time>
      </trkpt>
      <trkpt lat="45.99789" lon="4.55331">
        <ele>697</ele>
        <time>2018-08-05T06:37:23.000Z</time>
      </trkpt>
      <trkpt lat="45.99792" lon="4.55327">
        <ele>698</ele>
        <time>2018-08-05T06:37:24.000Z</time>
      </trkpt>
      <trkpt lat="45.99796" lon="4.55322">
        <ele>698</ele>
        <time>2018-08-05T06:37:25.000Z</time>
      </trkpt>
      <trkpt lat="45.99799" lon="4.55318">
        <ele>698</ele>
        <time>2018-08-05T06:37:26.000Z</time>
      </trkpt>
      <trkpt lat="45.99803" lon="4.55313">
        <ele>699</ele>
        <time>2018-08-05T06:37:27.000Z</time>
      </trkpt>
      <trkpt lat="45.99806" lon="4.55309">
        <ele>699</ele>
        <time>2018-08-05T06:37:28.000Z</time>
      </trkpt>
      <trkpt lat="45.9981" lon="4.55305">
        <ele>699</ele>
        <time>2018-08-05T06:37:29.000Z</time>
      </trkpt>
      <trkpt lat="45.99814" lon="4.553">
        <ele>699</ele>
        <time>2018-08-05T06:37:30.000Z</time>
      </trkpt>
      <trkpt lat="45.99817" lon="4.55296">
        <ele>698</ele>
        <time>2018-08-05T06:37:31.000Z</time>
      </trkpt>
      <trkpt lat="45.99821" lon="4.55291">
        <ele>698</ele>
        <time>2018-08-05T06:37:32.000Z</time>
      </trkpt>
      <trkpt lat="45.99825" lon="4.55286">
        <ele>698</ele>
        <time>2018-08-05T06:37:33.000Z</time>
      </trkpt>
      <trkpt lat="45.99828" lon="4.55281">
        <ele>698</ele>
        <time>2018-08-05T06:37:34.000Z</time>
      </trkpt>
      <trkpt lat="45.99832" lon="4.55276">
        <ele>697</ele>
        <time>2018-08-05T06:37:35.000Z</time>
      </trkpt>
      <trkpt lat="45.99835" lon="4.55271">
        <ele>711</ele>
        <time>2018-08-05T06:37:36.000Z</time>
      </trkpt>
      <trkpt lat="45.99839" lon="4.55267">
        <ele>710</ele>
        <time>2018-08-05T06:37:37.000Z</time>
      </trkpt>
      <trkpt lat="45.99842" lon="4.55262">
        <ele>708</ele>
        <time>2018-08-05T06:37:38.000Z</time>
      </trkpt>
      <trkpt lat="45.99845" lon="4.55257">
        <ele>708</ele>
        <time>2018-08-05T06:37:39.000Z</time>
      </trkpt>
      <trkpt lat="45.99848" lon="4.55252">
        <ele>708</ele>
        <time>2018-08-05T06:37:40.000Z</time>
      </trkpt>
      <trkpt lat="45.9985" lon="4.55247">
        <ele>704</ele>
        <time>2018-08-05T06:37:41.000Z</time>
      </trkpt>
      <trkpt lat="45.99853" lon="4.55241">
        <ele>705</ele>
        <time>2018-08-05T06:37:42.000Z</time>
      </trkpt>
      <trkpt lat="45.99856" lon="4.55236">
        <ele>705</ele>
        <time>2018-08-05T06:37:43.000Z</time>
      </trkpt>
      <trkpt lat="45.99858" lon="4.55231">
        <ele>706</ele>
        <time>2018-08-05T06:37:44.000Z</time>
      </trkpt>
      <trkpt lat="45.9986" lon="4.55226">
        <ele>706</ele>
        <time>2018-08-05T06:37:45.000Z</time>
      </trkpt>
      <trkpt lat="45.99862" lon="4.5522">
        <ele>707</ele>
        <time>2018-08-05T06:37:46.000Z</time>
      </trkpt>
      <trkpt lat="45.99864" lon="4.55215">
        <ele>707</ele>
        <time>2018-08-05T06:37:47.000Z</time>
      </trkpt>
      <trkpt lat="45.99866" lon="4.55209">
        <ele>707</ele>
        <time>2018-08-05T06:37:48.000Z</time>
      </trkpt>
      <trkpt lat="45.99868" lon="4.55201">
        <ele>706</ele>
        <time>2018-08-05T06:37:49.000Z</time>
      </trkpt>
      <trkpt lat="45.9987" lon="4.55194">
        <ele>706</ele>
        <time>2018-08-05T06:37:50.000Z</time>
      </trkpt>
      <trkpt lat="45.99872" lon="4.55188">
        <ele>706</ele>
        <time>2018-08-05T06:37:51.000Z</time>
      </trkpt>
      <trkpt lat="45.99874" lon="4.5518">
        <ele>706</ele>
        <time>2018-08-05T06:37:52.000Z</time>
      </trkpt>
      <trkpt lat="45.99875" lon="4.55174">
        <ele>707</ele>
        <time>2018-08-05T06:37:53.000Z</time>
      </trkpt>
      <trkpt lat="45.99877" lon="4.55167">
        <ele>707</ele>
        <time>2018-08-05T06:37:54.000Z</time>
      </trkpt>
      <trkpt lat="45.99879" lon="4.55159">
        <ele>702</ele>
        <time>2018-08-05T06:37:55.000Z</time>
      </trkpt>
      <trkpt lat="45.99881" lon="4.55151">
        <ele>702</ele>
        <time>2018-08-05T06:37:56.000Z</time>
      </trkpt>
      <trkpt lat="45.99883" lon="4.55143">
        <ele>702</ele>
        <time>2018-08-05T06:37:57.000Z</time>
      </trkpt>
      <trkpt lat="45.99884" lon="4.55136">
        <ele>702</ele>
        <time>2018-08-05T06:37:58.000Z</time>
      </trkpt>
      <trkpt lat="45.99885" lon="4.5513">
        <ele>702</ele>
        <time>2018-08-05T06:37:59.000Z</time>
      </trkpt>
      <trkpt lat="45.99886" lon="4.55123">
        <ele>702</ele>
        <time>2018-08-05T06:38:00.000Z</time>
      </trkpt>
      <trkpt lat="45.99887" lon="4.55116">
        <ele>702</ele>
        <time>2018-08-05T06:38:01.000Z</time>
      </trkpt>
      <trkpt lat="45.99888" lon="4.55109">
        <ele>702</ele>
        <time>2018-08-05T06:38:02.000Z</time>
      </trkpt>
      <trkpt lat="45.99889" lon="4.55102">
        <ele>702</ele>
        <time>2018-08-05T06:38:03.000Z</time>
      </trkpt>
      <trkpt lat="45.9989" lon="4.55095">
        <ele>703</ele>
        <time>2018-08-05T06:38:04.000Z</time>
      </trkpt>
      <trkpt lat="45.99891" lon="4.55088">
        <ele>703</ele>
        <time>2018-08-05T06:38:05.000Z</time>
      </trkpt>
      <trkpt lat="45.99891" lon="4.55082">
        <ele>702</ele>
        <time>2018-08-05T06:38:06.000Z</time>
      </trkpt>
      <trkpt lat="45.99892" lon="4.55075">
        <ele>702</ele>
        <time>2018-08-05T06:38:07.000Z</time>
      </trkpt>
      <trkpt lat="45.99892" lon="4.55068">
        <ele>701</ele>
        <time>2018-08-05T06:38:08.000Z</time>
      </trkpt>
      <trkpt lat="45.99892" lon="4.55061">
        <ele>701</ele>
        <time>2018-08-05T06:38:09.000Z</time>
      </trkpt>
      <trkpt lat="45.99892" lon="4.55055">
        <ele>700</ele>
        <time>2018-08-05T06:38:10.000Z</time>
      </trkpt>
      <trkpt lat="45.99892" lon="4.55048">
        <ele>700</ele>
        <time>2018-08-05T06:38:11.000Z</time>
      </trkpt>
      <trkpt lat="45.99892" lon="4.55041">
        <ele>700</ele>
        <time>2018-08-05T06:38:12.000Z</time>
      </trkpt>
      <trkpt lat="45.99891" lon="4.55033">
        <ele>700</ele>
        <time>2018-08-05T06:38:13.000Z</time>
      </trkpt>
      <trkpt lat="45.99891" lon="4.55026">
        <ele>700</ele>
        <time>2018-08-05T06:38:14.000Z</time>
      </trkpt>
      <trkpt lat="45.99891" lon="4.55019">
        <ele>701</ele>
        <time>2018-08-05T06:38:15.000Z</time>
      </trkpt>
      <trkpt lat="45.99891" lon="4.55012">
        <ele>701</ele>
        <time>2018-08-05T06:38:16.000Z</time>
      </trkpt>
      <trkpt lat="45.99891" lon="4.55005">
        <ele>702</ele>
        <time>2018-08-05T06:38:17.000Z</time>
      </trkpt>
      <trkpt lat="45.9989" lon="4.54998">
        <ele>703</ele>
        <time>2018-08-05T06:38:18.000Z</time>
      </trkpt>
      <trkpt lat="45.9989" lon="4.54992">
        <ele>702</ele>
        <time>2018-08-05T06:38:19.000Z</time>
      </trkpt>
      <trkpt lat="45.9989" lon="4.54985">
        <ele>702</ele>
        <time>2018-08-05T06:38:20.000Z</time>
      </trkpt>
      <trkpt lat="45.9989" lon="4.54978">
        <ele>702</ele>
        <time>2018-08-05T06:38:21.000Z</time>
      </trkpt>
      <trkpt lat="45.99889" lon="4.54971">
        <ele>701</ele>
        <time>2018-08-05T06:38:22.000Z</time>
      </trkpt>
      <trkpt lat="45.99889" lon="4.54964">
        <ele>701</ele>
        <time>2018-08-05T06:38:23.000Z</time>
      </trkpt>
      <trkpt lat="45.99889" lon="4.54957">
        <ele>701</ele>
        <time>2018-08-05T06:38:24.000Z</time>
      </trkpt>
      <trkpt lat="45.99888" lon="4.5495">
        <ele>701</ele>
        <time>2018-08-05T06:38:25.000Z</time>
      </trkpt>
      <trkpt lat="45.99888" lon="4.54943">
        <ele>702</ele>
        <time>2018-08-05T06:38:26.000Z</time>
      </trkpt>
      <trkpt lat="45.99888" lon="4.54935">
        <ele>702</ele>
        <time>2018-08-05T06:38:27.000Z</time>
      </trkpt>
      <trkpt lat="45.99887" lon="4.54928">
        <ele>702</ele>
        <time>2018-08-05T06:38:28.000Z</time>
      </trkpt>
      <trkpt lat="45.99887" lon="4.54921">
        <ele>703</ele>
        <time>2018-08-05T06:38:29.000Z</time>
      </trkpt>
      <trkpt lat="45.99887" lon="4.54914">
        <ele>705</ele>
        <time>2018-08-05T06:38:30.000Z</time>
      </trkpt>
      <trkpt lat="45.99886" lon="4.54907">
        <ele>704</ele>
        <time>2018-08-05T06:38:31.000Z</time>
      </trkpt>
      <trkpt lat="45.99886" lon="4.549">
        <ele>704</ele>
        <time>2018-08-05T06:38:32.000Z</time>
      </trkpt>
      <trkpt lat="45.99886" lon="4.54893">
        <ele>704</ele>
        <time>2018-08-05T06:38:33.000Z</time>
      </trkpt>
      <trkpt lat="45.99886" lon="4.54886">
        <ele>704</ele>
        <time>2018-08-05T06:38:34.000Z</time>
      </trkpt>
      <trkpt lat="45.99886" lon="4.54878">
        <ele>704</ele>
        <time>2018-08-05T06:38:35.000Z</time>
      </trkpt>
      <trkpt lat="45.99886" lon="4.54871">
        <ele>704</ele>
        <time>2018-08-05T06:38:36.000Z</time>
      </trkpt>
      <trkpt lat="45.99885" lon="4.54863">
        <ele>704</ele>
        <time>2018-08-05T06:38:37.000Z</time>
      </trkpt>
      <trkpt lat="45.99885" lon="4.54856">
        <ele>705</ele>
        <time>2018-08-05T06:38:38.000Z</time>
      </trkpt>
      <trkpt lat="45.99884" lon="4.54849">
        <ele>705</ele>
        <time>2018-08-05T06:38:39.000Z</time>
      </trkpt>
      <trkpt lat="45.99883" lon="4.54843">
        <ele>705</ele>
        <time>2018-08-05T06:38:40.000Z</time>
      </trkpt>
      <trkpt lat="45.99882" lon="4.54837">
        <ele>705</ele>
        <time>2018-08-05T06:38:41.000Z</time>
      </trkpt>
      <trkpt lat="45.99881" lon="4.54831">
        <ele>706</ele>
        <time>2018-08-05T06:38:42.000Z</time>
      </trkpt>
      <trkpt lat="45.99879" lon="4.54824">
        <ele>705</ele>
        <time>2018-08-05T06:38:43.000Z</time>
      </trkpt>
      <trkpt lat="45.99877" lon="4.54818">
        <ele>705</ele>
        <time>2018-08-05T06:38:44.000Z</time>
      </trkpt>
      <trkpt lat="45.99875" lon="4.54811">
        <ele>704</ele>
        <time>2018-08-05T06:38:45.000Z</time>
      </trkpt>
      <trkpt lat="45.99873" lon="4.54806">
        <ele>704</ele>
        <time>2018-08-05T06:38:46.000Z</time>
      </trkpt>
      <trkpt lat="45.99871" lon="4.548">
        <ele>704</ele>
        <time>2018-08-05T06:38:47.000Z</time>
      </trkpt>
      <trkpt lat="45.99869" lon="4.54794">
        <ele>703</ele>
        <time>2018-08-05T06:38:48.000Z</time>
      </trkpt>
      <trkpt lat="45.99866" lon="4.54787">
        <ele>703</ele>
        <time>2018-08-05T06:38:49.000Z</time>
      </trkpt>
      <trkpt lat="45.99863" lon="4.54782">
        <ele>702</ele>
        <time>2018-08-05T06:38:50.000Z</time>
      </trkpt>
      <trkpt lat="45.99861" lon="4.54776">
        <ele>702</ele>
        <time>2018-08-05T06:38:51.000Z</time>
      </trkpt>
      <trkpt lat="45.99859" lon="4.54769">
        <ele>701</ele>
        <time>2018-08-05T06:38:52.000Z</time>
      </trkpt>
      <trkpt lat="45.99857" lon="4.54763">
        <ele>700</ele>
        <time>2018-08-05T06:38:53.000Z</time>
      </trkpt>
      <trkpt lat="45.99856" lon="4.54756">
        <ele>699</ele>
        <time>2018-08-05T06:38:54.000Z</time>
      </trkpt>
      <trkpt lat="45.99855" lon="4.54749">
        <ele>698</ele>
        <time>2018-08-05T06:38:55.000Z</time>
      </trkpt>
      <trkpt lat="45.99853" lon="4.54741">
        <ele>698</ele>
        <time>2018-08-05T06:38:56.000Z</time>
      </trkpt>
      <trkpt lat="45.99853" lon="4.54734">
        <ele>699</ele>
        <time>2018-08-05T06:38:57.000Z</time>
      </trkpt>
      <trkpt lat="45.99852" lon="4.54726">
        <ele>699</ele>
        <time>2018-08-05T06:38:58.000Z</time>
      </trkpt>
      <trkpt lat="45.99852" lon="4.54719">
        <ele>700</ele>
        <time>2018-08-05T06:38:59.000Z</time>
      </trkpt>
      <trkpt lat="45.99852" lon="4.54712">
        <ele>700</ele>
        <time>2018-08-05T06:39:00.000Z</time>
      </trkpt>
      <trkpt lat="45.99851" lon="4.54705">
        <ele>700</ele>
        <time>2018-08-05T06:39:01.000Z</time>
      </trkpt>
      <trkpt lat="45.99851" lon="4.54698">
        <ele>699</ele>
        <time>2018-08-05T06:39:02.000Z</time>
      </trkpt>
      <trkpt lat="45.99851" lon="4.54691">
        <ele>699</ele>
        <time>2018-08-05T06:39:03.000Z</time>
      </trkpt>
      <trkpt lat="45.99851" lon="4.54684">
        <ele>698</ele>
        <time>2018-08-05T06:39:04.000Z</time>
      </trkpt>
      <trkpt lat="45.99851" lon="4.54678">
        <ele>698</ele>
        <time>2018-08-05T06:39:05.000Z</time>
      </trkpt>
      <trkpt lat="45.99851" lon="4.54671">
        <ele>697</ele>
        <time>2018-08-05T06:39:06.000Z</time>
      </trkpt>
      <trkpt lat="45.99852" lon="4.54664">
        <ele>696</ele>
        <time>2018-08-05T06:39:07.000Z</time>
      </trkpt>
      <trkpt lat="45.99852" lon="4.54658">
        <ele>696</ele>
        <time>2018-08-05T06:39:08.000Z</time>
      </trkpt>
      <trkpt lat="45.99853" lon="4.54651">
        <ele>697</ele>
        <time>2018-08-05T06:39:09.000Z</time>
      </trkpt>
      <trkpt lat="45.99853" lon="4.54645">
        <ele>697</ele>
        <time>2018-08-05T06:39:10.000Z</time>
      </trkpt>
      <trkpt lat="45.99854" lon="4.54639">
        <ele>698</ele>
        <time>2018-08-05T06:39:11.000Z</time>
      </trkpt>
      <trkpt lat="45.99854" lon="4.54633">
        <ele>698</ele>
        <time>2018-08-05T06:39:12.000Z</time>
      </trkpt>
      <trkpt lat="45.99855" lon="4.54627">
        <ele>698</ele>
        <time>2018-08-05T06:39:13.000Z</time>
      </trkpt>
      <trkpt lat="45.99856" lon="4.54621">
        <ele>698</ele>
        <time>2018-08-05T06:39:14.000Z</time>
      </trkpt>
      <trkpt lat="45.99856" lon="4.54615">
        <ele>698</ele>
        <time>2018-08-05T06:39:15.000Z</time>
      </trkpt>
      <trkpt lat="45.99857" lon="4.54609">
        <ele>698</ele>
        <time>2018-08-05T06:39:16.000Z</time>
      </trkpt>
      <trkpt lat="45.99859" lon="4.54604">
        <ele>698</ele>
        <time>2018-08-05T06:39:17.000Z</time>
      </trkpt>
      <trkpt lat="45.99861" lon="4.54599">
        <ele>698</ele>
        <time>2018-08-05T06:39:18.000Z</time>
      </trkpt>
      <trkpt lat="45.99864" lon="4.54594">
        <ele>698</ele>
        <time>2018-08-05T06:39:19.000Z</time>
      </trkpt>
      <trkpt lat="45.99867" lon="4.54589">
        <ele>698</ele>
        <time>2018-08-05T06:39:20.000Z</time>
      </trkpt>
      <trkpt lat="45.99871" lon="4.54585">
        <ele>699</ele>
        <time>2018-08-05T06:39:21.000Z</time>
      </trkpt>
      <trkpt lat="45.99875" lon="4.54582">
        <ele>698</ele>
        <time>2018-08-05T06:39:22.000Z</time>
      </trkpt>
      <trkpt lat="45.99881" lon="4.54578">
        <ele>698</ele>
        <time>2018-08-05T06:39:23.000Z</time>
      </trkpt>
      <trkpt lat="45.99886" lon="4.54576">
        <ele>698</ele>
        <time>2018-08-05T06:39:24.000Z</time>
      </trkpt>
      <trkpt lat="45.99892" lon="4.54574">
        <ele>698</ele>
        <time>2018-08-05T06:39:25.000Z</time>
      </trkpt>
      <trkpt lat="45.99898" lon="4.54572">
        <ele>698</ele>
        <time>2018-08-05T06:39:26.000Z</time>
      </trkpt>
      <trkpt lat="45.99904" lon="4.54571">
        <ele>698</ele>
        <time>2018-08-05T06:39:27.000Z</time>
      </trkpt>
      <trkpt lat="45.9991" lon="4.54569">
        <ele>698</ele>
        <time>2018-08-05T06:39:28.000Z</time>
      </trkpt>
      <trkpt lat="45.99916" lon="4.54568">
        <ele>698</ele>
        <time>2018-08-05T06:39:29.000Z</time>
      </trkpt>
      <trkpt lat="45.99923" lon="4.54566">
        <ele>696</ele>
        <time>2018-08-05T06:39:30.000Z</time>
      </trkpt>
      <trkpt lat="45.99929" lon="4.54564">
        <ele>696</ele>
        <time>2018-08-05T06:39:31.000Z</time>
      </trkpt>
      <trkpt lat="45.99936" lon="4.54562">
        <ele>695</ele>
        <time>2018-08-05T06:39:32.000Z</time>
      </trkpt>
      <trkpt lat="45.99944" lon="4.5456">
        <ele>695</ele>
        <time>2018-08-05T06:39:33.000Z</time>
      </trkpt>
      <trkpt lat="45.99951" lon="4.54558">
        <ele>695</ele>
        <time>2018-08-05T06:39:34.000Z</time>
      </trkpt>
      <trkpt lat="45.99959" lon="4.54555">
        <ele>695</ele>
        <time>2018-08-05T06:39:35.000Z</time>
      </trkpt>
      <trkpt lat="45.99967" lon="4.54553">
        <ele>695</ele>
        <time>2018-08-05T06:39:36.000Z</time>
      </trkpt>
      <trkpt lat="45.99975" lon="4.54551">
        <ele>695</ele>
        <time>2018-08-05T06:39:37.000Z</time>
      </trkpt>
      <trkpt lat="45.99983" lon="4.54549">
        <ele>694</ele>
        <time>2018-08-05T06:39:38.000Z</time>
      </trkpt>
      <trkpt lat="45.99991" lon="4.54547">
        <ele>694</ele>
        <time>2018-08-05T06:39:39.000Z</time>
      </trkpt>
      <trkpt lat="45.99999" lon="4.54545">
        <ele>694</ele>
        <time>2018-08-05T06:39:40.000Z</time>
      </trkpt>
      <trkpt lat="46.00008" lon="4.54542">
        <ele>697</ele>
        <time>2018-08-05T06:39:41.000Z</time>
      </trkpt>
      <trkpt lat="46.00016" lon="4.5454">
        <ele>697</ele>
        <time>2018-08-05T06:39:42.000Z</time>
      </trkpt>
      <trkpt lat="46.00025" lon="4.54537">
        <ele>697</ele>
        <time>2018-08-05T06:39:43.000Z</time>
      </trkpt>
      <trkpt lat="46.00034" lon="4.54534">
        <ele>697</ele>
        <time>2018-08-05T06:39:44.000Z</time>
      </trkpt>
      <trkpt lat="46.00043" lon="4.54532">
        <ele>697</ele>
        <time>2018-08-05T06:39:45.000Z</time>
      </trkpt>
      <trkpt lat="46.00052" lon="4.54529">
        <ele>697</ele>
        <time>2018-08-05T06:39:46.000Z</time>
      </trkpt>
      <trkpt lat="46.0006" lon="4.54528">
        <ele>697</ele>
        <time>2018-08-05T06:39:47.000Z</time>
      </trkpt>
      <trkpt lat="46.00068" lon="4.54526">
        <ele>697</ele>
        <time>2018-08-05T06:39:48.000Z</time>
      </trkpt>
      <trkpt lat="46.00077" lon="4.54524">
        <ele>696</ele>
        <time>2018-08-05T06:39:49.000Z</time>
      </trkpt>
      <trkpt lat="46.00086" lon="4.54521">
        <ele>702</ele>
        <time>2018-08-05T06:39:50.000Z</time>
      </trkpt>
      <trkpt lat="46.00095" lon="4.54517">
        <ele>702</ele>
        <time>2018-08-05T06:39:51.000Z</time>
      </trkpt>
      <trkpt lat="46.00104" lon="4.54514">
        <ele>703</ele>
        <time>2018-08-05T06:39:52.000Z</time>
      </trkpt>
      <trkpt lat="46.00113" lon="4.54511">
        <ele>705</ele>
        <time>2018-08-05T06:39:53.000Z</time>
      </trkpt>
      <trkpt lat="46.00122" lon="4.54508">
        <ele>706</ele>
        <time>2018-08-05T06:39:54.000Z</time>
      </trkpt>
      <trkpt lat="46.00132" lon="4.54504">
        <ele>707</ele>
        <time>2018-08-05T06:39:55.000Z</time>
      </trkpt>
      <trkpt lat="46.0014" lon="4.54498">
        <ele>694</ele>
        <time>2018-08-05T06:39:56.000Z</time>
      </trkpt>
      <trkpt lat="46.00148" lon="4.54491">
        <ele>695</ele>
        <time>2018-08-05T06:39:57.000Z</time>
      </trkpt>
      <trkpt lat="46.00155" lon="4.54481">
        <ele>694</ele>
        <time>2018-08-05T06:39:58.000Z</time>
      </trkpt>
      <trkpt lat="46.0016" lon="4.5447">
        <ele>692</ele>
        <time>2018-08-05T06:39:59.000Z</time>
      </trkpt>
      <trkpt lat="46.00164" lon="4.54457">
        <ele>690</ele>
        <time>2018-08-05T06:40:00.000Z</time>
      </trkpt>
      <trkpt lat="46.00166" lon="4.54441">
        <ele>689</ele>
        <time>2018-08-05T06:40:01.000Z</time>
      </trkpt>
      <trkpt lat="46.00167" lon="4.54426">
        <ele>696</ele>
        <time>2018-08-05T06:40:02.000Z</time>
      </trkpt>
      <trkpt lat="46.00167" lon="4.54408">
        <ele>692</ele>
        <time>2018-08-05T06:40:03.000Z</time>
      </trkpt>
      <trkpt lat="46.00168" lon="4.54391">
        <ele>693</ele>
        <time>2018-08-05T06:40:04.000Z</time>
      </trkpt>
      <trkpt lat="46.0017" lon="4.54375">
        <ele>692</ele>
        <time>2018-08-05T06:40:05.000Z</time>
      </trkpt>
      <trkpt lat="46.00173" lon="4.54355">
        <ele>688</ele>
        <time>2018-08-05T06:40:06.000Z</time>
      </trkpt>
      <trkpt lat="46.00178" lon="4.5434">
        <ele>684</ele>
        <time>2018-08-05T06:40:07.000Z</time>
      </trkpt>
      <trkpt lat="46.00183" lon="4.54325">
        <ele>678</ele>
        <time>2018-08-05T06:40:08.000Z</time>
      </trkpt>
      <trkpt lat="46.00188" lon="4.54311">
        <ele>679</ele>
        <time>2018-08-05T06:40:09.000Z</time>
      </trkpt>
      <trkpt lat="46.00194" lon="4.54297">
        <ele>679</ele>
        <time>2018-08-05T06:40:10.000Z</time>
      </trkpt>
      <trkpt lat="46.00199" lon="4.54284">
        <ele>678</ele>
        <time>2018-08-05T06:40:11.000Z</time>
      </trkpt>
      <trkpt lat="46.00205" lon="4.5427">
        <ele>678</ele>
        <time>2018-08-05T06:40:12.000Z</time>
      </trkpt>
      <trkpt lat="46.00212" lon="4.54257">
        <ele>678</ele>
        <time>2018-08-05T06:40:13.000Z</time>
      </trkpt>
      <trkpt lat="46.00218" lon="4.54244">
        <ele>666</ele>
        <time>2018-08-05T06:40:14.000Z</time>
      </trkpt>
      <trkpt lat="46.00226" lon="4.54231">
        <ele>666</ele>
        <time>2018-08-05T06:40:15.000Z</time>
      </trkpt>
      <trkpt lat="46.00233" lon="4.54219">
        <ele>665</ele>
        <time>2018-08-05T06:40:16.000Z</time>
      </trkpt>
      <trkpt lat="46.00242" lon="4.54208">
        <ele>663</ele>
        <time>2018-08-05T06:40:17.000Z</time>
      </trkpt>
      <trkpt lat="46.0025" lon="4.54198">
        <ele>672</ele>
        <time>2018-08-05T06:40:18.000Z</time>
      </trkpt>
      <trkpt lat="46.0026" lon="4.5419">
        <ele>670</ele>
        <time>2018-08-05T06:40:19.000Z</time>
      </trkpt>
      <trkpt lat="46.0027" lon="4.54182">
        <ele>669</ele>
        <time>2018-08-05T06:40:20.000Z</time>
      </trkpt>
      <trkpt lat="46.0028" lon="4.54177">
        <ele>670</ele>
        <time>2018-08-05T06:40:21.000Z</time>
      </trkpt>
      <trkpt lat="46.00291" lon="4.54174">
        <ele>671</ele>
        <time>2018-08-05T06:40:22.000Z</time>
      </trkpt>
      <trkpt lat="46.00302" lon="4.54173">
        <ele>671</ele>
        <time>2018-08-05T06:40:23.000Z</time>
      </trkpt>
      <trkpt lat="46.00312" lon="4.54173">
        <ele>670</ele>
        <time>2018-08-05T06:40:24.000Z</time>
      </trkpt>
      <trkpt lat="46.00322" lon="4.54177">
        <ele>669</ele>
        <time>2018-08-05T06:40:25.000Z</time>
      </trkpt>
      <trkpt lat="46.00331" lon="4.54182">
        <ele>670</ele>
        <time>2018-08-05T06:40:26.000Z</time>
      </trkpt>
      <trkpt lat="46.0034" lon="4.54189">
        <ele>676</ele>
        <time>2018-08-05T06:40:27.000Z</time>
      </trkpt>
      <trkpt lat="46.00348" lon="4.54196">
        <ele>679</ele>
        <time>2018-08-05T06:40:28.000Z</time>
      </trkpt>
      <trkpt lat="46.00357" lon="4.54202">
        <ele>681</ele>
        <time>2018-08-05T06:40:29.000Z</time>
      </trkpt>
      <trkpt lat="46.00367" lon="4.54205">
        <ele>682</ele>
        <time>2018-08-05T06:40:30.000Z</time>
      </trkpt>
      <trkpt lat="46.00377" lon="4.54204">
        <ele>682</ele>
        <time>2018-08-05T06:40:31.000Z</time>
      </trkpt>
      <trkpt lat="46.00386" lon="4.54199">
        <ele>682</ele>
        <time>2018-08-05T06:40:32.000Z</time>
      </trkpt>
      <trkpt lat="46.00394" lon="4.54191">
        <ele>681</ele>
        <time>2018-08-05T06:40:33.000Z</time>
      </trkpt>
      <trkpt lat="46.00402" lon="4.54182">
        <ele>680</ele>
        <time>2018-08-05T06:40:34.000Z</time>
      </trkpt>
      <trkpt lat="46.00409" lon="4.54172">
        <ele>678</ele>
        <time>2018-08-05T06:40:35.000Z</time>
      </trkpt>
      <trkpt lat="46.00416" lon="4.54162">
        <ele>673</ele>
        <time>2018-08-05T06:40:36.000Z</time>
      </trkpt>
      <trkpt lat="46.00422" lon="4.54151">
        <ele>681</ele>
        <time>2018-08-05T06:40:37.000Z</time>
      </trkpt>
      <trkpt lat="46.00426" lon="4.54138">
        <ele>682</ele>
        <time>2018-08-05T06:40:38.000Z</time>
      </trkpt>
      <trkpt lat="46.00429" lon="4.54124">
        <ele>681</ele>
        <time>2018-08-05T06:40:39.000Z</time>
      </trkpt>
      <trkpt lat="46.00432" lon="4.5411">
        <ele>679</ele>
        <time>2018-08-05T06:40:40.000Z</time>
      </trkpt>
      <trkpt lat="46.00434" lon="4.54095">
        <ele>677</ele>
        <time>2018-08-05T06:40:41.000Z</time>
      </trkpt>
      <trkpt lat="46.00436" lon="4.54081">
        <ele>670</ele>
        <time>2018-08-05T06:40:42.000Z</time>
      </trkpt>
      <trkpt lat="46.00438" lon="4.54067">
        <ele>671</ele>
        <time>2018-08-05T06:40:43.000Z</time>
      </trkpt>
      <trkpt lat="46.0044" lon="4.54053">
        <ele>671</ele>
        <time>2018-08-05T06:40:44.000Z</time>
      </trkpt>
      <trkpt lat="46.0044" lon="4.54039">
        <ele>671</ele>
        <time>2018-08-05T06:40:45.000Z</time>
      </trkpt>
      <trkpt lat="46.00439" lon="4.54025">
        <ele>669</ele>
        <time>2018-08-05T06:40:46.000Z</time>
      </trkpt>
      <trkpt lat="46.0044" lon="4.54011">
        <ele>666</ele>
        <time>2018-08-05T06:40:47.000Z</time>
      </trkpt>
      <trkpt lat="46.00442" lon="4.53998">
        <ele>660</ele>
        <time>2018-08-05T06:40:48.000Z</time>
      </trkpt>
      <trkpt lat="46.00444" lon="4.53985">
        <ele>661</ele>
        <time>2018-08-05T06:40:49.000Z</time>
      </trkpt>
      <trkpt lat="46.00447" lon="4.53972">
        <ele>662</ele>
        <time>2018-08-05T06:40:50.000Z</time>
      </trkpt>
      <trkpt lat="46.00451" lon="4.53959">
        <ele>662</ele>
        <time>2018-08-05T06:40:51.000Z</time>
      </trkpt>
      <trkpt lat="46.00454" lon="4.53947">
        <ele>661</ele>
        <time>2018-08-05T06:40:52.000Z</time>
      </trkpt>
      <trkpt lat="46.00457" lon="4.53934">
        <ele>661</ele>
        <time>2018-08-05T06:40:53.000Z</time>
      </trkpt>
      <trkpt lat="46.0046" lon="4.53921">
        <ele>662</ele>
        <time>2018-08-05T06:40:54.000Z</time>
      </trkpt>
      <trkpt lat="46.00463" lon="4.53908">
        <ele>656</ele>
        <time>2018-08-05T06:40:55.000Z</time>
      </trkpt>
      <trkpt lat="46.00465" lon="4.53895">
        <ele>656</ele>
        <time>2018-08-05T06:40:56.000Z</time>
      </trkpt>
      <trkpt lat="46.00467" lon="4.53882">
        <ele>656</ele>
        <time>2018-08-05T06:40:57.000Z</time>
      </trkpt>
      <trkpt lat="46.00468" lon="4.53869">
        <ele>655</ele>
        <time>2018-08-05T06:40:58.000Z</time>
      </trkpt>
      <trkpt lat="46.00468" lon="4.53856">
        <ele>655</ele>
        <time>2018-08-05T06:40:59.000Z</time>
      </trkpt>
      <trkpt lat="46.00468" lon="4.53842">
        <ele>655</ele>
        <time>2018-08-05T06:41:00.000Z</time>
      </trkpt>
      <trkpt lat="46.00467" lon="4.53828">
        <ele>652</ele>
        <time>2018-08-05T06:41:01.000Z</time>
      </trkpt>
      <trkpt lat="46.00467" lon="4.53815">
        <ele>652</ele>
        <time>2018-08-05T06:41:02.000Z</time>
      </trkpt>
      <trkpt lat="46.00466" lon="4.53801">
        <ele>651</ele>
        <time>2018-08-05T06:41:03.000Z</time>
      </trkpt>
      <trkpt lat="46.00465" lon="4.53788">
        <ele>650</ele>
        <time>2018-08-05T06:41:04.000Z</time>
      </trkpt>
      <trkpt lat="46.00463" lon="4.53775">
        <ele>650</ele>
        <time>2018-08-05T06:41:05.000Z</time>
      </trkpt>
      <trkpt lat="46.0046" lon="4.53762">
        <ele>649</ele>
        <time>2018-08-05T06:41:06.000Z</time>
      </trkpt>
      <trkpt lat="46.00456" lon="4.5375">
        <ele>648</ele>
        <time>2018-08-05T06:41:07.000Z</time>
      </trkpt>
      <trkpt lat="46.00451" lon="4.53738">
        <ele>647</ele>
        <time>2018-08-05T06:41:08.000Z</time>
      </trkpt>
      <trkpt lat="46.00445" lon="4.53728">
        <ele>647</ele>
        <time>2018-08-05T06:41:09.000Z</time>
      </trkpt>
      <trkpt lat="46.00439" lon="4.53717">
        <ele>646</ele>
        <time>2018-08-05T06:41:10.000Z</time>
      </trkpt>
      <trkpt lat="46.00433" lon="4.53707">
        <ele>646</ele>
        <time>2018-08-05T06:41:11.000Z</time>
      </trkpt>
      <trkpt lat="46.00429" lon="4.53694">
        <ele>646</ele>
        <time>2018-08-05T06:41:12.000Z</time>
      </trkpt>
      <trkpt lat="46.00427" lon="4.53681">
        <ele>645</ele>
        <time>2018-08-05T06:41:13.000Z</time>
      </trkpt>
      <trkpt lat="46.00427" lon="4.53667">
        <ele>643</ele>
        <time>2018-08-05T06:41:14.000Z</time>
      </trkpt>
      <trkpt lat="46.00429" lon="4.53653">
        <ele>643</ele>
        <time>2018-08-05T06:41:15.000Z</time>
      </trkpt>
      <trkpt lat="46.00433" lon="4.5364">
        <ele>642</ele>
        <time>2018-08-05T06:41:16.000Z</time>
      </trkpt>
      <trkpt lat="46.00437" lon="4.53627">
        <ele>642</ele>
        <time>2018-08-05T06:41:17.000Z</time>
      </trkpt>
      <trkpt lat="46.00441" lon="4.53615">
        <ele>641</ele>
        <time>2018-08-05T06:41:18.000Z</time>
      </trkpt>
      <trkpt lat="46.00445" lon="4.53602">
        <ele>640</ele>
        <time>2018-08-05T06:41:19.000Z</time>
      </trkpt>
      <trkpt lat="46.00448" lon="4.53589">
        <ele>640</ele>
        <time>2018-08-05T06:41:20.000Z</time>
      </trkpt>
      <trkpt lat="46.0045" lon="4.53576">
        <ele>639</ele>
        <time>2018-08-05T06:41:21.000Z</time>
      </trkpt>
      <trkpt lat="46.00451" lon="4.53562">
        <ele>640</ele>
        <time>2018-08-05T06:41:22.000Z</time>
      </trkpt>
      <trkpt lat="46.00451" lon="4.53549">
        <ele>640</ele>
        <time>2018-08-05T06:41:23.000Z</time>
      </trkpt>
      <trkpt lat="46.00449" lon="4.53535">
        <ele>640</ele>
        <time>2018-08-05T06:41:24.000Z</time>
      </trkpt>
      <trkpt lat="46.00445" lon="4.53523">
        <ele>641</ele>
        <time>2018-08-05T06:41:25.000Z</time>
      </trkpt>
      <trkpt lat="46.00441" lon="4.53512">
        <ele>641</ele>
        <time>2018-08-05T06:41:26.000Z</time>
      </trkpt>
      <trkpt lat="46.00435" lon="4.53502">
        <ele>641</ele>
        <time>2018-08-05T06:41:27.000Z</time>
      </trkpt>
      <trkpt lat="46.00429" lon="4.53493">
        <ele>645</ele>
        <time>2018-08-05T06:41:28.000Z</time>
      </trkpt>
      <trkpt lat="46.00423" lon="4.53483">
        <ele>646</ele>
        <time>2018-08-05T06:41:29.000Z</time>
      </trkpt>
      <trkpt lat="46.00417" lon="4.53474">
        <ele>648</ele>
        <time>2018-08-05T06:41:30.000Z</time>
      </trkpt>
      <trkpt lat="46.0041" lon="4.53466">
        <ele>644</ele>
        <time>2018-08-05T06:41:31.000Z</time>
      </trkpt>
      <trkpt lat="46.00403" lon="4.53458">
        <ele>645</ele>
        <time>2018-08-05T06:41:32.000Z</time>
      </trkpt>
      <trkpt lat="46.00396" lon="4.53451">
        <ele>645</ele>
        <time>2018-08-05T06:41:33.000Z</time>
      </trkpt>
      <trkpt lat="46.00388" lon="4.53444">
        <ele>646</ele>
        <time>2018-08-05T06:41:34.000Z</time>
      </trkpt>
      <trkpt lat="46.0038" lon="4.53438">
        <ele>645</ele>
        <time>2018-08-05T06:41:35.000Z</time>
      </trkpt>
      <trkpt lat="46.00372" lon="4.53432">
        <ele>645</ele>
        <time>2018-08-05T06:41:36.000Z</time>
      </trkpt>
      <trkpt lat="46.00364" lon="4.53427">
        <ele>645</ele>
        <time>2018-08-05T06:41:37.000Z</time>
      </trkpt>
      <trkpt lat="46.00357" lon="4.53422">
        <ele>645</ele>
        <time>2018-08-05T06:41:38.000Z</time>
      </trkpt>
      <trkpt lat="46.00349" lon="4.53419">
        <ele>645</ele>
        <time>2018-08-05T06:41:39.000Z</time>
      </trkpt>
      <trkpt lat="46.00341" lon="4.53415">
        <ele>649</ele>
        <time>2018-08-05T06:41:40.000Z</time>
      </trkpt>
      <trkpt lat="46.00333" lon="4.53412">
        <ele>647</ele>
        <time>2018-08-05T06:41:41.000Z</time>
      </trkpt>
      <trkpt lat="46.00325" lon="4.53409">
        <ele>648</ele>
        <time>2018-08-05T06:41:42.000Z</time>
      </trkpt>
      <trkpt lat="46.00317" lon="4.53406">
        <ele>648</ele>
        <time>2018-08-05T06:41:43.000Z</time>
      </trkpt>
      <trkpt lat="46.00308" lon="4.53403">
        <ele>648</ele>
        <time>2018-08-05T06:41:44.000Z</time>
      </trkpt>
      <trkpt lat="46.003" lon="4.53399">
        <ele>648</ele>
        <time>2018-08-05T06:41:45.000Z</time>
      </trkpt>
      <trkpt lat="46.00292" lon="4.53396">
        <ele>648</ele>
        <time>2018-08-05T06:41:46.000Z</time>
      </trkpt>
      <trkpt lat="46.00284" lon="4.53393">
        <ele>648</ele>
        <time>2018-08-05T06:41:47.000Z</time>
      </trkpt>
      <trkpt lat="46.00276" lon="4.53389">
        <ele>648</ele>
        <time>2018-08-05T06:41:48.000Z</time>
      </trkpt>
      <trkpt lat="46.00267" lon="4.53388">
        <ele>647</ele>
        <time>2018-08-05T06:41:49.000Z</time>
      </trkpt>
      <trkpt lat="46.00259" lon="4.53387">
        <ele>647</ele>
        <time>2018-08-05T06:41:50.000Z</time>
      </trkpt>
      <trkpt lat="46.0025" lon="4.53387">
        <ele>643</ele>
        <time>2018-08-05T06:41:51.000Z</time>
      </trkpt>
      <trkpt lat="46.00241" lon="4.53388">
        <ele>643</ele>
        <time>2018-08-05T06:41:52.000Z</time>
      </trkpt>
      <trkpt lat="46.00232" lon="4.53391">
        <ele>642</ele>
        <time>2018-08-05T06:41:53.000Z</time>
      </trkpt>
      <trkpt lat="46.00224" lon="4.53393">
        <ele>642</ele>
        <time>2018-08-05T06:41:54.000Z</time>
      </trkpt>
      <trkpt lat="46.00215" lon="4.53397">
        <ele>642</ele>
        <time>2018-08-05T06:41:55.000Z</time>
      </trkpt>
      <trkpt lat="46.00207" lon="4.534">
        <ele>642</ele>
        <time>2018-08-05T06:41:56.000Z</time>
      </trkpt>
      <trkpt lat="46.00199" lon="4.53402">
        <ele>641</ele>
        <time>2018-08-05T06:41:57.000Z</time>
      </trkpt>
      <trkpt lat="46.00191" lon="4.53403">
        <ele>640</ele>
        <time>2018-08-05T06:41:58.000Z</time>
      </trkpt>
      <trkpt lat="46.00182" lon="4.53403">
        <ele>639</ele>
        <time>2018-08-05T06:41:59.000Z</time>
      </trkpt>
      <trkpt lat="46.00174" lon="4.53401">
        <ele>638</ele>
        <time>2018-08-05T06:42:00.000Z</time>
      </trkpt>
      <trkpt lat="46.00165" lon="4.53398">
        <ele>633</ele>
        <time>2018-08-05T06:42:01.000Z</time>
      </trkpt>
      <trkpt lat="46.00157" lon="4.53393">
        <ele>633</ele>
        <time>2018-08-05T06:42:02.000Z</time>
      </trkpt>
      <trkpt lat="46.00149" lon="4.53387">
        <ele>634</ele>
        <time>2018-08-05T06:42:03.000Z</time>
      </trkpt>
      <trkpt lat="46.00142" lon="4.5338">
        <ele>634</ele>
        <time>2018-08-05T06:42:04.000Z</time>
      </trkpt>
      <trkpt lat="46.00134" lon="4.53373">
        <ele>634</ele>
        <time>2018-08-05T06:42:05.000Z</time>
      </trkpt>
      <trkpt lat="46.00127" lon="4.53365">
        <ele>634</ele>
        <time>2018-08-05T06:42:06.000Z</time>
      </trkpt>
      <trkpt lat="46.0012" lon="4.53357">
        <ele>634</ele>
        <time>2018-08-05T06:42:07.000Z</time>
      </trkpt>
      <trkpt lat="46.00113" lon="4.53348">
        <ele>634</ele>
        <time>2018-08-05T06:42:08.000Z</time>
      </trkpt>
      <trkpt lat="46.00107" lon="4.53338">
        <ele>634</ele>
        <time>2018-08-05T06:42:09.000Z</time>
      </trkpt>
      <trkpt lat="46.00101" lon="4.53329">
        <ele>640</ele>
        <time>2018-08-05T06:42:10.000Z</time>
      </trkpt>
      <trkpt lat="46.00095" lon="4.53319">
        <ele>639</ele>
        <time>2018-08-05T06:42:11.000Z</time>
      </trkpt>
      <trkpt lat="46.00089" lon="4.53309">
        <ele>641</ele>
        <time>2018-08-05T06:42:12.000Z</time>
      </trkpt>
      <trkpt lat="46.00084" lon="4.53299">
        <ele>642</ele>
        <time>2018-08-05T06:42:13.000Z</time>
      </trkpt>
      <trkpt lat="46.00079" lon="4.53289">
        <ele>627</ele>
        <time>2018-08-05T06:42:14.000Z</time>
      </trkpt>
      <trkpt lat="46.00074" lon="4.5328">
        <ele>628</ele>
        <time>2018-08-05T06:42:15.000Z</time>
      </trkpt>
      <trkpt lat="46.00069" lon="4.5327">
        <ele>629</ele>
        <time>2018-08-05T06:42:16.000Z</time>
      </trkpt>
      <trkpt lat="46.00064" lon="4.5326">
        <ele>630</ele>
        <time>2018-08-05T06:42:17.000Z</time>
      </trkpt>
      <trkpt lat="46.00059" lon="4.53251">
        <ele>629</ele>
        <time>2018-08-05T06:42:18.000Z</time>
      </trkpt>
      <trkpt lat="46.00054" lon="4.53242">
        <ele>632</ele>
        <time>2018-08-05T06:42:19.000Z</time>
      </trkpt>
      <trkpt lat="46.00049" lon="4.53234">
        <ele>631</ele>
        <time>2018-08-05T06:42:20.000Z</time>
      </trkpt>
      <trkpt lat="46.00044" lon="4.53226">
        <ele>631</ele>
        <time>2018-08-05T06:42:21.000Z</time>
      </trkpt>
      <trkpt lat="46.00039" lon="4.53217">
        <ele>630</ele>
        <time>2018-08-05T06:42:22.000Z</time>
      </trkpt>
      <trkpt lat="46.00034" lon="4.53209">
        <ele>630</ele>
        <time>2018-08-05T06:42:23.000Z</time>
      </trkpt>
      <trkpt lat="46.0003" lon="4.53199">
        <ele>630</ele>
        <time>2018-08-05T06:42:24.000Z</time>
      </trkpt>
      <trkpt lat="46.00025" lon="4.5319">
        <ele>630</ele>
        <time>2018-08-05T06:42:25.000Z</time>
      </trkpt>
      <trkpt lat="46.00021" lon="4.53179">
        <ele>630</ele>
        <time>2018-08-05T06:42:26.000Z</time>
      </trkpt>
      <trkpt lat="46.00018" lon="4.53168">
        <ele>629</ele>
        <time>2018-08-05T06:42:27.000Z</time>
      </trkpt>
      <trkpt lat="46.00017" lon="4.53157">
        <ele>629</ele>
        <time>2018-08-05T06:42:28.000Z</time>
      </trkpt>
      <trkpt lat="46.00016" lon="4.53144">
        <ele>628</ele>
        <time>2018-08-05T06:42:29.000Z</time>
      </trkpt>
      <trkpt lat="46.00017" lon="4.53132">
        <ele>628</ele>
        <time>2018-08-05T06:42:30.000Z</time>
      </trkpt>
      <trkpt lat="46.00019" lon="4.5312">
        <ele>628</ele>
        <time>2018-08-05T06:42:31.000Z</time>
      </trkpt>
      <trkpt lat="46.00021" lon="4.53107">
        <ele>628</ele>
        <time>2018-08-05T06:42:32.000Z</time>
      </trkpt>
      <trkpt lat="46.00023" lon="4.53094">
        <ele>627</ele>
        <time>2018-08-05T06:42:33.000Z</time>
      </trkpt>
      <trkpt lat="46.00024" lon="4.53082">
        <ele>626</ele>
        <time>2018-08-05T06:42:34.000Z</time>
      </trkpt>
      <trkpt lat="46.00026" lon="4.5307">
        <ele>626</ele>
        <time>2018-08-05T06:42:35.000Z</time>
      </trkpt>
      <trkpt lat="46.00028" lon="4.53058">
        <ele>626</ele>
        <time>2018-08-05T06:42:36.000Z</time>
      </trkpt>
      <trkpt lat="46.0003" lon="4.53046">
        <ele>626</ele>
        <time>2018-08-05T06:42:37.000Z</time>
      </trkpt>
      <trkpt lat="46.00032" lon="4.53034">
        <ele>626</ele>
        <time>2018-08-05T06:42:38.000Z</time>
      </trkpt>
      <trkpt lat="46.00035" lon="4.53022">
        <ele>626</ele>
        <time>2018-08-05T06:42:39.000Z</time>
      </trkpt>
      <trkpt lat="46.00039" lon="4.53011">
        <ele>626</ele>
        <time>2018-08-05T06:42:40.000Z</time>
      </trkpt>
      <trkpt lat="46.00043" lon="4.53">
        <ele>632</ele>
        <time>2018-08-05T06:42:41.000Z</time>
      </trkpt>
      <trkpt lat="46.00047" lon="4.52989">
        <ele>631</ele>
        <time>2018-08-05T06:42:42.000Z</time>
      </trkpt>
      <trkpt lat="46.00051" lon="4.52978">
        <ele>632</ele>
        <time>2018-08-05T06:42:43.000Z</time>
      </trkpt>
      <trkpt lat="46.00056" lon="4.52967">
        <ele>632</ele>
        <time>2018-08-05T06:42:44.000Z</time>
      </trkpt>
      <trkpt lat="46.00061" lon="4.52956">
        <ele>633</ele>
        <time>2018-08-05T06:42:45.000Z</time>
      </trkpt>
      <trkpt lat="46.00066" lon="4.52946">
        <ele>634</ele>
        <time>2018-08-05T06:42:46.000Z</time>
      </trkpt>
      <trkpt lat="46.00072" lon="4.52936">
        <ele>634</ele>
        <time>2018-08-05T06:42:47.000Z</time>
      </trkpt>
      <trkpt lat="46.00079" lon="4.52927">
        <ele>634</ele>
        <time>2018-08-05T06:42:48.000Z</time>
      </trkpt>
      <trkpt lat="46.00085" lon="4.52919">
        <ele>631</ele>
        <time>2018-08-05T06:42:49.000Z</time>
      </trkpt>
      <trkpt lat="46.00092" lon="4.5291">
        <ele>632</ele>
        <time>2018-08-05T06:42:50.000Z</time>
      </trkpt>
      <trkpt lat="46.00098" lon="4.52902">
        <ele>631</ele>
        <time>2018-08-05T06:42:51.000Z</time>
      </trkpt>
      <trkpt lat="46.00105" lon="4.52894">
        <ele>630</ele>
        <time>2018-08-05T06:42:52.000Z</time>
      </trkpt>
      <trkpt lat="46.00111" lon="4.52885">
        <ele>630</ele>
        <time>2018-08-05T06:42:53.000Z</time>
      </trkpt>
      <trkpt lat="46.00118" lon="4.52877">
        <ele>630</ele>
        <time>2018-08-05T06:42:54.000Z</time>
      </trkpt>
      <trkpt lat="46.00124" lon="4.52868">
        <ele>630</ele>
        <time>2018-08-05T06:42:55.000Z</time>
      </trkpt>
      <trkpt lat="46.0013" lon="4.52859">
        <ele>630</ele>
        <time>2018-08-05T06:42:56.000Z</time>
      </trkpt>
      <trkpt lat="46.00135" lon="4.5285">
        <ele>629</ele>
        <time>2018-08-05T06:42:57.000Z</time>
      </trkpt>
      <trkpt lat="46.00141" lon="4.5284">
        <ele>628</ele>
        <time>2018-08-05T06:42:58.000Z</time>
      </trkpt>
      <trkpt lat="46.00145" lon="4.5283">
        <ele>634</ele>
        <time>2018-08-05T06:42:59.000Z</time>
      </trkpt>
      <trkpt lat="46.00148" lon="4.52819">
        <ele>634</ele>
        <time>2018-08-05T06:43:00.000Z</time>
      </trkpt>
      <trkpt lat="46.00152" lon="4.52808">
        <ele>635</ele>
        <time>2018-08-05T06:43:01.000Z</time>
      </trkpt>
      <trkpt lat="46.00155" lon="4.52798">
        <ele>636</ele>
        <time>2018-08-05T06:43:02.000Z</time>
      </trkpt>
      <trkpt lat="46.00159" lon="4.52787">
        <ele>637</ele>
        <time>2018-08-05T06:43:03.000Z</time>
      </trkpt>
      <trkpt lat="46.00163" lon="4.52776">
        <ele>636</ele>
        <time>2018-08-05T06:43:04.000Z</time>
      </trkpt>
      <trkpt lat="46.00169" lon="4.52766">
        <ele>626</ele>
        <time>2018-08-05T06:43:05.000Z</time>
      </trkpt>
      <trkpt lat="46.00175" lon="4.52757">
        <ele>627</ele>
        <time>2018-08-05T06:43:06.000Z</time>
      </trkpt>
      <trkpt lat="46.00181" lon="4.52748">
        <ele>628</ele>
        <time>2018-08-05T06:43:07.000Z</time>
      </trkpt>
      <trkpt lat="46.00188" lon="4.5274">
        <ele>626</ele>
        <time>2018-08-05T06:43:08.000Z</time>
      </trkpt>
      <trkpt lat="46.00194" lon="4.52732">
        <ele>625</ele>
        <time>2018-08-05T06:43:09.000Z</time>
      </trkpt>
      <trkpt lat="46.00201" lon="4.52724">
        <ele>624</ele>
        <time>2018-08-05T06:43:10.000Z</time>
      </trkpt>
      <trkpt lat="46.00209" lon="4.52718">
        <ele>624</ele>
        <time>2018-08-05T06:43:11.000Z</time>
      </trkpt>
      <trkpt lat="46.00216" lon="4.5271">
        <ele>623</ele>
        <time>2018-08-05T06:43:12.000Z</time>
      </trkpt>
      <trkpt lat="46.00223" lon="4.52703">
        <ele>623</ele>
        <time>2018-08-05T06:43:13.000Z</time>
      </trkpt>
      <trkpt lat="46.0023" lon="4.52695">
        <ele>622</ele>
        <time>2018-08-05T06:43:14.000Z</time>
      </trkpt>
      <trkpt lat="46.00237" lon="4.52687">
        <ele>622</ele>
        <time>2018-08-05T06:43:15.000Z</time>
      </trkpt>
      <trkpt lat="46.00244" lon="4.52679">
        <ele>621</ele>
        <time>2018-08-05T06:43:16.000Z</time>
      </trkpt>
      <trkpt lat="46.00251" lon="4.52672">
        <ele>620</ele>
        <time>2018-08-05T06:43:17.000Z</time>
      </trkpt>
      <trkpt lat="46.00258" lon="4.52664">
        <ele>619</ele>
        <time>2018-08-05T06:43:18.000Z</time>
      </trkpt>
      <trkpt lat="46.00264" lon="4.52657">
        <ele>619</ele>
        <time>2018-08-05T06:43:19.000Z</time>
      </trkpt>
      <trkpt lat="46.00271" lon="4.52649">
        <ele>618</ele>
        <time>2018-08-05T06:43:20.000Z</time>
      </trkpt>
      <trkpt lat="46.00277" lon="4.52642">
        <ele>618</ele>
        <time>2018-08-05T06:43:21.000Z</time>
      </trkpt>
      <trkpt lat="46.00283" lon="4.52634">
        <ele>618</ele>
        <time>2018-08-05T06:43:22.000Z</time>
      </trkpt>
      <trkpt lat="46.00289" lon="4.52627">
        <ele>617</ele>
        <time>2018-08-05T06:43:23.000Z</time>
      </trkpt>
      <trkpt lat="46.00295" lon="4.52619">
        <ele>617</ele>
        <time>2018-08-05T06:43:24.000Z</time>
      </trkpt>
      <trkpt lat="46.00301" lon="4.52611">
        <ele>617</ele>
        <time>2018-08-05T06:43:25.000Z</time>
      </trkpt>
      <trkpt lat="46.00307" lon="4.52604">
        <ele>617</ele>
        <time>2018-08-05T06:43:26.000Z</time>
      </trkpt>
      <trkpt lat="46.00312" lon="4.52596">
        <ele>618</ele>
        <time>2018-08-05T06:43:27.000Z</time>
      </trkpt>
      <trkpt lat="46.00318" lon="4.52588">
        <ele>618</ele>
        <time>2018-08-05T06:43:28.000Z</time>
      </trkpt>
      <trkpt lat="46.00324" lon="4.52581">
        <ele>614</ele>
        <time>2018-08-05T06:43:29.000Z</time>
      </trkpt>
      <trkpt lat="46.0033" lon="4.52573">
        <ele>614</ele>
        <time>2018-08-05T06:43:30.000Z</time>
      </trkpt>
      <trkpt lat="46.00336" lon="4.52566">
        <ele>617</ele>
        <time>2018-08-05T06:43:31.000Z</time>
      </trkpt>
      <trkpt lat="46.00342" lon="4.5256">
        <ele>616</ele>
        <time>2018-08-05T06:43:32.000Z</time>
      </trkpt>
      <trkpt lat="46.00349" lon="4.52554">
        <ele>615</ele>
        <time>2018-08-05T06:43:33.000Z</time>
      </trkpt>
      <trkpt lat="46.00355" lon="4.52548">
        <ele>615</ele>
        <time>2018-08-05T06:43:34.000Z</time>
      </trkpt>
      <trkpt lat="46.00362" lon="4.52542">
        <ele>615</ele>
        <time>2018-08-05T06:43:35.000Z</time>
      </trkpt>
      <trkpt lat="46.00369" lon="4.52536">
        <ele>615</ele>
        <time>2018-08-05T06:43:36.000Z</time>
      </trkpt>
      <trkpt lat="46.00376" lon="4.52531">
        <ele>615</ele>
        <time>2018-08-05T06:43:37.000Z</time>
      </trkpt>
      <trkpt lat="46.00382" lon="4.52526">
        <ele>615</ele>
        <time>2018-08-05T06:43:38.000Z</time>
      </trkpt>
      <trkpt lat="46.00389" lon="4.52521">
        <ele>615</ele>
        <time>2018-08-05T06:43:39.000Z</time>
      </trkpt>
      <trkpt lat="46.00395" lon="4.52515">
        <ele>616</ele>
        <time>2018-08-05T06:43:40.000Z</time>
      </trkpt>
      <trkpt lat="46.00402" lon="4.5251">
        <ele>617</ele>
        <time>2018-08-05T06:43:41.000Z</time>
      </trkpt>
      <trkpt lat="46.00408" lon="4.52504">
        <ele>618</ele>
        <time>2018-08-05T06:43:42.000Z</time>
      </trkpt>
      <trkpt lat="46.00414" lon="4.52498">
        <ele>617</ele>
        <time>2018-08-05T06:43:43.000Z</time>
      </trkpt>
      <trkpt lat="46.0042" lon="4.52491">
        <ele>618</ele>
        <time>2018-08-05T06:43:44.000Z</time>
      </trkpt>
      <trkpt lat="46.00424" lon="4.52484">
        <ele>618</ele>
        <time>2018-08-05T06:43:45.000Z</time>
      </trkpt>
      <trkpt lat="46.00429" lon="4.52476">
        <ele>618</ele>
        <time>2018-08-05T06:43:46.000Z</time>
      </trkpt>
      <trkpt lat="46.00434" lon="4.52469">
        <ele>617</ele>
        <time>2018-08-05T06:43:47.000Z</time>
      </trkpt>
      <trkpt lat="46.00439" lon="4.52461">
        <ele>617</ele>
        <time>2018-08-05T06:43:48.000Z</time>
      </trkpt>
      <trkpt lat="46.00443" lon="4.52453">
        <ele>616</ele>
        <time>2018-08-05T06:43:49.000Z</time>
      </trkpt>
      <trkpt lat="46.00448" lon="4.52445">
        <ele>616</ele>
        <time>2018-08-05T06:43:50.000Z</time>
      </trkpt>
      <trkpt lat="46.00453" lon="4.52436">
        <ele>616</ele>
        <time>2018-08-05T06:43:51.000Z</time>
      </trkpt>
      <trkpt lat="46.00458" lon="4.52428">
        <ele>616</ele>
        <time>2018-08-05T06:43:52.000Z</time>
      </trkpt>
      <trkpt lat="46.00463" lon="4.52419">
        <ele>617</ele>
        <time>2018-08-05T06:43:53.000Z</time>
      </trkpt>
      <trkpt lat="46.00468" lon="4.5241">
        <ele>612</ele>
        <time>2018-08-05T06:43:54.000Z</time>
      </trkpt>
      <trkpt lat="46.00473" lon="4.52402">
        <ele>612</ele>
        <time>2018-08-05T06:43:55.000Z</time>
      </trkpt>
      <trkpt lat="46.00478" lon="4.52393">
        <ele>612</ele>
        <time>2018-08-05T06:43:56.000Z</time>
      </trkpt>
      <trkpt lat="46.00483" lon="4.52384">
        <ele>611</ele>
        <time>2018-08-05T06:43:57.000Z</time>
      </trkpt>
      <trkpt lat="46.00488" lon="4.52375">
        <ele>611</ele>
        <time>2018-08-05T06:43:58.000Z</time>
      </trkpt>
      <trkpt lat="46.00493" lon="4.52366">
        <ele>611</ele>
        <time>2018-08-05T06:43:59.000Z</time>
      </trkpt>
      <trkpt lat="46.00498" lon="4.52357">
        <ele>611</ele>
        <time>2018-08-05T06:44:00.000Z</time>
      </trkpt>
      <trkpt lat="46.00503" lon="4.52348">
        <ele>619</ele>
        <time>2018-08-05T06:44:01.000Z</time>
      </trkpt>
      <trkpt lat="46.00508" lon="4.52339">
        <ele>618</ele>
        <time>2018-08-05T06:44:02.000Z</time>
      </trkpt>
      <trkpt lat="46.00513" lon="4.5233">
        <ele>618</ele>
        <time>2018-08-05T06:44:03.000Z</time>
      </trkpt>
      <trkpt lat="46.00518" lon="4.5232">
        <ele>619</ele>
        <time>2018-08-05T06:44:04.000Z</time>
      </trkpt>
      <trkpt lat="46.00522" lon="4.52311">
        <ele>620</ele>
        <time>2018-08-05T06:44:05.000Z</time>
      </trkpt>
      <trkpt lat="46.00527" lon="4.52301">
        <ele>621</ele>
        <time>2018-08-05T06:44:06.000Z</time>
      </trkpt>
      <trkpt lat="46.00531" lon="4.52291">
        <ele>621</ele>
        <time>2018-08-05T06:44:07.000Z</time>
      </trkpt>
      <trkpt lat="46.00534" lon="4.5228">
        <ele>621</ele>
        <time>2018-08-05T06:44:08.000Z</time>
      </trkpt>
      <trkpt lat="46.00536" lon="4.52268">
        <ele>621</ele>
        <time>2018-08-05T06:44:09.000Z</time>
      </trkpt>
      <trkpt lat="46.00538" lon="4.52257">
        <ele>622</ele>
        <time>2018-08-05T06:44:10.000Z</time>
      </trkpt>
      <trkpt lat="46.00539" lon="4.52245">
        <ele>621</ele>
        <time>2018-08-05T06:44:11.000Z</time>
      </trkpt>
      <trkpt lat="46.00539" lon="4.52232">
        <ele>621</ele>
        <time>2018-08-05T06:44:12.000Z</time>
      </trkpt>
      <trkpt lat="46.00539" lon="4.52221">
        <ele>621</ele>
        <time>2018-08-05T06:44:13.000Z</time>
      </trkpt>
      <trkpt lat="46.00539" lon="4.52209">
        <ele>621</ele>
        <time>2018-08-05T06:44:14.000Z</time>
      </trkpt>
      <trkpt lat="46.00538" lon="4.52197">
        <ele>621</ele>
        <time>2018-08-05T06:44:15.000Z</time>
      </trkpt>
      <trkpt lat="46.00538" lon="4.52186">
        <ele>620</ele>
        <time>2018-08-05T06:44:16.000Z</time>
      </trkpt>
      <trkpt lat="46.00537" lon="4.52175">
        <ele>620</ele>
        <time>2018-08-05T06:44:17.000Z</time>
      </trkpt>
      <trkpt lat="46.00537" lon="4.52164">
        <ele>620</ele>
        <time>2018-08-05T06:44:18.000Z</time>
      </trkpt>
      <trkpt lat="46.00537" lon="4.52152">
        <ele>620</ele>
        <time>2018-08-05T06:44:19.000Z</time>
      </trkpt>
      <trkpt lat="46.00536" lon="4.52141">
        <ele>620</ele>
        <time>2018-08-05T06:44:20.000Z</time>
      </trkpt>
      <trkpt lat="46.00534" lon="4.52131">
        <ele>620</ele>
        <time>2018-08-05T06:44:21.000Z</time>
      </trkpt>
      <trkpt lat="46.00532" lon="4.52121">
        <ele>620</ele>
        <time>2018-08-05T06:44:22.000Z</time>
      </trkpt>
      <trkpt lat="46.00529" lon="4.5211">
        <ele>619</ele>
        <time>2018-08-05T06:44:23.000Z</time>
      </trkpt>
      <trkpt lat="46.00526" lon="4.521">
        <ele>618</ele>
        <time>2018-08-05T06:44:24.000Z</time>
      </trkpt>
      <trkpt lat="46.00523" lon="4.52091">
        <ele>617</ele>
        <time>2018-08-05T06:44:25.000Z</time>
      </trkpt>
      <trkpt lat="46.0052" lon="4.52081">
        <ele>616</ele>
        <time>2018-08-05T06:44:26.000Z</time>
      </trkpt>
      <trkpt lat="46.00517" lon="4.5207">
        <ele>616</ele>
        <time>2018-08-05T06:44:27.000Z</time>
      </trkpt>
      <trkpt lat="46.00514" lon="4.5206">
        <ele>617</ele>
        <time>2018-08-05T06:44:28.000Z</time>
      </trkpt>
      <trkpt lat="46.00512" lon="4.52049">
        <ele>617</ele>
        <time>2018-08-05T06:44:29.000Z</time>
      </trkpt>
      <trkpt lat="46.00511" lon="4.52037">
        <ele>617</ele>
        <time>2018-08-05T06:44:30.000Z</time>
      </trkpt>
      <trkpt lat="46.00511" lon="4.52025">
        <ele>617</ele>
        <time>2018-08-05T06:44:31.000Z</time>
      </trkpt>
      <trkpt lat="46.00512" lon="4.52013">
        <ele>616</ele>
        <time>2018-08-05T06:44:32.000Z</time>
      </trkpt>
      <trkpt lat="46.00514" lon="4.52001">
        <ele>615</ele>
        <time>2018-08-05T06:44:33.000Z</time>
      </trkpt>
      <trkpt lat="46.00516" lon="4.51989">
        <ele>614</ele>
        <time>2018-08-05T06:44:34.000Z</time>
      </trkpt>
      <trkpt lat="46.00519" lon="4.51978">
        <ele>614</ele>
        <time>2018-08-05T06:44:35.000Z</time>
      </trkpt>
      <trkpt lat="46.00522" lon="4.51967">
        <ele>614</ele>
        <time>2018-08-05T06:44:36.000Z</time>
      </trkpt>
      <trkpt lat="46.00525" lon="4.51955">
        <ele>614</ele>
        <time>2018-08-05T06:44:37.000Z</time>
      </trkpt>
      <trkpt lat="46.00528" lon="4.51944">
        <ele>614</ele>
        <time>2018-08-05T06:44:38.000Z</time>
      </trkpt>
      <trkpt lat="46.00531" lon="4.51933">
        <ele>613</ele>
        <time>2018-08-05T06:44:39.000Z</time>
      </trkpt>
      <trkpt lat="46.00534" lon="4.51922">
        <ele>613</ele>
        <time>2018-08-05T06:44:40.000Z</time>
      </trkpt>
      <trkpt lat="46.00537" lon="4.5191">
        <ele>609</ele>
        <time>2018-08-05T06:44:41.000Z</time>
      </trkpt>
      <trkpt lat="46.0054" lon="4.51899">
        <ele>609</ele>
        <time>2018-08-05T06:44:42.000Z</time>
      </trkpt>
      <trkpt lat="46.00543" lon="4.51887">
        <ele>609</ele>
        <time>2018-08-05T06:44:43.000Z</time>
      </trkpt>
      <trkpt lat="46.00546" lon="4.51876">
        <ele>608</ele>
        <time>2018-08-05T06:44:44.000Z</time>
      </trkpt>
      <trkpt lat="46.00548" lon="4.51864">
        <ele>608</ele>
        <time>2018-08-05T06:44:45.000Z</time>
      </trkpt>
      <trkpt lat="46.00551" lon="4.51853">
        <ele>608</ele>
        <time>2018-08-05T06:44:46.000Z</time>
      </trkpt>
      <trkpt lat="46.00553" lon="4.51841">
        <ele>608</ele>
        <time>2018-08-05T06:44:47.000Z</time>
      </trkpt>
      <trkpt lat="46.00556" lon="4.51829">
        <ele>604</ele>
        <time>2018-08-05T06:44:48.000Z</time>
      </trkpt>
      <trkpt lat="46.00559" lon="4.51817">
        <ele>604</ele>
        <time>2018-08-05T06:44:49.000Z</time>
      </trkpt>
      <trkpt lat="46.00562" lon="4.51806">
        <ele>604</ele>
        <time>2018-08-05T06:44:50.000Z</time>
      </trkpt>
      <trkpt lat="46.00565" lon="4.51794">
        <ele>603</ele>
        <time>2018-08-05T06:44:51.000Z</time>
      </trkpt>
      <trkpt lat="46.00569" lon="4.51784">
        <ele>603</ele>
        <time>2018-08-05T06:44:52.000Z</time>
      </trkpt>
      <trkpt lat="46.00574" lon="4.51774">
        <ele>603</ele>
        <time>2018-08-05T06:44:53.000Z</time>
      </trkpt>
      <trkpt lat="46.00581" lon="4.51767">
        <ele>603</ele>
        <time>2018-08-05T06:44:54.000Z</time>
      </trkpt>
      <trkpt lat="46.00589" lon="4.51762">
        <ele>605</ele>
        <time>2018-08-05T06:44:55.000Z</time>
      </trkpt>
      <trkpt lat="46.00597" lon="4.5176">
        <ele>605</ele>
        <time>2018-08-05T06:44:56.000Z</time>
      </trkpt>
      <trkpt lat="46.00605" lon="4.51761">
        <ele>605</ele>
        <time>2018-08-05T06:44:57.000Z</time>
      </trkpt>
      <trkpt lat="46.00613" lon="4.51765">
        <ele>605</ele>
        <time>2018-08-05T06:44:58.000Z</time>
      </trkpt>
      <trkpt lat="46.0062" lon="4.51769">
        <ele>605</ele>
        <time>2018-08-05T06:44:59.000Z</time>
      </trkpt>
      <trkpt lat="46.00628" lon="4.51775">
        <ele>605</ele>
        <time>2018-08-05T06:45:00.000Z</time>
      </trkpt>
      <trkpt lat="46.00635" lon="4.51781">
        <ele>605</ele>
        <time>2018-08-05T06:45:01.000Z</time>
      </trkpt>
      <trkpt lat="46.00641" lon="4.51787">
        <ele>605</ele>
        <time>2018-08-05T06:45:02.000Z</time>
      </trkpt>
      <trkpt lat="46.00648" lon="4.51793">
        <ele>605</ele>
        <time>2018-08-05T06:45:03.000Z</time>
      </trkpt>
      <trkpt lat="46.00654" lon="4.51799">
        <ele>606</ele>
        <time>2018-08-05T06:45:04.000Z</time>
      </trkpt>
      <trkpt lat="46.0066" lon="4.51807">
        <ele>606</ele>
        <time>2018-08-05T06:45:05.000Z</time>
      </trkpt>
      <trkpt lat="46.00664" lon="4.51817">
        <ele>606</ele>
        <time>2018-08-05T06:45:06.000Z</time>
      </trkpt>
      <trkpt lat="46.00667" lon="4.51827">
        <ele>603</ele>
        <time>2018-08-05T06:45:07.000Z</time>
      </trkpt>
      <trkpt lat="46.00668" lon="4.51839">
        <ele>604</ele>
        <time>2018-08-05T06:45:08.000Z</time>
      </trkpt>
      <trkpt lat="46.00668" lon="4.51851">
        <ele>602</ele>
        <time>2018-08-05T06:45:09.000Z</time>
      </trkpt>
      <trkpt lat="46.00668" lon="4.51863">
        <ele>601</ele>
        <time>2018-08-05T06:45:10.000Z</time>
      </trkpt>
      <trkpt lat="46.00668" lon="4.51875">
        <ele>601</ele>
        <time>2018-08-05T06:45:11.000Z</time>
      </trkpt>
      <trkpt lat="46.00669" lon="4.51888">
        <ele>602</ele>
        <time>2018-08-05T06:45:12.000Z</time>
      </trkpt>
      <trkpt lat="46.00671" lon="4.519">
        <ele>604</ele>
        <time>2018-08-05T06:45:13.000Z</time>
      </trkpt>
      <trkpt lat="46.00673" lon="4.51912">
        <ele>608</ele>
        <time>2018-08-05T06:45:14.000Z</time>
      </trkpt>
      <trkpt lat="46.00676" lon="4.51924">
        <ele>609</ele>
        <time>2018-08-05T06:45:15.000Z</time>
      </trkpt>
      <trkpt lat="46.00678" lon="4.51935">
        <ele>608</ele>
        <time>2018-08-05T06:45:16.000Z</time>
      </trkpt>
      <trkpt lat="46.00681" lon="4.51947">
        <ele>608</ele>
        <time>2018-08-05T06:45:17.000Z</time>
      </trkpt>
      <trkpt lat="46.00684" lon="4.51958">
        <ele>609</ele>
        <time>2018-08-05T06:45:18.000Z</time>
      </trkpt>
      <trkpt lat="46.00687" lon="4.51969">
        <ele>609</ele>
        <time>2018-08-05T06:45:19.000Z</time>
      </trkpt>
      <trkpt lat="46.0069" lon="4.5198">
        <ele>610</ele>
        <time>2018-08-05T06:45:20.000Z</time>
      </trkpt>
      <trkpt lat="46.00694" lon="4.5199">
        <ele>611</ele>
        <time>2018-08-05T06:45:21.000Z</time>
      </trkpt>
      <trkpt lat="46.00698" lon="4.52">
        <ele>610</ele>
        <time>2018-08-05T06:45:22.000Z</time>
      </trkpt>
      <trkpt lat="46.00702" lon="4.52009">
        <ele>619</ele>
        <time>2018-08-05T06:45:23.000Z</time>
      </trkpt>
      <trkpt lat="46.00706" lon="4.52018">
        <ele>619</ele>
        <time>2018-08-05T06:45:24.000Z</time>
      </trkpt>
      <trkpt lat="46.0071" lon="4.52026">
        <ele>619</ele>
        <time>2018-08-05T06:45:25.000Z</time>
      </trkpt>
      <trkpt lat="46.00716" lon="4.52033">
        <ele>619</ele>
        <time>2018-08-05T06:45:26.000Z</time>
      </trkpt>
      <trkpt lat="46.00721" lon="4.5204">
        <ele>619</ele>
        <time>2018-08-05T06:45:27.000Z</time>
      </trkpt>
      <trkpt lat="46.00728" lon="4.52044">
        <ele>620</ele>
        <time>2018-08-05T06:45:28.000Z</time>
      </trkpt>
      <trkpt lat="46.00735" lon="4.52048">
        <ele>620</ele>
        <time>2018-08-05T06:45:29.000Z</time>
      </trkpt>
      <trkpt lat="46.00743" lon="4.52052">
        <ele>620</ele>
        <time>2018-08-05T06:45:30.000Z</time>
      </trkpt>
      <trkpt lat="46.00751" lon="4.52055">
        <ele>614</ele>
        <time>2018-08-05T06:45:31.000Z</time>
      </trkpt>
      <trkpt lat="46.00759" lon="4.52058">
        <ele>614</ele>
        <time>2018-08-05T06:45:32.000Z</time>
      </trkpt>
      <trkpt lat="46.00766" lon="4.52061">
        <ele>614</ele>
        <time>2018-08-05T06:45:33.000Z</time>
      </trkpt>
      <trkpt lat="46.00775" lon="4.52064">
        <ele>613</ele>
        <time>2018-08-05T06:45:34.000Z</time>
      </trkpt>
      <trkpt lat="46.00783" lon="4.52066">
        <ele>613</ele>
        <time>2018-08-05T06:45:35.000Z</time>
      </trkpt>
      <trkpt lat="46.00791" lon="4.52068">
        <ele>612</ele>
        <time>2018-08-05T06:45:36.000Z</time>
      </trkpt>
      <trkpt lat="46.00799" lon="4.5207">
        <ele>612</ele>
        <time>2018-08-05T06:45:37.000Z</time>
      </trkpt>
      <trkpt lat="46.00807" lon="4.52072">
        <ele>612</ele>
        <time>2018-08-05T06:45:38.000Z</time>
      </trkpt>
      <trkpt lat="46.00814" lon="4.52074">
        <ele>613</ele>
        <time>2018-08-05T06:45:39.000Z</time>
      </trkpt>
      <trkpt lat="46.00822" lon="4.52075">
        <ele>613</ele>
        <time>2018-08-05T06:45:40.000Z</time>
      </trkpt>
      <trkpt lat="46.0083" lon="4.52075">
        <ele>614</ele>
        <time>2018-08-05T06:45:41.000Z</time>
      </trkpt>
      <trkpt lat="46.00839" lon="4.52075">
        <ele>614</ele>
        <time>2018-08-05T06:45:42.000Z</time>
      </trkpt>
      <trkpt lat="46.00847" lon="4.52073">
        <ele>613</ele>
        <time>2018-08-05T06:45:43.000Z</time>
      </trkpt>
      <trkpt lat="46.00855" lon="4.5207">
        <ele>612</ele>
        <time>2018-08-05T06:45:44.000Z</time>
      </trkpt>
      <trkpt lat="46.00862" lon="4.52065">
        <ele>612</ele>
        <time>2018-08-05T06:45:45.000Z</time>
      </trkpt>
      <trkpt lat="46.00869" lon="4.5206">
        <ele>612</ele>
        <time>2018-08-05T06:45:46.000Z</time>
      </trkpt>
      <trkpt lat="46.00876" lon="4.52054">
        <ele>611</ele>
        <time>2018-08-05T06:45:47.000Z</time>
      </trkpt>
      <trkpt lat="46.00882" lon="4.52046">
        <ele>611</ele>
        <time>2018-08-05T06:45:48.000Z</time>
      </trkpt>
      <trkpt lat="46.00889" lon="4.52038">
        <ele>610</ele>
        <time>2018-08-05T06:45:49.000Z</time>
      </trkpt>
      <trkpt lat="46.00895" lon="4.52029">
        <ele>609</ele>
        <time>2018-08-05T06:45:50.000Z</time>
      </trkpt>
      <trkpt lat="46.009" lon="4.5202">
        <ele>608</ele>
        <time>2018-08-05T06:45:51.000Z</time>
      </trkpt>
      <trkpt lat="46.00906" lon="4.52011">
        <ele>608</ele>
        <time>2018-08-05T06:45:52.000Z</time>
      </trkpt>
      <trkpt lat="46.00911" lon="4.52002">
        <ele>607</ele>
        <time>2018-08-05T06:45:53.000Z</time>
      </trkpt>
      <trkpt lat="46.00917" lon="4.51993">
        <ele>602</ele>
        <time>2018-08-05T06:45:54.000Z</time>
      </trkpt>
      <trkpt lat="46.00923" lon="4.51985">
        <ele>604</ele>
        <time>2018-08-05T06:45:55.000Z</time>
      </trkpt>
      <trkpt lat="46.0093" lon="4.51977">
        <ele>604</ele>
        <time>2018-08-05T06:45:56.000Z</time>
      </trkpt>
      <trkpt lat="46.00937" lon="4.51971">
        <ele>603</ele>
        <time>2018-08-05T06:45:57.000Z</time>
      </trkpt>
      <trkpt lat="46.00945" lon="4.51968">
        <ele>603</ele>
        <time>2018-08-05T06:45:58.000Z</time>
      </trkpt>
      <trkpt lat="46.00953" lon="4.51963">
        <ele>603</ele>
        <time>2018-08-05T06:45:59.000Z</time>
      </trkpt>
      <trkpt lat="46.00961" lon="4.51959">
        <ele>604</ele>
        <time>2018-08-05T06:46:00.000Z</time>
      </trkpt>
      <trkpt lat="46.00969" lon="4.51954">
        <ele>604</ele>
        <time>2018-08-05T06:46:01.000Z</time>
      </trkpt>
      <trkpt lat="46.00977" lon="4.5195">
        <ele>604</ele>
        <time>2018-08-05T06:46:02.000Z</time>
      </trkpt>
      <trkpt lat="46.00984" lon="4.51946">
        <ele>603</ele>
        <time>2018-08-05T06:46:03.000Z</time>
      </trkpt>
      <trkpt lat="46.00992" lon="4.51942">
        <ele>603</ele>
        <time>2018-08-05T06:46:04.000Z</time>
      </trkpt>
      <trkpt lat="46.01" lon="4.51938">
        <ele>603</ele>
        <time>2018-08-05T06:46:05.000Z</time>
      </trkpt>
      <trkpt lat="46.01007" lon="4.51933">
        <ele>608</ele>
        <time>2018-08-05T06:46:06.000Z</time>
      </trkpt>
      <trkpt lat="46.01014" lon="4.51928">
        <ele>608</ele>
        <time>2018-08-05T06:46:07.000Z</time>
      </trkpt>
      <trkpt lat="46.01022" lon="4.51923">
        <ele>609</ele>
        <time>2018-08-05T06:46:08.000Z</time>
      </trkpt>
      <trkpt lat="46.01029" lon="4.51919">
        <ele>610</ele>
        <time>2018-08-05T06:46:09.000Z</time>
      </trkpt>
      <trkpt lat="46.01037" lon="4.51914">
        <ele>600</ele>
        <time>2018-08-05T06:46:10.000Z</time>
      </trkpt>
      <trkpt lat="46.01045" lon="4.51909">
        <ele>601</ele>
        <time>2018-08-05T06:46:11.000Z</time>
      </trkpt>
      <trkpt lat="46.01052" lon="4.51905">
        <ele>602</ele>
        <time>2018-08-05T06:46:12.000Z</time>
      </trkpt>
      <trkpt lat="46.0106" lon="4.51901">
        <ele>602</ele>
        <time>2018-08-05T06:46:13.000Z</time>
      </trkpt>
      <trkpt lat="46.01068" lon="4.51896">
        <ele>603</ele>
        <time>2018-08-05T06:46:14.000Z</time>
      </trkpt>
      <trkpt lat="46.01076" lon="4.51892">
        <ele>603</ele>
        <time>2018-08-05T06:46:15.000Z</time>
      </trkpt>
      <trkpt lat="46.01083" lon="4.51887">
        <ele>602</ele>
        <time>2018-08-05T06:46:16.000Z</time>
      </trkpt>
      <trkpt lat="46.0109" lon="4.51881">
        <ele>614</ele>
        <time>2018-08-05T06:46:17.000Z</time>
      </trkpt>
      <trkpt lat="46.01097" lon="4.51874">
        <ele>614</ele>
        <time>2018-08-05T06:46:18.000Z</time>
      </trkpt>
      <trkpt lat="46.01101" lon="4.51865">
        <ele>614</ele>
        <time>2018-08-05T06:46:19.000Z</time>
      </trkpt>
      <trkpt lat="46.01104" lon="4.51855">
        <ele>613</ele>
        <time>2018-08-05T06:46:20.000Z</time>
      </trkpt>
      <trkpt lat="46.01106" lon="4.51843">
        <ele>612</ele>
        <time>2018-08-05T06:46:21.000Z</time>
      </trkpt>
      <trkpt lat="46.01107" lon="4.51832">
        <ele>606</ele>
        <time>2018-08-05T06:46:22.000Z</time>
      </trkpt>
      <trkpt lat="46.01108" lon="4.5182">
        <ele>606</ele>
        <time>2018-08-05T06:46:23.000Z</time>
      </trkpt>
      <trkpt lat="46.01108" lon="4.51807">
        <ele>607</ele>
        <time>2018-08-05T06:46:24.000Z</time>
      </trkpt>
      <trkpt lat="46.01109" lon="4.51795">
        <ele>606</ele>
        <time>2018-08-05T06:46:25.000Z</time>
      </trkpt>
      <trkpt lat="46.0111" lon="4.51782">
        <ele>605</ele>
        <time>2018-08-05T06:46:26.000Z</time>
      </trkpt>
      <trkpt lat="46.01112" lon="4.51769">
        <ele>604</ele>
        <time>2018-08-05T06:46:27.000Z</time>
      </trkpt>
      <trkpt lat="46.01114" lon="4.51757">
        <ele>604</ele>
        <time>2018-08-05T06:46:28.000Z</time>
      </trkpt>
      <trkpt lat="46.01116" lon="4.51744">
        <ele>599</ele>
        <time>2018-08-05T06:46:29.000Z</time>
      </trkpt>
      <trkpt lat="46.01119" lon="4.51733">
        <ele>599</ele>
        <time>2018-08-05T06:46:30.000Z</time>
      </trkpt>
      <trkpt lat="46.01124" lon="4.51722">
        <ele>600</ele>
        <time>2018-08-05T06:46:31.000Z</time>
      </trkpt>
      <trkpt lat="46.0113" lon="4.51712">
        <ele>600</ele>
        <time>2018-08-05T06:46:32.000Z</time>
      </trkpt>
      <trkpt lat="46.01136" lon="4.51704">
        <ele>600</ele>
        <time>2018-08-05T06:46:33.000Z</time>
      </trkpt>
      <trkpt lat="46.01142" lon="4.51695">
        <ele>601</ele>
        <time>2018-08-05T06:46:34.000Z</time>
      </trkpt>
      <trkpt lat="46.01147" lon="4.51686">
        <ele>602</ele>
        <time>2018-08-05T06:46:35.000Z</time>
      </trkpt>
      <trkpt lat="46.01152" lon="4.51675">
        <ele>603</ele>
        <time>2018-08-05T06:46:36.000Z</time>
      </trkpt>
      <trkpt lat="46.01156" lon="4.51664">
        <ele>601</ele>
        <time>2018-08-05T06:46:37.000Z</time>
      </trkpt>
      <trkpt lat="46.01158" lon="4.51652">
        <ele>599</ele>
        <time>2018-08-05T06:46:38.000Z</time>
      </trkpt>
      <trkpt lat="46.01159" lon="4.5164">
        <ele>597</ele>
        <time>2018-08-05T06:46:39.000Z</time>
      </trkpt>
      <trkpt lat="46.0116" lon="4.51627">
        <ele>596</ele>
        <time>2018-08-05T06:46:40.000Z</time>
      </trkpt>
      <trkpt lat="46.0116" lon="4.51615">
        <ele>596</ele>
        <time>2018-08-05T06:46:41.000Z</time>
      </trkpt>
      <trkpt lat="46.01161" lon="4.51602">
        <ele>597</ele>
        <time>2018-08-05T06:46:42.000Z</time>
      </trkpt>
      <trkpt lat="46.01161" lon="4.51589">
        <ele>599</ele>
        <time>2018-08-05T06:46:43.000Z</time>
      </trkpt>
      <trkpt lat="46.01161" lon="4.51577">
        <ele>598</ele>
        <time>2018-08-05T06:46:44.000Z</time>
      </trkpt>
      <trkpt lat="46.0116" lon="4.51565">
        <ele>594</ele>
        <time>2018-08-05T06:46:45.000Z</time>
      </trkpt>
      <trkpt lat="46.01159" lon="4.51553">
        <ele>592</ele>
        <time>2018-08-05T06:46:46.000Z</time>
      </trkpt>
      <trkpt lat="46.01158" lon="4.5154">
        <ele>591</ele>
        <time>2018-08-05T06:46:47.000Z</time>
      </trkpt>
      <trkpt lat="46.01157" lon="4.51528">
        <ele>591</ele>
        <time>2018-08-05T06:46:48.000Z</time>
      </trkpt>
      <trkpt lat="46.01155" lon="4.51516">
        <ele>592</ele>
        <time>2018-08-05T06:46:49.000Z</time>
      </trkpt>
      <trkpt lat="46.01154" lon="4.51503">
        <ele>593</ele>
        <time>2018-08-05T06:46:50.000Z</time>
      </trkpt>
      <trkpt lat="46.01153" lon="4.5149">
        <ele>592</ele>
        <time>2018-08-05T06:46:51.000Z</time>
      </trkpt>
      <trkpt lat="46.01152" lon="4.51478">
        <ele>590</ele>
        <time>2018-08-05T06:46:52.000Z</time>
      </trkpt>
      <trkpt lat="46.01151" lon="4.51465">
        <ele>588</ele>
        <time>2018-08-05T06:46:53.000Z</time>
      </trkpt>
      <trkpt lat="46.0115" lon="4.51452">
        <ele>588</ele>
        <time>2018-08-05T06:46:54.000Z</time>
      </trkpt>
      <trkpt lat="46.01149" lon="4.5144">
        <ele>588</ele>
        <time>2018-08-05T06:46:55.000Z</time>
      </trkpt>
      <trkpt lat="46.01148" lon="4.51427">
        <ele>589</ele>
        <time>2018-08-05T06:46:56.000Z</time>
      </trkpt>
      <trkpt lat="46.01147" lon="4.51414">
        <ele>588</ele>
        <time>2018-08-05T06:46:57.000Z</time>
      </trkpt>
      <trkpt lat="46.01147" lon="4.51402">
        <ele>588</ele>
        <time>2018-08-05T06:46:58.000Z</time>
      </trkpt>
      <trkpt lat="46.01146" lon="4.51389">
        <ele>587</ele>
        <time>2018-08-05T06:46:59.000Z</time>
      </trkpt>
      <trkpt lat="46.01146" lon="4.51377">
        <ele>586</ele>
        <time>2018-08-05T06:47:00.000Z</time>
      </trkpt>
      <trkpt lat="46.01145" lon="4.51365">
        <ele>586</ele>
        <time>2018-08-05T06:47:01.000Z</time>
      </trkpt>
      <trkpt lat="46.01146" lon="4.51355">
        <ele>586</ele>
        <time>2018-08-05T06:47:02.000Z</time>
      </trkpt>
      <trkpt lat="46.01149" lon="4.51345">
        <ele>586</ele>
        <time>2018-08-05T06:47:03.000Z</time>
      </trkpt>
      <trkpt lat="46.01154" lon="4.51338">
        <ele>587</ele>
        <time>2018-08-05T06:47:04.000Z</time>
      </trkpt>
      <trkpt lat="46.01161" lon="4.51335">
        <ele>588</ele>
        <time>2018-08-05T06:47:05.000Z</time>
      </trkpt>
      <trkpt lat="46.01169" lon="4.51337">
        <ele>588</ele>
        <time>2018-08-05T06:47:06.000Z</time>
      </trkpt>
      <trkpt lat="46.01177" lon="4.51344">
        <ele>587</ele>
        <time>2018-08-05T06:47:07.000Z</time>
      </trkpt>
      <trkpt lat="46.01184" lon="4.51352">
        <ele>586</ele>
        <time>2018-08-05T06:47:08.000Z</time>
      </trkpt>
      <trkpt lat="46.01191" lon="4.51362">
        <ele>585</ele>
        <time>2018-08-05T06:47:09.000Z</time>
      </trkpt>
      <trkpt lat="46.01198" lon="4.51373">
        <ele>585</ele>
        <time>2018-08-05T06:47:10.000Z</time>
      </trkpt>
      <trkpt lat="46.01205" lon="4.51382">
        <ele>585</ele>
        <time>2018-08-05T06:47:11.000Z</time>
      </trkpt>
      <trkpt lat="46.01213" lon="4.5139">
        <ele>585</ele>
        <time>2018-08-05T06:47:12.000Z</time>
      </trkpt>
      <trkpt lat="46.01222" lon="4.51396">
        <ele>584</ele>
        <time>2018-08-05T06:47:13.000Z</time>
      </trkpt>
      <trkpt lat="46.0123" lon="4.51402">
        <ele>584</ele>
        <time>2018-08-05T06:47:14.000Z</time>
      </trkpt>
      <trkpt lat="46.0124" lon="4.51409">
        <ele>584</ele>
        <time>2018-08-05T06:47:15.000Z</time>
      </trkpt>
      <trkpt lat="46.01249" lon="4.51415">
        <ele>584</ele>
        <time>2018-08-05T06:47:16.000Z</time>
      </trkpt>
      <trkpt lat="46.01258" lon="4.51422">
        <ele>583</ele>
        <time>2018-08-05T06:47:17.000Z</time>
      </trkpt>
      <trkpt lat="46.01267" lon="4.51431">
        <ele>581</ele>
        <time>2018-08-05T06:47:18.000Z</time>
      </trkpt>
      <trkpt lat="46.01275" lon="4.51441">
        <ele>581</ele>
        <time>2018-08-05T06:47:19.000Z</time>
      </trkpt>
      <trkpt lat="46.01283" lon="4.51452">
        <ele>580</ele>
        <time>2018-08-05T06:47:20.000Z</time>
      </trkpt>
      <trkpt lat="46.01291" lon="4.51463">
        <ele>580</ele>
        <time>2018-08-05T06:47:21.000Z</time>
      </trkpt>
      <trkpt lat="46.01298" lon="4.51474">
        <ele>580</ele>
        <time>2018-08-05T06:47:22.000Z</time>
      </trkpt>
      <trkpt lat="46.01307" lon="4.51483">
        <ele>580</ele>
        <time>2018-08-05T06:47:23.000Z</time>
      </trkpt>
      <trkpt lat="46.01315" lon="4.51493">
        <ele>579</ele>
        <time>2018-08-05T06:47:24.000Z</time>
      </trkpt>
      <trkpt lat="46.01324" lon="4.51502">
        <ele>582</ele>
        <time>2018-08-05T06:47:25.000Z</time>
      </trkpt>
      <trkpt lat="46.01333" lon="4.51512">
        <ele>583</ele>
        <time>2018-08-05T06:47:26.000Z</time>
      </trkpt>
      <trkpt lat="46.01342" lon="4.51522">
        <ele>574</ele>
        <time>2018-08-05T06:47:27.000Z</time>
      </trkpt>
      <trkpt lat="46.0135" lon="4.51532">
        <ele>573</ele>
        <time>2018-08-05T06:47:28.000Z</time>
      </trkpt>
      <trkpt lat="46.0136" lon="4.51542">
        <ele>573</ele>
        <time>2018-08-05T06:47:29.000Z</time>
      </trkpt>
      <trkpt lat="46.0137" lon="4.5155">
        <ele>572</ele>
        <time>2018-08-05T06:47:30.000Z</time>
      </trkpt>
      <trkpt lat="46.01379" lon="4.51558">
        <ele>571</ele>
        <time>2018-08-05T06:47:31.000Z</time>
      </trkpt>
      <trkpt lat="46.01389" lon="4.51566">
        <ele>569</ele>
        <time>2018-08-05T06:47:32.000Z</time>
      </trkpt>
      <trkpt lat="46.01399" lon="4.51574">
        <ele>567</ele>
        <time>2018-08-05T06:47:33.000Z</time>
      </trkpt>
      <trkpt lat="46.01409" lon="4.51584">
        <ele>569</ele>
        <time>2018-08-05T06:47:34.000Z</time>
      </trkpt>
      <trkpt lat="46.01417" lon="4.51596">
        <ele>565</ele>
        <time>2018-08-05T06:47:35.000Z</time>
      </trkpt>
      <trkpt lat="46.01425" lon="4.51608">
        <ele>566</ele>
        <time>2018-08-05T06:47:36.000Z</time>
      </trkpt>
      <trkpt lat="46.01433" lon="4.5162">
        <ele>567</ele>
        <time>2018-08-05T06:47:37.000Z</time>
      </trkpt>
      <trkpt lat="46.01441" lon="4.51631">
        <ele>569</ele>
        <time>2018-08-05T06:47:38.000Z</time>
      </trkpt>
      <trkpt lat="46.01449" lon="4.5164">
        <ele>569</ele>
        <time>2018-08-05T06:47:39.000Z</time>
      </trkpt>
      <trkpt lat="46.01457" lon="4.51649">
        <ele>569</ele>
        <time>2018-08-05T06:47:40.000Z</time>
      </trkpt>
      <trkpt lat="46.01466" lon="4.51655">
        <ele>569</ele>
        <time>2018-08-05T06:47:41.000Z</time>
      </trkpt>
      <trkpt lat="46.01475" lon="4.51659">
        <ele>569</ele>
        <time>2018-08-05T06:47:42.000Z</time>
      </trkpt>
      <trkpt lat="46.01485" lon="4.51659">
        <ele>569</ele>
        <time>2018-08-05T06:47:43.000Z</time>
      </trkpt>
      <trkpt lat="46.01496" lon="4.51658">
        <ele>569</ele>
        <time>2018-08-05T06:47:44.000Z</time>
      </trkpt>
      <trkpt lat="46.01506" lon="4.51654">
        <ele>567</ele>
        <time>2018-08-05T06:47:45.000Z</time>
      </trkpt>
      <trkpt lat="46.01517" lon="4.51649">
        <ele>566</ele>
        <time>2018-08-05T06:47:46.000Z</time>
      </trkpt>
      <trkpt lat="46.01527" lon="4.51643">
        <ele>565</ele>
        <time>2018-08-05T06:47:47.000Z</time>
      </trkpt>
      <trkpt lat="46.01538" lon="4.51637">
        <ele>565</ele>
        <time>2018-08-05T06:47:48.000Z</time>
      </trkpt>
      <trkpt lat="46.01548" lon="4.51631">
        <ele>565</ele>
        <time>2018-08-05T06:47:49.000Z</time>
      </trkpt>
      <trkpt lat="46.01557" lon="4.51624">
        <ele>564</ele>
        <time>2018-08-05T06:47:50.000Z</time>
      </trkpt>
      <trkpt lat="46.01566" lon="4.51615">
        <ele>564</ele>
        <time>2018-08-05T06:47:51.000Z</time>
      </trkpt>
      <trkpt lat="46.01574" lon="4.51605">
        <ele>563</ele>
        <time>2018-08-05T06:47:52.000Z</time>
      </trkpt>
      <trkpt lat="46.0158" lon="4.51594">
        <ele>563</ele>
        <time>2018-08-05T06:47:53.000Z</time>
      </trkpt>
      <trkpt lat="46.01585" lon="4.51581">
        <ele>562</ele>
        <time>2018-08-05T06:47:54.000Z</time>
      </trkpt>
      <trkpt lat="46.01589" lon="4.51567">
        <ele>563</ele>
        <time>2018-08-05T06:47:55.000Z</time>
      </trkpt>
      <trkpt lat="46.01591" lon="4.51552">
        <ele>563</ele>
        <time>2018-08-05T06:47:56.000Z</time>
      </trkpt>
      <trkpt lat="46.01592" lon="4.51537">
        <ele>562</ele>
        <time>2018-08-05T06:47:57.000Z</time>
      </trkpt>
      <trkpt lat="46.01593" lon="4.51522">
        <ele>560</ele>
        <time>2018-08-05T06:47:58.000Z</time>
      </trkpt>
      <trkpt lat="46.01593" lon="4.51506">
        <ele>557</ele>
        <time>2018-08-05T06:47:59.000Z</time>
      </trkpt>
      <trkpt lat="46.01593" lon="4.5149">
        <ele>553</ele>
        <time>2018-08-05T06:48:00.000Z</time>
      </trkpt>
      <trkpt lat="46.01595" lon="4.51474">
        <ele>553</ele>
        <time>2018-08-05T06:48:01.000Z</time>
      </trkpt>
      <trkpt lat="46.01597" lon="4.51458">
        <ele>552</ele>
        <time>2018-08-05T06:48:02.000Z</time>
      </trkpt>
      <trkpt lat="46.016" lon="4.51443">
        <ele>551</ele>
        <time>2018-08-05T06:48:03.000Z</time>
      </trkpt>
      <trkpt lat="46.01604" lon="4.51427">
        <ele>549</ele>
        <time>2018-08-05T06:48:04.000Z</time>
      </trkpt>
      <trkpt lat="46.01607" lon="4.51411">
        <ele>544</ele>
        <time>2018-08-05T06:48:05.000Z</time>
      </trkpt>
      <trkpt lat="46.0161" lon="4.51394">
        <ele>544</ele>
        <time>2018-08-05T06:48:06.000Z</time>
      </trkpt>
      <trkpt lat="46.01612" lon="4.51377">
        <ele>544</ele>
        <time>2018-08-05T06:48:07.000Z</time>
      </trkpt>
      <trkpt lat="46.01614" lon="4.5136">
        <ele>543</ele>
        <time>2018-08-05T06:48:08.000Z</time>
      </trkpt>
      <trkpt lat="46.01617" lon="4.51342">
        <ele>542</ele>
        <time>2018-08-05T06:48:09.000Z</time>
      </trkpt>
      <trkpt lat="46.01621" lon="4.51325">
        <ele>537</ele>
        <time>2018-08-05T06:48:10.000Z</time>
      </trkpt>
      <trkpt lat="46.01627" lon="4.5131">
        <ele>537</ele>
        <time>2018-08-05T06:48:11.000Z</time>
      </trkpt>
      <trkpt lat="46.01634" lon="4.51295">
        <ele>537</ele>
        <time>2018-08-05T06:48:12.000Z</time>
      </trkpt>
      <trkpt lat="46.01641" lon="4.51281">
        <ele>536</ele>
        <time>2018-08-05T06:48:13.000Z</time>
      </trkpt>
      <trkpt lat="46.01647" lon="4.51267">
        <ele>536</ele>
        <time>2018-08-05T06:48:14.000Z</time>
      </trkpt>
      <trkpt lat="46.01653" lon="4.51254">
        <ele>537</ele>
        <time>2018-08-05T06:48:15.000Z</time>
      </trkpt>
      <trkpt lat="46.01658" lon="4.51242">
        <ele>535</ele>
        <time>2018-08-05T06:48:16.000Z</time>
      </trkpt>
      <trkpt lat="46.01662" lon="4.51232">
        <ele>534</ele>
        <time>2018-08-05T06:48:17.000Z</time>
      </trkpt>
      <trkpt lat="46.01668" lon="4.51225">
        <ele>535</ele>
        <time>2018-08-05T06:48:18.000Z</time>
      </trkpt>
      <trkpt lat="46.01674" lon="4.51221">
        <ele>535</ele>
        <time>2018-08-05T06:48:19.000Z</time>
      </trkpt>
      <trkpt lat="46.01681" lon="4.51221">
        <ele>534</ele>
        <time>2018-08-05T06:48:20.000Z</time>
      </trkpt>
      <trkpt lat="46.01687" lon="4.51225">
        <ele>534</ele>
        <time>2018-08-05T06:48:21.000Z</time>
      </trkpt>
      <trkpt lat="46.01693" lon="4.51233">
        <ele>534</ele>
        <time>2018-08-05T06:48:22.000Z</time>
      </trkpt>
      <trkpt lat="46.01698" lon="4.51243">
        <ele>533</ele>
        <time>2018-08-05T06:48:23.000Z</time>
      </trkpt>
      <trkpt lat="46.01702" lon="4.51254">
        <ele>534</ele>
        <time>2018-08-05T06:48:24.000Z</time>
      </trkpt>
      <trkpt lat="46.01707" lon="4.51266">
        <ele>534</ele>
        <time>2018-08-05T06:48:25.000Z</time>
      </trkpt>
      <trkpt lat="46.01712" lon="4.51278">
        <ele>534</ele>
        <time>2018-08-05T06:48:26.000Z</time>
      </trkpt>
      <trkpt lat="46.01719" lon="4.51289">
        <ele>533</ele>
        <time>2018-08-05T06:48:27.000Z</time>
      </trkpt>
      <trkpt lat="46.01725" lon="4.513">
        <ele>533</ele>
        <time>2018-08-05T06:48:28.000Z</time>
      </trkpt>
      <trkpt lat="46.01732" lon="4.51309">
        <ele>533</ele>
        <time>2018-08-05T06:48:29.000Z</time>
      </trkpt>
      <trkpt lat="46.0174" lon="4.51319">
        <ele>532</ele>
        <time>2018-08-05T06:48:30.000Z</time>
      </trkpt>
      <trkpt lat="46.01747" lon="4.51328">
        <ele>530</ele>
        <time>2018-08-05T06:48:31.000Z</time>
      </trkpt>
      <trkpt lat="46.01755" lon="4.51338">
        <ele>528</ele>
        <time>2018-08-05T06:48:32.000Z</time>
      </trkpt>
      <trkpt lat="46.01763" lon="4.51347">
        <ele>527</ele>
        <time>2018-08-05T06:48:33.000Z</time>
      </trkpt>
      <trkpt lat="46.01771" lon="4.51357">
        <ele>527</ele>
        <time>2018-08-05T06:48:34.000Z</time>
      </trkpt>
      <trkpt lat="46.0178" lon="4.51366">
        <ele>527</ele>
        <time>2018-08-05T06:48:35.000Z</time>
      </trkpt>
      <trkpt lat="46.01788" lon="4.51376">
        <ele>526</ele>
        <time>2018-08-05T06:48:36.000Z</time>
      </trkpt>
      <trkpt lat="46.01797" lon="4.51384">
        <ele>526</ele>
        <time>2018-08-05T06:48:37.000Z</time>
      </trkpt>
      <trkpt lat="46.01806" lon="4.51392">
        <ele>526</ele>
        <time>2018-08-05T06:48:38.000Z</time>
      </trkpt>
      <trkpt lat="46.01816" lon="4.514">
        <ele>525</ele>
        <time>2018-08-05T06:48:39.000Z</time>
      </trkpt>
      <trkpt lat="46.01826" lon="4.51408">
        <ele>524</ele>
        <time>2018-08-05T06:48:40.000Z</time>
      </trkpt>
      <trkpt lat="46.01836" lon="4.51415">
        <ele>522</ele>
        <time>2018-08-05T06:48:41.000Z</time>
      </trkpt>
      <trkpt lat="46.01847" lon="4.51421">
        <ele>522</ele>
        <time>2018-08-05T06:48:42.000Z</time>
      </trkpt>
      <trkpt lat="46.01858" lon="4.51427">
        <ele>521</ele>
        <time>2018-08-05T06:48:43.000Z</time>
      </trkpt>
      <trkpt lat="46.01869" lon="4.51432">
        <ele>520</ele>
        <time>2018-08-05T06:48:44.000Z</time>
      </trkpt>
      <trkpt lat="46.01879" lon="4.51438">
        <ele>519</ele>
        <time>2018-08-05T06:48:45.000Z</time>
      </trkpt>
      <trkpt lat="46.01889" lon="4.51447">
        <ele>519</ele>
        <time>2018-08-05T06:48:46.000Z</time>
      </trkpt>
      <trkpt lat="46.01899" lon="4.51457">
        <ele>519</ele>
        <time>2018-08-05T06:48:47.000Z</time>
      </trkpt>
      <trkpt lat="46.01907" lon="4.5147">
        <ele>519</ele>
        <time>2018-08-05T06:48:48.000Z</time>
      </trkpt>
      <trkpt lat="46.01915" lon="4.51482">
        <ele>519</ele>
        <time>2018-08-05T06:48:49.000Z</time>
      </trkpt>
      <trkpt lat="46.01923" lon="4.51493">
        <ele>514</ele>
        <time>2018-08-05T06:48:50.000Z</time>
      </trkpt>
      <trkpt lat="46.01933" lon="4.51502">
        <ele>517</ele>
        <time>2018-08-05T06:48:51.000Z</time>
      </trkpt>
      <trkpt lat="46.01943" lon="4.51508">
        <ele>517</ele>
        <time>2018-08-05T06:48:52.000Z</time>
      </trkpt>
      <trkpt lat="46.01954" lon="4.51511">
        <ele>517</ele>
        <time>2018-08-05T06:48:53.000Z</time>
      </trkpt>
      <trkpt lat="46.01966" lon="4.51511">
        <ele>516</ele>
        <time>2018-08-05T06:48:54.000Z</time>
      </trkpt>
      <trkpt lat="46.01978" lon="4.51508">
        <ele>514</ele>
        <time>2018-08-05T06:48:55.000Z</time>
      </trkpt>
      <trkpt lat="46.01989" lon="4.51502">
        <ele>512</ele>
        <time>2018-08-05T06:48:56.000Z</time>
      </trkpt>
      <trkpt lat="46.01999" lon="4.51493">
        <ele>509</ele>
        <time>2018-08-05T06:48:57.000Z</time>
      </trkpt>
      <trkpt lat="46.02009" lon="4.51485">
        <ele>503</ele>
        <time>2018-08-05T06:48:58.000Z</time>
      </trkpt>
      <trkpt lat="46.02018" lon="4.51476">
        <ele>501</ele>
        <time>2018-08-05T06:48:59.000Z</time>
      </trkpt>
      <trkpt lat="46.02027" lon="4.51466">
        <ele>500</ele>
        <time>2018-08-05T06:49:00.000Z</time>
      </trkpt>
      <trkpt lat="46.02036" lon="4.51456">
        <ele>499</ele>
        <time>2018-08-05T06:49:01.000Z</time>
      </trkpt>
      <trkpt lat="46.02045" lon="4.51445">
        <ele>498</ele>
        <time>2018-08-05T06:49:02.000Z</time>
      </trkpt>
      <trkpt lat="46.02054" lon="4.51433">
        <ele>497</ele>
        <time>2018-08-05T06:49:03.000Z</time>
      </trkpt>
      <trkpt lat="46.02064" lon="4.51421">
        <ele>496</ele>
        <time>2018-08-05T06:49:04.000Z</time>
      </trkpt>
      <trkpt lat="46.02073" lon="4.51409">
        <ele>494</ele>
        <time>2018-08-05T06:49:05.000Z</time>
      </trkpt>
      <trkpt lat="46.02083" lon="4.51399">
        <ele>494</ele>
        <time>2018-08-05T06:49:06.000Z</time>
      </trkpt>
      <trkpt lat="46.02095" lon="4.5139">
        <ele>490</ele>
        <time>2018-08-05T06:49:07.000Z</time>
      </trkpt>
      <trkpt lat="46.02107" lon="4.51383">
        <ele>489</ele>
        <time>2018-08-05T06:49:08.000Z</time>
      </trkpt>
      <trkpt lat="46.02119" lon="4.51378">
        <ele>488</ele>
        <time>2018-08-05T06:49:09.000Z</time>
      </trkpt>
      <trkpt lat="46.02132" lon="4.51372">
        <ele>488</ele>
        <time>2018-08-05T06:49:10.000Z</time>
      </trkpt>
      <trkpt lat="46.02144" lon="4.51364">
        <ele>487</ele>
        <time>2018-08-05T06:49:11.000Z</time>
      </trkpt>
      <trkpt lat="46.02155" lon="4.51355">
        <ele>487</ele>
        <time>2018-08-05T06:49:12.000Z</time>
      </trkpt>
      <trkpt lat="46.02165" lon="4.51345">
        <ele>488</ele>
        <time>2018-08-05T06:49:13.000Z</time>
      </trkpt>
      <trkpt lat="46.02174" lon="4.51333">
        <ele>485</ele>
        <time>2018-08-05T06:49:14.000Z</time>
      </trkpt>
      <trkpt lat="46.02182" lon="4.51319">
        <ele>482</ele>
        <time>2018-08-05T06:49:15.000Z</time>
      </trkpt>
      <trkpt lat="46.0219" lon="4.51305">
        <ele>481</ele>
        <time>2018-08-05T06:49:16.000Z</time>
      </trkpt>
      <trkpt lat="46.02196" lon="4.5129">
        <ele>480</ele>
        <time>2018-08-05T06:49:17.000Z</time>
      </trkpt>
      <trkpt lat="46.02202" lon="4.51274">
        <ele>480</ele>
        <time>2018-08-05T06:49:18.000Z</time>
      </trkpt>
      <trkpt lat="46.02208" lon="4.51259">
        <ele>480</ele>
        <time>2018-08-05T06:49:19.000Z</time>
      </trkpt>
      <trkpt lat="46.02215" lon="4.51243">
        <ele>485</ele>
        <time>2018-08-05T06:49:20.000Z</time>
      </trkpt>
      <trkpt lat="46.02222" lon="4.51229">
        <ele>484</ele>
        <time>2018-08-05T06:49:21.000Z</time>
      </trkpt>
      <trkpt lat="46.0223" lon="4.51215">
        <ele>485</ele>
        <time>2018-08-05T06:49:22.000Z</time>
      </trkpt>
      <trkpt lat="46.02238" lon="4.51201">
        <ele>486</ele>
        <time>2018-08-05T06:49:23.000Z</time>
      </trkpt>
      <trkpt lat="46.02246" lon="4.51187">
        <ele>487</ele>
        <time>2018-08-05T06:49:24.000Z</time>
      </trkpt>
      <trkpt lat="46.02255" lon="4.51175">
        <ele>481</ele>
        <time>2018-08-05T06:49:25.000Z</time>
      </trkpt>
      <trkpt lat="46.02264" lon="4.51164">
        <ele>483</ele>
        <time>2018-08-05T06:49:26.000Z</time>
      </trkpt>
      <trkpt lat="46.02272" lon="4.51155">
        <ele>480</ele>
        <time>2018-08-05T06:49:27.000Z</time>
      </trkpt>
      <trkpt lat="46.02279" lon="4.51144">
        <ele>478</ele>
        <time>2018-08-05T06:49:28.000Z</time>
      </trkpt>
      <trkpt lat="46.02285" lon="4.51132">
        <ele>478</ele>
        <time>2018-08-05T06:49:29.000Z</time>
      </trkpt>
      <trkpt lat="46.02289" lon="4.51118">
        <ele>477</ele>
        <time>2018-08-05T06:49:30.000Z</time>
      </trkpt>
      <trkpt lat="46.02291" lon="4.51104">
        <ele>477</ele>
        <time>2018-08-05T06:49:31.000Z</time>
      </trkpt>
      <trkpt lat="46.02293" lon="4.5109">
        <ele>477</ele>
        <time>2018-08-05T06:49:32.000Z</time>
      </trkpt>
      <trkpt lat="46.02292" lon="4.51074">
        <ele>476</ele>
        <time>2018-08-05T06:49:33.000Z</time>
      </trkpt>
      <trkpt lat="46.02291" lon="4.51058">
        <ele>476</ele>
        <time>2018-08-05T06:49:34.000Z</time>
      </trkpt>
      <trkpt lat="46.0229" lon="4.51042">
        <ele>476</ele>
        <time>2018-08-05T06:49:35.000Z</time>
      </trkpt>
      <trkpt lat="46.02288" lon="4.51026">
        <ele>475</ele>
        <time>2018-08-05T06:49:36.000Z</time>
      </trkpt>
      <trkpt lat="46.02287" lon="4.51009">
        <ele>475</ele>
        <time>2018-08-05T06:49:37.000Z</time>
      </trkpt>
      <trkpt lat="46.02285" lon="4.50993">
        <ele>468</ele>
        <time>2018-08-05T06:49:38.000Z</time>
      </trkpt>
      <trkpt lat="46.02282" lon="4.50977">
        <ele>468</ele>
        <time>2018-08-05T06:49:39.000Z</time>
      </trkpt>
      <trkpt lat="46.02278" lon="4.50961">
        <ele>467</ele>
        <time>2018-08-05T06:49:40.000Z</time>
      </trkpt>
      <trkpt lat="46.02273" lon="4.50944">
        <ele>466</ele>
        <time>2018-08-05T06:49:41.000Z</time>
      </trkpt>
      <trkpt lat="46.02268" lon="4.50928">
        <ele>466</ele>
        <time>2018-08-05T06:49:42.000Z</time>
      </trkpt>
      <trkpt lat="46.02261" lon="4.50912">
        <ele>462</ele>
        <time>2018-08-05T06:49:43.000Z</time>
      </trkpt>
      <trkpt lat="46.02253" lon="4.50897">
        <ele>459</ele>
        <time>2018-08-05T06:49:44.000Z</time>
      </trkpt>
      <trkpt lat="46.02246" lon="4.50881">
        <ele>467</ele>
        <time>2018-08-05T06:49:45.000Z</time>
      </trkpt>
      <trkpt lat="46.02237" lon="4.50866">
        <ele>465</ele>
        <time>2018-08-05T06:49:46.000Z</time>
      </trkpt>
      <trkpt lat="46.02229" lon="4.50851">
        <ele>464</ele>
        <time>2018-08-05T06:49:47.000Z</time>
      </trkpt>
      <trkpt lat="46.02221" lon="4.50837">
        <ele>464</ele>
        <time>2018-08-05T06:49:48.000Z</time>
      </trkpt>
      <trkpt lat="46.02212" lon="4.50823">
        <ele>456</ele>
        <time>2018-08-05T06:49:49.000Z</time>
      </trkpt>
      <trkpt lat="46.02203" lon="4.50809">
        <ele>456</ele>
        <time>2018-08-05T06:49:50.000Z</time>
      </trkpt>
      <trkpt lat="46.02193" lon="4.50796">
        <ele>456</ele>
        <time>2018-08-05T06:49:51.000Z</time>
      </trkpt>
      <trkpt lat="46.02184" lon="4.50784">
        <ele>456</ele>
        <time>2018-08-05T06:49:52.000Z</time>
      </trkpt>
      <trkpt lat="46.02175" lon="4.50772">
        <ele>457</ele>
        <time>2018-08-05T06:49:53.000Z</time>
      </trkpt>
      <trkpt lat="46.02166" lon="4.50761">
        <ele>460</ele>
        <time>2018-08-05T06:49:54.000Z</time>
      </trkpt>
      <trkpt lat="46.02157" lon="4.50751">
        <ele>460</ele>
        <time>2018-08-05T06:49:55.000Z</time>
      </trkpt>
      <trkpt lat="46.02148" lon="4.50743">
        <ele>454</ele>
        <time>2018-08-05T06:49:56.000Z</time>
      </trkpt>
      <trkpt lat="46.02139" lon="4.50736">
        <ele>452</ele>
        <time>2018-08-05T06:49:57.000Z</time>
      </trkpt>
      <trkpt lat="46.0213" lon="4.50732">
        <ele>451</ele>
        <time>2018-08-05T06:49:58.000Z</time>
      </trkpt>
      <trkpt lat="46.0212" lon="4.50729">
        <ele>451</ele>
        <time>2018-08-05T06:49:59.000Z</time>
      </trkpt>
      <trkpt lat="46.02109" lon="4.50731">
        <ele>451</ele>
        <time>2018-08-05T06:50:00.000Z</time>
      </trkpt>
      <trkpt lat="46.02099" lon="4.50735">
        <ele>452</ele>
        <time>2018-08-05T06:50:01.000Z</time>
      </trkpt>
      <trkpt lat="46.02089" lon="4.50742">
        <ele>453</ele>
        <time>2018-08-05T06:50:02.000Z</time>
      </trkpt>
      <trkpt lat="46.0208" lon="4.50751">
        <ele>455</ele>
        <time>2018-08-05T06:50:03.000Z</time>
      </trkpt>
      <trkpt lat="46.02071" lon="4.50761">
        <ele>455</ele>
        <time>2018-08-05T06:50:04.000Z</time>
      </trkpt>
      <trkpt lat="46.02063" lon="4.50771">
        <ele>456</ele>
        <time>2018-08-05T06:50:05.000Z</time>
      </trkpt>
      <trkpt lat="46.02054" lon="4.50781">
        <ele>456</ele>
        <time>2018-08-05T06:50:06.000Z</time>
      </trkpt>
      <trkpt lat="46.02047" lon="4.50791">
        <ele>456</ele>
        <time>2018-08-05T06:50:07.000Z</time>
      </trkpt>
      <trkpt lat="46.0204" lon="4.508">
        <ele>456</ele>
        <time>2018-08-05T06:50:08.000Z</time>
      </trkpt>
      <trkpt lat="46.02033" lon="4.50807">
        <ele>456</ele>
        <time>2018-08-05T06:50:09.000Z</time>
      </trkpt>
      <trkpt lat="46.02026" lon="4.50812">
        <ele>456</ele>
        <time>2018-08-05T06:50:10.000Z</time>
      </trkpt>
      <trkpt lat="46.02019" lon="4.50813">
        <ele>456</ele>
        <time>2018-08-05T06:50:11.000Z</time>
      </trkpt>
      <trkpt lat="46.02011" lon="4.5081">
        <ele>456</ele>
        <time>2018-08-05T06:50:12.000Z</time>
      </trkpt>
      <trkpt lat="46.02005" lon="4.50801">
        <ele>456</ele>
        <time>2018-08-05T06:50:13.000Z</time>
      </trkpt>
      <trkpt lat="46.02002" lon="4.50789">
        <ele>455</ele>
        <time>2018-08-05T06:50:14.000Z</time>
      </trkpt>
      <trkpt lat="46.02001" lon="4.50776">
        <ele>454</ele>
        <time>2018-08-05T06:50:15.000Z</time>
      </trkpt>
      <trkpt lat="46.02001" lon="4.50763">
        <ele>453</ele>
        <time>2018-08-05T06:50:16.000Z</time>
      </trkpt>
      <trkpt lat="46.02002" lon="4.50749">
        <ele>451</ele>
        <time>2018-08-05T06:50:17.000Z</time>
      </trkpt>
      <trkpt lat="46.02003" lon="4.50735">
        <ele>449</ele>
        <time>2018-08-05T06:50:18.000Z</time>
      </trkpt>
      <trkpt lat="46.02003" lon="4.5072">
        <ele>448</ele>
        <time>2018-08-05T06:50:19.000Z</time>
      </trkpt>
      <trkpt lat="46.02004" lon="4.50706">
        <ele>447</ele>
        <time>2018-08-05T06:50:20.000Z</time>
      </trkpt>
      <trkpt lat="46.02003" lon="4.50692">
        <ele>446</ele>
        <time>2018-08-05T06:50:21.000Z</time>
      </trkpt>
      <trkpt lat="46.02001" lon="4.50678">
        <ele>444</ele>
        <time>2018-08-05T06:50:22.000Z</time>
      </trkpt>
      <trkpt lat="46.01999" lon="4.50662">
        <ele>445</ele>
        <time>2018-08-05T06:50:23.000Z</time>
      </trkpt>
      <trkpt lat="46.01997" lon="4.50647">
        <ele>448</ele>
        <time>2018-08-05T06:50:24.000Z</time>
      </trkpt>
      <trkpt lat="46.01995" lon="4.5063">
        <ele>449</ele>
        <time>2018-08-05T06:50:25.000Z</time>
      </trkpt>
      <trkpt lat="46.01993" lon="4.50614">
        <ele>447</ele>
        <time>2018-08-05T06:50:26.000Z</time>
      </trkpt>
      <trkpt lat="46.01992" lon="4.50598">
        <ele>443</ele>
        <time>2018-08-05T06:50:27.000Z</time>
      </trkpt>
      <trkpt lat="46.01992" lon="4.50581">
        <ele>438</ele>
        <time>2018-08-05T06:50:28.000Z</time>
      </trkpt>
      <trkpt lat="46.01992" lon="4.50565">
        <ele>440</ele>
        <time>2018-08-05T06:50:29.000Z</time>
      </trkpt>
      <trkpt lat="46.01991" lon="4.50548">
        <ele>441</ele>
        <time>2018-08-05T06:50:30.000Z</time>
      </trkpt>
      <trkpt lat="46.01991" lon="4.50531">
        <ele>440</ele>
        <time>2018-08-05T06:50:31.000Z</time>
      </trkpt>
      <trkpt lat="46.01989" lon="4.50514">
        <ele>436</ele>
        <time>2018-08-05T06:50:32.000Z</time>
      </trkpt>
      <trkpt lat="46.01987" lon="4.50496">
        <ele>431</ele>
        <time>2018-08-05T06:50:33.000Z</time>
      </trkpt>
      <trkpt lat="46.01985" lon="4.50479">
        <ele>432</ele>
        <time>2018-08-05T06:50:34.000Z</time>
      </trkpt>
      <trkpt lat="46.01983" lon="4.50461">
        <ele>432</ele>
        <time>2018-08-05T06:50:35.000Z</time>
      </trkpt>
      <trkpt lat="46.0198" lon="4.50443">
        <ele>431</ele>
        <time>2018-08-05T06:50:36.000Z</time>
      </trkpt>
      <trkpt lat="46.01977" lon="4.50426">
        <ele>429</ele>
        <time>2018-08-05T06:50:37.000Z</time>
      </trkpt>
      <trkpt lat="46.01974" lon="4.50408">
        <ele>423</ele>
        <time>2018-08-05T06:50:38.000Z</time>
      </trkpt>
      <trkpt lat="46.01971" lon="4.5039">
        <ele>423</ele>
        <time>2018-08-05T06:50:39.000Z</time>
      </trkpt>
      <trkpt lat="46.01968" lon="4.50371">
        <ele>423</ele>
        <time>2018-08-05T06:50:40.000Z</time>
      </trkpt>
      <trkpt lat="46.01967" lon="4.50352">
        <ele>422</ele>
        <time>2018-08-05T06:50:41.000Z</time>
      </trkpt>
      <trkpt lat="46.01967" lon="4.50333">
        <ele>421</ele>
        <time>2018-08-05T06:50:42.000Z</time>
      </trkpt>
      <trkpt lat="46.01968" lon="4.50315">
        <ele>416</ele>
        <time>2018-08-05T06:50:43.000Z</time>
      </trkpt>
      <trkpt lat="46.01969" lon="4.50297">
        <ele>416</ele>
        <time>2018-08-05T06:50:44.000Z</time>
      </trkpt>
      <trkpt lat="46.0197" lon="4.5028">
        <ele>415</ele>
        <time>2018-08-05T06:50:45.000Z</time>
      </trkpt>
      <trkpt lat="46.01969" lon="4.50263">
        <ele>414</ele>
        <time>2018-08-05T06:50:46.000Z</time>
      </trkpt>
      <trkpt lat="46.01967" lon="4.50246">
        <ele>409</ele>
        <time>2018-08-05T06:50:47.000Z</time>
      </trkpt>
      <trkpt lat="46.01963" lon="4.50229">
        <ele>409</ele>
        <time>2018-08-05T06:50:48.000Z</time>
      </trkpt>
      <trkpt lat="46.01957" lon="4.50212">
        <ele>408</ele>
        <time>2018-08-05T06:50:49.000Z</time>
      </trkpt>
      <trkpt lat="46.01951" lon="4.50197">
        <ele>407</ele>
        <time>2018-08-05T06:50:50.000Z</time>
      </trkpt>
      <trkpt lat="46.01942" lon="4.50183">
        <ele>407</ele>
        <time>2018-08-05T06:50:51.000Z</time>
      </trkpt>
      <trkpt lat="46.01933" lon="4.50171">
        <ele>407</ele>
        <time>2018-08-05T06:50:52.000Z</time>
      </trkpt>
      <trkpt lat="46.01923" lon="4.5016">
        <ele>403</ele>
        <time>2018-08-05T06:50:53.000Z</time>
      </trkpt>
      <trkpt lat="46.01912" lon="4.5015">
        <ele>403</ele>
        <time>2018-08-05T06:50:54.000Z</time>
      </trkpt>
      <trkpt lat="46.01902" lon="4.50141">
        <ele>401</ele>
        <time>2018-08-05T06:50:55.000Z</time>
      </trkpt>
      <trkpt lat="46.01893" lon="4.50134">
        <ele>399</ele>
        <time>2018-08-05T06:50:56.000Z</time>
      </trkpt>
      <trkpt lat="46.01883" lon="4.5013">
        <ele>399</ele>
        <time>2018-08-05T06:50:57.000Z</time>
      </trkpt>
      <trkpt lat="46.01872" lon="4.50129">
        <ele>398</ele>
        <time>2018-08-05T06:50:58.000Z</time>
      </trkpt>
      <trkpt lat="46.01861" lon="4.50131">
        <ele>399</ele>
        <time>2018-08-05T06:50:59.000Z</time>
      </trkpt>
      <trkpt lat="46.01851" lon="4.50135">
        <ele>399</ele>
        <time>2018-08-05T06:51:00.000Z</time>
      </trkpt>
      <trkpt lat="46.0184" lon="4.50143">
        <ele>400</ele>
        <time>2018-08-05T06:51:01.000Z</time>
      </trkpt>
      <trkpt lat="46.01831" lon="4.50154">
        <ele>402</ele>
        <time>2018-08-05T06:51:02.000Z</time>
      </trkpt>
      <trkpt lat="46.01822" lon="4.50165">
        <ele>403</ele>
        <time>2018-08-05T06:51:03.000Z</time>
      </trkpt>
      <trkpt lat="46.01814" lon="4.50176">
        <ele>409</ele>
        <time>2018-08-05T06:51:04.000Z</time>
      </trkpt>
      <trkpt lat="46.01806" lon="4.50186">
        <ele>411</ele>
        <time>2018-08-05T06:51:05.000Z</time>
      </trkpt>
      <trkpt lat="46.01798" lon="4.50193">
        <ele>412</ele>
        <time>2018-08-05T06:51:06.000Z</time>
      </trkpt>
      <trkpt lat="46.01789" lon="4.50197">
        <ele>412</ele>
        <time>2018-08-05T06:51:07.000Z</time>
      </trkpt>
      <trkpt lat="46.0178" lon="4.50197">
        <ele>412</ele>
        <time>2018-08-05T06:51:08.000Z</time>
      </trkpt>
      <trkpt lat="46.01771" lon="4.50193">
        <ele>412</ele>
        <time>2018-08-05T06:51:09.000Z</time>
      </trkpt>
      <trkpt lat="46.01763" lon="4.50186">
        <ele>411</ele>
        <time>2018-08-05T06:51:10.000Z</time>
      </trkpt>
      <trkpt lat="46.01757" lon="4.50174">
        <ele>408</ele>
        <time>2018-08-05T06:51:11.000Z</time>
      </trkpt>
      <trkpt lat="46.01752" lon="4.50161">
        <ele>404</ele>
        <time>2018-08-05T06:51:12.000Z</time>
      </trkpt>
      <trkpt lat="46.01749" lon="4.50146">
        <ele>406</ele>
        <time>2018-08-05T06:51:13.000Z</time>
      </trkpt>
      <trkpt lat="46.01747" lon="4.50131">
        <ele>404</ele>
        <time>2018-08-05T06:51:14.000Z</time>
      </trkpt>
      <trkpt lat="46.01747" lon="4.50114">
        <ele>402</ele>
        <time>2018-08-05T06:51:15.000Z</time>
      </trkpt>
      <trkpt lat="46.01748" lon="4.50098">
        <ele>398</ele>
        <time>2018-08-05T06:51:16.000Z</time>
      </trkpt>
      <trkpt lat="46.0175" lon="4.50082">
        <ele>391</ele>
        <time>2018-08-05T06:51:17.000Z</time>
      </trkpt>
      <trkpt lat="46.01752" lon="4.50066">
        <ele>387</ele>
        <time>2018-08-05T06:51:18.000Z</time>
      </trkpt>
      <trkpt lat="46.01753" lon="4.50051">
        <ele>385</ele>
        <time>2018-08-05T06:51:19.000Z</time>
      </trkpt>
      <trkpt lat="46.01753" lon="4.50037">
        <ele>384</ele>
        <time>2018-08-05T06:51:20.000Z</time>
      </trkpt>
      <trkpt lat="46.01752" lon="4.50023">
        <ele>383</ele>
        <time>2018-08-05T06:51:21.000Z</time>
      </trkpt>
      <trkpt lat="46.01749" lon="4.5001">
        <ele>384</ele>
        <time>2018-08-05T06:51:22.000Z</time>
      </trkpt>
      <trkpt lat="46.01744" lon="4.49998">
        <ele>380</ele>
        <time>2018-08-05T06:51:23.000Z</time>
      </trkpt>
      <trkpt lat="46.01737" lon="4.49987">
        <ele>379</ele>
        <time>2018-08-05T06:51:24.000Z</time>
      </trkpt>
      <trkpt lat="46.01728" lon="4.49977">
        <ele>378</ele>
        <time>2018-08-05T06:51:25.000Z</time>
      </trkpt>
      <trkpt lat="46.0172" lon="4.49968">
        <ele>377</ele>
        <time>2018-08-05T06:51:26.000Z</time>
      </trkpt>
      <trkpt lat="46.0171" lon="4.49959">
        <ele>377</ele>
        <time>2018-08-05T06:51:27.000Z</time>
      </trkpt>
      <trkpt lat="46.01701" lon="4.4995">
        <ele>377</ele>
        <time>2018-08-05T06:51:28.000Z</time>
      </trkpt>
      <trkpt lat="46.01691" lon="4.49942">
        <ele>376</ele>
        <time>2018-08-05T06:51:29.000Z</time>
      </trkpt>
      <trkpt lat="46.0168" lon="4.49934">
        <ele>375</ele>
        <time>2018-08-05T06:51:30.000Z</time>
      </trkpt>
      <trkpt lat="46.0167" lon="4.49928">
        <ele>375</ele>
        <time>2018-08-05T06:51:31.000Z</time>
      </trkpt>
      <trkpt lat="46.01659" lon="4.49922">
        <ele>376</ele>
        <time>2018-08-05T06:51:32.000Z</time>
      </trkpt>
      <trkpt lat="46.01647" lon="4.49916">
        <ele>371</ele>
        <time>2018-08-05T06:51:33.000Z</time>
      </trkpt>
      <trkpt lat="46.01636" lon="4.4991">
        <ele>370</ele>
        <time>2018-08-05T06:51:34.000Z</time>
      </trkpt>
      <trkpt lat="46.01626" lon="4.49902">
        <ele>370</ele>
        <time>2018-08-05T06:51:35.000Z</time>
      </trkpt>
      <trkpt lat="46.01616" lon="4.49895">
        <ele>370</ele>
        <time>2018-08-05T06:51:36.000Z</time>
      </trkpt>
      <trkpt lat="46.01608" lon="4.49888">
        <ele>370</ele>
        <time>2018-08-05T06:51:37.000Z</time>
      </trkpt>
      <trkpt lat="46.01601" lon="4.49882">
        <ele>369</ele>
        <time>2018-08-05T06:51:38.000Z</time>
      </trkpt>
      <trkpt lat="46.01594" lon="4.49875">
        <ele>369</ele>
        <time>2018-08-05T06:51:39.000Z</time>
      </trkpt>
      <trkpt lat="46.01589" lon="4.49869">
        <ele>368</ele>
        <time>2018-08-05T06:51:40.000Z</time>
      </trkpt>
      <trkpt lat="46.01584" lon="4.49861">
        <ele>367</ele>
        <time>2018-08-05T06:51:41.000Z</time>
      </trkpt>
      <trkpt lat="46.01581" lon="4.49852">
        <ele>365</ele>
        <time>2018-08-05T06:51:42.000Z</time>
      </trkpt>
      <trkpt lat="46.0158" lon="4.49841">
        <ele>364</ele>
        <time>2018-08-05T06:51:43.000Z</time>
      </trkpt>
      <trkpt lat="46.01582" lon="4.4983">
        <ele>362</ele>
        <time>2018-08-05T06:51:44.000Z</time>
      </trkpt>
      <trkpt lat="46.01587" lon="4.4982">
        <ele>359</ele>
        <time>2018-08-05T06:51:45.000Z</time>
      </trkpt>
      <trkpt lat="46.01593" lon="4.49813">
        <ele>357</ele>
        <time>2018-08-05T06:51:46.000Z</time>
      </trkpt>
      <trkpt lat="46.01601" lon="4.4981">
        <ele>356</ele>
        <time>2018-08-05T06:51:47.000Z</time>
      </trkpt>
      <trkpt lat="46.01609" lon="4.4981">
        <ele>356</ele>
        <time>2018-08-05T06:51:48.000Z</time>
      </trkpt>
      <trkpt lat="46.01618" lon="4.49814">
        <ele>355</ele>
        <time>2018-08-05T06:51:49.000Z</time>
      </trkpt>
      <trkpt lat="46.01626" lon="4.49819">
        <ele>355</ele>
        <time>2018-08-05T06:51:50.000Z</time>
      </trkpt>
      <trkpt lat="46.01634" lon="4.49826">
        <ele>355</ele>
        <time>2018-08-05T06:51:51.000Z</time>
      </trkpt>
      <trkpt lat="46.01642" lon="4.49833">
        <ele>356</ele>
        <time>2018-08-05T06:51:52.000Z</time>
      </trkpt>
      <trkpt lat="46.01651" lon="4.49839">
        <ele>363</ele>
        <time>2018-08-05T06:51:53.000Z</time>
      </trkpt>
      <trkpt lat="46.01661" lon="4.49844">
        <ele>362</ele>
        <time>2018-08-05T06:51:54.000Z</time>
      </trkpt>
      <trkpt lat="46.01671" lon="4.49848">
        <ele>360</ele>
        <time>2018-08-05T06:51:55.000Z</time>
      </trkpt>
      <trkpt lat="46.01681" lon="4.49851">
        <ele>360</ele>
        <time>2018-08-05T06:51:56.000Z</time>
      </trkpt>
      <trkpt lat="46.01692" lon="4.49854">
        <ele>360</ele>
        <time>2018-08-05T06:51:57.000Z</time>
      </trkpt>
      <trkpt lat="46.01702" lon="4.49857">
        <ele>360</ele>
        <time>2018-08-05T06:51:58.000Z</time>
      </trkpt>
      <trkpt lat="46.01713" lon="4.49861">
        <ele>359</ele>
        <time>2018-08-05T06:51:59.000Z</time>
      </trkpt>
      <trkpt lat="46.01723" lon="4.49864">
        <ele>359</ele>
        <time>2018-08-05T06:52:00.000Z</time>
      </trkpt>
      <trkpt lat="46.01734" lon="4.49867">
        <ele>359</ele>
        <time>2018-08-05T06:52:01.000Z</time>
      </trkpt>
      <trkpt lat="46.01744" lon="4.4987">
        <ele>359</ele>
        <time>2018-08-05T06:52:02.000Z</time>
      </trkpt>
      <trkpt lat="46.01754" lon="4.49873">
        <ele>353</ele>
        <time>2018-08-05T06:52:03.000Z</time>
      </trkpt>
      <trkpt lat="46.01764" lon="4.49877">
        <ele>353</ele>
        <time>2018-08-05T06:52:04.000Z</time>
      </trkpt>
      <trkpt lat="46.01773" lon="4.4988">
        <ele>353</ele>
        <time>2018-08-05T06:52:05.000Z</time>
      </trkpt>
      <trkpt lat="46.01782" lon="4.49882">
        <ele>353</ele>
        <time>2018-08-05T06:52:06.000Z</time>
      </trkpt>
      <trkpt lat="46.0179" lon="4.49885">
        <ele>353</ele>
        <time>2018-08-05T06:52:07.000Z</time>
      </trkpt>
      <trkpt lat="46.01798" lon="4.49888">
        <ele>352</ele>
        <time>2018-08-05T06:52:08.000Z</time>
      </trkpt>
      <trkpt lat="46.01805" lon="4.49889">
        <ele>352</ele>
        <time>2018-08-05T06:52:09.000Z</time>
      </trkpt>
      <trkpt lat="46.01811" lon="4.49891">
        <ele>352</ele>
        <time>2018-08-05T06:52:10.000Z</time>
      </trkpt>
      <trkpt lat="46.01817" lon="4.49892">
        <ele>352</ele>
        <time>2018-08-05T06:52:11.000Z</time>
      </trkpt>
      <trkpt lat="46.01822" lon="4.49892">
        <ele>352</ele>
        <time>2018-08-05T06:52:12.000Z</time>
      </trkpt>
      <trkpt lat="46.01826" lon="4.49892">
        <ele>351</ele>
        <time>2018-08-05T06:52:13.000Z</time>
      </trkpt>
      <trkpt lat="46.01829" lon="4.49891">
        <ele>351</ele>
        <time>2018-08-05T06:52:14.000Z</time>
      </trkpt>
      <trkpt lat="46.01831" lon="4.4989">
        <ele>351</ele>
        <time>2018-08-05T06:52:15.000Z</time>
      </trkpt>
      <trkpt lat="46.01832" lon="4.4989">
        <ele>351</ele>
        <time>2018-08-05T06:52:16.000Z</time>
      </trkpt>
      <trkpt lat="46.01834" lon="4.49889">
        <ele>348</ele>
        <time>2018-08-05T06:52:17.000Z</time>
      </trkpt>
      <trkpt lat="46.01835" lon="4.49889">
        <ele>348</ele>
        <time>2018-08-05T06:52:18.000Z</time>
      </trkpt>
      <trkpt lat="46.01835" lon="4.49889">
        <ele>348</ele>
        <time>2018-08-05T06:52:19.000Z</time>
      </trkpt>
      <trkpt lat="46.01835" lon="4.49889">
        <ele>348</ele>
        <time>2018-08-05T06:52:20.000Z</time>
      </trkpt>
      <trkpt lat="46.01835" lon="4.49889">
        <ele>348</ele>
        <time>2018-08-05T06:52:21.000Z</time>
      </trkpt>
      <trkpt lat="46.01835" lon="4.49889">
        <ele>348</ele>
        <time>2018-08-05T06:52:22.000Z</time>
      </trkpt>
      <trkpt lat="46.01835" lon="4.49889">
        <ele>348</ele>
        <time>2018-08-05T06:52:23.000Z</time>
      </trkpt>
      <trkpt lat="46.01835" lon="4.49889">
        <ele>348</ele>
        <time>2018-08-05T06:52:24.000Z</time>
      </trkpt>
      <trkpt lat="46.01835" lon="4.49889">
        <ele>348</ele>
        <time>2018-08-05T06:52:25.000Z</time>
      </trkpt>
      <trkpt lat="46.01835" lon="4.49889">
        <ele>348</ele>
        <time>2018-08-05T06:52:26.000Z</time>
      </trkpt>
      <trkpt lat="46.01835" lon="4.49889">
        <ele>348</ele>
        <time>2018-08-05T06:52:27.000Z</time>
      </trkpt>
      <trkpt lat="46.01835" lon="4.49889">
        <ele>348</ele>
        <time>2018-08-05T06:52:28.000Z</time>
      </trkpt>
      <trkpt lat="46.01841" lon="4.49891">
        <ele>348</ele>
        <time>2018-08-05T06:52:57.000Z</time>
      </trkpt>
      <trkpt lat="46.01843" lon="4.49893">
        <ele>348</ele>
        <time>2018-08-05T06:52:58.000Z</time>
      </trkpt>
      <trkpt lat="46.01845" lon="4.49894">
        <ele>348</ele>
        <time>2018-08-05T06:52:59.000Z</time>
      </trkpt>
      <trkpt lat="46.01847" lon="4.49895">
        <ele>348</ele>
        <time>2018-08-05T06:53:00.000Z</time>
      </trkpt>
      <trkpt lat="46.0185" lon="4.49897">
        <ele>348</ele>
        <time>2018-08-05T06:53:01.000Z</time>
      </trkpt>
      <trkpt lat="46.01852" lon="4.49899">
        <ele>348</ele>
        <time>2018-08-05T06:53:02.000Z</time>
      </trkpt>
      <trkpt lat="46.01855" lon="4.499">
        <ele>348</ele>
        <time>2018-08-05T06:53:03.000Z</time>
      </trkpt>
      <trkpt lat="46.01859" lon="4.49902">
        <ele>348</ele>
        <time>2018-08-05T06:53:04.000Z</time>
      </trkpt>
      <trkpt lat="46.01863" lon="4.49903">
        <ele>348</ele>
        <time>2018-08-05T06:53:05.000Z</time>
      </trkpt>
      <trkpt lat="46.01868" lon="4.49904">
        <ele>348</ele>
        <time>2018-08-05T06:53:06.000Z</time>
      </trkpt>
      <trkpt lat="46.01872" lon="4.49905">
        <ele>348</ele>
        <time>2018-08-05T06:53:07.000Z</time>
      </trkpt>
      <trkpt lat="46.01876" lon="4.49906">
        <ele>348</ele>
        <time>2018-08-05T06:53:08.000Z</time>
      </trkpt>
      <trkpt lat="46.01879" lon="4.49906">
        <ele>348</ele>
        <time>2018-08-05T06:53:09.000Z</time>
      </trkpt>
      <trkpt lat="46.01883" lon="4.49908">
        <ele>348</ele>
        <time>2018-08-05T06:53:10.000Z</time>
      </trkpt>
      <trkpt lat="46.01886" lon="4.49909">
        <ele>348</ele>
        <time>2018-08-05T06:53:11.000Z</time>
      </trkpt>
      <trkpt lat="46.0189" lon="4.4991">
        <ele>348</ele>
        <time>2018-08-05T06:53:12.000Z</time>
      </trkpt>
      <trkpt lat="46.01893" lon="4.49911">
        <ele>348</ele>
        <time>2018-08-05T06:53:13.000Z</time>
      </trkpt>
      <trkpt lat="46.01896" lon="4.49912">
        <ele>348</ele>
        <time>2018-08-05T06:53:14.000Z</time>
      </trkpt>
      <trkpt lat="46.01899" lon="4.49913">
        <ele>348</ele>
        <time>2018-08-05T06:53:15.000Z</time>
      </trkpt>
      <trkpt lat="46.01903" lon="4.49912">
        <ele>348</ele>
        <time>2018-08-05T06:53:16.000Z</time>
      </trkpt>
      <trkpt lat="46.01906" lon="4.49913">
        <ele>348</ele>
        <time>2018-08-05T06:53:17.000Z</time>
      </trkpt>
      <trkpt lat="46.0191" lon="4.49915">
        <ele>348</ele>
        <time>2018-08-05T06:53:18.000Z</time>
      </trkpt>
      <trkpt lat="46.01913" lon="4.49916">
        <ele>349</ele>
        <time>2018-08-05T06:53:19.000Z</time>
      </trkpt>
      <trkpt lat="46.01918" lon="4.49917">
        <ele>349</ele>
        <time>2018-08-05T06:53:20.000Z</time>
      </trkpt>
      <trkpt lat="46.01921" lon="4.49919">
        <ele>350</ele>
        <time>2018-08-05T06:53:21.000Z</time>
      </trkpt>
      <trkpt lat="46.01925" lon="4.4992">
        <ele>350</ele>
        <time>2018-08-05T06:53:22.000Z</time>
      </trkpt>
      <trkpt lat="46.01929" lon="4.49922">
        <ele>351</ele>
        <time>2018-08-05T06:53:23.000Z</time>
      </trkpt>
      <trkpt lat="46.01933" lon="4.49923">
        <ele>351</ele>
        <time>2018-08-05T06:53:24.000Z</time>
      </trkpt>
      <trkpt lat="46.01937" lon="4.49925">
        <ele>351</ele>
        <time>2018-08-05T06:53:25.000Z</time>
      </trkpt>
      <trkpt lat="46.01941" lon="4.49926">
        <ele>352</ele>
        <time>2018-08-05T06:53:26.000Z</time>
      </trkpt>
      <trkpt lat="46.01945" lon="4.49928">
        <ele>352</ele>
        <time>2018-08-05T06:53:27.000Z</time>
      </trkpt>
      <trkpt lat="46.01949" lon="4.49929">
        <ele>352</ele>
        <time>2018-08-05T06:53:28.000Z</time>
      </trkpt>
      <trkpt lat="46.01953" lon="4.4993">
        <ele>352</ele>
        <time>2018-08-05T06:53:29.000Z</time>
      </trkpt>
      <trkpt lat="46.01957" lon="4.49931">
        <ele>352</ele>
        <time>2018-08-05T06:53:30.000Z</time>
      </trkpt>
      <trkpt lat="46.01961" lon="4.49932">
        <ele>352</ele>
        <time>2018-08-05T06:53:31.000Z</time>
      </trkpt>
      <trkpt lat="46.01966" lon="4.49933">
        <ele>352</ele>
        <time>2018-08-05T06:53:32.000Z</time>
      </trkpt>
      <trkpt lat="46.01971" lon="4.49933">
        <ele>351</ele>
        <time>2018-08-05T06:53:33.000Z</time>
      </trkpt>
      <trkpt lat="46.01977" lon="4.49937">
        <ele>351</ele>
        <time>2018-08-05T06:53:34.000Z</time>
      </trkpt>
      <trkpt lat="46.01982" lon="4.49937">
        <ele>351</ele>
        <time>2018-08-05T06:53:35.000Z</time>
      </trkpt>
      <trkpt lat="46.01987" lon="4.49937">
        <ele>351</ele>
        <time>2018-08-05T06:53:36.000Z</time>
      </trkpt>
      <trkpt lat="46.01993" lon="4.49936">
        <ele>350</ele>
        <time>2018-08-05T06:53:37.000Z</time>
      </trkpt>
      <trkpt lat="46.01999" lon="4.49935">
        <ele>350</ele>
        <time>2018-08-05T06:53:38.000Z</time>
      </trkpt>
      <trkpt lat="46.02004" lon="4.49934">
        <ele>348</ele>
        <time>2018-08-05T06:53:39.000Z</time>
      </trkpt>
      <trkpt lat="46.02011" lon="4.49934">
        <ele>348</ele>
        <time>2018-08-05T06:53:40.000Z</time>
      </trkpt>
      <trkpt lat="46.02017" lon="4.49933">
        <ele>348</ele>
        <time>2018-08-05T06:53:41.000Z</time>
      </trkpt>
      <trkpt lat="46.02023" lon="4.49932">
        <ele>349</ele>
        <time>2018-08-05T06:53:42.000Z</time>
      </trkpt>
      <trkpt lat="46.0203" lon="4.49932">
        <ele>349</ele>
        <time>2018-08-05T06:53:43.000Z</time>
      </trkpt>
      <trkpt lat="46.02036" lon="4.49931">
        <ele>349</ele>
        <time>2018-08-05T06:53:44.000Z</time>
      </trkpt>
      <trkpt lat="46.02043" lon="4.49931">
        <ele>348</ele>
        <time>2018-08-05T06:53:45.000Z</time>
      </trkpt>
      <trkpt lat="46.02049" lon="4.49931">
        <ele>348</ele>
        <time>2018-08-05T06:53:46.000Z</time>
      </trkpt>
      <trkpt lat="46.02056" lon="4.49931">
        <ele>348</ele>
        <time>2018-08-05T06:53:47.000Z</time>
      </trkpt>
      <trkpt lat="46.02063" lon="4.49932">
        <ele>348</ele>
        <time>2018-08-05T06:53:48.000Z</time>
      </trkpt>
      <trkpt lat="46.0207" lon="4.49934">
        <ele>348</ele>
        <time>2018-08-05T06:53:49.000Z</time>
      </trkpt>
      <trkpt lat="46.02076" lon="4.49934">
        <ele>347</ele>
        <time>2018-08-05T06:53:50.000Z</time>
      </trkpt>
      <trkpt lat="46.02083" lon="4.49935">
        <ele>347</ele>
        <time>2018-08-05T06:53:51.000Z</time>
      </trkpt>
      <trkpt lat="46.02089" lon="4.49936">
        <ele>346</ele>
        <time>2018-08-05T06:53:52.000Z</time>
      </trkpt>
      <trkpt lat="46.02096" lon="4.49938">
        <ele>346</ele>
        <time>2018-08-05T06:53:53.000Z</time>
      </trkpt>
      <trkpt lat="46.02102" lon="4.4994">
        <ele>346</ele>
        <time>2018-08-05T06:53:54.000Z</time>
      </trkpt>
      <trkpt lat="46.02109" lon="4.49942">
        <ele>346</ele>
        <time>2018-08-05T06:53:55.000Z</time>
      </trkpt>
      <trkpt lat="46.02116" lon="4.49943">
        <ele>346</ele>
        <time>2018-08-05T06:53:56.000Z</time>
      </trkpt>
      <trkpt lat="46.02123" lon="4.49945">
        <ele>346</ele>
        <time>2018-08-05T06:53:57.000Z</time>
      </trkpt>
      <trkpt lat="46.02131" lon="4.49946">
        <ele>345</ele>
        <time>2018-08-05T06:53:58.000Z</time>
      </trkpt>
      <trkpt lat="46.02139" lon="4.49948">
        <ele>345</ele>
        <time>2018-08-05T06:53:59.000Z</time>
      </trkpt>
      <trkpt lat="46.02146" lon="4.49949">
        <ele>345</ele>
        <time>2018-08-05T06:54:00.000Z</time>
      </trkpt>
      <trkpt lat="46.02154" lon="4.49951">
        <ele>345</ele>
        <time>2018-08-05T06:54:01.000Z</time>
      </trkpt>
      <trkpt lat="46.02162" lon="4.49952">
        <ele>345</ele>
        <time>2018-08-05T06:54:02.000Z</time>
      </trkpt>
      <trkpt lat="46.0217" lon="4.49953">
        <ele>342</ele>
        <time>2018-08-05T06:54:03.000Z</time>
      </trkpt>
      <trkpt lat="46.02177" lon="4.49953">
        <ele>342</ele>
        <time>2018-08-05T06:54:04.000Z</time>
      </trkpt>
      <trkpt lat="46.02183" lon="4.49954">
        <ele>342</ele>
        <time>2018-08-05T06:54:05.000Z</time>
      </trkpt>
      <trkpt lat="46.02189" lon="4.49956">
        <ele>342</ele>
        <time>2018-08-05T06:54:06.000Z</time>
      </trkpt>
      <trkpt lat="46.02194" lon="4.49963">
        <ele>342</ele>
        <time>2018-08-05T06:54:07.000Z</time>
      </trkpt>
      <trkpt lat="46.02197" lon="4.49971">
        <ele>343</ele>
        <time>2018-08-05T06:54:08.000Z</time>
      </trkpt>
      <trkpt lat="46.02199" lon="4.49981">
        <ele>343</ele>
        <time>2018-08-05T06:54:09.000Z</time>
      </trkpt>
      <trkpt lat="46.02199" lon="4.4999">
        <ele>343</ele>
        <time>2018-08-05T06:54:10.000Z</time>
      </trkpt>
      <trkpt lat="46.02198" lon="4.5">
        <ele>344</ele>
        <time>2018-08-05T06:54:11.000Z</time>
      </trkpt>
      <trkpt lat="46.02198" lon="4.50009">
        <ele>348</ele>
        <time>2018-08-05T06:54:12.000Z</time>
      </trkpt>
      <trkpt lat="46.02199" lon="4.50017">
        <ele>349</ele>
        <time>2018-08-05T06:54:13.000Z</time>
      </trkpt>
      <trkpt lat="46.02199" lon="4.50024">
        <ele>349</ele>
        <time>2018-08-05T06:54:14.000Z</time>
      </trkpt>
      <trkpt lat="46.022" lon="4.50031">
        <ele>349</ele>
        <time>2018-08-05T06:54:15.000Z</time>
      </trkpt>
      <trkpt lat="46.02201" lon="4.50037">
        <ele>349</ele>
        <time>2018-08-05T06:54:16.000Z</time>
      </trkpt>
      <trkpt lat="46.02203" lon="4.50043">
        <ele>350</ele>
        <time>2018-08-05T06:54:17.000Z</time>
      </trkpt>
      <trkpt lat="46.02204" lon="4.50049">
        <ele>350</ele>
        <time>2018-08-05T06:54:18.000Z</time>
      </trkpt>
      <trkpt lat="46.02206" lon="4.50055">
        <ele>350</ele>
        <time>2018-08-05T06:54:19.000Z</time>
      </trkpt>
      <trkpt lat="46.02207" lon="4.5006">
        <ele>350</ele>
        <time>2018-08-05T06:54:20.000Z</time>
      </trkpt>
      <trkpt lat="46.02209" lon="4.50066">
        <ele>350</ele>
        <time>2018-08-05T06:54:21.000Z</time>
      </trkpt>
      <trkpt lat="46.0221" lon="4.50071">
        <ele>350</ele>
        <time>2018-08-05T06:54:22.000Z</time>
      </trkpt>
      <trkpt lat="46.02211" lon="4.50076">
        <ele>350</ele>
        <time>2018-08-05T06:54:23.000Z</time>
      </trkpt>
      <trkpt lat="46.02213" lon="4.50081">
        <ele>350</ele>
        <time>2018-08-05T06:54:24.000Z</time>
      </trkpt>
      <trkpt lat="46.02214" lon="4.50087">
        <ele>354</ele>
        <time>2018-08-05T06:54:25.000Z</time>
      </trkpt>
      <trkpt lat="46.02215" lon="4.50092">
        <ele>354</ele>
        <time>2018-08-05T06:54:26.000Z</time>
      </trkpt>
      <trkpt lat="46.02217" lon="4.50097">
        <ele>354</ele>
        <time>2018-08-05T06:54:27.000Z</time>
      </trkpt>
      <trkpt lat="46.02218" lon="4.50102">
        <ele>354</ele>
        <time>2018-08-05T06:54:28.000Z</time>
      </trkpt>
      <trkpt lat="46.0222" lon="4.50108">
        <ele>354</ele>
        <time>2018-08-05T06:54:29.000Z</time>
      </trkpt>
      <trkpt lat="46.02222" lon="4.50113">
        <ele>355</ele>
        <time>2018-08-05T06:54:30.000Z</time>
      </trkpt>
      <trkpt lat="46.02224" lon="4.50118">
        <ele>355</ele>
        <time>2018-08-05T06:54:31.000Z</time>
      </trkpt>
      <trkpt lat="46.02226" lon="4.50123">
        <ele>355</ele>
        <time>2018-08-05T06:54:32.000Z</time>
      </trkpt>
      <trkpt lat="46.02228" lon="4.50129">
        <ele>355</ele>
        <time>2018-08-05T06:54:33.000Z</time>
      </trkpt>
      <trkpt lat="46.0223" lon="4.50133">
        <ele>355</ele>
        <time>2018-08-05T06:54:34.000Z</time>
      </trkpt>
      <trkpt lat="46.02233" lon="4.50138">
        <ele>354</ele>
        <time>2018-08-05T06:54:35.000Z</time>
      </trkpt>
      <trkpt lat="46.02234" lon="4.50143">
        <ele>354</ele>
        <time>2018-08-05T06:54:36.000Z</time>
      </trkpt>
      <trkpt lat="46.02236" lon="4.50147">
        <ele>354</ele>
        <time>2018-08-05T06:54:37.000Z</time>
      </trkpt>
      <trkpt lat="46.02238" lon="4.50152">
        <ele>353</ele>
        <time>2018-08-05T06:54:38.000Z</time>
      </trkpt>
      <trkpt lat="46.0224" lon="4.50157">
        <ele>353</ele>
        <time>2018-08-05T06:54:39.000Z</time>
      </trkpt>
      <trkpt lat="46.02242" lon="4.50162">
        <ele>352</ele>
        <time>2018-08-05T06:54:40.000Z</time>
      </trkpt>
      <trkpt lat="46.02244" lon="4.50168">
        <ele>353</ele>
        <time>2018-08-05T06:54:41.000Z</time>
      </trkpt>
      <trkpt lat="46.02246" lon="4.50173">
        <ele>353</ele>
        <time>2018-08-05T06:54:42.000Z</time>
      </trkpt>
      <trkpt lat="46.02248" lon="4.50179">
        <ele>355</ele>
        <time>2018-08-05T06:54:43.000Z</time>
      </trkpt>
      <trkpt lat="46.0225" lon="4.50184">
        <ele>356</ele>
        <time>2018-08-05T06:54:44.000Z</time>
      </trkpt>
      <trkpt lat="46.02252" lon="4.50189">
        <ele>353</ele>
        <time>2018-08-05T06:54:45.000Z</time>
      </trkpt>
      <trkpt lat="46.02254" lon="4.50194">
        <ele>353</ele>
        <time>2018-08-05T06:54:46.000Z</time>
      </trkpt>
      <trkpt lat="46.02256" lon="4.50199">
        <ele>354</ele>
        <time>2018-08-05T06:54:47.000Z</time>
      </trkpt>
      <trkpt lat="46.02258" lon="4.50204">
        <ele>354</ele>
        <time>2018-08-05T06:54:48.000Z</time>
      </trkpt>
      <trkpt lat="46.0226" lon="4.50209">
        <ele>354</ele>
        <time>2018-08-05T06:54:49.000Z</time>
      </trkpt>
      <trkpt lat="46.02261" lon="4.50214">
        <ele>354</ele>
        <time>2018-08-05T06:54:50.000Z</time>
      </trkpt>
      <trkpt lat="46.02262" lon="4.50219">
        <ele>355</ele>
        <time>2018-08-05T06:54:51.000Z</time>
      </trkpt>
      <trkpt lat="46.02264" lon="4.50223">
        <ele>355</ele>
        <time>2018-08-05T06:54:52.000Z</time>
      </trkpt>
      <trkpt lat="46.02265" lon="4.50227">
        <ele>355</ele>
        <time>2018-08-05T06:54:53.000Z</time>
      </trkpt>
      <trkpt lat="46.02267" lon="4.50232">
        <ele>355</ele>
        <time>2018-08-05T06:54:54.000Z</time>
      </trkpt>
      <trkpt lat="46.02269" lon="4.50237">
        <ele>355</ele>
        <time>2018-08-05T06:54:55.000Z</time>
      </trkpt>
      <trkpt lat="46.02271" lon="4.50242">
        <ele>356</ele>
        <time>2018-08-05T06:54:56.000Z</time>
      </trkpt>
      <trkpt lat="46.02273" lon="4.50246">
        <ele>355</ele>
        <time>2018-08-05T06:54:57.000Z</time>
      </trkpt>
      <trkpt lat="46.02275" lon="4.50251">
        <ele>357</ele>
        <time>2018-08-05T06:54:58.000Z</time>
      </trkpt>
      <trkpt lat="46.02277" lon="4.50256">
        <ele>357</ele>
        <time>2018-08-05T06:54:59.000Z</time>
      </trkpt>
      <trkpt lat="46.02278" lon="4.50261">
        <ele>357</ele>
        <time>2018-08-05T06:55:00.000Z</time>
      </trkpt>
      <trkpt lat="46.0228" lon="4.50266">
        <ele>357</ele>
        <time>2018-08-05T06:55:01.000Z</time>
      </trkpt>
      <trkpt lat="46.02282" lon="4.50271">
        <ele>357</ele>
        <time>2018-08-05T06:55:02.000Z</time>
      </trkpt>
      <trkpt lat="46.02284" lon="4.50277">
        <ele>358</ele>
        <time>2018-08-05T06:55:03.000Z</time>
      </trkpt>
      <trkpt lat="46.02285" lon="4.50282">
        <ele>358</ele>
        <time>2018-08-05T06:55:04.000Z</time>
      </trkpt>
      <trkpt lat="46.02287" lon="4.50287">
        <ele>358</ele>
        <time>2018-08-05T06:55:05.000Z</time>
      </trkpt>
      <trkpt lat="46.02289" lon="4.50293">
        <ele>358</ele>
        <time>2018-08-05T06:55:06.000Z</time>
      </trkpt>
      <trkpt lat="46.02291" lon="4.50298">
        <ele>358</ele>
        <time>2018-08-05T06:55:07.000Z</time>
      </trkpt>
      <trkpt lat="46.02293" lon="4.50303">
        <ele>358</ele>
        <time>2018-08-05T06:55:08.000Z</time>
      </trkpt>
      <trkpt lat="46.02295" lon="4.50308">
        <ele>358</ele>
        <time>2018-08-05T06:55:09.000Z</time>
      </trkpt>
      <trkpt lat="46.02297" lon="4.50313">
        <ele>358</ele>
        <time>2018-08-05T06:55:10.000Z</time>
      </trkpt>
      <trkpt lat="46.02298" lon="4.50318">
        <ele>357</ele>
        <time>2018-08-05T06:55:11.000Z</time>
      </trkpt>
      <trkpt lat="46.023" lon="4.50323">
        <ele>357</ele>
        <time>2018-08-05T06:55:12.000Z</time>
      </trkpt>
      <trkpt lat="46.02302" lon="4.50329">
        <ele>357</ele>
        <time>2018-08-05T06:55:13.000Z</time>
      </trkpt>
      <trkpt lat="46.02304" lon="4.50334">
        <ele>360</ele>
        <time>2018-08-05T06:55:14.000Z</time>
      </trkpt>
      <trkpt lat="46.02306" lon="4.50339">
        <ele>360</ele>
        <time>2018-08-05T06:55:15.000Z</time>
      </trkpt>
      <trkpt lat="46.02308" lon="4.50344">
        <ele>360</ele>
        <time>2018-08-05T06:55:16.000Z</time>
      </trkpt>
      <trkpt lat="46.0231" lon="4.50349">
        <ele>360</ele>
        <time>2018-08-05T06:55:17.000Z</time>
      </trkpt>
      <trkpt lat="46.02312" lon="4.50355">
        <ele>360</ele>
        <time>2018-08-05T06:55:18.000Z</time>
      </trkpt>
      <trkpt lat="46.02314" lon="4.5036">
        <ele>360</ele>
        <time>2018-08-05T06:55:19.000Z</time>
      </trkpt>
      <trkpt lat="46.02315" lon="4.50365">
        <ele>361</ele>
        <time>2018-08-05T06:55:20.000Z</time>
      </trkpt>
      <trkpt lat="46.02317" lon="4.5037">
        <ele>361</ele>
        <time>2018-08-05T06:55:21.000Z</time>
      </trkpt>
      <trkpt lat="46.02319" lon="4.50375">
        <ele>361</ele>
        <time>2018-08-05T06:55:22.000Z</time>
      </trkpt>
      <trkpt lat="46.0232" lon="4.5038">
        <ele>361</ele>
        <time>2018-08-05T06:55:23.000Z</time>
      </trkpt>
      <trkpt lat="46.02322" lon="4.50384">
        <ele>361</ele>
        <time>2018-08-05T06:55:24.000Z</time>
      </trkpt>
      <trkpt lat="46.02323" lon="4.50389">
        <ele>361</ele>
        <time>2018-08-05T06:55:25.000Z</time>
      </trkpt>
      <trkpt lat="46.02325" lon="4.50394">
        <ele>361</ele>
        <time>2018-08-05T06:55:26.000Z</time>
      </trkpt>
      <trkpt lat="46.02326" lon="4.50399">
        <ele>361</ele>
        <time>2018-08-05T06:55:27.000Z</time>
      </trkpt>
      <trkpt lat="46.02328" lon="4.50403">
        <ele>360</ele>
        <time>2018-08-05T06:55:28.000Z</time>
      </trkpt>
      <trkpt lat="46.02329" lon="4.50408">
        <ele>360</ele>
        <time>2018-08-05T06:55:29.000Z</time>
      </trkpt>
      <trkpt lat="46.02331" lon="4.50413">
        <ele>359</ele>
        <time>2018-08-05T06:55:30.000Z</time>
      </trkpt>
      <trkpt lat="46.02332" lon="4.50418">
        <ele>359</ele>
        <time>2018-08-05T06:55:31.000Z</time>
      </trkpt>
      <trkpt lat="46.02333" lon="4.50423">
        <ele>361</ele>
        <time>2018-08-05T06:55:32.000Z</time>
      </trkpt>
      <trkpt lat="46.02335" lon="4.50428">
        <ele>360</ele>
        <time>2018-08-05T06:55:33.000Z</time>
      </trkpt>
      <trkpt lat="46.02336" lon="4.50433">
        <ele>360</ele>
        <time>2018-08-05T06:55:34.000Z</time>
      </trkpt>
      <trkpt lat="46.02337" lon="4.50438">
        <ele>361</ele>
        <time>2018-08-05T06:55:35.000Z</time>
      </trkpt>
      <trkpt lat="46.02338" lon="4.50443">
        <ele>361</ele>
        <time>2018-08-05T06:55:36.000Z</time>
      </trkpt>
      <trkpt lat="46.02339" lon="4.50448">
        <ele>361</ele>
        <time>2018-08-05T06:55:37.000Z</time>
      </trkpt>
      <trkpt lat="46.02339" lon="4.50453">
        <ele>362</ele>
        <time>2018-08-05T06:55:38.000Z</time>
      </trkpt>
      <trkpt lat="46.0234" lon="4.50458">
        <ele>362</ele>
        <time>2018-08-05T06:55:39.000Z</time>
      </trkpt>
      <trkpt lat="46.02341" lon="4.50463">
        <ele>362</ele>
        <time>2018-08-05T06:55:40.000Z</time>
      </trkpt>
      <trkpt lat="46.02341" lon="4.50468">
        <ele>363</ele>
        <time>2018-08-05T06:55:41.000Z</time>
      </trkpt>
      <trkpt lat="46.02342" lon="4.50473">
        <ele>363</ele>
        <time>2018-08-05T06:55:42.000Z</time>
      </trkpt>
      <trkpt lat="46.02343" lon="4.50478">
        <ele>363</ele>
        <time>2018-08-05T06:55:43.000Z</time>
      </trkpt>
      <trkpt lat="46.02344" lon="4.50483">
        <ele>364</ele>
        <time>2018-08-05T06:55:44.000Z</time>
      </trkpt>
      <trkpt lat="46.02344" lon="4.50488">
        <ele>364</ele>
        <time>2018-08-05T06:55:45.000Z</time>
      </trkpt>
      <trkpt lat="46.02345" lon="4.50493">
        <ele>364</ele>
        <time>2018-08-05T06:55:46.000Z</time>
      </trkpt>
      <trkpt lat="46.02345" lon="4.50498">
        <ele>364</ele>
        <time>2018-08-05T06:55:47.000Z</time>
      </trkpt>
      <trkpt lat="46.02346" lon="4.50503">
        <ele>366</ele>
        <time>2018-08-05T06:55:48.000Z</time>
      </trkpt>
      <trkpt lat="46.02347" lon="4.50508">
        <ele>366</ele>
        <time>2018-08-05T06:55:49.000Z</time>
      </trkpt>
      <trkpt lat="46.02348" lon="4.50513">
        <ele>366</ele>
        <time>2018-08-05T06:55:50.000Z</time>
      </trkpt>
      <trkpt lat="46.02349" lon="4.50517">
        <ele>367</ele>
        <time>2018-08-05T06:55:51.000Z</time>
      </trkpt>
      <trkpt lat="46.0235" lon="4.50522">
        <ele>367</ele>
        <time>2018-08-05T06:55:52.000Z</time>
      </trkpt>
      <trkpt lat="46.02352" lon="4.50527">
        <ele>367</ele>
        <time>2018-08-05T06:55:53.000Z</time>
      </trkpt>
      <trkpt lat="46.02353" lon="4.50531">
        <ele>367</ele>
        <time>2018-08-05T06:55:54.000Z</time>
      </trkpt>
      <trkpt lat="46.02355" lon="4.50536">
        <ele>367</ele>
        <time>2018-08-05T06:55:55.000Z</time>
      </trkpt>
      <trkpt lat="46.02357" lon="4.5054">
        <ele>368</ele>
        <time>2018-08-05T06:55:56.000Z</time>
      </trkpt>
      <trkpt lat="46.02359" lon="4.50545">
        <ele>368</ele>
        <time>2018-08-05T06:55:57.000Z</time>
      </trkpt>
      <trkpt lat="46.02361" lon="4.50549">
        <ele>368</ele>
        <time>2018-08-05T06:55:58.000Z</time>
      </trkpt>
      <trkpt lat="46.02363" lon="4.50553">
        <ele>368</ele>
        <time>2018-08-05T06:55:59.000Z</time>
      </trkpt>
      <trkpt lat="46.02366" lon="4.50557">
        <ele>368</ele>
        <time>2018-08-05T06:56:00.000Z</time>
      </trkpt>
      <trkpt lat="46.02368" lon="4.50561">
        <ele>368</ele>
        <time>2018-08-05T06:56:01.000Z</time>
      </trkpt>
      <trkpt lat="46.0237" lon="4.50564">
        <ele>368</ele>
        <time>2018-08-05T06:56:02.000Z</time>
      </trkpt>
      <trkpt lat="46.02372" lon="4.50567">
        <ele>368</ele>
        <time>2018-08-05T06:56:03.000Z</time>
      </trkpt>
      <trkpt lat="46.02374" lon="4.50571">
        <ele>367</ele>
        <time>2018-08-05T06:56:04.000Z</time>
      </trkpt>
      <trkpt lat="46.02376" lon="4.50575">
        <ele>367</ele>
        <time>2018-08-05T06:56:05.000Z</time>
      </trkpt>
      <trkpt lat="46.02379" lon="4.50579">
        <ele>367</ele>
        <time>2018-08-05T06:56:06.000Z</time>
      </trkpt>
      <trkpt lat="46.02382" lon="4.50584">
        <ele>372</ele>
        <time>2018-08-05T06:56:07.000Z</time>
      </trkpt>
      <trkpt lat="46.02384" lon="4.50588">
        <ele>371</ele>
        <time>2018-08-05T06:56:08.000Z</time>
      </trkpt>
      <trkpt lat="46.02387" lon="4.50593">
        <ele>371</ele>
        <time>2018-08-05T06:56:09.000Z</time>
      </trkpt>
      <trkpt lat="46.0239" lon="4.50598">
        <ele>371</ele>
        <time>2018-08-05T06:56:10.000Z</time>
      </trkpt>
      <trkpt lat="46.02392" lon="4.50603">
        <ele>371</ele>
        <time>2018-08-05T06:56:11.000Z</time>
      </trkpt>
      <trkpt lat="46.02394" lon="4.50608">
        <ele>371</ele>
        <time>2018-08-05T06:56:12.000Z</time>
      </trkpt>
      <trkpt lat="46.02396" lon="4.50614">
        <ele>371</ele>
        <time>2018-08-05T06:56:13.000Z</time>
      </trkpt>
      <trkpt lat="46.02398" lon="4.5062">
        <ele>372</ele>
        <time>2018-08-05T06:56:14.000Z</time>
      </trkpt>
      <trkpt lat="46.024" lon="4.50626">
        <ele>372</ele>
        <time>2018-08-05T06:56:15.000Z</time>
      </trkpt>
      <trkpt lat="46.02401" lon="4.50632">
        <ele>372</ele>
        <time>2018-08-05T06:56:16.000Z</time>
      </trkpt>
      <trkpt lat="46.02402" lon="4.50638">
        <ele>372</ele>
        <time>2018-08-05T06:56:17.000Z</time>
      </trkpt>
      <trkpt lat="46.02403" lon="4.50645">
        <ele>372</ele>
        <time>2018-08-05T06:56:18.000Z</time>
      </trkpt>
      <trkpt lat="46.02404" lon="4.50651">
        <ele>371</ele>
        <time>2018-08-05T06:56:19.000Z</time>
      </trkpt>
      <trkpt lat="46.02405" lon="4.50657">
        <ele>371</ele>
        <time>2018-08-05T06:56:20.000Z</time>
      </trkpt>
      <trkpt lat="46.02406" lon="4.50663">
        <ele>370</ele>
        <time>2018-08-05T06:56:21.000Z</time>
      </trkpt>
      <trkpt lat="46.02407" lon="4.50669">
        <ele>372</ele>
        <time>2018-08-05T06:56:22.000Z</time>
      </trkpt>
      <trkpt lat="46.02409" lon="4.50675">
        <ele>373</ele>
        <time>2018-08-05T06:56:23.000Z</time>
      </trkpt>
      <trkpt lat="46.0241" lon="4.5068">
        <ele>375</ele>
        <time>2018-08-05T06:56:24.000Z</time>
      </trkpt>
      <trkpt lat="46.02412" lon="4.50686">
        <ele>376</ele>
        <time>2018-08-05T06:56:25.000Z</time>
      </trkpt>
      <trkpt lat="46.02413" lon="4.50691">
        <ele>377</ele>
        <time>2018-08-05T06:56:26.000Z</time>
      </trkpt>
      <trkpt lat="46.02415" lon="4.50696">
        <ele>378</ele>
        <time>2018-08-05T06:56:27.000Z</time>
      </trkpt>
      <trkpt lat="46.02417" lon="4.50701">
        <ele>367</ele>
        <time>2018-08-05T06:56:28.000Z</time>
      </trkpt>
      <trkpt lat="46.02419" lon="4.50706">
        <ele>367</ele>
        <time>2018-08-05T06:56:29.000Z</time>
      </trkpt>
      <trkpt lat="46.0242" lon="4.50711">
        <ele>367</ele>
        <time>2018-08-05T06:56:30.000Z</time>
      </trkpt>
      <trkpt lat="46.02422" lon="4.50716">
        <ele>368</ele>
        <time>2018-08-05T06:56:31.000Z</time>
      </trkpt>
      <trkpt lat="46.02425" lon="4.50722">
        <ele>368</ele>
        <time>2018-08-05T06:56:32.000Z</time>
      </trkpt>
      <trkpt lat="46.02427" lon="4.50727">
        <ele>368</ele>
        <time>2018-08-05T06:56:33.000Z</time>
      </trkpt>
      <trkpt lat="46.02429" lon="4.50732">
        <ele>369</ele>
        <time>2018-08-05T06:56:34.000Z</time>
      </trkpt>
      <trkpt lat="46.02431" lon="4.50737">
        <ele>369</ele>
        <time>2018-08-05T06:56:35.000Z</time>
      </trkpt>
      <trkpt lat="46.02433" lon="4.50741">
        <ele>369</ele>
        <time>2018-08-05T06:56:36.000Z</time>
      </trkpt>
      <trkpt lat="46.02435" lon="4.50746">
        <ele>369</ele>
        <time>2018-08-05T06:56:37.000Z</time>
      </trkpt>
      <trkpt lat="46.02437" lon="4.50751">
        <ele>371</ele>
        <time>2018-08-05T06:56:38.000Z</time>
      </trkpt>
      <trkpt lat="46.02439" lon="4.50756">
        <ele>371</ele>
        <time>2018-08-05T06:56:39.000Z</time>
      </trkpt>
      <trkpt lat="46.02441" lon="4.50761">
        <ele>371</ele>
        <time>2018-08-05T06:56:40.000Z</time>
      </trkpt>
      <trkpt lat="46.02443" lon="4.50765">
        <ele>371</ele>
        <time>2018-08-05T06:56:41.000Z</time>
      </trkpt>
      <trkpt lat="46.02445" lon="4.5077">
        <ele>370</ele>
        <time>2018-08-05T06:56:42.000Z</time>
      </trkpt>
      <trkpt lat="46.02447" lon="4.50775">
        <ele>370</ele>
        <time>2018-08-05T06:56:43.000Z</time>
      </trkpt>
      <trkpt lat="46.02448" lon="4.5078">
        <ele>370</ele>
        <time>2018-08-05T06:56:44.000Z</time>
      </trkpt>
      <trkpt lat="46.0245" lon="4.50785">
        <ele>371</ele>
        <time>2018-08-05T06:56:45.000Z</time>
      </trkpt>
      <trkpt lat="46.02451" lon="4.5079">
        <ele>371</ele>
        <time>2018-08-05T06:56:46.000Z</time>
      </trkpt>
      <trkpt lat="46.02452" lon="4.50795">
        <ele>371</ele>
        <time>2018-08-05T06:56:47.000Z</time>
      </trkpt>
      <trkpt lat="46.02453" lon="4.50801">
        <ele>371</ele>
        <time>2018-08-05T06:56:48.000Z</time>
      </trkpt>
      <trkpt lat="46.02454" lon="4.50806">
        <ele>371</ele>
        <time>2018-08-05T06:56:49.000Z</time>
      </trkpt>
      <trkpt lat="46.02455" lon="4.50811">
        <ele>371</ele>
        <time>2018-08-05T06:56:50.000Z</time>
      </trkpt>
      <trkpt lat="46.02455" lon="4.50817">
        <ele>372</ele>
        <time>2018-08-05T06:56:51.000Z</time>
      </trkpt>
      <trkpt lat="46.02455" lon="4.50822">
        <ele>372</ele>
        <time>2018-08-05T06:56:52.000Z</time>
      </trkpt>
      <trkpt lat="46.02455" lon="4.50828">
        <ele>372</ele>
        <time>2018-08-05T06:56:53.000Z</time>
      </trkpt>
      <trkpt lat="46.02455" lon="4.50833">
        <ele>372</ele>
        <time>2018-08-05T06:56:54.000Z</time>
      </trkpt>
      <trkpt lat="46.02456" lon="4.50839">
        <ele>377</ele>
        <time>2018-08-05T06:56:55.000Z</time>
      </trkpt>
      <trkpt lat="46.02456" lon="4.50844">
        <ele>377</ele>
        <time>2018-08-05T06:56:56.000Z</time>
      </trkpt>
      <trkpt lat="46.02456" lon="4.5085">
        <ele>377</ele>
        <time>2018-08-05T06:56:57.000Z</time>
      </trkpt>
      <trkpt lat="46.02457" lon="4.50856">
        <ele>377</ele>
        <time>2018-08-05T06:56:58.000Z</time>
      </trkpt>
      <trkpt lat="46.02457" lon="4.50861">
        <ele>378</ele>
        <time>2018-08-05T06:56:59.000Z</time>
      </trkpt>
      <trkpt lat="46.02457" lon="4.50867">
        <ele>378</ele>
        <time>2018-08-05T06:57:00.000Z</time>
      </trkpt>
      <trkpt lat="46.02458" lon="4.50873">
        <ele>378</ele>
        <time>2018-08-05T06:57:01.000Z</time>
      </trkpt>
      <trkpt lat="46.02458" lon="4.50878">
        <ele>378</ele>
        <time>2018-08-05T06:57:02.000Z</time>
      </trkpt>
      <trkpt lat="46.02458" lon="4.50884">
        <ele>378</ele>
        <time>2018-08-05T06:57:03.000Z</time>
      </trkpt>
      <trkpt lat="46.02459" lon="4.50889">
        <ele>379</ele>
        <time>2018-08-05T06:57:04.000Z</time>
      </trkpt>
      <trkpt lat="46.02459" lon="4.50894">
        <ele>379</ele>
        <time>2018-08-05T06:57:05.000Z</time>
      </trkpt>
      <trkpt lat="46.02459" lon="4.509">
        <ele>379</ele>
        <time>2018-08-05T06:57:06.000Z</time>
      </trkpt>
      <trkpt lat="46.02459" lon="4.50905">
        <ele>379</ele>
        <time>2018-08-05T06:57:07.000Z</time>
      </trkpt>
      <trkpt lat="46.0246" lon="4.50911">
        <ele>379</ele>
        <time>2018-08-05T06:57:08.000Z</time>
      </trkpt>
      <trkpt lat="46.0246" lon="4.50916">
        <ele>379</ele>
        <time>2018-08-05T06:57:09.000Z</time>
      </trkpt>
      <trkpt lat="46.02461" lon="4.50921">
        <ele>382</ele>
        <time>2018-08-05T06:57:10.000Z</time>
      </trkpt>
      <trkpt lat="46.02461" lon="4.50927">
        <ele>382</ele>
        <time>2018-08-05T06:57:11.000Z</time>
      </trkpt>
      <trkpt lat="46.02461" lon="4.50932">
        <ele>382</ele>
        <time>2018-08-05T06:57:12.000Z</time>
      </trkpt>
      <trkpt lat="46.02462" lon="4.50938">
        <ele>382</ele>
        <time>2018-08-05T06:57:13.000Z</time>
      </trkpt>
      <trkpt lat="46.02462" lon="4.50944">
        <ele>382</ele>
        <time>2018-08-05T06:57:14.000Z</time>
      </trkpt>
      <trkpt lat="46.02462" lon="4.50949">
        <ele>382</ele>
        <time>2018-08-05T06:57:15.000Z</time>
      </trkpt>
      <trkpt lat="46.02462" lon="4.50954">
        <ele>383</ele>
        <time>2018-08-05T06:57:16.000Z</time>
      </trkpt>
      <trkpt lat="46.02462" lon="4.5096">
        <ele>383</ele>
        <time>2018-08-05T06:57:17.000Z</time>
      </trkpt>
      <trkpt lat="46.02462" lon="4.50965">
        <ele>383</ele>
        <time>2018-08-05T06:57:18.000Z</time>
      </trkpt>
      <trkpt lat="46.02462" lon="4.50971">
        <ele>383</ele>
        <time>2018-08-05T06:57:19.000Z</time>
      </trkpt>
      <trkpt lat="46.02462" lon="4.50976">
        <ele>383</ele>
        <time>2018-08-05T06:57:20.000Z</time>
      </trkpt>
      <trkpt lat="46.02462" lon="4.50982">
        <ele>383</ele>
        <time>2018-08-05T06:57:21.000Z</time>
      </trkpt>
      <trkpt lat="46.02462" lon="4.50987">
        <ele>383</ele>
        <time>2018-08-05T06:57:22.000Z</time>
      </trkpt>
      <trkpt lat="46.02462" lon="4.50993">
        <ele>383</ele>
        <time>2018-08-05T06:57:23.000Z</time>
      </trkpt>
      <trkpt lat="46.02463" lon="4.50998">
        <ele>383</ele>
        <time>2018-08-05T06:57:24.000Z</time>
      </trkpt>
      <trkpt lat="46.02463" lon="4.51004">
        <ele>385</ele>
        <time>2018-08-05T06:57:25.000Z</time>
      </trkpt>
      <trkpt lat="46.02463" lon="4.51009">
        <ele>385</ele>
        <time>2018-08-05T06:57:26.000Z</time>
      </trkpt>
      <trkpt lat="46.02464" lon="4.51014">
        <ele>385</ele>
        <time>2018-08-05T06:57:27.000Z</time>
      </trkpt>
      <trkpt lat="46.02464" lon="4.5102">
        <ele>386</ele>
        <time>2018-08-05T06:57:28.000Z</time>
      </trkpt>
      <trkpt lat="46.02465" lon="4.51025">
        <ele>386</ele>
        <time>2018-08-05T06:57:29.000Z</time>
      </trkpt>
      <trkpt lat="46.02465" lon="4.5103">
        <ele>386</ele>
        <time>2018-08-05T06:57:30.000Z</time>
      </trkpt>
      <trkpt lat="46.02465" lon="4.51035">
        <ele>386</ele>
        <time>2018-08-05T06:57:31.000Z</time>
      </trkpt>
      <trkpt lat="46.02465" lon="4.51041">
        <ele>387</ele>
        <time>2018-08-05T06:57:32.000Z</time>
      </trkpt>
      <trkpt lat="46.02466" lon="4.51046">
        <ele>387</ele>
        <time>2018-08-05T06:57:33.000Z</time>
      </trkpt>
      <trkpt lat="46.02466" lon="4.51051">
        <ele>387</ele>
        <time>2018-08-05T06:57:34.000Z</time>
      </trkpt>
      <trkpt lat="46.02466" lon="4.51056">
        <ele>387</ele>
        <time>2018-08-05T06:57:35.000Z</time>
      </trkpt>
      <trkpt lat="46.02466" lon="4.51061">
        <ele>387</ele>
        <time>2018-08-05T06:57:36.000Z</time>
      </trkpt>
      <trkpt lat="46.02466" lon="4.51066">
        <ele>387</ele>
        <time>2018-08-05T06:57:37.000Z</time>
      </trkpt>
      <trkpt lat="46.02466" lon="4.51071">
        <ele>387</ele>
        <time>2018-08-05T06:57:38.000Z</time>
      </trkpt>
      <trkpt lat="46.02466" lon="4.51077">
        <ele>387</ele>
        <time>2018-08-05T06:57:39.000Z</time>
      </trkpt>
      <trkpt lat="46.02466" lon="4.51082">
        <ele>387</ele>
        <time>2018-08-05T06:57:40.000Z</time>
      </trkpt>
      <trkpt lat="46.02466" lon="4.51087">
        <ele>390</ele>
        <time>2018-08-05T06:57:41.000Z</time>
      </trkpt>
      <trkpt lat="46.02466" lon="4.51091">
        <ele>391</ele>
        <time>2018-08-05T06:57:42.000Z</time>
      </trkpt>
      <trkpt lat="46.02466" lon="4.51097">
        <ele>391</ele>
        <time>2018-08-05T06:57:43.000Z</time>
      </trkpt>
      <trkpt lat="46.02466" lon="4.51102">
        <ele>391</ele>
        <time>2018-08-05T06:57:44.000Z</time>
      </trkpt>
      <trkpt lat="46.02466" lon="4.51107">
        <ele>392</ele>
        <time>2018-08-05T06:57:45.000Z</time>
      </trkpt>
      <trkpt lat="46.02466" lon="4.51113">
        <ele>392</ele>
        <time>2018-08-05T06:57:46.000Z</time>
      </trkpt>
      <trkpt lat="46.02467" lon="4.51118">
        <ele>392</ele>
        <time>2018-08-05T06:57:47.000Z</time>
      </trkpt>
      <trkpt lat="46.02468" lon="4.51124">
        <ele>392</ele>
        <time>2018-08-05T06:57:48.000Z</time>
      </trkpt>
      <trkpt lat="46.02469" lon="4.5113">
        <ele>392</ele>
        <time>2018-08-05T06:57:49.000Z</time>
      </trkpt>
      <trkpt lat="46.0247" lon="4.51136">
        <ele>391</ele>
        <time>2018-08-05T06:57:50.000Z</time>
      </trkpt>
      <trkpt lat="46.0247" lon="4.51142">
        <ele>391</ele>
        <time>2018-08-05T06:57:51.000Z</time>
      </trkpt>
      <trkpt lat="46.02471" lon="4.51148">
        <ele>391</ele>
        <time>2018-08-05T06:57:52.000Z</time>
      </trkpt>
      <trkpt lat="46.02471" lon="4.51154">
        <ele>390</ele>
        <time>2018-08-05T06:57:53.000Z</time>
      </trkpt>
      <trkpt lat="46.02472" lon="4.5116">
        <ele>390</ele>
        <time>2018-08-05T06:57:54.000Z</time>
      </trkpt>
      <trkpt lat="46.02472" lon="4.51166">
        <ele>390</ele>
        <time>2018-08-05T06:57:55.000Z</time>
      </trkpt>
      <trkpt lat="46.02472" lon="4.51173">
        <ele>391</ele>
        <time>2018-08-05T06:57:56.000Z</time>
      </trkpt>
      <trkpt lat="46.02472" lon="4.51179">
        <ele>391</ele>
        <time>2018-08-05T06:57:57.000Z</time>
      </trkpt>
      <trkpt lat="46.02472" lon="4.51185">
        <ele>391</ele>
        <time>2018-08-05T06:57:58.000Z</time>
      </trkpt>
      <trkpt lat="46.02472" lon="4.51192">
        <ele>392</ele>
        <time>2018-08-05T06:57:59.000Z</time>
      </trkpt>
      <trkpt lat="46.02473" lon="4.51198">
        <ele>392</ele>
        <time>2018-08-05T06:58:00.000Z</time>
      </trkpt>
      <trkpt lat="46.02474" lon="4.51204">
        <ele>392</ele>
        <time>2018-08-05T06:58:01.000Z</time>
      </trkpt>
      <trkpt lat="46.02474" lon="4.5121">
        <ele>392</ele>
        <time>2018-08-05T06:58:02.000Z</time>
      </trkpt>
      <trkpt lat="46.02475" lon="4.51216">
        <ele>392</ele>
        <time>2018-08-05T06:58:03.000Z</time>
      </trkpt>
      <trkpt lat="46.02476" lon="4.51222">
        <ele>391</ele>
        <time>2018-08-05T06:58:04.000Z</time>
      </trkpt>
      <trkpt lat="46.02477" lon="4.51228">
        <ele>390</ele>
        <time>2018-08-05T06:58:05.000Z</time>
      </trkpt>
      <trkpt lat="46.02478" lon="4.51233">
        <ele>390</ele>
        <time>2018-08-05T06:58:06.000Z</time>
      </trkpt>
      <trkpt lat="46.0248" lon="4.51239">
        <ele>388</ele>
        <time>2018-08-05T06:58:07.000Z</time>
      </trkpt>
      <trkpt lat="46.02481" lon="4.51245">
        <ele>387</ele>
        <time>2018-08-05T06:58:08.000Z</time>
      </trkpt>
      <trkpt lat="46.02483" lon="4.51251">
        <ele>385</ele>
        <time>2018-08-05T06:58:09.000Z</time>
      </trkpt>
      <trkpt lat="46.02484" lon="4.51257">
        <ele>385</ele>
        <time>2018-08-05T06:58:10.000Z</time>
      </trkpt>
      <trkpt lat="46.02486" lon="4.51263">
        <ele>385</ele>
        <time>2018-08-05T06:58:11.000Z</time>
      </trkpt>
      <trkpt lat="46.02488" lon="4.51269">
        <ele>386</ele>
        <time>2018-08-05T06:58:12.000Z</time>
      </trkpt>
      <trkpt lat="46.0249" lon="4.51275">
        <ele>386</ele>
        <time>2018-08-05T06:58:13.000Z</time>
      </trkpt>
      <trkpt lat="46.02493" lon="4.51281">
        <ele>387</ele>
        <time>2018-08-05T06:58:14.000Z</time>
      </trkpt>
      <trkpt lat="46.02496" lon="4.51286">
        <ele>387</ele>
        <time>2018-08-05T06:58:15.000Z</time>
      </trkpt>
      <trkpt lat="46.02499" lon="4.5129">
        <ele>387</ele>
        <time>2018-08-05T06:58:16.000Z</time>
      </trkpt>
      <trkpt lat="46.02503" lon="4.51295">
        <ele>377</ele>
        <time>2018-08-05T06:58:17.000Z</time>
      </trkpt>
      <trkpt lat="46.02506" lon="4.51299">
        <ele>377</ele>
        <time>2018-08-05T06:58:18.000Z</time>
      </trkpt>
      <trkpt lat="46.0251" lon="4.51303">
        <ele>377</ele>
        <time>2018-08-05T06:58:19.000Z</time>
      </trkpt>
      <trkpt lat="46.02513" lon="4.51306">
        <ele>377</ele>
        <time>2018-08-05T06:58:20.000Z</time>
      </trkpt>
      <trkpt lat="46.02517" lon="4.51309">
        <ele>377</ele>
        <time>2018-08-05T06:58:21.000Z</time>
      </trkpt>
      <trkpt lat="46.02521" lon="4.51312">
        <ele>377</ele>
        <time>2018-08-05T06:58:22.000Z</time>
      </trkpt>
      <trkpt lat="46.02525" lon="4.51314">
        <ele>377</ele>
        <time>2018-08-05T06:58:23.000Z</time>
      </trkpt>
      <trkpt lat="46.02529" lon="4.51316">
        <ele>376</ele>
        <time>2018-08-05T06:58:24.000Z</time>
      </trkpt>
      <trkpt lat="46.02533" lon="4.51318">
        <ele>376</ele>
        <time>2018-08-05T06:58:25.000Z</time>
      </trkpt>
      <trkpt lat="46.02537" lon="4.51319">
        <ele>376</ele>
        <time>2018-08-05T06:58:26.000Z</time>
      </trkpt>
      <trkpt lat="46.02541" lon="4.51321">
        <ele>376</ele>
        <time>2018-08-05T06:58:27.000Z</time>
      </trkpt>
      <trkpt lat="46.02545" lon="4.51322">
        <ele>376</ele>
        <time>2018-08-05T06:58:28.000Z</time>
      </trkpt>
      <trkpt lat="46.02549" lon="4.51322">
        <ele>376</ele>
        <time>2018-08-05T06:58:29.000Z</time>
      </trkpt>
      <trkpt lat="46.02553" lon="4.51323">
        <ele>376</ele>
        <time>2018-08-05T06:58:30.000Z</time>
      </trkpt>
      <trkpt lat="46.02556" lon="4.51323">
        <ele>376</ele>
        <time>2018-08-05T06:58:31.000Z</time>
      </trkpt>
      <trkpt lat="46.0256" lon="4.51323">
        <ele>376</ele>
        <time>2018-08-05T06:58:32.000Z</time>
      </trkpt>
      <trkpt lat="46.02564" lon="4.51323">
        <ele>375</ele>
        <time>2018-08-05T06:58:33.000Z</time>
      </trkpt>
      <trkpt lat="46.02568" lon="4.51323">
        <ele>375</ele>
        <time>2018-08-05T06:58:34.000Z</time>
      </trkpt>
      <trkpt lat="46.02572" lon="4.51323">
        <ele>375</ele>
        <time>2018-08-05T06:58:35.000Z</time>
      </trkpt>
      <trkpt lat="46.02576" lon="4.51322">
        <ele>375</ele>
        <time>2018-08-05T06:58:36.000Z</time>
      </trkpt>
      <trkpt lat="46.0258" lon="4.51322">
        <ele>375</ele>
        <time>2018-08-05T06:58:37.000Z</time>
      </trkpt>
      <trkpt lat="46.02584" lon="4.51322">
        <ele>376</ele>
        <time>2018-08-05T06:58:38.000Z</time>
      </trkpt>
      <trkpt lat="46.02588" lon="4.51322">
        <ele>376</ele>
        <time>2018-08-05T06:58:39.000Z</time>
      </trkpt>
      <trkpt lat="46.02591" lon="4.51322">
        <ele>376</ele>
        <time>2018-08-05T06:58:40.000Z</time>
      </trkpt>
      <trkpt lat="46.02595" lon="4.51323">
        <ele>377</ele>
        <time>2018-08-05T06:58:41.000Z</time>
      </trkpt>
      <trkpt lat="46.02599" lon="4.51323">
        <ele>377</ele>
        <time>2018-08-05T06:58:42.000Z</time>
      </trkpt>
      <trkpt lat="46.02602" lon="4.51323">
        <ele>377</ele>
        <time>2018-08-05T06:58:43.000Z</time>
      </trkpt>
      <trkpt lat="46.02606" lon="4.51323">
        <ele>378</ele>
        <time>2018-08-05T06:58:44.000Z</time>
      </trkpt>
      <trkpt lat="46.02609" lon="4.51324">
        <ele>378</ele>
        <time>2018-08-05T06:58:45.000Z</time>
      </trkpt>
      <trkpt lat="46.02613" lon="4.51324">
        <ele>378</ele>
        <time>2018-08-05T06:58:46.000Z</time>
      </trkpt>
      <trkpt lat="46.02617" lon="4.51324">
        <ele>379</ele>
        <time>2018-08-05T06:58:47.000Z</time>
      </trkpt>
      <trkpt lat="46.02621" lon="4.51324">
        <ele>379</ele>
        <time>2018-08-05T06:58:48.000Z</time>
      </trkpt>
      <trkpt lat="46.02624" lon="4.51324">
        <ele>379</ele>
        <time>2018-08-05T06:58:49.000Z</time>
      </trkpt>
      <trkpt lat="46.02628" lon="4.51324">
        <ele>380</ele>
        <time>2018-08-05T06:58:50.000Z</time>
      </trkpt>
      <trkpt lat="46.02631" lon="4.51325">
        <ele>380</ele>
        <time>2018-08-05T06:58:51.000Z</time>
      </trkpt>
      <trkpt lat="46.02635" lon="4.51325">
        <ele>380</ele>
        <time>2018-08-05T06:58:52.000Z</time>
      </trkpt>
      <trkpt lat="46.02639" lon="4.51326">
        <ele>380</ele>
        <time>2018-08-05T06:58:53.000Z</time>
      </trkpt>
      <trkpt lat="46.02643" lon="4.51326">
        <ele>381</ele>
        <time>2018-08-05T06:58:54.000Z</time>
      </trkpt>
      <trkpt lat="46.02646" lon="4.51327">
        <ele>381</ele>
        <time>2018-08-05T06:58:55.000Z</time>
      </trkpt>
      <trkpt lat="46.0265" lon="4.51327">
        <ele>381</ele>
        <time>2018-08-05T06:58:56.000Z</time>
      </trkpt>
      <trkpt lat="46.02653" lon="4.51328">
        <ele>381</ele>
        <time>2018-08-05T06:58:57.000Z</time>
      </trkpt>
      <trkpt lat="46.02657" lon="4.51329">
        <ele>382</ele>
        <time>2018-08-05T06:58:58.000Z</time>
      </trkpt>
      <trkpt lat="46.0266" lon="4.5133">
        <ele>382</ele>
        <time>2018-08-05T06:58:59.000Z</time>
      </trkpt>
      <trkpt lat="46.02664" lon="4.51331">
        <ele>383</ele>
        <time>2018-08-05T06:59:00.000Z</time>
      </trkpt>
      <trkpt lat="46.02667" lon="4.51332">
        <ele>383</ele>
        <time>2018-08-05T06:59:01.000Z</time>
      </trkpt>
      <trkpt lat="46.0267" lon="4.51333">
        <ele>384</ele>
        <time>2018-08-05T06:59:02.000Z</time>
      </trkpt>
      <trkpt lat="46.02674" lon="4.51334">
        <ele>384</ele>
        <time>2018-08-05T06:59:03.000Z</time>
      </trkpt>
      <trkpt lat="46.02677" lon="4.51335">
        <ele>384</ele>
        <time>2018-08-05T06:59:04.000Z</time>
      </trkpt>
      <trkpt lat="46.02681" lon="4.51337">
        <ele>385</ele>
        <time>2018-08-05T06:59:05.000Z</time>
      </trkpt>
      <trkpt lat="46.02684" lon="4.51338">
        <ele>385</ele>
        <time>2018-08-05T06:59:06.000Z</time>
      </trkpt>
      <trkpt lat="46.02687" lon="4.51339">
        <ele>385</ele>
        <time>2018-08-05T06:59:07.000Z</time>
      </trkpt>
      <trkpt lat="46.02691" lon="4.5134">
        <ele>386</ele>
        <time>2018-08-05T06:59:08.000Z</time>
      </trkpt>
      <trkpt lat="46.02694" lon="4.51342">
        <ele>386</ele>
        <time>2018-08-05T06:59:09.000Z</time>
      </trkpt>
      <trkpt lat="46.02698" lon="4.51344">
        <ele>386</ele>
        <time>2018-08-05T06:59:10.000Z</time>
      </trkpt>
      <trkpt lat="46.02701" lon="4.51345">
        <ele>386</ele>
        <time>2018-08-05T06:59:11.000Z</time>
      </trkpt>
      <trkpt lat="46.02704" lon="4.51347">
        <ele>387</ele>
        <time>2018-08-05T06:59:12.000Z</time>
      </trkpt>
      <trkpt lat="46.02707" lon="4.51349">
        <ele>387</ele>
        <time>2018-08-05T06:59:13.000Z</time>
      </trkpt>
      <trkpt lat="46.02711" lon="4.51351">
        <ele>387</ele>
        <time>2018-08-05T06:59:14.000Z</time>
      </trkpt>
      <trkpt lat="46.02713" lon="4.51353">
        <ele>387</ele>
        <time>2018-08-05T06:59:15.000Z</time>
      </trkpt>
      <trkpt lat="46.02716" lon="4.51355">
        <ele>387</ele>
        <time>2018-08-05T06:59:16.000Z</time>
      </trkpt>
      <trkpt lat="46.02718" lon="4.51358">
        <ele>387</ele>
        <time>2018-08-05T06:59:17.000Z</time>
      </trkpt>
      <trkpt lat="46.02721" lon="4.5136">
        <ele>387</ele>
        <time>2018-08-05T06:59:18.000Z</time>
      </trkpt>
      <trkpt lat="46.02724" lon="4.51362">
        <ele>387</ele>
        <time>2018-08-05T06:59:19.000Z</time>
      </trkpt>
      <trkpt lat="46.02728" lon="4.51364">
        <ele>388</ele>
        <time>2018-08-05T06:59:20.000Z</time>
      </trkpt>
      <trkpt lat="46.02732" lon="4.51367">
        <ele>388</ele>
        <time>2018-08-05T06:59:21.000Z</time>
      </trkpt>
      <trkpt lat="46.02735" lon="4.5137">
        <ele>388</ele>
        <time>2018-08-05T06:59:22.000Z</time>
      </trkpt>
      <trkpt lat="46.02738" lon="4.51373">
        <ele>388</ele>
        <time>2018-08-05T06:59:23.000Z</time>
      </trkpt>
      <trkpt lat="46.02741" lon="4.51375">
        <ele>388</ele>
        <time>2018-08-05T06:59:24.000Z</time>
      </trkpt>
      <trkpt lat="46.02744" lon="4.51378">
        <ele>388</ele>
        <time>2018-08-05T06:59:25.000Z</time>
      </trkpt>
      <trkpt lat="46.02747" lon="4.5138">
        <ele>388</ele>
        <time>2018-08-05T06:59:26.000Z</time>
      </trkpt>
      <trkpt lat="46.02749" lon="4.51382">
        <ele>388</ele>
        <time>2018-08-05T06:59:27.000Z</time>
      </trkpt>
      <trkpt lat="46.02752" lon="4.51384">
        <ele>392</ele>
        <time>2018-08-05T06:59:28.000Z</time>
      </trkpt>
      <trkpt lat="46.02755" lon="4.51387">
        <ele>392</ele>
        <time>2018-08-05T06:59:29.000Z</time>
      </trkpt>
      <trkpt lat="46.02758" lon="4.51389">
        <ele>391</ele>
        <time>2018-08-05T06:59:30.000Z</time>
      </trkpt>
      <trkpt lat="46.02761" lon="4.51391">
        <ele>391</ele>
        <time>2018-08-05T06:59:31.000Z</time>
      </trkpt>
      <trkpt lat="46.02764" lon="4.51394">
        <ele>391</ele>
        <time>2018-08-05T06:59:32.000Z</time>
      </trkpt>
      <trkpt lat="46.02767" lon="4.51396">
        <ele>392</ele>
        <time>2018-08-05T06:59:33.000Z</time>
      </trkpt>
      <trkpt lat="46.0277" lon="4.51397">
        <ele>392</ele>
        <time>2018-08-05T06:59:34.000Z</time>
      </trkpt>
      <trkpt lat="46.02773" lon="4.51399">
        <ele>392</ele>
        <time>2018-08-05T06:59:35.000Z</time>
      </trkpt>
      <trkpt lat="46.02776" lon="4.514">
        <ele>392</ele>
        <time>2018-08-05T06:59:36.000Z</time>
      </trkpt>
      <trkpt lat="46.02779" lon="4.51402">
        <ele>392</ele>
        <time>2018-08-05T06:59:37.000Z</time>
      </trkpt>
      <trkpt lat="46.02782" lon="4.51403">
        <ele>392</ele>
        <time>2018-08-05T06:59:38.000Z</time>
      </trkpt>
      <trkpt lat="46.02785" lon="4.51404">
        <ele>392</ele>
        <time>2018-08-05T06:59:39.000Z</time>
      </trkpt>
      <trkpt lat="46.02788" lon="4.51405">
        <ele>392</ele>
        <time>2018-08-05T06:59:40.000Z</time>
      </trkpt>
      <trkpt lat="46.02791" lon="4.51406">
        <ele>393</ele>
        <time>2018-08-05T06:59:41.000Z</time>
      </trkpt>
      <trkpt lat="46.02794" lon="4.51407">
        <ele>393</ele>
        <time>2018-08-05T06:59:42.000Z</time>
      </trkpt>
      <trkpt lat="46.02798" lon="4.51407">
        <ele>393</ele>
        <time>2018-08-05T06:59:43.000Z</time>
      </trkpt>
      <trkpt lat="46.02801" lon="4.51408">
        <ele>393</ele>
        <time>2018-08-05T06:59:44.000Z</time>
      </trkpt>
      <trkpt lat="46.02804" lon="4.51408">
        <ele>393</ele>
        <time>2018-08-05T06:59:45.000Z</time>
      </trkpt>
      <trkpt lat="46.02808" lon="4.51409">
        <ele>394</ele>
        <time>2018-08-05T06:59:46.000Z</time>
      </trkpt>
      <trkpt lat="46.02811" lon="4.51409">
        <ele>394</ele>
        <time>2018-08-05T06:59:47.000Z</time>
      </trkpt>
      <trkpt lat="46.02815" lon="4.5141">
        <ele>394</ele>
        <time>2018-08-05T06:59:48.000Z</time>
      </trkpt>
      <trkpt lat="46.02819" lon="4.51411">
        <ele>394</ele>
        <time>2018-08-05T06:59:49.000Z</time>
      </trkpt>
      <trkpt lat="46.02822" lon="4.51412">
        <ele>394</ele>
        <time>2018-08-05T06:59:50.000Z</time>
      </trkpt>
      <trkpt lat="46.02826" lon="4.51414">
        <ele>394</ele>
        <time>2018-08-05T06:59:51.000Z</time>
      </trkpt>
      <trkpt lat="46.0283" lon="4.51415">
        <ele>395</ele>
        <time>2018-08-05T06:59:52.000Z</time>
      </trkpt>
      <trkpt lat="46.02834" lon="4.51417">
        <ele>395</ele>
        <time>2018-08-05T06:59:53.000Z</time>
      </trkpt>
      <trkpt lat="46.02838" lon="4.51419">
        <ele>395</ele>
        <time>2018-08-05T06:59:54.000Z</time>
      </trkpt>
      <trkpt lat="46.02841" lon="4.51422">
        <ele>395</ele>
        <time>2018-08-05T06:59:55.000Z</time>
      </trkpt>
      <trkpt lat="46.02845" lon="4.51425">
        <ele>396</ele>
        <time>2018-08-05T06:59:56.000Z</time>
      </trkpt>
      <trkpt lat="46.02848" lon="4.51428">
        <ele>396</ele>
        <time>2018-08-05T06:59:57.000Z</time>
      </trkpt>
      <trkpt lat="46.02851" lon="4.51431">
        <ele>396</ele>
        <time>2018-08-05T06:59:58.000Z</time>
      </trkpt>
      <trkpt lat="46.02854" lon="4.51435">
        <ele>396</ele>
        <time>2018-08-05T06:59:59.000Z</time>
      </trkpt>
      <trkpt lat="46.02857" lon="4.51438">
        <ele>396</ele>
        <time>2018-08-05T07:00:00.000Z</time>
      </trkpt>
      <trkpt lat="46.02859" lon="4.51442">
        <ele>396</ele>
        <time>2018-08-05T07:00:01.000Z</time>
      </trkpt>
      <trkpt lat="46.02862" lon="4.51445">
        <ele>396</ele>
        <time>2018-08-05T07:00:02.000Z</time>
      </trkpt>
      <trkpt lat="46.02865" lon="4.51449">
        <ele>396</ele>
        <time>2018-08-05T07:00:03.000Z</time>
      </trkpt>
      <trkpt lat="46.02867" lon="4.51452">
        <ele>396</ele>
        <time>2018-08-05T07:00:04.000Z</time>
      </trkpt>
      <trkpt lat="46.0287" lon="4.51456">
        <ele>396</ele>
        <time>2018-08-05T07:00:05.000Z</time>
      </trkpt>
      <trkpt lat="46.02872" lon="4.51459">
        <ele>396</ele>
        <time>2018-08-05T07:00:06.000Z</time>
      </trkpt>
      <trkpt lat="46.02875" lon="4.51462">
        <ele>396</ele>
        <time>2018-08-05T07:00:07.000Z</time>
      </trkpt>
      <trkpt lat="46.02877" lon="4.51466">
        <ele>396</ele>
        <time>2018-08-05T07:00:08.000Z</time>
      </trkpt>
      <trkpt lat="46.0288" lon="4.51469">
        <ele>396</ele>
        <time>2018-08-05T07:00:09.000Z</time>
      </trkpt>
      <trkpt lat="46.02882" lon="4.51472">
        <ele>396</ele>
        <time>2018-08-05T07:00:10.000Z</time>
      </trkpt>
      <trkpt lat="46.02885" lon="4.51476">
        <ele>396</ele>
        <time>2018-08-05T07:00:11.000Z</time>
      </trkpt>
      <trkpt lat="46.02888" lon="4.51478">
        <ele>396</ele>
        <time>2018-08-05T07:00:12.000Z</time>
      </trkpt>
      <trkpt lat="46.02891" lon="4.51481">
        <ele>396</ele>
        <time>2018-08-05T07:00:13.000Z</time>
      </trkpt>
      <trkpt lat="46.02894" lon="4.51484">
        <ele>396</ele>
        <time>2018-08-05T07:00:14.000Z</time>
      </trkpt>
      <trkpt lat="46.02897" lon="4.51486">
        <ele>396</ele>
        <time>2018-08-05T07:00:15.000Z</time>
      </trkpt>
      <trkpt lat="46.02899" lon="4.51488">
        <ele>396</ele>
        <time>2018-08-05T07:00:16.000Z</time>
      </trkpt>
      <trkpt lat="46.02902" lon="4.5149">
        <ele>396</ele>
        <time>2018-08-05T07:00:17.000Z</time>
      </trkpt>
      <trkpt lat="46.02905" lon="4.51493">
        <ele>396</ele>
        <time>2018-08-05T07:00:18.000Z</time>
      </trkpt>
      <trkpt lat="46.02908" lon="4.51495">
        <ele>396</ele>
        <time>2018-08-05T07:00:19.000Z</time>
      </trkpt>
      <trkpt lat="46.02911" lon="4.51497">
        <ele>396</ele>
        <time>2018-08-05T07:00:20.000Z</time>
      </trkpt>
      <trkpt lat="46.02914" lon="4.51499">
        <ele>396</ele>
        <time>2018-08-05T07:00:21.000Z</time>
      </trkpt>
      <trkpt lat="46.02917" lon="4.51501">
        <ele>396</ele>
        <time>2018-08-05T07:00:22.000Z</time>
      </trkpt>
      <trkpt lat="46.0292" lon="4.51503">
        <ele>397</ele>
        <time>2018-08-05T07:00:23.000Z</time>
      </trkpt>
      <trkpt lat="46.02923" lon="4.51505">
        <ele>398</ele>
        <time>2018-08-05T07:00:24.000Z</time>
      </trkpt>
      <trkpt lat="46.02926" lon="4.51507">
        <ele>398</ele>
        <time>2018-08-05T07:00:25.000Z</time>
      </trkpt>
      <trkpt lat="46.02929" lon="4.5151">
        <ele>399</ele>
        <time>2018-08-05T07:00:26.000Z</time>
      </trkpt>
      <trkpt lat="46.02932" lon="4.51512">
        <ele>399</ele>
        <time>2018-08-05T07:00:27.000Z</time>
      </trkpt>
      <trkpt lat="46.02935" lon="4.51514">
        <ele>399</ele>
        <time>2018-08-05T07:00:28.000Z</time>
      </trkpt>
      <trkpt lat="46.02938" lon="4.51516">
        <ele>400</ele>
        <time>2018-08-05T07:00:29.000Z</time>
      </trkpt>
      <trkpt lat="46.02941" lon="4.51518">
        <ele>400</ele>
        <time>2018-08-05T07:00:30.000Z</time>
      </trkpt>
      <trkpt lat="46.02945" lon="4.5152">
        <ele>400</ele>
        <time>2018-08-05T07:00:31.000Z</time>
      </trkpt>
      <trkpt lat="46.02948" lon="4.51522">
        <ele>400</ele>
        <time>2018-08-05T07:00:32.000Z</time>
      </trkpt>
      <trkpt lat="46.02951" lon="4.51524">
        <ele>401</ele>
        <time>2018-08-05T07:00:33.000Z</time>
      </trkpt>
      <trkpt lat="46.02954" lon="4.51526">
        <ele>401</ele>
        <time>2018-08-05T07:00:34.000Z</time>
      </trkpt>
      <trkpt lat="46.02957" lon="4.51528">
        <ele>401</ele>
        <time>2018-08-05T07:00:35.000Z</time>
      </trkpt>
      <trkpt lat="46.0296" lon="4.5153">
        <ele>401</ele>
        <time>2018-08-05T07:00:36.000Z</time>
      </trkpt>
      <trkpt lat="46.02963" lon="4.51532">
        <ele>401</ele>
        <time>2018-08-05T07:00:37.000Z</time>
      </trkpt>
      <trkpt lat="46.02966" lon="4.51534">
        <ele>401</ele>
        <time>2018-08-05T07:00:38.000Z</time>
      </trkpt>
      <trkpt lat="46.02969" lon="4.51536">
        <ele>401</ele>
        <time>2018-08-05T07:00:39.000Z</time>
      </trkpt>
      <trkpt lat="46.02972" lon="4.51539">
        <ele>401</ele>
        <time>2018-08-05T07:00:40.000Z</time>
      </trkpt>
      <trkpt lat="46.02975" lon="4.51541">
        <ele>401</ele>
        <time>2018-08-05T07:00:41.000Z</time>
      </trkpt>
      <trkpt lat="46.02978" lon="4.51543">
        <ele>402</ele>
        <time>2018-08-05T07:00:42.000Z</time>
      </trkpt>
      <trkpt lat="46.02981" lon="4.51546">
        <ele>402</ele>
        <time>2018-08-05T07:00:43.000Z</time>
      </trkpt>
      <trkpt lat="46.02984" lon="4.51548">
        <ele>402</ele>
        <time>2018-08-05T07:00:44.000Z</time>
      </trkpt>
      <trkpt lat="46.02987" lon="4.5155">
        <ele>402</ele>
        <time>2018-08-05T07:00:45.000Z</time>
      </trkpt>
      <trkpt lat="46.0299" lon="4.51552">
        <ele>402</ele>
        <time>2018-08-05T07:00:46.000Z</time>
      </trkpt>
      <trkpt lat="46.02993" lon="4.51554">
        <ele>402</ele>
        <time>2018-08-05T07:00:47.000Z</time>
      </trkpt>
      <trkpt lat="46.02996" lon="4.51556">
        <ele>402</ele>
        <time>2018-08-05T07:00:48.000Z</time>
      </trkpt>
      <trkpt lat="46.02999" lon="4.51558">
        <ele>402</ele>
        <time>2018-08-05T07:00:49.000Z</time>
      </trkpt>
      <trkpt lat="46.03002" lon="4.5156">
        <ele>404</ele>
        <time>2018-08-05T07:00:50.000Z</time>
      </trkpt>
      <trkpt lat="46.03005" lon="4.51562">
        <ele>404</ele>
        <time>2018-08-05T07:00:51.000Z</time>
      </trkpt>
      <trkpt lat="46.03008" lon="4.51564">
        <ele>404</ele>
        <time>2018-08-05T07:00:52.000Z</time>
      </trkpt>
      <trkpt lat="46.03011" lon="4.51566">
        <ele>404</ele>
        <time>2018-08-05T07:00:53.000Z</time>
      </trkpt>
      <trkpt lat="46.03014" lon="4.51567">
        <ele>404</ele>
        <time>2018-08-05T07:00:54.000Z</time>
      </trkpt>
      <trkpt lat="46.03017" lon="4.51569">
        <ele>405</ele>
        <time>2018-08-05T07:00:55.000Z</time>
      </trkpt>
      <trkpt lat="46.0302" lon="4.51571">
        <ele>405</ele>
        <time>2018-08-05T07:00:56.000Z</time>
      </trkpt>
      <trkpt lat="46.03023" lon="4.51573">
        <ele>405</ele>
        <time>2018-08-05T07:00:57.000Z</time>
      </trkpt>
      <trkpt lat="46.03026" lon="4.51575">
        <ele>405</ele>
        <time>2018-08-05T07:00:58.000Z</time>
      </trkpt>
      <trkpt lat="46.03029" lon="4.51576">
        <ele>405</ele>
        <time>2018-08-05T07:00:59.000Z</time>
      </trkpt>
      <trkpt lat="46.03031" lon="4.51578">
        <ele>405</ele>
        <time>2018-08-05T07:01:00.000Z</time>
      </trkpt>
      <trkpt lat="46.03034" lon="4.51579">
        <ele>405</ele>
        <time>2018-08-05T07:01:01.000Z</time>
      </trkpt>
      <trkpt lat="46.03037" lon="4.5158">
        <ele>406</ele>
        <time>2018-08-05T07:01:02.000Z</time>
      </trkpt>
      <trkpt lat="46.0304" lon="4.51581">
        <ele>406</ele>
        <time>2018-08-05T07:01:03.000Z</time>
      </trkpt>
      <trkpt lat="46.03043" lon="4.51582">
        <ele>406</ele>
        <time>2018-08-05T07:01:04.000Z</time>
      </trkpt>
      <trkpt lat="46.03046" lon="4.51583">
        <ele>406</ele>
        <time>2018-08-05T07:01:05.000Z</time>
      </trkpt>
      <trkpt lat="46.03049" lon="4.51583">
        <ele>406</ele>
        <time>2018-08-05T07:01:06.000Z</time>
      </trkpt>
      <trkpt lat="46.03052" lon="4.51584">
        <ele>406</ele>
        <time>2018-08-05T07:01:07.000Z</time>
      </trkpt>
      <trkpt lat="46.03055" lon="4.51584">
        <ele>406</ele>
        <time>2018-08-05T07:01:08.000Z</time>
      </trkpt>
      <trkpt lat="46.03058" lon="4.51584">
        <ele>406</ele>
        <time>2018-08-05T07:01:09.000Z</time>
      </trkpt>
      <trkpt lat="46.03062" lon="4.51584">
        <ele>406</ele>
        <time>2018-08-05T07:01:10.000Z</time>
      </trkpt>
      <trkpt lat="46.03065" lon="4.51584">
        <ele>406</ele>
        <time>2018-08-05T07:01:11.000Z</time>
      </trkpt>
      <trkpt lat="46.03068" lon="4.51584">
        <ele>407</ele>
        <time>2018-08-05T07:01:12.000Z</time>
      </trkpt>
      <trkpt lat="46.03071" lon="4.51584">
        <ele>407</ele>
        <time>2018-08-05T07:01:13.000Z</time>
      </trkpt>
      <trkpt lat="46.03075" lon="4.51584">
        <ele>407</ele>
        <time>2018-08-05T07:01:14.000Z</time>
      </trkpt>
      <trkpt lat="46.03078" lon="4.51584">
        <ele>407</ele>
        <time>2018-08-05T07:01:15.000Z</time>
      </trkpt>
      <trkpt lat="46.03081" lon="4.51584">
        <ele>407</ele>
        <time>2018-08-05T07:01:16.000Z</time>
      </trkpt>
      <trkpt lat="46.03084" lon="4.51584">
        <ele>407</ele>
        <time>2018-08-05T07:01:17.000Z</time>
      </trkpt>
      <trkpt lat="46.03087" lon="4.51583">
        <ele>408</ele>
        <time>2018-08-05T07:01:18.000Z</time>
      </trkpt>
      <trkpt lat="46.03091" lon="4.51583">
        <ele>408</ele>
        <time>2018-08-05T07:01:19.000Z</time>
      </trkpt>
      <trkpt lat="46.03094" lon="4.51582">
        <ele>408</ele>
        <time>2018-08-05T07:01:20.000Z</time>
      </trkpt>
      <trkpt lat="46.03097" lon="4.51582">
        <ele>409</ele>
        <time>2018-08-05T07:01:21.000Z</time>
      </trkpt>
      <trkpt lat="46.031" lon="4.51581">
        <ele>409</ele>
        <time>2018-08-05T07:01:22.000Z</time>
      </trkpt>
      <trkpt lat="46.03103" lon="4.5158">
        <ele>409</ele>
        <time>2018-08-05T07:01:23.000Z</time>
      </trkpt>
      <trkpt lat="46.03106" lon="4.5158">
        <ele>409</ele>
        <time>2018-08-05T07:01:24.000Z</time>
      </trkpt>
      <trkpt lat="46.03109" lon="4.51579">
        <ele>410</ele>
        <time>2018-08-05T07:01:25.000Z</time>
      </trkpt>
      <trkpt lat="46.03112" lon="4.51578">
        <ele>410</ele>
        <time>2018-08-05T07:01:26.000Z</time>
      </trkpt>
      <trkpt lat="46.03115" lon="4.51577">
        <ele>410</ele>
        <time>2018-08-05T07:01:27.000Z</time>
      </trkpt>
      <trkpt lat="46.03118" lon="4.51576">
        <ele>410</ele>
        <time>2018-08-05T07:01:28.000Z</time>
      </trkpt>
      <trkpt lat="46.03121" lon="4.51575">
        <ele>410</ele>
        <time>2018-08-05T07:01:29.000Z</time>
      </trkpt>
      <trkpt lat="46.03124" lon="4.51574">
        <ele>410</ele>
        <time>2018-08-05T07:01:30.000Z</time>
      </trkpt>
      <trkpt lat="46.03127" lon="4.51573">
        <ele>410</ele>
        <time>2018-08-05T07:01:31.000Z</time>
      </trkpt>
      <trkpt lat="46.0313" lon="4.51572">
        <ele>410</ele>
        <time>2018-08-05T07:01:32.000Z</time>
      </trkpt>
      <trkpt lat="46.03133" lon="4.51571">
        <ele>410</ele>
        <time>2018-08-05T07:01:33.000Z</time>
      </trkpt>
      <trkpt lat="46.03136" lon="4.5157">
        <ele>410</ele>
        <time>2018-08-05T07:01:34.000Z</time>
      </trkpt>
      <trkpt lat="46.03139" lon="4.51569">
        <ele>410</ele>
        <time>2018-08-05T07:01:35.000Z</time>
      </trkpt>
      <trkpt lat="46.03143" lon="4.51568">
        <ele>410</ele>
        <time>2018-08-05T07:01:36.000Z</time>
      </trkpt>
      <trkpt lat="46.03146" lon="4.51567">
        <ele>410</ele>
        <time>2018-08-05T07:01:37.000Z</time>
      </trkpt>
      <trkpt lat="46.03149" lon="4.51565">
        <ele>410</ele>
        <time>2018-08-05T07:01:38.000Z</time>
      </trkpt>
      <trkpt lat="46.03152" lon="4.51564">
        <ele>410</ele>
        <time>2018-08-05T07:01:39.000Z</time>
      </trkpt>
      <trkpt lat="46.03155" lon="4.51563">
        <ele>410</ele>
        <time>2018-08-05T07:01:40.000Z</time>
      </trkpt>
      <trkpt lat="46.03158" lon="4.51561">
        <ele>410</ele>
        <time>2018-08-05T07:01:41.000Z</time>
      </trkpt>
      <trkpt lat="46.03161" lon="4.5156">
        <ele>410</ele>
        <time>2018-08-05T07:01:42.000Z</time>
      </trkpt>
      <trkpt lat="46.03164" lon="4.51558">
        <ele>411</ele>
        <time>2018-08-05T07:01:43.000Z</time>
      </trkpt>
      <trkpt lat="46.03167" lon="4.51557">
        <ele>411</ele>
        <time>2018-08-05T07:01:44.000Z</time>
      </trkpt>
      <trkpt lat="46.0317" lon="4.51555">
        <ele>411</ele>
        <time>2018-08-05T07:01:45.000Z</time>
      </trkpt>
      <trkpt lat="46.03173" lon="4.51554">
        <ele>412</ele>
        <time>2018-08-05T07:01:46.000Z</time>
      </trkpt>
      <trkpt lat="46.03176" lon="4.51552">
        <ele>412</ele>
        <time>2018-08-05T07:01:47.000Z</time>
      </trkpt>
      <trkpt lat="46.03178" lon="4.5155">
        <ele>412</ele>
        <time>2018-08-05T07:01:48.000Z</time>
      </trkpt>
      <trkpt lat="46.03181" lon="4.51549">
        <ele>412</ele>
        <time>2018-08-05T07:01:49.000Z</time>
      </trkpt>
      <trkpt lat="46.03184" lon="4.51547">
        <ele>412</ele>
        <time>2018-08-05T07:01:50.000Z</time>
      </trkpt>
      <trkpt lat="46.03187" lon="4.51546">
        <ele>412</ele>
        <time>2018-08-05T07:01:51.000Z</time>
      </trkpt>
      <trkpt lat="46.0319" lon="4.51544">
        <ele>412</ele>
        <time>2018-08-05T07:01:52.000Z</time>
      </trkpt>
      <trkpt lat="46.03193" lon="4.51543">
        <ele>412</ele>
        <time>2018-08-05T07:01:53.000Z</time>
      </trkpt>
      <trkpt lat="46.03196" lon="4.51542">
        <ele>413</ele>
        <time>2018-08-05T07:01:54.000Z</time>
      </trkpt>
      <trkpt lat="46.03198" lon="4.5154">
        <ele>413</ele>
        <time>2018-08-05T07:01:55.000Z</time>
      </trkpt>
      <trkpt lat="46.03201" lon="4.51539">
        <ele>413</ele>
        <time>2018-08-05T07:01:56.000Z</time>
      </trkpt>
      <trkpt lat="46.03204" lon="4.51537">
        <ele>413</ele>
        <time>2018-08-05T07:01:57.000Z</time>
      </trkpt>
      <trkpt lat="46.03207" lon="4.51535">
        <ele>413</ele>
        <time>2018-08-05T07:01:58.000Z</time>
      </trkpt>
      <trkpt lat="46.03211" lon="4.51534">
        <ele>413</ele>
        <time>2018-08-05T07:01:59.000Z</time>
      </trkpt>
      <trkpt lat="46.03214" lon="4.51533">
        <ele>413</ele>
        <time>2018-08-05T07:02:00.000Z</time>
      </trkpt>
      <trkpt lat="46.03217" lon="4.51532">
        <ele>413</ele>
        <time>2018-08-05T07:02:01.000Z</time>
      </trkpt>
      <trkpt lat="46.03221" lon="4.51531">
        <ele>413</ele>
        <time>2018-08-05T07:02:02.000Z</time>
      </trkpt>
      <trkpt lat="46.03224" lon="4.5153">
        <ele>413</ele>
        <time>2018-08-05T07:02:03.000Z</time>
      </trkpt>
      <trkpt lat="46.03227" lon="4.51528">
        <ele>413</ele>
        <time>2018-08-05T07:02:04.000Z</time>
      </trkpt>
      <trkpt lat="46.0323" lon="4.51527">
        <ele>413</ele>
        <time>2018-08-05T07:02:05.000Z</time>
      </trkpt>
      <trkpt lat="46.03233" lon="4.51526">
        <ele>413</ele>
        <time>2018-08-05T07:02:06.000Z</time>
      </trkpt>
      <trkpt lat="46.03236" lon="4.51524">
        <ele>414</ele>
        <time>2018-08-05T07:02:07.000Z</time>
      </trkpt>
      <trkpt lat="46.0324" lon="4.51524">
        <ele>414</ele>
        <time>2018-08-05T07:02:08.000Z</time>
      </trkpt>
      <trkpt lat="46.03243" lon="4.51523">
        <ele>414</ele>
        <time>2018-08-05T07:02:09.000Z</time>
      </trkpt>
      <trkpt lat="46.03247" lon="4.51522">
        <ele>414</ele>
        <time>2018-08-05T07:02:10.000Z</time>
      </trkpt>
      <trkpt lat="46.0325" lon="4.51521">
        <ele>416</ele>
        <time>2018-08-05T07:02:11.000Z</time>
      </trkpt>
      <trkpt lat="46.03253" lon="4.5152">
        <ele>416</ele>
        <time>2018-08-05T07:02:12.000Z</time>
      </trkpt>
      <trkpt lat="46.03257" lon="4.51519">
        <ele>416</ele>
        <time>2018-08-05T07:02:13.000Z</time>
      </trkpt>
      <trkpt lat="46.0326" lon="4.51518">
        <ele>416</ele>
        <time>2018-08-05T07:02:14.000Z</time>
      </trkpt>
      <trkpt lat="46.03263" lon="4.51517">
        <ele>416</ele>
        <time>2018-08-05T07:02:15.000Z</time>
      </trkpt>
      <trkpt lat="46.03266" lon="4.51516">
        <ele>416</ele>
        <time>2018-08-05T07:02:16.000Z</time>
      </trkpt>
      <trkpt lat="46.03269" lon="4.51516">
        <ele>416</ele>
        <time>2018-08-05T07:02:17.000Z</time>
      </trkpt>
      <trkpt lat="46.03272" lon="4.51515">
        <ele>416</ele>
        <time>2018-08-05T07:02:18.000Z</time>
      </trkpt>
      <trkpt lat="46.03276" lon="4.51514">
        <ele>417</ele>
        <time>2018-08-05T07:02:19.000Z</time>
      </trkpt>
      <trkpt lat="46.03279" lon="4.51514">
        <ele>417</ele>
        <time>2018-08-05T07:02:20.000Z</time>
      </trkpt>
      <trkpt lat="46.03282" lon="4.51513">
        <ele>417</ele>
        <time>2018-08-05T07:02:21.000Z</time>
      </trkpt>
      <trkpt lat="46.03286" lon="4.51513">
        <ele>417</ele>
        <time>2018-08-05T07:02:22.000Z</time>
      </trkpt>
      <trkpt lat="46.03289" lon="4.51513">
        <ele>417</ele>
        <time>2018-08-05T07:02:23.000Z</time>
      </trkpt>
      <trkpt lat="46.03292" lon="4.51514">
        <ele>417</ele>
        <time>2018-08-05T07:02:24.000Z</time>
      </trkpt>
      <trkpt lat="46.03296" lon="4.51514">
        <ele>418</ele>
        <time>2018-08-05T07:02:25.000Z</time>
      </trkpt>
      <trkpt lat="46.033" lon="4.51515">
        <ele>418</ele>
        <time>2018-08-05T07:02:26.000Z</time>
      </trkpt>
      <trkpt lat="46.03303" lon="4.51515">
        <ele>418</ele>
        <time>2018-08-05T07:02:27.000Z</time>
      </trkpt>
      <trkpt lat="46.03306" lon="4.51515">
        <ele>418</ele>
        <time>2018-08-05T07:02:28.000Z</time>
      </trkpt>
      <trkpt lat="46.03309" lon="4.51515">
        <ele>419</ele>
        <time>2018-08-05T07:02:29.000Z</time>
      </trkpt>
      <trkpt lat="46.03312" lon="4.51515">
        <ele>419</ele>
        <time>2018-08-05T07:02:30.000Z</time>
      </trkpt>
      <trkpt lat="46.03315" lon="4.51516">
        <ele>419</ele>
        <time>2018-08-05T07:02:31.000Z</time>
      </trkpt>
      <trkpt lat="46.03318" lon="4.51517">
        <ele>419</ele>
        <time>2018-08-05T07:02:32.000Z</time>
      </trkpt>
      <trkpt lat="46.03321" lon="4.51518">
        <ele>419</ele>
        <time>2018-08-05T07:02:33.000Z</time>
      </trkpt>
      <trkpt lat="46.03324" lon="4.51519">
        <ele>419</ele>
        <time>2018-08-05T07:02:34.000Z</time>
      </trkpt>
      <trkpt lat="46.03327" lon="4.5152">
        <ele>419</ele>
        <time>2018-08-05T07:02:35.000Z</time>
      </trkpt>
      <trkpt lat="46.0333" lon="4.5152">
        <ele>420</ele>
        <time>2018-08-05T07:02:36.000Z</time>
      </trkpt>
      <trkpt lat="46.03333" lon="4.51521">
        <ele>420</ele>
        <time>2018-08-05T07:02:37.000Z</time>
      </trkpt>
      <trkpt lat="46.03336" lon="4.51521">
        <ele>423</ele>
        <time>2018-08-05T07:02:38.000Z</time>
      </trkpt>
      <trkpt lat="46.03339" lon="4.51522">
        <ele>423</ele>
        <time>2018-08-05T07:02:39.000Z</time>
      </trkpt>
      <trkpt lat="46.03342" lon="4.51523">
        <ele>423</ele>
        <time>2018-08-05T07:02:40.000Z</time>
      </trkpt>
      <trkpt lat="46.03345" lon="4.51525">
        <ele>423</ele>
        <time>2018-08-05T07:02:41.000Z</time>
      </trkpt>
      <trkpt lat="46.03348" lon="4.51526">
        <ele>423</ele>
        <time>2018-08-05T07:02:42.000Z</time>
      </trkpt>
      <trkpt lat="46.03351" lon="4.51526">
        <ele>423</ele>
        <time>2018-08-05T07:02:43.000Z</time>
      </trkpt>
      <trkpt lat="46.03353" lon="4.51527">
        <ele>423</ele>
        <time>2018-08-05T07:02:44.000Z</time>
      </trkpt>
      <trkpt lat="46.03356" lon="4.51528">
        <ele>423</ele>
        <time>2018-08-05T07:02:45.000Z</time>
      </trkpt>
      <trkpt lat="46.03359" lon="4.51529">
        <ele>423</ele>
        <time>2018-08-05T07:02:46.000Z</time>
      </trkpt>
      <trkpt lat="46.03362" lon="4.5153">
        <ele>423</ele>
        <time>2018-08-05T07:02:47.000Z</time>
      </trkpt>
      <trkpt lat="46.03365" lon="4.51531">
        <ele>423</ele>
        <time>2018-08-05T07:02:48.000Z</time>
      </trkpt>
      <trkpt lat="46.03368" lon="4.51532">
        <ele>423</ele>
        <time>2018-08-05T07:02:49.000Z</time>
      </trkpt>
      <trkpt lat="46.03371" lon="4.51533">
        <ele>423</ele>
        <time>2018-08-05T07:02:50.000Z</time>
      </trkpt>
      <trkpt lat="46.03374" lon="4.51534">
        <ele>423</ele>
        <time>2018-08-05T07:02:51.000Z</time>
      </trkpt>
      <trkpt lat="46.03377" lon="4.51535">
        <ele>423</ele>
        <time>2018-08-05T07:02:52.000Z</time>
      </trkpt>
      <trkpt lat="46.0338" lon="4.51536">
        <ele>423</ele>
        <time>2018-08-05T07:02:53.000Z</time>
      </trkpt>
      <trkpt lat="46.03383" lon="4.51538">
        <ele>423</ele>
        <time>2018-08-05T07:02:54.000Z</time>
      </trkpt>
      <trkpt lat="46.03386" lon="4.5154">
        <ele>423</ele>
        <time>2018-08-05T07:02:55.000Z</time>
      </trkpt>
      <trkpt lat="46.03388" lon="4.51541">
        <ele>423</ele>
        <time>2018-08-05T07:02:56.000Z</time>
      </trkpt>
      <trkpt lat="46.03391" lon="4.51543">
        <ele>423</ele>
        <time>2018-08-05T07:02:57.000Z</time>
      </trkpt>
      <trkpt lat="46.03394" lon="4.51545">
        <ele>424</ele>
        <time>2018-08-05T07:02:58.000Z</time>
      </trkpt>
      <trkpt lat="46.03397" lon="4.51548">
        <ele>424</ele>
        <time>2018-08-05T07:02:59.000Z</time>
      </trkpt>
      <trkpt lat="46.03399" lon="4.5155">
        <ele>424</ele>
        <time>2018-08-05T07:03:00.000Z</time>
      </trkpt>
      <trkpt lat="46.03401" lon="4.51553">
        <ele>424</ele>
        <time>2018-08-05T07:03:01.000Z</time>
      </trkpt>
      <trkpt lat="46.03404" lon="4.51556">
        <ele>424</ele>
        <time>2018-08-05T07:03:02.000Z</time>
      </trkpt>
      <trkpt lat="46.03406" lon="4.51559">
        <ele>424</ele>
        <time>2018-08-05T07:03:03.000Z</time>
      </trkpt>
      <trkpt lat="46.03408" lon="4.51562">
        <ele>425</ele>
        <time>2018-08-05T07:03:04.000Z</time>
      </trkpt>
      <trkpt lat="46.0341" lon="4.51565">
        <ele>425</ele>
        <time>2018-08-05T07:03:05.000Z</time>
      </trkpt>
      <trkpt lat="46.03412" lon="4.51568">
        <ele>425</ele>
        <time>2018-08-05T07:03:06.000Z</time>
      </trkpt>
      <trkpt lat="46.03414" lon="4.51572">
        <ele>425</ele>
        <time>2018-08-05T07:03:07.000Z</time>
      </trkpt>
      <trkpt lat="46.03417" lon="4.51575">
        <ele>426</ele>
        <time>2018-08-05T07:03:08.000Z</time>
      </trkpt>
      <trkpt lat="46.03419" lon="4.51578">
        <ele>428</ele>
        <time>2018-08-05T07:03:09.000Z</time>
      </trkpt>
      <trkpt lat="46.03421" lon="4.51582">
        <ele>428</ele>
        <time>2018-08-05T07:03:10.000Z</time>
      </trkpt>
      <trkpt lat="46.03423" lon="4.51585">
        <ele>429</ele>
        <time>2018-08-05T07:03:11.000Z</time>
      </trkpt>
      <trkpt lat="46.03425" lon="4.51588">
        <ele>429</ele>
        <time>2018-08-05T07:03:12.000Z</time>
      </trkpt>
      <trkpt lat="46.03426" lon="4.51591">
        <ele>430</ele>
        <time>2018-08-05T07:03:13.000Z</time>
      </trkpt>
      <trkpt lat="46.03429" lon="4.51593">
        <ele>430</ele>
        <time>2018-08-05T07:03:14.000Z</time>
      </trkpt>
      <trkpt lat="46.03431" lon="4.51596">
        <ele>431</ele>
        <time>2018-08-05T07:03:15.000Z</time>
      </trkpt>
      <trkpt lat="46.03433" lon="4.51599">
        <ele>431</ele>
        <time>2018-08-05T07:03:16.000Z</time>
      </trkpt>
      <trkpt lat="46.03435" lon="4.51602">
        <ele>431</ele>
        <time>2018-08-05T07:03:17.000Z</time>
      </trkpt>
      <trkpt lat="46.03438" lon="4.51604">
        <ele>432</ele>
        <time>2018-08-05T07:03:18.000Z</time>
      </trkpt>
      <trkpt lat="46.0344" lon="4.51607">
        <ele>432</ele>
        <time>2018-08-05T07:03:19.000Z</time>
      </trkpt>
      <trkpt lat="46.03443" lon="4.5161">
        <ele>432</ele>
        <time>2018-08-05T07:03:20.000Z</time>
      </trkpt>
      <trkpt lat="46.03445" lon="4.51613">
        <ele>432</ele>
        <time>2018-08-05T07:03:21.000Z</time>
      </trkpt>
      <trkpt lat="46.03448" lon="4.51616">
        <ele>433</ele>
        <time>2018-08-05T07:03:22.000Z</time>
      </trkpt>
      <trkpt lat="46.0345" lon="4.51618">
        <ele>433</ele>
        <time>2018-08-05T07:03:23.000Z</time>
      </trkpt>
      <trkpt lat="46.03453" lon="4.51621">
        <ele>433</ele>
        <time>2018-08-05T07:03:24.000Z</time>
      </trkpt>
      <trkpt lat="46.03455" lon="4.51624">
        <ele>433</ele>
        <time>2018-08-05T07:03:25.000Z</time>
      </trkpt>
      <trkpt lat="46.03458" lon="4.51626">
        <ele>433</ele>
        <time>2018-08-05T07:03:26.000Z</time>
      </trkpt>
      <trkpt lat="46.03461" lon="4.51629">
        <ele>433</ele>
        <time>2018-08-05T07:03:27.000Z</time>
      </trkpt>
      <trkpt lat="46.03463" lon="4.51631">
        <ele>433</ele>
        <time>2018-08-05T07:03:28.000Z</time>
      </trkpt>
      <trkpt lat="46.03466" lon="4.51634">
        <ele>433</ele>
        <time>2018-08-05T07:03:29.000Z</time>
      </trkpt>
      <trkpt lat="46.03469" lon="4.51637">
        <ele>433</ele>
        <time>2018-08-05T07:03:30.000Z</time>
      </trkpt>
      <trkpt lat="46.03471" lon="4.51639">
        <ele>433</ele>
        <time>2018-08-05T07:03:31.000Z</time>
      </trkpt>
      <trkpt lat="46.03474" lon="4.51641">
        <ele>434</ele>
        <time>2018-08-05T07:03:32.000Z</time>
      </trkpt>
      <trkpt lat="46.03477" lon="4.51644">
        <ele>434</ele>
        <time>2018-08-05T07:03:33.000Z</time>
      </trkpt>
      <trkpt lat="46.0348" lon="4.51646">
        <ele>434</ele>
        <time>2018-08-05T07:03:34.000Z</time>
      </trkpt>
      <trkpt lat="46.03482" lon="4.51649">
        <ele>433</ele>
        <time>2018-08-05T07:03:35.000Z</time>
      </trkpt>
      <trkpt lat="46.03485" lon="4.51651">
        <ele>433</ele>
        <time>2018-08-05T07:03:36.000Z</time>
      </trkpt>
      <trkpt lat="46.03488" lon="4.51654">
        <ele>433</ele>
        <time>2018-08-05T07:03:37.000Z</time>
      </trkpt>
      <trkpt lat="46.03491" lon="4.51657">
        <ele>433</ele>
        <time>2018-08-05T07:03:38.000Z</time>
      </trkpt>
      <trkpt lat="46.03493" lon="4.5166">
        <ele>433</ele>
        <time>2018-08-05T07:03:39.000Z</time>
      </trkpt>
      <trkpt lat="46.03496" lon="4.51662">
        <ele>433</ele>
        <time>2018-08-05T07:03:40.000Z</time>
      </trkpt>
      <trkpt lat="46.03499" lon="4.51664">
        <ele>433</ele>
        <time>2018-08-05T07:03:41.000Z</time>
      </trkpt>
      <trkpt lat="46.03502" lon="4.51667">
        <ele>433</ele>
        <time>2018-08-05T07:03:42.000Z</time>
      </trkpt>
      <trkpt lat="46.03504" lon="4.5167">
        <ele>434</ele>
        <time>2018-08-05T07:03:43.000Z</time>
      </trkpt>
      <trkpt lat="46.03507" lon="4.51672">
        <ele>435</ele>
        <time>2018-08-05T07:03:44.000Z</time>
      </trkpt>
      <trkpt lat="46.03509" lon="4.51675">
        <ele>436</ele>
        <time>2018-08-05T07:03:45.000Z</time>
      </trkpt>
      <trkpt lat="46.03512" lon="4.51677">
        <ele>436</ele>
        <time>2018-08-05T07:03:46.000Z</time>
      </trkpt>
      <trkpt lat="46.03515" lon="4.5168">
        <ele>436</ele>
        <time>2018-08-05T07:03:47.000Z</time>
      </trkpt>
      <trkpt lat="46.03517" lon="4.51682">
        <ele>437</ele>
        <time>2018-08-05T07:03:48.000Z</time>
      </trkpt>
      <trkpt lat="46.0352" lon="4.51685">
        <ele>437</ele>
        <time>2018-08-05T07:03:49.000Z</time>
      </trkpt>
      <trkpt lat="46.03523" lon="4.51687">
        <ele>438</ele>
        <time>2018-08-05T07:03:50.000Z</time>
      </trkpt>
      <trkpt lat="46.03525" lon="4.5169">
        <ele>438</ele>
        <time>2018-08-05T07:03:51.000Z</time>
      </trkpt>
      <trkpt lat="46.03528" lon="4.51692">
        <ele>438</ele>
        <time>2018-08-05T07:03:52.000Z</time>
      </trkpt>
      <trkpt lat="46.03531" lon="4.51695">
        <ele>438</ele>
        <time>2018-08-05T07:03:53.000Z</time>
      </trkpt>
      <trkpt lat="46.03534" lon="4.51697">
        <ele>438</ele>
        <time>2018-08-05T07:03:54.000Z</time>
      </trkpt>
      <trkpt lat="46.03536" lon="4.51699">
        <ele>439</ele>
        <time>2018-08-05T07:03:55.000Z</time>
      </trkpt>
      <trkpt lat="46.03539" lon="4.51701">
        <ele>439</ele>
        <time>2018-08-05T07:03:56.000Z</time>
      </trkpt>
      <trkpt lat="46.03542" lon="4.51704">
        <ele>439</ele>
        <time>2018-08-05T07:03:57.000Z</time>
      </trkpt>
      <trkpt lat="46.03545" lon="4.51706">
        <ele>439</ele>
        <time>2018-08-05T07:03:58.000Z</time>
      </trkpt>
      <trkpt lat="46.03548" lon="4.51709">
        <ele>439</ele>
        <time>2018-08-05T07:03:59.000Z</time>
      </trkpt>
      <trkpt lat="46.03551" lon="4.51711">
        <ele>439</ele>
        <time>2018-08-05T07:04:00.000Z</time>
      </trkpt>
      <trkpt lat="46.03554" lon="4.51713">
        <ele>439</ele>
        <time>2018-08-05T07:04:01.000Z</time>
      </trkpt>
      <trkpt lat="46.03556" lon="4.51715">
        <ele>439</ele>
        <time>2018-08-05T07:04:02.000Z</time>
      </trkpt>
      <trkpt lat="46.03559" lon="4.51717">
        <ele>439</ele>
        <time>2018-08-05T07:04:03.000Z</time>
      </trkpt>
      <trkpt lat="46.03562" lon="4.51719">
        <ele>439</ele>
        <time>2018-08-05T07:04:04.000Z</time>
      </trkpt>
      <trkpt lat="46.03565" lon="4.51721">
        <ele>439</ele>
        <time>2018-08-05T07:04:05.000Z</time>
      </trkpt>
      <trkpt lat="46.03568" lon="4.51723">
        <ele>439</ele>
        <time>2018-08-05T07:04:06.000Z</time>
      </trkpt>
      <trkpt lat="46.03571" lon="4.51724">
        <ele>439</ele>
        <time>2018-08-05T07:04:07.000Z</time>
      </trkpt>
      <trkpt lat="46.03573" lon="4.51726">
        <ele>439</ele>
        <time>2018-08-05T07:04:08.000Z</time>
      </trkpt>
      <trkpt lat="46.03576" lon="4.51728">
        <ele>439</ele>
        <time>2018-08-05T07:04:09.000Z</time>
      </trkpt>
      <trkpt lat="46.03578" lon="4.5173">
        <ele>439</ele>
        <time>2018-08-05T07:04:10.000Z</time>
      </trkpt>
      <trkpt lat="46.03581" lon="4.51732">
        <ele>438</ele>
        <time>2018-08-05T07:04:11.000Z</time>
      </trkpt>
      <trkpt lat="46.03584" lon="4.51734">
        <ele>442</ele>
        <time>2018-08-05T07:04:12.000Z</time>
      </trkpt>
      <trkpt lat="46.03587" lon="4.51736">
        <ele>441</ele>
        <time>2018-08-05T07:04:13.000Z</time>
      </trkpt>
      <trkpt lat="46.0359" lon="4.51738">
        <ele>441</ele>
        <time>2018-08-05T07:04:14.000Z</time>
      </trkpt>
      <trkpt lat="46.03593" lon="4.5174">
        <ele>441</ele>
        <time>2018-08-05T07:04:15.000Z</time>
      </trkpt>
      <trkpt lat="46.03596" lon="4.51742">
        <ele>441</ele>
        <time>2018-08-05T07:04:16.000Z</time>
      </trkpt>
      <trkpt lat="46.03599" lon="4.51744">
        <ele>442</ele>
        <time>2018-08-05T07:04:17.000Z</time>
      </trkpt>
      <trkpt lat="46.03601" lon="4.51747">
        <ele>442</ele>
        <time>2018-08-05T07:04:18.000Z</time>
      </trkpt>
      <trkpt lat="46.03604" lon="4.5175">
        <ele>442</ele>
        <time>2018-08-05T07:04:19.000Z</time>
      </trkpt>
      <trkpt lat="46.03606" lon="4.51753">
        <ele>441</ele>
        <time>2018-08-05T07:04:20.000Z</time>
      </trkpt>
      <trkpt lat="46.03609" lon="4.51756">
        <ele>442</ele>
        <time>2018-08-05T07:04:21.000Z</time>
      </trkpt>
      <trkpt lat="46.03611" lon="4.51759">
        <ele>442</ele>
        <time>2018-08-05T07:04:22.000Z</time>
      </trkpt>
      <trkpt lat="46.03613" lon="4.51762">
        <ele>442</ele>
        <time>2018-08-05T07:04:23.000Z</time>
      </trkpt>
      <trkpt lat="46.03615" lon="4.51766">
        <ele>443</ele>
        <time>2018-08-05T07:04:24.000Z</time>
      </trkpt>
      <trkpt lat="46.03617" lon="4.51769">
        <ele>443</ele>
        <time>2018-08-05T07:04:25.000Z</time>
      </trkpt>
      <trkpt lat="46.03618" lon="4.51773">
        <ele>443</ele>
        <time>2018-08-05T07:04:26.000Z</time>
      </trkpt>
      <trkpt lat="46.0362" lon="4.51777">
        <ele>443</ele>
        <time>2018-08-05T07:04:27.000Z</time>
      </trkpt>
      <trkpt lat="46.03621" lon="4.51781">
        <ele>444</ele>
        <time>2018-08-05T07:04:28.000Z</time>
      </trkpt>
      <trkpt lat="46.03622" lon="4.51784">
        <ele>444</ele>
        <time>2018-08-05T07:04:29.000Z</time>
      </trkpt>
      <trkpt lat="46.03623" lon="4.51789">
        <ele>444</ele>
        <time>2018-08-05T07:04:30.000Z</time>
      </trkpt>
      <trkpt lat="46.03624" lon="4.51793">
        <ele>444</ele>
        <time>2018-08-05T07:04:31.000Z</time>
      </trkpt>
      <trkpt lat="46.03625" lon="4.51798">
        <ele>444</ele>
        <time>2018-08-05T07:04:32.000Z</time>
      </trkpt>
      <trkpt lat="46.03626" lon="4.51802">
        <ele>445</ele>
        <time>2018-08-05T07:04:33.000Z</time>
      </trkpt>
      <trkpt lat="46.03626" lon="4.51806">
        <ele>445</ele>
        <time>2018-08-05T07:04:34.000Z</time>
      </trkpt>
      <trkpt lat="46.03627" lon="4.51811">
        <ele>445</ele>
        <time>2018-08-05T07:04:35.000Z</time>
      </trkpt>
      <trkpt lat="46.03628" lon="4.51816">
        <ele>445</ele>
        <time>2018-08-05T07:04:36.000Z</time>
      </trkpt>
      <trkpt lat="46.03629" lon="4.5182">
        <ele>445</ele>
        <time>2018-08-05T07:04:37.000Z</time>
      </trkpt>
      <trkpt lat="46.0363" lon="4.51824">
        <ele>445</ele>
        <time>2018-08-05T07:04:38.000Z</time>
      </trkpt>
      <trkpt lat="46.03631" lon="4.51829">
        <ele>446</ele>
        <time>2018-08-05T07:04:39.000Z</time>
      </trkpt>
      <trkpt lat="46.03631" lon="4.51833">
        <ele>446</ele>
        <time>2018-08-05T07:04:40.000Z</time>
      </trkpt>
      <trkpt lat="46.03632" lon="4.51838">
        <ele>451</ele>
        <time>2018-08-05T07:04:41.000Z</time>
      </trkpt>
      <trkpt lat="46.03632" lon="4.51842">
        <ele>451</ele>
        <time>2018-08-05T07:04:42.000Z</time>
      </trkpt>
      <trkpt lat="46.03633" lon="4.51846">
        <ele>451</ele>
        <time>2018-08-05T07:04:43.000Z</time>
      </trkpt>
      <trkpt lat="46.03633" lon="4.5185">
        <ele>451</ele>
        <time>2018-08-05T07:04:44.000Z</time>
      </trkpt>
      <trkpt lat="46.03633" lon="4.51855">
        <ele>451</ele>
        <time>2018-08-05T07:04:45.000Z</time>
      </trkpt>
      <trkpt lat="46.03633" lon="4.51859">
        <ele>452</ele>
        <time>2018-08-05T07:04:46.000Z</time>
      </trkpt>
      <trkpt lat="46.03634" lon="4.51863">
        <ele>452</ele>
        <time>2018-08-05T07:04:47.000Z</time>
      </trkpt>
      <trkpt lat="46.03635" lon="4.51868">
        <ele>452</ele>
        <time>2018-08-05T07:04:48.000Z</time>
      </trkpt>
      <trkpt lat="46.03635" lon="4.51872">
        <ele>452</ele>
        <time>2018-08-05T07:04:49.000Z</time>
      </trkpt>
      <trkpt lat="46.03636" lon="4.51876">
        <ele>453</ele>
        <time>2018-08-05T07:04:50.000Z</time>
      </trkpt>
      <trkpt lat="46.03636" lon="4.51881">
        <ele>453</ele>
        <time>2018-08-05T07:04:51.000Z</time>
      </trkpt>
      <trkpt lat="46.03637" lon="4.51885">
        <ele>453</ele>
        <time>2018-08-05T07:04:52.000Z</time>
      </trkpt>
      <trkpt lat="46.03637" lon="4.51889">
        <ele>454</ele>
        <time>2018-08-05T07:04:53.000Z</time>
      </trkpt>
      <trkpt lat="46.03638" lon="4.51894">
        <ele>454</ele>
        <time>2018-08-05T07:04:54.000Z</time>
      </trkpt>
      <trkpt lat="46.03638" lon="4.51898">
        <ele>454</ele>
        <time>2018-08-05T07:04:55.000Z</time>
      </trkpt>
      <trkpt lat="46.03638" lon="4.51902">
        <ele>454</ele>
        <time>2018-08-05T07:04:56.000Z</time>
      </trkpt>
      <trkpt lat="46.03638" lon="4.51907">
        <ele>454</ele>
        <time>2018-08-05T07:04:57.000Z</time>
      </trkpt>
      <trkpt lat="46.03638" lon="4.51911">
        <ele>455</ele>
        <time>2018-08-05T07:04:58.000Z</time>
      </trkpt>
      <trkpt lat="46.03637" lon="4.51915">
        <ele>455</ele>
        <time>2018-08-05T07:04:59.000Z</time>
      </trkpt>
      <trkpt lat="46.03637" lon="4.5192">
        <ele>460</ele>
        <time>2018-08-05T07:05:00.000Z</time>
      </trkpt>
      <trkpt lat="46.03637" lon="4.51924">
        <ele>460</ele>
        <time>2018-08-05T07:05:01.000Z</time>
      </trkpt>
      <trkpt lat="46.03637" lon="4.51928">
        <ele>460</ele>
        <time>2018-08-05T07:05:02.000Z</time>
      </trkpt>
      <trkpt lat="46.03636" lon="4.51932">
        <ele>461</ele>
        <time>2018-08-05T07:05:03.000Z</time>
      </trkpt>
      <trkpt lat="46.03635" lon="4.51936">
        <ele>461</ele>
        <time>2018-08-05T07:05:04.000Z</time>
      </trkpt>
      <trkpt lat="46.03634" lon="4.5194">
        <ele>461</ele>
        <time>2018-08-05T07:05:05.000Z</time>
      </trkpt>
      <trkpt lat="46.03632" lon="4.51945">
        <ele>461</ele>
        <time>2018-08-05T07:05:06.000Z</time>
      </trkpt>
      <trkpt lat="46.0363" lon="4.51949">
        <ele>461</ele>
        <time>2018-08-05T07:05:07.000Z</time>
      </trkpt>
      <trkpt lat="46.03628" lon="4.51953">
        <ele>462</ele>
        <time>2018-08-05T07:05:08.000Z</time>
      </trkpt>
      <trkpt lat="46.03626" lon="4.51956">
        <ele>462</ele>
        <time>2018-08-05T07:05:09.000Z</time>
      </trkpt>
      <trkpt lat="46.03624" lon="4.5196">
        <ele>462</ele>
        <time>2018-08-05T07:05:10.000Z</time>
      </trkpt>
      <trkpt lat="46.03621" lon="4.51963">
        <ele>462</ele>
        <time>2018-08-05T07:05:11.000Z</time>
      </trkpt>
      <trkpt lat="46.03618" lon="4.51965">
        <ele>462</ele>
        <time>2018-08-05T07:05:12.000Z</time>
      </trkpt>
      <trkpt lat="46.03615" lon="4.51967">
        <ele>462</ele>
        <time>2018-08-05T07:05:13.000Z</time>
      </trkpt>
      <trkpt lat="46.03612" lon="4.51967">
        <ele>462</ele>
        <time>2018-08-05T07:05:14.000Z</time>
      </trkpt>
      <trkpt lat="46.03608" lon="4.51967">
        <ele>462</ele>
        <time>2018-08-05T07:05:15.000Z</time>
      </trkpt>
      <trkpt lat="46.03605" lon="4.51966">
        <ele>462</ele>
        <time>2018-08-05T07:05:16.000Z</time>
      </trkpt>
      <trkpt lat="46.03602" lon="4.51964">
        <ele>462</ele>
        <time>2018-08-05T07:05:17.000Z</time>
      </trkpt>
      <trkpt lat="46.036" lon="4.51961">
        <ele>461</ele>
        <time>2018-08-05T07:05:18.000Z</time>
      </trkpt>
      <trkpt lat="46.03597" lon="4.51957">
        <ele>461</ele>
        <time>2018-08-05T07:05:19.000Z</time>
      </trkpt>
      <trkpt lat="46.03595" lon="4.51953">
        <ele>461</ele>
        <time>2018-08-05T07:05:20.000Z</time>
      </trkpt>
      <trkpt lat="46.03594" lon="4.51949">
        <ele>461</ele>
        <time>2018-08-05T07:05:21.000Z</time>
      </trkpt>
      <trkpt lat="46.03593" lon="4.51944">
        <ele>460</ele>
        <time>2018-08-05T07:05:22.000Z</time>
      </trkpt>
      <trkpt lat="46.03592" lon="4.51939">
        <ele>460</ele>
        <time>2018-08-05T07:05:23.000Z</time>
      </trkpt>
      <trkpt lat="46.03591" lon="4.51935">
        <ele>460</ele>
        <time>2018-08-05T07:05:24.000Z</time>
      </trkpt>
      <trkpt lat="46.03591" lon="4.5193">
        <ele>459</ele>
        <time>2018-08-05T07:05:25.000Z</time>
      </trkpt>
      <trkpt lat="46.0359" lon="4.51925">
        <ele>459</ele>
        <time>2018-08-05T07:05:26.000Z</time>
      </trkpt>
      <trkpt lat="46.0359" lon="4.51921">
        <ele>458</ele>
        <time>2018-08-05T07:05:27.000Z</time>
      </trkpt>
      <trkpt lat="46.03589" lon="4.51916">
        <ele>456</ele>
        <time>2018-08-05T07:05:28.000Z</time>
      </trkpt>
      <trkpt lat="46.03588" lon="4.51911">
        <ele>456</ele>
        <time>2018-08-05T07:05:29.000Z</time>
      </trkpt>
      <trkpt lat="46.03588" lon="4.51907">
        <ele>455</ele>
        <time>2018-08-05T07:05:30.000Z</time>
      </trkpt>
      <trkpt lat="46.03587" lon="4.51902">
        <ele>455</ele>
        <time>2018-08-05T07:05:31.000Z</time>
      </trkpt>
      <trkpt lat="46.03587" lon="4.51898">
        <ele>454</ele>
        <time>2018-08-05T07:05:32.000Z</time>
      </trkpt>
      <trkpt lat="46.03586" lon="4.51893">
        <ele>454</ele>
        <time>2018-08-05T07:05:33.000Z</time>
      </trkpt>
      <trkpt lat="46.03585" lon="4.51889">
        <ele>453</ele>
        <time>2018-08-05T07:05:34.000Z</time>
      </trkpt>
      <trkpt lat="46.03584" lon="4.51884">
        <ele>453</ele>
        <time>2018-08-05T07:05:35.000Z</time>
      </trkpt>
      <trkpt lat="46.03583" lon="4.5188">
        <ele>462</ele>
        <time>2018-08-05T07:05:36.000Z</time>
      </trkpt>
      <trkpt lat="46.03582" lon="4.51876">
        <ele>461</ele>
        <time>2018-08-05T07:05:37.000Z</time>
      </trkpt>
      <trkpt lat="46.0358" lon="4.51872">
        <ele>461</ele>
        <time>2018-08-05T07:05:38.000Z</time>
      </trkpt>
      <trkpt lat="46.03578" lon="4.51869">
        <ele>461</ele>
        <time>2018-08-05T07:05:39.000Z</time>
      </trkpt>
      <trkpt lat="46.03577" lon="4.51865">
        <ele>460</ele>
        <time>2018-08-05T07:05:40.000Z</time>
      </trkpt>
      <trkpt lat="46.03575" lon="4.51861">
        <ele>460</ele>
        <time>2018-08-05T07:05:41.000Z</time>
      </trkpt>
      <trkpt lat="46.03572" lon="4.51858">
        <ele>459</ele>
        <time>2018-08-05T07:05:42.000Z</time>
      </trkpt>
      <trkpt lat="46.03569" lon="4.51855">
        <ele>459</ele>
        <time>2018-08-05T07:05:43.000Z</time>
      </trkpt>
      <trkpt lat="46.03567" lon="4.51852">
        <ele>459</ele>
        <time>2018-08-05T07:05:44.000Z</time>
      </trkpt>
      <trkpt lat="46.03564" lon="4.51849">
        <ele>459</ele>
        <time>2018-08-05T07:05:45.000Z</time>
      </trkpt>
      <trkpt lat="46.03562" lon="4.51846">
        <ele>459</ele>
        <time>2018-08-05T07:05:46.000Z</time>
      </trkpt>
      <trkpt lat="46.03559" lon="4.51843">
        <ele>459</ele>
        <time>2018-08-05T07:05:47.000Z</time>
      </trkpt>
      <trkpt lat="46.03557" lon="4.51841">
        <ele>460</ele>
        <time>2018-08-05T07:05:48.000Z</time>
      </trkpt>
      <trkpt lat="46.03554" lon="4.51838">
        <ele>460</ele>
        <time>2018-08-05T07:05:49.000Z</time>
      </trkpt>
      <trkpt lat="46.03551" lon="4.51836">
        <ele>461</ele>
        <time>2018-08-05T07:05:50.000Z</time>
      </trkpt>
      <trkpt lat="46.03548" lon="4.51834">
        <ele>462</ele>
        <time>2018-08-05T07:05:51.000Z</time>
      </trkpt>
      <trkpt lat="46.03546" lon="4.51832">
        <ele>450</ele>
        <time>2018-08-05T07:05:52.000Z</time>
      </trkpt>
      <trkpt lat="46.03543" lon="4.5183">
        <ele>450</ele>
        <time>2018-08-05T07:05:53.000Z</time>
      </trkpt>
      <trkpt lat="46.0354" lon="4.51828">
        <ele>451</ele>
        <time>2018-08-05T07:05:54.000Z</time>
      </trkpt>
      <trkpt lat="46.03537" lon="4.51826">
        <ele>451</ele>
        <time>2018-08-05T07:05:55.000Z</time>
      </trkpt>
      <trkpt lat="46.03534" lon="4.51824">
        <ele>451</ele>
        <time>2018-08-05T07:05:56.000Z</time>
      </trkpt>
      <trkpt lat="46.03531" lon="4.51822">
        <ele>452</ele>
        <time>2018-08-05T07:05:57.000Z</time>
      </trkpt>
      <trkpt lat="46.03528" lon="4.5182">
        <ele>452</ele>
        <time>2018-08-05T07:05:58.000Z</time>
      </trkpt>
      <trkpt lat="46.03526" lon="4.51818">
        <ele>452</ele>
        <time>2018-08-05T07:05:59.000Z</time>
      </trkpt>
      <trkpt lat="46.03523" lon="4.51816">
        <ele>453</ele>
        <time>2018-08-05T07:06:00.000Z</time>
      </trkpt>
      <trkpt lat="46.0352" lon="4.51815">
        <ele>453</ele>
        <time>2018-08-05T07:06:01.000Z</time>
      </trkpt>
      <trkpt lat="46.03517" lon="4.51814">
        <ele>453</ele>
        <time>2018-08-05T07:06:02.000Z</time>
      </trkpt>
      <trkpt lat="46.03514" lon="4.51813">
        <ele>454</ele>
        <time>2018-08-05T07:06:03.000Z</time>
      </trkpt>
      <trkpt lat="46.03511" lon="4.51812">
        <ele>454</ele>
        <time>2018-08-05T07:06:04.000Z</time>
      </trkpt>
      <trkpt lat="46.03508" lon="4.5181">
        <ele>454</ele>
        <time>2018-08-05T07:06:05.000Z</time>
      </trkpt>
      <trkpt lat="46.03505" lon="4.51809">
        <ele>454</ele>
        <time>2018-08-05T07:06:06.000Z</time>
      </trkpt>
      <trkpt lat="46.03503" lon="4.51807">
        <ele>453</ele>
        <time>2018-08-05T07:06:07.000Z</time>
      </trkpt>
      <trkpt lat="46.035" lon="4.51806">
        <ele>461</ele>
        <time>2018-08-05T07:06:08.000Z</time>
      </trkpt>
      <trkpt lat="46.03497" lon="4.51805">
        <ele>461</ele>
        <time>2018-08-05T07:06:09.000Z</time>
      </trkpt>
      <trkpt lat="46.03494" lon="4.51803">
        <ele>461</ele>
        <time>2018-08-05T07:06:10.000Z</time>
      </trkpt>
      <trkpt lat="46.03492" lon="4.51802">
        <ele>460</ele>
        <time>2018-08-05T07:06:11.000Z</time>
      </trkpt>
      <trkpt lat="46.03489" lon="4.51801">
        <ele>460</ele>
        <time>2018-08-05T07:06:12.000Z</time>
      </trkpt>
      <trkpt lat="46.03486" lon="4.518">
        <ele>460</ele>
        <time>2018-08-05T07:06:13.000Z</time>
      </trkpt>
      <trkpt lat="46.03483" lon="4.51799">
        <ele>460</ele>
        <time>2018-08-05T07:06:14.000Z</time>
      </trkpt>
      <trkpt lat="46.0348" lon="4.51798">
        <ele>460</ele>
        <time>2018-08-05T07:06:15.000Z</time>
      </trkpt>
      <trkpt lat="46.03477" lon="4.51797">
        <ele>460</ele>
        <time>2018-08-05T07:06:16.000Z</time>
      </trkpt>
      <trkpt lat="46.03474" lon="4.51796">
        <ele>460</ele>
        <time>2018-08-05T07:06:17.000Z</time>
      </trkpt>
      <trkpt lat="46.03471" lon="4.51794">
        <ele>460</ele>
        <time>2018-08-05T07:06:18.000Z</time>
      </trkpt>
      <trkpt lat="46.03468" lon="4.51793">
        <ele>460</ele>
        <time>2018-08-05T07:06:19.000Z</time>
      </trkpt>
      <trkpt lat="46.03465" lon="4.51792">
        <ele>460</ele>
        <time>2018-08-05T07:06:20.000Z</time>
      </trkpt>
      <trkpt lat="46.03462" lon="4.51791">
        <ele>460</ele>
        <time>2018-08-05T07:06:21.000Z</time>
      </trkpt>
      <trkpt lat="46.03459" lon="4.51789">
        <ele>460</ele>
        <time>2018-08-05T07:06:22.000Z</time>
      </trkpt>
      <trkpt lat="46.03456" lon="4.51788">
        <ele>460</ele>
        <time>2018-08-05T07:06:23.000Z</time>
      </trkpt>
      <trkpt lat="46.03454" lon="4.51786">
        <ele>460</ele>
        <time>2018-08-05T07:06:24.000Z</time>
      </trkpt>
      <trkpt lat="46.03451" lon="4.51785">
        <ele>460</ele>
        <time>2018-08-05T07:06:25.000Z</time>
      </trkpt>
      <trkpt lat="46.03448" lon="4.51783">
        <ele>460</ele>
        <time>2018-08-05T07:06:26.000Z</time>
      </trkpt>
      <trkpt lat="46.03445" lon="4.51782">
        <ele>460</ele>
        <time>2018-08-05T07:06:27.000Z</time>
      </trkpt>
      <trkpt lat="46.03441" lon="4.51781">
        <ele>460</ele>
        <time>2018-08-05T07:06:28.000Z</time>
      </trkpt>
      <trkpt lat="46.03438" lon="4.51779">
        <ele>460</ele>
        <time>2018-08-05T07:06:29.000Z</time>
      </trkpt>
      <trkpt lat="46.03435" lon="4.51777">
        <ele>460</ele>
        <time>2018-08-05T07:06:30.000Z</time>
      </trkpt>
      <trkpt lat="46.03432" lon="4.51775">
        <ele>460</ele>
        <time>2018-08-05T07:06:31.000Z</time>
      </trkpt>
      <trkpt lat="46.03429" lon="4.51773">
        <ele>459</ele>
        <time>2018-08-05T07:06:32.000Z</time>
      </trkpt>
      <trkpt lat="46.03426" lon="4.51771">
        <ele>459</ele>
        <time>2018-08-05T07:06:33.000Z</time>
      </trkpt>
      <trkpt lat="46.03423" lon="4.51769">
        <ele>458</ele>
        <time>2018-08-05T07:06:34.000Z</time>
      </trkpt>
      <trkpt lat="46.0342" lon="4.51768">
        <ele>458</ele>
        <time>2018-08-05T07:06:35.000Z</time>
      </trkpt>
      <trkpt lat="46.03417" lon="4.51766">
        <ele>464</ele>
        <time>2018-08-05T07:06:36.000Z</time>
      </trkpt>
      <trkpt lat="46.03413" lon="4.51765">
        <ele>464</ele>
        <time>2018-08-05T07:06:37.000Z</time>
      </trkpt>
      <trkpt lat="46.0341" lon="4.51763">
        <ele>463</ele>
        <time>2018-08-05T07:06:38.000Z</time>
      </trkpt>
      <trkpt lat="46.03407" lon="4.51761">
        <ele>463</ele>
        <time>2018-08-05T07:06:39.000Z</time>
      </trkpt>
      <trkpt lat="46.03404" lon="4.5176">
        <ele>464</ele>
        <time>2018-08-05T07:06:40.000Z</time>
      </trkpt>
      <trkpt lat="46.03401" lon="4.51758">
        <ele>465</ele>
        <time>2018-08-05T07:06:41.000Z</time>
      </trkpt>
      <trkpt lat="46.03398" lon="4.51756">
        <ele>465</ele>
        <time>2018-08-05T07:06:42.000Z</time>
      </trkpt>
      <trkpt lat="46.03395" lon="4.51754">
        <ele>466</ele>
        <time>2018-08-05T07:06:43.000Z</time>
      </trkpt>
      <trkpt lat="46.03392" lon="4.51752">
        <ele>467</ele>
        <time>2018-08-05T07:06:44.000Z</time>
      </trkpt>
      <trkpt lat="46.03389" lon="4.5175">
        <ele>468</ele>
        <time>2018-08-05T07:06:45.000Z</time>
      </trkpt>
      <trkpt lat="46.03386" lon="4.51749">
        <ele>451</ele>
        <time>2018-08-05T07:06:46.000Z</time>
      </trkpt>
      <trkpt lat="46.03383" lon="4.51747">
        <ele>451</ele>
        <time>2018-08-05T07:06:47.000Z</time>
      </trkpt>
      <trkpt lat="46.0338" lon="4.51745">
        <ele>451</ele>
        <time>2018-08-05T07:06:48.000Z</time>
      </trkpt>
      <trkpt lat="46.03377" lon="4.51744">
        <ele>452</ele>
        <time>2018-08-05T07:06:49.000Z</time>
      </trkpt>
      <trkpt lat="46.03374" lon="4.51742">
        <ele>452</ele>
        <time>2018-08-05T07:06:50.000Z</time>
      </trkpt>
      <trkpt lat="46.03371" lon="4.5174">
        <ele>452</ele>
        <time>2018-08-05T07:06:51.000Z</time>
      </trkpt>
      <trkpt lat="46.03367" lon="4.51738">
        <ele>452</ele>
        <time>2018-08-05T07:06:52.000Z</time>
      </trkpt>
      <trkpt lat="46.03364" lon="4.51737">
        <ele>453</ele>
        <time>2018-08-05T07:06:53.000Z</time>
      </trkpt>
      <trkpt lat="46.03361" lon="4.51735">
        <ele>453</ele>
        <time>2018-08-05T07:06:54.000Z</time>
      </trkpt>
      <trkpt lat="46.03358" lon="4.51733">
        <ele>453</ele>
        <time>2018-08-05T07:06:55.000Z</time>
      </trkpt>
      <trkpt lat="46.03355" lon="4.51732">
        <ele>454</ele>
        <time>2018-08-05T07:06:56.000Z</time>
      </trkpt>
      <trkpt lat="46.03351" lon="4.51732">
        <ele>454</ele>
        <time>2018-08-05T07:06:57.000Z</time>
      </trkpt>
      <trkpt lat="46.03348" lon="4.5173">
        <ele>455</ele>
        <time>2018-08-05T07:06:58.000Z</time>
      </trkpt>
      <trkpt lat="46.03345" lon="4.5173">
        <ele>455</ele>
        <time>2018-08-05T07:06:59.000Z</time>
      </trkpt>
      <trkpt lat="46.03341" lon="4.51729">
        <ele>455</ele>
        <time>2018-08-05T07:07:00.000Z</time>
      </trkpt>
      <trkpt lat="46.03338" lon="4.51729">
        <ele>456</ele>
        <time>2018-08-05T07:07:01.000Z</time>
      </trkpt>
      <trkpt lat="46.03335" lon="4.51729">
        <ele>456</ele>
        <time>2018-08-05T07:07:02.000Z</time>
      </trkpt>
      <trkpt lat="46.03331" lon="4.51729">
        <ele>458</ele>
        <time>2018-08-05T07:07:03.000Z</time>
      </trkpt>
      <trkpt lat="46.03327" lon="4.51729">
        <ele>458</ele>
        <time>2018-08-05T07:07:04.000Z</time>
      </trkpt>
      <trkpt lat="46.03324" lon="4.5173">
        <ele>458</ele>
        <time>2018-08-05T07:07:05.000Z</time>
      </trkpt>
      <trkpt lat="46.03321" lon="4.5173">
        <ele>457</ele>
        <time>2018-08-05T07:07:06.000Z</time>
      </trkpt>
      <trkpt lat="46.03317" lon="4.51731">
        <ele>457</ele>
        <time>2018-08-05T07:07:07.000Z</time>
      </trkpt>
      <trkpt lat="46.03314" lon="4.51732">
        <ele>457</ele>
        <time>2018-08-05T07:07:08.000Z</time>
      </trkpt>
      <trkpt lat="46.0331" lon="4.51733">
        <ele>457</ele>
        <time>2018-08-05T07:07:09.000Z</time>
      </trkpt>
      <trkpt lat="46.03307" lon="4.51734">
        <ele>456</ele>
        <time>2018-08-05T07:07:10.000Z</time>
      </trkpt>
      <trkpt lat="46.03304" lon="4.51734">
        <ele>456</ele>
        <time>2018-08-05T07:07:11.000Z</time>
      </trkpt>
      <trkpt lat="46.03301" lon="4.51735">
        <ele>456</ele>
        <time>2018-08-05T07:07:12.000Z</time>
      </trkpt>
      <trkpt lat="46.03297" lon="4.51737">
        <ele>456</ele>
        <time>2018-08-05T07:07:13.000Z</time>
      </trkpt>
      <trkpt lat="46.03294" lon="4.51738">
        <ele>456</ele>
        <time>2018-08-05T07:07:14.000Z</time>
      </trkpt>
      <trkpt lat="46.03291" lon="4.51739">
        <ele>456</ele>
        <time>2018-08-05T07:07:15.000Z</time>
      </trkpt>
      <trkpt lat="46.03288" lon="4.5174">
        <ele>456</ele>
        <time>2018-08-05T07:07:16.000Z</time>
      </trkpt>
      <trkpt lat="46.03284" lon="4.51742">
        <ele>456</ele>
        <time>2018-08-05T07:07:17.000Z</time>
      </trkpt>
      <trkpt lat="46.03281" lon="4.51743">
        <ele>456</ele>
        <time>2018-08-05T07:07:18.000Z</time>
      </trkpt>
      <trkpt lat="46.03278" lon="4.51745">
        <ele>456</ele>
        <time>2018-08-05T07:07:19.000Z</time>
      </trkpt>
      <trkpt lat="46.03275" lon="4.51746">
        <ele>457</ele>
        <time>2018-08-05T07:07:20.000Z</time>
      </trkpt>
      <trkpt lat="46.03272" lon="4.51747">
        <ele>457</ele>
        <time>2018-08-05T07:07:21.000Z</time>
      </trkpt>
      <trkpt lat="46.03269" lon="4.51749">
        <ele>457</ele>
        <time>2018-08-05T07:07:22.000Z</time>
      </trkpt>
      <trkpt lat="46.03266" lon="4.51751">
        <ele>470</ele>
        <time>2018-08-05T07:07:23.000Z</time>
      </trkpt>
      <trkpt lat="46.03263" lon="4.51752">
        <ele>469</ele>
        <time>2018-08-05T07:07:24.000Z</time>
      </trkpt>
      <trkpt lat="46.0326" lon="4.51754">
        <ele>468</ele>
        <time>2018-08-05T07:07:25.000Z</time>
      </trkpt>
      <trkpt lat="46.03257" lon="4.51756">
        <ele>468</ele>
        <time>2018-08-05T07:07:26.000Z</time>
      </trkpt>
      <trkpt lat="46.03254" lon="4.51758">
        <ele>468</ele>
        <time>2018-08-05T07:07:27.000Z</time>
      </trkpt>
      <trkpt lat="46.0325" lon="4.5176">
        <ele>468</ele>
        <time>2018-08-05T07:07:28.000Z</time>
      </trkpt>
      <trkpt lat="46.03247" lon="4.51762">
        <ele>465</ele>
        <time>2018-08-05T07:07:29.000Z</time>
      </trkpt>
      <trkpt lat="46.03244" lon="4.51765">
        <ele>466</ele>
        <time>2018-08-05T07:07:30.000Z</time>
      </trkpt>
      <trkpt lat="46.03241" lon="4.51767">
        <ele>466</ele>
        <time>2018-08-05T07:07:31.000Z</time>
      </trkpt>
      <trkpt lat="46.03238" lon="4.5177">
        <ele>466</ele>
        <time>2018-08-05T07:07:32.000Z</time>
      </trkpt>
      <trkpt lat="46.03235" lon="4.51772">
        <ele>467</ele>
        <time>2018-08-05T07:07:33.000Z</time>
      </trkpt>
      <trkpt lat="46.03232" lon="4.51775">
        <ele>467</ele>
        <time>2018-08-05T07:07:34.000Z</time>
      </trkpt>
      <trkpt lat="46.03229" lon="4.51777">
        <ele>467</ele>
        <time>2018-08-05T07:07:35.000Z</time>
      </trkpt>
      <trkpt lat="46.03226" lon="4.51779">
        <ele>467</ele>
        <time>2018-08-05T07:07:36.000Z</time>
      </trkpt>
      <trkpt lat="46.03222" lon="4.51782">
        <ele>468</ele>
        <time>2018-08-05T07:07:37.000Z</time>
      </trkpt>
      <trkpt lat="46.03219" lon="4.51784">
        <ele>468</ele>
        <time>2018-08-05T07:07:38.000Z</time>
      </trkpt>
      <trkpt lat="46.03216" lon="4.51786">
        <ele>468</ele>
        <time>2018-08-05T07:07:39.000Z</time>
      </trkpt>
      <trkpt lat="46.03213" lon="4.51788">
        <ele>468</ele>
        <time>2018-08-05T07:07:40.000Z</time>
      </trkpt>
      <trkpt lat="46.0321" lon="4.51791">
        <ele>468</ele>
        <time>2018-08-05T07:07:41.000Z</time>
      </trkpt>
      <trkpt lat="46.03207" lon="4.51793">
        <ele>468</ele>
        <time>2018-08-05T07:07:42.000Z</time>
      </trkpt>
      <trkpt lat="46.03204" lon="4.51796">
        <ele>468</ele>
        <time>2018-08-05T07:07:43.000Z</time>
      </trkpt>
      <trkpt lat="46.03201" lon="4.51798">
        <ele>468</ele>
        <time>2018-08-05T07:07:44.000Z</time>
      </trkpt>
      <trkpt lat="46.03197" lon="4.51801">
        <ele>469</ele>
        <time>2018-08-05T07:07:45.000Z</time>
      </trkpt>
      <trkpt lat="46.03194" lon="4.51803">
        <ele>469</ele>
        <time>2018-08-05T07:07:46.000Z</time>
      </trkpt>
      <trkpt lat="46.03191" lon="4.51805">
        <ele>469</ele>
        <time>2018-08-05T07:07:47.000Z</time>
      </trkpt>
      <trkpt lat="46.03188" lon="4.51808">
        <ele>469</ele>
        <time>2018-08-05T07:07:48.000Z</time>
      </trkpt>
      <trkpt lat="46.03185" lon="4.5181">
        <ele>470</ele>
        <time>2018-08-05T07:07:49.000Z</time>
      </trkpt>
      <trkpt lat="46.03181" lon="4.51812">
        <ele>470</ele>
        <time>2018-08-05T07:07:50.000Z</time>
      </trkpt>
      <trkpt lat="46.03178" lon="4.51815">
        <ele>471</ele>
        <time>2018-08-05T07:07:51.000Z</time>
      </trkpt>
      <trkpt lat="46.03175" lon="4.51817">
        <ele>471</ele>
        <time>2018-08-05T07:07:52.000Z</time>
      </trkpt>
      <trkpt lat="46.03172" lon="4.51819">
        <ele>472</ele>
        <time>2018-08-05T07:07:53.000Z</time>
      </trkpt>
      <trkpt lat="46.03169" lon="4.51822">
        <ele>473</ele>
        <time>2018-08-05T07:07:54.000Z</time>
      </trkpt>
      <trkpt lat="46.03166" lon="4.51824">
        <ele>469</ele>
        <time>2018-08-05T07:07:55.000Z</time>
      </trkpt>
      <trkpt lat="46.03163" lon="4.51826">
        <ele>470</ele>
        <time>2018-08-05T07:07:56.000Z</time>
      </trkpt>
      <trkpt lat="46.0316" lon="4.51829">
        <ele>470</ele>
        <time>2018-08-05T07:07:57.000Z</time>
      </trkpt>
      <trkpt lat="46.03156" lon="4.51831">
        <ele>468</ele>
        <time>2018-08-05T07:07:58.000Z</time>
      </trkpt>
      <trkpt lat="46.03153" lon="4.51834">
        <ele>478</ele>
        <time>2018-08-05T07:07:59.000Z</time>
      </trkpt>
      <trkpt lat="46.0315" lon="4.51835">
        <ele>479</ele>
        <time>2018-08-05T07:08:00.000Z</time>
      </trkpt>
      <trkpt lat="46.03147" lon="4.51837">
        <ele>479</ele>
        <time>2018-08-05T07:08:01.000Z</time>
      </trkpt>
      <trkpt lat="46.03144" lon="4.51839">
        <ele>479</ele>
        <time>2018-08-05T07:08:02.000Z</time>
      </trkpt>
      <trkpt lat="46.03141" lon="4.51841">
        <ele>479</ele>
        <time>2018-08-05T07:08:03.000Z</time>
      </trkpt>
      <trkpt lat="46.03138" lon="4.51843">
        <ele>479</ele>
        <time>2018-08-05T07:08:04.000Z</time>
      </trkpt>
      <trkpt lat="46.03135" lon="4.51845">
        <ele>479</ele>
        <time>2018-08-05T07:08:05.000Z</time>
      </trkpt>
      <trkpt lat="46.03131" lon="4.51847">
        <ele>479</ele>
        <time>2018-08-05T07:08:06.000Z</time>
      </trkpt>
      <trkpt lat="46.03128" lon="4.51848">
        <ele>479</ele>
        <time>2018-08-05T07:08:07.000Z</time>
      </trkpt>
      <trkpt lat="46.03124" lon="4.5185">
        <ele>479</ele>
        <time>2018-08-05T07:08:08.000Z</time>
      </trkpt>
      <trkpt lat="46.03121" lon="4.51852">
        <ele>479</ele>
        <time>2018-08-05T07:08:09.000Z</time>
      </trkpt>
      <trkpt lat="46.03118" lon="4.51853">
        <ele>479</ele>
        <time>2018-08-05T07:08:10.000Z</time>
      </trkpt>
      <trkpt lat="46.03115" lon="4.51855">
        <ele>478</ele>
        <time>2018-08-05T07:08:11.000Z</time>
      </trkpt>
      <trkpt lat="46.03111" lon="4.51856">
        <ele>478</ele>
        <time>2018-08-05T07:08:12.000Z</time>
      </trkpt>
      <trkpt lat="46.03108" lon="4.51857">
        <ele>478</ele>
        <time>2018-08-05T07:08:13.000Z</time>
      </trkpt>
      <trkpt lat="46.03104" lon="4.51858">
        <ele>478</ele>
        <time>2018-08-05T07:08:14.000Z</time>
      </trkpt>
      <trkpt lat="46.03101" lon="4.5186">
        <ele>478</ele>
        <time>2018-08-05T07:08:15.000Z</time>
      </trkpt>
      <trkpt lat="46.03097" lon="4.51861">
        <ele>477</ele>
        <time>2018-08-05T07:08:16.000Z</time>
      </trkpt>
      <trkpt lat="46.03093" lon="4.51862">
        <ele>477</ele>
        <time>2018-08-05T07:08:17.000Z</time>
      </trkpt>
      <trkpt lat="46.0309" lon="4.51864">
        <ele>478</ele>
        <time>2018-08-05T07:08:18.000Z</time>
      </trkpt>
      <trkpt lat="46.03086" lon="4.51865">
        <ele>478</ele>
        <time>2018-08-05T07:08:19.000Z</time>
      </trkpt>
      <trkpt lat="46.03082" lon="4.51867">
        <ele>471</ele>
        <time>2018-08-05T07:08:20.000Z</time>
      </trkpt>
      <trkpt lat="46.03079" lon="4.51868">
        <ele>471</ele>
        <time>2018-08-05T07:08:21.000Z</time>
      </trkpt>
      <trkpt lat="46.03076" lon="4.51869">
        <ele>471</ele>
        <time>2018-08-05T07:08:22.000Z</time>
      </trkpt>
      <trkpt lat="46.03072" lon="4.5187">
        <ele>471</ele>
        <time>2018-08-05T07:08:23.000Z</time>
      </trkpt>
      <trkpt lat="46.03069" lon="4.51872">
        <ele>471</ele>
        <time>2018-08-05T07:08:24.000Z</time>
      </trkpt>
      <trkpt lat="46.03066" lon="4.51873">
        <ele>471</ele>
        <time>2018-08-05T07:08:25.000Z</time>
      </trkpt>
      <trkpt lat="46.03063" lon="4.51874">
        <ele>471</ele>
        <time>2018-08-05T07:08:26.000Z</time>
      </trkpt>
      <trkpt lat="46.0306" lon="4.51875">
        <ele>471</ele>
        <time>2018-08-05T07:08:27.000Z</time>
      </trkpt>
      <trkpt lat="46.03057" lon="4.51876">
        <ele>471</ele>
        <time>2018-08-05T07:08:28.000Z</time>
      </trkpt>
      <trkpt lat="46.03054" lon="4.51878">
        <ele>471</ele>
        <time>2018-08-05T07:08:29.000Z</time>
      </trkpt>
      <trkpt lat="46.03051" lon="4.51879">
        <ele>471</ele>
        <time>2018-08-05T07:08:30.000Z</time>
      </trkpt>
      <trkpt lat="46.03047" lon="4.51881">
        <ele>471</ele>
        <time>2018-08-05T07:08:31.000Z</time>
      </trkpt>
      <trkpt lat="46.03044" lon="4.51882">
        <ele>471</ele>
        <time>2018-08-05T07:08:32.000Z</time>
      </trkpt>
      <trkpt lat="46.0304" lon="4.51884">
        <ele>471</ele>
        <time>2018-08-05T07:08:33.000Z</time>
      </trkpt>
      <trkpt lat="46.03037" lon="4.51886">
        <ele>471</ele>
        <time>2018-08-05T07:08:34.000Z</time>
      </trkpt>
      <trkpt lat="46.03034" lon="4.51888">
        <ele>471</ele>
        <time>2018-08-05T07:08:35.000Z</time>
      </trkpt>
      <trkpt lat="46.03031" lon="4.5189">
        <ele>471</ele>
        <time>2018-08-05T07:08:36.000Z</time>
      </trkpt>
      <trkpt lat="46.03028" lon="4.51893">
        <ele>471</ele>
        <time>2018-08-05T07:08:37.000Z</time>
      </trkpt>
      <trkpt lat="46.03025" lon="4.51895">
        <ele>471</ele>
        <time>2018-08-05T07:08:38.000Z</time>
      </trkpt>
      <trkpt lat="46.03022" lon="4.51898">
        <ele>471</ele>
        <time>2018-08-05T07:08:39.000Z</time>
      </trkpt>
      <trkpt lat="46.03019" lon="4.51901">
        <ele>471</ele>
        <time>2018-08-05T07:08:40.000Z</time>
      </trkpt>
      <trkpt lat="46.03017" lon="4.51904">
        <ele>471</ele>
        <time>2018-08-05T07:08:41.000Z</time>
      </trkpt>
      <trkpt lat="46.03015" lon="4.51908">
        <ele>472</ele>
        <time>2018-08-05T07:08:42.000Z</time>
      </trkpt>
      <trkpt lat="46.03013" lon="4.51911">
        <ele>472</ele>
        <time>2018-08-05T07:08:43.000Z</time>
      </trkpt>
      <trkpt lat="46.03011" lon="4.51915">
        <ele>472</ele>
        <time>2018-08-05T07:08:44.000Z</time>
      </trkpt>
      <trkpt lat="46.03009" lon="4.51919">
        <ele>476</ele>
        <time>2018-08-05T07:08:45.000Z</time>
      </trkpt>
      <trkpt lat="46.03007" lon="4.51923">
        <ele>476</ele>
        <time>2018-08-05T07:08:46.000Z</time>
      </trkpt>
      <trkpt lat="46.03006" lon="4.51928">
        <ele>477</ele>
        <time>2018-08-05T07:08:47.000Z</time>
      </trkpt>
      <trkpt lat="46.03005" lon="4.51932">
        <ele>478</ele>
        <time>2018-08-05T07:08:48.000Z</time>
      </trkpt>
      <trkpt lat="46.03004" lon="4.51937">
        <ele>479</ele>
        <time>2018-08-05T07:08:49.000Z</time>
      </trkpt>
      <trkpt lat="46.03003" lon="4.51942">
        <ele>480</ele>
        <time>2018-08-05T07:08:50.000Z</time>
      </trkpt>
      <trkpt lat="46.03003" lon="4.51947">
        <ele>481</ele>
        <time>2018-08-05T07:08:51.000Z</time>
      </trkpt>
      <trkpt lat="46.03002" lon="4.51952">
        <ele>482</ele>
        <time>2018-08-05T07:08:52.000Z</time>
      </trkpt>
      <trkpt lat="46.03002" lon="4.51957">
        <ele>482</ele>
        <time>2018-08-05T07:08:53.000Z</time>
      </trkpt>
      <trkpt lat="46.03002" lon="4.51962">
        <ele>482</ele>
        <time>2018-08-05T07:08:54.000Z</time>
      </trkpt>
      <trkpt lat="46.03002" lon="4.51967">
        <ele>482</ele>
        <time>2018-08-05T07:08:55.000Z</time>
      </trkpt>
      <trkpt lat="46.03002" lon="4.51972">
        <ele>482</ele>
        <time>2018-08-05T07:08:56.000Z</time>
      </trkpt>
      <trkpt lat="46.03003" lon="4.51977">
        <ele>482</ele>
        <time>2018-08-05T07:08:57.000Z</time>
      </trkpt>
      <trkpt lat="46.03003" lon="4.51982">
        <ele>482</ele>
        <time>2018-08-05T07:08:58.000Z</time>
      </trkpt>
      <trkpt lat="46.03004" lon="4.51987">
        <ele>481</ele>
        <time>2018-08-05T07:08:59.000Z</time>
      </trkpt>
      <trkpt lat="46.03004" lon="4.51992">
        <ele>481</ele>
        <time>2018-08-05T07:09:00.000Z</time>
      </trkpt>
      <trkpt lat="46.03005" lon="4.51997">
        <ele>480</ele>
        <time>2018-08-05T07:09:01.000Z</time>
      </trkpt>
      <trkpt lat="46.03005" lon="4.52001">
        <ele>481</ele>
        <time>2018-08-05T07:09:02.000Z</time>
      </trkpt>
      <trkpt lat="46.03006" lon="4.52006">
        <ele>482</ele>
        <time>2018-08-05T07:09:03.000Z</time>
      </trkpt>
      <trkpt lat="46.03007" lon="4.52011">
        <ele>484</ele>
        <time>2018-08-05T07:09:04.000Z</time>
      </trkpt>
      <trkpt lat="46.03008" lon="4.52016">
        <ele>485</ele>
        <time>2018-08-05T07:09:05.000Z</time>
      </trkpt>
      <trkpt lat="46.03009" lon="4.5202">
        <ele>486</ele>
        <time>2018-08-05T07:09:06.000Z</time>
      </trkpt>
      <trkpt lat="46.0301" lon="4.52025">
        <ele>487</ele>
        <time>2018-08-05T07:09:07.000Z</time>
      </trkpt>
      <trkpt lat="46.03011" lon="4.5203">
        <ele>487</ele>
        <time>2018-08-05T07:09:08.000Z</time>
      </trkpt>
      <trkpt lat="46.03012" lon="4.52034">
        <ele>488</ele>
        <time>2018-08-05T07:09:09.000Z</time>
      </trkpt>
      <trkpt lat="46.03014" lon="4.52039">
        <ele>488</ele>
        <time>2018-08-05T07:09:10.000Z</time>
      </trkpt>
      <trkpt lat="46.03015" lon="4.52043">
        <ele>488</ele>
        <time>2018-08-05T07:09:11.000Z</time>
      </trkpt>
      <trkpt lat="46.03016" lon="4.52048">
        <ele>488</ele>
        <time>2018-08-05T07:09:12.000Z</time>
      </trkpt>
      <trkpt lat="46.03017" lon="4.52053">
        <ele>488</ele>
        <time>2018-08-05T07:09:13.000Z</time>
      </trkpt>
      <trkpt lat="46.03019" lon="4.52057">
        <ele>488</ele>
        <time>2018-08-05T07:09:14.000Z</time>
      </trkpt>
      <trkpt lat="46.0302" lon="4.52062">
        <ele>487</ele>
        <time>2018-08-05T07:09:15.000Z</time>
      </trkpt>
      <trkpt lat="46.03022" lon="4.52066">
        <ele>487</ele>
        <time>2018-08-05T07:09:16.000Z</time>
      </trkpt>
      <trkpt lat="46.03023" lon="4.52071">
        <ele>487</ele>
        <time>2018-08-05T07:09:17.000Z</time>
      </trkpt>
      <trkpt lat="46.03025" lon="4.52075">
        <ele>487</ele>
        <time>2018-08-05T07:09:18.000Z</time>
      </trkpt>
      <trkpt lat="46.03026" lon="4.5208">
        <ele>488</ele>
        <time>2018-08-05T07:09:19.000Z</time>
      </trkpt>
      <trkpt lat="46.03027" lon="4.52084">
        <ele>489</ele>
        <time>2018-08-05T07:09:20.000Z</time>
      </trkpt>
      <trkpt lat="46.03029" lon="4.52088">
        <ele>489</ele>
        <time>2018-08-05T07:09:21.000Z</time>
      </trkpt>
      <trkpt lat="46.0303" lon="4.52092">
        <ele>490</ele>
        <time>2018-08-05T07:09:22.000Z</time>
      </trkpt>
      <trkpt lat="46.03031" lon="4.52097">
        <ele>490</ele>
        <time>2018-08-05T07:09:23.000Z</time>
      </trkpt>
      <trkpt lat="46.03032" lon="4.52101">
        <ele>491</ele>
        <time>2018-08-05T07:09:24.000Z</time>
      </trkpt>
      <trkpt lat="46.03033" lon="4.52106">
        <ele>492</ele>
        <time>2018-08-05T07:09:25.000Z</time>
      </trkpt>
      <trkpt lat="46.03035" lon="4.5211">
        <ele>492</ele>
        <time>2018-08-05T07:09:26.000Z</time>
      </trkpt>
      <trkpt lat="46.03036" lon="4.52115">
        <ele>492</ele>
        <time>2018-08-05T07:09:27.000Z</time>
      </trkpt>
      <trkpt lat="46.03037" lon="4.52119">
        <ele>493</ele>
        <time>2018-08-05T07:09:28.000Z</time>
      </trkpt>
      <trkpt lat="46.03038" lon="4.52124">
        <ele>493</ele>
        <time>2018-08-05T07:09:29.000Z</time>
      </trkpt>
      <trkpt lat="46.03039" lon="4.52129">
        <ele>493</ele>
        <time>2018-08-05T07:09:30.000Z</time>
      </trkpt>
      <trkpt lat="46.03039" lon="4.52134">
        <ele>494</ele>
        <time>2018-08-05T07:09:31.000Z</time>
      </trkpt>
      <trkpt lat="46.0304" lon="4.52139">
        <ele>494</ele>
        <time>2018-08-05T07:09:32.000Z</time>
      </trkpt>
      <trkpt lat="46.03041" lon="4.52144">
        <ele>494</ele>
        <time>2018-08-05T07:09:33.000Z</time>
      </trkpt>
      <trkpt lat="46.03041" lon="4.52149">
        <ele>494</ele>
        <time>2018-08-05T07:09:34.000Z</time>
      </trkpt>
      <trkpt lat="46.03041" lon="4.52154">
        <ele>494</ele>
        <time>2018-08-05T07:09:35.000Z</time>
      </trkpt>
      <trkpt lat="46.03041" lon="4.52159">
        <ele>494</ele>
        <time>2018-08-05T07:09:36.000Z</time>
      </trkpt>
      <trkpt lat="46.03041" lon="4.52164">
        <ele>494</ele>
        <time>2018-08-05T07:09:37.000Z</time>
      </trkpt>
      <trkpt lat="46.0304" lon="4.5217">
        <ele>496</ele>
        <time>2018-08-05T07:09:38.000Z</time>
      </trkpt>
      <trkpt lat="46.03039" lon="4.52175">
        <ele>496</ele>
        <time>2018-08-05T07:09:39.000Z</time>
      </trkpt>
      <trkpt lat="46.03038" lon="4.5218">
        <ele>496</ele>
        <time>2018-08-05T07:09:40.000Z</time>
      </trkpt>
      <trkpt lat="46.03037" lon="4.52185">
        <ele>496</ele>
        <time>2018-08-05T07:09:41.000Z</time>
      </trkpt>
      <trkpt lat="46.03036" lon="4.5219">
        <ele>496</ele>
        <time>2018-08-05T07:09:42.000Z</time>
      </trkpt>
      <trkpt lat="46.03034" lon="4.52195">
        <ele>496</ele>
        <time>2018-08-05T07:09:43.000Z</time>
      </trkpt>
      <trkpt lat="46.03032" lon="4.52199">
        <ele>496</ele>
        <time>2018-08-05T07:09:44.000Z</time>
      </trkpt>
      <trkpt lat="46.03031" lon="4.52203">
        <ele>496</ele>
        <time>2018-08-05T07:09:45.000Z</time>
      </trkpt>
      <trkpt lat="46.03029" lon="4.52207">
        <ele>495</ele>
        <time>2018-08-05T07:09:46.000Z</time>
      </trkpt>
      <trkpt lat="46.03027" lon="4.52212">
        <ele>495</ele>
        <time>2018-08-05T07:09:47.000Z</time>
      </trkpt>
      <trkpt lat="46.03025" lon="4.52216">
        <ele>495</ele>
        <time>2018-08-05T07:09:48.000Z</time>
      </trkpt>
      <trkpt lat="46.03024" lon="4.52221">
        <ele>495</ele>
        <time>2018-08-05T07:09:49.000Z</time>
      </trkpt>
      <trkpt lat="46.03022" lon="4.52226">
        <ele>494</ele>
        <time>2018-08-05T07:09:50.000Z</time>
      </trkpt>
      <trkpt lat="46.03021" lon="4.5223">
        <ele>494</ele>
        <time>2018-08-05T07:09:51.000Z</time>
      </trkpt>
      <trkpt lat="46.0302" lon="4.52235">
        <ele>493</ele>
        <time>2018-08-05T07:09:52.000Z</time>
      </trkpt>
      <trkpt lat="46.03019" lon="4.52239">
        <ele>493</ele>
        <time>2018-08-05T07:09:53.000Z</time>
      </trkpt>
      <trkpt lat="46.03018" lon="4.52244">
        <ele>492</ele>
        <time>2018-08-05T07:09:54.000Z</time>
      </trkpt>
      <trkpt lat="46.03016" lon="4.52249">
        <ele>491</ele>
        <time>2018-08-05T07:09:55.000Z</time>
      </trkpt>
      <trkpt lat="46.03016" lon="4.52253">
        <ele>493</ele>
        <time>2018-08-05T07:09:56.000Z</time>
      </trkpt>
      <trkpt lat="46.03015" lon="4.52258">
        <ele>493</ele>
        <time>2018-08-05T07:09:57.000Z</time>
      </trkpt>
      <trkpt lat="46.03014" lon="4.52263">
        <ele>494</ele>
        <time>2018-08-05T07:09:58.000Z</time>
      </trkpt>
      <trkpt lat="46.03013" lon="4.52268">
        <ele>495</ele>
        <time>2018-08-05T07:09:59.000Z</time>
      </trkpt>
      <trkpt lat="46.03013" lon="4.52273">
        <ele>495</ele>
        <time>2018-08-05T07:10:00.000Z</time>
      </trkpt>
      <trkpt lat="46.03012" lon="4.52278">
        <ele>496</ele>
        <time>2018-08-05T07:10:01.000Z</time>
      </trkpt>
      <trkpt lat="46.03012" lon="4.52283">
        <ele>497</ele>
        <time>2018-08-05T07:10:02.000Z</time>
      </trkpt>
      <trkpt lat="46.03011" lon="4.52289">
        <ele>497</ele>
        <time>2018-08-05T07:10:03.000Z</time>
      </trkpt>
      <trkpt lat="46.03011" lon="4.52294">
        <ele>497</ele>
        <time>2018-08-05T07:10:04.000Z</time>
      </trkpt>
      <trkpt lat="46.03011" lon="4.52299">
        <ele>497</ele>
        <time>2018-08-05T07:10:05.000Z</time>
      </trkpt>
      <trkpt lat="46.03011" lon="4.52304">
        <ele>497</ele>
        <time>2018-08-05T07:10:06.000Z</time>
      </trkpt>
      <trkpt lat="46.03011" lon="4.52309">
        <ele>496</ele>
        <time>2018-08-05T07:10:07.000Z</time>
      </trkpt>
      <trkpt lat="46.03011" lon="4.52314">
        <ele>495</ele>
        <time>2018-08-05T07:10:08.000Z</time>
      </trkpt>
      <trkpt lat="46.03011" lon="4.52318">
        <ele>495</ele>
        <time>2018-08-05T07:10:09.000Z</time>
      </trkpt>
      <trkpt lat="46.03012" lon="4.52323">
        <ele>494</ele>
        <time>2018-08-05T07:10:10.000Z</time>
      </trkpt>
      <trkpt lat="46.03013" lon="4.52327">
        <ele>494</ele>
        <time>2018-08-05T07:10:11.000Z</time>
      </trkpt>
      <trkpt lat="46.03014" lon="4.52332">
        <ele>494</ele>
        <time>2018-08-05T07:10:12.000Z</time>
      </trkpt>
      <trkpt lat="46.03015" lon="4.52336">
        <ele>492</ele>
        <time>2018-08-05T07:10:13.000Z</time>
      </trkpt>
      <trkpt lat="46.03017" lon="4.5234">
        <ele>493</ele>
        <time>2018-08-05T07:10:14.000Z</time>
      </trkpt>
      <trkpt lat="46.03019" lon="4.52343">
        <ele>494</ele>
        <time>2018-08-05T07:10:15.000Z</time>
      </trkpt>
      <trkpt lat="46.03021" lon="4.52347">
        <ele>494</ele>
        <time>2018-08-05T07:10:16.000Z</time>
      </trkpt>
      <trkpt lat="46.03023" lon="4.52351">
        <ele>495</ele>
        <time>2018-08-05T07:10:17.000Z</time>
      </trkpt>
      <trkpt lat="46.03025" lon="4.52354">
        <ele>495</ele>
        <time>2018-08-05T07:10:18.000Z</time>
      </trkpt>
      <trkpt lat="46.03028" lon="4.52357">
        <ele>496</ele>
        <time>2018-08-05T07:10:19.000Z</time>
      </trkpt>
      <trkpt lat="46.0303" lon="4.52361">
        <ele>496</ele>
        <time>2018-08-05T07:10:20.000Z</time>
      </trkpt>
      <trkpt lat="46.03033" lon="4.52363">
        <ele>497</ele>
        <time>2018-08-05T07:10:21.000Z</time>
      </trkpt>
      <trkpt lat="46.03036" lon="4.52366">
        <ele>497</ele>
        <time>2018-08-05T07:10:22.000Z</time>
      </trkpt>
      <trkpt lat="46.03039" lon="4.52368">
        <ele>497</ele>
        <time>2018-08-05T07:10:23.000Z</time>
      </trkpt>
      <trkpt lat="46.03042" lon="4.52371">
        <ele>498</ele>
        <time>2018-08-05T07:10:24.000Z</time>
      </trkpt>
      <trkpt lat="46.03045" lon="4.52374">
        <ele>498</ele>
        <time>2018-08-05T07:10:25.000Z</time>
      </trkpt>
      <trkpt lat="46.03047" lon="4.52376">
        <ele>498</ele>
        <time>2018-08-05T07:10:26.000Z</time>
      </trkpt>
      <trkpt lat="46.0305" lon="4.52379">
        <ele>498</ele>
        <time>2018-08-05T07:10:27.000Z</time>
      </trkpt>
      <trkpt lat="46.03053" lon="4.52382">
        <ele>499</ele>
        <time>2018-08-05T07:10:28.000Z</time>
      </trkpt>
      <trkpt lat="46.03056" lon="4.52384">
        <ele>499</ele>
        <time>2018-08-05T07:10:29.000Z</time>
      </trkpt>
      <trkpt lat="46.03059" lon="4.52386">
        <ele>499</ele>
        <time>2018-08-05T07:10:30.000Z</time>
      </trkpt>
      <trkpt lat="46.03061" lon="4.52388">
        <ele>499</ele>
        <time>2018-08-05T07:10:31.000Z</time>
      </trkpt>
      <trkpt lat="46.03064" lon="4.52391">
        <ele>499</ele>
        <time>2018-08-05T07:10:32.000Z</time>
      </trkpt>
      <trkpt lat="46.03066" lon="4.52393">
        <ele>500</ele>
        <time>2018-08-05T07:10:33.000Z</time>
      </trkpt>
      <trkpt lat="46.03069" lon="4.52396">
        <ele>500</ele>
        <time>2018-08-05T07:10:34.000Z</time>
      </trkpt>
      <trkpt lat="46.03072" lon="4.52398">
        <ele>500</ele>
        <time>2018-08-05T07:10:35.000Z</time>
      </trkpt>
      <trkpt lat="46.03074" lon="4.52401">
        <ele>500</ele>
        <time>2018-08-05T07:10:36.000Z</time>
      </trkpt>
      <trkpt lat="46.03077" lon="4.52403">
        <ele>500</ele>
        <time>2018-08-05T07:10:37.000Z</time>
      </trkpt>
      <trkpt lat="46.0308" lon="4.52406">
        <ele>501</ele>
        <time>2018-08-05T07:10:38.000Z</time>
      </trkpt>
      <trkpt lat="46.03083" lon="4.52409">
        <ele>501</ele>
        <time>2018-08-05T07:10:39.000Z</time>
      </trkpt>
      <trkpt lat="46.03086" lon="4.52412">
        <ele>506</ele>
        <time>2018-08-05T07:10:40.000Z</time>
      </trkpt>
      <trkpt lat="46.03089" lon="4.52415">
        <ele>506</ele>
        <time>2018-08-05T07:10:41.000Z</time>
      </trkpt>
      <trkpt lat="46.03091" lon="4.52418">
        <ele>505</ele>
        <time>2018-08-05T07:10:42.000Z</time>
      </trkpt>
      <trkpt lat="46.03094" lon="4.52421">
        <ele>506</ele>
        <time>2018-08-05T07:10:43.000Z</time>
      </trkpt>
      <trkpt lat="46.03096" lon="4.52424">
        <ele>507</ele>
        <time>2018-08-05T07:10:44.000Z</time>
      </trkpt>
      <trkpt lat="46.03099" lon="4.52427">
        <ele>507</ele>
        <time>2018-08-05T07:10:45.000Z</time>
      </trkpt>
      <trkpt lat="46.03101" lon="4.5243">
        <ele>508</ele>
        <time>2018-08-05T07:10:46.000Z</time>
      </trkpt>
      <trkpt lat="46.03103" lon="4.52434">
        <ele>509</ele>
        <time>2018-08-05T07:10:47.000Z</time>
      </trkpt>
      <trkpt lat="46.03106" lon="4.52437">
        <ele>509</ele>
        <time>2018-08-05T07:10:48.000Z</time>
      </trkpt>
      <trkpt lat="46.03109" lon="4.52441">
        <ele>510</ele>
        <time>2018-08-05T07:10:49.000Z</time>
      </trkpt>
      <trkpt lat="46.03111" lon="4.52444">
        <ele>510</ele>
        <time>2018-08-05T07:10:50.000Z</time>
      </trkpt>
      <trkpt lat="46.03113" lon="4.52448">
        <ele>511</ele>
        <time>2018-08-05T07:10:51.000Z</time>
      </trkpt>
      <trkpt lat="46.03116" lon="4.52451">
        <ele>511</ele>
        <time>2018-08-05T07:10:52.000Z</time>
      </trkpt>
      <trkpt lat="46.03118" lon="4.52455">
        <ele>511</ele>
        <time>2018-08-05T07:10:53.000Z</time>
      </trkpt>
      <trkpt lat="46.0312" lon="4.52459">
        <ele>511</ele>
        <time>2018-08-05T07:10:54.000Z</time>
      </trkpt>
      <trkpt lat="46.03122" lon="4.52464">
        <ele>511</ele>
        <time>2018-08-05T07:10:55.000Z</time>
      </trkpt>
      <trkpt lat="46.03124" lon="4.52468">
        <ele>511</ele>
        <time>2018-08-05T07:10:56.000Z</time>
      </trkpt>
      <trkpt lat="46.03125" lon="4.52473">
        <ele>511</ele>
        <time>2018-08-05T07:10:57.000Z</time>
      </trkpt>
      <trkpt lat="46.03125" lon="4.52478">
        <ele>511</ele>
        <time>2018-08-05T07:10:58.000Z</time>
      </trkpt>
      <trkpt lat="46.03125" lon="4.52483">
        <ele>511</ele>
        <time>2018-08-05T07:10:59.000Z</time>
      </trkpt>
      <trkpt lat="46.03125" lon="4.52488">
        <ele>511</ele>
        <time>2018-08-05T07:11:00.000Z</time>
      </trkpt>
      <trkpt lat="46.03124" lon="4.52492">
        <ele>511</ele>
        <time>2018-08-05T07:11:01.000Z</time>
      </trkpt>
      <trkpt lat="46.03123" lon="4.52497">
        <ele>511</ele>
        <time>2018-08-05T07:11:02.000Z</time>
      </trkpt>
      <trkpt lat="46.03121" lon="4.52501">
        <ele>513</ele>
        <time>2018-08-05T07:11:03.000Z</time>
      </trkpt>
      <trkpt lat="46.03119" lon="4.52504">
        <ele>513</ele>
        <time>2018-08-05T07:11:04.000Z</time>
      </trkpt>
      <trkpt lat="46.03116" lon="4.52507">
        <ele>513</ele>
        <time>2018-08-05T07:11:05.000Z</time>
      </trkpt>
      <trkpt lat="46.03113" lon="4.52509">
        <ele>512</ele>
        <time>2018-08-05T07:11:06.000Z</time>
      </trkpt>
      <trkpt lat="46.03111" lon="4.52511">
        <ele>512</ele>
        <time>2018-08-05T07:11:07.000Z</time>
      </trkpt>
      <trkpt lat="46.03108" lon="4.52513">
        <ele>512</ele>
        <time>2018-08-05T07:11:08.000Z</time>
      </trkpt>
      <trkpt lat="46.03105" lon="4.52513">
        <ele>511</ele>
        <time>2018-08-05T07:11:09.000Z</time>
      </trkpt>
      <trkpt lat="46.03102" lon="4.52514">
        <ele>511</ele>
        <time>2018-08-05T07:11:10.000Z</time>
      </trkpt>
      <trkpt lat="46.03098" lon="4.52514">
        <ele>510</ele>
        <time>2018-08-05T07:11:11.000Z</time>
      </trkpt>
      <trkpt lat="46.03095" lon="4.52514">
        <ele>510</ele>
        <time>2018-08-05T07:11:12.000Z</time>
      </trkpt>
      <trkpt lat="46.03092" lon="4.52514">
        <ele>509</ele>
        <time>2018-08-05T07:11:13.000Z</time>
      </trkpt>
      <trkpt lat="46.03088" lon="4.52515">
        <ele>509</ele>
        <time>2018-08-05T07:11:14.000Z</time>
      </trkpt>
      <trkpt lat="46.03085" lon="4.52515">
        <ele>509</ele>
        <time>2018-08-05T07:11:15.000Z</time>
      </trkpt>
      <trkpt lat="46.03081" lon="4.52515">
        <ele>503</ele>
        <time>2018-08-05T07:11:16.000Z</time>
      </trkpt>
      <trkpt lat="46.03078" lon="4.52515">
        <ele>503</ele>
        <time>2018-08-05T07:11:17.000Z</time>
      </trkpt>
      <trkpt lat="46.03075" lon="4.52515">
        <ele>503</ele>
        <time>2018-08-05T07:11:18.000Z</time>
      </trkpt>
      <trkpt lat="46.03072" lon="4.52516">
        <ele>503</ele>
        <time>2018-08-05T07:11:19.000Z</time>
      </trkpt>
      <trkpt lat="46.03068" lon="4.52516">
        <ele>502</ele>
        <time>2018-08-05T07:11:20.000Z</time>
      </trkpt>
      <trkpt lat="46.03065" lon="4.52517">
        <ele>502</ele>
        <time>2018-08-05T07:11:21.000Z</time>
      </trkpt>
      <trkpt lat="46.03062" lon="4.52517">
        <ele>502</ele>
        <time>2018-08-05T07:11:22.000Z</time>
      </trkpt>
      <trkpt lat="46.03058" lon="4.52519">
        <ele>502</ele>
        <time>2018-08-05T07:11:23.000Z</time>
      </trkpt>
      <trkpt lat="46.03055" lon="4.52521">
        <ele>502</ele>
        <time>2018-08-05T07:11:24.000Z</time>
      </trkpt>
      <trkpt lat="46.03052" lon="4.52524">
        <ele>501</ele>
        <time>2018-08-05T07:11:25.000Z</time>
      </trkpt>
      <trkpt lat="46.03049" lon="4.52526">
        <ele>501</ele>
        <time>2018-08-05T07:11:26.000Z</time>
      </trkpt>
      <trkpt lat="46.03047" lon="4.5253">
        <ele>501</ele>
        <time>2018-08-05T07:11:27.000Z</time>
      </trkpt>
      <trkpt lat="46.03044" lon="4.52533">
        <ele>501</ele>
        <time>2018-08-05T07:11:28.000Z</time>
      </trkpt>
      <trkpt lat="46.03042" lon="4.52537">
        <ele>501</ele>
        <time>2018-08-05T07:11:29.000Z</time>
      </trkpt>
      <trkpt lat="46.03041" lon="4.52541">
        <ele>501</ele>
        <time>2018-08-05T07:11:30.000Z</time>
      </trkpt>
      <trkpt lat="46.0304" lon="4.52545">
        <ele>502</ele>
        <time>2018-08-05T07:11:31.000Z</time>
      </trkpt>
      <trkpt lat="46.03038" lon="4.5255">
        <ele>502</ele>
        <time>2018-08-05T07:11:32.000Z</time>
      </trkpt>
      <trkpt lat="46.03037" lon="4.52555">
        <ele>502</ele>
        <time>2018-08-05T07:11:33.000Z</time>
      </trkpt>
      <trkpt lat="46.03037" lon="4.5256">
        <ele>502</ele>
        <time>2018-08-05T07:11:34.000Z</time>
      </trkpt>
      <trkpt lat="46.03037" lon="4.52565">
        <ele>502</ele>
        <time>2018-08-05T07:11:35.000Z</time>
      </trkpt>
      <trkpt lat="46.03036" lon="4.5257">
        <ele>502</ele>
        <time>2018-08-05T07:11:36.000Z</time>
      </trkpt>
      <trkpt lat="46.03037" lon="4.52575">
        <ele>502</ele>
        <time>2018-08-05T07:11:37.000Z</time>
      </trkpt>
      <trkpt lat="46.03037" lon="4.5258">
        <ele>503</ele>
        <time>2018-08-05T07:11:38.000Z</time>
      </trkpt>
      <trkpt lat="46.03037" lon="4.52585">
        <ele>508</ele>
        <time>2018-08-05T07:11:39.000Z</time>
      </trkpt>
      <trkpt lat="46.03038" lon="4.5259">
        <ele>508</ele>
        <time>2018-08-05T07:11:40.000Z</time>
      </trkpt>
      <trkpt lat="46.03039" lon="4.52595">
        <ele>508</ele>
        <time>2018-08-05T07:11:41.000Z</time>
      </trkpt>
      <trkpt lat="46.03039" lon="4.526">
        <ele>509</ele>
        <time>2018-08-05T07:11:42.000Z</time>
      </trkpt>
      <trkpt lat="46.0304" lon="4.52605">
        <ele>509</ele>
        <time>2018-08-05T07:11:43.000Z</time>
      </trkpt>
      <trkpt lat="46.0304" lon="4.5261">
        <ele>509</ele>
        <time>2018-08-05T07:11:44.000Z</time>
      </trkpt>
      <trkpt lat="46.03041" lon="4.52615">
        <ele>509</ele>
        <time>2018-08-05T07:11:45.000Z</time>
      </trkpt>
      <trkpt lat="46.03041" lon="4.5262">
        <ele>510</ele>
        <time>2018-08-05T07:11:46.000Z</time>
      </trkpt>
      <trkpt lat="46.03042" lon="4.52624">
        <ele>510</ele>
        <time>2018-08-05T07:11:47.000Z</time>
      </trkpt>
      <trkpt lat="46.03042" lon="4.52629">
        <ele>510</ele>
        <time>2018-08-05T07:11:48.000Z</time>
      </trkpt>
      <trkpt lat="46.03043" lon="4.52634">
        <ele>510</ele>
        <time>2018-08-05T07:11:49.000Z</time>
      </trkpt>
      <trkpt lat="46.03043" lon="4.5264">
        <ele>511</ele>
        <time>2018-08-05T07:11:50.000Z</time>
      </trkpt>
      <trkpt lat="46.03043" lon="4.52645">
        <ele>511</ele>
        <time>2018-08-05T07:11:51.000Z</time>
      </trkpt>
      <trkpt lat="46.03043" lon="4.5265">
        <ele>511</ele>
        <time>2018-08-05T07:11:52.000Z</time>
      </trkpt>
      <trkpt lat="46.03044" lon="4.52655">
        <ele>511</ele>
        <time>2018-08-05T07:11:53.000Z</time>
      </trkpt>
      <trkpt lat="46.03044" lon="4.52659">
        <ele>512</ele>
        <time>2018-08-05T07:11:54.000Z</time>
      </trkpt>
      <trkpt lat="46.03044" lon="4.52664">
        <ele>512</ele>
        <time>2018-08-05T07:11:55.000Z</time>
      </trkpt>
      <trkpt lat="46.03044" lon="4.52669">
        <ele>515</ele>
        <time>2018-08-05T07:11:56.000Z</time>
      </trkpt>
      <trkpt lat="46.03044" lon="4.52674">
        <ele>515</ele>
        <time>2018-08-05T07:11:57.000Z</time>
      </trkpt>
      <trkpt lat="46.03044" lon="4.52679">
        <ele>515</ele>
        <time>2018-08-05T07:11:58.000Z</time>
      </trkpt>
      <trkpt lat="46.03044" lon="4.52684">
        <ele>515</ele>
        <time>2018-08-05T07:11:59.000Z</time>
      </trkpt>
      <trkpt lat="46.03043" lon="4.52689">
        <ele>515</ele>
        <time>2018-08-05T07:12:00.000Z</time>
      </trkpt>
      <trkpt lat="46.03043" lon="4.52693">
        <ele>515</ele>
        <time>2018-08-05T07:12:01.000Z</time>
      </trkpt>
      <trkpt lat="46.03043" lon="4.52698">
        <ele>515</ele>
        <time>2018-08-05T07:12:02.000Z</time>
      </trkpt>
      <trkpt lat="46.03043" lon="4.52703">
        <ele>515</ele>
        <time>2018-08-05T07:12:03.000Z</time>
      </trkpt>
      <trkpt lat="46.03043" lon="4.52708">
        <ele>515</ele>
        <time>2018-08-05T07:12:04.000Z</time>
      </trkpt>
      <trkpt lat="46.03043" lon="4.52713">
        <ele>516</ele>
        <time>2018-08-05T07:12:05.000Z</time>
      </trkpt>
      <trkpt lat="46.03042" lon="4.52718">
        <ele>516</ele>
        <time>2018-08-05T07:12:06.000Z</time>
      </trkpt>
      <trkpt lat="46.03042" lon="4.52723">
        <ele>516</ele>
        <time>2018-08-05T07:12:07.000Z</time>
      </trkpt>
      <trkpt lat="46.03042" lon="4.52728">
        <ele>516</ele>
        <time>2018-08-05T07:12:08.000Z</time>
      </trkpt>
      <trkpt lat="46.03042" lon="4.52733">
        <ele>516</ele>
        <time>2018-08-05T07:12:09.000Z</time>
      </trkpt>
      <trkpt lat="46.03042" lon="4.52738">
        <ele>516</ele>
        <time>2018-08-05T07:12:10.000Z</time>
      </trkpt>
      <trkpt lat="46.03042" lon="4.52743">
        <ele>516</ele>
        <time>2018-08-05T07:12:11.000Z</time>
      </trkpt>
      <trkpt lat="46.03041" lon="4.52748">
        <ele>516</ele>
        <time>2018-08-05T07:12:12.000Z</time>
      </trkpt>
      <trkpt lat="46.03041" lon="4.52753">
        <ele>519</ele>
        <time>2018-08-05T07:12:13.000Z</time>
      </trkpt>
      <trkpt lat="46.03041" lon="4.52759">
        <ele>519</ele>
        <time>2018-08-05T07:12:14.000Z</time>
      </trkpt>
      <trkpt lat="46.03041" lon="4.52764">
        <ele>519</ele>
        <time>2018-08-05T07:12:15.000Z</time>
      </trkpt>
      <trkpt lat="46.03041" lon="4.52769">
        <ele>519</ele>
        <time>2018-08-05T07:12:16.000Z</time>
      </trkpt>
      <trkpt lat="46.03041" lon="4.52774">
        <ele>519</ele>
        <time>2018-08-05T07:12:17.000Z</time>
      </trkpt>
      <trkpt lat="46.0304" lon="4.52779">
        <ele>520</ele>
        <time>2018-08-05T07:12:18.000Z</time>
      </trkpt>
      <trkpt lat="46.0304" lon="4.52785">
        <ele>520</ele>
        <time>2018-08-05T07:12:19.000Z</time>
      </trkpt>
      <trkpt lat="46.0304" lon="4.5279">
        <ele>520</ele>
        <time>2018-08-05T07:12:20.000Z</time>
      </trkpt>
      <trkpt lat="46.0304" lon="4.52795">
        <ele>520</ele>
        <time>2018-08-05T07:12:21.000Z</time>
      </trkpt>
      <trkpt lat="46.03039" lon="4.528">
        <ele>520</ele>
        <time>2018-08-05T07:12:22.000Z</time>
      </trkpt>
      <trkpt lat="46.03039" lon="4.52806">
        <ele>520</ele>
        <time>2018-08-05T07:12:23.000Z</time>
      </trkpt>
      <trkpt lat="46.03039" lon="4.52811">
        <ele>520</ele>
        <time>2018-08-05T07:12:24.000Z</time>
      </trkpt>
      <trkpt lat="46.03038" lon="4.52816">
        <ele>520</ele>
        <time>2018-08-05T07:12:25.000Z</time>
      </trkpt>
      <trkpt lat="46.03038" lon="4.52821">
        <ele>520</ele>
        <time>2018-08-05T07:12:26.000Z</time>
      </trkpt>
      <trkpt lat="46.03037" lon="4.52826">
        <ele>520</ele>
        <time>2018-08-05T07:12:27.000Z</time>
      </trkpt>
      <trkpt lat="46.03037" lon="4.52831">
        <ele>520</ele>
        <time>2018-08-05T07:12:28.000Z</time>
      </trkpt>
      <trkpt lat="46.03036" lon="4.52837">
        <ele>523</ele>
        <time>2018-08-05T07:12:29.000Z</time>
      </trkpt>
      <trkpt lat="46.03035" lon="4.52842">
        <ele>523</ele>
        <time>2018-08-05T07:12:30.000Z</time>
      </trkpt>
      <trkpt lat="46.03035" lon="4.52847">
        <ele>523</ele>
        <time>2018-08-05T07:12:31.000Z</time>
      </trkpt>
      <trkpt lat="46.03034" lon="4.52852">
        <ele>524</ele>
        <time>2018-08-05T07:12:32.000Z</time>
      </trkpt>
      <trkpt lat="46.03033" lon="4.52857">
        <ele>524</ele>
        <time>2018-08-05T07:12:33.000Z</time>
      </trkpt>
      <trkpt lat="46.03032" lon="4.52862">
        <ele>524</ele>
        <time>2018-08-05T07:12:34.000Z</time>
      </trkpt>
      <trkpt lat="46.03032" lon="4.52867">
        <ele>524</ele>
        <time>2018-08-05T07:12:35.000Z</time>
      </trkpt>
      <trkpt lat="46.03031" lon="4.52872">
        <ele>524</ele>
        <time>2018-08-05T07:12:36.000Z</time>
      </trkpt>
      <trkpt lat="46.0303" lon="4.52876">
        <ele>524</ele>
        <time>2018-08-05T07:12:37.000Z</time>
      </trkpt>
      <trkpt lat="46.0303" lon="4.52881">
        <ele>524</ele>
        <time>2018-08-05T07:12:38.000Z</time>
      </trkpt>
      <trkpt lat="46.03029" lon="4.52886">
        <ele>524</ele>
        <time>2018-08-05T07:12:39.000Z</time>
      </trkpt>
      <trkpt lat="46.03028" lon="4.52891">
        <ele>524</ele>
        <time>2018-08-05T07:12:40.000Z</time>
      </trkpt>
      <trkpt lat="46.03028" lon="4.52896">
        <ele>524</ele>
        <time>2018-08-05T07:12:41.000Z</time>
      </trkpt>
      <trkpt lat="46.03027" lon="4.52901">
        <ele>524</ele>
        <time>2018-08-05T07:12:42.000Z</time>
      </trkpt>
      <trkpt lat="46.03027" lon="4.52906">
        <ele>524</ele>
        <time>2018-08-05T07:12:43.000Z</time>
      </trkpt>
      <trkpt lat="46.03027" lon="4.52911">
        <ele>524</ele>
        <time>2018-08-05T07:12:44.000Z</time>
      </trkpt>
      <trkpt lat="46.03027" lon="4.52917">
        <ele>524</ele>
        <time>2018-08-05T07:12:45.000Z</time>
      </trkpt>
      <trkpt lat="46.03028" lon="4.52922">
        <ele>525</ele>
        <time>2018-08-05T07:12:46.000Z</time>
      </trkpt>
      <trkpt lat="46.03028" lon="4.52927">
        <ele>525</ele>
        <time>2018-08-05T07:12:47.000Z</time>
      </trkpt>
      <trkpt lat="46.03029" lon="4.52932">
        <ele>525</ele>
        <time>2018-08-05T07:12:48.000Z</time>
      </trkpt>
      <trkpt lat="46.03029" lon="4.52937">
        <ele>526</ele>
        <time>2018-08-05T07:12:49.000Z</time>
      </trkpt>
      <trkpt lat="46.0303" lon="4.52943">
        <ele>526</ele>
        <time>2018-08-05T07:12:50.000Z</time>
      </trkpt>
      <trkpt lat="46.03032" lon="4.52948">
        <ele>526</ele>
        <time>2018-08-05T07:12:51.000Z</time>
      </trkpt>
      <trkpt lat="46.03033" lon="4.52953">
        <ele>526</ele>
        <time>2018-08-05T07:12:52.000Z</time>
      </trkpt>
      <trkpt lat="46.03035" lon="4.52958">
        <ele>527</ele>
        <time>2018-08-05T07:12:53.000Z</time>
      </trkpt>
      <trkpt lat="46.03037" lon="4.52963">
        <ele>527</ele>
        <time>2018-08-05T07:12:54.000Z</time>
      </trkpt>
      <trkpt lat="46.03039" lon="4.52968">
        <ele>527</ele>
        <time>2018-08-05T07:12:55.000Z</time>
      </trkpt>
      <trkpt lat="46.03042" lon="4.52972">
        <ele>527</ele>
        <time>2018-08-05T07:12:56.000Z</time>
      </trkpt>
      <trkpt lat="46.03044" lon="4.52977">
        <ele>528</ele>
        <time>2018-08-05T07:12:57.000Z</time>
      </trkpt>
      <trkpt lat="46.03047" lon="4.52981">
        <ele>528</ele>
        <time>2018-08-05T07:12:58.000Z</time>
      </trkpt>
      <trkpt lat="46.03049" lon="4.52986">
        <ele>529</ele>
        <time>2018-08-05T07:12:59.000Z</time>
      </trkpt>
      <trkpt lat="46.03052" lon="4.5299">
        <ele>530</ele>
        <time>2018-08-05T07:13:00.000Z</time>
      </trkpt>
      <trkpt lat="46.03055" lon="4.52995">
        <ele>531</ele>
        <time>2018-08-05T07:13:01.000Z</time>
      </trkpt>
      <trkpt lat="46.03057" lon="4.52999">
        <ele>531</ele>
        <time>2018-08-05T07:13:02.000Z</time>
      </trkpt>
      <trkpt lat="46.0306" lon="4.53004">
        <ele>531</ele>
        <time>2018-08-05T07:13:03.000Z</time>
      </trkpt>
      <trkpt lat="46.03062" lon="4.53009">
        <ele>532</ele>
        <time>2018-08-05T07:13:04.000Z</time>
      </trkpt>
      <trkpt lat="46.03064" lon="4.53014">
        <ele>532</ele>
        <time>2018-08-05T07:13:05.000Z</time>
      </trkpt>
      <trkpt lat="46.03066" lon="4.53019">
        <ele>532</ele>
        <time>2018-08-05T07:13:06.000Z</time>
      </trkpt>
      <trkpt lat="46.03068" lon="4.53023">
        <ele>532</ele>
        <time>2018-08-05T07:13:07.000Z</time>
      </trkpt>
      <trkpt lat="46.03069" lon="4.53029">
        <ele>531</ele>
        <time>2018-08-05T07:13:08.000Z</time>
      </trkpt>
      <trkpt lat="46.0307" lon="4.53035">
        <ele>531</ele>
        <time>2018-08-05T07:13:09.000Z</time>
      </trkpt>
      <trkpt lat="46.0307" lon="4.5304">
        <ele>531</ele>
        <time>2018-08-05T07:13:10.000Z</time>
      </trkpt>
      <trkpt lat="46.03069" lon="4.53046">
        <ele>531</ele>
        <time>2018-08-05T07:13:11.000Z</time>
      </trkpt>
      <trkpt lat="46.03069" lon="4.53052">
        <ele>531</ele>
        <time>2018-08-05T07:13:12.000Z</time>
      </trkpt>
      <trkpt lat="46.03068" lon="4.53057">
        <ele>531</ele>
        <time>2018-08-05T07:13:13.000Z</time>
      </trkpt>
      <trkpt lat="46.03067" lon="4.53063">
        <ele>532</ele>
        <time>2018-08-05T07:13:14.000Z</time>
      </trkpt>
      <trkpt lat="46.03065" lon="4.53068">
        <ele>532</ele>
        <time>2018-08-05T07:13:15.000Z</time>
      </trkpt>
      <trkpt lat="46.03063" lon="4.53074">
        <ele>532</ele>
        <time>2018-08-05T07:13:16.000Z</time>
      </trkpt>
      <trkpt lat="46.03061" lon="4.53079">
        <ele>532</ele>
        <time>2018-08-05T07:13:17.000Z</time>
      </trkpt>
      <trkpt lat="46.03059" lon="4.53084">
        <ele>535</ele>
        <time>2018-08-05T07:13:18.000Z</time>
      </trkpt>
      <trkpt lat="46.03057" lon="4.53089">
        <ele>535</ele>
        <time>2018-08-05T07:13:19.000Z</time>
      </trkpt>
      <trkpt lat="46.03054" lon="4.53093">
        <ele>535</ele>
        <time>2018-08-05T07:13:20.000Z</time>
      </trkpt>
      <trkpt lat="46.03052" lon="4.53098">
        <ele>535</ele>
        <time>2018-08-05T07:13:21.000Z</time>
      </trkpt>
      <trkpt lat="46.03049" lon="4.53103">
        <ele>534</ele>
        <time>2018-08-05T07:13:22.000Z</time>
      </trkpt>
      <trkpt lat="46.03047" lon="4.53107">
        <ele>534</ele>
        <time>2018-08-05T07:13:23.000Z</time>
      </trkpt>
      <trkpt lat="46.03044" lon="4.53112">
        <ele>534</ele>
        <time>2018-08-05T07:13:24.000Z</time>
      </trkpt>
      <trkpt lat="46.03042" lon="4.53116">
        <ele>534</ele>
        <time>2018-08-05T07:13:25.000Z</time>
      </trkpt>
      <trkpt lat="46.03039" lon="4.53121">
        <ele>534</ele>
        <time>2018-08-05T07:13:26.000Z</time>
      </trkpt>
      <trkpt lat="46.03037" lon="4.53126">
        <ele>534</ele>
        <time>2018-08-05T07:13:27.000Z</time>
      </trkpt>
      <trkpt lat="46.03034" lon="4.5313">
        <ele>534</ele>
        <time>2018-08-05T07:13:28.000Z</time>
      </trkpt>
      <trkpt lat="46.03032" lon="4.53135">
        <ele>534</ele>
        <time>2018-08-05T07:13:29.000Z</time>
      </trkpt>
      <trkpt lat="46.03029" lon="4.5314">
        <ele>534</ele>
        <time>2018-08-05T07:13:30.000Z</time>
      </trkpt>
      <trkpt lat="46.03026" lon="4.53145">
        <ele>534</ele>
        <time>2018-08-05T07:13:31.000Z</time>
      </trkpt>
      <trkpt lat="46.03023" lon="4.53149">
        <ele>533</ele>
        <time>2018-08-05T07:13:32.000Z</time>
      </trkpt>
      <trkpt lat="46.03021" lon="4.53154">
        <ele>533</ele>
        <time>2018-08-05T07:13:33.000Z</time>
      </trkpt>
      <trkpt lat="46.03019" lon="4.53158">
        <ele>532</ele>
        <time>2018-08-05T07:13:34.000Z</time>
      </trkpt>
      <trkpt lat="46.03017" lon="4.53163">
        <ele>532</ele>
        <time>2018-08-05T07:13:35.000Z</time>
      </trkpt>
      <trkpt lat="46.03014" lon="4.53168">
        <ele>537</ele>
        <time>2018-08-05T07:13:36.000Z</time>
      </trkpt>
      <trkpt lat="46.03012" lon="4.53173">
        <ele>537</ele>
        <time>2018-08-05T07:13:37.000Z</time>
      </trkpt>
      <trkpt lat="46.0301" lon="4.53177">
        <ele>537</ele>
        <time>2018-08-05T07:13:38.000Z</time>
      </trkpt>
      <trkpt lat="46.03008" lon="4.53182">
        <ele>538</ele>
        <time>2018-08-05T07:13:39.000Z</time>
      </trkpt>
      <trkpt lat="46.03006" lon="4.53187">
        <ele>540</ele>
        <time>2018-08-05T07:13:40.000Z</time>
      </trkpt>
      <trkpt lat="46.03004" lon="4.53192">
        <ele>541</ele>
        <time>2018-08-05T07:13:41.000Z</time>
      </trkpt>
      <trkpt lat="46.03003" lon="4.53197">
        <ele>542</ele>
        <time>2018-08-05T07:13:42.000Z</time>
      </trkpt>
      <trkpt lat="46.03001" lon="4.53202">
        <ele>543</ele>
        <time>2018-08-05T07:13:43.000Z</time>
      </trkpt>
      <trkpt lat="46.02999" lon="4.53207">
        <ele>524</ele>
        <time>2018-08-05T07:13:44.000Z</time>
      </trkpt>
      <trkpt lat="46.02998" lon="4.53212">
        <ele>524</ele>
        <time>2018-08-05T07:13:45.000Z</time>
      </trkpt>
      <trkpt lat="46.02996" lon="4.53218">
        <ele>525</ele>
        <time>2018-08-05T07:13:46.000Z</time>
      </trkpt>
      <trkpt lat="46.02995" lon="4.53223">
        <ele>526</ele>
        <time>2018-08-05T07:13:47.000Z</time>
      </trkpt>
      <trkpt lat="46.02993" lon="4.53229">
        <ele>528</ele>
        <time>2018-08-05T07:13:48.000Z</time>
      </trkpt>
      <trkpt lat="46.02992" lon="4.53235">
        <ele>529</ele>
        <time>2018-08-05T07:13:49.000Z</time>
      </trkpt>
      <trkpt lat="46.02991" lon="4.53241">
        <ele>531</ele>
        <time>2018-08-05T07:13:50.000Z</time>
      </trkpt>
      <trkpt lat="46.0299" lon="4.53247">
        <ele>533</ele>
        <time>2018-08-05T07:13:51.000Z</time>
      </trkpt>
      <trkpt lat="46.0299" lon="4.53253">
        <ele>536</ele>
        <time>2018-08-05T07:13:52.000Z</time>
      </trkpt>
      <trkpt lat="46.02989" lon="4.53259">
        <ele>535</ele>
        <time>2018-08-05T07:13:53.000Z</time>
      </trkpt>
      <trkpt lat="46.02988" lon="4.53264">
        <ele>533</ele>
        <time>2018-08-05T07:13:54.000Z</time>
      </trkpt>
      <trkpt lat="46.02988" lon="4.5327">
        <ele>533</ele>
        <time>2018-08-05T07:13:55.000Z</time>
      </trkpt>
      <trkpt lat="46.02987" lon="4.53276">
        <ele>532</ele>
        <time>2018-08-05T07:13:56.000Z</time>
      </trkpt>
      <trkpt lat="46.02987" lon="4.53283">
        <ele>532</ele>
        <time>2018-08-05T07:13:57.000Z</time>
      </trkpt>
      <trkpt lat="46.02987" lon="4.53289">
        <ele>532</ele>
        <time>2018-08-05T07:13:58.000Z</time>
      </trkpt>
      <trkpt lat="46.02986" lon="4.53295">
        <ele>532</ele>
        <time>2018-08-05T07:13:59.000Z</time>
      </trkpt>
      <trkpt lat="46.02986" lon="4.53301">
        <ele>533</ele>
        <time>2018-08-05T07:14:00.000Z</time>
      </trkpt>
      <trkpt lat="46.02985" lon="4.53307">
        <ele>534</ele>
        <time>2018-08-05T07:14:01.000Z</time>
      </trkpt>
      <trkpt lat="46.02985" lon="4.53313">
        <ele>535</ele>
        <time>2018-08-05T07:14:02.000Z</time>
      </trkpt>
      <trkpt lat="46.02985" lon="4.53319">
        <ele>536</ele>
        <time>2018-08-05T07:14:03.000Z</time>
      </trkpt>
      <trkpt lat="46.02985" lon="4.53325">
        <ele>537</ele>
        <time>2018-08-05T07:14:04.000Z</time>
      </trkpt>
      <trkpt lat="46.02984" lon="4.53331">
        <ele>538</ele>
        <time>2018-08-05T07:14:05.000Z</time>
      </trkpt>
      <trkpt lat="46.02984" lon="4.53336">
        <ele>540</ele>
        <time>2018-08-05T07:14:06.000Z</time>
      </trkpt>
      <trkpt lat="46.02984" lon="4.53342">
        <ele>540</ele>
        <time>2018-08-05T07:14:07.000Z</time>
      </trkpt>
      <trkpt lat="46.02984" lon="4.53347">
        <ele>539</ele>
        <time>2018-08-05T07:14:08.000Z</time>
      </trkpt>
      <trkpt lat="46.02983" lon="4.53353">
        <ele>538</ele>
        <time>2018-08-05T07:14:09.000Z</time>
      </trkpt>
      <trkpt lat="46.02983" lon="4.53359">
        <ele>538</ele>
        <time>2018-08-05T07:14:10.000Z</time>
      </trkpt>
      <trkpt lat="46.02983" lon="4.53364">
        <ele>537</ele>
        <time>2018-08-05T07:14:11.000Z</time>
      </trkpt>
      <trkpt lat="46.02982" lon="4.53371">
        <ele>537</ele>
        <time>2018-08-05T07:14:12.000Z</time>
      </trkpt>
      <trkpt lat="46.02982" lon="4.53377">
        <ele>537</ele>
        <time>2018-08-05T07:14:13.000Z</time>
      </trkpt>
      <trkpt lat="46.02982" lon="4.53383">
        <ele>537</ele>
        <time>2018-08-05T07:14:14.000Z</time>
      </trkpt>
      <trkpt lat="46.02981" lon="4.53389">
        <ele>538</ele>
        <time>2018-08-05T07:14:15.000Z</time>
      </trkpt>
      <trkpt lat="46.02981" lon="4.53395">
        <ele>538</ele>
        <time>2018-08-05T07:14:16.000Z</time>
      </trkpt>
      <trkpt lat="46.02981" lon="4.53401">
        <ele>539</ele>
        <time>2018-08-05T07:14:17.000Z</time>
      </trkpt>
      <trkpt lat="46.0298" lon="4.53407">
        <ele>540</ele>
        <time>2018-08-05T07:14:18.000Z</time>
      </trkpt>
      <trkpt lat="46.0298" lon="4.53414">
        <ele>541</ele>
        <time>2018-08-05T07:14:19.000Z</time>
      </trkpt>
      <trkpt lat="46.0298" lon="4.5342">
        <ele>541</ele>
        <time>2018-08-05T07:14:20.000Z</time>
      </trkpt>
      <trkpt lat="46.0298" lon="4.53426">
        <ele>540</ele>
        <time>2018-08-05T07:14:21.000Z</time>
      </trkpt>
      <trkpt lat="46.0298" lon="4.53432">
        <ele>539</ele>
        <time>2018-08-05T07:14:22.000Z</time>
      </trkpt>
      <trkpt lat="46.0298" lon="4.53439">
        <ele>539</ele>
        <time>2018-08-05T07:14:23.000Z</time>
      </trkpt>
      <trkpt lat="46.0298" lon="4.53445">
        <ele>538</ele>
        <time>2018-08-05T07:14:24.000Z</time>
      </trkpt>
      <trkpt lat="46.02981" lon="4.53451">
        <ele>537</ele>
        <time>2018-08-05T07:14:25.000Z</time>
      </trkpt>
      <trkpt lat="46.02981" lon="4.53457">
        <ele>537</ele>
        <time>2018-08-05T07:14:26.000Z</time>
      </trkpt>
      <trkpt lat="46.02982" lon="4.53463">
        <ele>537</ele>
        <time>2018-08-05T07:14:27.000Z</time>
      </trkpt>
      <trkpt lat="46.02983" lon="4.5347">
        <ele>537</ele>
        <time>2018-08-05T07:14:28.000Z</time>
      </trkpt>
      <trkpt lat="46.02984" lon="4.53475">
        <ele>538</ele>
        <time>2018-08-05T07:14:29.000Z</time>
      </trkpt>
      <trkpt lat="46.02985" lon="4.53481">
        <ele>539</ele>
        <time>2018-08-05T07:14:30.000Z</time>
      </trkpt>
      <trkpt lat="46.02987" lon="4.53487">
        <ele>540</ele>
        <time>2018-08-05T07:14:31.000Z</time>
      </trkpt>
      <trkpt lat="46.02989" lon="4.53492">
        <ele>542</ele>
        <time>2018-08-05T07:14:32.000Z</time>
      </trkpt>
      <trkpt lat="46.02992" lon="4.53497">
        <ele>543</ele>
        <time>2018-08-05T07:14:33.000Z</time>
      </trkpt>
      <trkpt lat="46.02994" lon="4.53502">
        <ele>543</ele>
        <time>2018-08-05T07:14:34.000Z</time>
      </trkpt>
      <trkpt lat="46.02997" lon="4.53507">
        <ele>543</ele>
        <time>2018-08-05T07:14:35.000Z</time>
      </trkpt>
      <trkpt lat="46.02999" lon="4.53511">
        <ele>541</ele>
        <time>2018-08-05T07:14:36.000Z</time>
      </trkpt>
      <trkpt lat="46.03002" lon="4.53516">
        <ele>552</ele>
        <time>2018-08-05T07:14:37.000Z</time>
      </trkpt>
      <trkpt lat="46.03005" lon="4.5352">
        <ele>553</ele>
        <time>2018-08-05T07:14:38.000Z</time>
      </trkpt>
      <trkpt lat="46.03008" lon="4.53524">
        <ele>554</ele>
        <time>2018-08-05T07:14:39.000Z</time>
      </trkpt>
      <trkpt lat="46.03011" lon="4.53528">
        <ele>554</ele>
        <time>2018-08-05T07:14:40.000Z</time>
      </trkpt>
      <trkpt lat="46.03014" lon="4.53531">
        <ele>554</ele>
        <time>2018-08-05T07:14:41.000Z</time>
      </trkpt>
      <trkpt lat="46.03018" lon="4.53535">
        <ele>555</ele>
        <time>2018-08-05T07:14:42.000Z</time>
      </trkpt>
      <trkpt lat="46.03021" lon="4.53538">
        <ele>555</ele>
        <time>2018-08-05T07:14:43.000Z</time>
      </trkpt>
      <trkpt lat="46.03024" lon="4.53541">
        <ele>555</ele>
        <time>2018-08-05T07:14:44.000Z</time>
      </trkpt>
      <trkpt lat="46.03027" lon="4.53545">
        <ele>556</ele>
        <time>2018-08-05T07:14:45.000Z</time>
      </trkpt>
      <trkpt lat="46.0303" lon="4.53549">
        <ele>556</ele>
        <time>2018-08-05T07:14:46.000Z</time>
      </trkpt>
      <trkpt lat="46.03033" lon="4.53553">
        <ele>556</ele>
        <time>2018-08-05T07:14:47.000Z</time>
      </trkpt>
      <trkpt lat="46.03036" lon="4.53557">
        <ele>556</ele>
        <time>2018-08-05T07:14:48.000Z</time>
      </trkpt>
      <trkpt lat="46.03038" lon="4.53562">
        <ele>557</ele>
        <time>2018-08-05T07:14:49.000Z</time>
      </trkpt>
      <trkpt lat="46.03041" lon="4.53567">
        <ele>557</ele>
        <time>2018-08-05T07:14:50.000Z</time>
      </trkpt>
      <trkpt lat="46.03043" lon="4.53572">
        <ele>557</ele>
        <time>2018-08-05T07:14:51.000Z</time>
      </trkpt>
      <trkpt lat="46.03045" lon="4.53577">
        <ele>558</ele>
        <time>2018-08-05T07:14:52.000Z</time>
      </trkpt>
      <trkpt lat="46.03047" lon="4.53583">
        <ele>558</ele>
        <time>2018-08-05T07:14:53.000Z</time>
      </trkpt>
      <trkpt lat="46.03049" lon="4.53588">
        <ele>556</ele>
        <time>2018-08-05T07:14:54.000Z</time>
      </trkpt>
      <trkpt lat="46.0305" lon="4.53594">
        <ele>556</ele>
        <time>2018-08-05T07:14:55.000Z</time>
      </trkpt>
      <trkpt lat="46.03051" lon="4.53599">
        <ele>556</ele>
        <time>2018-08-05T07:14:56.000Z</time>
      </trkpt>
      <trkpt lat="46.03051" lon="4.53605">
        <ele>556</ele>
        <time>2018-08-05T07:14:57.000Z</time>
      </trkpt>
      <trkpt lat="46.03051" lon="4.53612">
        <ele>556</ele>
        <time>2018-08-05T07:14:58.000Z</time>
      </trkpt>
      <trkpt lat="46.03051" lon="4.53618">
        <ele>556</ele>
        <time>2018-08-05T07:14:59.000Z</time>
      </trkpt>
      <trkpt lat="46.0305" lon="4.53624">
        <ele>555</ele>
        <time>2018-08-05T07:15:00.000Z</time>
      </trkpt>
      <trkpt lat="46.03049" lon="4.5363">
        <ele>555</ele>
        <time>2018-08-05T07:15:01.000Z</time>
      </trkpt>
      <trkpt lat="46.03048" lon="4.53635">
        <ele>555</ele>
        <time>2018-08-05T07:15:02.000Z</time>
      </trkpt>
      <trkpt lat="46.03047" lon="4.53642">
        <ele>555</ele>
        <time>2018-08-05T07:15:03.000Z</time>
      </trkpt>
      <trkpt lat="46.03046" lon="4.53647">
        <ele>555</ele>
        <time>2018-08-05T07:15:04.000Z</time>
      </trkpt>
      <trkpt lat="46.03045" lon="4.53653">
        <ele>555</ele>
        <time>2018-08-05T07:15:05.000Z</time>
      </trkpt>
      <trkpt lat="46.03044" lon="4.53659">
        <ele>555</ele>
        <time>2018-08-05T07:15:06.000Z</time>
      </trkpt>
      <trkpt lat="46.03042" lon="4.53664">
        <ele>554</ele>
        <time>2018-08-05T07:15:07.000Z</time>
      </trkpt>
      <trkpt lat="46.03041" lon="4.5367">
        <ele>557</ele>
        <time>2018-08-05T07:15:08.000Z</time>
      </trkpt>
      <trkpt lat="46.03039" lon="4.53676">
        <ele>556</ele>
        <time>2018-08-05T07:15:09.000Z</time>
      </trkpt>
      <trkpt lat="46.03037" lon="4.53681">
        <ele>556</ele>
        <time>2018-08-05T07:15:10.000Z</time>
      </trkpt>
      <trkpt lat="46.03035" lon="4.53687">
        <ele>556</ele>
        <time>2018-08-05T07:15:11.000Z</time>
      </trkpt>
      <trkpt lat="46.03034" lon="4.53692">
        <ele>556</ele>
        <time>2018-08-05T07:15:12.000Z</time>
      </trkpt>
      <trkpt lat="46.03032" lon="4.53698">
        <ele>556</ele>
        <time>2018-08-05T07:15:13.000Z</time>
      </trkpt>
      <trkpt lat="46.03031" lon="4.53703">
        <ele>557</ele>
        <time>2018-08-05T07:15:14.000Z</time>
      </trkpt>
      <trkpt lat="46.03029" lon="4.5371">
        <ele>557</ele>
        <time>2018-08-05T07:15:15.000Z</time>
      </trkpt>
      <trkpt lat="46.03028" lon="4.53715">
        <ele>557</ele>
        <time>2018-08-05T07:15:16.000Z</time>
      </trkpt>
      <trkpt lat="46.03026" lon="4.53721">
        <ele>557</ele>
        <time>2018-08-05T07:15:17.000Z</time>
      </trkpt>
      <trkpt lat="46.03024" lon="4.53727">
        <ele>557</ele>
        <time>2018-08-05T07:15:18.000Z</time>
      </trkpt>
      <trkpt lat="46.03023" lon="4.53732">
        <ele>556</ele>
        <time>2018-08-05T07:15:19.000Z</time>
      </trkpt>
      <trkpt lat="46.03021" lon="4.53738">
        <ele>556</ele>
        <time>2018-08-05T07:15:20.000Z</time>
      </trkpt>
      <trkpt lat="46.0302" lon="4.53744">
        <ele>556</ele>
        <time>2018-08-05T07:15:21.000Z</time>
      </trkpt>
      <trkpt lat="46.03019" lon="4.5375">
        <ele>555</ele>
        <time>2018-08-05T07:15:22.000Z</time>
      </trkpt>
      <trkpt lat="46.03018" lon="4.53756">
        <ele>558</ele>
        <time>2018-08-05T07:15:23.000Z</time>
      </trkpt>
      <trkpt lat="46.03017" lon="4.53763">
        <ele>559</ele>
        <time>2018-08-05T07:15:24.000Z</time>
      </trkpt>
      <trkpt lat="46.03016" lon="4.53769">
        <ele>559</ele>
        <time>2018-08-05T07:15:25.000Z</time>
      </trkpt>
      <trkpt lat="46.03016" lon="4.53775">
        <ele>560</ele>
        <time>2018-08-05T07:15:26.000Z</time>
      </trkpt>
      <trkpt lat="46.03016" lon="4.53781">
        <ele>560</ele>
        <time>2018-08-05T07:15:27.000Z</time>
      </trkpt>
      <trkpt lat="46.03015" lon="4.53787">
        <ele>561</ele>
        <time>2018-08-05T07:15:28.000Z</time>
      </trkpt>
      <trkpt lat="46.03015" lon="4.53793">
        <ele>561</ele>
        <time>2018-08-05T07:15:29.000Z</time>
      </trkpt>
      <trkpt lat="46.03015" lon="4.53798">
        <ele>561</ele>
        <time>2018-08-05T07:15:30.000Z</time>
      </trkpt>
      <trkpt lat="46.03015" lon="4.53804">
        <ele>561</ele>
        <time>2018-08-05T07:15:31.000Z</time>
      </trkpt>
      <trkpt lat="46.03016" lon="4.5381">
        <ele>560</ele>
        <time>2018-08-05T07:15:32.000Z</time>
      </trkpt>
      <trkpt lat="46.03016" lon="4.53816">
        <ele>560</ele>
        <time>2018-08-05T07:15:33.000Z</time>
      </trkpt>
      <trkpt lat="46.03017" lon="4.53822">
        <ele>559</ele>
        <time>2018-08-05T07:15:34.000Z</time>
      </trkpt>
      <trkpt lat="46.03018" lon="4.53828">
        <ele>559</ele>
        <time>2018-08-05T07:15:35.000Z</time>
      </trkpt>
      <trkpt lat="46.03019" lon="4.53834">
        <ele>559</ele>
        <time>2018-08-05T07:15:36.000Z</time>
      </trkpt>
      <trkpt lat="46.0302" lon="4.5384">
        <ele>560</ele>
        <time>2018-08-05T07:15:37.000Z</time>
      </trkpt>
      <trkpt lat="46.03021" lon="4.53846">
        <ele>560</ele>
        <time>2018-08-05T07:15:38.000Z</time>
      </trkpt>
      <trkpt lat="46.03023" lon="4.53851">
        <ele>561</ele>
        <time>2018-08-05T07:15:39.000Z</time>
      </trkpt>
      <trkpt lat="46.03024" lon="4.53856">
        <ele>561</ele>
        <time>2018-08-05T07:15:40.000Z</time>
      </trkpt>
      <trkpt lat="46.03026" lon="4.53862">
        <ele>561</ele>
        <time>2018-08-05T07:15:41.000Z</time>
      </trkpt>
      <trkpt lat="46.03028" lon="4.53867">
        <ele>562</ele>
        <time>2018-08-05T07:15:42.000Z</time>
      </trkpt>
      <trkpt lat="46.03029" lon="4.53872">
        <ele>562</ele>
        <time>2018-08-05T07:15:43.000Z</time>
      </trkpt>
      <trkpt lat="46.03031" lon="4.53877">
        <ele>562</ele>
        <time>2018-08-05T07:15:44.000Z</time>
      </trkpt>
      <trkpt lat="46.03033" lon="4.53882">
        <ele>562</ele>
        <time>2018-08-05T07:15:45.000Z</time>
      </trkpt>
      <trkpt lat="46.03034" lon="4.53887">
        <ele>562</ele>
        <time>2018-08-05T07:15:46.000Z</time>
      </trkpt>
      <trkpt lat="46.03036" lon="4.53892">
        <ele>562</ele>
        <time>2018-08-05T07:15:47.000Z</time>
      </trkpt>
      <trkpt lat="46.03038" lon="4.53897">
        <ele>562</ele>
        <time>2018-08-05T07:15:48.000Z</time>
      </trkpt>
      <trkpt lat="46.0304" lon="4.53902">
        <ele>563</ele>
        <time>2018-08-05T07:15:49.000Z</time>
      </trkpt>
      <trkpt lat="46.03042" lon="4.53907">
        <ele>563</ele>
        <time>2018-08-05T07:15:50.000Z</time>
      </trkpt>
      <trkpt lat="46.03044" lon="4.53911">
        <ele>563</ele>
        <time>2018-08-05T07:15:51.000Z</time>
      </trkpt>
      <trkpt lat="46.03045" lon="4.53916">
        <ele>564</ele>
        <time>2018-08-05T07:15:52.000Z</time>
      </trkpt>
      <trkpt lat="46.03047" lon="4.53921">
        <ele>560</ele>
        <time>2018-08-05T07:15:53.000Z</time>
      </trkpt>
      <trkpt lat="46.03049" lon="4.53926">
        <ele>561</ele>
        <time>2018-08-05T07:15:54.000Z</time>
      </trkpt>
      <trkpt lat="46.03051" lon="4.53931">
        <ele>561</ele>
        <time>2018-08-05T07:15:55.000Z</time>
      </trkpt>
      <trkpt lat="46.03053" lon="4.53936">
        <ele>561</ele>
        <time>2018-08-05T07:15:56.000Z</time>
      </trkpt>
      <trkpt lat="46.03054" lon="4.53941">
        <ele>561</ele>
        <time>2018-08-05T07:15:57.000Z</time>
      </trkpt>
      <trkpt lat="46.03056" lon="4.53946">
        <ele>561</ele>
        <time>2018-08-05T07:15:58.000Z</time>
      </trkpt>
      <trkpt lat="46.03058" lon="4.53951">
        <ele>560</ele>
        <time>2018-08-05T07:15:59.000Z</time>
      </trkpt>
      <trkpt lat="46.03059" lon="4.53956">
        <ele>560</ele>
        <time>2018-08-05T07:16:00.000Z</time>
      </trkpt>
      <trkpt lat="46.03061" lon="4.53961">
        <ele>560</ele>
        <time>2018-08-05T07:16:01.000Z</time>
      </trkpt>
      <trkpt lat="46.03062" lon="4.53966">
        <ele>560</ele>
        <time>2018-08-05T07:16:02.000Z</time>
      </trkpt>
      <trkpt lat="46.03064" lon="4.53971">
        <ele>560</ele>
        <time>2018-08-05T07:16:03.000Z</time>
      </trkpt>
      <trkpt lat="46.03066" lon="4.53975">
        <ele>560</ele>
        <time>2018-08-05T07:16:04.000Z</time>
      </trkpt>
      <trkpt lat="46.03068" lon="4.5398">
        <ele>561</ele>
        <time>2018-08-05T07:16:05.000Z</time>
      </trkpt>
      <trkpt lat="46.03069" lon="4.53985">
        <ele>561</ele>
        <time>2018-08-05T07:16:06.000Z</time>
      </trkpt>
      <trkpt lat="46.03071" lon="4.53989">
        <ele>562</ele>
        <time>2018-08-05T07:16:07.000Z</time>
      </trkpt>
      <trkpt lat="46.03073" lon="4.53994">
        <ele>563</ele>
        <time>2018-08-05T07:16:08.000Z</time>
      </trkpt>
      <trkpt lat="46.03075" lon="4.53998">
        <ele>563</ele>
        <time>2018-08-05T07:16:09.000Z</time>
      </trkpt>
      <trkpt lat="46.03077" lon="4.54002">
        <ele>562</ele>
        <time>2018-08-05T07:16:10.000Z</time>
      </trkpt>
      <trkpt lat="46.0308" lon="4.54006">
        <ele>561</ele>
        <time>2018-08-05T07:16:11.000Z</time>
      </trkpt>
      <trkpt lat="46.03083" lon="4.54009">
        <ele>560</ele>
        <time>2018-08-05T07:16:12.000Z</time>
      </trkpt>
      <trkpt lat="46.03086" lon="4.54013">
        <ele>565</ele>
        <time>2018-08-05T07:16:13.000Z</time>
      </trkpt>
      <trkpt lat="46.0309" lon="4.54015">
        <ele>565</ele>
        <time>2018-08-05T07:16:14.000Z</time>
      </trkpt>
      <trkpt lat="46.03094" lon="4.54018">
        <ele>565</ele>
        <time>2018-08-05T07:16:15.000Z</time>
      </trkpt>
      <trkpt lat="46.03098" lon="4.5402">
        <ele>565</ele>
        <time>2018-08-05T07:16:16.000Z</time>
      </trkpt>
      <trkpt lat="46.03102" lon="4.54021">
        <ele>565</ele>
        <time>2018-08-05T07:16:17.000Z</time>
      </trkpt>
      <trkpt lat="46.03106" lon="4.54021">
        <ele>565</ele>
        <time>2018-08-05T07:16:18.000Z</time>
      </trkpt>
      <trkpt lat="46.0311" lon="4.54021">
        <ele>565</ele>
        <time>2018-08-05T07:16:19.000Z</time>
      </trkpt>
      <trkpt lat="46.03114" lon="4.54021">
        <ele>565</ele>
        <time>2018-08-05T07:16:20.000Z</time>
      </trkpt>
      <trkpt lat="46.03118" lon="4.5402">
        <ele>566</ele>
        <time>2018-08-05T07:16:21.000Z</time>
      </trkpt>
      <trkpt lat="46.03122" lon="4.54018">
        <ele>566</ele>
        <time>2018-08-05T07:16:22.000Z</time>
      </trkpt>
      <trkpt lat="46.03125" lon="4.54015">
        <ele>566</ele>
        <time>2018-08-05T07:16:23.000Z</time>
      </trkpt>
      <trkpt lat="46.03129" lon="4.54013">
        <ele>567</ele>
        <time>2018-08-05T07:16:24.000Z</time>
      </trkpt>
      <trkpt lat="46.03132" lon="4.5401">
        <ele>567</ele>
        <time>2018-08-05T07:16:25.000Z</time>
      </trkpt>
      <trkpt lat="46.03135" lon="4.54007">
        <ele>568</ele>
        <time>2018-08-05T07:16:26.000Z</time>
      </trkpt>
      <trkpt lat="46.03138" lon="4.54004">
        <ele>568</ele>
        <time>2018-08-05T07:16:27.000Z</time>
      </trkpt>
      <trkpt lat="46.03142" lon="4.54001">
        <ele>568</ele>
        <time>2018-08-05T07:16:28.000Z</time>
      </trkpt>
      <trkpt lat="46.03145" lon="4.53998">
        <ele>575</ele>
        <time>2018-08-05T07:16:29.000Z</time>
      </trkpt>
      <trkpt lat="46.03147" lon="4.53995">
        <ele>575</ele>
        <time>2018-08-05T07:16:30.000Z</time>
      </trkpt>
      <trkpt lat="46.0315" lon="4.53991">
        <ele>575</ele>
        <time>2018-08-05T07:16:31.000Z</time>
      </trkpt>
      <trkpt lat="46.03153" lon="4.53988">
        <ele>575</ele>
        <time>2018-08-05T07:16:32.000Z</time>
      </trkpt>
      <trkpt lat="46.03156" lon="4.53985">
        <ele>575</ele>
        <time>2018-08-05T07:16:33.000Z</time>
      </trkpt>
      <trkpt lat="46.03159" lon="4.53982">
        <ele>575</ele>
        <time>2018-08-05T07:16:34.000Z</time>
      </trkpt>
      <trkpt lat="46.03161" lon="4.53979">
        <ele>576</ele>
        <time>2018-08-05T07:16:35.000Z</time>
      </trkpt>
      <trkpt lat="46.03164" lon="4.53976">
        <ele>576</ele>
        <time>2018-08-05T07:16:36.000Z</time>
      </trkpt>
      <trkpt lat="46.03167" lon="4.53972">
        <ele>576</ele>
        <time>2018-08-05T07:16:37.000Z</time>
      </trkpt>
      <trkpt lat="46.03169" lon="4.53969">
        <ele>582</ele>
        <time>2018-08-05T07:16:38.000Z</time>
      </trkpt>
      <trkpt lat="46.03172" lon="4.53966">
        <ele>583</ele>
        <time>2018-08-05T07:16:39.000Z</time>
      </trkpt>
      <trkpt lat="46.03174" lon="4.53963">
        <ele>583</ele>
        <time>2018-08-05T07:16:40.000Z</time>
      </trkpt>
      <trkpt lat="46.03177" lon="4.53961">
        <ele>584</ele>
        <time>2018-08-05T07:16:41.000Z</time>
      </trkpt>
      <trkpt lat="46.0318" lon="4.53958">
        <ele>584</ele>
        <time>2018-08-05T07:16:42.000Z</time>
      </trkpt>
      <trkpt lat="46.03183" lon="4.53956">
        <ele>584</ele>
        <time>2018-08-05T07:16:43.000Z</time>
      </trkpt>
      <trkpt lat="46.03186" lon="4.53955">
        <ele>585</ele>
        <time>2018-08-05T07:16:44.000Z</time>
      </trkpt>
      <trkpt lat="46.0319" lon="4.53953">
        <ele>585</ele>
        <time>2018-08-05T07:16:45.000Z</time>
      </trkpt>
      <trkpt lat="46.03194" lon="4.53952">
        <ele>585</ele>
        <time>2018-08-05T07:16:46.000Z</time>
      </trkpt>
      <trkpt lat="46.03197" lon="4.53951">
        <ele>585</ele>
        <time>2018-08-05T07:16:47.000Z</time>
      </trkpt>
      <trkpt lat="46.03201" lon="4.53952">
        <ele>585</ele>
        <time>2018-08-05T07:16:48.000Z</time>
      </trkpt>
      <trkpt lat="46.03205" lon="4.53952">
        <ele>586</ele>
        <time>2018-08-05T07:16:49.000Z</time>
      </trkpt>
      <trkpt lat="46.03208" lon="4.53954">
        <ele>586</ele>
        <time>2018-08-05T07:16:50.000Z</time>
      </trkpt>
      <trkpt lat="46.03212" lon="4.53955">
        <ele>586</ele>
        <time>2018-08-05T07:16:51.000Z</time>
      </trkpt>
      <trkpt lat="46.03216" lon="4.53958">
        <ele>586</ele>
        <time>2018-08-05T07:16:52.000Z</time>
      </trkpt>
      <trkpt lat="46.03219" lon="4.53962">
        <ele>585</ele>
        <time>2018-08-05T07:16:53.000Z</time>
      </trkpt>
      <trkpt lat="46.03222" lon="4.53965">
        <ele>585</ele>
        <time>2018-08-05T07:16:54.000Z</time>
      </trkpt>
      <trkpt lat="46.03225" lon="4.53969">
        <ele>585</ele>
        <time>2018-08-05T07:16:55.000Z</time>
      </trkpt>
      <trkpt lat="46.03228" lon="4.53973">
        <ele>585</ele>
        <time>2018-08-05T07:16:56.000Z</time>
      </trkpt>
      <trkpt lat="46.03231" lon="4.53977">
        <ele>584</ele>
        <time>2018-08-05T07:16:57.000Z</time>
      </trkpt>
      <trkpt lat="46.03233" lon="4.53982">
        <ele>584</ele>
        <time>2018-08-05T07:16:58.000Z</time>
      </trkpt>
      <trkpt lat="46.03236" lon="4.53987">
        <ele>584</ele>
        <time>2018-08-05T07:16:59.000Z</time>
      </trkpt>
      <trkpt lat="46.03237" lon="4.53992">
        <ele>583</ele>
        <time>2018-08-05T07:17:00.000Z</time>
      </trkpt>
      <trkpt lat="46.03239" lon="4.53997">
        <ele>583</ele>
        <time>2018-08-05T07:17:01.000Z</time>
      </trkpt>
      <trkpt lat="46.0324" lon="4.54002">
        <ele>581</ele>
        <time>2018-08-05T07:17:02.000Z</time>
      </trkpt>
      <trkpt lat="46.0324" lon="4.54008">
        <ele>581</ele>
        <time>2018-08-05T07:17:03.000Z</time>
      </trkpt>
      <trkpt lat="46.0324" lon="4.54014">
        <ele>581</ele>
        <time>2018-08-05T07:17:04.000Z</time>
      </trkpt>
      <trkpt lat="46.03239" lon="4.54019">
        <ele>581</ele>
        <time>2018-08-05T07:17:05.000Z</time>
      </trkpt>
      <trkpt lat="46.03239" lon="4.54025">
        <ele>581</ele>
        <time>2018-08-05T07:17:06.000Z</time>
      </trkpt>
      <trkpt lat="46.03238" lon="4.5403">
        <ele>581</ele>
        <time>2018-08-05T07:17:07.000Z</time>
      </trkpt>
      <trkpt lat="46.03236" lon="4.54035">
        <ele>581</ele>
        <time>2018-08-05T07:17:08.000Z</time>
      </trkpt>
      <trkpt lat="46.03235" lon="4.54041">
        <ele>581</ele>
        <time>2018-08-05T07:17:09.000Z</time>
      </trkpt>
      <trkpt lat="46.03233" lon="4.54046">
        <ele>581</ele>
        <time>2018-08-05T07:17:10.000Z</time>
      </trkpt>
      <trkpt lat="46.03231" lon="4.54051">
        <ele>581</ele>
        <time>2018-08-05T07:17:11.000Z</time>
      </trkpt>
      <trkpt lat="46.03229" lon="4.54056">
        <ele>581</ele>
        <time>2018-08-05T07:17:12.000Z</time>
      </trkpt>
      <trkpt lat="46.03227" lon="4.54061">
        <ele>582</ele>
        <time>2018-08-05T07:17:13.000Z</time>
      </trkpt>
      <trkpt lat="46.03225" lon="4.54066">
        <ele>582</ele>
        <time>2018-08-05T07:17:14.000Z</time>
      </trkpt>
      <trkpt lat="46.03223" lon="4.54071">
        <ele>582</ele>
        <time>2018-08-05T07:17:15.000Z</time>
      </trkpt>
      <trkpt lat="46.03222" lon="4.54076">
        <ele>582</ele>
        <time>2018-08-05T07:17:16.000Z</time>
      </trkpt>
      <trkpt lat="46.0322" lon="4.54081">
        <ele>581</ele>
        <time>2018-08-05T07:17:17.000Z</time>
      </trkpt>
      <trkpt lat="46.03218" lon="4.54086">
        <ele>584</ele>
        <time>2018-08-05T07:17:18.000Z</time>
      </trkpt>
      <trkpt lat="46.03217" lon="4.54092">
        <ele>584</ele>
        <time>2018-08-05T07:17:19.000Z</time>
      </trkpt>
      <trkpt lat="46.03215" lon="4.54097">
        <ele>584</ele>
        <time>2018-08-05T07:17:20.000Z</time>
      </trkpt>
      <trkpt lat="46.03213" lon="4.54102">
        <ele>584</ele>
        <time>2018-08-05T07:17:21.000Z</time>
      </trkpt>
      <trkpt lat="46.03212" lon="4.54107">
        <ele>584</ele>
        <time>2018-08-05T07:17:22.000Z</time>
      </trkpt>
      <trkpt lat="46.03211" lon="4.54112">
        <ele>584</ele>
        <time>2018-08-05T07:17:23.000Z</time>
      </trkpt>
      <trkpt lat="46.0321" lon="4.54118">
        <ele>584</ele>
        <time>2018-08-05T07:17:24.000Z</time>
      </trkpt>
      <trkpt lat="46.03208" lon="4.54123">
        <ele>584</ele>
        <time>2018-08-05T07:17:25.000Z</time>
      </trkpt>
      <trkpt lat="46.03207" lon="4.54128">
        <ele>584</ele>
        <time>2018-08-05T07:17:26.000Z</time>
      </trkpt>
      <trkpt lat="46.03206" lon="4.54133">
        <ele>584</ele>
        <time>2018-08-05T07:17:27.000Z</time>
      </trkpt>
      <trkpt lat="46.03205" lon="4.54138">
        <ele>584</ele>
        <time>2018-08-05T07:17:28.000Z</time>
      </trkpt>
      <trkpt lat="46.03203" lon="4.54144">
        <ele>584</ele>
        <time>2018-08-05T07:17:29.000Z</time>
      </trkpt>
      <trkpt lat="46.03202" lon="4.54149">
        <ele>584</ele>
        <time>2018-08-05T07:17:30.000Z</time>
      </trkpt>
      <trkpt lat="46.03201" lon="4.54155">
        <ele>584</ele>
        <time>2018-08-05T07:17:31.000Z</time>
      </trkpt>
      <trkpt lat="46.032" lon="4.5416">
        <ele>583</ele>
        <time>2018-08-05T07:17:32.000Z</time>
      </trkpt>
      <trkpt lat="46.03199" lon="4.54166">
        <ele>583</ele>
        <time>2018-08-05T07:17:33.000Z</time>
      </trkpt>
      <trkpt lat="46.03198" lon="4.54171">
        <ele>587</ele>
        <time>2018-08-05T07:17:34.000Z</time>
      </trkpt>
      <trkpt lat="46.03197" lon="4.54176">
        <ele>587</ele>
        <time>2018-08-05T07:17:35.000Z</time>
      </trkpt>
      <trkpt lat="46.03196" lon="4.54182">
        <ele>587</ele>
        <time>2018-08-05T07:17:36.000Z</time>
      </trkpt>
      <trkpt lat="46.03195" lon="4.54187">
        <ele>587</ele>
        <time>2018-08-05T07:17:37.000Z</time>
      </trkpt>
      <trkpt lat="46.03194" lon="4.54193">
        <ele>587</ele>
        <time>2018-08-05T07:17:38.000Z</time>
      </trkpt>
      <trkpt lat="46.03193" lon="4.54199">
        <ele>588</ele>
        <time>2018-08-05T07:17:39.000Z</time>
      </trkpt>
      <trkpt lat="46.03192" lon="4.54205">
        <ele>588</ele>
        <time>2018-08-05T07:17:40.000Z</time>
      </trkpt>
      <trkpt lat="46.03191" lon="4.5421">
        <ele>588</ele>
        <time>2018-08-05T07:17:41.000Z</time>
      </trkpt>
      <trkpt lat="46.03191" lon="4.54216">
        <ele>588</ele>
        <time>2018-08-05T07:17:42.000Z</time>
      </trkpt>
      <trkpt lat="46.0319" lon="4.54222">
        <ele>588</ele>
        <time>2018-08-05T07:17:43.000Z</time>
      </trkpt>
      <trkpt lat="46.0319" lon="4.54228">
        <ele>587</ele>
        <time>2018-08-05T07:17:44.000Z</time>
      </trkpt>
      <trkpt lat="46.0319" lon="4.54233">
        <ele>587</ele>
        <time>2018-08-05T07:17:45.000Z</time>
      </trkpt>
      <trkpt lat="46.0319" lon="4.54239">
        <ele>587</ele>
        <time>2018-08-05T07:17:46.000Z</time>
      </trkpt>
      <trkpt lat="46.0319" lon="4.54244">
        <ele>586</ele>
        <time>2018-08-05T07:17:47.000Z</time>
      </trkpt>
      <trkpt lat="46.0319" lon="4.5425">
        <ele>588</ele>
        <time>2018-08-05T07:17:48.000Z</time>
      </trkpt>
      <trkpt lat="46.0319" lon="4.54256">
        <ele>588</ele>
        <time>2018-08-05T07:17:49.000Z</time>
      </trkpt>
      <trkpt lat="46.0319" lon="4.54261">
        <ele>588</ele>
        <time>2018-08-05T07:17:50.000Z</time>
      </trkpt>
      <trkpt lat="46.0319" lon="4.54267">
        <ele>589</ele>
        <time>2018-08-05T07:17:51.000Z</time>
      </trkpt>
      <trkpt lat="46.0319" lon="4.54273">
        <ele>589</ele>
        <time>2018-08-05T07:17:52.000Z</time>
      </trkpt>
      <trkpt lat="46.03191" lon="4.54278">
        <ele>590</ele>
        <time>2018-08-05T07:17:53.000Z</time>
      </trkpt>
      <trkpt lat="46.03191" lon="4.54284">
        <ele>590</ele>
        <time>2018-08-05T07:17:54.000Z</time>
      </trkpt>
      <trkpt lat="46.03191" lon="4.54289">
        <ele>591</ele>
        <time>2018-08-05T07:17:55.000Z</time>
      </trkpt>
      <trkpt lat="46.03192" lon="4.54295">
        <ele>591</ele>
        <time>2018-08-05T07:17:56.000Z</time>
      </trkpt>
      <trkpt lat="46.03193" lon="4.543">
        <ele>591</ele>
        <time>2018-08-05T07:17:57.000Z</time>
      </trkpt>
      <trkpt lat="46.03194" lon="4.54306">
        <ele>591</ele>
        <time>2018-08-05T07:17:58.000Z</time>
      </trkpt>
      <trkpt lat="46.03194" lon="4.54311">
        <ele>591</ele>
        <time>2018-08-05T07:17:59.000Z</time>
      </trkpt>
      <trkpt lat="46.03195" lon="4.54317">
        <ele>591</ele>
        <time>2018-08-05T07:18:00.000Z</time>
      </trkpt>
      <trkpt lat="46.03196" lon="4.54322">
        <ele>591</ele>
        <time>2018-08-05T07:18:01.000Z</time>
      </trkpt>
      <trkpt lat="46.03197" lon="4.54327">
        <ele>591</ele>
        <time>2018-08-05T07:18:02.000Z</time>
      </trkpt>
      <trkpt lat="46.03198" lon="4.54333">
        <ele>591</ele>
        <time>2018-08-05T07:18:03.000Z</time>
      </trkpt>
      <trkpt lat="46.03199" lon="4.54338">
        <ele>588</ele>
        <time>2018-08-05T07:18:04.000Z</time>
      </trkpt>
      <trkpt lat="46.03201" lon="4.54343">
        <ele>588</ele>
        <time>2018-08-05T07:18:05.000Z</time>
      </trkpt>
      <trkpt lat="46.03202" lon="4.54348">
        <ele>589</ele>
        <time>2018-08-05T07:18:06.000Z</time>
      </trkpt>
      <trkpt lat="46.03203" lon="4.54353">
        <ele>589</ele>
        <time>2018-08-05T07:18:07.000Z</time>
      </trkpt>
      <trkpt lat="46.03205" lon="4.54358">
        <ele>589</ele>
        <time>2018-08-05T07:18:08.000Z</time>
      </trkpt>
      <trkpt lat="46.03207" lon="4.54362">
        <ele>589</ele>
        <time>2018-08-05T07:18:09.000Z</time>
      </trkpt>
      <trkpt lat="46.03208" lon="4.54367">
        <ele>589</ele>
        <time>2018-08-05T07:18:10.000Z</time>
      </trkpt>
      <trkpt lat="46.0321" lon="4.54371">
        <ele>589</ele>
        <time>2018-08-05T07:18:11.000Z</time>
      </trkpt>
      <trkpt lat="46.03212" lon="4.54376">
        <ele>589</ele>
        <time>2018-08-05T07:18:12.000Z</time>
      </trkpt>
      <trkpt lat="46.03214" lon="4.5438">
        <ele>589</ele>
        <time>2018-08-05T07:18:13.000Z</time>
      </trkpt>
      <trkpt lat="46.03216" lon="4.54384">
        <ele>590</ele>
        <time>2018-08-05T07:18:14.000Z</time>
      </trkpt>
      <trkpt lat="46.03219" lon="4.54388">
        <ele>590</ele>
        <time>2018-08-05T07:18:15.000Z</time>
      </trkpt>
      <trkpt lat="46.03221" lon="4.54392">
        <ele>590</ele>
        <time>2018-08-05T07:18:16.000Z</time>
      </trkpt>
      <trkpt lat="46.03224" lon="4.54395">
        <ele>591</ele>
        <time>2018-08-05T07:18:17.000Z</time>
      </trkpt>
      <trkpt lat="46.03228" lon="4.54397">
        <ele>591</ele>
        <time>2018-08-05T07:18:18.000Z</time>
      </trkpt>
      <trkpt lat="46.03231" lon="4.544">
        <ele>592</ele>
        <time>2018-08-05T07:18:19.000Z</time>
      </trkpt>
      <trkpt lat="46.03234" lon="4.54403">
        <ele>592</ele>
        <time>2018-08-05T07:18:20.000Z</time>
      </trkpt>
      <trkpt lat="46.03237" lon="4.54406">
        <ele>593</ele>
        <time>2018-08-05T07:18:21.000Z</time>
      </trkpt>
      <trkpt lat="46.03241" lon="4.54408">
        <ele>594</ele>
        <time>2018-08-05T07:18:22.000Z</time>
      </trkpt>
      <trkpt lat="46.03244" lon="4.5441">
        <ele>595</ele>
        <time>2018-08-05T07:18:23.000Z</time>
      </trkpt>
      <trkpt lat="46.03248" lon="4.54412">
        <ele>596</ele>
        <time>2018-08-05T07:18:24.000Z</time>
      </trkpt>
      <trkpt lat="46.03251" lon="4.54415">
        <ele>598</ele>
        <time>2018-08-05T07:18:25.000Z</time>
      </trkpt>
      <trkpt lat="46.03254" lon="4.54417">
        <ele>597</ele>
        <time>2018-08-05T07:18:26.000Z</time>
      </trkpt>
      <trkpt lat="46.03257" lon="4.54419">
        <ele>597</ele>
        <time>2018-08-05T07:18:27.000Z</time>
      </trkpt>
      <trkpt lat="46.03261" lon="4.54421">
        <ele>596</ele>
        <time>2018-08-05T07:18:28.000Z</time>
      </trkpt>
      <trkpt lat="46.03264" lon="4.54424">
        <ele>596</ele>
        <time>2018-08-05T07:18:29.000Z</time>
      </trkpt>
      <trkpt lat="46.03268" lon="4.54426">
        <ele>596</ele>
        <time>2018-08-05T07:18:30.000Z</time>
      </trkpt>
      <trkpt lat="46.03272" lon="4.54427">
        <ele>596</ele>
        <time>2018-08-05T07:18:31.000Z</time>
      </trkpt>
      <trkpt lat="46.03275" lon="4.54429">
        <ele>596</ele>
        <time>2018-08-05T07:18:32.000Z</time>
      </trkpt>
      <trkpt lat="46.03278" lon="4.54431">
        <ele>596</ele>
        <time>2018-08-05T07:18:33.000Z</time>
      </trkpt>
      <trkpt lat="46.03281" lon="4.54434">
        <ele>597</ele>
        <time>2018-08-05T07:18:34.000Z</time>
      </trkpt>
      <trkpt lat="46.03285" lon="4.54436">
        <ele>597</ele>
        <time>2018-08-05T07:18:35.000Z</time>
      </trkpt>
      <trkpt lat="46.03289" lon="4.54438">
        <ele>597</ele>
        <time>2018-08-05T07:18:36.000Z</time>
      </trkpt>
      <trkpt lat="46.03293" lon="4.54439">
        <ele>597</ele>
        <time>2018-08-05T07:18:37.000Z</time>
      </trkpt>
      <trkpt lat="46.03296" lon="4.54441">
        <ele>598</ele>
        <time>2018-08-05T07:18:38.000Z</time>
      </trkpt>
      <trkpt lat="46.033" lon="4.54442">
        <ele>598</ele>
        <time>2018-08-05T07:18:39.000Z</time>
      </trkpt>
      <trkpt lat="46.03304" lon="4.54443">
        <ele>598</ele>
        <time>2018-08-05T07:18:40.000Z</time>
      </trkpt>
      <trkpt lat="46.03307" lon="4.54444">
        <ele>598</ele>
        <time>2018-08-05T07:18:41.000Z</time>
      </trkpt>
      <trkpt lat="46.03311" lon="4.54446">
        <ele>599</ele>
        <time>2018-08-05T07:18:42.000Z</time>
      </trkpt>
      <trkpt lat="46.03314" lon="4.54446">
        <ele>599</ele>
        <time>2018-08-05T07:18:43.000Z</time>
      </trkpt>
      <trkpt lat="46.03318" lon="4.54446">
        <ele>599</ele>
        <time>2018-08-05T07:18:44.000Z</time>
      </trkpt>
      <trkpt lat="46.03321" lon="4.54446">
        <ele>600</ele>
        <time>2018-08-05T07:18:45.000Z</time>
      </trkpt>
      <trkpt lat="46.03325" lon="4.54446">
        <ele>600</ele>
        <time>2018-08-05T07:18:46.000Z</time>
      </trkpt>
      <trkpt lat="46.03329" lon="4.54446">
        <ele>601</ele>
        <time>2018-08-05T07:18:47.000Z</time>
      </trkpt>
      <trkpt lat="46.03332" lon="4.54445">
        <ele>601</ele>
        <time>2018-08-05T07:18:48.000Z</time>
      </trkpt>
      <trkpt lat="46.03336" lon="4.54445">
        <ele>606</ele>
        <time>2018-08-05T07:18:49.000Z</time>
      </trkpt>
      <trkpt lat="46.03339" lon="4.54444">
        <ele>606</ele>
        <time>2018-08-05T07:18:50.000Z</time>
      </trkpt>
      <trkpt lat="46.03343" lon="4.54443">
        <ele>606</ele>
        <time>2018-08-05T07:18:51.000Z</time>
      </trkpt>
      <trkpt lat="46.03346" lon="4.54442">
        <ele>606</ele>
        <time>2018-08-05T07:18:52.000Z</time>
      </trkpt>
      <trkpt lat="46.0335" lon="4.54442">
        <ele>606</ele>
        <time>2018-08-05T07:18:53.000Z</time>
      </trkpt>
      <trkpt lat="46.03354" lon="4.54441">
        <ele>605</ele>
        <time>2018-08-05T07:18:54.000Z</time>
      </trkpt>
      <trkpt lat="46.03358" lon="4.5444">
        <ele>605</ele>
        <time>2018-08-05T07:18:55.000Z</time>
      </trkpt>
      <trkpt lat="46.03362" lon="4.5444">
        <ele>605</ele>
        <time>2018-08-05T07:18:56.000Z</time>
      </trkpt>
      <trkpt lat="46.03366" lon="4.54439">
        <ele>605</ele>
        <time>2018-08-05T07:18:57.000Z</time>
      </trkpt>
      <trkpt lat="46.0337" lon="4.54439">
        <ele>605</ele>
        <time>2018-08-05T07:18:58.000Z</time>
      </trkpt>
      <trkpt lat="46.03374" lon="4.54438">
        <ele>605</ele>
        <time>2018-08-05T07:18:59.000Z</time>
      </trkpt>
      <trkpt lat="46.03378" lon="4.54438">
        <ele>605</ele>
        <time>2018-08-05T07:19:00.000Z</time>
      </trkpt>
      <trkpt lat="46.03382" lon="4.54437">
        <ele>605</ele>
        <time>2018-08-05T07:19:01.000Z</time>
      </trkpt>
      <trkpt lat="46.03385" lon="4.54437">
        <ele>605</ele>
        <time>2018-08-05T07:19:02.000Z</time>
      </trkpt>
      <trkpt lat="46.0339" lon="4.54437">
        <ele>605</ele>
        <time>2018-08-05T07:19:03.000Z</time>
      </trkpt>
      <trkpt lat="46.03394" lon="4.54436">
        <ele>605</ele>
        <time>2018-08-05T07:19:04.000Z</time>
      </trkpt>
      <trkpt lat="46.03398" lon="4.54437">
        <ele>605</ele>
        <time>2018-08-05T07:19:05.000Z</time>
      </trkpt>
      <trkpt lat="46.03401" lon="4.54437">
        <ele>606</ele>
        <time>2018-08-05T07:19:06.000Z</time>
      </trkpt>
      <trkpt lat="46.03405" lon="4.54436">
        <ele>606</ele>
        <time>2018-08-05T07:19:07.000Z</time>
      </trkpt>
      <trkpt lat="46.03409" lon="4.54435">
        <ele>606</ele>
        <time>2018-08-05T07:19:08.000Z</time>
      </trkpt>
      <trkpt lat="46.03413" lon="4.54435">
        <ele>606</ele>
        <time>2018-08-05T07:19:09.000Z</time>
      </trkpt>
      <trkpt lat="46.03416" lon="4.54435">
        <ele>606</ele>
        <time>2018-08-05T07:19:10.000Z</time>
      </trkpt>
      <trkpt lat="46.03421" lon="4.54434">
        <ele>607</ele>
        <time>2018-08-05T07:19:11.000Z</time>
      </trkpt>
      <trkpt lat="46.03425" lon="4.54434">
        <ele>607</ele>
        <time>2018-08-05T07:19:12.000Z</time>
      </trkpt>
      <trkpt lat="46.03429" lon="4.54433">
        <ele>607</ele>
        <time>2018-08-05T07:19:13.000Z</time>
      </trkpt>
      <trkpt lat="46.03433" lon="4.54433">
        <ele>607</ele>
        <time>2018-08-05T07:19:14.000Z</time>
      </trkpt>
      <trkpt lat="46.03437" lon="4.54432">
        <ele>607</ele>
        <time>2018-08-05T07:19:15.000Z</time>
      </trkpt>
      <trkpt lat="46.03441" lon="4.54432">
        <ele>607</ele>
        <time>2018-08-05T07:19:16.000Z</time>
      </trkpt>
      <trkpt lat="46.03446" lon="4.54432">
        <ele>607</ele>
        <time>2018-08-05T07:19:17.000Z</time>
      </trkpt>
      <trkpt lat="46.0345" lon="4.54431">
        <ele>607</ele>
        <time>2018-08-05T07:19:18.000Z</time>
      </trkpt>
      <trkpt lat="46.03454" lon="4.5443">
        <ele>607</ele>
        <time>2018-08-05T07:19:19.000Z</time>
      </trkpt>
      <trkpt lat="46.03458" lon="4.54429">
        <ele>607</ele>
        <time>2018-08-05T07:19:20.000Z</time>
      </trkpt>
      <trkpt lat="46.03461" lon="4.54428">
        <ele>607</ele>
        <time>2018-08-05T07:19:21.000Z</time>
      </trkpt>
      <trkpt lat="46.03465" lon="4.54427">
        <ele>607</ele>
        <time>2018-08-05T07:19:22.000Z</time>
      </trkpt>
      <trkpt lat="46.03468" lon="4.54425">
        <ele>607</ele>
        <time>2018-08-05T07:19:23.000Z</time>
      </trkpt>
      <trkpt lat="46.03472" lon="4.54423">
        <ele>607</ele>
        <time>2018-08-05T07:19:24.000Z</time>
      </trkpt>
      <trkpt lat="46.03475" lon="4.54421">
        <ele>608</ele>
        <time>2018-08-05T07:19:25.000Z</time>
      </trkpt>
      <trkpt lat="46.03479" lon="4.54419">
        <ele>608</ele>
        <time>2018-08-05T07:19:26.000Z</time>
      </trkpt>
      <trkpt lat="46.03482" lon="4.54416">
        <ele>615</ele>
        <time>2018-08-05T07:19:27.000Z</time>
      </trkpt>
      <trkpt lat="46.03486" lon="4.54413">
        <ele>614</ele>
        <time>2018-08-05T07:19:28.000Z</time>
      </trkpt>
      <trkpt lat="46.0349" lon="4.54411">
        <ele>614</ele>
        <time>2018-08-05T07:19:29.000Z</time>
      </trkpt>
      <trkpt lat="46.03493" lon="4.54409">
        <ele>614</ele>
        <time>2018-08-05T07:19:30.000Z</time>
      </trkpt>
      <trkpt lat="46.03497" lon="4.54406">
        <ele>614</ele>
        <time>2018-08-05T07:19:31.000Z</time>
      </trkpt>
      <trkpt lat="46.03501" lon="4.54405">
        <ele>615</ele>
        <time>2018-08-05T07:19:32.000Z</time>
      </trkpt>
      <trkpt lat="46.03504" lon="4.54403">
        <ele>616</ele>
        <time>2018-08-05T07:19:33.000Z</time>
      </trkpt>
      <trkpt lat="46.03508" lon="4.54401">
        <ele>616</ele>
        <time>2018-08-05T07:19:34.000Z</time>
      </trkpt>
      <trkpt lat="46.03512" lon="4.544">
        <ele>617</ele>
        <time>2018-08-05T07:19:35.000Z</time>
      </trkpt>
      <trkpt lat="46.03516" lon="4.54399">
        <ele>618</ele>
        <time>2018-08-05T07:19:36.000Z</time>
      </trkpt>
      <trkpt lat="46.0352" lon="4.54398">
        <ele>618</ele>
        <time>2018-08-05T07:19:37.000Z</time>
      </trkpt>
      <trkpt lat="46.03524" lon="4.54399">
        <ele>619</ele>
        <time>2018-08-05T07:19:38.000Z</time>
      </trkpt>
      <trkpt lat="46.03528" lon="4.54399">
        <ele>619</ele>
        <time>2018-08-05T07:19:39.000Z</time>
      </trkpt>
      <trkpt lat="46.03532" lon="4.54401">
        <ele>619</ele>
        <time>2018-08-05T07:19:40.000Z</time>
      </trkpt>
      <trkpt lat="46.03536" lon="4.54402">
        <ele>620</ele>
        <time>2018-08-05T07:19:41.000Z</time>
      </trkpt>
      <trkpt lat="46.0354" lon="4.54404">
        <ele>620</ele>
        <time>2018-08-05T07:19:42.000Z</time>
      </trkpt>
      <trkpt lat="46.03543" lon="4.54406">
        <ele>620</ele>
        <time>2018-08-05T07:19:43.000Z</time>
      </trkpt>
      <trkpt lat="46.03547" lon="4.54408">
        <ele>620</ele>
        <time>2018-08-05T07:19:44.000Z</time>
      </trkpt>
      <trkpt lat="46.0355" lon="4.54411">
        <ele>620</ele>
        <time>2018-08-05T07:19:45.000Z</time>
      </trkpt>
      <trkpt lat="46.03554" lon="4.54413">
        <ele>620</ele>
        <time>2018-08-05T07:19:46.000Z</time>
      </trkpt>
      <trkpt lat="46.03557" lon="4.54415">
        <ele>620</ele>
        <time>2018-08-05T07:19:47.000Z</time>
      </trkpt>
      <trkpt lat="46.03561" lon="4.54417">
        <ele>615</ele>
        <time>2018-08-05T07:19:48.000Z</time>
      </trkpt>
      <trkpt lat="46.03565" lon="4.54419">
        <ele>616</ele>
        <time>2018-08-05T07:19:49.000Z</time>
      </trkpt>
      <trkpt lat="46.03568" lon="4.54421">
        <ele>616</ele>
        <time>2018-08-05T07:19:50.000Z</time>
      </trkpt>
      <trkpt lat="46.03572" lon="4.54423">
        <ele>617</ele>
        <time>2018-08-05T07:19:51.000Z</time>
      </trkpt>
      <trkpt lat="46.03576" lon="4.54424">
        <ele>617</ele>
        <time>2018-08-05T07:19:52.000Z</time>
      </trkpt>
      <trkpt lat="46.0358" lon="4.54425">
        <ele>618</ele>
        <time>2018-08-05T07:19:53.000Z</time>
      </trkpt>
      <trkpt lat="46.03584" lon="4.54426">
        <ele>621</ele>
        <time>2018-08-05T07:19:54.000Z</time>
      </trkpt>
      <trkpt lat="46.03587" lon="4.54427">
        <ele>621</ele>
        <time>2018-08-05T07:19:55.000Z</time>
      </trkpt>
      <trkpt lat="46.03591" lon="4.54429">
        <ele>621</ele>
        <time>2018-08-05T07:19:56.000Z</time>
      </trkpt>
      <trkpt lat="46.03594" lon="4.5443">
        <ele>621</ele>
        <time>2018-08-05T07:19:57.000Z</time>
      </trkpt>
      <trkpt lat="46.03598" lon="4.54432">
        <ele>622</ele>
        <time>2018-08-05T07:19:58.000Z</time>
      </trkpt>
      <trkpt lat="46.03602" lon="4.54434">
        <ele>622</ele>
        <time>2018-08-05T07:19:59.000Z</time>
      </trkpt>
      <trkpt lat="46.03605" lon="4.54436">
        <ele>622</ele>
        <time>2018-08-05T07:20:00.000Z</time>
      </trkpt>
      <trkpt lat="46.03608" lon="4.54438">
        <ele>622</ele>
        <time>2018-08-05T07:20:01.000Z</time>
      </trkpt>
      <trkpt lat="46.03612" lon="4.54441">
        <ele>623</ele>
        <time>2018-08-05T07:20:02.000Z</time>
      </trkpt>
      <trkpt lat="46.03615" lon="4.54445">
        <ele>623</ele>
        <time>2018-08-05T07:20:03.000Z</time>
      </trkpt>
      <trkpt lat="46.03617" lon="4.54449">
        <ele>623</ele>
        <time>2018-08-05T07:20:04.000Z</time>
      </trkpt>
      <trkpt lat="46.03618" lon="4.54454">
        <ele>623</ele>
        <time>2018-08-05T07:20:05.000Z</time>
      </trkpt>
      <trkpt lat="46.03619" lon="4.54459">
        <ele>623</ele>
        <time>2018-08-05T07:20:06.000Z</time>
      </trkpt>
      <trkpt lat="46.0362" lon="4.54465">
        <ele>623</ele>
        <time>2018-08-05T07:20:07.000Z</time>
      </trkpt>
      <trkpt lat="46.03619" lon="4.5447">
        <ele>623</ele>
        <time>2018-08-05T07:20:08.000Z</time>
      </trkpt>
      <trkpt lat="46.03619" lon="4.54475">
        <ele>622</ele>
        <time>2018-08-05T07:20:09.000Z</time>
      </trkpt>
      <trkpt lat="46.03618" lon="4.5448">
        <ele>622</ele>
        <time>2018-08-05T07:20:10.000Z</time>
      </trkpt>
      <trkpt lat="46.03616" lon="4.54485">
        <ele>622</ele>
        <time>2018-08-05T07:20:11.000Z</time>
      </trkpt>
      <trkpt lat="46.03614" lon="4.5449">
        <ele>622</ele>
        <time>2018-08-05T07:20:12.000Z</time>
      </trkpt>
      <trkpt lat="46.03612" lon="4.54494">
        <ele>621</ele>
        <time>2018-08-05T07:20:13.000Z</time>
      </trkpt>
      <trkpt lat="46.0361" lon="4.54498">
        <ele>621</ele>
        <time>2018-08-05T07:20:14.000Z</time>
      </trkpt>
      <trkpt lat="46.03608" lon="4.54503">
        <ele>624</ele>
        <time>2018-08-05T07:20:15.000Z</time>
      </trkpt>
      <trkpt lat="46.03605" lon="4.54507">
        <ele>624</ele>
        <time>2018-08-05T07:20:16.000Z</time>
      </trkpt>
      <trkpt lat="46.03603" lon="4.5451">
        <ele>624</ele>
        <time>2018-08-05T07:20:17.000Z</time>
      </trkpt>
      <trkpt lat="46.036" lon="4.54514">
        <ele>624</ele>
        <time>2018-08-05T07:20:18.000Z</time>
      </trkpt>
      <trkpt lat="46.03597" lon="4.54518">
        <ele>624</ele>
        <time>2018-08-05T07:20:19.000Z</time>
      </trkpt>
      <trkpt lat="46.03595" lon="4.54522">
        <ele>625</ele>
        <time>2018-08-05T07:20:20.000Z</time>
      </trkpt>
      <trkpt lat="46.03592" lon="4.54525">
        <ele>625</ele>
        <time>2018-08-05T07:20:21.000Z</time>
      </trkpt>
      <trkpt lat="46.03589" lon="4.54529">
        <ele>625</ele>
        <time>2018-08-05T07:20:22.000Z</time>
      </trkpt>
      <trkpt lat="46.03585" lon="4.54532">
        <ele>626</ele>
        <time>2018-08-05T07:20:23.000Z</time>
      </trkpt>
      <trkpt lat="46.03582" lon="4.54534">
        <ele>619</ele>
        <time>2018-08-05T07:20:24.000Z</time>
      </trkpt>
      <trkpt lat="46.03579" lon="4.54537">
        <ele>619</ele>
        <time>2018-08-05T07:20:25.000Z</time>
      </trkpt>
      <trkpt lat="46.03575" lon="4.5454">
        <ele>619</ele>
        <time>2018-08-05T07:20:26.000Z</time>
      </trkpt>
      <trkpt lat="46.03572" lon="4.54542">
        <ele>619</ele>
        <time>2018-08-05T07:20:27.000Z</time>
      </trkpt>
      <trkpt lat="46.03568" lon="4.54545">
        <ele>619</ele>
        <time>2018-08-05T07:20:28.000Z</time>
      </trkpt>
      <trkpt lat="46.03565" lon="4.54547">
        <ele>620</ele>
        <time>2018-08-05T07:20:29.000Z</time>
      </trkpt>
      <trkpt lat="46.03561" lon="4.5455">
        <ele>620</ele>
        <time>2018-08-05T07:20:30.000Z</time>
      </trkpt>
      <trkpt lat="46.03558" lon="4.54552">
        <ele>620</ele>
        <time>2018-08-05T07:20:31.000Z</time>
      </trkpt>
      <trkpt lat="46.03554" lon="4.54554">
        <ele>620</ele>
        <time>2018-08-05T07:20:32.000Z</time>
      </trkpt>
      <trkpt lat="46.03551" lon="4.54557">
        <ele>620</ele>
        <time>2018-08-05T07:20:33.000Z</time>
      </trkpt>
      <trkpt lat="46.03547" lon="4.54559">
        <ele>620</ele>
        <time>2018-08-05T07:20:34.000Z</time>
      </trkpt>
      <trkpt lat="46.03544" lon="4.54561">
        <ele>620</ele>
        <time>2018-08-05T07:20:35.000Z</time>
      </trkpt>
      <trkpt lat="46.03541" lon="4.54564">
        <ele>620</ele>
        <time>2018-08-05T07:20:36.000Z</time>
      </trkpt>
      <trkpt lat="46.03538" lon="4.54566">
        <ele>619</ele>
        <time>2018-08-05T07:20:37.000Z</time>
      </trkpt>
      <trkpt lat="46.03535" lon="4.54568">
        <ele>619</ele>
        <time>2018-08-05T07:20:38.000Z</time>
      </trkpt>
      <trkpt lat="46.03532" lon="4.54571">
        <ele>619</ele>
        <time>2018-08-05T07:20:39.000Z</time>
      </trkpt>
      <trkpt lat="46.03528" lon="4.54574">
        <ele>619</ele>
        <time>2018-08-05T07:20:40.000Z</time>
      </trkpt>
      <trkpt lat="46.03525" lon="4.54577">
        <ele>620</ele>
        <time>2018-08-05T07:20:41.000Z</time>
      </trkpt>
      <trkpt lat="46.03522" lon="4.54579">
        <ele>620</ele>
        <time>2018-08-05T07:20:42.000Z</time>
      </trkpt>
      <trkpt lat="46.03519" lon="4.54582">
        <ele>620</ele>
        <time>2018-08-05T07:20:43.000Z</time>
      </trkpt>
      <trkpt lat="46.03516" lon="4.54584">
        <ele>629</ele>
        <time>2018-08-05T07:20:44.000Z</time>
      </trkpt>
      <trkpt lat="46.03513" lon="4.54587">
        <ele>628</ele>
        <time>2018-08-05T07:20:45.000Z</time>
      </trkpt>
      <trkpt lat="46.0351" lon="4.54589">
        <ele>627</ele>
        <time>2018-08-05T07:20:46.000Z</time>
      </trkpt>
      <trkpt lat="46.03508" lon="4.54592">
        <ele>627</ele>
        <time>2018-08-05T07:20:47.000Z</time>
      </trkpt>
      <trkpt lat="46.03505" lon="4.54594">
        <ele>628</ele>
        <time>2018-08-05T07:20:48.000Z</time>
      </trkpt>
      <trkpt lat="46.03502" lon="4.54596">
        <ele>628</ele>
        <time>2018-08-05T07:20:49.000Z</time>
      </trkpt>
      <trkpt lat="46.03499" lon="4.54599">
        <ele>624</ele>
        <time>2018-08-05T07:20:50.000Z</time>
      </trkpt>
      <trkpt lat="46.03496" lon="4.54601">
        <ele>625</ele>
        <time>2018-08-05T07:20:51.000Z</time>
      </trkpt>
      <trkpt lat="46.03493" lon="4.54604">
        <ele>625</ele>
        <time>2018-08-05T07:20:52.000Z</time>
      </trkpt>
      <trkpt lat="46.03489" lon="4.54606">
        <ele>626</ele>
        <time>2018-08-05T07:20:53.000Z</time>
      </trkpt>
      <trkpt lat="46.03486" lon="4.54608">
        <ele>626</ele>
        <time>2018-08-05T07:20:54.000Z</time>
      </trkpt>
      <trkpt lat="46.03483" lon="4.54609">
        <ele>626</ele>
        <time>2018-08-05T07:20:55.000Z</time>
      </trkpt>
      <trkpt lat="46.0348" lon="4.54612">
        <ele>626</ele>
        <time>2018-08-05T07:20:56.000Z</time>
      </trkpt>
      <trkpt lat="46.03476" lon="4.54614">
        <ele>627</ele>
        <time>2018-08-05T07:20:57.000Z</time>
      </trkpt>
      <trkpt lat="46.03472" lon="4.54616">
        <ele>627</ele>
        <time>2018-08-05T07:20:58.000Z</time>
      </trkpt>
      <trkpt lat="46.03468" lon="4.54618">
        <ele>627</ele>
        <time>2018-08-05T07:20:59.000Z</time>
      </trkpt>
      <trkpt lat="46.03465" lon="4.54619">
        <ele>627</ele>
        <time>2018-08-05T07:21:00.000Z</time>
      </trkpt>
      <trkpt lat="46.03462" lon="4.54621">
        <ele>627</ele>
        <time>2018-08-05T07:21:01.000Z</time>
      </trkpt>
      <trkpt lat="46.03458" lon="4.54623">
        <ele>627</ele>
        <time>2018-08-05T07:21:02.000Z</time>
      </trkpt>
      <trkpt lat="46.03454" lon="4.54625">
        <ele>627</ele>
        <time>2018-08-05T07:21:03.000Z</time>
      </trkpt>
      <trkpt lat="46.03451" lon="4.54628">
        <ele>627</ele>
        <time>2018-08-05T07:21:04.000Z</time>
      </trkpt>
      <trkpt lat="46.03447" lon="4.5463">
        <ele>627</ele>
        <time>2018-08-05T07:21:05.000Z</time>
      </trkpt>
      <trkpt lat="46.03444" lon="4.54632">
        <ele>627</ele>
        <time>2018-08-05T07:21:06.000Z</time>
      </trkpt>
      <trkpt lat="46.0344" lon="4.54635">
        <ele>627</ele>
        <time>2018-08-05T07:21:07.000Z</time>
      </trkpt>
      <trkpt lat="46.03437" lon="4.54637">
        <ele>627</ele>
        <time>2018-08-05T07:21:08.000Z</time>
      </trkpt>
      <trkpt lat="46.03433" lon="4.5464">
        <ele>627</ele>
        <time>2018-08-05T07:21:09.000Z</time>
      </trkpt>
      <trkpt lat="46.0343" lon="4.54642">
        <ele>628</ele>
        <time>2018-08-05T07:21:10.000Z</time>
      </trkpt>
      <trkpt lat="46.03426" lon="4.54645">
        <ele>628</ele>
        <time>2018-08-05T07:21:11.000Z</time>
      </trkpt>
      <trkpt lat="46.03422" lon="4.54647">
        <ele>628</ele>
        <time>2018-08-05T07:21:12.000Z</time>
      </trkpt>
      <trkpt lat="46.03419" lon="4.5465">
        <ele>628</ele>
        <time>2018-08-05T07:21:13.000Z</time>
      </trkpt>
      <trkpt lat="46.03415" lon="4.54652">
        <ele>622</ele>
        <time>2018-08-05T07:21:14.000Z</time>
      </trkpt>
      <trkpt lat="46.03412" lon="4.54655">
        <ele>623</ele>
        <time>2018-08-05T07:21:15.000Z</time>
      </trkpt>
      <trkpt lat="46.03409" lon="4.54657">
        <ele>623</ele>
        <time>2018-08-05T07:21:16.000Z</time>
      </trkpt>
      <trkpt lat="46.03406" lon="4.5466">
        <ele>623</ele>
        <time>2018-08-05T07:21:17.000Z</time>
      </trkpt>
      <trkpt lat="46.03403" lon="4.54663">
        <ele>622</ele>
        <time>2018-08-05T07:21:18.000Z</time>
      </trkpt>
      <trkpt lat="46.034" lon="4.54665">
        <ele>622</ele>
        <time>2018-08-05T07:21:19.000Z</time>
      </trkpt>
      <trkpt lat="46.03397" lon="4.54668">
        <ele>632</ele>
        <time>2018-08-05T07:21:20.000Z</time>
      </trkpt>
      <trkpt lat="46.03394" lon="4.5467">
        <ele>632</ele>
        <time>2018-08-05T07:21:21.000Z</time>
      </trkpt>
      <trkpt lat="46.03391" lon="4.54673">
        <ele>632</ele>
        <time>2018-08-05T07:21:22.000Z</time>
      </trkpt>
      <trkpt lat="46.03389" lon="4.54676">
        <ele>632</ele>
        <time>2018-08-05T07:21:23.000Z</time>
      </trkpt>
      <trkpt lat="46.03386" lon="4.54679">
        <ele>632</ele>
        <time>2018-08-05T07:21:24.000Z</time>
      </trkpt>
      <trkpt lat="46.03384" lon="4.54682">
        <ele>632</ele>
        <time>2018-08-05T07:21:25.000Z</time>
      </trkpt>
      <trkpt lat="46.03381" lon="4.54686">
        <ele>632</ele>
        <time>2018-08-05T07:21:26.000Z</time>
      </trkpt>
      <trkpt lat="46.03379" lon="4.54689">
        <ele>632</ele>
        <time>2018-08-05T07:21:27.000Z</time>
      </trkpt>
      <trkpt lat="46.03376" lon="4.54692">
        <ele>632</ele>
        <time>2018-08-05T07:21:28.000Z</time>
      </trkpt>
      <trkpt lat="46.03374" lon="4.54695">
        <ele>632</ele>
        <time>2018-08-05T07:21:29.000Z</time>
      </trkpt>
      <trkpt lat="46.03371" lon="4.54698">
        <ele>632</ele>
        <time>2018-08-05T07:21:30.000Z</time>
      </trkpt>
      <trkpt lat="46.03369" lon="4.54701">
        <ele>632</ele>
        <time>2018-08-05T07:21:31.000Z</time>
      </trkpt>
      <trkpt lat="46.03366" lon="4.54705">
        <ele>632</ele>
        <time>2018-08-05T07:21:32.000Z</time>
      </trkpt>
      <trkpt lat="46.03364" lon="4.54708">
        <ele>632</ele>
        <time>2018-08-05T07:21:33.000Z</time>
      </trkpt>
      <trkpt lat="46.03361" lon="4.54712">
        <ele>633</ele>
        <time>2018-08-05T07:21:34.000Z</time>
      </trkpt>
      <trkpt lat="46.03359" lon="4.54714">
        <ele>633</ele>
        <time>2018-08-05T07:21:35.000Z</time>
      </trkpt>
      <trkpt lat="46.03356" lon="4.54718">
        <ele>633</ele>
        <time>2018-08-05T07:21:36.000Z</time>
      </trkpt>
      <trkpt lat="46.03354" lon="4.54721">
        <ele>633</ele>
        <time>2018-08-05T07:21:37.000Z</time>
      </trkpt>
      <trkpt lat="46.03352" lon="4.54725">
        <ele>633</ele>
        <time>2018-08-05T07:21:38.000Z</time>
      </trkpt>
      <trkpt lat="46.03349" lon="4.54729">
        <ele>634</ele>
        <time>2018-08-05T07:21:39.000Z</time>
      </trkpt>
      <trkpt lat="46.03347" lon="4.54734">
        <ele>634</ele>
        <time>2018-08-05T07:21:40.000Z</time>
      </trkpt>
      <trkpt lat="46.03345" lon="4.54739">
        <ele>634</ele>
        <time>2018-08-05T07:21:41.000Z</time>
      </trkpt>
      <trkpt lat="46.03343" lon="4.54742">
        <ele>634</ele>
        <time>2018-08-05T07:21:42.000Z</time>
      </trkpt>
      <trkpt lat="46.0334" lon="4.54746">
        <ele>634</ele>
        <time>2018-08-05T07:21:43.000Z</time>
      </trkpt>
      <trkpt lat="46.03337" lon="4.5475">
        <ele>637</ele>
        <time>2018-08-05T07:21:44.000Z</time>
      </trkpt>
      <trkpt lat="46.03334" lon="4.54754">
        <ele>637</ele>
        <time>2018-08-05T07:21:45.000Z</time>
      </trkpt>
      <trkpt lat="46.03332" lon="4.54758">
        <ele>634</ele>
        <time>2018-08-05T07:21:46.000Z</time>
      </trkpt>
      <trkpt lat="46.03329" lon="4.54762">
        <ele>634</ele>
        <time>2018-08-05T07:21:47.000Z</time>
      </trkpt>
      <trkpt lat="46.03327" lon="4.54766">
        <ele>635</ele>
        <time>2018-08-05T07:21:48.000Z</time>
      </trkpt>
      <trkpt lat="46.03324" lon="4.5477">
        <ele>635</ele>
        <time>2018-08-05T07:21:49.000Z</time>
      </trkpt>
      <trkpt lat="46.03322" lon="4.54775">
        <ele>635</ele>
        <time>2018-08-05T07:21:50.000Z</time>
      </trkpt>
      <trkpt lat="46.0332" lon="4.54779">
        <ele>635</ele>
        <time>2018-08-05T07:21:51.000Z</time>
      </trkpt>
      <trkpt lat="46.03317" lon="4.54783">
        <ele>636</ele>
        <time>2018-08-05T07:21:52.000Z</time>
      </trkpt>
      <trkpt lat="46.03315" lon="4.54787">
        <ele>636</ele>
        <time>2018-08-05T07:21:53.000Z</time>
      </trkpt>
      <trkpt lat="46.03313" lon="4.54791">
        <ele>636</ele>
        <time>2018-08-05T07:21:54.000Z</time>
      </trkpt>
      <trkpt lat="46.03311" lon="4.54795">
        <ele>637</ele>
        <time>2018-08-05T07:21:55.000Z</time>
      </trkpt>
      <trkpt lat="46.03309" lon="4.54799">
        <ele>637</ele>
        <time>2018-08-05T07:21:56.000Z</time>
      </trkpt>
      <trkpt lat="46.03307" lon="4.54803">
        <ele>637</ele>
        <time>2018-08-05T07:21:57.000Z</time>
      </trkpt>
      <trkpt lat="46.03305" lon="4.54807">
        <ele>637</ele>
        <time>2018-08-05T07:21:58.000Z</time>
      </trkpt>
      <trkpt lat="46.03303" lon="4.5481">
        <ele>638</ele>
        <time>2018-08-05T07:21:59.000Z</time>
      </trkpt>
      <trkpt lat="46.03301" lon="4.54814">
        <ele>638</ele>
        <time>2018-08-05T07:22:00.000Z</time>
      </trkpt>
      <trkpt lat="46.03299" lon="4.54819">
        <ele>638</ele>
        <time>2018-08-05T07:22:01.000Z</time>
      </trkpt>
      <trkpt lat="46.03297" lon="4.54823">
        <ele>638</ele>
        <time>2018-08-05T07:22:02.000Z</time>
      </trkpt>
      <trkpt lat="46.03295" lon="4.54826">
        <ele>638</ele>
        <time>2018-08-05T07:22:03.000Z</time>
      </trkpt>
      <trkpt lat="46.03293" lon="4.5483">
        <ele>638</ele>
        <time>2018-08-05T07:22:04.000Z</time>
      </trkpt>
      <trkpt lat="46.0329" lon="4.54834">
        <ele>646</ele>
        <time>2018-08-05T07:22:05.000Z</time>
      </trkpt>
      <trkpt lat="46.03288" lon="4.54838">
        <ele>646</ele>
        <time>2018-08-05T07:22:06.000Z</time>
      </trkpt>
      <trkpt lat="46.03286" lon="4.54841">
        <ele>646</ele>
        <time>2018-08-05T07:22:07.000Z</time>
      </trkpt>
      <trkpt lat="46.03284" lon="4.54844">
        <ele>645</ele>
        <time>2018-08-05T07:22:08.000Z</time>
      </trkpt>
      <trkpt lat="46.03281" lon="4.54848">
        <ele>645</ele>
        <time>2018-08-05T07:22:09.000Z</time>
      </trkpt>
      <trkpt lat="46.03278" lon="4.54851">
        <ele>645</ele>
        <time>2018-08-05T07:22:10.000Z</time>
      </trkpt>
      <trkpt lat="46.03275" lon="4.54855">
        <ele>645</ele>
        <time>2018-08-05T07:22:11.000Z</time>
      </trkpt>
      <trkpt lat="46.03271" lon="4.54859">
        <ele>645</ele>
        <time>2018-08-05T07:22:12.000Z</time>
      </trkpt>
      <trkpt lat="46.03268" lon="4.54863">
        <ele>645</ele>
        <time>2018-08-05T07:22:13.000Z</time>
      </trkpt>
      <trkpt lat="46.03265" lon="4.54866">
        <ele>645</ele>
        <time>2018-08-05T07:22:14.000Z</time>
      </trkpt>
      <trkpt lat="46.03262" lon="4.54869">
        <ele>645</ele>
        <time>2018-08-05T07:22:15.000Z</time>
      </trkpt>
      <trkpt lat="46.03258" lon="4.54872">
        <ele>645</ele>
        <time>2018-08-05T07:22:16.000Z</time>
      </trkpt>
      <trkpt lat="46.03255" lon="4.54875">
        <ele>645</ele>
        <time>2018-08-05T07:22:17.000Z</time>
      </trkpt>
      <trkpt lat="46.03252" lon="4.54878">
        <ele>646</ele>
        <time>2018-08-05T07:22:18.000Z</time>
      </trkpt>
      <trkpt lat="46.03248" lon="4.54881">
        <ele>637</ele>
        <time>2018-08-05T07:22:19.000Z</time>
      </trkpt>
      <trkpt lat="46.03244" lon="4.54885">
        <ele>637</ele>
        <time>2018-08-05T07:22:20.000Z</time>
      </trkpt>
      <trkpt lat="46.0324" lon="4.54888">
        <ele>637</ele>
        <time>2018-08-05T07:22:21.000Z</time>
      </trkpt>
      <trkpt lat="46.03236" lon="4.54891">
        <ele>637</ele>
        <time>2018-08-05T07:22:22.000Z</time>
      </trkpt>
      <trkpt lat="46.03233" lon="4.54894">
        <ele>637</ele>
        <time>2018-08-05T07:22:23.000Z</time>
      </trkpt>
      <trkpt lat="46.03229" lon="4.54897">
        <ele>637</ele>
        <time>2018-08-05T07:22:24.000Z</time>
      </trkpt>
      <trkpt lat="46.03225" lon="4.549">
        <ele>637</ele>
        <time>2018-08-05T07:22:25.000Z</time>
      </trkpt>
      <trkpt lat="46.03222" lon="4.54903">
        <ele>637</ele>
        <time>2018-08-05T07:22:26.000Z</time>
      </trkpt>
      <trkpt lat="46.03218" lon="4.54906">
        <ele>637</ele>
        <time>2018-08-05T07:22:27.000Z</time>
      </trkpt>
      <trkpt lat="46.03215" lon="4.54909">
        <ele>636</ele>
        <time>2018-08-05T07:22:28.000Z</time>
      </trkpt>
      <trkpt lat="46.03211" lon="4.54912">
        <ele>636</ele>
        <time>2018-08-05T07:22:29.000Z</time>
      </trkpt>
      <trkpt lat="46.03208" lon="4.54915">
        <ele>636</ele>
        <time>2018-08-05T07:22:30.000Z</time>
      </trkpt>
      <trkpt lat="46.03204" lon="4.54918">
        <ele>642</ele>
        <time>2018-08-05T07:22:31.000Z</time>
      </trkpt>
      <trkpt lat="46.03201" lon="4.54921">
        <ele>642</ele>
        <time>2018-08-05T07:22:32.000Z</time>
      </trkpt>
      <trkpt lat="46.03198" lon="4.54924">
        <ele>641</ele>
        <time>2018-08-05T07:22:33.000Z</time>
      </trkpt>
      <trkpt lat="46.03194" lon="4.54927">
        <ele>641</ele>
        <time>2018-08-05T07:22:34.000Z</time>
      </trkpt>
      <trkpt lat="46.03191" lon="4.5493">
        <ele>641</ele>
        <time>2018-08-05T07:22:35.000Z</time>
      </trkpt>
      <trkpt lat="46.03188" lon="4.54933">
        <ele>641</ele>
        <time>2018-08-05T07:22:36.000Z</time>
      </trkpt>
      <trkpt lat="46.03185" lon="4.54936">
        <ele>641</ele>
        <time>2018-08-05T07:22:37.000Z</time>
      </trkpt>
      <trkpt lat="46.03182" lon="4.54939">
        <ele>641</ele>
        <time>2018-08-05T07:22:38.000Z</time>
      </trkpt>
      <trkpt lat="46.0318" lon="4.54943">
        <ele>641</ele>
        <time>2018-08-05T07:22:39.000Z</time>
      </trkpt>
      <trkpt lat="46.03177" lon="4.54946">
        <ele>641</ele>
        <time>2018-08-05T07:22:40.000Z</time>
      </trkpt>
      <trkpt lat="46.03174" lon="4.54951">
        <ele>642</ele>
        <time>2018-08-05T07:22:41.000Z</time>
      </trkpt>
      <trkpt lat="46.03172" lon="4.54955">
        <ele>642</ele>
        <time>2018-08-05T07:22:42.000Z</time>
      </trkpt>
      <trkpt lat="46.0317" lon="4.5496">
        <ele>642</ele>
        <time>2018-08-05T07:22:43.000Z</time>
      </trkpt>
      <trkpt lat="46.03168" lon="4.54965">
        <ele>643</ele>
        <time>2018-08-05T07:22:44.000Z</time>
      </trkpt>
      <trkpt lat="46.03166" lon="4.54969">
        <ele>635</ele>
        <time>2018-08-05T07:22:45.000Z</time>
      </trkpt>
      <trkpt lat="46.03165" lon="4.54975">
        <ele>636</ele>
        <time>2018-08-05T07:22:46.000Z</time>
      </trkpt>
      <trkpt lat="46.03164" lon="4.5498">
        <ele>637</ele>
        <time>2018-08-05T07:22:47.000Z</time>
      </trkpt>
      <trkpt lat="46.03163" lon="4.54986">
        <ele>638</ele>
        <time>2018-08-05T07:22:48.000Z</time>
      </trkpt>
      <trkpt lat="46.03162" lon="4.54991">
        <ele>639</ele>
        <time>2018-08-05T07:22:49.000Z</time>
      </trkpt>
      <trkpt lat="46.03162" lon="4.54997">
        <ele>641</ele>
        <time>2018-08-05T07:22:50.000Z</time>
      </trkpt>
      <trkpt lat="46.03162" lon="4.55003">
        <ele>642</ele>
        <time>2018-08-05T07:22:51.000Z</time>
      </trkpt>
      <trkpt lat="46.03162" lon="4.55008">
        <ele>641</ele>
        <time>2018-08-05T07:22:52.000Z</time>
      </trkpt>
      <trkpt lat="46.03162" lon="4.55014">
        <ele>640</ele>
        <time>2018-08-05T07:22:53.000Z</time>
      </trkpt>
      <trkpt lat="46.03162" lon="4.5502">
        <ele>639</ele>
        <time>2018-08-05T07:22:54.000Z</time>
      </trkpt>
      <trkpt lat="46.03163" lon="4.55025">
        <ele>639</ele>
        <time>2018-08-05T07:22:55.000Z</time>
      </trkpt>
      <trkpt lat="46.03164" lon="4.55031">
        <ele>639</ele>
        <time>2018-08-05T07:22:56.000Z</time>
      </trkpt>
      <trkpt lat="46.03165" lon="4.55037">
        <ele>639</ele>
        <time>2018-08-05T07:22:57.000Z</time>
      </trkpt>
      <trkpt lat="46.03165" lon="4.55042">
        <ele>639</ele>
        <time>2018-08-05T07:22:58.000Z</time>
      </trkpt>
      <trkpt lat="46.03166" lon="4.55048">
        <ele>639</ele>
        <time>2018-08-05T07:22:59.000Z</time>
      </trkpt>
      <trkpt lat="46.03167" lon="4.55054">
        <ele>650</ele>
        <time>2018-08-05T07:23:00.000Z</time>
      </trkpt>
      <trkpt lat="46.03168" lon="4.55059">
        <ele>650</ele>
        <time>2018-08-05T07:23:01.000Z</time>
      </trkpt>
      <trkpt lat="46.03169" lon="4.55064">
        <ele>649</ele>
        <time>2018-08-05T07:23:02.000Z</time>
      </trkpt>
      <trkpt lat="46.0317" lon="4.5507">
        <ele>649</ele>
        <time>2018-08-05T07:23:03.000Z</time>
      </trkpt>
      <trkpt lat="46.03172" lon="4.55076">
        <ele>648</ele>
        <time>2018-08-05T07:23:04.000Z</time>
      </trkpt>
      <trkpt lat="46.03173" lon="4.55081">
        <ele>648</ele>
        <time>2018-08-05T07:23:05.000Z</time>
      </trkpt>
      <trkpt lat="46.03174" lon="4.55087">
        <ele>649</ele>
        <time>2018-08-05T07:23:06.000Z</time>
      </trkpt>
      <trkpt lat="46.03175" lon="4.55092">
        <ele>650</ele>
        <time>2018-08-05T07:23:07.000Z</time>
      </trkpt>
      <trkpt lat="46.03176" lon="4.55098">
        <ele>651</ele>
        <time>2018-08-05T07:23:08.000Z</time>
      </trkpt>
      <trkpt lat="46.03177" lon="4.55103">
        <ele>652</ele>
        <time>2018-08-05T07:23:09.000Z</time>
      </trkpt>
      <trkpt lat="46.03178" lon="4.55108">
        <ele>653</ele>
        <time>2018-08-05T07:23:10.000Z</time>
      </trkpt>
      <trkpt lat="46.03179" lon="4.55114">
        <ele>653</ele>
        <time>2018-08-05T07:23:11.000Z</time>
      </trkpt>
      <trkpt lat="46.0318" lon="4.55119">
        <ele>654</ele>
        <time>2018-08-05T07:23:12.000Z</time>
      </trkpt>
      <trkpt lat="46.03181" lon="4.55125">
        <ele>654</ele>
        <time>2018-08-05T07:23:13.000Z</time>
      </trkpt>
      <trkpt lat="46.03182" lon="4.55131">
        <ele>654</ele>
        <time>2018-08-05T07:23:14.000Z</time>
      </trkpt>
      <trkpt lat="46.03182" lon="4.55136">
        <ele>654</ele>
        <time>2018-08-05T07:23:15.000Z</time>
      </trkpt>
      <trkpt lat="46.03183" lon="4.55142">
        <ele>654</ele>
        <time>2018-08-05T07:23:16.000Z</time>
      </trkpt>
      <trkpt lat="46.03183" lon="4.55147">
        <ele>654</ele>
        <time>2018-08-05T07:23:17.000Z</time>
      </trkpt>
      <trkpt lat="46.03184" lon="4.55152">
        <ele>653</ele>
        <time>2018-08-05T07:23:18.000Z</time>
      </trkpt>
      <trkpt lat="46.03184" lon="4.55157">
        <ele>653</ele>
        <time>2018-08-05T07:23:19.000Z</time>
      </trkpt>
      <trkpt lat="46.03184" lon="4.55162">
        <ele>653</ele>
        <time>2018-08-05T07:23:20.000Z</time>
      </trkpt>
      <trkpt lat="46.03184" lon="4.55168">
        <ele>654</ele>
        <time>2018-08-05T07:23:21.000Z</time>
      </trkpt>
      <trkpt lat="46.03184" lon="4.55172">
        <ele>654</ele>
        <time>2018-08-05T07:23:22.000Z</time>
      </trkpt>
      <trkpt lat="46.03183" lon="4.55177">
        <ele>654</ele>
        <time>2018-08-05T07:23:23.000Z</time>
      </trkpt>
      <trkpt lat="46.03182" lon="4.55182">
        <ele>655</ele>
        <time>2018-08-05T07:23:24.000Z</time>
      </trkpt>
      <trkpt lat="46.03182" lon="4.55187">
        <ele>655</ele>
        <time>2018-08-05T07:23:25.000Z</time>
      </trkpt>
      <trkpt lat="46.03181" lon="4.55193">
        <ele>656</ele>
        <time>2018-08-05T07:23:26.000Z</time>
      </trkpt>
      <trkpt lat="46.0318" lon="4.55197">
        <ele>656</ele>
        <time>2018-08-05T07:23:27.000Z</time>
      </trkpt>
      <trkpt lat="46.03179" lon="4.55203">
        <ele>656</ele>
        <time>2018-08-05T07:23:28.000Z</time>
      </trkpt>
      <trkpt lat="46.03178" lon="4.55208">
        <ele>657</ele>
        <time>2018-08-05T07:23:29.000Z</time>
      </trkpt>
      <trkpt lat="46.03178" lon="4.55214">
        <ele>657</ele>
        <time>2018-08-05T07:23:30.000Z</time>
      </trkpt>
      <trkpt lat="46.03177" lon="4.55219">
        <ele>657</ele>
        <time>2018-08-05T07:23:31.000Z</time>
      </trkpt>
      <trkpt lat="46.03176" lon="4.55225">
        <ele>657</ele>
        <time>2018-08-05T07:23:32.000Z</time>
      </trkpt>
      <trkpt lat="46.03175" lon="4.55231">
        <ele>657</ele>
        <time>2018-08-05T07:23:33.000Z</time>
      </trkpt>
      <trkpt lat="46.03174" lon="4.55237">
        <ele>656</ele>
        <time>2018-08-05T07:23:34.000Z</time>
      </trkpt>
      <trkpt lat="46.03172" lon="4.55242">
        <ele>656</ele>
        <time>2018-08-05T07:23:35.000Z</time>
      </trkpt>
      <trkpt lat="46.03171" lon="4.55247">
        <ele>656</ele>
        <time>2018-08-05T07:23:36.000Z</time>
      </trkpt>
      <trkpt lat="46.0317" lon="4.55252">
        <ele>656</ele>
        <time>2018-08-05T07:23:37.000Z</time>
      </trkpt>
      <trkpt lat="46.03169" lon="4.55258">
        <ele>656</ele>
        <time>2018-08-05T07:23:38.000Z</time>
      </trkpt>
      <trkpt lat="46.03168" lon="4.55263">
        <ele>657</ele>
        <time>2018-08-05T07:23:39.000Z</time>
      </trkpt>
      <trkpt lat="46.03167" lon="4.55268">
        <ele>657</ele>
        <time>2018-08-05T07:23:40.000Z</time>
      </trkpt>
      <trkpt lat="46.03167" lon="4.55274">
        <ele>654</ele>
        <time>2018-08-05T07:23:41.000Z</time>
      </trkpt>
      <trkpt lat="46.03166" lon="4.55279">
        <ele>654</ele>
        <time>2018-08-05T07:23:42.000Z</time>
      </trkpt>
      <trkpt lat="46.03165" lon="4.55284">
        <ele>654</ele>
        <time>2018-08-05T07:23:43.000Z</time>
      </trkpt>
      <trkpt lat="46.03164" lon="4.55289">
        <ele>654</ele>
        <time>2018-08-05T07:23:44.000Z</time>
      </trkpt>
      <trkpt lat="46.03164" lon="4.55293">
        <ele>654</ele>
        <time>2018-08-05T07:23:45.000Z</time>
      </trkpt>
      <trkpt lat="46.03163" lon="4.55298">
        <ele>654</ele>
        <time>2018-08-05T07:23:46.000Z</time>
      </trkpt>
      <trkpt lat="46.03163" lon="4.55302">
        <ele>654</ele>
        <time>2018-08-05T07:23:47.000Z</time>
      </trkpt>
      <trkpt lat="46.03163" lon="4.55307">
        <ele>654</ele>
        <time>2018-08-05T07:23:48.000Z</time>
      </trkpt>
      <trkpt lat="46.03162" lon="4.55311">
        <ele>654</ele>
        <time>2018-08-05T07:23:49.000Z</time>
      </trkpt>
      <trkpt lat="46.03162" lon="4.55316">
        <ele>655</ele>
        <time>2018-08-05T07:23:50.000Z</time>
      </trkpt>
      <trkpt lat="46.03163" lon="4.5532">
        <ele>655</ele>
        <time>2018-08-05T07:23:51.000Z</time>
      </trkpt>
      <trkpt lat="46.03163" lon="4.55325">
        <ele>656</ele>
        <time>2018-08-05T07:23:52.000Z</time>
      </trkpt>
      <trkpt lat="46.03164" lon="4.55329">
        <ele>656</ele>
        <time>2018-08-05T07:23:53.000Z</time>
      </trkpt>
      <trkpt lat="46.03164" lon="4.55333">
        <ele>657</ele>
        <time>2018-08-05T07:23:54.000Z</time>
      </trkpt>
      <trkpt lat="46.03165" lon="4.55337">
        <ele>657</ele>
        <time>2018-08-05T07:23:55.000Z</time>
      </trkpt>
      <trkpt lat="46.03166" lon="4.55341">
        <ele>657</ele>
        <time>2018-08-05T07:23:56.000Z</time>
      </trkpt>
      <trkpt lat="46.03167" lon="4.55345">
        <ele>657</ele>
        <time>2018-08-05T07:23:57.000Z</time>
      </trkpt>
      <trkpt lat="46.03168" lon="4.55349">
        <ele>657</ele>
        <time>2018-08-05T07:23:58.000Z</time>
      </trkpt>
      <trkpt lat="46.03169" lon="4.55352">
        <ele>657</ele>
        <time>2018-08-05T07:23:59.000Z</time>
      </trkpt>
      <trkpt lat="46.0317" lon="4.55356">
        <ele>657</ele>
        <time>2018-08-05T07:24:00.000Z</time>
      </trkpt>
      <trkpt lat="46.03171" lon="4.55359">
        <ele>657</ele>
        <time>2018-08-05T07:24:01.000Z</time>
      </trkpt>
      <trkpt lat="46.03171" lon="4.55363">
        <ele>657</ele>
        <time>2018-08-05T07:24:02.000Z</time>
      </trkpt>
      <trkpt lat="46.03171" lon="4.55366">
        <ele>657</ele>
        <time>2018-08-05T07:24:03.000Z</time>
      </trkpt>
      <trkpt lat="46.03172" lon="4.55369">
        <ele>657</ele>
        <time>2018-08-05T07:24:04.000Z</time>
      </trkpt>
      <trkpt lat="46.03173" lon="4.55371">
        <ele>657</ele>
        <time>2018-08-05T07:24:05.000Z</time>
      </trkpt>
      <trkpt lat="46.03174" lon="4.55374">
        <ele>657</ele>
        <time>2018-08-05T07:24:06.000Z</time>
      </trkpt>
      <trkpt lat="46.03175" lon="4.55375">
        <ele>657</ele>
        <time>2018-08-05T07:24:07.000Z</time>
      </trkpt>
      <trkpt lat="46.03176" lon="4.55374">
        <ele>657</ele>
        <time>2018-08-05T07:24:08.000Z</time>
      </trkpt>
      <trkpt lat="46.03176" lon="4.55372">
        <ele>657</ele>
        <time>2018-08-05T07:24:09.000Z</time>
      </trkpt>
      <trkpt lat="46.03176" lon="4.55369">
        <ele>657</ele>
        <time>2018-08-05T07:24:10.000Z</time>
      </trkpt>
      <trkpt lat="46.03174" lon="4.55366">
        <ele>657</ele>
        <time>2018-08-05T07:24:11.000Z</time>
      </trkpt>
      <trkpt lat="46.03173" lon="4.55363">
        <ele>657</ele>
        <time>2018-08-05T07:24:12.000Z</time>
      </trkpt>
      <trkpt lat="46.03172" lon="4.55359">
        <ele>657</ele>
        <time>2018-08-05T07:24:13.000Z</time>
      </trkpt>
      <trkpt lat="46.03172" lon="4.55355">
        <ele>657</ele>
        <time>2018-08-05T07:24:14.000Z</time>
      </trkpt>
      <trkpt lat="46.03171" lon="4.55351">
        <ele>657</ele>
        <time>2018-08-05T07:24:15.000Z</time>
      </trkpt>
      <trkpt lat="46.03171" lon="4.55348">
        <ele>657</ele>
        <time>2018-08-05T07:24:16.000Z</time>
      </trkpt>
      <trkpt lat="46.0317" lon="4.55344">
        <ele>657</ele>
        <time>2018-08-05T07:24:17.000Z</time>
      </trkpt>
      <trkpt lat="46.03169" lon="4.5534">
        <ele>657</ele>
        <time>2018-08-05T07:24:18.000Z</time>
      </trkpt>
      <trkpt lat="46.03168" lon="4.55336">
        <ele>657</ele>
        <time>2018-08-05T07:24:19.000Z</time>
      </trkpt>
      <trkpt lat="46.03167" lon="4.55331">
        <ele>657</ele>
        <time>2018-08-05T07:24:20.000Z</time>
      </trkpt>
      <trkpt lat="46.03166" lon="4.55327">
        <ele>656</ele>
        <time>2018-08-05T07:24:21.000Z</time>
      </trkpt>
      <trkpt lat="46.03166" lon="4.55323">
        <ele>655</ele>
        <time>2018-08-05T07:24:22.000Z</time>
      </trkpt>
      <trkpt lat="46.03165" lon="4.5532">
        <ele>655</ele>
        <time>2018-08-05T07:24:23.000Z</time>
      </trkpt>
      <trkpt lat="46.03165" lon="4.55316">
        <ele>655</ele>
        <time>2018-08-05T07:24:24.000Z</time>
      </trkpt>
      <trkpt lat="46.03165" lon="4.55313">
        <ele>655</ele>
        <time>2018-08-05T07:24:25.000Z</time>
      </trkpt>
      <trkpt lat="46.03166" lon="4.55311">
        <ele>654</ele>
        <time>2018-08-05T07:24:26.000Z</time>
      </trkpt>
      <trkpt lat="46.03166" lon="4.55308">
        <ele>654</ele>
        <time>2018-08-05T07:24:27.000Z</time>
      </trkpt>
      <trkpt lat="46.03167" lon="4.55306">
        <ele>658</ele>
        <time>2018-08-05T07:24:28.000Z</time>
      </trkpt>
      <trkpt lat="46.03168" lon="4.55304">
        <ele>658</ele>
        <time>2018-08-05T07:24:29.000Z</time>
      </trkpt>
      <trkpt lat="46.03168" lon="4.55301">
        <ele>658</ele>
        <time>2018-08-05T07:24:30.000Z</time>
      </trkpt>
      <trkpt lat="46.03169" lon="4.55299">
        <ele>658</ele>
        <time>2018-08-05T07:24:31.000Z</time>
      </trkpt>
      <trkpt lat="46.03169" lon="4.55298">
        <ele>658</ele>
        <time>2018-08-05T07:24:32.000Z</time>
      </trkpt>
      <trkpt lat="46.03169" lon="4.55298">
        <ele>658</ele>
        <time>2018-08-05T07:24:33.000Z</time>
      </trkpt>
      <trkpt lat="46.0317" lon="4.55297">
        <ele>658</ele>
        <time>2018-08-05T07:24:34.000Z</time>
      </trkpt>
      <trkpt lat="46.0317" lon="4.55297">
        <ele>658</ele>
        <time>2018-08-05T07:24:35.000Z</time>
      </trkpt>
      <trkpt lat="46.0317" lon="4.55297">
        <ele>658</ele>
        <time>2018-08-05T07:24:36.000Z</time>
      </trkpt>
      <trkpt lat="46.0317" lon="4.55296">
        <ele>658</ele>
        <time>2018-08-05T07:24:37.000Z</time>
      </trkpt>
      <trkpt lat="46.0317" lon="4.55296">
        <ele>658</ele>
        <time>2018-08-05T07:24:38.000Z</time>
      </trkpt>
      <trkpt lat="46.0317" lon="4.55294">
        <ele>658</ele>
        <time>2018-08-05T07:24:39.000Z</time>
      </trkpt>
      <trkpt lat="46.0317" lon="4.55293">
        <ele>658</ele>
        <time>2018-08-05T07:24:40.000Z</time>
      </trkpt>
      <trkpt lat="46.0317" lon="4.55293">
        <ele>658</ele>
        <time>2018-08-05T07:24:41.000Z</time>
      </trkpt>
      <trkpt lat="46.0317" lon="4.55292">
        <ele>658</ele>
        <time>2018-08-05T07:24:42.000Z</time>
      </trkpt>
      <trkpt lat="46.0317" lon="4.55292">
        <ele>658</ele>
        <time>2018-08-05T07:24:43.000Z</time>
      </trkpt>
      <trkpt lat="46.0317" lon="4.55292">
        <ele>658</ele>
        <time>2018-08-05T07:24:44.000Z</time>
      </trkpt>
      <trkpt lat="46.0317" lon="4.55295">
        <ele>658</ele>
        <time>2018-08-05T07:26:06.000Z</time>
      </trkpt>
      <trkpt lat="46.0317" lon="4.55295">
        <ele>658</ele>
        <time>2018-08-05T07:26:07.000Z</time>
      </trkpt>
      <trkpt lat="46.0317" lon="4.55295">
        <ele>658</ele>
        <time>2018-08-05T07:26:08.000Z</time>
      </trkpt>
      <trkpt lat="46.0317" lon="4.55295">
        <ele>658</ele>
        <time>2018-08-05T07:26:09.000Z</time>
      </trkpt>
      <trkpt lat="46.0317" lon="4.55295">
        <ele>658</ele>
        <time>2018-08-05T07:26:10.000Z</time>
      </trkpt>
      <trkpt lat="46.0317" lon="4.55295">
        <ele>658</ele>
        <time>2018-08-05T07:26:11.000Z</time>
      </trkpt>
      <trkpt lat="46.03164" lon="4.5531">
        <ele>654</ele>
        <time>2018-08-05T07:29:33.000Z</time>
      </trkpt>
      <trkpt lat="46.03164" lon="4.55314">
        <ele>655</ele>
        <time>2018-08-05T07:29:34.000Z</time>
      </trkpt>
      <trkpt lat="46.03163" lon="4.55319">
        <ele>655</ele>
        <time>2018-08-05T07:29:35.000Z</time>
      </trkpt>
      <trkpt lat="46.03163" lon="4.55323">
        <ele>655</ele>
        <time>2018-08-05T07:29:36.000Z</time>
      </trkpt>
      <trkpt lat="46.03163" lon="4.55328">
        <ele>656</ele>
        <time>2018-08-05T07:29:37.000Z</time>
      </trkpt>
      <trkpt lat="46.03163" lon="4.55332">
        <ele>656</ele>
        <time>2018-08-05T07:29:38.000Z</time>
      </trkpt>
      <trkpt lat="46.03164" lon="4.55335">
        <ele>657</ele>
        <time>2018-08-05T07:29:39.000Z</time>
      </trkpt>
      <trkpt lat="46.03164" lon="4.55338">
        <ele>657</ele>
        <time>2018-08-05T07:29:40.000Z</time>
      </trkpt>
      <trkpt lat="46.03164" lon="4.55341">
        <ele>657</ele>
        <time>2018-08-05T07:29:41.000Z</time>
      </trkpt>
      <trkpt lat="46.03165" lon="4.55343">
        <ele>657</ele>
        <time>2018-08-05T07:29:42.000Z</time>
      </trkpt>
      <trkpt lat="46.03165" lon="4.55345">
        <ele>658</ele>
        <time>2018-08-05T07:29:43.000Z</time>
      </trkpt>
      <trkpt lat="46.03166" lon="4.55348">
        <ele>658</ele>
        <time>2018-08-05T07:29:44.000Z</time>
      </trkpt>
      <trkpt lat="46.03167" lon="4.55351">
        <ele>657</ele>
        <time>2018-08-05T07:29:45.000Z</time>
      </trkpt>
      <trkpt lat="46.03168" lon="4.55354">
        <ele>657</ele>
        <time>2018-08-05T07:29:46.000Z</time>
      </trkpt>
      <trkpt lat="46.03169" lon="4.55357">
        <ele>657</ele>
        <time>2018-08-05T07:29:47.000Z</time>
      </trkpt>
      <trkpt lat="46.0317" lon="4.55361">
        <ele>657</ele>
        <time>2018-08-05T07:29:48.000Z</time>
      </trkpt>
      <trkpt lat="46.03171" lon="4.55364">
        <ele>657</ele>
        <time>2018-08-05T07:29:49.000Z</time>
      </trkpt>
      <trkpt lat="46.03173" lon="4.55367">
        <ele>657</ele>
        <time>2018-08-05T07:29:50.000Z</time>
      </trkpt>
      <trkpt lat="46.03174" lon="4.55369">
        <ele>657</ele>
        <time>2018-08-05T07:29:51.000Z</time>
      </trkpt>
      <trkpt lat="46.03176" lon="4.55371">
        <ele>657</ele>
        <time>2018-08-05T07:29:52.000Z</time>
      </trkpt>
      <trkpt lat="46.03179" lon="4.55372">
        <ele>657</ele>
        <time>2018-08-05T07:29:53.000Z</time>
      </trkpt>
      <trkpt lat="46.03181" lon="4.55372">
        <ele>657</ele>
        <time>2018-08-05T07:29:54.000Z</time>
      </trkpt>
      <trkpt lat="46.03184" lon="4.55372">
        <ele>657</ele>
        <time>2018-08-05T07:29:55.000Z</time>
      </trkpt>
      <trkpt lat="46.03187" lon="4.55373">
        <ele>657</ele>
        <time>2018-08-05T07:29:56.000Z</time>
      </trkpt>
      <trkpt lat="46.0319" lon="4.55374">
        <ele>657</ele>
        <time>2018-08-05T07:29:57.000Z</time>
      </trkpt>
      <trkpt lat="46.03194" lon="4.55374">
        <ele>657</ele>
        <time>2018-08-05T07:29:58.000Z</time>
      </trkpt>
      <trkpt lat="46.03198" lon="4.55375">
        <ele>656</ele>
        <time>2018-08-05T07:29:59.000Z</time>
      </trkpt>
      <trkpt lat="46.03202" lon="4.55376">
        <ele>656</ele>
        <time>2018-08-05T07:30:00.000Z</time>
      </trkpt>
      <trkpt lat="46.03207" lon="4.55377">
        <ele>656</ele>
        <time>2018-08-05T07:30:01.000Z</time>
      </trkpt>
      <trkpt lat="46.03212" lon="4.55378">
        <ele>656</ele>
        <time>2018-08-05T07:30:02.000Z</time>
      </trkpt>
      <trkpt lat="46.03217" lon="4.55379">
        <ele>655</ele>
        <time>2018-08-05T07:30:03.000Z</time>
      </trkpt>
      <trkpt lat="46.03223" lon="4.55381">
        <ele>655</ele>
        <time>2018-08-05T07:30:04.000Z</time>
      </trkpt>
      <trkpt lat="46.03229" lon="4.55381">
        <ele>655</ele>
        <time>2018-08-05T07:30:05.000Z</time>
      </trkpt>
      <trkpt lat="46.03235" lon="4.55382">
        <ele>655</ele>
        <time>2018-08-05T07:30:06.000Z</time>
      </trkpt>
      <trkpt lat="46.03241" lon="4.55382">
        <ele>654</ele>
        <time>2018-08-05T07:30:07.000Z</time>
      </trkpt>
      <trkpt lat="46.03247" lon="4.55383">
        <ele>654</ele>
        <time>2018-08-05T07:30:08.000Z</time>
      </trkpt>
      <trkpt lat="46.03254" lon="4.55383">
        <ele>649</ele>
        <time>2018-08-05T07:30:09.000Z</time>
      </trkpt>
      <trkpt lat="46.03261" lon="4.55382">
        <ele>649</ele>
        <time>2018-08-05T07:30:10.000Z</time>
      </trkpt>
      <trkpt lat="46.03268" lon="4.55382">
        <ele>648</ele>
        <time>2018-08-05T07:30:11.000Z</time>
      </trkpt>
      <trkpt lat="46.03276" lon="4.55382">
        <ele>648</ele>
        <time>2018-08-05T07:30:12.000Z</time>
      </trkpt>
      <trkpt lat="46.03284" lon="4.55381">
        <ele>648</ele>
        <time>2018-08-05T07:30:13.000Z</time>
      </trkpt>
      <trkpt lat="46.03292" lon="4.5538">
        <ele>648</ele>
        <time>2018-08-05T07:30:14.000Z</time>
      </trkpt>
      <trkpt lat="46.033" lon="4.55375">
        <ele>648</ele>
        <time>2018-08-05T07:30:15.000Z</time>
      </trkpt>
      <trkpt lat="46.03307" lon="4.55369">
        <ele>648</ele>
        <time>2018-08-05T07:30:16.000Z</time>
      </trkpt>
      <trkpt lat="46.03315" lon="4.55361">
        <ele>649</ele>
        <time>2018-08-05T07:30:17.000Z</time>
      </trkpt>
      <trkpt lat="46.03321" lon="4.55352">
        <ele>650</ele>
        <time>2018-08-05T07:30:18.000Z</time>
      </trkpt>
      <trkpt lat="46.03328" lon="4.55343">
        <ele>652</ele>
        <time>2018-08-05T07:30:19.000Z</time>
      </trkpt>
      <trkpt lat="46.03335" lon="4.55336">
        <ele>653</ele>
        <time>2018-08-05T07:30:20.000Z</time>
      </trkpt>
      <trkpt lat="46.03343" lon="4.55331">
        <ele>658</ele>
        <time>2018-08-05T07:30:21.000Z</time>
      </trkpt>
      <trkpt lat="46.03352" lon="4.55328">
        <ele>660</ele>
        <time>2018-08-05T07:30:22.000Z</time>
      </trkpt>
      <trkpt lat="46.03361" lon="4.55328">
        <ele>661</ele>
        <time>2018-08-05T07:30:23.000Z</time>
      </trkpt>
      <trkpt lat="46.03371" lon="4.5533">
        <ele>661</ele>
        <time>2018-08-05T07:30:24.000Z</time>
      </trkpt>
      <trkpt lat="46.0338" lon="4.55333">
        <ele>661</ele>
        <time>2018-08-05T07:30:25.000Z</time>
      </trkpt>
      <trkpt lat="46.0339" lon="4.55335">
        <ele>646</ele>
        <time>2018-08-05T07:30:26.000Z</time>
      </trkpt>
      <trkpt lat="46.034" lon="4.55338">
        <ele>647</ele>
        <time>2018-08-05T07:30:27.000Z</time>
      </trkpt>
      <trkpt lat="46.03411" lon="4.55341">
        <ele>648</ele>
        <time>2018-08-05T07:30:28.000Z</time>
      </trkpt>
      <trkpt lat="46.03422" lon="4.55343">
        <ele>648</ele>
        <time>2018-08-05T07:30:29.000Z</time>
      </trkpt>
      <trkpt lat="46.03432" lon="4.55347">
        <ele>646</ele>
        <time>2018-08-05T07:30:30.000Z</time>
      </trkpt>
      <trkpt lat="46.03442" lon="4.55351">
        <ele>644</ele>
        <time>2018-08-05T07:30:31.000Z</time>
      </trkpt>
      <trkpt lat="46.03452" lon="4.55356">
        <ele>644</ele>
        <time>2018-08-05T07:30:32.000Z</time>
      </trkpt>
      <trkpt lat="46.03462" lon="4.55362">
        <ele>643</ele>
        <time>2018-08-05T07:30:33.000Z</time>
      </trkpt>
      <trkpt lat="46.03472" lon="4.55368">
        <ele>642</ele>
        <time>2018-08-05T07:30:34.000Z</time>
      </trkpt>
      <trkpt lat="46.03483" lon="4.55373">
        <ele>642</ele>
        <time>2018-08-05T07:30:35.000Z</time>
      </trkpt>
      <trkpt lat="46.03494" lon="4.55378">
        <ele>641</ele>
        <time>2018-08-05T07:30:36.000Z</time>
      </trkpt>
      <trkpt lat="46.03504" lon="4.55381">
        <ele>644</ele>
        <time>2018-08-05T07:30:37.000Z</time>
      </trkpt>
      <trkpt lat="46.03516" lon="4.55384">
        <ele>644</ele>
        <time>2018-08-05T07:30:38.000Z</time>
      </trkpt>
      <trkpt lat="46.03527" lon="4.55387">
        <ele>644</ele>
        <time>2018-08-05T07:30:39.000Z</time>
      </trkpt>
      <trkpt lat="46.03538" lon="4.55392">
        <ele>645</ele>
        <time>2018-08-05T07:30:40.000Z</time>
      </trkpt>
      <trkpt lat="46.03548" lon="4.55398">
        <ele>644</ele>
        <time>2018-08-05T07:30:41.000Z</time>
      </trkpt>
      <trkpt lat="46.03557" lon="4.55406">
        <ele>644</ele>
        <time>2018-08-05T07:30:42.000Z</time>
      </trkpt>
      <trkpt lat="46.03566" lon="4.55417">
        <ele>631</ele>
        <time>2018-08-05T07:30:43.000Z</time>
      </trkpt>
      <trkpt lat="46.03573" lon="4.55429">
        <ele>631</ele>
        <time>2018-08-05T07:30:44.000Z</time>
      </trkpt>
      <trkpt lat="46.0358" lon="4.55441">
        <ele>629</ele>
        <time>2018-08-05T07:30:45.000Z</time>
      </trkpt>
      <trkpt lat="46.03587" lon="4.55453">
        <ele>630</ele>
        <time>2018-08-05T07:30:46.000Z</time>
      </trkpt>
      <trkpt lat="46.03594" lon="4.55465">
        <ele>628</ele>
        <time>2018-08-05T07:30:47.000Z</time>
      </trkpt>
      <trkpt lat="46.03602" lon="4.55475">
        <ele>626</ele>
        <time>2018-08-05T07:30:48.000Z</time>
      </trkpt>
      <trkpt lat="46.0361" lon="4.55482">
        <ele>626</ele>
        <time>2018-08-05T07:30:49.000Z</time>
      </trkpt>
      <trkpt lat="46.03618" lon="4.55485">
        <ele>626</ele>
        <time>2018-08-05T07:30:50.000Z</time>
      </trkpt>
      <trkpt lat="46.03626" lon="4.55485">
        <ele>626</ele>
        <time>2018-08-05T07:30:51.000Z</time>
      </trkpt>
      <trkpt lat="46.03634" lon="4.55481">
        <ele>626</ele>
        <time>2018-08-05T07:30:52.000Z</time>
      </trkpt>
      <trkpt lat="46.03642" lon="4.55474">
        <ele>626</ele>
        <time>2018-08-05T07:30:53.000Z</time>
      </trkpt>
      <trkpt lat="46.03649" lon="4.55466">
        <ele>627</ele>
        <time>2018-08-05T07:30:54.000Z</time>
      </trkpt>
      <trkpt lat="46.03656" lon="4.55457">
        <ele>628</ele>
        <time>2018-08-05T07:30:55.000Z</time>
      </trkpt>
      <trkpt lat="46.03664" lon="4.55449">
        <ele>630</ele>
        <time>2018-08-05T07:30:56.000Z</time>
      </trkpt>
      <trkpt lat="46.03672" lon="4.55441">
        <ele>625</ele>
        <time>2018-08-05T07:30:57.000Z</time>
      </trkpt>
      <trkpt lat="46.03679" lon="4.55432">
        <ele>626</ele>
        <time>2018-08-05T07:30:58.000Z</time>
      </trkpt>
      <trkpt lat="46.03688" lon="4.55425">
        <ele>626</ele>
        <time>2018-08-05T07:30:59.000Z</time>
      </trkpt>
      <trkpt lat="46.03697" lon="4.55419">
        <ele>624</ele>
        <time>2018-08-05T07:31:00.000Z</time>
      </trkpt>
      <trkpt lat="46.03706" lon="4.55416">
        <ele>638</ele>
        <time>2018-08-05T07:31:01.000Z</time>
      </trkpt>
      <trkpt lat="46.03716" lon="4.55413">
        <ele>637</ele>
        <time>2018-08-05T07:31:02.000Z</time>
      </trkpt>
      <trkpt lat="46.03725" lon="4.55409">
        <ele>635</ele>
        <time>2018-08-05T07:31:03.000Z</time>
      </trkpt>
      <trkpt lat="46.03735" lon="4.55406">
        <ele>632</ele>
        <time>2018-08-05T07:31:04.000Z</time>
      </trkpt>
      <trkpt lat="46.03744" lon="4.55401">
        <ele>632</ele>
        <time>2018-08-05T07:31:05.000Z</time>
      </trkpt>
      <trkpt lat="46.03753" lon="4.55395">
        <ele>628</ele>
        <time>2018-08-05T07:31:06.000Z</time>
      </trkpt>
      <trkpt lat="46.03762" lon="4.55389">
        <ele>629</ele>
        <time>2018-08-05T07:31:07.000Z</time>
      </trkpt>
      <trkpt lat="46.0377" lon="4.55382">
        <ele>631</ele>
        <time>2018-08-05T07:31:08.000Z</time>
      </trkpt>
      <trkpt lat="46.03778" lon="4.55375">
        <ele>632</ele>
        <time>2018-08-05T07:31:09.000Z</time>
      </trkpt>
      <trkpt lat="46.03786" lon="4.55369">
        <ele>633</ele>
        <time>2018-08-05T07:31:10.000Z</time>
      </trkpt>
      <trkpt lat="46.03794" lon="4.55364">
        <ele>633</ele>
        <time>2018-08-05T07:31:11.000Z</time>
      </trkpt>
      <trkpt lat="46.03803" lon="4.5536">
        <ele>633</ele>
        <time>2018-08-05T07:31:12.000Z</time>
      </trkpt>
      <trkpt lat="46.03812" lon="4.55358">
        <ele>634</ele>
        <time>2018-08-05T07:31:13.000Z</time>
      </trkpt>
      <trkpt lat="46.0382" lon="4.55358">
        <ele>634</ele>
        <time>2018-08-05T07:31:14.000Z</time>
      </trkpt>
      <trkpt lat="46.0383" lon="4.55358">
        <ele>634</ele>
        <time>2018-08-05T07:31:15.000Z</time>
      </trkpt>
      <trkpt lat="46.03839" lon="4.55359">
        <ele>628</ele>
        <time>2018-08-05T07:31:16.000Z</time>
      </trkpt>
      <trkpt lat="46.03847" lon="4.55361">
        <ele>627</ele>
        <time>2018-08-05T07:31:17.000Z</time>
      </trkpt>
      <trkpt lat="46.03856" lon="4.55362">
        <ele>625</ele>
        <time>2018-08-05T07:31:18.000Z</time>
      </trkpt>
      <trkpt lat="46.03864" lon="4.55363">
        <ele>624</ele>
        <time>2018-08-05T07:31:19.000Z</time>
      </trkpt>
      <trkpt lat="46.03873" lon="4.55364">
        <ele>623</ele>
        <time>2018-08-05T07:31:20.000Z</time>
      </trkpt>
      <trkpt lat="46.03882" lon="4.55362">
        <ele>623</ele>
        <time>2018-08-05T07:31:21.000Z</time>
      </trkpt>
      <trkpt lat="46.03892" lon="4.55359">
        <ele>623</ele>
        <time>2018-08-05T07:31:22.000Z</time>
      </trkpt>
      <trkpt lat="46.039" lon="4.55354">
        <ele>623</ele>
        <time>2018-08-05T07:31:23.000Z</time>
      </trkpt>
      <trkpt lat="46.03908" lon="4.55347">
        <ele>624</ele>
        <time>2018-08-05T07:31:24.000Z</time>
      </trkpt>
      <trkpt lat="46.03916" lon="4.55339">
        <ele>625</ele>
        <time>2018-08-05T07:31:25.000Z</time>
      </trkpt>
      <trkpt lat="46.03923" lon="4.55331">
        <ele>626</ele>
        <time>2018-08-05T07:31:26.000Z</time>
      </trkpt>
      <trkpt lat="46.03929" lon="4.55321">
        <ele>625</ele>
        <time>2018-08-05T07:31:27.000Z</time>
      </trkpt>
      <trkpt lat="46.03934" lon="4.55312">
        <ele>625</ele>
        <time>2018-08-05T07:31:28.000Z</time>
      </trkpt>
      <trkpt lat="46.03939" lon="4.55302">
        <ele>626</ele>
        <time>2018-08-05T07:31:29.000Z</time>
      </trkpt>
      <trkpt lat="46.03944" lon="4.55292">
        <ele>626</ele>
        <time>2018-08-05T07:31:30.000Z</time>
      </trkpt>
      <trkpt lat="46.0395" lon="4.55282">
        <ele>627</ele>
        <time>2018-08-05T07:31:31.000Z</time>
      </trkpt>
      <trkpt lat="46.03957" lon="4.55273">
        <ele>627</ele>
        <time>2018-08-05T07:31:32.000Z</time>
      </trkpt>
      <trkpt lat="46.03964" lon="4.55264">
        <ele>627</ele>
        <time>2018-08-05T07:31:33.000Z</time>
      </trkpt>
      <trkpt lat="46.03971" lon="4.55256">
        <ele>626</ele>
        <time>2018-08-05T07:31:34.000Z</time>
      </trkpt>
      <trkpt lat="46.03978" lon="4.55247">
        <ele>638</ele>
        <time>2018-08-05T07:31:35.000Z</time>
      </trkpt>
      <trkpt lat="46.03985" lon="4.55238">
        <ele>637</ele>
        <time>2018-08-05T07:31:36.000Z</time>
      </trkpt>
      <trkpt lat="46.03993" lon="4.55231">
        <ele>638</ele>
        <time>2018-08-05T07:31:37.000Z</time>
      </trkpt>
      <trkpt lat="46.04" lon="4.55223">
        <ele>640</ele>
        <time>2018-08-05T07:31:38.000Z</time>
      </trkpt>
      <trkpt lat="46.04008" lon="4.55217">
        <ele>632</ele>
        <time>2018-08-05T07:31:39.000Z</time>
      </trkpt>
      <trkpt lat="46.04018" lon="4.55212">
        <ele>633</ele>
        <time>2018-08-05T07:31:40.000Z</time>
      </trkpt>
      <trkpt lat="46.04027" lon="4.5521">
        <ele>633</ele>
        <time>2018-08-05T07:31:41.000Z</time>
      </trkpt>
      <trkpt lat="46.04036" lon="4.55209">
        <ele>632</ele>
        <time>2018-08-05T07:31:42.000Z</time>
      </trkpt>
      <trkpt lat="46.04046" lon="4.55208">
        <ele>631</ele>
        <time>2018-08-05T07:31:43.000Z</time>
      </trkpt>
      <trkpt lat="46.04055" lon="4.55208">
        <ele>631</ele>
        <time>2018-08-05T07:31:44.000Z</time>
      </trkpt>
      <trkpt lat="46.04064" lon="4.55208">
        <ele>630</ele>
        <time>2018-08-05T07:31:45.000Z</time>
      </trkpt>
      <trkpt lat="46.04074" lon="4.55207">
        <ele>629</ele>
        <time>2018-08-05T07:31:46.000Z</time>
      </trkpt>
      <trkpt lat="46.04083" lon="4.55207">
        <ele>629</ele>
        <time>2018-08-05T07:31:47.000Z</time>
      </trkpt>
      <trkpt lat="46.04093" lon="4.55207">
        <ele>626</ele>
        <time>2018-08-05T07:31:48.000Z</time>
      </trkpt>
      <trkpt lat="46.04102" lon="4.55206">
        <ele>626</ele>
        <time>2018-08-05T07:31:49.000Z</time>
      </trkpt>
      <trkpt lat="46.04111" lon="4.55206">
        <ele>626</ele>
        <time>2018-08-05T07:31:50.000Z</time>
      </trkpt>
      <trkpt lat="46.0412" lon="4.55207">
        <ele>626</ele>
        <time>2018-08-05T07:31:51.000Z</time>
      </trkpt>
      <trkpt lat="46.04129" lon="4.55209">
        <ele>626</ele>
        <time>2018-08-05T07:31:52.000Z</time>
      </trkpt>
      <trkpt lat="46.04137" lon="4.55213">
        <ele>625</ele>
        <time>2018-08-05T07:31:53.000Z</time>
      </trkpt>
      <trkpt lat="46.04146" lon="4.55219">
        <ele>624</ele>
        <time>2018-08-05T07:31:54.000Z</time>
      </trkpt>
      <trkpt lat="46.04154" lon="4.55227">
        <ele>622</ele>
        <time>2018-08-05T07:31:55.000Z</time>
      </trkpt>
      <trkpt lat="46.04163" lon="4.55234">
        <ele>620</ele>
        <time>2018-08-05T07:31:56.000Z</time>
      </trkpt>
      <trkpt lat="46.04171" lon="4.55243">
        <ele>619</ele>
        <time>2018-08-05T07:31:57.000Z</time>
      </trkpt>
      <trkpt lat="46.04178" lon="4.5525">
        <ele>611</ele>
        <time>2018-08-05T07:31:58.000Z</time>
      </trkpt>
      <trkpt lat="46.04186" lon="4.55258">
        <ele>609</ele>
        <time>2018-08-05T07:31:59.000Z</time>
      </trkpt>
      <trkpt lat="46.04194" lon="4.55264">
        <ele>608</ele>
        <time>2018-08-05T07:32:00.000Z</time>
      </trkpt>
      <trkpt lat="46.04201" lon="4.5527">
        <ele>607</ele>
        <time>2018-08-05T07:32:01.000Z</time>
      </trkpt>
      <trkpt lat="46.04208" lon="4.55276">
        <ele>607</ele>
        <time>2018-08-05T07:32:02.000Z</time>
      </trkpt>
      <trkpt lat="46.04216" lon="4.55282">
        <ele>606</ele>
        <time>2018-08-05T07:32:03.000Z</time>
      </trkpt>
      <trkpt lat="46.04225" lon="4.55287">
        <ele>606</ele>
        <time>2018-08-05T07:32:04.000Z</time>
      </trkpt>
      <trkpt lat="46.04233" lon="4.55293">
        <ele>605</ele>
        <time>2018-08-05T07:32:05.000Z</time>
      </trkpt>
      <trkpt lat="46.04242" lon="4.55299">
        <ele>604</ele>
        <time>2018-08-05T07:32:06.000Z</time>
      </trkpt>
      <trkpt lat="46.04251" lon="4.55306">
        <ele>604</ele>
        <time>2018-08-05T07:32:07.000Z</time>
      </trkpt>
      <trkpt lat="46.0426" lon="4.55311">
        <ele>603</ele>
        <time>2018-08-05T07:32:08.000Z</time>
      </trkpt>
      <trkpt lat="46.0427" lon="4.55317">
        <ele>602</ele>
        <time>2018-08-05T07:32:09.000Z</time>
      </trkpt>
      <trkpt lat="46.04279" lon="4.55322">
        <ele>602</ele>
        <time>2018-08-05T07:32:10.000Z</time>
      </trkpt>
      <trkpt lat="46.04289" lon="4.55327">
        <ele>602</ele>
        <time>2018-08-05T07:32:11.000Z</time>
      </trkpt>
      <trkpt lat="46.04298" lon="4.55332">
        <ele>602</ele>
        <time>2018-08-05T07:32:12.000Z</time>
      </trkpt>
      <trkpt lat="46.04308" lon="4.55336">
        <ele>591</ele>
        <time>2018-08-05T07:32:13.000Z</time>
      </trkpt>
      <trkpt lat="46.04317" lon="4.55338">
        <ele>592</ele>
        <time>2018-08-05T07:32:14.000Z</time>
      </trkpt>
      <trkpt lat="46.04325" lon="4.55337">
        <ele>593</ele>
        <time>2018-08-05T07:32:15.000Z</time>
      </trkpt>
      <trkpt lat="46.04333" lon="4.55334">
        <ele>596</ele>
        <time>2018-08-05T07:32:16.000Z</time>
      </trkpt>
      <trkpt lat="46.04339" lon="4.5533">
        <ele>594</ele>
        <time>2018-08-05T07:32:17.000Z</time>
      </trkpt>
      <trkpt lat="46.04344" lon="4.55326">
        <ele>593</ele>
        <time>2018-08-05T07:32:18.000Z</time>
      </trkpt>
      <trkpt lat="46.04347" lon="4.5532">
        <ele>593</ele>
        <time>2018-08-05T07:32:19.000Z</time>
      </trkpt>
      <trkpt lat="46.0435" lon="4.55314">
        <ele>592</ele>
        <time>2018-08-05T07:32:20.000Z</time>
      </trkpt>
      <trkpt lat="46.04352" lon="4.55308">
        <ele>592</ele>
        <time>2018-08-05T07:32:21.000Z</time>
      </trkpt>
      <trkpt lat="46.04355" lon="4.55302">
        <ele>592</ele>
        <time>2018-08-05T07:32:22.000Z</time>
      </trkpt>
      <trkpt lat="46.04357" lon="4.55295">
        <ele>592</ele>
        <time>2018-08-05T07:32:23.000Z</time>
      </trkpt>
      <trkpt lat="46.0436" lon="4.55288">
        <ele>592</ele>
        <time>2018-08-05T07:32:24.000Z</time>
      </trkpt>
      <trkpt lat="46.04362" lon="4.5528">
        <ele>592</ele>
        <time>2018-08-05T07:32:25.000Z</time>
      </trkpt>
      <trkpt lat="46.04363" lon="4.55271">
        <ele>592</ele>
        <time>2018-08-05T07:32:26.000Z</time>
      </trkpt>
      <trkpt lat="46.04365" lon="4.55262">
        <ele>593</ele>
        <time>2018-08-05T07:32:27.000Z</time>
      </trkpt>
      <trkpt lat="46.04365" lon="4.55252">
        <ele>593</ele>
        <time>2018-08-05T07:32:28.000Z</time>
      </trkpt>
      <trkpt lat="46.04367" lon="4.55242">
        <ele>597</ele>
        <time>2018-08-05T07:32:29.000Z</time>
      </trkpt>
      <trkpt lat="46.04369" lon="4.55231">
        <ele>597</ele>
        <time>2018-08-05T07:32:30.000Z</time>
      </trkpt>
      <trkpt lat="46.04371" lon="4.5522">
        <ele>597</ele>
        <time>2018-08-05T07:32:31.000Z</time>
      </trkpt>
      <trkpt lat="46.04373" lon="4.55209">
        <ele>597</ele>
        <time>2018-08-05T07:32:32.000Z</time>
      </trkpt>
      <trkpt lat="46.04375" lon="4.55198">
        <ele>597</ele>
        <time>2018-08-05T07:32:33.000Z</time>
      </trkpt>
      <trkpt lat="46.04377" lon="4.55187">
        <ele>597</ele>
        <time>2018-08-05T07:32:34.000Z</time>
      </trkpt>
      <trkpt lat="46.04379" lon="4.55176">
        <ele>596</ele>
        <time>2018-08-05T07:32:35.000Z</time>
      </trkpt>
      <trkpt lat="46.04381" lon="4.55166">
        <ele>602</ele>
        <time>2018-08-05T07:32:36.000Z</time>
      </trkpt>
      <trkpt lat="46.04383" lon="4.55155">
        <ele>601</ele>
        <time>2018-08-05T07:32:37.000Z</time>
      </trkpt>
      <trkpt lat="46.04386" lon="4.55145">
        <ele>602</ele>
        <time>2018-08-05T07:32:38.000Z</time>
      </trkpt>
      <trkpt lat="46.04388" lon="4.55135">
        <ele>602</ele>
        <time>2018-08-05T07:32:39.000Z</time>
      </trkpt>
      <trkpt lat="46.0439" lon="4.55125">
        <ele>602</ele>
        <time>2018-08-05T07:32:40.000Z</time>
      </trkpt>
      <trkpt lat="46.04393" lon="4.55115">
        <ele>602</ele>
        <time>2018-08-05T07:32:41.000Z</time>
      </trkpt>
      <trkpt lat="46.04395" lon="4.55105">
        <ele>602</ele>
        <time>2018-08-05T07:32:42.000Z</time>
      </trkpt>
      <trkpt lat="46.04398" lon="4.55094">
        <ele>601</ele>
        <time>2018-08-05T07:32:43.000Z</time>
      </trkpt>
      <trkpt lat="46.04401" lon="4.55084">
        <ele>600</ele>
        <time>2018-08-05T07:32:44.000Z</time>
      </trkpt>
      <trkpt lat="46.04404" lon="4.55074">
        <ele>603</ele>
        <time>2018-08-05T07:32:45.000Z</time>
      </trkpt>
      <trkpt lat="46.04408" lon="4.55063">
        <ele>605</ele>
        <time>2018-08-05T07:32:46.000Z</time>
      </trkpt>
      <trkpt lat="46.04412" lon="4.55053">
        <ele>607</ele>
        <time>2018-08-05T07:32:47.000Z</time>
      </trkpt>
      <trkpt lat="46.04416" lon="4.55043">
        <ele>608</ele>
        <time>2018-08-05T07:32:48.000Z</time>
      </trkpt>
      <trkpt lat="46.04421" lon="4.55033">
        <ele>589</ele>
        <time>2018-08-05T07:32:49.000Z</time>
      </trkpt>
      <trkpt lat="46.04425" lon="4.55024">
        <ele>590</ele>
        <time>2018-08-05T07:32:50.000Z</time>
      </trkpt>
      <trkpt lat="46.04429" lon="4.55015">
        <ele>591</ele>
        <time>2018-08-05T07:32:51.000Z</time>
      </trkpt>
      <trkpt lat="46.04434" lon="4.55005">
        <ele>592</ele>
        <time>2018-08-05T07:32:52.000Z</time>
      </trkpt>
      <trkpt lat="46.04439" lon="4.54996">
        <ele>592</ele>
        <time>2018-08-05T07:32:53.000Z</time>
      </trkpt>
      <trkpt lat="46.04443" lon="4.54987">
        <ele>590</ele>
        <time>2018-08-05T07:32:54.000Z</time>
      </trkpt>
      <trkpt lat="46.04447" lon="4.54979">
        <ele>589</ele>
        <time>2018-08-05T07:32:55.000Z</time>
      </trkpt>
      <trkpt lat="46.04451" lon="4.54969">
        <ele>587</ele>
        <time>2018-08-05T07:32:56.000Z</time>
      </trkpt>
      <trkpt lat="46.04454" lon="4.54958">
        <ele>587</ele>
        <time>2018-08-05T07:32:57.000Z</time>
      </trkpt>
      <trkpt lat="46.04456" lon="4.54947">
        <ele>586</ele>
        <time>2018-08-05T07:32:58.000Z</time>
      </trkpt>
      <trkpt lat="46.04456" lon="4.54935">
        <ele>586</ele>
        <time>2018-08-05T07:32:59.000Z</time>
      </trkpt>
      <trkpt lat="46.04453" lon="4.54922">
        <ele>587</ele>
        <time>2018-08-05T07:33:00.000Z</time>
      </trkpt>
      <trkpt lat="46.04451" lon="4.54909">
        <ele>589</ele>
        <time>2018-08-05T07:33:01.000Z</time>
      </trkpt>
      <trkpt lat="46.04449" lon="4.54896">
        <ele>589</ele>
        <time>2018-08-05T07:33:02.000Z</time>
      </trkpt>
      <trkpt lat="46.04447" lon="4.54884">
        <ele>590</ele>
        <time>2018-08-05T07:33:03.000Z</time>
      </trkpt>
      <trkpt lat="46.04445" lon="4.54873">
        <ele>590</ele>
        <time>2018-08-05T07:33:04.000Z</time>
      </trkpt>
      <trkpt lat="46.04444" lon="4.54862">
        <ele>591</ele>
        <time>2018-08-05T07:33:05.000Z</time>
      </trkpt>
      <trkpt lat="46.04446" lon="4.54851">
        <ele>591</ele>
        <time>2018-08-05T07:33:06.000Z</time>
      </trkpt>
      <trkpt lat="46.0445" lon="4.5484">
        <ele>591</ele>
        <time>2018-08-05T07:33:07.000Z</time>
      </trkpt>
      <trkpt lat="46.04456" lon="4.54832">
        <ele>596</ele>
        <time>2018-08-05T07:33:08.000Z</time>
      </trkpt>
      <trkpt lat="46.04464" lon="4.54825">
        <ele>595</ele>
        <time>2018-08-05T07:33:09.000Z</time>
      </trkpt>
      <trkpt lat="46.0447" lon="4.54821">
        <ele>594</ele>
        <time>2018-08-05T07:33:10.000Z</time>
      </trkpt>
      <trkpt lat="46.04478" lon="4.54814">
        <ele>592</ele>
        <time>2018-08-05T07:33:11.000Z</time>
      </trkpt>
      <trkpt lat="46.04485" lon="4.54806">
        <ele>593</ele>
        <time>2018-08-05T07:33:12.000Z</time>
      </trkpt>
      <trkpt lat="46.04492" lon="4.54796">
        <ele>594</ele>
        <time>2018-08-05T07:33:13.000Z</time>
      </trkpt>
      <trkpt lat="46.04497" lon="4.54787">
        <ele>595</ele>
        <time>2018-08-05T07:33:14.000Z</time>
      </trkpt>
      <trkpt lat="46.04502" lon="4.54776">
        <ele>584</ele>
        <time>2018-08-05T07:33:15.000Z</time>
      </trkpt>
      <trkpt lat="46.04506" lon="4.54764">
        <ele>587</ele>
        <time>2018-08-05T07:33:16.000Z</time>
      </trkpt>
      <trkpt lat="46.04509" lon="4.54751">
        <ele>590</ele>
        <time>2018-08-05T07:33:17.000Z</time>
      </trkpt>
      <trkpt lat="46.04513" lon="4.54738">
        <ele>595</ele>
        <time>2018-08-05T07:33:18.000Z</time>
      </trkpt>
      <trkpt lat="46.04516" lon="4.54726">
        <ele>596</ele>
        <time>2018-08-05T07:33:19.000Z</time>
      </trkpt>
      <trkpt lat="46.04519" lon="4.54715">
        <ele>597</ele>
        <time>2018-08-05T07:33:20.000Z</time>
      </trkpt>
      <trkpt lat="46.04522" lon="4.54704">
        <ele>599</ele>
        <time>2018-08-05T07:33:21.000Z</time>
      </trkpt>
      <trkpt lat="46.04526" lon="4.54694">
        <ele>600</ele>
        <time>2018-08-05T07:33:22.000Z</time>
      </trkpt>
      <trkpt lat="46.04529" lon="4.54687">
        <ele>600</ele>
        <time>2018-08-05T07:33:23.000Z</time>
      </trkpt>
      <trkpt lat="46.04534" lon="4.54682">
        <ele>600</ele>
        <time>2018-08-05T07:33:24.000Z</time>
      </trkpt>
      <trkpt lat="46.04539" lon="4.54679">
        <ele>600</ele>
        <time>2018-08-05T07:33:25.000Z</time>
      </trkpt>
      <trkpt lat="46.04544" lon="4.54679">
        <ele>599</ele>
        <time>2018-08-05T07:33:26.000Z</time>
      </trkpt>
      <trkpt lat="46.0455" lon="4.54683">
        <ele>599</ele>
        <time>2018-08-05T07:33:27.000Z</time>
      </trkpt>
      <trkpt lat="46.04555" lon="4.54688">
        <ele>598</ele>
        <time>2018-08-05T07:33:28.000Z</time>
      </trkpt>
      <trkpt lat="46.04561" lon="4.54696">
        <ele>597</ele>
        <time>2018-08-05T07:33:29.000Z</time>
      </trkpt>
      <trkpt lat="46.04566" lon="4.54705">
        <ele>596</ele>
        <time>2018-08-05T07:33:30.000Z</time>
      </trkpt>
      <trkpt lat="46.0457" lon="4.54715">
        <ele>594</ele>
        <time>2018-08-05T07:33:31.000Z</time>
      </trkpt>
      <trkpt lat="46.04575" lon="4.54726">
        <ele>592</ele>
        <time>2018-08-05T07:33:32.000Z</time>
      </trkpt>
      <trkpt lat="46.0458" lon="4.54737">
        <ele>589</ele>
        <time>2018-08-05T07:33:33.000Z</time>
      </trkpt>
      <trkpt lat="46.04584" lon="4.5475">
        <ele>584</ele>
        <time>2018-08-05T07:33:34.000Z</time>
      </trkpt>
      <trkpt lat="46.04589" lon="4.54762">
        <ele>585</ele>
        <time>2018-08-05T07:33:35.000Z</time>
      </trkpt>
      <trkpt lat="46.04593" lon="4.54775">
        <ele>585</ele>
        <time>2018-08-05T07:33:36.000Z</time>
      </trkpt>
      <trkpt lat="46.04598" lon="4.54788">
        <ele>584</ele>
        <time>2018-08-05T07:33:37.000Z</time>
      </trkpt>
      <trkpt lat="46.04603" lon="4.54801">
        <ele>582</ele>
        <time>2018-08-05T07:33:38.000Z</time>
      </trkpt>
      <trkpt lat="46.04608" lon="4.54814">
        <ele>581</ele>
        <time>2018-08-05T07:33:39.000Z</time>
      </trkpt>
      <trkpt lat="46.04613" lon="4.54826">
        <ele>580</ele>
        <time>2018-08-05T07:33:40.000Z</time>
      </trkpt>
      <trkpt lat="46.0462" lon="4.54837">
        <ele>569</ele>
        <time>2018-08-05T07:33:41.000Z</time>
      </trkpt>
      <trkpt lat="46.04627" lon="4.54847">
        <ele>570</ele>
        <time>2018-08-05T07:33:42.000Z</time>
      </trkpt>
      <trkpt lat="46.04635" lon="4.54856">
        <ele>570</ele>
        <time>2018-08-05T07:33:43.000Z</time>
      </trkpt>
      <trkpt lat="46.04643" lon="4.54866">
        <ele>570</ele>
        <time>2018-08-05T07:33:44.000Z</time>
      </trkpt>
      <trkpt lat="46.0465" lon="4.54877">
        <ele>569</ele>
        <time>2018-08-05T07:33:45.000Z</time>
      </trkpt>
      <trkpt lat="46.04655" lon="4.5489">
        <ele>568</ele>
        <time>2018-08-05T07:33:46.000Z</time>
      </trkpt>
      <trkpt lat="46.04658" lon="4.54904">
        <ele>567</ele>
        <time>2018-08-05T07:33:47.000Z</time>
      </trkpt>
      <trkpt lat="46.04661" lon="4.54918">
        <ele>564</ele>
        <time>2018-08-05T07:33:48.000Z</time>
      </trkpt>
      <trkpt lat="46.04665" lon="4.54932">
        <ele>560</ele>
        <time>2018-08-05T07:33:49.000Z</time>
      </trkpt>
      <trkpt lat="46.04669" lon="4.54946">
        <ele>571</ele>
        <time>2018-08-05T07:33:50.000Z</time>
      </trkpt>
      <trkpt lat="46.04674" lon="4.5496">
        <ele>570</ele>
        <time>2018-08-05T07:33:51.000Z</time>
      </trkpt>
      <trkpt lat="46.0468" lon="4.54973">
        <ele>568</ele>
        <time>2018-08-05T07:33:52.000Z</time>
      </trkpt>
      <trkpt lat="46.04686" lon="4.54985">
        <ele>567</ele>
        <time>2018-08-05T07:33:53.000Z</time>
      </trkpt>
      <trkpt lat="46.04693" lon="4.54997">
        <ele>568</ele>
        <time>2018-08-05T07:33:54.000Z</time>
      </trkpt>
      <trkpt lat="46.047" lon="4.55009">
        <ele>558</ele>
        <time>2018-08-05T07:33:55.000Z</time>
      </trkpt>
      <trkpt lat="46.04708" lon="4.5502">
        <ele>559</ele>
        <time>2018-08-05T07:33:56.000Z</time>
      </trkpt>
      <trkpt lat="46.04715" lon="4.55031">
        <ele>559</ele>
        <time>2018-08-05T07:33:57.000Z</time>
      </trkpt>
      <trkpt lat="46.04723" lon="4.5504">
        <ele>559</ele>
        <time>2018-08-05T07:33:58.000Z</time>
      </trkpt>
      <trkpt lat="46.04729" lon="4.5505">
        <ele>559</ele>
        <time>2018-08-05T07:33:59.000Z</time>
      </trkpt>
      <trkpt lat="46.04734" lon="4.55061">
        <ele>558</ele>
        <time>2018-08-05T07:34:00.000Z</time>
      </trkpt>
      <trkpt lat="46.04739" lon="4.55074">
        <ele>559</ele>
        <time>2018-08-05T07:34:01.000Z</time>
      </trkpt>
      <trkpt lat="46.04742" lon="4.55088">
        <ele>555</ele>
        <time>2018-08-05T07:34:02.000Z</time>
      </trkpt>
      <trkpt lat="46.04745" lon="4.55102">
        <ele>551</ele>
        <time>2018-08-05T07:34:03.000Z</time>
      </trkpt>
      <trkpt lat="46.04746" lon="4.55115">
        <ele>548</ele>
        <time>2018-08-05T07:34:04.000Z</time>
      </trkpt>
      <trkpt lat="46.04747" lon="4.55129">
        <ele>546</ele>
        <time>2018-08-05T07:34:05.000Z</time>
      </trkpt>
      <trkpt lat="46.04749" lon="4.55143">
        <ele>546</ele>
        <time>2018-08-05T07:34:06.000Z</time>
      </trkpt>
      <trkpt lat="46.04751" lon="4.55156">
        <ele>557</ele>
        <time>2018-08-05T07:34:07.000Z</time>
      </trkpt>
      <trkpt lat="46.04753" lon="4.5517">
        <ele>551</ele>
        <time>2018-08-05T07:34:08.000Z</time>
      </trkpt>
      <trkpt lat="46.04757" lon="4.55183">
        <ele>553</ele>
        <time>2018-08-05T07:34:09.000Z</time>
      </trkpt>
      <trkpt lat="46.04761" lon="4.55196">
        <ele>554</ele>
        <time>2018-08-05T07:34:10.000Z</time>
      </trkpt>
      <trkpt lat="46.04766" lon="4.55209">
        <ele>554</ele>
        <time>2018-08-05T07:34:11.000Z</time>
      </trkpt>
      <trkpt lat="46.04773" lon="4.55222">
        <ele>553</ele>
        <time>2018-08-05T07:34:12.000Z</time>
      </trkpt>
      <trkpt lat="46.0478" lon="4.55234">
        <ele>553</ele>
        <time>2018-08-05T07:34:13.000Z</time>
      </trkpt>
      <trkpt lat="46.04787" lon="4.55246">
        <ele>554</ele>
        <time>2018-08-05T07:34:14.000Z</time>
      </trkpt>
      <trkpt lat="46.04795" lon="4.55258">
        <ele>545</ele>
        <time>2018-08-05T07:34:15.000Z</time>
      </trkpt>
      <trkpt lat="46.04803" lon="4.5527">
        <ele>546</ele>
        <time>2018-08-05T07:34:16.000Z</time>
      </trkpt>
      <trkpt lat="46.04811" lon="4.55281">
        <ele>546</ele>
        <time>2018-08-05T07:34:17.000Z</time>
      </trkpt>
      <trkpt lat="46.04818" lon="4.55294">
        <ele>545</ele>
        <time>2018-08-05T07:34:18.000Z</time>
      </trkpt>
      <trkpt lat="46.04825" lon="4.55308">
        <ele>545</ele>
        <time>2018-08-05T07:34:19.000Z</time>
      </trkpt>
      <trkpt lat="46.0483" lon="4.55322">
        <ele>546</ele>
        <time>2018-08-05T07:34:20.000Z</time>
      </trkpt>
      <trkpt lat="46.04834" lon="4.55337">
        <ele>549</ele>
        <time>2018-08-05T07:34:21.000Z</time>
      </trkpt>
      <trkpt lat="46.04838" lon="4.55353">
        <ele>552</ele>
        <time>2018-08-05T07:34:22.000Z</time>
      </trkpt>
      <trkpt lat="46.04841" lon="4.55368">
        <ele>552</ele>
        <time>2018-08-05T07:34:23.000Z</time>
      </trkpt>
      <trkpt lat="46.04845" lon="4.55383">
        <ele>550</ele>
        <time>2018-08-05T07:34:24.000Z</time>
      </trkpt>
      <trkpt lat="46.04849" lon="4.55399">
        <ele>547</ele>
        <time>2018-08-05T07:34:25.000Z</time>
      </trkpt>
      <trkpt lat="46.04852" lon="4.55415">
        <ele>545</ele>
        <time>2018-08-05T07:34:26.000Z</time>
      </trkpt>
      <trkpt lat="46.04855" lon="4.5543">
        <ele>540</ele>
        <time>2018-08-05T07:34:27.000Z</time>
      </trkpt>
      <trkpt lat="46.04858" lon="4.55446">
        <ele>541</ele>
        <time>2018-08-05T07:34:28.000Z</time>
      </trkpt>
      <trkpt lat="46.04861" lon="4.55462">
        <ele>540</ele>
        <time>2018-08-05T07:34:29.000Z</time>
      </trkpt>
      <trkpt lat="46.04864" lon="4.55478">
        <ele>539</ele>
        <time>2018-08-05T07:34:30.000Z</time>
      </trkpt>
      <trkpt lat="46.04866" lon="4.55494">
        <ele>539</ele>
        <time>2018-08-05T07:34:31.000Z</time>
      </trkpt>
      <trkpt lat="46.04868" lon="4.5551">
        <ele>532</ele>
        <time>2018-08-05T07:34:32.000Z</time>
      </trkpt>
      <trkpt lat="46.0487" lon="4.55525">
        <ele>532</ele>
        <time>2018-08-05T07:34:33.000Z</time>
      </trkpt>
      <trkpt lat="46.04872" lon="4.55542">
        <ele>531</ele>
        <time>2018-08-05T07:34:34.000Z</time>
      </trkpt>
      <trkpt lat="46.04873" lon="4.55558">
        <ele>531</ele>
        <time>2018-08-05T07:34:35.000Z</time>
      </trkpt>
      <trkpt lat="46.04876" lon="4.55574">
        <ele>531</ele>
        <time>2018-08-05T07:34:36.000Z</time>
      </trkpt>
      <trkpt lat="46.04878" lon="4.5559">
        <ele>524</ele>
        <time>2018-08-05T07:34:37.000Z</time>
      </trkpt>
      <trkpt lat="46.0488" lon="4.55606">
        <ele>524</ele>
        <time>2018-08-05T07:34:38.000Z</time>
      </trkpt>
      <trkpt lat="46.04883" lon="4.55621">
        <ele>523</ele>
        <time>2018-08-05T07:34:39.000Z</time>
      </trkpt>
      <trkpt lat="46.04886" lon="4.55638">
        <ele>523</ele>
        <time>2018-08-05T07:34:40.000Z</time>
      </trkpt>
      <trkpt lat="46.0489" lon="4.55654">
        <ele>524</ele>
        <time>2018-08-05T07:34:41.000Z</time>
      </trkpt>
      <trkpt lat="46.04893" lon="4.5567">
        <ele>518</ele>
        <time>2018-08-05T07:34:42.000Z</time>
      </trkpt>
      <trkpt lat="46.04898" lon="4.55685">
        <ele>517</ele>
        <time>2018-08-05T07:34:43.000Z</time>
      </trkpt>
      <trkpt lat="46.04903" lon="4.557">
        <ele>516</ele>
        <time>2018-08-05T07:34:44.000Z</time>
      </trkpt>
      <trkpt lat="46.04908" lon="4.55714">
        <ele>514</ele>
        <time>2018-08-05T07:34:45.000Z</time>
      </trkpt>
      <trkpt lat="46.04915" lon="4.55726">
        <ele>515</ele>
        <time>2018-08-05T07:34:46.000Z</time>
      </trkpt>
      <trkpt lat="46.04922" lon="4.55738">
        <ele>527</ele>
        <time>2018-08-05T07:34:47.000Z</time>
      </trkpt>
      <trkpt lat="46.04928" lon="4.5575">
        <ele>526</ele>
        <time>2018-08-05T07:34:48.000Z</time>
      </trkpt>
      <trkpt lat="46.04933" lon="4.55763">
        <ele>524</ele>
        <time>2018-08-05T07:34:49.000Z</time>
      </trkpt>
      <trkpt lat="46.04936" lon="4.55776">
        <ele>526</ele>
        <time>2018-08-05T07:34:50.000Z</time>
      </trkpt>
      <trkpt lat="46.04937" lon="4.5579">
        <ele>526</ele>
        <time>2018-08-05T07:34:51.000Z</time>
      </trkpt>
      <trkpt lat="46.04937" lon="4.55804">
        <ele>525</ele>
        <time>2018-08-05T07:34:52.000Z</time>
      </trkpt>
      <trkpt lat="46.04935" lon="4.55818">
        <ele>523</ele>
        <time>2018-08-05T07:34:53.000Z</time>
      </trkpt>
      <trkpt lat="46.04932" lon="4.55831">
        <ele>521</ele>
        <time>2018-08-05T07:34:54.000Z</time>
      </trkpt>
      <trkpt lat="46.04929" lon="4.55844">
        <ele>519</ele>
        <time>2018-08-05T07:34:55.000Z</time>
      </trkpt>
      <trkpt lat="46.04926" lon="4.55857">
        <ele>520</ele>
        <time>2018-08-05T07:34:56.000Z</time>
      </trkpt>
      <trkpt lat="46.04922" lon="4.5587">
        <ele>520</ele>
        <time>2018-08-05T07:34:57.000Z</time>
      </trkpt>
      <trkpt lat="46.04918" lon="4.55882">
        <ele>520</ele>
        <time>2018-08-05T07:34:58.000Z</time>
      </trkpt>
      <trkpt lat="46.04914" lon="4.55894">
        <ele>507</ele>
        <time>2018-08-05T07:34:59.000Z</time>
      </trkpt>
      <trkpt lat="46.04912" lon="4.55907">
        <ele>509</ele>
        <time>2018-08-05T07:35:00.000Z</time>
      </trkpt>
      <trkpt lat="46.0491" lon="4.55921">
        <ele>510</ele>
        <time>2018-08-05T07:35:01.000Z</time>
      </trkpt>
      <trkpt lat="46.04908" lon="4.55935">
        <ele>506</ele>
        <time>2018-08-05T07:35:02.000Z</time>
      </trkpt>
      <trkpt lat="46.04908" lon="4.55949">
        <ele>504</ele>
        <time>2018-08-05T07:35:03.000Z</time>
      </trkpt>
      <trkpt lat="46.04909" lon="4.55963">
        <ele>504</ele>
        <time>2018-08-05T07:35:04.000Z</time>
      </trkpt>
      <trkpt lat="46.0491" lon="4.55977">
        <ele>504</ele>
        <time>2018-08-05T07:35:05.000Z</time>
      </trkpt>
      <trkpt lat="46.04912" lon="4.55991">
        <ele>507</ele>
        <time>2018-08-05T07:35:06.000Z</time>
      </trkpt>
      <trkpt lat="46.04914" lon="4.56005">
        <ele>507</ele>
        <time>2018-08-05T07:35:07.000Z</time>
      </trkpt>
      <trkpt lat="46.04916" lon="4.56019">
        <ele>503</ele>
        <time>2018-08-05T07:35:08.000Z</time>
      </trkpt>
      <trkpt lat="46.04917" lon="4.56033">
        <ele>510</ele>
        <time>2018-08-05T07:35:09.000Z</time>
      </trkpt>
      <trkpt lat="46.04917" lon="4.56047">
        <ele>510</ele>
        <time>2018-08-05T07:35:10.000Z</time>
      </trkpt>
      <trkpt lat="46.04916" lon="4.56062">
        <ele>501</ele>
        <time>2018-08-05T07:35:11.000Z</time>
      </trkpt>
      <trkpt lat="46.04915" lon="4.56077">
        <ele>504</ele>
        <time>2018-08-05T07:35:12.000Z</time>
      </trkpt>
      <trkpt lat="46.04912" lon="4.56091">
        <ele>503</ele>
        <time>2018-08-05T07:35:13.000Z</time>
      </trkpt>
      <trkpt lat="46.04909" lon="4.56106">
        <ele>500</ele>
        <time>2018-08-05T07:35:14.000Z</time>
      </trkpt>
      <trkpt lat="46.04906" lon="4.5612">
        <ele>499</ele>
        <time>2018-08-05T07:35:15.000Z</time>
      </trkpt>
      <trkpt lat="46.04903" lon="4.56135">
        <ele>499</ele>
        <time>2018-08-05T07:35:16.000Z</time>
      </trkpt>
      <trkpt lat="46.04899" lon="4.56149">
        <ele>500</ele>
        <time>2018-08-05T07:35:17.000Z</time>
      </trkpt>
      <trkpt lat="46.04895" lon="4.56164">
        <ele>500</ele>
        <time>2018-08-05T07:35:18.000Z</time>
      </trkpt>
      <trkpt lat="46.04891" lon="4.56178">
        <ele>499</ele>
        <time>2018-08-05T07:35:19.000Z</time>
      </trkpt>
      <trkpt lat="46.04887" lon="4.56193">
        <ele>498</ele>
        <time>2018-08-05T07:35:20.000Z</time>
      </trkpt>
      <trkpt lat="46.04883" lon="4.56207">
        <ele>497</ele>
        <time>2018-08-05T07:35:21.000Z</time>
      </trkpt>
      <trkpt lat="46.04879" lon="4.56222">
        <ele>496</ele>
        <time>2018-08-05T07:35:22.000Z</time>
      </trkpt>
      <trkpt lat="46.04877" lon="4.56237">
        <ele>496</ele>
        <time>2018-08-05T07:35:23.000Z</time>
      </trkpt>
      <trkpt lat="46.04876" lon="4.56252">
        <ele>494</ele>
        <time>2018-08-05T07:35:24.000Z</time>
      </trkpt>
      <trkpt lat="46.04876" lon="4.56266">
        <ele>494</ele>
        <time>2018-08-05T07:35:25.000Z</time>
      </trkpt>
      <trkpt lat="46.04877" lon="4.5628">
        <ele>493</ele>
        <time>2018-08-05T07:35:26.000Z</time>
      </trkpt>
      <trkpt lat="46.04879" lon="4.56292">
        <ele>493</ele>
        <time>2018-08-05T07:35:27.000Z</time>
      </trkpt>
      <trkpt lat="46.04882" lon="4.56303">
        <ele>493</ele>
        <time>2018-08-05T07:35:28.000Z</time>
      </trkpt>
      <trkpt lat="46.04886" lon="4.56313">
        <ele>493</ele>
        <time>2018-08-05T07:35:29.000Z</time>
      </trkpt>
      <trkpt lat="46.04891" lon="4.56323">
        <ele>494</ele>
        <time>2018-08-05T07:35:30.000Z</time>
      </trkpt>
      <trkpt lat="46.04897" lon="4.56331">
        <ele>494</ele>
        <time>2018-08-05T07:35:31.000Z</time>
      </trkpt>
      <trkpt lat="46.04904" lon="4.56338">
        <ele>490</ele>
        <time>2018-08-05T07:35:32.000Z</time>
      </trkpt>
      <trkpt lat="46.04912" lon="4.56344">
        <ele>490</ele>
        <time>2018-08-05T07:35:33.000Z</time>
      </trkpt>
      <trkpt lat="46.04921" lon="4.56349">
        <ele>492</ele>
        <time>2018-08-05T07:35:34.000Z</time>
      </trkpt>
      <trkpt lat="46.04929" lon="4.56354">
        <ele>491</ele>
        <time>2018-08-05T07:35:35.000Z</time>
      </trkpt>
      <trkpt lat="46.04939" lon="4.56359">
        <ele>490</ele>
        <time>2018-08-05T07:35:36.000Z</time>
      </trkpt>
      <trkpt lat="46.04948" lon="4.56365">
        <ele>489</ele>
        <time>2018-08-05T07:35:37.000Z</time>
      </trkpt>
      <trkpt lat="46.04957" lon="4.56371">
        <ele>488</ele>
        <time>2018-08-05T07:35:38.000Z</time>
      </trkpt>
      <trkpt lat="46.04966" lon="4.56378">
        <ele>488</ele>
        <time>2018-08-05T07:35:39.000Z</time>
      </trkpt>
      <trkpt lat="46.04975" lon="4.56385">
        <ele>488</ele>
        <time>2018-08-05T07:35:40.000Z</time>
      </trkpt>
      <trkpt lat="46.04984" lon="4.56393">
        <ele>487</ele>
        <time>2018-08-05T07:35:41.000Z</time>
      </trkpt>
      <trkpt lat="46.04994" lon="4.56401">
        <ele>486</ele>
        <time>2018-08-05T07:35:42.000Z</time>
      </trkpt>
      <trkpt lat="46.05003" lon="4.56408">
        <ele>486</ele>
        <time>2018-08-05T07:35:43.000Z</time>
      </trkpt>
      <trkpt lat="46.05012" lon="4.56416">
        <ele>487</ele>
        <time>2018-08-05T07:35:44.000Z</time>
      </trkpt>
      <trkpt lat="46.05021" lon="4.56425">
        <ele>481</ele>
        <time>2018-08-05T07:35:45.000Z</time>
      </trkpt>
      <trkpt lat="46.0503" lon="4.56435">
        <ele>481</ele>
        <time>2018-08-05T07:35:46.000Z</time>
      </trkpt>
      <trkpt lat="46.05038" lon="4.56445">
        <ele>480</ele>
        <time>2018-08-05T07:35:47.000Z</time>
      </trkpt>
      <trkpt lat="46.05046" lon="4.56458">
        <ele>480</ele>
        <time>2018-08-05T07:35:48.000Z</time>
      </trkpt>
      <trkpt lat="46.05052" lon="4.56471">
        <ele>479</ele>
        <time>2018-08-05T07:35:49.000Z</time>
      </trkpt>
      <trkpt lat="46.05059" lon="4.56484">
        <ele>479</ele>
        <time>2018-08-05T07:35:50.000Z</time>
      </trkpt>
      <trkpt lat="46.05066" lon="4.56497">
        <ele>480</ele>
        <time>2018-08-05T07:35:51.000Z</time>
      </trkpt>
      <trkpt lat="46.05075" lon="4.56509">
        <ele>476</ele>
        <time>2018-08-05T07:35:52.000Z</time>
      </trkpt>
      <trkpt lat="46.05083" lon="4.56521">
        <ele>474</ele>
        <time>2018-08-05T07:35:53.000Z</time>
      </trkpt>
      <trkpt lat="46.05092" lon="4.56532">
        <ele>476</ele>
        <time>2018-08-05T07:35:54.000Z</time>
      </trkpt>
      <trkpt lat="46.05101" lon="4.56543">
        <ele>475</ele>
        <time>2018-08-05T07:35:55.000Z</time>
      </trkpt>
      <trkpt lat="46.05109" lon="4.56554">
        <ele>475</ele>
        <time>2018-08-05T07:35:56.000Z</time>
      </trkpt>
      <trkpt lat="46.05118" lon="4.56566">
        <ele>475</ele>
        <time>2018-08-05T07:35:57.000Z</time>
      </trkpt>
      <trkpt lat="46.05125" lon="4.56578">
        <ele>474</ele>
        <time>2018-08-05T07:35:58.000Z</time>
      </trkpt>
      <trkpt lat="46.05132" lon="4.5659">
        <ele>472</ele>
        <time>2018-08-05T07:35:59.000Z</time>
      </trkpt>
      <trkpt lat="46.05138" lon="4.56602">
        <ele>472</ele>
        <time>2018-08-05T07:36:00.000Z</time>
      </trkpt>
      <trkpt lat="46.05144" lon="4.56613">
        <ele>472</ele>
        <time>2018-08-05T07:36:01.000Z</time>
      </trkpt>
      <trkpt lat="46.0515" lon="4.56624">
        <ele>472</ele>
        <time>2018-08-05T07:36:02.000Z</time>
      </trkpt>
      <trkpt lat="46.05155" lon="4.56633">
        <ele>472</ele>
        <time>2018-08-05T07:36:03.000Z</time>
      </trkpt>
      <trkpt lat="46.0516" lon="4.56643">
        <ele>472</ele>
        <time>2018-08-05T07:36:04.000Z</time>
      </trkpt>
      <trkpt lat="46.05164" lon="4.56652">
        <ele>473</ele>
        <time>2018-08-05T07:36:05.000Z</time>
      </trkpt>
      <trkpt lat="46.05168" lon="4.5666">
        <ele>473</ele>
        <time>2018-08-05T07:36:06.000Z</time>
      </trkpt>
      <trkpt lat="46.05172" lon="4.56668">
        <ele>473</ele>
        <time>2018-08-05T07:36:07.000Z</time>
      </trkpt>
      <trkpt lat="46.05175" lon="4.56676">
        <ele>472</ele>
        <time>2018-08-05T07:36:08.000Z</time>
      </trkpt>
      <trkpt lat="46.05178" lon="4.56684">
        <ele>471</ele>
        <time>2018-08-05T07:36:09.000Z</time>
      </trkpt>
      <trkpt lat="46.05181" lon="4.56692">
        <ele>470</ele>
        <time>2018-08-05T07:36:10.000Z</time>
      </trkpt>
      <trkpt lat="46.05183" lon="4.567">
        <ele>470</ele>
        <time>2018-08-05T07:36:11.000Z</time>
      </trkpt>
      <trkpt lat="46.05186" lon="4.56708">
        <ele>470</ele>
        <time>2018-08-05T07:36:12.000Z</time>
      </trkpt>
      <trkpt lat="46.05189" lon="4.56716">
        <ele>469</ele>
        <time>2018-08-05T07:36:13.000Z</time>
      </trkpt>
      <trkpt lat="46.05191" lon="4.56724">
        <ele>469</ele>
        <time>2018-08-05T07:36:14.000Z</time>
      </trkpt>
      <trkpt lat="46.05193" lon="4.56732">
        <ele>469</ele>
        <time>2018-08-05T07:36:15.000Z</time>
      </trkpt>
      <trkpt lat="46.05196" lon="4.56741">
        <ele>469</ele>
        <time>2018-08-05T07:36:16.000Z</time>
      </trkpt>
      <trkpt lat="46.05198" lon="4.56749">
        <ele>469</ele>
        <time>2018-08-05T07:36:17.000Z</time>
      </trkpt>
      <trkpt lat="46.05201" lon="4.56757">
        <ele>466</ele>
        <time>2018-08-05T07:36:18.000Z</time>
      </trkpt>
      <trkpt lat="46.05203" lon="4.56765">
        <ele>466</ele>
        <time>2018-08-05T07:36:19.000Z</time>
      </trkpt>
      <trkpt lat="46.05205" lon="4.56774">
        <ele>466</ele>
        <time>2018-08-05T07:36:20.000Z</time>
      </trkpt>
      <trkpt lat="46.05207" lon="4.56783">
        <ele>465</ele>
        <time>2018-08-05T07:36:21.000Z</time>
      </trkpt>
      <trkpt lat="46.05209" lon="4.56793">
        <ele>465</ele>
        <time>2018-08-05T07:36:22.000Z</time>
      </trkpt>
      <trkpt lat="46.05211" lon="4.56802">
        <ele>465</ele>
        <time>2018-08-05T07:36:23.000Z</time>
      </trkpt>
      <trkpt lat="46.05214" lon="4.56811">
        <ele>465</ele>
        <time>2018-08-05T07:36:24.000Z</time>
      </trkpt>
      <trkpt lat="46.05216" lon="4.5682">
        <ele>464</ele>
        <time>2018-08-05T07:36:25.000Z</time>
      </trkpt>
      <trkpt lat="46.05218" lon="4.56829">
        <ele>464</ele>
        <time>2018-08-05T07:36:26.000Z</time>
      </trkpt>
      <trkpt lat="46.0522" lon="4.56839">
        <ele>463</ele>
        <time>2018-08-05T07:36:27.000Z</time>
      </trkpt>
      <trkpt lat="46.05222" lon="4.56848">
        <ele>463</ele>
        <time>2018-08-05T07:36:28.000Z</time>
      </trkpt>
      <trkpt lat="46.05223" lon="4.56857">
        <ele>463</ele>
        <time>2018-08-05T07:36:29.000Z</time>
      </trkpt>
      <trkpt lat="46.05225" lon="4.56867">
        <ele>462</ele>
        <time>2018-08-05T07:36:30.000Z</time>
      </trkpt>
      <trkpt lat="46.05226" lon="4.56876">
        <ele>462</ele>
        <time>2018-08-05T07:36:31.000Z</time>
      </trkpt>
      <trkpt lat="46.05227" lon="4.56885">
        <ele>463</ele>
        <time>2018-08-05T07:36:32.000Z</time>
      </trkpt>
      <trkpt lat="46.05228" lon="4.56894">
        <ele>463</ele>
        <time>2018-08-05T07:36:33.000Z</time>
      </trkpt>
      <trkpt lat="46.05229" lon="4.56903">
        <ele>463</ele>
        <time>2018-08-05T07:36:34.000Z</time>
      </trkpt>
      <trkpt lat="46.05229" lon="4.56912">
        <ele>463</ele>
        <time>2018-08-05T07:36:35.000Z</time>
      </trkpt>
      <trkpt lat="46.0523" lon="4.5692">
        <ele>463</ele>
        <time>2018-08-05T07:36:36.000Z</time>
      </trkpt>
      <trkpt lat="46.0523" lon="4.56929">
        <ele>463</ele>
        <time>2018-08-05T07:36:37.000Z</time>
      </trkpt>
      <trkpt lat="46.0523" lon="4.56937">
        <ele>462</ele>
        <time>2018-08-05T07:36:38.000Z</time>
      </trkpt>
      <trkpt lat="46.05231" lon="4.56945">
        <ele>462</ele>
        <time>2018-08-05T07:36:39.000Z</time>
      </trkpt>
      <trkpt lat="46.05231" lon="4.56953">
        <ele>462</ele>
        <time>2018-08-05T07:36:40.000Z</time>
      </trkpt>
      <trkpt lat="46.05231" lon="4.56961">
        <ele>462</ele>
        <time>2018-08-05T07:36:41.000Z</time>
      </trkpt>
      <trkpt lat="46.05231" lon="4.56969">
        <ele>462</ele>
        <time>2018-08-05T07:36:42.000Z</time>
      </trkpt>
      <trkpt lat="46.05232" lon="4.56977">
        <ele>462</ele>
        <time>2018-08-05T07:36:43.000Z</time>
      </trkpt>
      <trkpt lat="46.05232" lon="4.56986">
        <ele>462</ele>
        <time>2018-08-05T07:36:44.000Z</time>
      </trkpt>
      <trkpt lat="46.05232" lon="4.56994">
        <ele>462</ele>
        <time>2018-08-05T07:36:45.000Z</time>
      </trkpt>
      <trkpt lat="46.05232" lon="4.57002">
        <ele>462</ele>
        <time>2018-08-05T07:36:46.000Z</time>
      </trkpt>
      <trkpt lat="46.05233" lon="4.5701">
        <ele>462</ele>
        <time>2018-08-05T07:36:47.000Z</time>
      </trkpt>
      <trkpt lat="46.05233" lon="4.57017">
        <ele>462</ele>
        <time>2018-08-05T07:36:48.000Z</time>
      </trkpt>
      <trkpt lat="46.05233" lon="4.57025">
        <ele>462</ele>
        <time>2018-08-05T07:36:49.000Z</time>
      </trkpt>
      <trkpt lat="46.05234" lon="4.57033">
        <ele>462</ele>
        <time>2018-08-05T07:36:50.000Z</time>
      </trkpt>
      <trkpt lat="46.05234" lon="4.57041">
        <ele>462</ele>
        <time>2018-08-05T07:36:51.000Z</time>
      </trkpt>
      <trkpt lat="46.05234" lon="4.57049">
        <ele>462</ele>
        <time>2018-08-05T07:36:52.000Z</time>
      </trkpt>
      <trkpt lat="46.05234" lon="4.57057">
        <ele>462</ele>
        <time>2018-08-05T07:36:53.000Z</time>
      </trkpt>
      <trkpt lat="46.05235" lon="4.57065">
        <ele>463</ele>
        <time>2018-08-05T07:36:54.000Z</time>
      </trkpt>
      <trkpt lat="46.05235" lon="4.57073">
        <ele>463</ele>
        <time>2018-08-05T07:36:55.000Z</time>
      </trkpt>
      <trkpt lat="46.05235" lon="4.57081">
        <ele>463</ele>
        <time>2018-08-05T07:36:56.000Z</time>
      </trkpt>
      <trkpt lat="46.05235" lon="4.5709">
        <ele>463</ele>
        <time>2018-08-05T07:36:57.000Z</time>
      </trkpt>
      <trkpt lat="46.05235" lon="4.57098">
        <ele>463</ele>
        <time>2018-08-05T07:36:58.000Z</time>
      </trkpt>
      <trkpt lat="46.05234" lon="4.57106">
        <ele>463</ele>
        <time>2018-08-05T07:36:59.000Z</time>
      </trkpt>
      <trkpt lat="46.05234" lon="4.57114">
        <ele>462</ele>
        <time>2018-08-05T07:37:00.000Z</time>
      </trkpt>
      <trkpt lat="46.05233" lon="4.57122">
        <ele>462</ele>
        <time>2018-08-05T07:37:01.000Z</time>
      </trkpt>
      <trkpt lat="46.05231" lon="4.57131">
        <ele>463</ele>
        <time>2018-08-05T07:37:02.000Z</time>
      </trkpt>
      <trkpt lat="46.0523" lon="4.57139">
        <ele>463</ele>
        <time>2018-08-05T07:37:03.000Z</time>
      </trkpt>
      <trkpt lat="46.05228" lon="4.57146">
        <ele>463</ele>
        <time>2018-08-05T07:37:04.000Z</time>
      </trkpt>
      <trkpt lat="46.05225" lon="4.57153">
        <ele>463</ele>
        <time>2018-08-05T07:37:05.000Z</time>
      </trkpt>
      <trkpt lat="46.05223" lon="4.5716">
        <ele>463</ele>
        <time>2018-08-05T07:37:06.000Z</time>
      </trkpt>
      <trkpt lat="46.05221" lon="4.57168">
        <ele>465</ele>
        <time>2018-08-05T07:37:07.000Z</time>
      </trkpt>
      <trkpt lat="46.05219" lon="4.57175">
        <ele>465</ele>
        <time>2018-08-05T07:37:08.000Z</time>
      </trkpt>
      <trkpt lat="46.05216" lon="4.57183">
        <ele>464</ele>
        <time>2018-08-05T07:37:09.000Z</time>
      </trkpt>
      <trkpt lat="46.05214" lon="4.5719">
        <ele>464</ele>
        <time>2018-08-05T07:37:10.000Z</time>
      </trkpt>
      <trkpt lat="46.05212" lon="4.57198">
        <ele>464</ele>
        <time>2018-08-05T07:37:11.000Z</time>
      </trkpt>
      <trkpt lat="46.0521" lon="4.57206">
        <ele>464</ele>
        <time>2018-08-05T07:37:12.000Z</time>
      </trkpt>
      <trkpt lat="46.05208" lon="4.57214">
        <ele>464</ele>
        <time>2018-08-05T07:37:13.000Z</time>
      </trkpt>
      <trkpt lat="46.05205" lon="4.57222">
        <ele>464</ele>
        <time>2018-08-05T07:37:14.000Z</time>
      </trkpt>
      <trkpt lat="46.05203" lon="4.5723">
        <ele>464</ele>
        <time>2018-08-05T07:37:15.000Z</time>
      </trkpt>
      <trkpt lat="46.05201" lon="4.57238">
        <ele>464</ele>
        <time>2018-08-05T07:37:16.000Z</time>
      </trkpt>
      <trkpt lat="46.05199" lon="4.57246">
        <ele>463</ele>
        <time>2018-08-05T07:37:17.000Z</time>
      </trkpt>
      <trkpt lat="46.05196" lon="4.57255">
        <ele>466</ele>
        <time>2018-08-05T07:37:18.000Z</time>
      </trkpt>
      <trkpt lat="46.05194" lon="4.57264">
        <ele>466</ele>
        <time>2018-08-05T07:37:19.000Z</time>
      </trkpt>
      <trkpt lat="46.05191" lon="4.57273">
        <ele>467</ele>
        <time>2018-08-05T07:37:20.000Z</time>
      </trkpt>
      <trkpt lat="46.05189" lon="4.57282">
        <ele>467</ele>
        <time>2018-08-05T07:37:21.000Z</time>
      </trkpt>
      <trkpt lat="46.05187" lon="4.57291">
        <ele>467</ele>
        <time>2018-08-05T07:37:22.000Z</time>
      </trkpt>
      <trkpt lat="46.05185" lon="4.573">
        <ele>467</ele>
        <time>2018-08-05T07:37:23.000Z</time>
      </trkpt>
      <trkpt lat="46.05183" lon="4.5731">
        <ele>467</ele>
        <time>2018-08-05T07:37:24.000Z</time>
      </trkpt>
      <trkpt lat="46.05182" lon="4.5732">
        <ele>466</ele>
        <time>2018-08-05T07:37:25.000Z</time>
      </trkpt>
      <trkpt lat="46.05181" lon="4.57331">
        <ele>465</ele>
        <time>2018-08-05T07:37:26.000Z</time>
      </trkpt>
      <trkpt lat="46.0518" lon="4.57342">
        <ele>466</ele>
        <time>2018-08-05T07:37:27.000Z</time>
      </trkpt>
      <trkpt lat="46.0518" lon="4.57353">
        <ele>467</ele>
        <time>2018-08-05T07:37:28.000Z</time>
      </trkpt>
      <trkpt lat="46.0518" lon="4.57365">
        <ele>467</ele>
        <time>2018-08-05T07:37:29.000Z</time>
      </trkpt>
      <trkpt lat="46.0518" lon="4.57376">
        <ele>467</ele>
        <time>2018-08-05T07:37:30.000Z</time>
      </trkpt>
      <trkpt lat="46.0518" lon="4.57388">
        <ele>466</ele>
        <time>2018-08-05T07:37:31.000Z</time>
      </trkpt>
      <trkpt lat="46.05181" lon="4.574">
        <ele>464</ele>
        <time>2018-08-05T07:37:32.000Z</time>
      </trkpt>
      <trkpt lat="46.05183" lon="4.57412">
        <ele>463</ele>
        <time>2018-08-05T07:37:33.000Z</time>
      </trkpt>
      <trkpt lat="46.05185" lon="4.57424">
        <ele>460</ele>
        <time>2018-08-05T07:37:34.000Z</time>
      </trkpt>
      <trkpt lat="46.05187" lon="4.57437">
        <ele>460</ele>
        <time>2018-08-05T07:37:35.000Z</time>
      </trkpt>
      <trkpt lat="46.0519" lon="4.57449">
        <ele>460</ele>
        <time>2018-08-05T07:37:36.000Z</time>
      </trkpt>
      <trkpt lat="46.05193" lon="4.57461">
        <ele>460</ele>
        <time>2018-08-05T07:37:37.000Z</time>
      </trkpt>
      <trkpt lat="46.05197" lon="4.57473">
        <ele>459</ele>
        <time>2018-08-05T07:37:38.000Z</time>
      </trkpt>
      <trkpt lat="46.05201" lon="4.57484">
        <ele>459</ele>
        <time>2018-08-05T07:37:39.000Z</time>
      </trkpt>
      <trkpt lat="46.05206" lon="4.57496">
        <ele>460</ele>
        <time>2018-08-05T07:37:40.000Z</time>
      </trkpt>
      <trkpt lat="46.05211" lon="4.57507">
        <ele>452</ele>
        <time>2018-08-05T07:37:41.000Z</time>
      </trkpt>
      <trkpt lat="46.05217" lon="4.57517">
        <ele>453</ele>
        <time>2018-08-05T07:37:42.000Z</time>
      </trkpt>
      <trkpt lat="46.05224" lon="4.57528">
        <ele>453</ele>
        <time>2018-08-05T07:37:43.000Z</time>
      </trkpt>
      <trkpt lat="46.0523" lon="4.57538">
        <ele>453</ele>
        <time>2018-08-05T07:37:44.000Z</time>
      </trkpt>
      <trkpt lat="46.05237" lon="4.57549">
        <ele>452</ele>
        <time>2018-08-05T07:37:45.000Z</time>
      </trkpt>
      <trkpt lat="46.05244" lon="4.5756">
        <ele>452</ele>
        <time>2018-08-05T07:37:46.000Z</time>
      </trkpt>
      <trkpt lat="46.05249" lon="4.57572">
        <ele>453</ele>
        <time>2018-08-05T07:37:47.000Z</time>
      </trkpt>
      <trkpt lat="46.05253" lon="4.57585">
        <ele>456</ele>
        <time>2018-08-05T07:37:48.000Z</time>
      </trkpt>
      <trkpt lat="46.05256" lon="4.57599">
        <ele>459</ele>
        <time>2018-08-05T07:37:49.000Z</time>
      </trkpt>
      <trkpt lat="46.05257" lon="4.57614">
        <ele>460</ele>
        <time>2018-08-05T07:37:50.000Z</time>
      </trkpt>
      <trkpt lat="46.05256" lon="4.57628">
        <ele>460</ele>
        <time>2018-08-05T07:37:51.000Z</time>
      </trkpt>
      <trkpt lat="46.05254" lon="4.57643">
        <ele>458</ele>
        <time>2018-08-05T07:37:52.000Z</time>
      </trkpt>
      <trkpt lat="46.05254" lon="4.57657">
        <ele>454</ele>
        <time>2018-08-05T07:37:53.000Z</time>
      </trkpt>
      <trkpt lat="46.05256" lon="4.57672">
        <ele>450</ele>
        <time>2018-08-05T07:37:54.000Z</time>
      </trkpt>
      <trkpt lat="46.05259" lon="4.57685">
        <ele>451</ele>
        <time>2018-08-05T07:37:55.000Z</time>
      </trkpt>
      <trkpt lat="46.05264" lon="4.57698">
        <ele>451</ele>
        <time>2018-08-05T07:37:56.000Z</time>
      </trkpt>
      <trkpt lat="46.05269" lon="4.5771">
        <ele>451</ele>
        <time>2018-08-05T07:37:57.000Z</time>
      </trkpt>
      <trkpt lat="46.05275" lon="4.57721">
        <ele>450</ele>
        <time>2018-08-05T07:37:58.000Z</time>
      </trkpt>
      <trkpt lat="46.05281" lon="4.57732">
        <ele>450</ele>
        <time>2018-08-05T07:37:59.000Z</time>
      </trkpt>
      <trkpt lat="46.05287" lon="4.57742">
        <ele>450</ele>
        <time>2018-08-05T07:38:00.000Z</time>
      </trkpt>
      <trkpt lat="46.05294" lon="4.57751">
        <ele>444</ele>
        <time>2018-08-05T07:38:01.000Z</time>
      </trkpt>
      <trkpt lat="46.05302" lon="4.57759">
        <ele>446</ele>
        <time>2018-08-05T07:38:02.000Z</time>
      </trkpt>
      <trkpt lat="46.05309" lon="4.57766">
        <ele>447</ele>
        <time>2018-08-05T07:38:03.000Z</time>
      </trkpt>
      <trkpt lat="46.05316" lon="4.57775">
        <ele>447</ele>
        <time>2018-08-05T07:38:04.000Z</time>
      </trkpt>
      <trkpt lat="46.05322" lon="4.57785">
        <ele>446</ele>
        <time>2018-08-05T07:38:05.000Z</time>
      </trkpt>
      <trkpt lat="46.05325" lon="4.57797">
        <ele>446</ele>
        <time>2018-08-05T07:38:06.000Z</time>
      </trkpt>
      <trkpt lat="46.05327" lon="4.57809">
        <ele>446</ele>
        <time>2018-08-05T07:38:07.000Z</time>
      </trkpt>
      <trkpt lat="46.05327" lon="4.57822">
        <ele>447</ele>
        <time>2018-08-05T07:38:08.000Z</time>
      </trkpt>
      <trkpt lat="46.05327" lon="4.57835">
        <ele>447</ele>
        <time>2018-08-05T07:38:09.000Z</time>
      </trkpt>
      <trkpt lat="46.05326" lon="4.57848">
        <ele>443</ele>
        <time>2018-08-05T07:38:10.000Z</time>
      </trkpt>
      <trkpt lat="46.05325" lon="4.57861">
        <ele>440</ele>
        <time>2018-08-05T07:38:11.000Z</time>
      </trkpt>
      <trkpt lat="46.05324" lon="4.57875">
        <ele>439</ele>
        <time>2018-08-05T07:38:12.000Z</time>
      </trkpt>
      <trkpt lat="46.05323" lon="4.57888">
        <ele>439</ele>
        <time>2018-08-05T07:38:13.000Z</time>
      </trkpt>
      <trkpt lat="46.05323" lon="4.57902">
        <ele>440</ele>
        <time>2018-08-05T07:38:14.000Z</time>
      </trkpt>
      <trkpt lat="46.05322" lon="4.57917">
        <ele>441</ele>
        <time>2018-08-05T07:38:15.000Z</time>
      </trkpt>
      <trkpt lat="46.05322" lon="4.57931">
        <ele>436</ele>
        <time>2018-08-05T07:38:16.000Z</time>
      </trkpt>
      <trkpt lat="46.05323" lon="4.57945">
        <ele>433</ele>
        <time>2018-08-05T07:38:17.000Z</time>
      </trkpt>
      <trkpt lat="46.05325" lon="4.57958">
        <ele>431</ele>
        <time>2018-08-05T07:38:18.000Z</time>
      </trkpt>
      <trkpt lat="46.05328" lon="4.57972">
        <ele>430</ele>
        <time>2018-08-05T07:38:19.000Z</time>
      </trkpt>
      <trkpt lat="46.05333" lon="4.57984">
        <ele>431</ele>
        <time>2018-08-05T07:38:20.000Z</time>
      </trkpt>
      <trkpt lat="46.05338" lon="4.57997">
        <ele>437</ele>
        <time>2018-08-05T07:38:21.000Z</time>
      </trkpt>
      <trkpt lat="46.05344" lon="4.58009">
        <ele>434</ele>
        <time>2018-08-05T07:38:22.000Z</time>
      </trkpt>
      <trkpt lat="46.05351" lon="4.58019">
        <ele>434</ele>
        <time>2018-08-05T07:38:23.000Z</time>
      </trkpt>
      <trkpt lat="46.05359" lon="4.58029">
        <ele>434</ele>
        <time>2018-08-05T07:38:24.000Z</time>
      </trkpt>
      <trkpt lat="46.05367" lon="4.58037">
        <ele>434</ele>
        <time>2018-08-05T07:38:25.000Z</time>
      </trkpt>
      <trkpt lat="46.05376" lon="4.58045">
        <ele>434</ele>
        <time>2018-08-05T07:38:26.000Z</time>
      </trkpt>
      <trkpt lat="46.05385" lon="4.58053">
        <ele>435</ele>
        <time>2018-08-05T07:38:27.000Z</time>
      </trkpt>
      <trkpt lat="46.05394" lon="4.58061">
        <ele>435</ele>
        <time>2018-08-05T07:38:28.000Z</time>
      </trkpt>
      <trkpt lat="46.05403" lon="4.58069">
        <ele>435</ele>
        <time>2018-08-05T07:38:29.000Z</time>
      </trkpt>
      <trkpt lat="46.05413" lon="4.58077">
        <ele>434</ele>
        <time>2018-08-05T07:38:30.000Z</time>
      </trkpt>
      <trkpt lat="46.05422" lon="4.58085">
        <ele>434</ele>
        <time>2018-08-05T07:38:31.000Z</time>
      </trkpt>
      <trkpt lat="46.05431" lon="4.58092">
        <ele>433</ele>
        <time>2018-08-05T07:38:32.000Z</time>
      </trkpt>
      <trkpt lat="46.0544" lon="4.58101">
        <ele>433</ele>
        <time>2018-08-05T07:38:33.000Z</time>
      </trkpt>
      <trkpt lat="46.05449" lon="4.58109">
        <ele>433</ele>
        <time>2018-08-05T07:38:34.000Z</time>
      </trkpt>
      <trkpt lat="46.05458" lon="4.58117">
        <ele>433</ele>
        <time>2018-08-05T07:38:35.000Z</time>
      </trkpt>
      <trkpt lat="46.05467" lon="4.58125">
        <ele>434</ele>
        <time>2018-08-05T07:38:36.000Z</time>
      </trkpt>
      <trkpt lat="46.05475" lon="4.58133">
        <ele>434</ele>
        <time>2018-08-05T07:38:37.000Z</time>
      </trkpt>
      <trkpt lat="46.05483" lon="4.58143">
        <ele>433</ele>
        <time>2018-08-05T07:38:38.000Z</time>
      </trkpt>
      <trkpt lat="46.05489" lon="4.58155">
        <ele>433</ele>
        <time>2018-08-05T07:38:39.000Z</time>
      </trkpt>
      <trkpt lat="46.05492" lon="4.58169">
        <ele>430</ele>
        <time>2018-08-05T07:38:40.000Z</time>
      </trkpt>
      <trkpt lat="46.05493" lon="4.58183">
        <ele>427</ele>
        <time>2018-08-05T07:38:41.000Z</time>
      </trkpt>
      <trkpt lat="46.05491" lon="4.58197">
        <ele>424</ele>
        <time>2018-08-05T07:38:42.000Z</time>
      </trkpt>
      <trkpt lat="46.05488" lon="4.58212">
        <ele>423</ele>
        <time>2018-08-05T07:38:43.000Z</time>
      </trkpt>
      <trkpt lat="46.05485" lon="4.58226">
        <ele>423</ele>
        <time>2018-08-05T07:38:44.000Z</time>
      </trkpt>
      <trkpt lat="46.05481" lon="4.58241">
        <ele>423</ele>
        <time>2018-08-05T07:38:45.000Z</time>
      </trkpt>
      <trkpt lat="46.05478" lon="4.58255">
        <ele>421</ele>
        <time>2018-08-05T07:38:46.000Z</time>
      </trkpt>
      <trkpt lat="46.05474" lon="4.58269">
        <ele>419</ele>
        <time>2018-08-05T07:38:47.000Z</time>
      </trkpt>
      <trkpt lat="46.05471" lon="4.58284">
        <ele>418</ele>
        <time>2018-08-05T07:38:48.000Z</time>
      </trkpt>
      <trkpt lat="46.05468" lon="4.58299">
        <ele>418</ele>
        <time>2018-08-05T07:38:49.000Z</time>
      </trkpt>
      <trkpt lat="46.05466" lon="4.58314">
        <ele>418</ele>
        <time>2018-08-05T07:38:50.000Z</time>
      </trkpt>
      <trkpt lat="46.05466" lon="4.58329">
        <ele>419</ele>
        <time>2018-08-05T07:38:51.000Z</time>
      </trkpt>
      <trkpt lat="46.05468" lon="4.58344">
        <ele>416</ele>
        <time>2018-08-05T07:38:52.000Z</time>
      </trkpt>
      <trkpt lat="46.05471" lon="4.58358">
        <ele>415</ele>
        <time>2018-08-05T07:38:53.000Z</time>
      </trkpt>
      <trkpt lat="46.05476" lon="4.58371">
        <ele>415</ele>
        <time>2018-08-05T07:38:54.000Z</time>
      </trkpt>
      <trkpt lat="46.05481" lon="4.58383">
        <ele>414</ele>
        <time>2018-08-05T07:38:55.000Z</time>
      </trkpt>
      <trkpt lat="46.05488" lon="4.58395">
        <ele>415</ele>
        <time>2018-08-05T07:38:56.000Z</time>
      </trkpt>
      <trkpt lat="46.05494" lon="4.58407">
        <ele>417</ele>
        <time>2018-08-05T07:38:57.000Z</time>
      </trkpt>
      <trkpt lat="46.05501" lon="4.58419">
        <ele>419</ele>
        <time>2018-08-05T07:38:58.000Z</time>
      </trkpt>
      <trkpt lat="46.05508" lon="4.58431">
        <ele>418</ele>
        <time>2018-08-05T07:38:59.000Z</time>
      </trkpt>
      <trkpt lat="46.05515" lon="4.58443">
        <ele>417</ele>
        <time>2018-08-05T07:39:00.000Z</time>
      </trkpt>
      <trkpt lat="46.05521" lon="4.58455">
        <ele>416</ele>
        <time>2018-08-05T07:39:01.000Z</time>
      </trkpt>
      <trkpt lat="46.05528" lon="4.58467">
        <ele>415</ele>
        <time>2018-08-05T07:39:02.000Z</time>
      </trkpt>
      <trkpt lat="46.05534" lon="4.58479">
        <ele>415</ele>
        <time>2018-08-05T07:39:03.000Z</time>
      </trkpt>
      <trkpt lat="46.05541" lon="4.58491">
        <ele>415</ele>
        <time>2018-08-05T07:39:04.000Z</time>
      </trkpt>
      <trkpt lat="46.05547" lon="4.58503">
        <ele>407</ele>
        <time>2018-08-05T07:39:05.000Z</time>
      </trkpt>
      <trkpt lat="46.05554" lon="4.58516">
        <ele>408</ele>
        <time>2018-08-05T07:39:06.000Z</time>
      </trkpt>
      <trkpt lat="46.05561" lon="4.58528">
        <ele>408</ele>
        <time>2018-08-05T07:39:07.000Z</time>
      </trkpt>
      <trkpt lat="46.05567" lon="4.5854">
        <ele>407</ele>
        <time>2018-08-05T07:39:08.000Z</time>
      </trkpt>
      <trkpt lat="46.05574" lon="4.58553">
        <ele>407</ele>
        <time>2018-08-05T07:39:09.000Z</time>
      </trkpt>
      <trkpt lat="46.0558" lon="4.58566">
        <ele>407</ele>
        <time>2018-08-05T07:39:10.000Z</time>
      </trkpt>
      <trkpt lat="46.05586" lon="4.58579">
        <ele>411</ele>
        <time>2018-08-05T07:39:11.000Z</time>
      </trkpt>
      <trkpt lat="46.05591" lon="4.58593">
        <ele>410</ele>
        <time>2018-08-05T07:39:12.000Z</time>
      </trkpt>
      <trkpt lat="46.05595" lon="4.58608">
        <ele>409</ele>
        <time>2018-08-05T07:39:13.000Z</time>
      </trkpt>
      <trkpt lat="46.05599" lon="4.58623">
        <ele>409</ele>
        <time>2018-08-05T07:39:14.000Z</time>
      </trkpt>
      <trkpt lat="46.05603" lon="4.58638">
        <ele>408</ele>
        <time>2018-08-05T07:39:15.000Z</time>
      </trkpt>
      <trkpt lat="46.05607" lon="4.58653">
        <ele>407</ele>
        <time>2018-08-05T07:39:16.000Z</time>
      </trkpt>
      <trkpt lat="46.05611" lon="4.58668">
        <ele>402</ele>
        <time>2018-08-05T07:39:17.000Z</time>
      </trkpt>
      <trkpt lat="46.05615" lon="4.58683">
        <ele>403</ele>
        <time>2018-08-05T07:39:18.000Z</time>
      </trkpt>
      <trkpt lat="46.05619" lon="4.58697">
        <ele>403</ele>
        <time>2018-08-05T07:39:19.000Z</time>
      </trkpt>
      <trkpt lat="46.05623" lon="4.58712">
        <ele>403</ele>
        <time>2018-08-05T07:39:20.000Z</time>
      </trkpt>
      <trkpt lat="46.05626" lon="4.58727">
        <ele>402</ele>
        <time>2018-08-05T07:39:21.000Z</time>
      </trkpt>
      <trkpt lat="46.05629" lon="4.58743">
        <ele>402</ele>
        <time>2018-08-05T07:39:22.000Z</time>
      </trkpt>
      <trkpt lat="46.05631" lon="4.58758">
        <ele>398</ele>
        <time>2018-08-05T07:39:23.000Z</time>
      </trkpt>
      <trkpt lat="46.05632" lon="4.58774">
        <ele>397</ele>
        <time>2018-08-05T07:39:24.000Z</time>
      </trkpt>
      <trkpt lat="46.05633" lon="4.58788">
        <ele>396</ele>
        <time>2018-08-05T07:39:25.000Z</time>
      </trkpt>
      <trkpt lat="46.05634" lon="4.58802">
        <ele>396</ele>
        <time>2018-08-05T07:39:26.000Z</time>
      </trkpt>
      <trkpt lat="46.05636" lon="4.58814">
        <ele>396</ele>
        <time>2018-08-05T07:39:27.000Z</time>
      </trkpt>
      <trkpt lat="46.05639" lon="4.58825">
        <ele>396</ele>
        <time>2018-08-05T07:39:28.000Z</time>
      </trkpt>
      <trkpt lat="46.05642" lon="4.58836">
        <ele>393</ele>
        <time>2018-08-05T07:39:29.000Z</time>
      </trkpt>
      <trkpt lat="46.05647" lon="4.58845">
        <ele>393</ele>
        <time>2018-08-05T07:39:30.000Z</time>
      </trkpt>
      <trkpt lat="46.05652" lon="4.58854">
        <ele>393</ele>
        <time>2018-08-05T07:39:31.000Z</time>
      </trkpt>
      <trkpt lat="46.05658" lon="4.58863">
        <ele>392</ele>
        <time>2018-08-05T07:39:32.000Z</time>
      </trkpt>
      <trkpt lat="46.05663" lon="4.58871">
        <ele>392</ele>
        <time>2018-08-05T07:39:33.000Z</time>
      </trkpt>
      <trkpt lat="46.05669" lon="4.58879">
        <ele>396</ele>
        <time>2018-08-05T07:39:34.000Z</time>
      </trkpt>
      <trkpt lat="46.05674" lon="4.58886">
        <ele>396</ele>
        <time>2018-08-05T07:39:35.000Z</time>
      </trkpt>
      <trkpt lat="46.0568" lon="4.58894">
        <ele>396</ele>
        <time>2018-08-05T07:39:36.000Z</time>
      </trkpt>
      <trkpt lat="46.05685" lon="4.58901">
        <ele>395</ele>
        <time>2018-08-05T07:39:37.000Z</time>
      </trkpt>
      <trkpt lat="46.0569" lon="4.58909">
        <ele>395</ele>
        <time>2018-08-05T07:39:38.000Z</time>
      </trkpt>
      <trkpt lat="46.05695" lon="4.58916">
        <ele>395</ele>
        <time>2018-08-05T07:39:39.000Z</time>
      </trkpt>
      <trkpt lat="46.05699" lon="4.58924">
        <ele>394</ele>
        <time>2018-08-05T07:39:40.000Z</time>
      </trkpt>
      <trkpt lat="46.05704" lon="4.58932">
        <ele>394</ele>
        <time>2018-08-05T07:39:41.000Z</time>
      </trkpt>
      <trkpt lat="46.05708" lon="4.5894">
        <ele>394</ele>
        <time>2018-08-05T07:39:42.000Z</time>
      </trkpt>
      <trkpt lat="46.05711" lon="4.58947">
        <ele>394</ele>
        <time>2018-08-05T07:39:43.000Z</time>
      </trkpt>
      <trkpt lat="46.05713" lon="4.58953">
        <ele>394</ele>
        <time>2018-08-05T07:39:44.000Z</time>
      </trkpt>
      <trkpt lat="46.05714" lon="4.5896">
        <ele>394</ele>
        <time>2018-08-05T07:39:45.000Z</time>
      </trkpt>
      <trkpt lat="46.05715" lon="4.58965">
        <ele>394</ele>
        <time>2018-08-05T07:39:46.000Z</time>
      </trkpt>
      <trkpt lat="46.05716" lon="4.58971">
        <ele>394</ele>
        <time>2018-08-05T07:39:47.000Z</time>
      </trkpt>
      <trkpt lat="46.05717" lon="4.58977">
        <ele>394</ele>
        <time>2018-08-05T07:39:48.000Z</time>
      </trkpt>
      <trkpt lat="46.05717" lon="4.58983">
        <ele>394</ele>
        <time>2018-08-05T07:39:49.000Z</time>
      </trkpt>
      <trkpt lat="46.05718" lon="4.58988">
        <ele>394</ele>
        <time>2018-08-05T07:39:50.000Z</time>
      </trkpt>
      <trkpt lat="46.05719" lon="4.58995">
        <ele>394</ele>
        <time>2018-08-05T07:39:51.000Z</time>
      </trkpt>
      <trkpt lat="46.0572" lon="4.59002">
        <ele>394</ele>
        <time>2018-08-05T07:39:52.000Z</time>
      </trkpt>
      <trkpt lat="46.05721" lon="4.59009">
        <ele>394</ele>
        <time>2018-08-05T07:39:53.000Z</time>
      </trkpt>
      <trkpt lat="46.05722" lon="4.59016">
        <ele>394</ele>
        <time>2018-08-05T07:39:54.000Z</time>
      </trkpt>
      <trkpt lat="46.05724" lon="4.59022">
        <ele>394</ele>
        <time>2018-08-05T07:39:55.000Z</time>
      </trkpt>
      <trkpt lat="46.05725" lon="4.59028">
        <ele>394</ele>
        <time>2018-08-05T07:39:56.000Z</time>
      </trkpt>
      <trkpt lat="46.05727" lon="4.59034">
        <ele>394</ele>
        <time>2018-08-05T07:39:57.000Z</time>
      </trkpt>
      <trkpt lat="46.05729" lon="4.59041">
        <ele>395</ele>
        <time>2018-08-05T07:39:58.000Z</time>
      </trkpt>
      <trkpt lat="46.0573" lon="4.59046">
        <ele>395</ele>
        <time>2018-08-05T07:39:59.000Z</time>
      </trkpt>
      <trkpt lat="46.05731" lon="4.59052">
        <ele>395</ele>
        <time>2018-08-05T07:40:00.000Z</time>
      </trkpt>
      <trkpt lat="46.05732" lon="4.59057">
        <ele>395</ele>
        <time>2018-08-05T07:40:01.000Z</time>
      </trkpt>
      <trkpt lat="46.05734" lon="4.59063">
        <ele>396</ele>
        <time>2018-08-05T07:40:02.000Z</time>
      </trkpt>
      <trkpt lat="46.05735" lon="4.59068">
        <ele>396</ele>
        <time>2018-08-05T07:40:03.000Z</time>
      </trkpt>
      <trkpt lat="46.05737" lon="4.59074">
        <ele>397</ele>
        <time>2018-08-05T07:40:04.000Z</time>
      </trkpt>
      <trkpt lat="46.05738" lon="4.5908">
        <ele>398</ele>
        <time>2018-08-05T07:40:05.000Z</time>
      </trkpt>
      <trkpt lat="46.0574" lon="4.59085">
        <ele>397</ele>
        <time>2018-08-05T07:40:06.000Z</time>
      </trkpt>
      <trkpt lat="46.05741" lon="4.59091">
        <ele>397</ele>
        <time>2018-08-05T07:40:07.000Z</time>
      </trkpt>
      <trkpt lat="46.05743" lon="4.59096">
        <ele>396</ele>
        <time>2018-08-05T07:40:08.000Z</time>
      </trkpt>
      <trkpt lat="46.05745" lon="4.59102">
        <ele>396</ele>
        <time>2018-08-05T07:40:09.000Z</time>
      </trkpt>
      <trkpt lat="46.05746" lon="4.59108">
        <ele>395</ele>
        <time>2018-08-05T07:40:10.000Z</time>
      </trkpt>
      <trkpt lat="46.05748" lon="4.59114">
        <ele>394</ele>
        <time>2018-08-05T07:40:11.000Z</time>
      </trkpt>
      <trkpt lat="46.0575" lon="4.5912">
        <ele>394</ele>
        <time>2018-08-05T07:40:12.000Z</time>
      </trkpt>
      <trkpt lat="46.05752" lon="4.59126">
        <ele>394</ele>
        <time>2018-08-05T07:40:13.000Z</time>
      </trkpt>
      <trkpt lat="46.05753" lon="4.59133">
        <ele>394</ele>
        <time>2018-08-05T07:40:14.000Z</time>
      </trkpt>
      <trkpt lat="46.05755" lon="4.59139">
        <ele>394</ele>
        <time>2018-08-05T07:40:15.000Z</time>
      </trkpt>
      <trkpt lat="46.05757" lon="4.59146">
        <ele>394</ele>
        <time>2018-08-05T07:40:16.000Z</time>
      </trkpt>
      <trkpt lat="46.05759" lon="4.59154">
        <ele>394</ele>
        <time>2018-08-05T07:40:17.000Z</time>
      </trkpt>
      <trkpt lat="46.05761" lon="4.59162">
        <ele>394</ele>
        <time>2018-08-05T07:40:18.000Z</time>
      </trkpt>
      <trkpt lat="46.05763" lon="4.5917">
        <ele>393</ele>
        <time>2018-08-05T07:40:19.000Z</time>
      </trkpt>
      <trkpt lat="46.05765" lon="4.59179">
        <ele>392</ele>
        <time>2018-08-05T07:40:20.000Z</time>
      </trkpt>
      <trkpt lat="46.05767" lon="4.59188">
        <ele>391</ele>
        <time>2018-08-05T07:40:21.000Z</time>
      </trkpt>
      <trkpt lat="46.0577" lon="4.59197">
        <ele>390</ele>
        <time>2018-08-05T07:40:22.000Z</time>
      </trkpt>
      <trkpt lat="46.05772" lon="4.59207">
        <ele>389</ele>
        <time>2018-08-05T07:40:23.000Z</time>
      </trkpt>
      <trkpt lat="46.05775" lon="4.59217">
        <ele>389</ele>
        <time>2018-08-05T07:40:24.000Z</time>
      </trkpt>
      <trkpt lat="46.05777" lon="4.59226">
        <ele>389</ele>
        <time>2018-08-05T07:40:25.000Z</time>
      </trkpt>
      <trkpt lat="46.05779" lon="4.59237">
        <ele>388</ele>
        <time>2018-08-05T07:40:26.000Z</time>
      </trkpt>
      <trkpt lat="46.05781" lon="4.59248">
        <ele>388</ele>
        <time>2018-08-05T07:40:27.000Z</time>
      </trkpt>
      <trkpt lat="46.05783" lon="4.59259">
        <ele>385</ele>
        <time>2018-08-05T07:40:28.000Z</time>
      </trkpt>
      <trkpt lat="46.05785" lon="4.59271">
        <ele>385</ele>
        <time>2018-08-05T07:40:29.000Z</time>
      </trkpt>
      <trkpt lat="46.05786" lon="4.59283">
        <ele>384</ele>
        <time>2018-08-05T07:40:30.000Z</time>
      </trkpt>
      <trkpt lat="46.05788" lon="4.59295">
        <ele>384</ele>
        <time>2018-08-05T07:40:31.000Z</time>
      </trkpt>
      <trkpt lat="46.0579" lon="4.59308">
        <ele>383</ele>
        <time>2018-08-05T07:40:32.000Z</time>
      </trkpt>
      <trkpt lat="46.05791" lon="4.5932">
        <ele>383</ele>
        <time>2018-08-05T07:40:33.000Z</time>
      </trkpt>
      <trkpt lat="46.05793" lon="4.59334">
        <ele>380</ele>
        <time>2018-08-05T07:40:34.000Z</time>
      </trkpt>
      <trkpt lat="46.05794" lon="4.59347">
        <ele>379</ele>
        <time>2018-08-05T07:40:35.000Z</time>
      </trkpt>
      <trkpt lat="46.05795" lon="4.59361">
        <ele>379</ele>
        <time>2018-08-05T07:40:36.000Z</time>
      </trkpt>
      <trkpt lat="46.05796" lon="4.59375">
        <ele>378</ele>
        <time>2018-08-05T07:40:37.000Z</time>
      </trkpt>
      <trkpt lat="46.05798" lon="4.59389">
        <ele>378</ele>
        <time>2018-08-05T07:40:38.000Z</time>
      </trkpt>
      <trkpt lat="46.05799" lon="4.59402">
        <ele>377</ele>
        <time>2018-08-05T07:40:39.000Z</time>
      </trkpt>
      <trkpt lat="46.05799" lon="4.59413">
        <ele>377</ele>
        <time>2018-08-05T07:40:40.000Z</time>
      </trkpt>
      <trkpt lat="46.05797" lon="4.59423">
        <ele>375</ele>
        <time>2018-08-05T07:40:41.000Z</time>
      </trkpt>
      <trkpt lat="46.05794" lon="4.59432">
        <ele>375</ele>
        <time>2018-08-05T07:40:42.000Z</time>
      </trkpt>
      <trkpt lat="46.05788" lon="4.59438">
        <ele>375</ele>
        <time>2018-08-05T07:40:43.000Z</time>
      </trkpt>
      <trkpt lat="46.0578" lon="4.5944">
        <ele>375</ele>
        <time>2018-08-05T07:40:44.000Z</time>
      </trkpt>
      <trkpt lat="46.05773" lon="4.59438">
        <ele>375</ele>
        <time>2018-08-05T07:40:45.000Z</time>
      </trkpt>
      <trkpt lat="46.05765" lon="4.59432">
        <ele>375</ele>
        <time>2018-08-05T07:40:46.000Z</time>
      </trkpt>
      <trkpt lat="46.05758" lon="4.59425">
        <ele>376</ele>
        <time>2018-08-05T07:40:47.000Z</time>
      </trkpt>
      <trkpt lat="46.05751" lon="4.59417">
        <ele>377</ele>
        <time>2018-08-05T07:40:48.000Z</time>
      </trkpt>
      <trkpt lat="46.05743" lon="4.59409">
        <ele>375</ele>
        <time>2018-08-05T07:40:49.000Z</time>
      </trkpt>
      <trkpt lat="46.05736" lon="4.59401">
        <ele>374</ele>
        <time>2018-08-05T07:40:50.000Z</time>
      </trkpt>
      <trkpt lat="46.05728" lon="4.59393">
        <ele>373</ele>
        <time>2018-08-05T07:40:51.000Z</time>
      </trkpt>
      <trkpt lat="46.0572" lon="4.59383">
        <ele>372</ele>
        <time>2018-08-05T07:40:52.000Z</time>
      </trkpt>
      <trkpt lat="46.05713" lon="4.59374">
        <ele>372</ele>
        <time>2018-08-05T07:40:53.000Z</time>
      </trkpt>
      <trkpt lat="46.05706" lon="4.59363">
        <ele>372</ele>
        <time>2018-08-05T07:40:54.000Z</time>
      </trkpt>
      <trkpt lat="46.057" lon="4.59351">
        <ele>371</ele>
        <time>2018-08-05T07:40:55.000Z</time>
      </trkpt>
      <trkpt lat="46.05695" lon="4.59338">
        <ele>371</ele>
        <time>2018-08-05T07:40:56.000Z</time>
      </trkpt>
      <trkpt lat="46.05689" lon="4.59325">
        <ele>374</ele>
        <time>2018-08-05T07:40:57.000Z</time>
      </trkpt>
      <trkpt lat="46.05683" lon="4.59313">
        <ele>374</ele>
        <time>2018-08-05T07:40:58.000Z</time>
      </trkpt>
      <trkpt lat="46.05677" lon="4.593">
        <ele>375</ele>
        <time>2018-08-05T07:40:59.000Z</time>
      </trkpt>
      <trkpt lat="46.05672" lon="4.59288">
        <ele>376</ele>
        <time>2018-08-05T07:41:00.000Z</time>
      </trkpt>
      <trkpt lat="46.05668" lon="4.59276">
        <ele>376</ele>
        <time>2018-08-05T07:41:01.000Z</time>
      </trkpt>
      <trkpt lat="46.05663" lon="4.59265">
        <ele>367</ele>
        <time>2018-08-05T07:41:02.000Z</time>
      </trkpt>
      <trkpt lat="46.0566" lon="4.59255">
        <ele>369</ele>
        <time>2018-08-05T07:41:03.000Z</time>
      </trkpt>
      <trkpt lat="46.05656" lon="4.59246">
        <ele>371</ele>
        <time>2018-08-05T07:41:04.000Z</time>
      </trkpt>
      <trkpt lat="46.05652" lon="4.59237">
        <ele>370</ele>
        <time>2018-08-05T07:41:05.000Z</time>
      </trkpt>
      <trkpt lat="46.05649" lon="4.5923">
        <ele>369</ele>
        <time>2018-08-05T07:41:06.000Z</time>
      </trkpt>
      <trkpt lat="46.05646" lon="4.59222">
        <ele>369</ele>
        <time>2018-08-05T07:41:07.000Z</time>
      </trkpt>
      <trkpt lat="46.05643" lon="4.59214">
        <ele>369</ele>
        <time>2018-08-05T07:41:08.000Z</time>
      </trkpt>
      <trkpt lat="46.0564" lon="4.59206">
        <ele>369</ele>
        <time>2018-08-05T07:41:09.000Z</time>
      </trkpt>
      <trkpt lat="46.05637" lon="4.59198">
        <ele>369</ele>
        <time>2018-08-05T07:41:10.000Z</time>
      </trkpt>
      <trkpt lat="46.05634" lon="4.59189">
        <ele>369</ele>
        <time>2018-08-05T07:41:11.000Z</time>
      </trkpt>
      <trkpt lat="46.05632" lon="4.59181">
        <ele>369</ele>
        <time>2018-08-05T07:41:12.000Z</time>
      </trkpt>
      <trkpt lat="46.0563" lon="4.59174">
        <ele>369</ele>
        <time>2018-08-05T07:41:13.000Z</time>
      </trkpt>
      <trkpt lat="46.05626" lon="4.5917">
        <ele>368</ele>
        <time>2018-08-05T07:41:14.000Z</time>
      </trkpt>
      <trkpt lat="46.05623" lon="4.59168">
        <ele>368</ele>
        <time>2018-08-05T07:41:15.000Z</time>
      </trkpt>
      <trkpt lat="46.05621" lon="4.59168">
        <ele>367</ele>
        <time>2018-08-05T07:41:16.000Z</time>
      </trkpt>
      <trkpt lat="46.05618" lon="4.59169">
        <ele>367</ele>
        <time>2018-08-05T07:41:17.000Z</time>
      </trkpt>
      <trkpt lat="46.05615" lon="4.5917">
        <ele>366</ele>
        <time>2018-08-05T07:41:18.000Z</time>
      </trkpt>
      <trkpt lat="46.05613" lon="4.59171">
        <ele>366</ele>
        <time>2018-08-05T07:41:19.000Z</time>
      </trkpt>
      <trkpt lat="46.05611" lon="4.59168">
        <ele>366</ele>
        <time>2018-08-05T07:41:20.000Z</time>
      </trkpt>
      <trkpt lat="46.0561" lon="4.59162">
        <ele>369</ele>
        <time>2018-08-05T07:41:21.000Z</time>
      </trkpt>
      <trkpt lat="46.05608" lon="4.59155">
        <ele>369</ele>
        <time>2018-08-05T07:41:22.000Z</time>
      </trkpt>
      <trkpt lat="46.05606" lon="4.59146">
        <ele>369</ele>
        <time>2018-08-05T07:41:23.000Z</time>
      </trkpt>
      <trkpt lat="46.05602" lon="4.59138">
        <ele>369</ele>
        <time>2018-08-05T07:41:24.000Z</time>
      </trkpt>
      <trkpt lat="46.05597" lon="4.59129">
        <ele>369</ele>
        <time>2018-08-05T07:41:25.000Z</time>
      </trkpt>
      <trkpt lat="46.05593" lon="4.5912">
        <ele>369</ele>
        <time>2018-08-05T07:41:26.000Z</time>
      </trkpt>
      <trkpt lat="46.05588" lon="4.5911">
        <ele>369</ele>
        <time>2018-08-05T07:41:27.000Z</time>
      </trkpt>
      <trkpt lat="46.05584" lon="4.59101">
        <ele>368</ele>
        <time>2018-08-05T07:41:28.000Z</time>
      </trkpt>
      <trkpt lat="46.05579" lon="4.5909">
        <ele>360</ele>
        <time>2018-08-05T07:41:29.000Z</time>
      </trkpt>
      <trkpt lat="46.05573" lon="4.59079">
        <ele>360</ele>
        <time>2018-08-05T07:41:30.000Z</time>
      </trkpt>
      <trkpt lat="46.05569" lon="4.59069">
        <ele>358</ele>
        <time>2018-08-05T07:41:31.000Z</time>
      </trkpt>
      <trkpt lat="46.05565" lon="4.59058">
        <ele>356</ele>
        <time>2018-08-05T07:41:32.000Z</time>
      </trkpt>
      <trkpt lat="46.05561" lon="4.59046">
        <ele>355</ele>
        <time>2018-08-05T07:41:33.000Z</time>
      </trkpt>
      <trkpt lat="46.05558" lon="4.59034">
        <ele>355</ele>
        <time>2018-08-05T07:41:34.000Z</time>
      </trkpt>
      <trkpt lat="46.05554" lon="4.59022">
        <ele>355</ele>
        <time>2018-08-05T07:41:35.000Z</time>
      </trkpt>
      <trkpt lat="46.0555" lon="4.59009">
        <ele>355</ele>
        <time>2018-08-05T07:41:36.000Z</time>
      </trkpt>
      <trkpt lat="46.05547" lon="4.58996">
        <ele>357</ele>
        <time>2018-08-05T07:41:37.000Z</time>
      </trkpt>
      <trkpt lat="46.05543" lon="4.58983">
        <ele>357</ele>
        <time>2018-08-05T07:41:38.000Z</time>
      </trkpt>
      <trkpt lat="46.05539" lon="4.5897">
        <ele>356</ele>
        <time>2018-08-05T07:41:39.000Z</time>
      </trkpt>
      <trkpt lat="46.05535" lon="4.58959">
        <ele>356</ele>
        <time>2018-08-05T07:41:40.000Z</time>
      </trkpt>
      <trkpt lat="46.05531" lon="4.58949">
        <ele>356</ele>
        <time>2018-08-05T07:41:41.000Z</time>
      </trkpt>
      <trkpt lat="46.05527" lon="4.5894">
        <ele>355</ele>
        <time>2018-08-05T07:41:42.000Z</time>
      </trkpt>
      <trkpt lat="46.05524" lon="4.5893">
        <ele>354</ele>
        <time>2018-08-05T07:41:43.000Z</time>
      </trkpt>
      <trkpt lat="46.05521" lon="4.5892">
        <ele>353</ele>
        <time>2018-08-05T07:41:44.000Z</time>
      </trkpt>
      <trkpt lat="46.05518" lon="4.5891">
        <ele>356</ele>
        <time>2018-08-05T07:41:45.000Z</time>
      </trkpt>
      <trkpt lat="46.05516" lon="4.58899">
        <ele>356</ele>
        <time>2018-08-05T07:41:46.000Z</time>
      </trkpt>
      <trkpt lat="46.05513" lon="4.58888">
        <ele>357</ele>
        <time>2018-08-05T07:41:47.000Z</time>
      </trkpt>
      <trkpt lat="46.05511" lon="4.58877">
        <ele>358</ele>
        <time>2018-08-05T07:41:48.000Z</time>
      </trkpt>
      <trkpt lat="46.0551" lon="4.58866">
        <ele>358</ele>
        <time>2018-08-05T07:41:49.000Z</time>
      </trkpt>
      <trkpt lat="46.05508" lon="4.58855">
        <ele>357</ele>
        <time>2018-08-05T07:41:50.000Z</time>
      </trkpt>
      <trkpt lat="46.05506" lon="4.58844">
        <ele>355</ele>
        <time>2018-08-05T07:41:51.000Z</time>
      </trkpt>
      <trkpt lat="46.05505" lon="4.58833">
        <ele>353</ele>
        <time>2018-08-05T07:41:52.000Z</time>
      </trkpt>
      <trkpt lat="46.05503" lon="4.58822">
        <ele>356</ele>
        <time>2018-08-05T07:41:53.000Z</time>
      </trkpt>
      <trkpt lat="46.05501" lon="4.5881">
        <ele>359</ele>
        <time>2018-08-05T07:41:54.000Z</time>
      </trkpt>
      <trkpt lat="46.05499" lon="4.58799">
        <ele>346</ele>
        <time>2018-08-05T07:41:55.000Z</time>
      </trkpt>
      <trkpt lat="46.05498" lon="4.58787">
        <ele>346</ele>
        <time>2018-08-05T07:41:56.000Z</time>
      </trkpt>
      <trkpt lat="46.05496" lon="4.58775">
        <ele>347</ele>
        <time>2018-08-05T07:41:57.000Z</time>
      </trkpt>
      <trkpt lat="46.05493" lon="4.58763">
        <ele>349</ele>
        <time>2018-08-05T07:41:58.000Z</time>
      </trkpt>
      <trkpt lat="46.0549" lon="4.58751">
        <ele>350</ele>
        <time>2018-08-05T07:41:59.000Z</time>
      </trkpt>
      <trkpt lat="46.05484" lon="4.5874">
        <ele>352</ele>
        <time>2018-08-05T07:42:00.000Z</time>
      </trkpt>
      <trkpt lat="46.05477" lon="4.58731">
        <ele>351</ele>
        <time>2018-08-05T07:42:01.000Z</time>
      </trkpt>
      <trkpt lat="46.05469" lon="4.58724">
        <ele>351</ele>
        <time>2018-08-05T07:42:02.000Z</time>
      </trkpt>
      <trkpt lat="46.0546" lon="4.58721">
        <ele>350</ele>
        <time>2018-08-05T07:42:03.000Z</time>
      </trkpt>
      <trkpt lat="46.05451" lon="4.58721">
        <ele>349</ele>
        <time>2018-08-05T07:42:04.000Z</time>
      </trkpt>
      <trkpt lat="46.05441" lon="4.5872">
        <ele>347</ele>
        <time>2018-08-05T07:42:05.000Z</time>
      </trkpt>
      <trkpt lat="46.05432" lon="4.58719">
        <ele>347</ele>
        <time>2018-08-05T07:42:06.000Z</time>
      </trkpt>
      <trkpt lat="46.05422" lon="4.58715">
        <ele>346</ele>
        <time>2018-08-05T07:42:07.000Z</time>
      </trkpt>
      <trkpt lat="46.05413" lon="4.58709">
        <ele>335</ele>
        <time>2018-08-05T07:42:08.000Z</time>
      </trkpt>
      <trkpt lat="46.05405" lon="4.58701">
        <ele>335</ele>
        <time>2018-08-05T07:42:09.000Z</time>
      </trkpt>
      <trkpt lat="46.05397" lon="4.58691">
        <ele>335</ele>
        <time>2018-08-05T07:42:10.000Z</time>
      </trkpt>
      <trkpt lat="46.0539" lon="4.5868">
        <ele>335</ele>
        <time>2018-08-05T07:42:11.000Z</time>
      </trkpt>
      <trkpt lat="46.05384" lon="4.58669">
        <ele>335</ele>
        <time>2018-08-05T07:42:12.000Z</time>
      </trkpt>
      <trkpt lat="46.05378" lon="4.58656">
        <ele>341</ele>
        <time>2018-08-05T07:42:13.000Z</time>
      </trkpt>
      <trkpt lat="46.05372" lon="4.58643">
        <ele>341</ele>
        <time>2018-08-05T07:42:14.000Z</time>
      </trkpt>
      <trkpt lat="46.05367" lon="4.5863">
        <ele>341</ele>
        <time>2018-08-05T07:42:15.000Z</time>
      </trkpt>
      <trkpt lat="46.0536" lon="4.58618">
        <ele>341</ele>
        <time>2018-08-05T07:42:16.000Z</time>
      </trkpt>
      <trkpt lat="46.05353" lon="4.58606">
        <ele>341</ele>
        <time>2018-08-05T07:42:17.000Z</time>
      </trkpt>
      <trkpt lat="46.05345" lon="4.58596">
        <ele>341</ele>
        <time>2018-08-05T07:42:18.000Z</time>
      </trkpt>
      <trkpt lat="46.05336" lon="4.58587">
        <ele>340</ele>
        <time>2018-08-05T07:42:19.000Z</time>
      </trkpt>
      <trkpt lat="46.05326" lon="4.58581">
        <ele>339</ele>
        <time>2018-08-05T07:42:20.000Z</time>
      </trkpt>
      <trkpt lat="46.05316" lon="4.58574">
        <ele>339</ele>
        <time>2018-08-05T07:42:21.000Z</time>
      </trkpt>
      <trkpt lat="46.05306" lon="4.58567">
        <ele>338</ele>
        <time>2018-08-05T07:42:22.000Z</time>
      </trkpt>
      <trkpt lat="46.05296" lon="4.5856">
        <ele>338</ele>
        <time>2018-08-05T07:42:23.000Z</time>
      </trkpt>
      <trkpt lat="46.05286" lon="4.58552">
        <ele>337</ele>
        <time>2018-08-05T07:42:24.000Z</time>
      </trkpt>
      <trkpt lat="46.05276" lon="4.58544">
        <ele>337</ele>
        <time>2018-08-05T07:42:25.000Z</time>
      </trkpt>
      <trkpt lat="46.05267" lon="4.58534">
        <ele>337</ele>
        <time>2018-08-05T07:42:26.000Z</time>
      </trkpt>
      <trkpt lat="46.05258" lon="4.58524">
        <ele>337</ele>
        <time>2018-08-05T07:42:27.000Z</time>
      </trkpt>
      <trkpt lat="46.05249" lon="4.58515">
        <ele>330</ele>
        <time>2018-08-05T07:42:28.000Z</time>
      </trkpt>
      <trkpt lat="46.05239" lon="4.58506">
        <ele>330</ele>
        <time>2018-08-05T07:42:29.000Z</time>
      </trkpt>
      <trkpt lat="46.05228" lon="4.585">
        <ele>333</ele>
        <time>2018-08-05T07:42:30.000Z</time>
      </trkpt>
      <trkpt lat="46.05217" lon="4.58493">
        <ele>332</ele>
        <time>2018-08-05T07:42:31.000Z</time>
      </trkpt>
      <trkpt lat="46.05206" lon="4.58486">
        <ele>331</ele>
        <time>2018-08-05T07:42:32.000Z</time>
      </trkpt>
      <trkpt lat="46.05196" lon="4.58477">
        <ele>330</ele>
        <time>2018-08-05T07:42:33.000Z</time>
      </trkpt>
      <trkpt lat="46.05186" lon="4.58469">
        <ele>329</ele>
        <time>2018-08-05T07:42:34.000Z</time>
      </trkpt>
      <trkpt lat="46.05177" lon="4.58459">
        <ele>329</ele>
        <time>2018-08-05T07:42:35.000Z</time>
      </trkpt>
      <trkpt lat="46.05168" lon="4.58448">
        <ele>329</ele>
        <time>2018-08-05T07:42:36.000Z</time>
      </trkpt>
      <trkpt lat="46.05161" lon="4.58437">
        <ele>324</ele>
        <time>2018-08-05T07:42:37.000Z</time>
      </trkpt>
      <trkpt lat="46.05155" lon="4.58426">
        <ele>324</ele>
        <time>2018-08-05T07:42:38.000Z</time>
      </trkpt>
      <trkpt lat="46.05151" lon="4.58413">
        <ele>326</ele>
        <time>2018-08-05T07:42:39.000Z</time>
      </trkpt>
      <trkpt lat="46.05147" lon="4.58401">
        <ele>325</ele>
        <time>2018-08-05T07:42:40.000Z</time>
      </trkpt>
      <trkpt lat="46.05145" lon="4.5839">
        <ele>325</ele>
        <time>2018-08-05T07:42:41.000Z</time>
      </trkpt>
      <trkpt lat="46.05143" lon="4.5838">
        <ele>325</ele>
        <time>2018-08-05T07:42:42.000Z</time>
      </trkpt>
      <trkpt lat="46.05142" lon="4.58371">
        <ele>326</ele>
        <time>2018-08-05T07:42:43.000Z</time>
      </trkpt>
      <trkpt lat="46.05141" lon="4.58363">
        <ele>326</ele>
        <time>2018-08-05T07:42:44.000Z</time>
      </trkpt>
      <trkpt lat="46.0514" lon="4.58357">
        <ele>326</ele>
        <time>2018-08-05T07:42:45.000Z</time>
      </trkpt>
      <trkpt lat="46.05139" lon="4.58352">
        <ele>326</ele>
        <time>2018-08-05T07:42:46.000Z</time>
      </trkpt>
      <trkpt lat="46.05138" lon="4.58349">
        <ele>326</ele>
        <time>2018-08-05T07:42:47.000Z</time>
      </trkpt>
      <trkpt lat="46.05137" lon="4.58345">
        <ele>326</ele>
        <time>2018-08-05T07:42:48.000Z</time>
      </trkpt>
      <trkpt lat="46.05136" lon="4.58341">
        <ele>326</ele>
        <time>2018-08-05T07:42:49.000Z</time>
      </trkpt>
      <trkpt lat="46.05136" lon="4.58337">
        <ele>326</ele>
        <time>2018-08-05T07:42:50.000Z</time>
      </trkpt>
      <trkpt lat="46.05134" lon="4.58332">
        <ele>329</ele>
        <time>2018-08-05T07:42:51.000Z</time>
      </trkpt>
      <trkpt lat="46.05133" lon="4.58328">
        <ele>329</ele>
        <time>2018-08-05T07:42:52.000Z</time>
      </trkpt>
      <trkpt lat="46.05131" lon="4.58324">
        <ele>329</ele>
        <time>2018-08-05T07:42:53.000Z</time>
      </trkpt>
      <trkpt lat="46.0513" lon="4.5832">
        <ele>329</ele>
        <time>2018-08-05T07:42:54.000Z</time>
      </trkpt>
      <trkpt lat="46.05128" lon="4.58316">
        <ele>329</ele>
        <time>2018-08-05T07:42:55.000Z</time>
      </trkpt>
      <trkpt lat="46.05127" lon="4.58311">
        <ele>329</ele>
        <time>2018-08-05T07:42:56.000Z</time>
      </trkpt>
      <trkpt lat="46.05125" lon="4.58307">
        <ele>329</ele>
        <time>2018-08-05T07:42:57.000Z</time>
      </trkpt>
      <trkpt lat="46.05124" lon="4.58304">
        <ele>329</ele>
        <time>2018-08-05T07:42:58.000Z</time>
      </trkpt>
      <trkpt lat="46.05122" lon="4.583">
        <ele>329</ele>
        <time>2018-08-05T07:42:59.000Z</time>
      </trkpt>
      <trkpt lat="46.0512" lon="4.58296">
        <ele>329</ele>
        <time>2018-08-05T07:43:00.000Z</time>
      </trkpt>
      <trkpt lat="46.05119" lon="4.58293">
        <ele>329</ele>
        <time>2018-08-05T07:43:01.000Z</time>
      </trkpt>
      <trkpt lat="46.05117" lon="4.5829">
        <ele>329</ele>
        <time>2018-08-05T07:43:02.000Z</time>
      </trkpt>
      <trkpt lat="46.05115" lon="4.58287">
        <ele>329</ele>
        <time>2018-08-05T07:43:03.000Z</time>
      </trkpt>
      <trkpt lat="46.05114" lon="4.58284">
        <ele>329</ele>
        <time>2018-08-05T07:43:04.000Z</time>
      </trkpt>
      <trkpt lat="46.05113" lon="4.5828">
        <ele>329</ele>
        <time>2018-08-05T07:43:05.000Z</time>
      </trkpt>
      <trkpt lat="46.05111" lon="4.58277">
        <ele>329</ele>
        <time>2018-08-05T07:43:06.000Z</time>
      </trkpt>
      <trkpt lat="46.0511" lon="4.58274">
        <ele>329</ele>
        <time>2018-08-05T07:43:07.000Z</time>
      </trkpt>
      <trkpt lat="46.05109" lon="4.5827">
        <ele>329</ele>
        <time>2018-08-05T07:43:08.000Z</time>
      </trkpt>
      <trkpt lat="46.05108" lon="4.58267">
        <ele>329</ele>
        <time>2018-08-05T07:43:09.000Z</time>
      </trkpt>
      <trkpt lat="46.05107" lon="4.58264">
        <ele>329</ele>
        <time>2018-08-05T07:43:10.000Z</time>
      </trkpt>
      <trkpt lat="46.05105" lon="4.58261">
        <ele>329</ele>
        <time>2018-08-05T07:43:11.000Z</time>
      </trkpt>
      <trkpt lat="46.05104" lon="4.58258">
        <ele>328</ele>
        <time>2018-08-05T07:43:12.000Z</time>
      </trkpt>
      <trkpt lat="46.05103" lon="4.58255">
        <ele>328</ele>
        <time>2018-08-05T07:43:13.000Z</time>
      </trkpt>
      <trkpt lat="46.05102" lon="4.58252">
        <ele>328</ele>
        <time>2018-08-05T07:43:14.000Z</time>
      </trkpt>
      <trkpt lat="46.05101" lon="4.58249">
        <ele>331</ele>
        <time>2018-08-05T07:43:15.000Z</time>
      </trkpt>
      <trkpt lat="46.051" lon="4.58245">
        <ele>331</ele>
        <time>2018-08-05T07:43:16.000Z</time>
      </trkpt>
      <trkpt lat="46.05099" lon="4.58242">
        <ele>331</ele>
        <time>2018-08-05T07:43:17.000Z</time>
      </trkpt>
      <trkpt lat="46.05097" lon="4.58239">
        <ele>332</ele>
        <time>2018-08-05T07:43:18.000Z</time>
      </trkpt>
      <trkpt lat="46.05096" lon="4.58235">
        <ele>332</ele>
        <time>2018-08-05T07:43:19.000Z</time>
      </trkpt>
      <trkpt lat="46.05095" lon="4.58231">
        <ele>332</ele>
        <time>2018-08-05T07:43:20.000Z</time>
      </trkpt>
      <trkpt lat="46.05094" lon="4.58227">
        <ele>333</ele>
        <time>2018-08-05T07:43:21.000Z</time>
      </trkpt>
      <trkpt lat="46.05093" lon="4.58224">
        <ele>333</ele>
        <time>2018-08-05T07:43:22.000Z</time>
      </trkpt>
      <trkpt lat="46.05091" lon="4.5822">
        <ele>333</ele>
        <time>2018-08-05T07:43:23.000Z</time>
      </trkpt>
      <trkpt lat="46.0509" lon="4.58216">
        <ele>334</ele>
        <time>2018-08-05T07:43:24.000Z</time>
      </trkpt>
      <trkpt lat="46.05089" lon="4.58212">
        <ele>334</ele>
        <time>2018-08-05T07:43:25.000Z</time>
      </trkpt>
      <trkpt lat="46.05088" lon="4.58208">
        <ele>334</ele>
        <time>2018-08-05T07:43:26.000Z</time>
      </trkpt>
      <trkpt lat="46.05086" lon="4.58205">
        <ele>334</ele>
        <time>2018-08-05T07:43:27.000Z</time>
      </trkpt>
      <trkpt lat="46.05085" lon="4.58201">
        <ele>334</ele>
        <time>2018-08-05T07:43:28.000Z</time>
      </trkpt>
      <trkpt lat="46.05084" lon="4.58197">
        <ele>334</ele>
        <time>2018-08-05T07:43:29.000Z</time>
      </trkpt>
      <trkpt lat="46.05083" lon="4.58193">
        <ele>329</ele>
        <time>2018-08-05T07:43:30.000Z</time>
      </trkpt>
      <trkpt lat="46.05082" lon="4.58189">
        <ele>329</ele>
        <time>2018-08-05T07:43:31.000Z</time>
      </trkpt>
      <trkpt lat="46.0508" lon="4.58185">
        <ele>329</ele>
        <time>2018-08-05T07:43:32.000Z</time>
      </trkpt>
      <trkpt lat="46.05079" lon="4.58181">
        <ele>330</ele>
        <time>2018-08-05T07:43:33.000Z</time>
      </trkpt>
      <trkpt lat="46.05077" lon="4.58178">
        <ele>330</ele>
        <time>2018-08-05T07:43:34.000Z</time>
      </trkpt>
      <trkpt lat="46.05076" lon="4.58174">
        <ele>330</ele>
        <time>2018-08-05T07:43:35.000Z</time>
      </trkpt>
      <trkpt lat="46.05074" lon="4.5817">
        <ele>330</ele>
        <time>2018-08-05T07:43:36.000Z</time>
      </trkpt>
      <trkpt lat="46.05073" lon="4.58166">
        <ele>332</ele>
        <time>2018-08-05T07:43:37.000Z</time>
      </trkpt>
      <trkpt lat="46.05072" lon="4.58163">
        <ele>332</ele>
        <time>2018-08-05T07:43:38.000Z</time>
      </trkpt>
      <trkpt lat="46.05071" lon="4.58159">
        <ele>332</ele>
        <time>2018-08-05T07:43:39.000Z</time>
      </trkpt>
      <trkpt lat="46.0507" lon="4.58155">
        <ele>332</ele>
        <time>2018-08-05T07:43:40.000Z</time>
      </trkpt>
      <trkpt lat="46.0507" lon="4.58151">
        <ele>332</ele>
        <time>2018-08-05T07:43:41.000Z</time>
      </trkpt>
      <trkpt lat="46.0507" lon="4.58147">
        <ele>332</ele>
        <time>2018-08-05T07:43:42.000Z</time>
      </trkpt>
      <trkpt lat="46.05069" lon="4.58143">
        <ele>333</ele>
        <time>2018-08-05T07:43:43.000Z</time>
      </trkpt>
      <trkpt lat="46.05069" lon="4.58139">
        <ele>333</ele>
        <time>2018-08-05T07:43:44.000Z</time>
      </trkpt>
      <trkpt lat="46.05069" lon="4.58135">
        <ele>333</ele>
        <time>2018-08-05T07:43:45.000Z</time>
      </trkpt>
      <trkpt lat="46.05068" lon="4.58131">
        <ele>333</ele>
        <time>2018-08-05T07:43:46.000Z</time>
      </trkpt>
      <trkpt lat="46.05068" lon="4.58127">
        <ele>333</ele>
        <time>2018-08-05T07:43:47.000Z</time>
      </trkpt>
      <trkpt lat="46.05068" lon="4.58123">
        <ele>334</ele>
        <time>2018-08-05T07:43:48.000Z</time>
      </trkpt>
      <trkpt lat="46.05067" lon="4.58119">
        <ele>334</ele>
        <time>2018-08-05T07:43:49.000Z</time>
      </trkpt>
      <trkpt lat="46.05067" lon="4.58116">
        <ele>334</ele>
        <time>2018-08-05T07:43:50.000Z</time>
      </trkpt>
      <trkpt lat="46.05067" lon="4.58112">
        <ele>334</ele>
        <time>2018-08-05T07:43:51.000Z</time>
      </trkpt>
      <trkpt lat="46.05067" lon="4.58108">
        <ele>335</ele>
        <time>2018-08-05T07:43:52.000Z</time>
      </trkpt>
      <trkpt lat="46.05066" lon="4.58105">
        <ele>335</ele>
        <time>2018-08-05T07:43:53.000Z</time>
      </trkpt>
      <trkpt lat="46.05065" lon="4.58101">
        <ele>335</ele>
        <time>2018-08-05T07:43:54.000Z</time>
      </trkpt>
      <trkpt lat="46.05065" lon="4.58098">
        <ele>336</ele>
        <time>2018-08-05T07:43:55.000Z</time>
      </trkpt>
      <trkpt lat="46.05064" lon="4.58095">
        <ele>336</ele>
        <time>2018-08-05T07:43:56.000Z</time>
      </trkpt>
      <trkpt lat="46.05063" lon="4.58091">
        <ele>336</ele>
        <time>2018-08-05T07:43:57.000Z</time>
      </trkpt>
      <trkpt lat="46.05062" lon="4.58088">
        <ele>336</ele>
        <time>2018-08-05T07:43:58.000Z</time>
      </trkpt>
      <trkpt lat="46.05062" lon="4.58085">
        <ele>336</ele>
        <time>2018-08-05T07:43:59.000Z</time>
      </trkpt>
      <trkpt lat="46.05061" lon="4.58081">
        <ele>339</ele>
        <time>2018-08-05T07:44:00.000Z</time>
      </trkpt>
      <trkpt lat="46.0506" lon="4.58077">
        <ele>339</ele>
        <time>2018-08-05T07:44:01.000Z</time>
      </trkpt>
      <trkpt lat="46.05058" lon="4.58074">
        <ele>339</ele>
        <time>2018-08-05T07:44:02.000Z</time>
      </trkpt>
      <trkpt lat="46.05057" lon="4.58071">
        <ele>339</ele>
        <time>2018-08-05T07:44:03.000Z</time>
      </trkpt>
      <trkpt lat="46.05056" lon="4.58068">
        <ele>339</ele>
        <time>2018-08-05T07:44:04.000Z</time>
      </trkpt>
      <trkpt lat="46.05055" lon="4.58065">
        <ele>339</ele>
        <time>2018-08-05T07:44:05.000Z</time>
      </trkpt>
      <trkpt lat="46.05054" lon="4.58062">
        <ele>339</ele>
        <time>2018-08-05T07:44:06.000Z</time>
      </trkpt>
      <trkpt lat="46.05053" lon="4.58058">
        <ele>339</ele>
        <time>2018-08-05T07:44:07.000Z</time>
      </trkpt>
      <trkpt lat="46.05052" lon="4.58055">
        <ele>339</ele>
        <time>2018-08-05T07:44:08.000Z</time>
      </trkpt>
      <trkpt lat="46.05051" lon="4.58052">
        <ele>339</ele>
        <time>2018-08-05T07:44:09.000Z</time>
      </trkpt>
      <trkpt lat="46.0505" lon="4.58049">
        <ele>339</ele>
        <time>2018-08-05T07:44:10.000Z</time>
      </trkpt>
      <trkpt lat="46.05049" lon="4.58046">
        <ele>339</ele>
        <time>2018-08-05T07:44:11.000Z</time>
      </trkpt>
      <trkpt lat="46.05048" lon="4.58043">
        <ele>339</ele>
        <time>2018-08-05T07:44:12.000Z</time>
      </trkpt>
      <trkpt lat="46.05048" lon="4.5804">
        <ele>339</ele>
        <time>2018-08-05T07:44:13.000Z</time>
      </trkpt>
      <trkpt lat="46.05047" lon="4.58037">
        <ele>339</ele>
        <time>2018-08-05T07:44:14.000Z</time>
      </trkpt>
      <trkpt lat="46.05046" lon="4.58033">
        <ele>339</ele>
        <time>2018-08-05T07:44:15.000Z</time>
      </trkpt>
      <trkpt lat="46.05045" lon="4.5803">
        <ele>339</ele>
        <time>2018-08-05T07:44:16.000Z</time>
      </trkpt>
      <trkpt lat="46.05044" lon="4.58027">
        <ele>339</ele>
        <time>2018-08-05T07:44:17.000Z</time>
      </trkpt>
      <trkpt lat="46.05043" lon="4.58024">
        <ele>339</ele>
        <time>2018-08-05T07:44:18.000Z</time>
      </trkpt>
      <trkpt lat="46.05042" lon="4.5802">
        <ele>339</ele>
        <time>2018-08-05T07:44:19.000Z</time>
      </trkpt>
      <trkpt lat="46.05041" lon="4.58017">
        <ele>339</ele>
        <time>2018-08-05T07:44:20.000Z</time>
      </trkpt>
      <trkpt lat="46.0504" lon="4.58013">
        <ele>339</ele>
        <time>2018-08-05T07:44:21.000Z</time>
      </trkpt>
      <trkpt lat="46.05039" lon="4.5801">
        <ele>339</ele>
        <time>2018-08-05T07:44:22.000Z</time>
      </trkpt>
      <trkpt lat="46.05038" lon="4.58007">
        <ele>339</ele>
        <time>2018-08-05T07:44:23.000Z</time>
      </trkpt>
      <trkpt lat="46.05037" lon="4.58003">
        <ele>339</ele>
        <time>2018-08-05T07:44:24.000Z</time>
      </trkpt>
      <trkpt lat="46.05036" lon="4.58">
        <ele>340</ele>
        <time>2018-08-05T07:44:25.000Z</time>
      </trkpt>
      <trkpt lat="46.05035" lon="4.57997">
        <ele>344</ele>
        <time>2018-08-05T07:44:26.000Z</time>
      </trkpt>
      <trkpt lat="46.05034" lon="4.57993">
        <ele>344</ele>
        <time>2018-08-05T07:44:27.000Z</time>
      </trkpt>
      <trkpt lat="46.05033" lon="4.57989">
        <ele>344</ele>
        <time>2018-08-05T07:44:28.000Z</time>
      </trkpt>
      <trkpt lat="46.05033" lon="4.57985">
        <ele>344</ele>
        <time>2018-08-05T07:44:29.000Z</time>
      </trkpt>
      <trkpt lat="46.05032" lon="4.57982">
        <ele>344</ele>
        <time>2018-08-05T07:44:30.000Z</time>
      </trkpt>
      <trkpt lat="46.05031" lon="4.57978">
        <ele>344</ele>
        <time>2018-08-05T07:44:31.000Z</time>
      </trkpt>
      <trkpt lat="46.0503" lon="4.57974">
        <ele>345</ele>
        <time>2018-08-05T07:44:32.000Z</time>
      </trkpt>
      <trkpt lat="46.05029" lon="4.57971">
        <ele>345</ele>
        <time>2018-08-05T07:44:33.000Z</time>
      </trkpt>
      <trkpt lat="46.05027" lon="4.57967">
        <ele>345</ele>
        <time>2018-08-05T07:44:34.000Z</time>
      </trkpt>
      <trkpt lat="46.05026" lon="4.57964">
        <ele>345</ele>
        <time>2018-08-05T07:44:35.000Z</time>
      </trkpt>
      <trkpt lat="46.05025" lon="4.57961">
        <ele>345</ele>
        <time>2018-08-05T07:44:36.000Z</time>
      </trkpt>
      <trkpt lat="46.05024" lon="4.57957">
        <ele>345</ele>
        <time>2018-08-05T07:44:37.000Z</time>
      </trkpt>
      <trkpt lat="46.05023" lon="4.57953">
        <ele>346</ele>
        <time>2018-08-05T07:44:38.000Z</time>
      </trkpt>
      <trkpt lat="46.05022" lon="4.5795">
        <ele>346</ele>
        <time>2018-08-05T07:44:39.000Z</time>
      </trkpt>
      <trkpt lat="46.05021" lon="4.57946">
        <ele>346</ele>
        <time>2018-08-05T07:44:40.000Z</time>
      </trkpt>
      <trkpt lat="46.0502" lon="4.57943">
        <ele>346</ele>
        <time>2018-08-05T07:44:41.000Z</time>
      </trkpt>
      <trkpt lat="46.05019" lon="4.57939">
        <ele>346</ele>
        <time>2018-08-05T07:44:42.000Z</time>
      </trkpt>
      <trkpt lat="46.05018" lon="4.57936">
        <ele>346</ele>
        <time>2018-08-05T07:44:43.000Z</time>
      </trkpt>
      <trkpt lat="46.05016" lon="4.57933">
        <ele>346</ele>
        <time>2018-08-05T07:44:44.000Z</time>
      </trkpt>
      <trkpt lat="46.05015" lon="4.5793">
        <ele>346</ele>
        <time>2018-08-05T07:44:45.000Z</time>
      </trkpt>
      <trkpt lat="46.05013" lon="4.57927">
        <ele>345</ele>
        <time>2018-08-05T07:44:46.000Z</time>
      </trkpt>
      <trkpt lat="46.05012" lon="4.57924">
        <ele>345</ele>
        <time>2018-08-05T07:44:47.000Z</time>
      </trkpt>
      <trkpt lat="46.05011" lon="4.57921">
        <ele>345</ele>
        <time>2018-08-05T07:44:48.000Z</time>
      </trkpt>
      <trkpt lat="46.05009" lon="4.57918">
        <ele>345</ele>
        <time>2018-08-05T07:44:49.000Z</time>
      </trkpt>
      <trkpt lat="46.05008" lon="4.57914">
        <ele>347</ele>
        <time>2018-08-05T07:44:50.000Z</time>
      </trkpt>
      <trkpt lat="46.05007" lon="4.57911">
        <ele>348</ele>
        <time>2018-08-05T07:44:51.000Z</time>
      </trkpt>
      <trkpt lat="46.05006" lon="4.57908">
        <ele>348</ele>
        <time>2018-08-05T07:44:52.000Z</time>
      </trkpt>
      <trkpt lat="46.05005" lon="4.57905">
        <ele>349</ele>
        <time>2018-08-05T07:44:53.000Z</time>
      </trkpt>
      <trkpt lat="46.05003" lon="4.57902">
        <ele>350</ele>
        <time>2018-08-05T07:44:54.000Z</time>
      </trkpt>
      <trkpt lat="46.05002" lon="4.57899">
        <ele>350</ele>
        <time>2018-08-05T07:44:55.000Z</time>
      </trkpt>
      <trkpt lat="46.05" lon="4.57896">
        <ele>351</ele>
        <time>2018-08-05T07:44:56.000Z</time>
      </trkpt>
      <trkpt lat="46.04999" lon="4.57893">
        <ele>343</ele>
        <time>2018-08-05T07:44:57.000Z</time>
      </trkpt>
      <trkpt lat="46.04997" lon="4.5789">
        <ele>343</ele>
        <time>2018-08-05T07:44:58.000Z</time>
      </trkpt>
      <trkpt lat="46.04995" lon="4.57887">
        <ele>343</ele>
        <time>2018-08-05T07:44:59.000Z</time>
      </trkpt>
      <trkpt lat="46.04993" lon="4.57884">
        <ele>343</ele>
        <time>2018-08-05T07:45:00.000Z</time>
      </trkpt>
      <trkpt lat="46.0499" lon="4.57881">
        <ele>343</ele>
        <time>2018-08-05T07:45:01.000Z</time>
      </trkpt>
      <trkpt lat="46.04987" lon="4.57877">
        <ele>343</ele>
        <time>2018-08-05T07:45:02.000Z</time>
      </trkpt>
      <trkpt lat="46.04984" lon="4.57873">
        <ele>343</ele>
        <time>2018-08-05T07:45:03.000Z</time>
      </trkpt>
      <trkpt lat="46.0498" lon="4.57869">
        <ele>343</ele>
        <time>2018-08-05T07:45:04.000Z</time>
      </trkpt>
      <trkpt lat="46.04975" lon="4.57866">
        <ele>343</ele>
        <time>2018-08-05T07:45:05.000Z</time>
      </trkpt>
      <trkpt lat="46.0497" lon="4.57862">
        <ele>343</ele>
        <time>2018-08-05T07:45:06.000Z</time>
      </trkpt>
      <trkpt lat="46.04965" lon="4.57857">
        <ele>343</ele>
        <time>2018-08-05T07:45:07.000Z</time>
      </trkpt>
      <trkpt lat="46.04959" lon="4.57853">
        <ele>343</ele>
        <time>2018-08-05T07:45:08.000Z</time>
      </trkpt>
      <trkpt lat="46.04952" lon="4.57848">
        <ele>342</ele>
        <time>2018-08-05T07:45:09.000Z</time>
      </trkpt>
      <trkpt lat="46.04945" lon="4.57843">
        <ele>341</ele>
        <time>2018-08-05T07:45:10.000Z</time>
      </trkpt>
      <trkpt lat="46.04938" lon="4.57839">
        <ele>341</ele>
        <time>2018-08-05T07:45:11.000Z</time>
      </trkpt>
      <trkpt lat="46.04931" lon="4.57835">
        <ele>340</ele>
        <time>2018-08-05T07:45:12.000Z</time>
      </trkpt>
      <trkpt lat="46.04923" lon="4.57832">
        <ele>341</ele>
        <time>2018-08-05T07:45:13.000Z</time>
      </trkpt>
      <trkpt lat="46.04914" lon="4.57829">
        <ele>339</ele>
        <time>2018-08-05T07:45:14.000Z</time>
      </trkpt>
      <trkpt lat="46.04906" lon="4.57826">
        <ele>340</ele>
        <time>2018-08-05T07:45:15.000Z</time>
      </trkpt>
      <trkpt lat="46.04897" lon="4.57821">
        <ele>340</ele>
        <time>2018-08-05T07:45:16.000Z</time>
      </trkpt>
      <trkpt lat="46.04889" lon="4.57814">
        <ele>341</ele>
        <time>2018-08-05T07:45:17.000Z</time>
      </trkpt>
      <trkpt lat="46.04882" lon="4.57806">
        <ele>341</ele>
        <time>2018-08-05T07:45:18.000Z</time>
      </trkpt>
      <trkpt lat="46.04877" lon="4.57798">
        <ele>341</ele>
        <time>2018-08-05T07:45:19.000Z</time>
      </trkpt>
      <trkpt lat="46.04872" lon="4.57791">
        <ele>341</ele>
        <time>2018-08-05T07:45:20.000Z</time>
      </trkpt>
      <trkpt lat="46.04866" lon="4.57785">
        <ele>341</ele>
        <time>2018-08-05T07:45:21.000Z</time>
      </trkpt>
      <trkpt lat="46.04861" lon="4.57783">
        <ele>341</ele>
        <time>2018-08-05T07:45:22.000Z</time>
      </trkpt>
      <trkpt lat="46.04855" lon="4.57783">
        <ele>341</ele>
        <time>2018-08-05T07:45:23.000Z</time>
      </trkpt>
      <trkpt lat="46.04849" lon="4.57786">
        <ele>341</ele>
        <time>2018-08-05T07:45:24.000Z</time>
      </trkpt>
      <trkpt lat="46.04845" lon="4.57788">
        <ele>341</ele>
        <time>2018-08-05T07:45:25.000Z</time>
      </trkpt>
      <trkpt lat="46.0484" lon="4.57791">
        <ele>340</ele>
        <time>2018-08-05T07:45:26.000Z</time>
      </trkpt>
      <trkpt lat="46.04837" lon="4.57794">
        <ele>340</ele>
        <time>2018-08-05T07:45:27.000Z</time>
      </trkpt>
      <trkpt lat="46.04833" lon="4.57797">
        <ele>341</ele>
        <time>2018-08-05T07:45:28.000Z</time>
      </trkpt>
      <trkpt lat="46.0483" lon="4.578">
        <ele>341</ele>
        <time>2018-08-05T07:45:29.000Z</time>
      </trkpt>
      <trkpt lat="46.04827" lon="4.57802">
        <ele>341</ele>
        <time>2018-08-05T07:45:30.000Z</time>
      </trkpt>
      <trkpt lat="46.04824" lon="4.57803">
        <ele>341</ele>
        <time>2018-08-05T07:45:31.000Z</time>
      </trkpt>
      <trkpt lat="46.04821" lon="4.57805">
        <ele>341</ele>
        <time>2018-08-05T07:45:32.000Z</time>
      </trkpt>
      <trkpt lat="46.04819" lon="4.57806">
        <ele>341</ele>
        <time>2018-08-05T07:45:33.000Z</time>
      </trkpt>
      <trkpt lat="46.04817" lon="4.57808">
        <ele>341</ele>
        <time>2018-08-05T07:45:34.000Z</time>
      </trkpt>
      <trkpt lat="46.04814" lon="4.57809">
        <ele>341</ele>
        <time>2018-08-05T07:45:35.000Z</time>
      </trkpt>
      <trkpt lat="46.04812" lon="4.57811">
        <ele>341</ele>
        <time>2018-08-05T07:45:36.000Z</time>
      </trkpt>
      <trkpt lat="46.0481" lon="4.57812">
        <ele>341</ele>
        <time>2018-08-05T07:45:37.000Z</time>
      </trkpt>
      <trkpt lat="46.04807" lon="4.57813">
        <ele>341</ele>
        <time>2018-08-05T07:45:38.000Z</time>
      </trkpt>
      <trkpt lat="46.04804" lon="4.57814">
        <ele>341</ele>
        <time>2018-08-05T07:45:39.000Z</time>
      </trkpt>
      <trkpt lat="46.04802" lon="4.57815">
        <ele>341</ele>
        <time>2018-08-05T07:45:40.000Z</time>
      </trkpt>
      <trkpt lat="46.04799" lon="4.57816">
        <ele>341</ele>
        <time>2018-08-05T07:45:41.000Z</time>
      </trkpt>
      <trkpt lat="46.04797" lon="4.57817">
        <ele>342</ele>
        <time>2018-08-05T07:45:42.000Z</time>
      </trkpt>
      <trkpt lat="46.04795" lon="4.57817">
        <ele>342</ele>
        <time>2018-08-05T07:45:43.000Z</time>
      </trkpt>
      <trkpt lat="46.04792" lon="4.57816">
        <ele>342</ele>
        <time>2018-08-05T07:45:44.000Z</time>
      </trkpt>
      <trkpt lat="46.0479" lon="4.57814">
        <ele>342</ele>
        <time>2018-08-05T07:45:45.000Z</time>
      </trkpt>
      <trkpt lat="46.04789" lon="4.57811">
        <ele>342</ele>
        <time>2018-08-05T07:45:46.000Z</time>
      </trkpt>
      <trkpt lat="46.04789" lon="4.57808">
        <ele>342</ele>
        <time>2018-08-05T07:45:47.000Z</time>
      </trkpt>
      <trkpt lat="46.0479" lon="4.57804">
        <ele>342</ele>
        <time>2018-08-05T07:45:48.000Z</time>
      </trkpt>
      <trkpt lat="46.04791" lon="4.57801">
        <ele>342</ele>
        <time>2018-08-05T07:45:49.000Z</time>
      </trkpt>
      <trkpt lat="46.04792" lon="4.57799">
        <ele>342</ele>
        <time>2018-08-05T07:45:50.000Z</time>
      </trkpt>
      <trkpt lat="46.04793" lon="4.57797">
        <ele>343</ele>
        <time>2018-08-05T07:45:51.000Z</time>
      </trkpt>
      <trkpt lat="46.04794" lon="4.57795">
        <ele>343</ele>
        <time>2018-08-05T07:45:52.000Z</time>
      </trkpt>
      <trkpt lat="46.04795" lon="4.57793">
        <ele>343</ele>
        <time>2018-08-05T07:45:53.000Z</time>
      </trkpt>
      <trkpt lat="46.04797" lon="4.57792">
        <ele>342</ele>
        <time>2018-08-05T07:45:54.000Z</time>
      </trkpt>
      <trkpt lat="46.04798" lon="4.5779">
        <ele>342</ele>
        <time>2018-08-05T07:45:55.000Z</time>
      </trkpt>
      <trkpt lat="46.048" lon="4.57789">
        <ele>342</ele>
        <time>2018-08-05T07:45:56.000Z</time>
      </trkpt>
      <trkpt lat="46.04801" lon="4.57787">
        <ele>342</ele>
        <time>2018-08-05T07:45:57.000Z</time>
      </trkpt>
      <trkpt lat="46.04802" lon="4.57784">
        <ele>342</ele>
        <time>2018-08-05T07:45:58.000Z</time>
      </trkpt>
      <trkpt lat="46.04803" lon="4.57782">
        <ele>342</ele>
        <time>2018-08-05T07:45:59.000Z</time>
      </trkpt>
      <trkpt lat="46.04804" lon="4.57779">
        <ele>343</ele>
        <time>2018-08-05T07:46:00.000Z</time>
      </trkpt>
      <trkpt lat="46.04804" lon="4.57777">
        <ele>343</ele>
        <time>2018-08-05T07:46:01.000Z</time>
      </trkpt>
      <trkpt lat="46.04805" lon="4.57774">
        <ele>343</ele>
        <time>2018-08-05T07:46:02.000Z</time>
      </trkpt>
      <trkpt lat="46.04805" lon="4.57771">
        <ele>343</ele>
        <time>2018-08-05T07:46:03.000Z</time>
      </trkpt>
      <trkpt lat="46.04806" lon="4.57768">
        <ele>343</ele>
        <time>2018-08-05T07:46:04.000Z</time>
      </trkpt>
      <trkpt lat="46.04806" lon="4.57766">
        <ele>343</ele>
        <time>2018-08-05T07:46:05.000Z</time>
      </trkpt>
      <trkpt lat="46.04807" lon="4.57763">
        <ele>343</ele>
        <time>2018-08-05T07:46:06.000Z</time>
      </trkpt>
      <trkpt lat="46.04807" lon="4.57759">
        <ele>342</ele>
        <time>2018-08-05T07:46:07.000Z</time>
      </trkpt>
      <trkpt lat="46.04808" lon="4.57756">
        <ele>342</ele>
        <time>2018-08-05T07:46:08.000Z</time>
      </trkpt>
      <trkpt lat="46.04808" lon="4.57752">
        <ele>342</ele>
        <time>2018-08-05T07:46:09.000Z</time>
      </trkpt>
      <trkpt lat="46.04809" lon="4.57748">
        <ele>345</ele>
        <time>2018-08-05T07:46:10.000Z</time>
      </trkpt>
      <trkpt lat="46.04809" lon="4.57745">
        <ele>346</ele>
        <time>2018-08-05T07:46:11.000Z</time>
      </trkpt>
      <trkpt lat="46.04808" lon="4.57742">
        <ele>346</ele>
        <time>2018-08-05T07:46:12.000Z</time>
      </trkpt>
      <trkpt lat="46.04809" lon="4.57739">
        <ele>346</ele>
        <time>2018-08-05T07:46:13.000Z</time>
      </trkpt>
      <trkpt lat="46.04809" lon="4.57735">
        <ele>346</ele>
        <time>2018-08-05T07:46:14.000Z</time>
      </trkpt>
      <trkpt lat="46.04809" lon="4.57732">
        <ele>346</ele>
        <time>2018-08-05T07:46:15.000Z</time>
      </trkpt>
      <trkpt lat="46.04809" lon="4.57729">
        <ele>346</ele>
        <time>2018-08-05T07:46:16.000Z</time>
      </trkpt>
      <trkpt lat="46.04809" lon="4.57726">
        <ele>346</ele>
        <time>2018-08-05T07:46:17.000Z</time>
      </trkpt>
      <trkpt lat="46.04809" lon="4.57722">
        <ele>347</ele>
        <time>2018-08-05T07:46:18.000Z</time>
      </trkpt>
      <trkpt lat="46.04809" lon="4.57719">
        <ele>347</ele>
        <time>2018-08-05T07:46:19.000Z</time>
      </trkpt>
      <trkpt lat="46.04809" lon="4.57716">
        <ele>347</ele>
        <time>2018-08-05T07:46:20.000Z</time>
      </trkpt>
      <trkpt lat="46.04808" lon="4.57712">
        <ele>347</ele>
        <time>2018-08-05T07:46:21.000Z</time>
      </trkpt>
      <trkpt lat="46.04807" lon="4.57709">
        <ele>347</ele>
        <time>2018-08-05T07:46:22.000Z</time>
      </trkpt>
      <trkpt lat="46.04807" lon="4.57706">
        <ele>348</ele>
        <time>2018-08-05T07:46:23.000Z</time>
      </trkpt>
      <trkpt lat="46.04806" lon="4.57703">
        <ele>348</ele>
        <time>2018-08-05T07:46:24.000Z</time>
      </trkpt>
      <trkpt lat="46.04805" lon="4.57699">
        <ele>348</ele>
        <time>2018-08-05T07:46:25.000Z</time>
      </trkpt>
      <trkpt lat="46.04804" lon="4.57696">
        <ele>348</ele>
        <time>2018-08-05T07:46:26.000Z</time>
      </trkpt>
      <trkpt lat="46.04803" lon="4.57692">
        <ele>348</ele>
        <time>2018-08-05T07:46:27.000Z</time>
      </trkpt>
      <trkpt lat="46.04802" lon="4.57689">
        <ele>348</ele>
        <time>2018-08-05T07:46:28.000Z</time>
      </trkpt>
      <trkpt lat="46.04801" lon="4.57686">
        <ele>348</ele>
        <time>2018-08-05T07:46:29.000Z</time>
      </trkpt>
      <trkpt lat="46.048" lon="4.57683">
        <ele>348</ele>
        <time>2018-08-05T07:46:30.000Z</time>
      </trkpt>
      <trkpt lat="46.04799" lon="4.5768">
        <ele>349</ele>
        <time>2018-08-05T07:46:31.000Z</time>
      </trkpt>
      <trkpt lat="46.04797" lon="4.57677">
        <ele>349</ele>
        <time>2018-08-05T07:46:32.000Z</time>
      </trkpt>
      <trkpt lat="46.04796" lon="4.57674">
        <ele>349</ele>
        <time>2018-08-05T07:46:33.000Z</time>
      </trkpt>
      <trkpt lat="46.04795" lon="4.57671">
        <ele>349</ele>
        <time>2018-08-05T07:46:34.000Z</time>
      </trkpt>
      <trkpt lat="46.04793" lon="4.57669">
        <ele>349</ele>
        <time>2018-08-05T07:46:35.000Z</time>
      </trkpt>
      <trkpt lat="46.04792" lon="4.57666">
        <ele>351</ele>
        <time>2018-08-05T07:46:36.000Z</time>
      </trkpt>
      <trkpt lat="46.0479" lon="4.57664">
        <ele>351</ele>
        <time>2018-08-05T07:46:37.000Z</time>
      </trkpt>
      <trkpt lat="46.04789" lon="4.57661">
        <ele>351</ele>
        <time>2018-08-05T07:46:38.000Z</time>
      </trkpt>
      <trkpt lat="46.04787" lon="4.57659">
        <ele>351</ele>
        <time>2018-08-05T07:46:39.000Z</time>
      </trkpt>
      <trkpt lat="46.04786" lon="4.57656">
        <ele>351</ele>
        <time>2018-08-05T07:46:40.000Z</time>
      </trkpt>
      <trkpt lat="46.04784" lon="4.57654">
        <ele>352</ele>
        <time>2018-08-05T07:46:41.000Z</time>
      </trkpt>
      <trkpt lat="46.04782" lon="4.57652">
        <ele>352</ele>
        <time>2018-08-05T07:46:42.000Z</time>
      </trkpt>
      <trkpt lat="46.0478" lon="4.57649">
        <ele>352</ele>
        <time>2018-08-05T07:46:43.000Z</time>
      </trkpt>
      <trkpt lat="46.04779" lon="4.57647">
        <ele>352</ele>
        <time>2018-08-05T07:46:44.000Z</time>
      </trkpt>
      <trkpt lat="46.04777" lon="4.57646">
        <ele>352</ele>
        <time>2018-08-05T07:46:45.000Z</time>
      </trkpt>
      <trkpt lat="46.04775" lon="4.57644">
        <ele>352</ele>
        <time>2018-08-05T07:46:46.000Z</time>
      </trkpt>
      <trkpt lat="46.04774" lon="4.57642">
        <ele>352</ele>
        <time>2018-08-05T07:46:47.000Z</time>
      </trkpt>
      <trkpt lat="46.04772" lon="4.5764">
        <ele>352</ele>
        <time>2018-08-05T07:46:48.000Z</time>
      </trkpt>
      <trkpt lat="46.0477" lon="4.57638">
        <ele>352</ele>
        <time>2018-08-05T07:46:49.000Z</time>
      </trkpt>
      <trkpt lat="46.04768" lon="4.57637">
        <ele>352</ele>
        <time>2018-08-05T07:46:50.000Z</time>
      </trkpt>
      <trkpt lat="46.04765" lon="4.57635">
        <ele>352</ele>
        <time>2018-08-05T07:46:51.000Z</time>
      </trkpt>
      <trkpt lat="46.04763" lon="4.57633">
        <ele>352</ele>
        <time>2018-08-05T07:46:52.000Z</time>
      </trkpt>
      <trkpt lat="46.04761" lon="4.57631">
        <ele>352</ele>
        <time>2018-08-05T07:46:53.000Z</time>
      </trkpt>
      <trkpt lat="46.04759" lon="4.57629">
        <ele>352</ele>
        <time>2018-08-05T07:46:54.000Z</time>
      </trkpt>
      <trkpt lat="46.04757" lon="4.57628">
        <ele>352</ele>
        <time>2018-08-05T07:46:55.000Z</time>
      </trkpt>
      <trkpt lat="46.04755" lon="4.57626">
        <ele>352</ele>
        <time>2018-08-05T07:46:56.000Z</time>
      </trkpt>
      <trkpt lat="46.04753" lon="4.57624">
        <ele>352</ele>
        <time>2018-08-05T07:46:57.000Z</time>
      </trkpt>
      <trkpt lat="46.04751" lon="4.57622">
        <ele>352</ele>
        <time>2018-08-05T07:46:58.000Z</time>
      </trkpt>
      <trkpt lat="46.04749" lon="4.57621">
        <ele>359</ele>
        <time>2018-08-05T07:46:59.000Z</time>
      </trkpt>
      <trkpt lat="46.04747" lon="4.57619">
        <ele>359</ele>
        <time>2018-08-05T07:47:00.000Z</time>
      </trkpt>
      <trkpt lat="46.04745" lon="4.57617">
        <ele>359</ele>
        <time>2018-08-05T07:47:01.000Z</time>
      </trkpt>
      <trkpt lat="46.04744" lon="4.57615">
        <ele>358</ele>
        <time>2018-08-05T07:47:02.000Z</time>
      </trkpt>
      <trkpt lat="46.04743" lon="4.57612">
        <ele>358</ele>
        <time>2018-08-05T07:47:03.000Z</time>
      </trkpt>
      <trkpt lat="46.0474" lon="4.5761">
        <ele>358</ele>
        <time>2018-08-05T07:47:04.000Z</time>
      </trkpt>
      <trkpt lat="46.04739" lon="4.57608">
        <ele>358</ele>
        <time>2018-08-05T07:47:05.000Z</time>
      </trkpt>
      <trkpt lat="46.04737" lon="4.57606">
        <ele>358</ele>
        <time>2018-08-05T07:47:06.000Z</time>
      </trkpt>
      <trkpt lat="46.04736" lon="4.57603">
        <ele>358</ele>
        <time>2018-08-05T07:47:07.000Z</time>
      </trkpt>
      <trkpt lat="46.04734" lon="4.57601">
        <ele>358</ele>
        <time>2018-08-05T07:47:08.000Z</time>
      </trkpt>
      <trkpt lat="46.04733" lon="4.57599">
        <ele>358</ele>
        <time>2018-08-05T07:47:09.000Z</time>
      </trkpt>
      <trkpt lat="46.04731" lon="4.57596">
        <ele>358</ele>
        <time>2018-08-05T07:47:10.000Z</time>
      </trkpt>
      <trkpt lat="46.0473" lon="4.57594">
        <ele>358</ele>
        <time>2018-08-05T07:47:11.000Z</time>
      </trkpt>
      <trkpt lat="46.04729" lon="4.57592">
        <ele>359</ele>
        <time>2018-08-05T07:47:12.000Z</time>
      </trkpt>
      <trkpt lat="46.04727" lon="4.5759">
        <ele>359</ele>
        <time>2018-08-05T07:47:13.000Z</time>
      </trkpt>
      <trkpt lat="46.04727" lon="4.57588">
        <ele>359</ele>
        <time>2018-08-05T07:47:14.000Z</time>
      </trkpt>
      <trkpt lat="46.04725" lon="4.57586">
        <ele>359</ele>
        <time>2018-08-05T07:47:15.000Z</time>
      </trkpt>
      <trkpt lat="46.04724" lon="4.57584">
        <ele>359</ele>
        <time>2018-08-05T07:47:16.000Z</time>
      </trkpt>
      <trkpt lat="46.04723" lon="4.57583">
        <ele>359</ele>
        <time>2018-08-05T07:47:17.000Z</time>
      </trkpt>
      <trkpt lat="46.04721" lon="4.57581">
        <ele>360</ele>
        <time>2018-08-05T07:47:18.000Z</time>
      </trkpt>
      <trkpt lat="46.04721" lon="4.57579">
        <ele>360</ele>
        <time>2018-08-05T07:47:19.000Z</time>
      </trkpt>
      <trkpt lat="46.0472" lon="4.57577">
        <ele>360</ele>
        <time>2018-08-05T07:47:20.000Z</time>
      </trkpt>
      <trkpt lat="46.0472" lon="4.57575">
        <ele>360</ele>
        <time>2018-08-05T07:47:21.000Z</time>
      </trkpt>
      <trkpt lat="46.04719" lon="4.57573">
        <ele>360</ele>
        <time>2018-08-05T07:47:22.000Z</time>
      </trkpt>
      <trkpt lat="46.04719" lon="4.57571">
        <ele>360</ele>
        <time>2018-08-05T07:47:23.000Z</time>
      </trkpt>
      <trkpt lat="46.04718" lon="4.5757">
        <ele>360</ele>
        <time>2018-08-05T07:47:24.000Z</time>
      </trkpt>
      <trkpt lat="46.04716" lon="4.57568">
        <ele>360</ele>
        <time>2018-08-05T07:47:25.000Z</time>
      </trkpt>
      <trkpt lat="46.04715" lon="4.57567">
        <ele>361</ele>
        <time>2018-08-05T07:47:26.000Z</time>
      </trkpt>
      <trkpt lat="46.04715" lon="4.57565">
        <ele>361</ele>
        <time>2018-08-05T07:47:27.000Z</time>
      </trkpt>
      <trkpt lat="46.04714" lon="4.57563">
        <ele>361</ele>
        <time>2018-08-05T07:47:28.000Z</time>
      </trkpt>
      <trkpt lat="46.04714" lon="4.57562">
        <ele>361</ele>
        <time>2018-08-05T07:47:29.000Z</time>
      </trkpt>
      <trkpt lat="46.04714" lon="4.5756">
        <ele>361</ele>
        <time>2018-08-05T07:47:30.000Z</time>
      </trkpt>
      <trkpt lat="46.04713" lon="4.57558">
        <ele>361</ele>
        <time>2018-08-05T07:47:31.000Z</time>
      </trkpt>
      <trkpt lat="46.04712" lon="4.57556">
        <ele>361</ele>
        <time>2018-08-05T07:47:32.000Z</time>
      </trkpt>
      <trkpt lat="46.04711" lon="4.57554">
        <ele>361</ele>
        <time>2018-08-05T07:47:33.000Z</time>
      </trkpt>
      <trkpt lat="46.04709" lon="4.57553">
        <ele>361</ele>
        <time>2018-08-05T07:47:34.000Z</time>
      </trkpt>
      <trkpt lat="46.04708" lon="4.57552">
        <ele>361</ele>
        <time>2018-08-05T07:47:35.000Z</time>
      </trkpt>
      <trkpt lat="46.04708" lon="4.5755">
        <ele>361</ele>
        <time>2018-08-05T07:47:36.000Z</time>
      </trkpt>
      <trkpt lat="46.04709" lon="4.57548">
        <ele>361</ele>
        <time>2018-08-05T07:47:37.000Z</time>
      </trkpt>
      <trkpt lat="46.04709" lon="4.57546">
        <ele>361</ele>
        <time>2018-08-05T07:47:38.000Z</time>
      </trkpt>
      <trkpt lat="46.04708" lon="4.57544">
        <ele>361</ele>
        <time>2018-08-05T07:47:39.000Z</time>
      </trkpt>
      <trkpt lat="46.04707" lon="4.57542">
        <ele>361</ele>
        <time>2018-08-05T07:47:40.000Z</time>
      </trkpt>
      <trkpt lat="46.04707" lon="4.57541">
        <ele>361</ele>
        <time>2018-08-05T07:47:41.000Z</time>
      </trkpt>
      <trkpt lat="46.04706" lon="4.57539">
        <ele>361</ele>
        <time>2018-08-05T07:47:42.000Z</time>
      </trkpt>
      <trkpt lat="46.04706" lon="4.57537">
        <ele>361</ele>
        <time>2018-08-05T07:47:43.000Z</time>
      </trkpt>
      <trkpt lat="46.04706" lon="4.57535">
        <ele>361</ele>
        <time>2018-08-05T07:47:44.000Z</time>
      </trkpt>
      <trkpt lat="46.04705" lon="4.57534">
        <ele>361</ele>
        <time>2018-08-05T07:47:45.000Z</time>
      </trkpt>
      <trkpt lat="46.04705" lon="4.57534">
        <ele>362</ele>
        <time>2018-08-05T07:47:46.000Z</time>
      </trkpt>
      <trkpt lat="46.04704" lon="4.57535">
        <ele>362</ele>
        <time>2018-08-05T07:47:47.000Z</time>
      </trkpt>
      <trkpt lat="46.04704" lon="4.57537">
        <ele>362</ele>
        <time>2018-08-05T07:47:48.000Z</time>
      </trkpt>
      <trkpt lat="46.04705" lon="4.57539">
        <ele>362</ele>
        <time>2018-08-05T07:47:49.000Z</time>
      </trkpt>
      <trkpt lat="46.04706" lon="4.57541">
        <ele>362</ele>
        <time>2018-08-05T07:47:50.000Z</time>
      </trkpt>
      <trkpt lat="46.04707" lon="4.57544">
        <ele>361</ele>
        <time>2018-08-05T07:47:51.000Z</time>
      </trkpt>
      <trkpt lat="46.04708" lon="4.57547">
        <ele>361</ele>
        <time>2018-08-05T07:47:52.000Z</time>
      </trkpt>
      <trkpt lat="46.04709" lon="4.5755">
        <ele>361</ele>
        <time>2018-08-05T07:47:53.000Z</time>
      </trkpt>
      <trkpt lat="46.0471" lon="4.57553">
        <ele>361</ele>
        <time>2018-08-05T07:47:54.000Z</time>
      </trkpt>
      <trkpt lat="46.04711" lon="4.57556">
        <ele>361</ele>
        <time>2018-08-05T07:47:55.000Z</time>
      </trkpt>
      <trkpt lat="46.04712" lon="4.57559">
        <ele>361</ele>
        <time>2018-08-05T07:47:56.000Z</time>
      </trkpt>
      <trkpt lat="46.04713" lon="4.57562">
        <ele>361</ele>
        <time>2018-08-05T07:47:57.000Z</time>
      </trkpt>
      <trkpt lat="46.04714" lon="4.57564">
        <ele>361</ele>
        <time>2018-08-05T07:47:58.000Z</time>
      </trkpt>
      <trkpt lat="46.04714" lon="4.57566">
        <ele>361</ele>
        <time>2018-08-05T07:47:59.000Z</time>
      </trkpt>
      <trkpt lat="46.04715" lon="4.57568">
        <ele>361</ele>
        <time>2018-08-05T07:48:00.000Z</time>
      </trkpt>
      <trkpt lat="46.04716" lon="4.5757">
        <ele>360</ele>
        <time>2018-08-05T07:48:01.000Z</time>
      </trkpt>
      <trkpt lat="46.04717" lon="4.57572">
        <ele>360</ele>
        <time>2018-08-05T07:48:02.000Z</time>
      </trkpt>
      <trkpt lat="46.04718" lon="4.57574">
        <ele>360</ele>
        <time>2018-08-05T07:48:03.000Z</time>
      </trkpt>
      <trkpt lat="46.04719" lon="4.57576">
        <ele>360</ele>
        <time>2018-08-05T07:48:04.000Z</time>
      </trkpt>
      <trkpt lat="46.04719" lon="4.57577">
        <ele>360</ele>
        <time>2018-08-05T07:48:05.000Z</time>
      </trkpt>
      <trkpt lat="46.0472" lon="4.57577">
        <ele>360</ele>
        <time>2018-08-05T07:48:06.000Z</time>
      </trkpt>
      <trkpt lat="46.04721" lon="4.57576">
        <ele>360</ele>
        <time>2018-08-05T07:48:07.000Z</time>
      </trkpt>
      <trkpt lat="46.04721" lon="4.57574">
        <ele>360</ele>
        <time>2018-08-05T07:48:08.000Z</time>
      </trkpt>
      <trkpt lat="46.04719" lon="4.57571">
        <ele>360</ele>
        <time>2018-08-05T07:48:09.000Z</time>
      </trkpt>
      <trkpt lat="46.04718" lon="4.57569">
        <ele>360</ele>
        <time>2018-08-05T07:48:10.000Z</time>
      </trkpt>
      <trkpt lat="46.04716" lon="4.57566">
        <ele>361</ele>
        <time>2018-08-05T07:48:11.000Z</time>
      </trkpt>
      <trkpt lat="46.04714" lon="4.57563">
        <ele>361</ele>
        <time>2018-08-05T07:48:12.000Z</time>
      </trkpt>
      <trkpt lat="46.04713" lon="4.57559">
        <ele>361</ele>
        <time>2018-08-05T07:48:13.000Z</time>
      </trkpt>
      <trkpt lat="46.04711" lon="4.57556">
        <ele>361</ele>
        <time>2018-08-05T07:48:14.000Z</time>
      </trkpt>
      <trkpt lat="46.0471" lon="4.57552">
        <ele>361</ele>
        <time>2018-08-05T07:48:15.000Z</time>
      </trkpt>
      <trkpt lat="46.04709" lon="4.57549">
        <ele>361</ele>
        <time>2018-08-05T07:48:16.000Z</time>
      </trkpt>
      <trkpt lat="46.04707" lon="4.57545">
        <ele>361</ele>
        <time>2018-08-05T07:48:17.000Z</time>
      </trkpt>
      <trkpt lat="46.04706" lon="4.57542">
        <ele>362</ele>
        <time>2018-08-05T07:48:18.000Z</time>
      </trkpt>
      <trkpt lat="46.04705" lon="4.57539">
        <ele>362</ele>
        <time>2018-08-05T07:48:19.000Z</time>
      </trkpt>
      <trkpt lat="46.04704" lon="4.57535">
        <ele>362</ele>
        <time>2018-08-05T07:48:20.000Z</time>
      </trkpt>
      <trkpt lat="46.04704" lon="4.57532">
        <ele>362</ele>
        <time>2018-08-05T07:48:21.000Z</time>
      </trkpt>
      <trkpt lat="46.04703" lon="4.57529">
        <ele>362</ele>
        <time>2018-08-05T07:48:22.000Z</time>
      </trkpt>
      <trkpt lat="46.04702" lon="4.57525">
        <ele>362</ele>
        <time>2018-08-05T07:48:23.000Z</time>
      </trkpt>
      <trkpt lat="46.04701" lon="4.57522">
        <ele>362</ele>
        <time>2018-08-05T07:48:24.000Z</time>
      </trkpt>
      <trkpt lat="46.047" lon="4.57519">
        <ele>362</ele>
        <time>2018-08-05T07:48:25.000Z</time>
      </trkpt>
      <trkpt lat="46.04699" lon="4.57516">
        <ele>362</ele>
        <time>2018-08-05T07:48:26.000Z</time>
      </trkpt>
      <trkpt lat="46.04698" lon="4.57513">
        <ele>363</ele>
        <time>2018-08-05T07:48:27.000Z</time>
      </trkpt>
      <trkpt lat="46.04698" lon="4.57509">
        <ele>363</ele>
        <time>2018-08-05T07:48:28.000Z</time>
      </trkpt>
      <trkpt lat="46.04697" lon="4.57506">
        <ele>363</ele>
        <time>2018-08-05T07:48:29.000Z</time>
      </trkpt>
      <trkpt lat="46.04696" lon="4.57503">
        <ele>363</ele>
        <time>2018-08-05T07:48:30.000Z</time>
      </trkpt>
      <trkpt lat="46.04696" lon="4.575">
        <ele>361</ele>
        <time>2018-08-05T07:48:31.000Z</time>
      </trkpt>
      <trkpt lat="46.04695" lon="4.57496">
        <ele>361</ele>
        <time>2018-08-05T07:48:32.000Z</time>
      </trkpt>
      <trkpt lat="46.04694" lon="4.57493">
        <ele>361</ele>
        <time>2018-08-05T07:48:33.000Z</time>
      </trkpt>
      <trkpt lat="46.04693" lon="4.5749">
        <ele>361</ele>
        <time>2018-08-05T07:48:34.000Z</time>
      </trkpt>
      <trkpt lat="46.04692" lon="4.57488">
        <ele>361</ele>
        <time>2018-08-05T07:48:35.000Z</time>
      </trkpt>
      <trkpt lat="46.04692" lon="4.57485">
        <ele>361</ele>
        <time>2018-08-05T07:48:36.000Z</time>
      </trkpt>
      <trkpt lat="46.04691" lon="4.57482">
        <ele>361</ele>
        <time>2018-08-05T07:48:37.000Z</time>
      </trkpt>
      <trkpt lat="46.0469" lon="4.57479">
        <ele>361</ele>
        <time>2018-08-05T07:48:38.000Z</time>
      </trkpt>
      <trkpt lat="46.0469" lon="4.57476">
        <ele>361</ele>
        <time>2018-08-05T07:48:39.000Z</time>
      </trkpt>
      <trkpt lat="46.04689" lon="4.57473">
        <ele>361</ele>
        <time>2018-08-05T07:48:40.000Z</time>
      </trkpt>
      <trkpt lat="46.04688" lon="4.5747">
        <ele>361</ele>
        <time>2018-08-05T07:48:41.000Z</time>
      </trkpt>
      <trkpt lat="46.04687" lon="4.57467">
        <ele>361</ele>
        <time>2018-08-05T07:48:42.000Z</time>
      </trkpt>
      <trkpt lat="46.04686" lon="4.57465">
        <ele>361</ele>
        <time>2018-08-05T07:48:43.000Z</time>
      </trkpt>
      <trkpt lat="46.04685" lon="4.57462">
        <ele>361</ele>
        <time>2018-08-05T07:48:44.000Z</time>
      </trkpt>
      <trkpt lat="46.04684" lon="4.57459">
        <ele>361</ele>
        <time>2018-08-05T07:48:45.000Z</time>
      </trkpt>
      <trkpt lat="46.04683" lon="4.57456">
        <ele>361</ele>
        <time>2018-08-05T07:48:46.000Z</time>
      </trkpt>
      <trkpt lat="46.04682" lon="4.57453">
        <ele>361</ele>
        <time>2018-08-05T07:48:47.000Z</time>
      </trkpt>
      <trkpt lat="46.04681" lon="4.57451">
        <ele>361</ele>
        <time>2018-08-05T07:48:48.000Z</time>
      </trkpt>
      <trkpt lat="46.0468" lon="4.57448">
        <ele>361</ele>
        <time>2018-08-05T07:48:49.000Z</time>
      </trkpt>
      <trkpt lat="46.04679" lon="4.57445">
        <ele>361</ele>
        <time>2018-08-05T07:48:50.000Z</time>
      </trkpt>
      <trkpt lat="46.04678" lon="4.57442">
        <ele>361</ele>
        <time>2018-08-05T07:48:51.000Z</time>
      </trkpt>
      <trkpt lat="46.04676" lon="4.57439">
        <ele>361</ele>
        <time>2018-08-05T07:48:52.000Z</time>
      </trkpt>
      <trkpt lat="46.04675" lon="4.57437">
        <ele>361</ele>
        <time>2018-08-05T07:48:53.000Z</time>
      </trkpt>
      <trkpt lat="46.04674" lon="4.57434">
        <ele>362</ele>
        <time>2018-08-05T07:48:54.000Z</time>
      </trkpt>
      <trkpt lat="46.04673" lon="4.57431">
        <ele>362</ele>
        <time>2018-08-05T07:48:55.000Z</time>
      </trkpt>
      <trkpt lat="46.04671" lon="4.57428">
        <ele>362</ele>
        <time>2018-08-05T07:48:56.000Z</time>
      </trkpt>
      <trkpt lat="46.0467" lon="4.57426">
        <ele>363</ele>
        <time>2018-08-05T07:48:57.000Z</time>
      </trkpt>
      <trkpt lat="46.04669" lon="4.57423">
        <ele>363</ele>
        <time>2018-08-05T07:48:58.000Z</time>
      </trkpt>
      <trkpt lat="46.04667" lon="4.57421">
        <ele>364</ele>
        <time>2018-08-05T07:48:59.000Z</time>
      </trkpt>
      <trkpt lat="46.04666" lon="4.57418">
        <ele>366</ele>
        <time>2018-08-05T07:49:00.000Z</time>
      </trkpt>
      <trkpt lat="46.04664" lon="4.57416">
        <ele>366</ele>
        <time>2018-08-05T07:49:01.000Z</time>
      </trkpt>
      <trkpt lat="46.04662" lon="4.57414">
        <ele>366</ele>
        <time>2018-08-05T07:49:02.000Z</time>
      </trkpt>
      <trkpt lat="46.04661" lon="4.57412">
        <ele>367</ele>
        <time>2018-08-05T07:49:03.000Z</time>
      </trkpt>
      <trkpt lat="46.04659" lon="4.57409">
        <ele>367</ele>
        <time>2018-08-05T07:49:04.000Z</time>
      </trkpt>
      <trkpt lat="46.04657" lon="4.57408">
        <ele>368</ele>
        <time>2018-08-05T07:49:05.000Z</time>
      </trkpt>
      <trkpt lat="46.04655" lon="4.57406">
        <ele>368</ele>
        <time>2018-08-05T07:49:06.000Z</time>
      </trkpt>
      <trkpt lat="46.04653" lon="4.57404">
        <ele>368</ele>
        <time>2018-08-05T07:49:07.000Z</time>
      </trkpt>
      <trkpt lat="46.04651" lon="4.57403">
        <ele>369</ele>
        <time>2018-08-05T07:49:08.000Z</time>
      </trkpt>
      <trkpt lat="46.04649" lon="4.57401">
        <ele>369</ele>
        <time>2018-08-05T07:49:09.000Z</time>
      </trkpt>
      <trkpt lat="46.04647" lon="4.574">
        <ele>369</ele>
        <time>2018-08-05T07:49:10.000Z</time>
      </trkpt>
      <trkpt lat="46.04645" lon="4.57399">
        <ele>370</ele>
        <time>2018-08-05T07:49:11.000Z</time>
      </trkpt>
      <trkpt lat="46.04643" lon="4.57398">
        <ele>370</ele>
        <time>2018-08-05T07:49:12.000Z</time>
      </trkpt>
      <trkpt lat="46.04641" lon="4.57397">
        <ele>370</ele>
        <time>2018-08-05T07:49:13.000Z</time>
      </trkpt>
      <trkpt lat="46.04639" lon="4.57396">
        <ele>370</ele>
        <time>2018-08-05T07:49:14.000Z</time>
      </trkpt>
      <trkpt lat="46.04637" lon="4.57396">
        <ele>371</ele>
        <time>2018-08-05T07:49:15.000Z</time>
      </trkpt>
      <trkpt lat="46.04635" lon="4.57395">
        <ele>371</ele>
        <time>2018-08-05T07:49:16.000Z</time>
      </trkpt>
      <trkpt lat="46.04633" lon="4.57395">
        <ele>371</ele>
        <time>2018-08-05T07:49:17.000Z</time>
      </trkpt>
      <trkpt lat="46.04631" lon="4.57394">
        <ele>371</ele>
        <time>2018-08-05T07:49:18.000Z</time>
      </trkpt>
      <trkpt lat="46.04628" lon="4.57394">
        <ele>372</ele>
        <time>2018-08-05T07:49:19.000Z</time>
      </trkpt>
      <trkpt lat="46.04626" lon="4.57394">
        <ele>372</ele>
        <time>2018-08-05T07:49:20.000Z</time>
      </trkpt>
      <trkpt lat="46.04624" lon="4.57393">
        <ele>372</ele>
        <time>2018-08-05T07:49:21.000Z</time>
      </trkpt>
      <trkpt lat="46.04622" lon="4.57393">
        <ele>373</ele>
        <time>2018-08-05T07:49:22.000Z</time>
      </trkpt>
      <trkpt lat="46.04619" lon="4.57392">
        <ele>373</ele>
        <time>2018-08-05T07:49:23.000Z</time>
      </trkpt>
      <trkpt lat="46.04617" lon="4.57392">
        <ele>373</ele>
        <time>2018-08-05T07:49:24.000Z</time>
      </trkpt>
      <trkpt lat="46.04615" lon="4.57392">
        <ele>373</ele>
        <time>2018-08-05T07:49:25.000Z</time>
      </trkpt>
      <trkpt lat="46.04612" lon="4.57392">
        <ele>374</ele>
        <time>2018-08-05T07:49:26.000Z</time>
      </trkpt>
      <trkpt lat="46.0461" lon="4.57392">
        <ele>374</ele>
        <time>2018-08-05T07:49:27.000Z</time>
      </trkpt>
      <trkpt lat="46.04608" lon="4.57392">
        <ele>374</ele>
        <time>2018-08-05T07:49:28.000Z</time>
      </trkpt>
      <trkpt lat="46.04605" lon="4.57391">
        <ele>375</ele>
        <time>2018-08-05T07:49:29.000Z</time>
      </trkpt>
      <trkpt lat="46.04603" lon="4.57391">
        <ele>375</ele>
        <time>2018-08-05T07:49:30.000Z</time>
      </trkpt>
      <trkpt lat="46.04601" lon="4.57391">
        <ele>375</ele>
        <time>2018-08-05T07:49:31.000Z</time>
      </trkpt>
      <trkpt lat="46.04598" lon="4.5739">
        <ele>375</ele>
        <time>2018-08-05T07:49:32.000Z</time>
      </trkpt>
      <trkpt lat="46.04596" lon="4.57389">
        <ele>376</ele>
        <time>2018-08-05T07:49:33.000Z</time>
      </trkpt>
      <trkpt lat="46.04594" lon="4.57388">
        <ele>376</ele>
        <time>2018-08-05T07:49:34.000Z</time>
      </trkpt>
      <trkpt lat="46.04592" lon="4.57388">
        <ele>376</ele>
        <time>2018-08-05T07:49:35.000Z</time>
      </trkpt>
      <trkpt lat="46.04589" lon="4.57387">
        <ele>376</ele>
        <time>2018-08-05T07:49:36.000Z</time>
      </trkpt>
      <trkpt lat="46.04587" lon="4.57387">
        <ele>376</ele>
        <time>2018-08-05T07:49:37.000Z</time>
      </trkpt>
      <trkpt lat="46.04585" lon="4.57386">
        <ele>376</ele>
        <time>2018-08-05T07:49:38.000Z</time>
      </trkpt>
      <trkpt lat="46.04583" lon="4.57385">
        <ele>387</ele>
        <time>2018-08-05T07:49:39.000Z</time>
      </trkpt>
      <trkpt lat="46.04581" lon="4.57383">
        <ele>387</ele>
        <time>2018-08-05T07:49:40.000Z</time>
      </trkpt>
      <trkpt lat="46.04579" lon="4.57381">
        <ele>387</ele>
        <time>2018-08-05T07:49:41.000Z</time>
      </trkpt>
      <trkpt lat="46.04576" lon="4.5738">
        <ele>387</ele>
        <time>2018-08-05T07:49:42.000Z</time>
      </trkpt>
      <trkpt lat="46.04574" lon="4.57378">
        <ele>387</ele>
        <time>2018-08-05T07:49:43.000Z</time>
      </trkpt>
      <trkpt lat="46.04572" lon="4.57376">
        <ele>387</ele>
        <time>2018-08-05T07:49:44.000Z</time>
      </trkpt>
      <trkpt lat="46.0457" lon="4.57375">
        <ele>387</ele>
        <time>2018-08-05T07:49:45.000Z</time>
      </trkpt>
      <trkpt lat="46.04568" lon="4.57373">
        <ele>387</ele>
        <time>2018-08-05T07:49:46.000Z</time>
      </trkpt>
      <trkpt lat="46.04566" lon="4.57371">
        <ele>387</ele>
        <time>2018-08-05T07:49:47.000Z</time>
      </trkpt>
      <trkpt lat="46.04564" lon="4.57369">
        <ele>387</ele>
        <time>2018-08-05T07:49:48.000Z</time>
      </trkpt>
      <trkpt lat="46.04561" lon="4.57367">
        <ele>387</ele>
        <time>2018-08-05T07:49:49.000Z</time>
      </trkpt>
      <trkpt lat="46.0456" lon="4.57365">
        <ele>387</ele>
        <time>2018-08-05T07:49:50.000Z</time>
      </trkpt>
      <trkpt lat="46.04558" lon="4.57363">
        <ele>387</ele>
        <time>2018-08-05T07:49:51.000Z</time>
      </trkpt>
      <trkpt lat="46.04556" lon="4.5736">
        <ele>387</ele>
        <time>2018-08-05T07:49:52.000Z</time>
      </trkpt>
      <trkpt lat="46.04554" lon="4.57358">
        <ele>387</ele>
        <time>2018-08-05T07:49:53.000Z</time>
      </trkpt>
      <trkpt lat="46.04552" lon="4.57356">
        <ele>388</ele>
        <time>2018-08-05T07:49:54.000Z</time>
      </trkpt>
      <trkpt lat="46.0455" lon="4.57354">
        <ele>388</ele>
        <time>2018-08-05T07:49:55.000Z</time>
      </trkpt>
      <trkpt lat="46.04549" lon="4.57351">
        <ele>388</ele>
        <time>2018-08-05T07:49:56.000Z</time>
      </trkpt>
      <trkpt lat="46.04547" lon="4.57349">
        <ele>388</ele>
        <time>2018-08-05T07:49:57.000Z</time>
      </trkpt>
      <trkpt lat="46.04545" lon="4.57347">
        <ele>388</ele>
        <time>2018-08-05T07:49:58.000Z</time>
      </trkpt>
      <trkpt lat="46.04543" lon="4.57345">
        <ele>388</ele>
        <time>2018-08-05T07:49:59.000Z</time>
      </trkpt>
      <trkpt lat="46.04542" lon="4.57343">
        <ele>389</ele>
        <time>2018-08-05T07:50:00.000Z</time>
      </trkpt>
      <trkpt lat="46.0454" lon="4.57341">
        <ele>389</ele>
        <time>2018-08-05T07:50:01.000Z</time>
      </trkpt>
      <trkpt lat="46.04538" lon="4.57338">
        <ele>389</ele>
        <time>2018-08-05T07:50:02.000Z</time>
      </trkpt>
      <trkpt lat="46.04536" lon="4.57336">
        <ele>389</ele>
        <time>2018-08-05T07:50:03.000Z</time>
      </trkpt>
      <trkpt lat="46.04535" lon="4.57335">
        <ele>390</ele>
        <time>2018-08-05T07:50:04.000Z</time>
      </trkpt>
      <trkpt lat="46.04533" lon="4.57333">
        <ele>389</ele>
        <time>2018-08-05T07:50:05.000Z</time>
      </trkpt>
      <trkpt lat="46.04532" lon="4.57331">
        <ele>390</ele>
        <time>2018-08-05T07:50:06.000Z</time>
      </trkpt>
      <trkpt lat="46.0453" lon="4.5733">
        <ele>390</ele>
        <time>2018-08-05T07:50:07.000Z</time>
      </trkpt>
      <trkpt lat="46.04528" lon="4.57328">
        <ele>390</ele>
        <time>2018-08-05T07:50:08.000Z</time>
      </trkpt>
      <trkpt lat="46.04526" lon="4.57326">
        <ele>391</ele>
        <time>2018-08-05T07:50:09.000Z</time>
      </trkpt>
      <trkpt lat="46.04524" lon="4.57324">
        <ele>391</ele>
        <time>2018-08-05T07:50:10.000Z</time>
      </trkpt>
      <trkpt lat="46.04523" lon="4.57322">
        <ele>391</ele>
        <time>2018-08-05T07:50:11.000Z</time>
      </trkpt>
      <trkpt lat="46.04521" lon="4.5732">
        <ele>391</ele>
        <time>2018-08-05T07:50:12.000Z</time>
      </trkpt>
      <trkpt lat="46.04519" lon="4.57319">
        <ele>391</ele>
        <time>2018-08-05T07:50:13.000Z</time>
      </trkpt>
      <trkpt lat="46.04517" lon="4.57317">
        <ele>391</ele>
        <time>2018-08-05T07:50:14.000Z</time>
      </trkpt>
      <trkpt lat="46.04516" lon="4.57316">
        <ele>392</ele>
        <time>2018-08-05T07:50:15.000Z</time>
      </trkpt>
      <trkpt lat="46.04514" lon="4.57314">
        <ele>392</ele>
        <time>2018-08-05T07:50:16.000Z</time>
      </trkpt>
      <trkpt lat="46.04512" lon="4.57313">
        <ele>392</ele>
        <time>2018-08-05T07:50:17.000Z</time>
      </trkpt>
      <trkpt lat="46.0451" lon="4.57312">
        <ele>392</ele>
        <time>2018-08-05T07:50:18.000Z</time>
      </trkpt>
      <trkpt lat="46.04508" lon="4.5731">
        <ele>392</ele>
        <time>2018-08-05T07:50:19.000Z</time>
      </trkpt>
      <trkpt lat="46.04506" lon="4.57308">
        <ele>392</ele>
        <time>2018-08-05T07:50:20.000Z</time>
      </trkpt>
      <trkpt lat="46.04504" lon="4.57307">
        <ele>392</ele>
        <time>2018-08-05T07:50:21.000Z</time>
      </trkpt>
      <trkpt lat="46.04502" lon="4.57305">
        <ele>392</ele>
        <time>2018-08-05T07:50:22.000Z</time>
      </trkpt>
      <trkpt lat="46.045" lon="4.57304">
        <ele>392</ele>
        <time>2018-08-05T07:50:23.000Z</time>
      </trkpt>
      <trkpt lat="46.04498" lon="4.57302">
        <ele>401</ele>
        <time>2018-08-05T07:50:24.000Z</time>
      </trkpt>
      <trkpt lat="46.04497" lon="4.573">
        <ele>401</ele>
        <time>2018-08-05T07:50:25.000Z</time>
      </trkpt>
      <trkpt lat="46.04495" lon="4.57299">
        <ele>402</ele>
        <time>2018-08-05T07:50:26.000Z</time>
      </trkpt>
      <trkpt lat="46.04493" lon="4.57298">
        <ele>402</ele>
        <time>2018-08-05T07:50:27.000Z</time>
      </trkpt>
      <trkpt lat="46.04491" lon="4.57297">
        <ele>402</ele>
        <time>2018-08-05T07:50:28.000Z</time>
      </trkpt>
      <trkpt lat="46.04489" lon="4.57295">
        <ele>402</ele>
        <time>2018-08-05T07:50:29.000Z</time>
      </trkpt>
      <trkpt lat="46.04487" lon="4.57294">
        <ele>402</ele>
        <time>2018-08-05T07:50:30.000Z</time>
      </trkpt>
      <trkpt lat="46.04485" lon="4.57293">
        <ele>402</ele>
        <time>2018-08-05T07:50:31.000Z</time>
      </trkpt>
      <trkpt lat="46.04483" lon="4.57291">
        <ele>402</ele>
        <time>2018-08-05T07:50:32.000Z</time>
      </trkpt>
      <trkpt lat="46.04481" lon="4.5729">
        <ele>403</ele>
        <time>2018-08-05T07:50:33.000Z</time>
      </trkpt>
      <trkpt lat="46.0448" lon="4.57289">
        <ele>403</ele>
        <time>2018-08-05T07:50:34.000Z</time>
      </trkpt>
      <trkpt lat="46.04478" lon="4.57287">
        <ele>403</ele>
        <time>2018-08-05T07:50:35.000Z</time>
      </trkpt>
      <trkpt lat="46.04477" lon="4.57286">
        <ele>403</ele>
        <time>2018-08-05T07:50:36.000Z</time>
      </trkpt>
      <trkpt lat="46.04476" lon="4.57284">
        <ele>403</ele>
        <time>2018-08-05T07:50:37.000Z</time>
      </trkpt>
      <trkpt lat="46.04474" lon="4.57282">
        <ele>403</ele>
        <time>2018-08-05T07:50:38.000Z</time>
      </trkpt>
      <trkpt lat="46.04472" lon="4.5728">
        <ele>403</ele>
        <time>2018-08-05T07:50:39.000Z</time>
      </trkpt>
      <trkpt lat="46.04471" lon="4.57278">
        <ele>403</ele>
        <time>2018-08-05T07:50:40.000Z</time>
      </trkpt>
      <trkpt lat="46.04469" lon="4.57275">
        <ele>404</ele>
        <time>2018-08-05T07:50:41.000Z</time>
      </trkpt>
      <trkpt lat="46.04469" lon="4.57271">
        <ele>404</ele>
        <time>2018-08-05T07:50:42.000Z</time>
      </trkpt>
      <trkpt lat="46.04468" lon="4.57268">
        <ele>404</ele>
        <time>2018-08-05T07:50:43.000Z</time>
      </trkpt>
      <trkpt lat="46.04468" lon="4.57265">
        <ele>404</ele>
        <time>2018-08-05T07:50:44.000Z</time>
      </trkpt>
      <trkpt lat="46.04469" lon="4.57261">
        <ele>403</ele>
        <time>2018-08-05T07:50:45.000Z</time>
      </trkpt>
      <trkpt lat="46.04471" lon="4.57258">
        <ele>403</ele>
        <time>2018-08-05T07:50:46.000Z</time>
      </trkpt>
      <trkpt lat="46.04473" lon="4.57255">
        <ele>403</ele>
        <time>2018-08-05T07:50:47.000Z</time>
      </trkpt>
      <trkpt lat="46.04475" lon="4.57253">
        <ele>403</ele>
        <time>2018-08-05T07:50:48.000Z</time>
      </trkpt>
      <trkpt lat="46.04478" lon="4.57252">
        <ele>402</ele>
        <time>2018-08-05T07:50:49.000Z</time>
      </trkpt>
      <trkpt lat="46.04481" lon="4.57251">
        <ele>402</ele>
        <time>2018-08-05T07:50:50.000Z</time>
      </trkpt>
      <trkpt lat="46.04484" lon="4.5725">
        <ele>401</ele>
        <time>2018-08-05T07:50:51.000Z</time>
      </trkpt>
      <trkpt lat="46.04487" lon="4.5725">
        <ele>404</ele>
        <time>2018-08-05T07:50:52.000Z</time>
      </trkpt>
      <trkpt lat="46.0449" lon="4.57249">
        <ele>403</ele>
        <time>2018-08-05T07:50:53.000Z</time>
      </trkpt>
      <trkpt lat="46.04493" lon="4.57249">
        <ele>401</ele>
        <time>2018-08-05T07:50:54.000Z</time>
      </trkpt>
      <trkpt lat="46.04496" lon="4.57249">
        <ele>400</ele>
        <time>2018-08-05T07:50:55.000Z</time>
      </trkpt>
      <trkpt lat="46.04499" lon="4.57248">
        <ele>399</ele>
        <time>2018-08-05T07:50:56.000Z</time>
      </trkpt>
      <trkpt lat="46.04502" lon="4.57248">
        <ele>398</ele>
        <time>2018-08-05T07:50:57.000Z</time>
      </trkpt>
      <trkpt lat="46.04505" lon="4.57248">
        <ele>397</ele>
        <time>2018-08-05T07:50:58.000Z</time>
      </trkpt>
      <trkpt lat="46.04508" lon="4.57247">
        <ele>397</ele>
        <time>2018-08-05T07:50:59.000Z</time>
      </trkpt>
      <trkpt lat="46.04511" lon="4.57247">
        <ele>397</ele>
        <time>2018-08-05T07:51:00.000Z</time>
      </trkpt>
      <trkpt lat="46.04513" lon="4.57247">
        <ele>396</ele>
        <time>2018-08-05T07:51:01.000Z</time>
      </trkpt>
      <trkpt lat="46.04516" lon="4.57246">
        <ele>396</ele>
        <time>2018-08-05T07:51:02.000Z</time>
      </trkpt>
      <trkpt lat="46.04519" lon="4.57246">
        <ele>396</ele>
        <time>2018-08-05T07:51:03.000Z</time>
      </trkpt>
      <trkpt lat="46.04521" lon="4.57246">
        <ele>396</ele>
        <time>2018-08-05T07:51:04.000Z</time>
      </trkpt>
      <trkpt lat="46.04523" lon="4.57246">
        <ele>395</ele>
        <time>2018-08-05T07:51:05.000Z</time>
      </trkpt>
      <trkpt lat="46.04526" lon="4.57245">
        <ele>395</ele>
        <time>2018-08-05T07:51:06.000Z</time>
      </trkpt>
      <trkpt lat="46.04529" lon="4.57244">
        <ele>395</ele>
        <time>2018-08-05T07:51:07.000Z</time>
      </trkpt>
      <trkpt lat="46.04531" lon="4.57244">
        <ele>394</ele>
        <time>2018-08-05T07:51:08.000Z</time>
      </trkpt>
      <trkpt lat="46.04534" lon="4.57243">
        <ele>394</ele>
        <time>2018-08-05T07:51:09.000Z</time>
      </trkpt>
      <trkpt lat="46.04536" lon="4.57241">
        <ele>394</ele>
        <time>2018-08-05T07:51:10.000Z</time>
      </trkpt>
      <trkpt lat="46.04538" lon="4.57239">
        <ele>394</ele>
        <time>2018-08-05T07:51:11.000Z</time>
      </trkpt>
      <trkpt lat="46.0454" lon="4.57237">
        <ele>393</ele>
        <time>2018-08-05T07:51:12.000Z</time>
      </trkpt>
      <trkpt lat="46.04541" lon="4.57234">
        <ele>393</ele>
        <time>2018-08-05T07:51:13.000Z</time>
      </trkpt>
      <trkpt lat="46.04541" lon="4.57231">
        <ele>393</ele>
        <time>2018-08-05T07:51:14.000Z</time>
      </trkpt>
      <trkpt lat="46.04543" lon="4.57228">
        <ele>393</ele>
        <time>2018-08-05T07:51:15.000Z</time>
      </trkpt>
      <trkpt lat="46.04544" lon="4.57225">
        <ele>393</ele>
        <time>2018-08-05T07:51:16.000Z</time>
      </trkpt>
      <trkpt lat="46.04545" lon="4.57221">
        <ele>393</ele>
        <time>2018-08-05T07:51:17.000Z</time>
      </trkpt>
      <trkpt lat="46.04545" lon="4.57218">
        <ele>393</ele>
        <time>2018-08-05T07:51:18.000Z</time>
      </trkpt>
      <trkpt lat="46.04545" lon="4.57214">
        <ele>394</ele>
        <time>2018-08-05T07:51:19.000Z</time>
      </trkpt>
      <trkpt lat="46.04545" lon="4.5721">
        <ele>394</ele>
        <time>2018-08-05T07:51:20.000Z</time>
      </trkpt>
      <trkpt lat="46.04545" lon="4.57207">
        <ele>394</ele>
        <time>2018-08-05T07:51:21.000Z</time>
      </trkpt>
      <trkpt lat="46.04545" lon="4.57203">
        <ele>394</ele>
        <time>2018-08-05T07:51:22.000Z</time>
      </trkpt>
      <trkpt lat="46.04545" lon="4.57199">
        <ele>394</ele>
        <time>2018-08-05T07:51:23.000Z</time>
      </trkpt>
      <trkpt lat="46.04545" lon="4.57195">
        <ele>394</ele>
        <time>2018-08-05T07:51:24.000Z</time>
      </trkpt>
      <trkpt lat="46.04545" lon="4.57192">
        <ele>394</ele>
        <time>2018-08-05T07:51:25.000Z</time>
      </trkpt>
      <trkpt lat="46.04545" lon="4.57188">
        <ele>394</ele>
        <time>2018-08-05T07:51:26.000Z</time>
      </trkpt>
      <trkpt lat="46.04545" lon="4.57185">
        <ele>394</ele>
        <time>2018-08-05T07:51:27.000Z</time>
      </trkpt>
      <trkpt lat="46.04545" lon="4.57182">
        <ele>395</ele>
        <time>2018-08-05T07:51:28.000Z</time>
      </trkpt>
      <trkpt lat="46.04545" lon="4.57178">
        <ele>395</ele>
        <time>2018-08-05T07:51:29.000Z</time>
      </trkpt>
      <trkpt lat="46.04544" lon="4.57175">
        <ele>395</ele>
        <time>2018-08-05T07:51:30.000Z</time>
      </trkpt>
      <trkpt lat="46.04544" lon="4.57171">
        <ele>395</ele>
        <time>2018-08-05T07:51:31.000Z</time>
      </trkpt>
      <trkpt lat="46.04544" lon="4.57167">
        <ele>395</ele>
        <time>2018-08-05T07:51:32.000Z</time>
      </trkpt>
      <trkpt lat="46.04543" lon="4.57164">
        <ele>398</ele>
        <time>2018-08-05T07:51:33.000Z</time>
      </trkpt>
      <trkpt lat="46.04543" lon="4.57161">
        <ele>398</ele>
        <time>2018-08-05T07:51:34.000Z</time>
      </trkpt>
      <trkpt lat="46.04542" lon="4.57158">
        <ele>398</ele>
        <time>2018-08-05T07:51:35.000Z</time>
      </trkpt>
      <trkpt lat="46.04542" lon="4.57154">
        <ele>398</ele>
        <time>2018-08-05T07:51:36.000Z</time>
      </trkpt>
      <trkpt lat="46.04541" lon="4.57151">
        <ele>398</ele>
        <time>2018-08-05T07:51:37.000Z</time>
      </trkpt>
      <trkpt lat="46.0454" lon="4.57148">
        <ele>398</ele>
        <time>2018-08-05T07:51:38.000Z</time>
      </trkpt>
      <trkpt lat="46.0454" lon="4.57145">
        <ele>398</ele>
        <time>2018-08-05T07:51:39.000Z</time>
      </trkpt>
      <trkpt lat="46.0454" lon="4.57143">
        <ele>399</ele>
        <time>2018-08-05T07:51:40.000Z</time>
      </trkpt>
      <trkpt lat="46.04539" lon="4.5714">
        <ele>399</ele>
        <time>2018-08-05T07:51:41.000Z</time>
      </trkpt>
      <trkpt lat="46.04538" lon="4.57137">
        <ele>399</ele>
        <time>2018-08-05T07:51:42.000Z</time>
      </trkpt>
      <trkpt lat="46.04538" lon="4.57134">
        <ele>399</ele>
        <time>2018-08-05T07:51:43.000Z</time>
      </trkpt>
      <trkpt lat="46.04537" lon="4.57131">
        <ele>399</ele>
        <time>2018-08-05T07:51:44.000Z</time>
      </trkpt>
      <trkpt lat="46.04536" lon="4.57128">
        <ele>399</ele>
        <time>2018-08-05T07:51:45.000Z</time>
      </trkpt>
      <trkpt lat="46.04535" lon="4.57125">
        <ele>399</ele>
        <time>2018-08-05T07:51:46.000Z</time>
      </trkpt>
      <trkpt lat="46.04534" lon="4.57123">
        <ele>400</ele>
        <time>2018-08-05T07:51:47.000Z</time>
      </trkpt>
      <trkpt lat="46.04534" lon="4.5712">
        <ele>400</ele>
        <time>2018-08-05T07:51:48.000Z</time>
      </trkpt>
      <trkpt lat="46.04533" lon="4.57117">
        <ele>400</ele>
        <time>2018-08-05T07:51:49.000Z</time>
      </trkpt>
      <trkpt lat="46.04533" lon="4.57115">
        <ele>400</ele>
        <time>2018-08-05T07:51:50.000Z</time>
      </trkpt>
      <trkpt lat="46.04532" lon="4.57112">
        <ele>400</ele>
        <time>2018-08-05T07:51:51.000Z</time>
      </trkpt>
      <trkpt lat="46.04531" lon="4.5711">
        <ele>401</ele>
        <time>2018-08-05T07:51:52.000Z</time>
      </trkpt>
      <trkpt lat="46.0453" lon="4.57108">
        <ele>401</ele>
        <time>2018-08-05T07:51:53.000Z</time>
      </trkpt>
      <trkpt lat="46.04529" lon="4.57105">
        <ele>402</ele>
        <time>2018-08-05T07:51:54.000Z</time>
      </trkpt>
      <trkpt lat="46.04528" lon="4.57102">
        <ele>402</ele>
        <time>2018-08-05T07:51:55.000Z</time>
      </trkpt>
      <trkpt lat="46.04528" lon="4.571">
        <ele>402</ele>
        <time>2018-08-05T07:51:56.000Z</time>
      </trkpt>
      <trkpt lat="46.04527" lon="4.57097">
        <ele>403</ele>
        <time>2018-08-05T07:51:57.000Z</time>
      </trkpt>
      <trkpt lat="46.04526" lon="4.57094">
        <ele>403</ele>
        <time>2018-08-05T07:51:58.000Z</time>
      </trkpt>
      <trkpt lat="46.04525" lon="4.57092">
        <ele>404</ele>
        <time>2018-08-05T07:51:59.000Z</time>
      </trkpt>
      <trkpt lat="46.04524" lon="4.57089">
        <ele>404</ele>
        <time>2018-08-05T07:52:00.000Z</time>
      </trkpt>
      <trkpt lat="46.04523" lon="4.57087">
        <ele>405</ele>
        <time>2018-08-05T07:52:01.000Z</time>
      </trkpt>
      <trkpt lat="46.04522" lon="4.57084">
        <ele>405</ele>
        <time>2018-08-05T07:52:02.000Z</time>
      </trkpt>
      <trkpt lat="46.04522" lon="4.57082">
        <ele>404</ele>
        <time>2018-08-05T07:52:03.000Z</time>
      </trkpt>
      <trkpt lat="46.04521" lon="4.57079">
        <ele>404</ele>
        <time>2018-08-05T07:52:04.000Z</time>
      </trkpt>
      <trkpt lat="46.0452" lon="4.57076">
        <ele>404</ele>
        <time>2018-08-05T07:52:05.000Z</time>
      </trkpt>
      <trkpt lat="46.04518" lon="4.57073">
        <ele>404</ele>
        <time>2018-08-05T07:52:06.000Z</time>
      </trkpt>
      <trkpt lat="46.04518" lon="4.5707">
        <ele>404</ele>
        <time>2018-08-05T07:52:07.000Z</time>
      </trkpt>
      <trkpt lat="46.04517" lon="4.57067">
        <ele>404</ele>
        <time>2018-08-05T07:52:08.000Z</time>
      </trkpt>
      <trkpt lat="46.04515" lon="4.57065">
        <ele>403</ele>
        <time>2018-08-05T07:52:09.000Z</time>
      </trkpt>
      <trkpt lat="46.04514" lon="4.57062">
        <ele>403</ele>
        <time>2018-08-05T07:52:10.000Z</time>
      </trkpt>
      <trkpt lat="46.04512" lon="4.57059">
        <ele>403</ele>
        <time>2018-08-05T07:52:11.000Z</time>
      </trkpt>
      <trkpt lat="46.04511" lon="4.57056">
        <ele>402</ele>
        <time>2018-08-05T07:52:12.000Z</time>
      </trkpt>
      <trkpt lat="46.0451" lon="4.57053">
        <ele>402</ele>
        <time>2018-08-05T07:52:13.000Z</time>
      </trkpt>
      <trkpt lat="46.04509" lon="4.5705">
        <ele>402</ele>
        <time>2018-08-05T07:52:14.000Z</time>
      </trkpt>
      <trkpt lat="46.04508" lon="4.57047">
        <ele>401</ele>
        <time>2018-08-05T07:52:15.000Z</time>
      </trkpt>
      <trkpt lat="46.04507" lon="4.57044">
        <ele>401</ele>
        <time>2018-08-05T07:52:16.000Z</time>
      </trkpt>
      <trkpt lat="46.04506" lon="4.57041">
        <ele>401</ele>
        <time>2018-08-05T07:52:17.000Z</time>
      </trkpt>
      <trkpt lat="46.04505" lon="4.57039">
        <ele>401</ele>
        <time>2018-08-05T07:52:18.000Z</time>
      </trkpt>
      <trkpt lat="46.04504" lon="4.57036">
        <ele>401</ele>
        <time>2018-08-05T07:52:19.000Z</time>
      </trkpt>
      <trkpt lat="46.04503" lon="4.57033">
        <ele>401</ele>
        <time>2018-08-05T07:52:20.000Z</time>
      </trkpt>
      <trkpt lat="46.04502" lon="4.57031">
        <ele>401</ele>
        <time>2018-08-05T07:52:21.000Z</time>
      </trkpt>
      <trkpt lat="46.04501" lon="4.57028">
        <ele>401</ele>
        <time>2018-08-05T07:52:22.000Z</time>
      </trkpt>
      <trkpt lat="46.045" lon="4.57026">
        <ele>402</ele>
        <time>2018-08-05T07:52:23.000Z</time>
      </trkpt>
      <trkpt lat="46.04499" lon="4.57023">
        <ele>418</ele>
        <time>2018-08-05T07:52:24.000Z</time>
      </trkpt>
      <trkpt lat="46.04498" lon="4.5702">
        <ele>417</ele>
        <time>2018-08-05T07:52:25.000Z</time>
      </trkpt>
      <trkpt lat="46.04497" lon="4.57018">
        <ele>416</ele>
        <time>2018-08-05T07:52:26.000Z</time>
      </trkpt>
      <trkpt lat="46.04496" lon="4.57015">
        <ele>416</ele>
        <time>2018-08-05T07:52:27.000Z</time>
      </trkpt>
      <trkpt lat="46.04495" lon="4.57012">
        <ele>415</ele>
        <time>2018-08-05T07:52:28.000Z</time>
      </trkpt>
      <trkpt lat="46.04494" lon="4.57009">
        <ele>414</ele>
        <time>2018-08-05T07:52:29.000Z</time>
      </trkpt>
      <trkpt lat="46.04493" lon="4.57006">
        <ele>414</ele>
        <time>2018-08-05T07:52:30.000Z</time>
      </trkpt>
      <trkpt lat="46.04491" lon="4.57004">
        <ele>414</ele>
        <time>2018-08-05T07:52:31.000Z</time>
      </trkpt>
      <trkpt lat="46.0449" lon="4.57001">
        <ele>414</ele>
        <time>2018-08-05T07:52:32.000Z</time>
      </trkpt>
      <trkpt lat="46.04489" lon="4.56998">
        <ele>411</ele>
        <time>2018-08-05T07:52:33.000Z</time>
      </trkpt>
      <trkpt lat="46.04488" lon="4.56996">
        <ele>411</ele>
        <time>2018-08-05T07:52:34.000Z</time>
      </trkpt>
      <trkpt lat="46.04486" lon="4.56993">
        <ele>411</ele>
        <time>2018-08-05T07:52:35.000Z</time>
      </trkpt>
      <trkpt lat="46.04485" lon="4.56991">
        <ele>411</ele>
        <time>2018-08-05T07:52:36.000Z</time>
      </trkpt>
      <trkpt lat="46.04483" lon="4.56989">
        <ele>411</ele>
        <time>2018-08-05T07:52:37.000Z</time>
      </trkpt>
      <trkpt lat="46.04482" lon="4.56987">
        <ele>412</ele>
        <time>2018-08-05T07:52:38.000Z</time>
      </trkpt>
      <trkpt lat="46.04481" lon="4.56984">
        <ele>412</ele>
        <time>2018-08-05T07:52:39.000Z</time>
      </trkpt>
      <trkpt lat="46.04479" lon="4.56982">
        <ele>412</ele>
        <time>2018-08-05T07:52:40.000Z</time>
      </trkpt>
      <trkpt lat="46.04478" lon="4.5698">
        <ele>412</ele>
        <time>2018-08-05T07:52:41.000Z</time>
      </trkpt>
      <trkpt lat="46.04476" lon="4.56979">
        <ele>412</ele>
        <time>2018-08-05T07:52:42.000Z</time>
      </trkpt>
      <trkpt lat="46.04475" lon="4.56977">
        <ele>412</ele>
        <time>2018-08-05T07:52:43.000Z</time>
      </trkpt>
      <trkpt lat="46.04473" lon="4.56975">
        <ele>412</ele>
        <time>2018-08-05T07:52:44.000Z</time>
      </trkpt>
      <trkpt lat="46.04471" lon="4.56974">
        <ele>412</ele>
        <time>2018-08-05T07:52:45.000Z</time>
      </trkpt>
      <trkpt lat="46.0447" lon="4.56972">
        <ele>412</ele>
        <time>2018-08-05T07:52:46.000Z</time>
      </trkpt>
      <trkpt lat="46.04468" lon="4.5697">
        <ele>413</ele>
        <time>2018-08-05T07:52:47.000Z</time>
      </trkpt>
      <trkpt lat="46.04465" lon="4.56969">
        <ele>413</ele>
        <time>2018-08-05T07:52:48.000Z</time>
      </trkpt>
      <trkpt lat="46.04463" lon="4.56967">
        <ele>413</ele>
        <time>2018-08-05T07:52:49.000Z</time>
      </trkpt>
      <trkpt lat="46.04461" lon="4.56966">
        <ele>413</ele>
        <time>2018-08-05T07:52:50.000Z</time>
      </trkpt>
      <trkpt lat="46.04459" lon="4.56964">
        <ele>413</ele>
        <time>2018-08-05T07:52:51.000Z</time>
      </trkpt>
      <trkpt lat="46.04457" lon="4.56963">
        <ele>413</ele>
        <time>2018-08-05T07:52:52.000Z</time>
      </trkpt>
      <trkpt lat="46.04455" lon="4.56961">
        <ele>414</ele>
        <time>2018-08-05T07:52:53.000Z</time>
      </trkpt>
      <trkpt lat="46.04452" lon="4.5696">
        <ele>414</ele>
        <time>2018-08-05T07:52:54.000Z</time>
      </trkpt>
      <trkpt lat="46.0445" lon="4.56959">
        <ele>414</ele>
        <time>2018-08-05T07:52:55.000Z</time>
      </trkpt>
      <trkpt lat="46.04448" lon="4.56958">
        <ele>414</ele>
        <time>2018-08-05T07:52:56.000Z</time>
      </trkpt>
      <trkpt lat="46.04445" lon="4.56956">
        <ele>414</ele>
        <time>2018-08-05T07:52:57.000Z</time>
      </trkpt>
      <trkpt lat="46.04443" lon="4.56955">
        <ele>415</ele>
        <time>2018-08-05T07:52:58.000Z</time>
      </trkpt>
      <trkpt lat="46.0444" lon="4.56954">
        <ele>415</ele>
        <time>2018-08-05T07:52:59.000Z</time>
      </trkpt>
      <trkpt lat="46.04438" lon="4.56953">
        <ele>415</ele>
        <time>2018-08-05T07:53:00.000Z</time>
      </trkpt>
      <trkpt lat="46.04436" lon="4.56951">
        <ele>415</ele>
        <time>2018-08-05T07:53:01.000Z</time>
      </trkpt>
      <trkpt lat="46.04434" lon="4.56951">
        <ele>415</ele>
        <time>2018-08-05T07:53:02.000Z</time>
      </trkpt>
      <trkpt lat="46.04432" lon="4.5695">
        <ele>415</ele>
        <time>2018-08-05T07:53:03.000Z</time>
      </trkpt>
      <trkpt lat="46.0443" lon="4.56949">
        <ele>415</ele>
        <time>2018-08-05T07:53:04.000Z</time>
      </trkpt>
      <trkpt lat="46.04428" lon="4.56948">
        <ele>415</ele>
        <time>2018-08-05T07:53:05.000Z</time>
      </trkpt>
      <trkpt lat="46.04426" lon="4.56947">
        <ele>415</ele>
        <time>2018-08-05T07:53:06.000Z</time>
      </trkpt>
      <trkpt lat="46.04424" lon="4.56947">
        <ele>416</ele>
        <time>2018-08-05T07:53:07.000Z</time>
      </trkpt>
      <trkpt lat="46.04422" lon="4.56946">
        <ele>416</ele>
        <time>2018-08-05T07:53:08.000Z</time>
      </trkpt>
      <trkpt lat="46.0442" lon="4.56944">
        <ele>416</ele>
        <time>2018-08-05T07:53:09.000Z</time>
      </trkpt>
      <trkpt lat="46.04418" lon="4.56943">
        <ele>416</ele>
        <time>2018-08-05T07:53:10.000Z</time>
      </trkpt>
      <trkpt lat="46.04417" lon="4.56942">
        <ele>416</ele>
        <time>2018-08-05T07:53:11.000Z</time>
      </trkpt>
      <trkpt lat="46.04415" lon="4.56941">
        <ele>427</ele>
        <time>2018-08-05T07:53:12.000Z</time>
      </trkpt>
      <trkpt lat="46.04413" lon="4.5694">
        <ele>427</ele>
        <time>2018-08-05T07:53:13.000Z</time>
      </trkpt>
      <trkpt lat="46.04412" lon="4.5694">
        <ele>427</ele>
        <time>2018-08-05T07:53:14.000Z</time>
      </trkpt>
      <trkpt lat="46.0441" lon="4.56939">
        <ele>427</ele>
        <time>2018-08-05T07:53:15.000Z</time>
      </trkpt>
      <trkpt lat="46.04408" lon="4.56938">
        <ele>427</ele>
        <time>2018-08-05T07:53:16.000Z</time>
      </trkpt>
      <trkpt lat="46.04406" lon="4.56937">
        <ele>427</ele>
        <time>2018-08-05T07:53:17.000Z</time>
      </trkpt>
      <trkpt lat="46.04404" lon="4.56936">
        <ele>427</ele>
        <time>2018-08-05T07:53:18.000Z</time>
      </trkpt>
      <trkpt lat="46.04402" lon="4.56935">
        <ele>427</ele>
        <time>2018-08-05T07:53:19.000Z</time>
      </trkpt>
      <trkpt lat="46.04401" lon="4.56934">
        <ele>428</ele>
        <time>2018-08-05T07:53:20.000Z</time>
      </trkpt>
      <trkpt lat="46.04399" lon="4.56933">
        <ele>428</ele>
        <time>2018-08-05T07:53:21.000Z</time>
      </trkpt>
      <trkpt lat="46.04397" lon="4.56932">
        <ele>428</ele>
        <time>2018-08-05T07:53:22.000Z</time>
      </trkpt>
      <trkpt lat="46.04394" lon="4.56931">
        <ele>428</ele>
        <time>2018-08-05T07:53:23.000Z</time>
      </trkpt>
      <trkpt lat="46.04393" lon="4.56929">
        <ele>429</ele>
        <time>2018-08-05T07:53:24.000Z</time>
      </trkpt>
      <trkpt lat="46.0439" lon="4.56928">
        <ele>429</ele>
        <time>2018-08-05T07:53:25.000Z</time>
      </trkpt>
      <trkpt lat="46.04389" lon="4.56927">
        <ele>429</ele>
        <time>2018-08-05T07:53:26.000Z</time>
      </trkpt>
      <trkpt lat="46.04387" lon="4.56925">
        <ele>430</ele>
        <time>2018-08-05T07:53:27.000Z</time>
      </trkpt>
      <trkpt lat="46.04385" lon="4.56924">
        <ele>430</ele>
        <time>2018-08-05T07:53:28.000Z</time>
      </trkpt>
      <trkpt lat="46.04383" lon="4.56923">
        <ele>430</ele>
        <time>2018-08-05T07:53:29.000Z</time>
      </trkpt>
      <trkpt lat="46.04381" lon="4.56922">
        <ele>431</ele>
        <time>2018-08-05T07:53:30.000Z</time>
      </trkpt>
      <trkpt lat="46.04379" lon="4.56921">
        <ele>431</ele>
        <time>2018-08-05T07:53:31.000Z</time>
      </trkpt>
      <trkpt lat="46.04377" lon="4.5692">
        <ele>432</ele>
        <time>2018-08-05T07:53:32.000Z</time>
      </trkpt>
      <trkpt lat="46.04375" lon="4.56918">
        <ele>432</ele>
        <time>2018-08-05T07:53:33.000Z</time>
      </trkpt>
      <trkpt lat="46.04373" lon="4.56917">
        <ele>432</ele>
        <time>2018-08-05T07:53:34.000Z</time>
      </trkpt>
      <trkpt lat="46.04371" lon="4.56915">
        <ele>421</ele>
        <time>2018-08-05T07:53:35.000Z</time>
      </trkpt>
      <trkpt lat="46.04369" lon="4.56914">
        <ele>421</ele>
        <time>2018-08-05T07:53:36.000Z</time>
      </trkpt>
      <trkpt lat="46.04367" lon="4.56912">
        <ele>422</ele>
        <time>2018-08-05T07:53:37.000Z</time>
      </trkpt>
      <trkpt lat="46.04365" lon="4.56911">
        <ele>422</ele>
        <time>2018-08-05T07:53:38.000Z</time>
      </trkpt>
      <trkpt lat="46.04363" lon="4.56909">
        <ele>422</ele>
        <time>2018-08-05T07:53:39.000Z</time>
      </trkpt>
      <trkpt lat="46.04362" lon="4.56908">
        <ele>423</ele>
        <time>2018-08-05T07:53:40.000Z</time>
      </trkpt>
      <trkpt lat="46.0436" lon="4.56907">
        <ele>423</ele>
        <time>2018-08-05T07:53:41.000Z</time>
      </trkpt>
      <trkpt lat="46.04358" lon="4.56905">
        <ele>423</ele>
        <time>2018-08-05T07:53:42.000Z</time>
      </trkpt>
      <trkpt lat="46.04356" lon="4.56904">
        <ele>424</ele>
        <time>2018-08-05T07:53:43.000Z</time>
      </trkpt>
      <trkpt lat="46.04355" lon="4.56903">
        <ele>424</ele>
        <time>2018-08-05T07:53:44.000Z</time>
      </trkpt>
      <trkpt lat="46.04353" lon="4.56902">
        <ele>424</ele>
        <time>2018-08-05T07:53:45.000Z</time>
      </trkpt>
      <trkpt lat="46.04351" lon="4.56901">
        <ele>424</ele>
        <time>2018-08-05T07:53:46.000Z</time>
      </trkpt>
      <trkpt lat="46.04349" lon="4.569">
        <ele>425</ele>
        <time>2018-08-05T07:53:47.000Z</time>
      </trkpt>
      <trkpt lat="46.04348" lon="4.56898">
        <ele>425</ele>
        <time>2018-08-05T07:53:48.000Z</time>
      </trkpt>
      <trkpt lat="46.04346" lon="4.56897">
        <ele>425</ele>
        <time>2018-08-05T07:53:49.000Z</time>
      </trkpt>
      <trkpt lat="46.04344" lon="4.56895">
        <ele>424</ele>
        <time>2018-08-05T07:53:50.000Z</time>
      </trkpt>
      <trkpt lat="46.04343" lon="4.56895">
        <ele>424</ele>
        <time>2018-08-05T07:53:51.000Z</time>
      </trkpt>
      <trkpt lat="46.04341" lon="4.56894">
        <ele>424</ele>
        <time>2018-08-05T07:53:52.000Z</time>
      </trkpt>
      <trkpt lat="46.04339" lon="4.56892">
        <ele>424</ele>
        <time>2018-08-05T07:53:53.000Z</time>
      </trkpt>
      <trkpt lat="46.04338" lon="4.56891">
        <ele>424</ele>
        <time>2018-08-05T07:53:54.000Z</time>
      </trkpt>
      <trkpt lat="46.04336" lon="4.56889">
        <ele>423</ele>
        <time>2018-08-05T07:53:55.000Z</time>
      </trkpt>
      <trkpt lat="46.04335" lon="4.56887">
        <ele>423</ele>
        <time>2018-08-05T07:53:56.000Z</time>
      </trkpt>
      <trkpt lat="46.04333" lon="4.56886">
        <ele>435</ele>
        <time>2018-08-05T07:53:57.000Z</time>
      </trkpt>
      <trkpt lat="46.04331" lon="4.56884">
        <ele>435</ele>
        <time>2018-08-05T07:53:58.000Z</time>
      </trkpt>
      <trkpt lat="46.04329" lon="4.56883">
        <ele>435</ele>
        <time>2018-08-05T07:53:59.000Z</time>
      </trkpt>
      <trkpt lat="46.04327" lon="4.56881">
        <ele>434</ele>
        <time>2018-08-05T07:54:00.000Z</time>
      </trkpt>
      <trkpt lat="46.04326" lon="4.5688">
        <ele>434</ele>
        <time>2018-08-05T07:54:01.000Z</time>
      </trkpt>
      <trkpt lat="46.04324" lon="4.56878">
        <ele>434</ele>
        <time>2018-08-05T07:54:02.000Z</time>
      </trkpt>
      <trkpt lat="46.04322" lon="4.56877">
        <ele>434</ele>
        <time>2018-08-05T07:54:03.000Z</time>
      </trkpt>
      <trkpt lat="46.0432" lon="4.56875">
        <ele>434</ele>
        <time>2018-08-05T07:54:04.000Z</time>
      </trkpt>
      <trkpt lat="46.04319" lon="4.56874">
        <ele>434</ele>
        <time>2018-08-05T07:54:05.000Z</time>
      </trkpt>
      <trkpt lat="46.04317" lon="4.56872">
        <ele>434</ele>
        <time>2018-08-05T07:54:06.000Z</time>
      </trkpt>
      <trkpt lat="46.04315" lon="4.5687">
        <ele>433</ele>
        <time>2018-08-05T07:54:07.000Z</time>
      </trkpt>
      <trkpt lat="46.04314" lon="4.56869">
        <ele>433</ele>
        <time>2018-08-05T07:54:08.000Z</time>
      </trkpt>
      <trkpt lat="46.04312" lon="4.56867">
        <ele>433</ele>
        <time>2018-08-05T07:54:09.000Z</time>
      </trkpt>
      <trkpt lat="46.0431" lon="4.56866">
        <ele>433</ele>
        <time>2018-08-05T07:54:10.000Z</time>
      </trkpt>
      <trkpt lat="46.04309" lon="4.56864">
        <ele>433</ele>
        <time>2018-08-05T07:54:11.000Z</time>
      </trkpt>
      <trkpt lat="46.04307" lon="4.56862">
        <ele>433</ele>
        <time>2018-08-05T07:54:12.000Z</time>
      </trkpt>
      <trkpt lat="46.04305" lon="4.56861">
        <ele>433</ele>
        <time>2018-08-05T07:54:13.000Z</time>
      </trkpt>
      <trkpt lat="46.04304" lon="4.5686">
        <ele>433</ele>
        <time>2018-08-05T07:54:14.000Z</time>
      </trkpt>
      <trkpt lat="46.04302" lon="4.56858">
        <ele>433</ele>
        <time>2018-08-05T07:54:15.000Z</time>
      </trkpt>
      <trkpt lat="46.04301" lon="4.56857">
        <ele>433</ele>
        <time>2018-08-05T07:54:16.000Z</time>
      </trkpt>
      <trkpt lat="46.04299" lon="4.56855">
        <ele>433</ele>
        <time>2018-08-05T07:54:17.000Z</time>
      </trkpt>
      <trkpt lat="46.04297" lon="4.56854">
        <ele>433</ele>
        <time>2018-08-05T07:54:18.000Z</time>
      </trkpt>
      <trkpt lat="46.04295" lon="4.56853">
        <ele>434</ele>
        <time>2018-08-05T07:54:19.000Z</time>
      </trkpt>
      <trkpt lat="46.04293" lon="4.56851">
        <ele>434</ele>
        <time>2018-08-05T07:54:20.000Z</time>
      </trkpt>
      <trkpt lat="46.04292" lon="4.5685">
        <ele>434</ele>
        <time>2018-08-05T07:54:21.000Z</time>
      </trkpt>
      <trkpt lat="46.0429" lon="4.56848">
        <ele>434</ele>
        <time>2018-08-05T07:54:22.000Z</time>
      </trkpt>
      <trkpt lat="46.04288" lon="4.56847">
        <ele>434</ele>
        <time>2018-08-05T07:54:23.000Z</time>
      </trkpt>
      <trkpt lat="46.04286" lon="4.56845">
        <ele>434</ele>
        <time>2018-08-05T07:54:24.000Z</time>
      </trkpt>
      <trkpt lat="46.04284" lon="4.56844">
        <ele>435</ele>
        <time>2018-08-05T07:54:25.000Z</time>
      </trkpt>
      <trkpt lat="46.04283" lon="4.56843">
        <ele>435</ele>
        <time>2018-08-05T07:54:26.000Z</time>
      </trkpt>
      <trkpt lat="46.04281" lon="4.56842">
        <ele>435</ele>
        <time>2018-08-05T07:54:27.000Z</time>
      </trkpt>
      <trkpt lat="46.04279" lon="4.5684">
        <ele>435</ele>
        <time>2018-08-05T07:54:28.000Z</time>
      </trkpt>
      <trkpt lat="46.04277" lon="4.56839">
        <ele>435</ele>
        <time>2018-08-05T07:54:29.000Z</time>
      </trkpt>
      <trkpt lat="46.04275" lon="4.56838">
        <ele>435</ele>
        <time>2018-08-05T07:54:30.000Z</time>
      </trkpt>
      <trkpt lat="46.04273" lon="4.56837">
        <ele>436</ele>
        <time>2018-08-05T07:54:31.000Z</time>
      </trkpt>
      <trkpt lat="46.04271" lon="4.56836">
        <ele>436</ele>
        <time>2018-08-05T07:54:32.000Z</time>
      </trkpt>
      <trkpt lat="46.04268" lon="4.56835">
        <ele>436</ele>
        <time>2018-08-05T07:54:33.000Z</time>
      </trkpt>
      <trkpt lat="46.04266" lon="4.56834">
        <ele>436</ele>
        <time>2018-08-05T07:54:34.000Z</time>
      </trkpt>
      <trkpt lat="46.04264" lon="4.56833">
        <ele>428</ele>
        <time>2018-08-05T07:54:35.000Z</time>
      </trkpt>
      <trkpt lat="46.04262" lon="4.56832">
        <ele>429</ele>
        <time>2018-08-05T07:54:36.000Z</time>
      </trkpt>
      <trkpt lat="46.0426" lon="4.56832">
        <ele>430</ele>
        <time>2018-08-05T07:54:37.000Z</time>
      </trkpt>
      <trkpt lat="46.04258" lon="4.56831">
        <ele>431</ele>
        <time>2018-08-05T07:54:38.000Z</time>
      </trkpt>
      <trkpt lat="46.04256" lon="4.56831">
        <ele>432</ele>
        <time>2018-08-05T07:54:39.000Z</time>
      </trkpt>
      <trkpt lat="46.04254" lon="4.56832">
        <ele>434</ele>
        <time>2018-08-05T07:54:40.000Z</time>
      </trkpt>
      <trkpt lat="46.04251" lon="4.56833">
        <ele>436</ele>
        <time>2018-08-05T07:54:41.000Z</time>
      </trkpt>
      <trkpt lat="46.04249" lon="4.56833">
        <ele>437</ele>
        <time>2018-08-05T07:54:42.000Z</time>
      </trkpt>
      <trkpt lat="46.04247" lon="4.56834">
        <ele>439</ele>
        <time>2018-08-05T07:54:43.000Z</time>
      </trkpt>
      <trkpt lat="46.04245" lon="4.56835">
        <ele>440</ele>
        <time>2018-08-05T07:54:44.000Z</time>
      </trkpt>
      <trkpt lat="46.04243" lon="4.56837">
        <ele>441</ele>
        <time>2018-08-05T07:54:45.000Z</time>
      </trkpt>
      <trkpt lat="46.04241" lon="4.56839">
        <ele>441</ele>
        <time>2018-08-05T07:54:46.000Z</time>
      </trkpt>
      <trkpt lat="46.04239" lon="4.5684">
        <ele>442</ele>
        <time>2018-08-05T07:54:47.000Z</time>
      </trkpt>
      <trkpt lat="46.04237" lon="4.56842">
        <ele>443</ele>
        <time>2018-08-05T07:54:48.000Z</time>
      </trkpt>
      <trkpt lat="46.04235" lon="4.56845">
        <ele>444</ele>
        <time>2018-08-05T07:54:49.000Z</time>
      </trkpt>
      <trkpt lat="46.04232" lon="4.56847">
        <ele>445</ele>
        <time>2018-08-05T07:54:50.000Z</time>
      </trkpt>
      <trkpt lat="46.0423" lon="4.56849">
        <ele>445</ele>
        <time>2018-08-05T07:54:51.000Z</time>
      </trkpt>
      <trkpt lat="46.04228" lon="4.56851">
        <ele>446</ele>
        <time>2018-08-05T07:54:52.000Z</time>
      </trkpt>
      <trkpt lat="46.04226" lon="4.56853">
        <ele>446</ele>
        <time>2018-08-05T07:54:53.000Z</time>
      </trkpt>
      <trkpt lat="46.04223" lon="4.56855">
        <ele>447</ele>
        <time>2018-08-05T07:54:54.000Z</time>
      </trkpt>
      <trkpt lat="46.04221" lon="4.56857">
        <ele>447</ele>
        <time>2018-08-05T07:54:55.000Z</time>
      </trkpt>
      <trkpt lat="46.04219" lon="4.56859">
        <ele>448</ele>
        <time>2018-08-05T07:54:56.000Z</time>
      </trkpt>
      <trkpt lat="46.04216" lon="4.56861">
        <ele>448</ele>
        <time>2018-08-05T07:54:57.000Z</time>
      </trkpt>
      <trkpt lat="46.04213" lon="4.56862">
        <ele>449</ele>
        <time>2018-08-05T07:54:58.000Z</time>
      </trkpt>
      <trkpt lat="46.0421" lon="4.56864">
        <ele>449</ele>
        <time>2018-08-05T07:54:59.000Z</time>
      </trkpt>
      <trkpt lat="46.04206" lon="4.56865">
        <ele>449</ele>
        <time>2018-08-05T07:55:00.000Z</time>
      </trkpt>
      <trkpt lat="46.04203" lon="4.56866">
        <ele>449</ele>
        <time>2018-08-05T07:55:01.000Z</time>
      </trkpt>
      <trkpt lat="46.04199" lon="4.56867">
        <ele>450</ele>
        <time>2018-08-05T07:55:02.000Z</time>
      </trkpt>
      <trkpt lat="46.04196" lon="4.56867">
        <ele>450</ele>
        <time>2018-08-05T07:55:03.000Z</time>
      </trkpt>
      <trkpt lat="46.04193" lon="4.56866">
        <ele>450</ele>
        <time>2018-08-05T07:55:04.000Z</time>
      </trkpt>
      <trkpt lat="46.0419" lon="4.56866">
        <ele>450</ele>
        <time>2018-08-05T07:55:05.000Z</time>
      </trkpt>
      <trkpt lat="46.04187" lon="4.56865">
        <ele>450</ele>
        <time>2018-08-05T07:55:06.000Z</time>
      </trkpt>
      <trkpt lat="46.04184" lon="4.56864">
        <ele>450</ele>
        <time>2018-08-05T07:55:07.000Z</time>
      </trkpt>
      <trkpt lat="46.04181" lon="4.56863">
        <ele>450</ele>
        <time>2018-08-05T07:55:08.000Z</time>
      </trkpt>
      <trkpt lat="46.04179" lon="4.56861">
        <ele>450</ele>
        <time>2018-08-05T07:55:09.000Z</time>
      </trkpt>
      <trkpt lat="46.04176" lon="4.5686">
        <ele>450</ele>
        <time>2018-08-05T07:55:10.000Z</time>
      </trkpt>
      <trkpt lat="46.04174" lon="4.56858">
        <ele>450</ele>
        <time>2018-08-05T07:55:11.000Z</time>
      </trkpt>
      <trkpt lat="46.04172" lon="4.56856">
        <ele>449</ele>
        <time>2018-08-05T07:55:12.000Z</time>
      </trkpt>
      <trkpt lat="46.04169" lon="4.56854">
        <ele>449</ele>
        <time>2018-08-05T07:55:13.000Z</time>
      </trkpt>
      <trkpt lat="46.04168" lon="4.56852">
        <ele>449</ele>
        <time>2018-08-05T07:55:14.000Z</time>
      </trkpt>
      <trkpt lat="46.04167" lon="4.5685">
        <ele>455</ele>
        <time>2018-08-05T07:55:15.000Z</time>
      </trkpt>
      <trkpt lat="46.04165" lon="4.56847">
        <ele>454</ele>
        <time>2018-08-05T07:55:16.000Z</time>
      </trkpt>
      <trkpt lat="46.04163" lon="4.56845">
        <ele>453</ele>
        <time>2018-08-05T07:55:17.000Z</time>
      </trkpt>
      <trkpt lat="46.04161" lon="4.56842">
        <ele>452</ele>
        <time>2018-08-05T07:55:18.000Z</time>
      </trkpt>
      <trkpt lat="46.04159" lon="4.56839">
        <ele>452</ele>
        <time>2018-08-05T07:55:19.000Z</time>
      </trkpt>
      <trkpt lat="46.04158" lon="4.56837">
        <ele>452</ele>
        <time>2018-08-05T07:55:20.000Z</time>
      </trkpt>
      <trkpt lat="46.04156" lon="4.56834">
        <ele>453</ele>
        <time>2018-08-05T07:55:21.000Z</time>
      </trkpt>
      <trkpt lat="46.04155" lon="4.56831">
        <ele>448</ele>
        <time>2018-08-05T07:55:22.000Z</time>
      </trkpt>
      <trkpt lat="46.04154" lon="4.56827">
        <ele>448</ele>
        <time>2018-08-05T07:55:23.000Z</time>
      </trkpt>
      <trkpt lat="46.04153" lon="4.56824">
        <ele>448</ele>
        <time>2018-08-05T07:55:24.000Z</time>
      </trkpt>
      <trkpt lat="46.04152" lon="4.56821">
        <ele>448</ele>
        <time>2018-08-05T07:55:25.000Z</time>
      </trkpt>
      <trkpt lat="46.04151" lon="4.56818">
        <ele>448</ele>
        <time>2018-08-05T07:55:26.000Z</time>
      </trkpt>
      <trkpt lat="46.0415" lon="4.56814">
        <ele>448</ele>
        <time>2018-08-05T07:55:27.000Z</time>
      </trkpt>
      <trkpt lat="46.04149" lon="4.56811">
        <ele>448</ele>
        <time>2018-08-05T07:55:28.000Z</time>
      </trkpt>
      <trkpt lat="46.04149" lon="4.56807">
        <ele>448</ele>
        <time>2018-08-05T07:55:29.000Z</time>
      </trkpt>
      <trkpt lat="46.04149" lon="4.56804">
        <ele>447</ele>
        <time>2018-08-05T07:55:30.000Z</time>
      </trkpt>
      <trkpt lat="46.04148" lon="4.56801">
        <ele>447</ele>
        <time>2018-08-05T07:55:31.000Z</time>
      </trkpt>
      <trkpt lat="46.04148" lon="4.56799">
        <ele>447</ele>
        <time>2018-08-05T07:55:32.000Z</time>
      </trkpt>
      <trkpt lat="46.04148" lon="4.56797">
        <ele>447</ele>
        <time>2018-08-05T07:55:33.000Z</time>
      </trkpt>
      <trkpt lat="46.04147" lon="4.56794">
        <ele>447</ele>
        <time>2018-08-05T07:55:34.000Z</time>
      </trkpt>
      <trkpt lat="46.04147" lon="4.56791">
        <ele>447</ele>
        <time>2018-08-05T07:55:35.000Z</time>
      </trkpt>
      <trkpt lat="46.04146" lon="4.56789">
        <ele>446</ele>
        <time>2018-08-05T07:55:36.000Z</time>
      </trkpt>
      <trkpt lat="46.04146" lon="4.56787">
        <ele>446</ele>
        <time>2018-08-05T07:55:37.000Z</time>
      </trkpt>
      <trkpt lat="46.04145" lon="4.56785">
        <ele>446</ele>
        <time>2018-08-05T07:55:38.000Z</time>
      </trkpt>
      <trkpt lat="46.04144" lon="4.56782">
        <ele>446</ele>
        <time>2018-08-05T07:55:39.000Z</time>
      </trkpt>
      <trkpt lat="46.04144" lon="4.56781">
        <ele>446</ele>
        <time>2018-08-05T07:55:40.000Z</time>
      </trkpt>
      <trkpt lat="46.04143" lon="4.56779">
        <ele>446</ele>
        <time>2018-08-05T07:55:41.000Z</time>
      </trkpt>
      <trkpt lat="46.04143" lon="4.56778">
        <ele>446</ele>
        <time>2018-08-05T07:55:42.000Z</time>
      </trkpt>
      <trkpt lat="46.04141" lon="4.56776">
        <ele>445</ele>
        <time>2018-08-05T07:55:43.000Z</time>
      </trkpt>
      <trkpt lat="46.04139" lon="4.56775">
        <ele>446</ele>
        <time>2018-08-05T07:55:44.000Z</time>
      </trkpt>
      <trkpt lat="46.04138" lon="4.56774">
        <ele>446</ele>
        <time>2018-08-05T07:55:45.000Z</time>
      </trkpt>
      <trkpt lat="46.04135" lon="4.56772">
        <ele>446</ele>
        <time>2018-08-05T07:55:46.000Z</time>
      </trkpt>
      <trkpt lat="46.04133" lon="4.56771">
        <ele>446</ele>
        <time>2018-08-05T07:55:47.000Z</time>
      </trkpt>
      <trkpt lat="46.04131" lon="4.5677">
        <ele>446</ele>
        <time>2018-08-05T07:55:48.000Z</time>
      </trkpt>
      <trkpt lat="46.04129" lon="4.5677">
        <ele>446</ele>
        <time>2018-08-05T07:55:49.000Z</time>
      </trkpt>
      <trkpt lat="46.04127" lon="4.56769">
        <ele>446</ele>
        <time>2018-08-05T07:55:50.000Z</time>
      </trkpt>
      <trkpt lat="46.04124" lon="4.56768">
        <ele>446</ele>
        <time>2018-08-05T07:55:51.000Z</time>
      </trkpt>
      <trkpt lat="46.04122" lon="4.56768">
        <ele>447</ele>
        <time>2018-08-05T07:55:52.000Z</time>
      </trkpt>
      <trkpt lat="46.0412" lon="4.56767">
        <ele>447</ele>
        <time>2018-08-05T07:55:53.000Z</time>
      </trkpt>
      <trkpt lat="46.04117" lon="4.56766">
        <ele>447</ele>
        <time>2018-08-05T07:55:54.000Z</time>
      </trkpt>
      <trkpt lat="46.04115" lon="4.56766">
        <ele>447</ele>
        <time>2018-08-05T07:55:55.000Z</time>
      </trkpt>
      <trkpt lat="46.04112" lon="4.56765">
        <ele>447</ele>
        <time>2018-08-05T07:55:56.000Z</time>
      </trkpt>
      <trkpt lat="46.0411" lon="4.56765">
        <ele>447</ele>
        <time>2018-08-05T07:55:57.000Z</time>
      </trkpt>
      <trkpt lat="46.04107" lon="4.56764">
        <ele>447</ele>
        <time>2018-08-05T07:55:58.000Z</time>
      </trkpt>
      <trkpt lat="46.04105" lon="4.56764">
        <ele>447</ele>
        <time>2018-08-05T07:55:59.000Z</time>
      </trkpt>
      <trkpt lat="46.04102" lon="4.56764">
        <ele>447</ele>
        <time>2018-08-05T07:56:00.000Z</time>
      </trkpt>
      <trkpt lat="46.041" lon="4.56764">
        <ele>447</ele>
        <time>2018-08-05T07:56:01.000Z</time>
      </trkpt>
      <trkpt lat="46.04098" lon="4.56764">
        <ele>447</ele>
        <time>2018-08-05T07:56:02.000Z</time>
      </trkpt>
      <trkpt lat="46.04096" lon="4.56764">
        <ele>447</ele>
        <time>2018-08-05T07:56:03.000Z</time>
      </trkpt>
      <trkpt lat="46.04094" lon="4.56765">
        <ele>447</ele>
        <time>2018-08-05T07:56:04.000Z</time>
      </trkpt>
      <trkpt lat="46.04091" lon="4.56766">
        <ele>448</ele>
        <time>2018-08-05T07:56:05.000Z</time>
      </trkpt>
      <trkpt lat="46.04089" lon="4.56766">
        <ele>448</ele>
        <time>2018-08-05T07:56:06.000Z</time>
      </trkpt>
      <trkpt lat="46.04087" lon="4.56767">
        <ele>448</ele>
        <time>2018-08-05T07:56:07.000Z</time>
      </trkpt>
      <trkpt lat="46.04084" lon="4.56768">
        <ele>448</ele>
        <time>2018-08-05T07:56:08.000Z</time>
      </trkpt>
      <trkpt lat="46.04082" lon="4.56768">
        <ele>450</ele>
        <time>2018-08-05T07:56:09.000Z</time>
      </trkpt>
      <trkpt lat="46.0408" lon="4.56768">
        <ele>450</ele>
        <time>2018-08-05T07:56:10.000Z</time>
      </trkpt>
      <trkpt lat="46.04078" lon="4.56769">
        <ele>450</ele>
        <time>2018-08-05T07:56:11.000Z</time>
      </trkpt>
      <trkpt lat="46.04075" lon="4.56769">
        <ele>450</ele>
        <time>2018-08-05T07:56:12.000Z</time>
      </trkpt>
      <trkpt lat="46.04073" lon="4.5677">
        <ele>450</ele>
        <time>2018-08-05T07:56:13.000Z</time>
      </trkpt>
      <trkpt lat="46.04071" lon="4.56771">
        <ele>451</ele>
        <time>2018-08-05T07:56:14.000Z</time>
      </trkpt>
      <trkpt lat="46.04069" lon="4.56772">
        <ele>451</ele>
        <time>2018-08-05T07:56:15.000Z</time>
      </trkpt>
      <trkpt lat="46.04067" lon="4.56774">
        <ele>451</ele>
        <time>2018-08-05T07:56:16.000Z</time>
      </trkpt>
      <trkpt lat="46.04064" lon="4.56775">
        <ele>452</ele>
        <time>2018-08-05T07:56:17.000Z</time>
      </trkpt>
      <trkpt lat="46.04062" lon="4.56777">
        <ele>452</ele>
        <time>2018-08-05T07:56:18.000Z</time>
      </trkpt>
      <trkpt lat="46.04061" lon="4.56779">
        <ele>452</ele>
        <time>2018-08-05T07:56:19.000Z</time>
      </trkpt>
      <trkpt lat="46.04059" lon="4.56781">
        <ele>452</ele>
        <time>2018-08-05T07:56:20.000Z</time>
      </trkpt>
      <trkpt lat="46.04057" lon="4.56784">
        <ele>453</ele>
        <time>2018-08-05T07:56:21.000Z</time>
      </trkpt>
      <trkpt lat="46.04056" lon="4.56786">
        <ele>453</ele>
        <time>2018-08-05T07:56:22.000Z</time>
      </trkpt>
      <trkpt lat="46.04054" lon="4.56788">
        <ele>453</ele>
        <time>2018-08-05T07:56:23.000Z</time>
      </trkpt>
      <trkpt lat="46.04052" lon="4.5679">
        <ele>453</ele>
        <time>2018-08-05T07:56:24.000Z</time>
      </trkpt>
      <trkpt lat="46.04051" lon="4.56792">
        <ele>453</ele>
        <time>2018-08-05T07:56:25.000Z</time>
      </trkpt>
      <trkpt lat="46.04049" lon="4.56794">
        <ele>454</ele>
        <time>2018-08-05T07:56:26.000Z</time>
      </trkpt>
      <trkpt lat="46.04047" lon="4.56796">
        <ele>454</ele>
        <time>2018-08-05T07:56:27.000Z</time>
      </trkpt>
      <trkpt lat="46.04046" lon="4.56798">
        <ele>454</ele>
        <time>2018-08-05T07:56:28.000Z</time>
      </trkpt>
      <trkpt lat="46.04044" lon="4.56801">
        <ele>454</ele>
        <time>2018-08-05T07:56:29.000Z</time>
      </trkpt>
      <trkpt lat="46.04043" lon="4.56803">
        <ele>455</ele>
        <time>2018-08-05T07:56:30.000Z</time>
      </trkpt>
      <trkpt lat="46.04041" lon="4.56805">
        <ele>455</ele>
        <time>2018-08-05T07:56:31.000Z</time>
      </trkpt>
      <trkpt lat="46.04039" lon="4.56806">
        <ele>455</ele>
        <time>2018-08-05T07:56:32.000Z</time>
      </trkpt>
      <trkpt lat="46.04038" lon="4.56808">
        <ele>455</ele>
        <time>2018-08-05T07:56:33.000Z</time>
      </trkpt>
      <trkpt lat="46.04036" lon="4.5681">
        <ele>455</ele>
        <time>2018-08-05T07:56:34.000Z</time>
      </trkpt>
      <trkpt lat="46.04034" lon="4.56812">
        <ele>455</ele>
        <time>2018-08-05T07:56:35.000Z</time>
      </trkpt>
      <trkpt lat="46.04032" lon="4.56814">
        <ele>456</ele>
        <time>2018-08-05T07:56:36.000Z</time>
      </trkpt>
      <trkpt lat="46.04031" lon="4.56815">
        <ele>456</ele>
        <time>2018-08-05T07:56:37.000Z</time>
      </trkpt>
      <trkpt lat="46.04029" lon="4.56817">
        <ele>456</ele>
        <time>2018-08-05T07:56:38.000Z</time>
      </trkpt>
      <trkpt lat="46.04027" lon="4.56819">
        <ele>456</ele>
        <time>2018-08-05T07:56:39.000Z</time>
      </trkpt>
      <trkpt lat="46.04025" lon="4.56821">
        <ele>456</ele>
        <time>2018-08-05T07:56:40.000Z</time>
      </trkpt>
      <trkpt lat="46.04023" lon="4.56822">
        <ele>457</ele>
        <time>2018-08-05T07:56:41.000Z</time>
      </trkpt>
      <trkpt lat="46.04022" lon="4.56824">
        <ele>457</ele>
        <time>2018-08-05T07:56:42.000Z</time>
      </trkpt>
      <trkpt lat="46.0402" lon="4.56826">
        <ele>457</ele>
        <time>2018-08-05T07:56:43.000Z</time>
      </trkpt>
      <trkpt lat="46.04018" lon="4.56827">
        <ele>458</ele>
        <time>2018-08-05T07:56:44.000Z</time>
      </trkpt>
      <trkpt lat="46.04016" lon="4.56829">
        <ele>458</ele>
        <time>2018-08-05T07:56:45.000Z</time>
      </trkpt>
      <trkpt lat="46.04014" lon="4.5683">
        <ele>458</ele>
        <time>2018-08-05T07:56:46.000Z</time>
      </trkpt>
      <trkpt lat="46.04012" lon="4.56831">
        <ele>459</ele>
        <time>2018-08-05T07:56:47.000Z</time>
      </trkpt>
      <trkpt lat="46.0401" lon="4.56832">
        <ele>459</ele>
        <time>2018-08-05T07:56:48.000Z</time>
      </trkpt>
      <trkpt lat="46.04008" lon="4.56834">
        <ele>465</ele>
        <time>2018-08-05T07:56:49.000Z</time>
      </trkpt>
      <trkpt lat="46.04006" lon="4.56835">
        <ele>464</ele>
        <time>2018-08-05T07:56:50.000Z</time>
      </trkpt>
      <trkpt lat="46.04004" lon="4.56836">
        <ele>464</ele>
        <time>2018-08-05T07:56:51.000Z</time>
      </trkpt>
      <trkpt lat="46.04002" lon="4.56837">
        <ele>463</ele>
        <time>2018-08-05T07:56:52.000Z</time>
      </trkpt>
      <trkpt lat="46.04" lon="4.56837">
        <ele>463</ele>
        <time>2018-08-05T07:56:53.000Z</time>
      </trkpt>
      <trkpt lat="46.03997" lon="4.56838">
        <ele>464</ele>
        <time>2018-08-05T07:56:54.000Z</time>
      </trkpt>
      <trkpt lat="46.03995" lon="4.56838">
        <ele>464</ele>
        <time>2018-08-05T07:56:55.000Z</time>
      </trkpt>
      <trkpt lat="46.03993" lon="4.56839">
        <ele>465</ele>
        <time>2018-08-05T07:56:56.000Z</time>
      </trkpt>
      <trkpt lat="46.0399" lon="4.5684">
        <ele>466</ele>
        <time>2018-08-05T07:56:57.000Z</time>
      </trkpt>
      <trkpt lat="46.03988" lon="4.56841">
        <ele>466</ele>
        <time>2018-08-05T07:56:58.000Z</time>
      </trkpt>
      <trkpt lat="46.03985" lon="4.56841">
        <ele>467</ele>
        <time>2018-08-05T07:56:59.000Z</time>
      </trkpt>
      <trkpt lat="46.03983" lon="4.56842">
        <ele>467</ele>
        <time>2018-08-05T07:57:00.000Z</time>
      </trkpt>
      <trkpt lat="46.03981" lon="4.56842">
        <ele>467</ele>
        <time>2018-08-05T07:57:01.000Z</time>
      </trkpt>
      <trkpt lat="46.03979" lon="4.56843">
        <ele>468</ele>
        <time>2018-08-05T07:57:02.000Z</time>
      </trkpt>
      <trkpt lat="46.03977" lon="4.56844">
        <ele>468</ele>
        <time>2018-08-05T07:57:03.000Z</time>
      </trkpt>
      <trkpt lat="46.03975" lon="4.56845">
        <ele>468</ele>
        <time>2018-08-05T07:57:04.000Z</time>
      </trkpt>
      <trkpt lat="46.03973" lon="4.56846">
        <ele>468</ele>
        <time>2018-08-05T07:57:05.000Z</time>
      </trkpt>
      <trkpt lat="46.03971" lon="4.56846">
        <ele>468</ele>
        <time>2018-08-05T07:57:06.000Z</time>
      </trkpt>
      <trkpt lat="46.03969" lon="4.56847">
        <ele>469</ele>
        <time>2018-08-05T07:57:07.000Z</time>
      </trkpt>
      <trkpt lat="46.03967" lon="4.56847">
        <ele>469</ele>
        <time>2018-08-05T07:57:08.000Z</time>
      </trkpt>
      <trkpt lat="46.03965" lon="4.56848">
        <ele>469</ele>
        <time>2018-08-05T07:57:09.000Z</time>
      </trkpt>
      <trkpt lat="46.03963" lon="4.56848">
        <ele>469</ele>
        <time>2018-08-05T07:57:10.000Z</time>
      </trkpt>
      <trkpt lat="46.03961" lon="4.56849">
        <ele>469</ele>
        <time>2018-08-05T07:57:11.000Z</time>
      </trkpt>
      <trkpt lat="46.03959" lon="4.56849">
        <ele>469</ele>
        <time>2018-08-05T07:57:12.000Z</time>
      </trkpt>
      <trkpt lat="46.03957" lon="4.5685">
        <ele>469</ele>
        <time>2018-08-05T07:57:13.000Z</time>
      </trkpt>
      <trkpt lat="46.03955" lon="4.56851">
        <ele>469</ele>
        <time>2018-08-05T07:57:14.000Z</time>
      </trkpt>
      <trkpt lat="46.03953" lon="4.56852">
        <ele>469</ele>
        <time>2018-08-05T07:57:15.000Z</time>
      </trkpt>
      <trkpt lat="46.03951" lon="4.56852">
        <ele>469</ele>
        <time>2018-08-05T07:57:16.000Z</time>
      </trkpt>
      <trkpt lat="46.03948" lon="4.56852">
        <ele>469</ele>
        <time>2018-08-05T07:57:17.000Z</time>
      </trkpt>
      <trkpt lat="46.03946" lon="4.56853">
        <ele>469</ele>
        <time>2018-08-05T07:57:18.000Z</time>
      </trkpt>
      <trkpt lat="46.03944" lon="4.56854">
        <ele>469</ele>
        <time>2018-08-05T07:57:19.000Z</time>
      </trkpt>
      <trkpt lat="46.03942" lon="4.56854">
        <ele>469</ele>
        <time>2018-08-05T07:57:20.000Z</time>
      </trkpt>
      <trkpt lat="46.0394" lon="4.56855">
        <ele>469</ele>
        <time>2018-08-05T07:57:21.000Z</time>
      </trkpt>
      <trkpt lat="46.03938" lon="4.56856">
        <ele>469</ele>
        <time>2018-08-05T07:57:22.000Z</time>
      </trkpt>
      <trkpt lat="46.03935" lon="4.56857">
        <ele>469</ele>
        <time>2018-08-05T07:57:23.000Z</time>
      </trkpt>
      <trkpt lat="46.03933" lon="4.56857">
        <ele>469</ele>
        <time>2018-08-05T07:57:24.000Z</time>
      </trkpt>
      <trkpt lat="46.03931" lon="4.56858">
        <ele>469</ele>
        <time>2018-08-05T07:57:25.000Z</time>
      </trkpt>
      <trkpt lat="46.03929" lon="4.56859">
        <ele>469</ele>
        <time>2018-08-05T07:57:26.000Z</time>
      </trkpt>
      <trkpt lat="46.03926" lon="4.5686">
        <ele>469</ele>
        <time>2018-08-05T07:57:27.000Z</time>
      </trkpt>
      <trkpt lat="46.03924" lon="4.56861">
        <ele>469</ele>
        <time>2018-08-05T07:57:28.000Z</time>
      </trkpt>
      <trkpt lat="46.03922" lon="4.56862">
        <ele>469</ele>
        <time>2018-08-05T07:57:29.000Z</time>
      </trkpt>
      <trkpt lat="46.0392" lon="4.56863">
        <ele>469</ele>
        <time>2018-08-05T07:57:30.000Z</time>
      </trkpt>
      <trkpt lat="46.03919" lon="4.56864">
        <ele>469</ele>
        <time>2018-08-05T07:57:31.000Z</time>
      </trkpt>
      <trkpt lat="46.03917" lon="4.56866">
        <ele>468</ele>
        <time>2018-08-05T07:57:32.000Z</time>
      </trkpt>
      <trkpt lat="46.03915" lon="4.56867">
        <ele>468</ele>
        <time>2018-08-05T07:57:33.000Z</time>
      </trkpt>
      <trkpt lat="46.03913" lon="4.56868">
        <ele>469</ele>
        <time>2018-08-05T07:57:34.000Z</time>
      </trkpt>
      <trkpt lat="46.0391" lon="4.56869">
        <ele>469</ele>
        <time>2018-08-05T07:57:35.000Z</time>
      </trkpt>
      <trkpt lat="46.03909" lon="4.56871">
        <ele>469</ele>
        <time>2018-08-05T07:57:36.000Z</time>
      </trkpt>
      <trkpt lat="46.03907" lon="4.56872">
        <ele>469</ele>
        <time>2018-08-05T07:57:37.000Z</time>
      </trkpt>
      <trkpt lat="46.03905" lon="4.56874">
        <ele>469</ele>
        <time>2018-08-05T07:57:38.000Z</time>
      </trkpt>
      <trkpt lat="46.03903" lon="4.56875">
        <ele>470</ele>
        <time>2018-08-05T07:57:39.000Z</time>
      </trkpt>
      <trkpt lat="46.03901" lon="4.56877">
        <ele>470</ele>
        <time>2018-08-05T07:57:40.000Z</time>
      </trkpt>
      <trkpt lat="46.039" lon="4.56879">
        <ele>470</ele>
        <time>2018-08-05T07:57:41.000Z</time>
      </trkpt>
      <trkpt lat="46.03898" lon="4.5688">
        <ele>470</ele>
        <time>2018-08-05T07:57:42.000Z</time>
      </trkpt>
      <trkpt lat="46.03897" lon="4.56882">
        <ele>471</ele>
        <time>2018-08-05T07:57:43.000Z</time>
      </trkpt>
      <trkpt lat="46.03895" lon="4.56883">
        <ele>471</ele>
        <time>2018-08-05T07:57:44.000Z</time>
      </trkpt>
      <trkpt lat="46.03893" lon="4.56885">
        <ele>471</ele>
        <time>2018-08-05T07:57:45.000Z</time>
      </trkpt>
      <trkpt lat="46.03891" lon="4.56886">
        <ele>471</ele>
        <time>2018-08-05T07:57:46.000Z</time>
      </trkpt>
      <trkpt lat="46.03889" lon="4.56888">
        <ele>471</ele>
        <time>2018-08-05T07:57:47.000Z</time>
      </trkpt>
      <trkpt lat="46.03887" lon="4.56889">
        <ele>471</ele>
        <time>2018-08-05T07:57:48.000Z</time>
      </trkpt>
      <trkpt lat="46.03886" lon="4.56891">
        <ele>471</ele>
        <time>2018-08-05T07:57:49.000Z</time>
      </trkpt>
      <trkpt lat="46.03884" lon="4.56893">
        <ele>471</ele>
        <time>2018-08-05T07:57:50.000Z</time>
      </trkpt>
      <trkpt lat="46.03882" lon="4.56894">
        <ele>471</ele>
        <time>2018-08-05T07:57:51.000Z</time>
      </trkpt>
      <trkpt lat="46.0388" lon="4.56896">
        <ele>472</ele>
        <time>2018-08-05T07:57:52.000Z</time>
      </trkpt>
      <trkpt lat="46.03878" lon="4.56898">
        <ele>472</ele>
        <time>2018-08-05T07:57:53.000Z</time>
      </trkpt>
      <trkpt lat="46.03876" lon="4.569">
        <ele>472</ele>
        <time>2018-08-05T07:57:54.000Z</time>
      </trkpt>
      <trkpt lat="46.03874" lon="4.56902">
        <ele>472</ele>
        <time>2018-08-05T07:57:55.000Z</time>
      </trkpt>
      <trkpt lat="46.03872" lon="4.56904">
        <ele>472</ele>
        <time>2018-08-05T07:57:56.000Z</time>
      </trkpt>
      <trkpt lat="46.0387" lon="4.56906">
        <ele>472</ele>
        <time>2018-08-05T07:57:57.000Z</time>
      </trkpt>
      <trkpt lat="46.03868" lon="4.56908">
        <ele>472</ele>
        <time>2018-08-05T07:57:58.000Z</time>
      </trkpt>
      <trkpt lat="46.03866" lon="4.5691">
        <ele>472</ele>
        <time>2018-08-05T07:57:59.000Z</time>
      </trkpt>
      <trkpt lat="46.03864" lon="4.56912">
        <ele>473</ele>
        <time>2018-08-05T07:58:00.000Z</time>
      </trkpt>
      <trkpt lat="46.03862" lon="4.56914">
        <ele>473</ele>
        <time>2018-08-05T07:58:01.000Z</time>
      </trkpt>
      <trkpt lat="46.0386" lon="4.56915">
        <ele>473</ele>
        <time>2018-08-05T07:58:02.000Z</time>
      </trkpt>
      <trkpt lat="46.03858" lon="4.56916">
        <ele>473</ele>
        <time>2018-08-05T07:58:03.000Z</time>
      </trkpt>
      <trkpt lat="46.03856" lon="4.56918">
        <ele>483</ele>
        <time>2018-08-05T07:58:04.000Z</time>
      </trkpt>
      <trkpt lat="46.03854" lon="4.56919">
        <ele>483</ele>
        <time>2018-08-05T07:58:05.000Z</time>
      </trkpt>
      <trkpt lat="46.03852" lon="4.56921">
        <ele>483</ele>
        <time>2018-08-05T07:58:06.000Z</time>
      </trkpt>
      <trkpt lat="46.0385" lon="4.56923">
        <ele>483</ele>
        <time>2018-08-05T07:58:07.000Z</time>
      </trkpt>
      <trkpt lat="46.03848" lon="4.56925">
        <ele>483</ele>
        <time>2018-08-05T07:58:08.000Z</time>
      </trkpt>
      <trkpt lat="46.03847" lon="4.56927">
        <ele>483</ele>
        <time>2018-08-05T07:58:09.000Z</time>
      </trkpt>
      <trkpt lat="46.03845" lon="4.56928">
        <ele>483</ele>
        <time>2018-08-05T07:58:10.000Z</time>
      </trkpt>
      <trkpt lat="46.03843" lon="4.5693">
        <ele>483</ele>
        <time>2018-08-05T07:58:11.000Z</time>
      </trkpt>
      <trkpt lat="46.0384" lon="4.56931">
        <ele>483</ele>
        <time>2018-08-05T07:58:12.000Z</time>
      </trkpt>
      <trkpt lat="46.03838" lon="4.56933">
        <ele>483</ele>
        <time>2018-08-05T07:58:13.000Z</time>
      </trkpt>
      <trkpt lat="46.03836" lon="4.56934">
        <ele>483</ele>
        <time>2018-08-05T07:58:14.000Z</time>
      </trkpt>
      <trkpt lat="46.03834" lon="4.56935">
        <ele>483</ele>
        <time>2018-08-05T07:58:15.000Z</time>
      </trkpt>
      <trkpt lat="46.03831" lon="4.56936">
        <ele>483</ele>
        <time>2018-08-05T07:58:16.000Z</time>
      </trkpt>
      <trkpt lat="46.03829" lon="4.56937">
        <ele>483</ele>
        <time>2018-08-05T07:58:17.000Z</time>
      </trkpt>
      <trkpt lat="46.03827" lon="4.56938">
        <ele>483</ele>
        <time>2018-08-05T07:58:18.000Z</time>
      </trkpt>
      <trkpt lat="46.03824" lon="4.56939">
        <ele>484</ele>
        <time>2018-08-05T07:58:19.000Z</time>
      </trkpt>
      <trkpt lat="46.03822" lon="4.5694">
        <ele>484</ele>
        <time>2018-08-05T07:58:20.000Z</time>
      </trkpt>
      <trkpt lat="46.0382" lon="4.5694">
        <ele>484</ele>
        <time>2018-08-05T07:58:21.000Z</time>
      </trkpt>
      <trkpt lat="46.03818" lon="4.56941">
        <ele>484</ele>
        <time>2018-08-05T07:58:22.000Z</time>
      </trkpt>
      <trkpt lat="46.03816" lon="4.56942">
        <ele>484</ele>
        <time>2018-08-05T07:58:23.000Z</time>
      </trkpt>
      <trkpt lat="46.03813" lon="4.56943">
        <ele>485</ele>
        <time>2018-08-05T07:58:24.000Z</time>
      </trkpt>
      <trkpt lat="46.03811" lon="4.56943">
        <ele>485</ele>
        <time>2018-08-05T07:58:25.000Z</time>
      </trkpt>
      <trkpt lat="46.03809" lon="4.56944">
        <ele>485</ele>
        <time>2018-08-05T07:58:26.000Z</time>
      </trkpt>
      <trkpt lat="46.03807" lon="4.56944">
        <ele>485</ele>
        <time>2018-08-05T07:58:27.000Z</time>
      </trkpt>
      <trkpt lat="46.03804" lon="4.56944">
        <ele>485</ele>
        <time>2018-08-05T07:58:28.000Z</time>
      </trkpt>
      <trkpt lat="46.03802" lon="4.56944">
        <ele>485</ele>
        <time>2018-08-05T07:58:29.000Z</time>
      </trkpt>
      <trkpt lat="46.03799" lon="4.56944">
        <ele>485</ele>
        <time>2018-08-05T07:58:30.000Z</time>
      </trkpt>
      <trkpt lat="46.03797" lon="4.56944">
        <ele>485</ele>
        <time>2018-08-05T07:58:31.000Z</time>
      </trkpt>
      <trkpt lat="46.03794" lon="4.56944">
        <ele>485</ele>
        <time>2018-08-05T07:58:32.000Z</time>
      </trkpt>
      <trkpt lat="46.03792" lon="4.56945">
        <ele>485</ele>
        <time>2018-08-05T07:58:33.000Z</time>
      </trkpt>
      <trkpt lat="46.0379" lon="4.56945">
        <ele>486</ele>
        <time>2018-08-05T07:58:34.000Z</time>
      </trkpt>
      <trkpt lat="46.03788" lon="4.56945">
        <ele>486</ele>
        <time>2018-08-05T07:58:35.000Z</time>
      </trkpt>
      <trkpt lat="46.03786" lon="4.56946">
        <ele>486</ele>
        <time>2018-08-05T07:58:36.000Z</time>
      </trkpt>
      <trkpt lat="46.03784" lon="4.56947">
        <ele>486</ele>
        <time>2018-08-05T07:58:37.000Z</time>
      </trkpt>
      <trkpt lat="46.03781" lon="4.56947">
        <ele>486</ele>
        <time>2018-08-05T07:58:38.000Z</time>
      </trkpt>
      <trkpt lat="46.03779" lon="4.56947">
        <ele>486</ele>
        <time>2018-08-05T07:58:39.000Z</time>
      </trkpt>
      <trkpt lat="46.03777" lon="4.56948">
        <ele>486</ele>
        <time>2018-08-05T07:58:40.000Z</time>
      </trkpt>
      <trkpt lat="46.03775" lon="4.56949">
        <ele>486</ele>
        <time>2018-08-05T07:58:41.000Z</time>
      </trkpt>
      <trkpt lat="46.03773" lon="4.5695">
        <ele>486</ele>
        <time>2018-08-05T07:58:42.000Z</time>
      </trkpt>
      <trkpt lat="46.03771" lon="4.5695">
        <ele>486</ele>
        <time>2018-08-05T07:58:43.000Z</time>
      </trkpt>
      <trkpt lat="46.03768" lon="4.5695">
        <ele>486</ele>
        <time>2018-08-05T07:58:44.000Z</time>
      </trkpt>
      <trkpt lat="46.03766" lon="4.5695">
        <ele>486</ele>
        <time>2018-08-05T07:58:45.000Z</time>
      </trkpt>
      <trkpt lat="46.03764" lon="4.56951">
        <ele>486</ele>
        <time>2018-08-05T07:58:46.000Z</time>
      </trkpt>
      <trkpt lat="46.03762" lon="4.56951">
        <ele>486</ele>
        <time>2018-08-05T07:58:47.000Z</time>
      </trkpt>
      <trkpt lat="46.03759" lon="4.56952">
        <ele>486</ele>
        <time>2018-08-05T07:58:48.000Z</time>
      </trkpt>
      <trkpt lat="46.03757" lon="4.56952">
        <ele>486</ele>
        <time>2018-08-05T07:58:49.000Z</time>
      </trkpt>
      <trkpt lat="46.03755" lon="4.56953">
        <ele>486</ele>
        <time>2018-08-05T07:58:50.000Z</time>
      </trkpt>
      <trkpt lat="46.03752" lon="4.56953">
        <ele>486</ele>
        <time>2018-08-05T07:58:51.000Z</time>
      </trkpt>
      <trkpt lat="46.0375" lon="4.56954">
        <ele>486</ele>
        <time>2018-08-05T07:58:52.000Z</time>
      </trkpt>
      <trkpt lat="46.03748" lon="4.56954">
        <ele>488</ele>
        <time>2018-08-05T07:58:53.000Z</time>
      </trkpt>
      <trkpt lat="46.03745" lon="4.56955">
        <ele>488</ele>
        <time>2018-08-05T07:58:54.000Z</time>
      </trkpt>
      <trkpt lat="46.03743" lon="4.56955">
        <ele>488</ele>
        <time>2018-08-05T07:58:55.000Z</time>
      </trkpt>
      <trkpt lat="46.03741" lon="4.56955">
        <ele>488</ele>
        <time>2018-08-05T07:58:56.000Z</time>
      </trkpt>
      <trkpt lat="46.03739" lon="4.56956">
        <ele>488</ele>
        <time>2018-08-05T07:58:57.000Z</time>
      </trkpt>
      <trkpt lat="46.03737" lon="4.56957">
        <ele>488</ele>
        <time>2018-08-05T07:58:58.000Z</time>
      </trkpt>
      <trkpt lat="46.03735" lon="4.56957">
        <ele>488</ele>
        <time>2018-08-05T07:58:59.000Z</time>
      </trkpt>
      <trkpt lat="46.03733" lon="4.56957">
        <ele>488</ele>
        <time>2018-08-05T07:59:00.000Z</time>
      </trkpt>
      <trkpt lat="46.0373" lon="4.56958">
        <ele>489</ele>
        <time>2018-08-05T07:59:01.000Z</time>
      </trkpt>
      <trkpt lat="46.03728" lon="4.56959">
        <ele>489</ele>
        <time>2018-08-05T07:59:02.000Z</time>
      </trkpt>
      <trkpt lat="46.03726" lon="4.56959">
        <ele>489</ele>
        <time>2018-08-05T07:59:03.000Z</time>
      </trkpt>
      <trkpt lat="46.03724" lon="4.5696">
        <ele>489</ele>
        <time>2018-08-05T07:59:04.000Z</time>
      </trkpt>
      <trkpt lat="46.03721" lon="4.5696">
        <ele>489</ele>
        <time>2018-08-05T07:59:05.000Z</time>
      </trkpt>
      <trkpt lat="46.03719" lon="4.56961">
        <ele>489</ele>
        <time>2018-08-05T07:59:06.000Z</time>
      </trkpt>
      <trkpt lat="46.03717" lon="4.56961">
        <ele>489</ele>
        <time>2018-08-05T07:59:07.000Z</time>
      </trkpt>
      <trkpt lat="46.03714" lon="4.56962">
        <ele>489</ele>
        <time>2018-08-05T07:59:08.000Z</time>
      </trkpt>
      <trkpt lat="46.03712" lon="4.56962">
        <ele>489</ele>
        <time>2018-08-05T07:59:09.000Z</time>
      </trkpt>
      <trkpt lat="46.0371" lon="4.56962">
        <ele>489</ele>
        <time>2018-08-05T07:59:10.000Z</time>
      </trkpt>
      <trkpt lat="46.03708" lon="4.56963">
        <ele>490</ele>
        <time>2018-08-05T07:59:11.000Z</time>
      </trkpt>
      <trkpt lat="46.03705" lon="4.56964">
        <ele>490</ele>
        <time>2018-08-05T07:59:12.000Z</time>
      </trkpt>
      <trkpt lat="46.03703" lon="4.56964">
        <ele>490</ele>
        <time>2018-08-05T07:59:13.000Z</time>
      </trkpt>
      <trkpt lat="46.037" lon="4.56965">
        <ele>490</ele>
        <time>2018-08-05T07:59:14.000Z</time>
      </trkpt>
      <trkpt lat="46.03699" lon="4.56965">
        <ele>490</ele>
        <time>2018-08-05T07:59:15.000Z</time>
      </trkpt>
      <trkpt lat="46.03697" lon="4.56966">
        <ele>490</ele>
        <time>2018-08-05T07:59:16.000Z</time>
      </trkpt>
      <trkpt lat="46.03695" lon="4.56967">
        <ele>490</ele>
        <time>2018-08-05T07:59:17.000Z</time>
      </trkpt>
      <trkpt lat="46.03693" lon="4.56968">
        <ele>490</ele>
        <time>2018-08-05T07:59:18.000Z</time>
      </trkpt>
      <trkpt lat="46.03691" lon="4.56968">
        <ele>491</ele>
        <time>2018-08-05T07:59:19.000Z</time>
      </trkpt>
      <trkpt lat="46.03688" lon="4.56968">
        <ele>491</ele>
        <time>2018-08-05T07:59:20.000Z</time>
      </trkpt>
      <trkpt lat="46.03686" lon="4.56969">
        <ele>491</ele>
        <time>2018-08-05T07:59:21.000Z</time>
      </trkpt>
      <trkpt lat="46.03684" lon="4.56969">
        <ele>491</ele>
        <time>2018-08-05T07:59:22.000Z</time>
      </trkpt>
      <trkpt lat="46.03682" lon="4.5697">
        <ele>491</ele>
        <time>2018-08-05T07:59:23.000Z</time>
      </trkpt>
      <trkpt lat="46.03679" lon="4.56971">
        <ele>491</ele>
        <time>2018-08-05T07:59:24.000Z</time>
      </trkpt>
      <trkpt lat="46.03677" lon="4.56972">
        <ele>492</ele>
        <time>2018-08-05T07:59:25.000Z</time>
      </trkpt>
      <trkpt lat="46.03675" lon="4.56972">
        <ele>492</ele>
        <time>2018-08-05T07:59:26.000Z</time>
      </trkpt>
      <trkpt lat="46.03673" lon="4.56973">
        <ele>492</ele>
        <time>2018-08-05T07:59:27.000Z</time>
      </trkpt>
      <trkpt lat="46.03671" lon="4.56973">
        <ele>492</ele>
        <time>2018-08-05T07:59:28.000Z</time>
      </trkpt>
      <trkpt lat="46.03669" lon="4.56974">
        <ele>492</ele>
        <time>2018-08-05T07:59:29.000Z</time>
      </trkpt>
      <trkpt lat="46.03666" lon="4.56975">
        <ele>495</ele>
        <time>2018-08-05T07:59:30.000Z</time>
      </trkpt>
      <trkpt lat="46.03664" lon="4.56975">
        <ele>495</ele>
        <time>2018-08-05T07:59:31.000Z</time>
      </trkpt>
      <trkpt lat="46.03662" lon="4.56975">
        <ele>495</ele>
        <time>2018-08-05T07:59:32.000Z</time>
      </trkpt>
      <trkpt lat="46.0366" lon="4.56976">
        <ele>496</ele>
        <time>2018-08-05T07:59:33.000Z</time>
      </trkpt>
      <trkpt lat="46.03658" lon="4.56976">
        <ele>496</ele>
        <time>2018-08-05T07:59:34.000Z</time>
      </trkpt>
      <trkpt lat="46.03656" lon="4.56977">
        <ele>496</ele>
        <time>2018-08-05T07:59:35.000Z</time>
      </trkpt>
      <trkpt lat="46.03654" lon="4.56977">
        <ele>496</ele>
        <time>2018-08-05T07:59:36.000Z</time>
      </trkpt>
      <trkpt lat="46.03651" lon="4.56977">
        <ele>496</ele>
        <time>2018-08-05T07:59:37.000Z</time>
      </trkpt>
      <trkpt lat="46.03649" lon="4.56977">
        <ele>496</ele>
        <time>2018-08-05T07:59:38.000Z</time>
      </trkpt>
      <trkpt lat="46.03647" lon="4.56978">
        <ele>496</ele>
        <time>2018-08-05T07:59:39.000Z</time>
      </trkpt>
      <trkpt lat="46.03645" lon="4.56978">
        <ele>496</ele>
        <time>2018-08-05T07:59:40.000Z</time>
      </trkpt>
      <trkpt lat="46.03643" lon="4.56978">
        <ele>496</ele>
        <time>2018-08-05T07:59:41.000Z</time>
      </trkpt>
      <trkpt lat="46.03641" lon="4.56978">
        <ele>496</ele>
        <time>2018-08-05T07:59:42.000Z</time>
      </trkpt>
      <trkpt lat="46.03639" lon="4.56978">
        <ele>496</ele>
        <time>2018-08-05T07:59:43.000Z</time>
      </trkpt>
      <trkpt lat="46.03637" lon="4.56978">
        <ele>496</ele>
        <time>2018-08-05T07:59:44.000Z</time>
      </trkpt>
      <trkpt lat="46.03635" lon="4.56979">
        <ele>496</ele>
        <time>2018-08-05T07:59:45.000Z</time>
      </trkpt>
      <trkpt lat="46.03633" lon="4.56979">
        <ele>496</ele>
        <time>2018-08-05T07:59:46.000Z</time>
      </trkpt>
      <trkpt lat="46.03631" lon="4.56979">
        <ele>496</ele>
        <time>2018-08-05T07:59:47.000Z</time>
      </trkpt>
      <trkpt lat="46.03629" lon="4.56978">
        <ele>496</ele>
        <time>2018-08-05T07:59:48.000Z</time>
      </trkpt>
      <trkpt lat="46.03627" lon="4.56978">
        <ele>496</ele>
        <time>2018-08-05T07:59:49.000Z</time>
      </trkpt>
      <trkpt lat="46.03625" lon="4.56979">
        <ele>496</ele>
        <time>2018-08-05T07:59:50.000Z</time>
      </trkpt>
      <trkpt lat="46.03623" lon="4.56979">
        <ele>496</ele>
        <time>2018-08-05T07:59:51.000Z</time>
      </trkpt>
      <trkpt lat="46.03621" lon="4.56979">
        <ele>496</ele>
        <time>2018-08-05T07:59:52.000Z</time>
      </trkpt>
      <trkpt lat="46.03619" lon="4.56978">
        <ele>496</ele>
        <time>2018-08-05T07:59:53.000Z</time>
      </trkpt>
      <trkpt lat="46.03616" lon="4.56978">
        <ele>497</ele>
        <time>2018-08-05T07:59:54.000Z</time>
      </trkpt>
      <trkpt lat="46.03614" lon="4.56978">
        <ele>497</ele>
        <time>2018-08-05T07:59:55.000Z</time>
      </trkpt>
      <trkpt lat="46.03612" lon="4.56979">
        <ele>497</ele>
        <time>2018-08-05T07:59:56.000Z</time>
      </trkpt>
      <trkpt lat="46.0361" lon="4.56979">
        <ele>497</ele>
        <time>2018-08-05T07:59:57.000Z</time>
      </trkpt>
      <trkpt lat="46.03608" lon="4.56979">
        <ele>497</ele>
        <time>2018-08-05T07:59:58.000Z</time>
      </trkpt>
      <trkpt lat="46.03605" lon="4.56979">
        <ele>498</ele>
        <time>2018-08-05T07:59:59.000Z</time>
      </trkpt>
      <trkpt lat="46.03603" lon="4.56979">
        <ele>498</ele>
        <time>2018-08-05T08:00:00.000Z</time>
      </trkpt>
      <trkpt lat="46.03601" lon="4.56979">
        <ele>498</ele>
        <time>2018-08-05T08:00:01.000Z</time>
      </trkpt>
      <trkpt lat="46.03599" lon="4.56979">
        <ele>498</ele>
        <time>2018-08-05T08:00:02.000Z</time>
      </trkpt>
      <trkpt lat="46.03597" lon="4.56979">
        <ele>498</ele>
        <time>2018-08-05T08:00:03.000Z</time>
      </trkpt>
      <trkpt lat="46.03595" lon="4.56979">
        <ele>499</ele>
        <time>2018-08-05T08:00:04.000Z</time>
      </trkpt>
      <trkpt lat="46.03592" lon="4.56979">
        <ele>499</ele>
        <time>2018-08-05T08:00:05.000Z</time>
      </trkpt>
      <trkpt lat="46.0359" lon="4.56979">
        <ele>499</ele>
        <time>2018-08-05T08:00:06.000Z</time>
      </trkpt>
      <trkpt lat="46.03588" lon="4.56979">
        <ele>499</ele>
        <time>2018-08-05T08:00:07.000Z</time>
      </trkpt>
      <trkpt lat="46.03586" lon="4.5698">
        <ele>499</ele>
        <time>2018-08-05T08:00:08.000Z</time>
      </trkpt>
      <trkpt lat="46.03583" lon="4.5698">
        <ele>499</ele>
        <time>2018-08-05T08:00:09.000Z</time>
      </trkpt>
      <trkpt lat="46.03581" lon="4.56981">
        <ele>502</ele>
        <time>2018-08-05T08:00:10.000Z</time>
      </trkpt>
      <trkpt lat="46.03579" lon="4.56981">
        <ele>502</ele>
        <time>2018-08-05T08:00:11.000Z</time>
      </trkpt>
      <trkpt lat="46.03577" lon="4.56981">
        <ele>502</ele>
        <time>2018-08-05T08:00:12.000Z</time>
      </trkpt>
      <trkpt lat="46.03575" lon="4.56982">
        <ele>502</ele>
        <time>2018-08-05T08:00:13.000Z</time>
      </trkpt>
      <trkpt lat="46.03573" lon="4.56982">
        <ele>501</ele>
        <time>2018-08-05T08:00:14.000Z</time>
      </trkpt>
      <trkpt lat="46.03571" lon="4.56982">
        <ele>501</ele>
        <time>2018-08-05T08:00:15.000Z</time>
      </trkpt>
      <trkpt lat="46.03568" lon="4.56982">
        <ele>501</ele>
        <time>2018-08-05T08:00:16.000Z</time>
      </trkpt>
      <trkpt lat="46.03566" lon="4.56983">
        <ele>501</ele>
        <time>2018-08-05T08:00:17.000Z</time>
      </trkpt>
      <trkpt lat="46.03564" lon="4.56984">
        <ele>501</ele>
        <time>2018-08-05T08:00:18.000Z</time>
      </trkpt>
      <trkpt lat="46.03562" lon="4.56984">
        <ele>501</ele>
        <time>2018-08-05T08:00:19.000Z</time>
      </trkpt>
      <trkpt lat="46.03559" lon="4.56985">
        <ele>501</ele>
        <time>2018-08-05T08:00:20.000Z</time>
      </trkpt>
      <trkpt lat="46.03557" lon="4.56986">
        <ele>501</ele>
        <time>2018-08-05T08:00:21.000Z</time>
      </trkpt>
      <trkpt lat="46.03555" lon="4.56987">
        <ele>501</ele>
        <time>2018-08-05T08:00:22.000Z</time>
      </trkpt>
      <trkpt lat="46.03553" lon="4.56987">
        <ele>501</ele>
        <time>2018-08-05T08:00:23.000Z</time>
      </trkpt>
      <trkpt lat="46.03551" lon="4.56988">
        <ele>501</ele>
        <time>2018-08-05T08:00:24.000Z</time>
      </trkpt>
      <trkpt lat="46.03549" lon="4.56989">
        <ele>501</ele>
        <time>2018-08-05T08:00:25.000Z</time>
      </trkpt>
      <trkpt lat="46.03546" lon="4.5699">
        <ele>501</ele>
        <time>2018-08-05T08:00:26.000Z</time>
      </trkpt>
      <trkpt lat="46.03544" lon="4.56991">
        <ele>501</ele>
        <time>2018-08-05T08:00:27.000Z</time>
      </trkpt>
      <trkpt lat="46.03542" lon="4.56992">
        <ele>501</ele>
        <time>2018-08-05T08:00:28.000Z</time>
      </trkpt>
      <trkpt lat="46.03539" lon="4.56992">
        <ele>501</ele>
        <time>2018-08-05T08:00:29.000Z</time>
      </trkpt>
      <trkpt lat="46.03537" lon="4.56994">
        <ele>501</ele>
        <time>2018-08-05T08:00:30.000Z</time>
      </trkpt>
      <trkpt lat="46.03535" lon="4.56995">
        <ele>502</ele>
        <time>2018-08-05T08:00:31.000Z</time>
      </trkpt>
      <trkpt lat="46.03533" lon="4.56996">
        <ele>502</ele>
        <time>2018-08-05T08:00:32.000Z</time>
      </trkpt>
      <trkpt lat="46.0353" lon="4.56997">
        <ele>502</ele>
        <time>2018-08-05T08:00:33.000Z</time>
      </trkpt>
      <trkpt lat="46.03528" lon="4.56997">
        <ele>502</ele>
        <time>2018-08-05T08:00:34.000Z</time>
      </trkpt>
      <trkpt lat="46.03525" lon="4.56998">
        <ele>502</ele>
        <time>2018-08-05T08:00:35.000Z</time>
      </trkpt>
      <trkpt lat="46.03523" lon="4.57">
        <ele>502</ele>
        <time>2018-08-05T08:00:36.000Z</time>
      </trkpt>
      <trkpt lat="46.0352" lon="4.57001">
        <ele>510</ele>
        <time>2018-08-05T08:00:37.000Z</time>
      </trkpt>
      <trkpt lat="46.03518" lon="4.57001">
        <ele>510</ele>
        <time>2018-08-05T08:00:38.000Z</time>
      </trkpt>
      <trkpt lat="46.03515" lon="4.57002">
        <ele>509</ele>
        <time>2018-08-05T08:00:39.000Z</time>
      </trkpt>
      <trkpt lat="46.03513" lon="4.57003">
        <ele>509</ele>
        <time>2018-08-05T08:00:40.000Z</time>
      </trkpt>
      <trkpt lat="46.0351" lon="4.57004">
        <ele>509</ele>
        <time>2018-08-05T08:00:41.000Z</time>
      </trkpt>
      <trkpt lat="46.03508" lon="4.57005">
        <ele>509</ele>
        <time>2018-08-05T08:00:42.000Z</time>
      </trkpt>
      <trkpt lat="46.03505" lon="4.57006">
        <ele>509</ele>
        <time>2018-08-05T08:00:43.000Z</time>
      </trkpt>
      <trkpt lat="46.03503" lon="4.57007">
        <ele>509</ele>
        <time>2018-08-05T08:00:44.000Z</time>
      </trkpt>
      <trkpt lat="46.03501" lon="4.57008">
        <ele>509</ele>
        <time>2018-08-05T08:00:45.000Z</time>
      </trkpt>
      <trkpt lat="46.03499" lon="4.5701">
        <ele>510</ele>
        <time>2018-08-05T08:00:46.000Z</time>
      </trkpt>
      <trkpt lat="46.03498" lon="4.57011">
        <ele>510</ele>
        <time>2018-08-05T08:00:47.000Z</time>
      </trkpt>
      <trkpt lat="46.03495" lon="4.57012">
        <ele>511</ele>
        <time>2018-08-05T08:00:48.000Z</time>
      </trkpt>
      <trkpt lat="46.03493" lon="4.57013">
        <ele>511</ele>
        <time>2018-08-05T08:00:49.000Z</time>
      </trkpt>
      <trkpt lat="46.03491" lon="4.57014">
        <ele>511</ele>
        <time>2018-08-05T08:00:50.000Z</time>
      </trkpt>
      <trkpt lat="46.03489" lon="4.57015">
        <ele>512</ele>
        <time>2018-08-05T08:00:51.000Z</time>
      </trkpt>
      <trkpt lat="46.03487" lon="4.57016">
        <ele>512</ele>
        <time>2018-08-05T08:00:52.000Z</time>
      </trkpt>
      <trkpt lat="46.03485" lon="4.57017">
        <ele>512</ele>
        <time>2018-08-05T08:00:53.000Z</time>
      </trkpt>
      <trkpt lat="46.03483" lon="4.57019">
        <ele>513</ele>
        <time>2018-08-05T08:00:54.000Z</time>
      </trkpt>
      <trkpt lat="46.03482" lon="4.57021">
        <ele>513</ele>
        <time>2018-08-05T08:00:55.000Z</time>
      </trkpt>
      <trkpt lat="46.0348" lon="4.57021">
        <ele>513</ele>
        <time>2018-08-05T08:00:56.000Z</time>
      </trkpt>
      <trkpt lat="46.03477" lon="4.57022">
        <ele>513</ele>
        <time>2018-08-05T08:00:57.000Z</time>
      </trkpt>
      <trkpt lat="46.03475" lon="4.57023">
        <ele>514</ele>
        <time>2018-08-05T08:00:58.000Z</time>
      </trkpt>
      <trkpt lat="46.03474" lon="4.57025">
        <ele>514</ele>
        <time>2018-08-05T08:00:59.000Z</time>
      </trkpt>
      <trkpt lat="46.03472" lon="4.57026">
        <ele>514</ele>
        <time>2018-08-05T08:01:00.000Z</time>
      </trkpt>
      <trkpt lat="46.0347" lon="4.57028">
        <ele>514</ele>
        <time>2018-08-05T08:01:01.000Z</time>
      </trkpt>
      <trkpt lat="46.03469" lon="4.5703">
        <ele>514</ele>
        <time>2018-08-05T08:01:02.000Z</time>
      </trkpt>
      <trkpt lat="46.03467" lon="4.57031">
        <ele>514</ele>
        <time>2018-08-05T08:01:03.000Z</time>
      </trkpt>
      <trkpt lat="46.03465" lon="4.57033">
        <ele>515</ele>
        <time>2018-08-05T08:01:04.000Z</time>
      </trkpt>
      <trkpt lat="46.03463" lon="4.57035">
        <ele>515</ele>
        <time>2018-08-05T08:01:05.000Z</time>
      </trkpt>
      <trkpt lat="46.03461" lon="4.57036">
        <ele>515</ele>
        <time>2018-08-05T08:01:06.000Z</time>
      </trkpt>
      <trkpt lat="46.03459" lon="4.57038">
        <ele>515</ele>
        <time>2018-08-05T08:01:07.000Z</time>
      </trkpt>
      <trkpt lat="46.03458" lon="4.5704">
        <ele>515</ele>
        <time>2018-08-05T08:01:08.000Z</time>
      </trkpt>
      <trkpt lat="46.03455" lon="4.57041">
        <ele>515</ele>
        <time>2018-08-05T08:01:09.000Z</time>
      </trkpt>
      <trkpt lat="46.03453" lon="4.57042">
        <ele>515</ele>
        <time>2018-08-05T08:01:10.000Z</time>
      </trkpt>
      <trkpt lat="46.03451" lon="4.57044">
        <ele>515</ele>
        <time>2018-08-05T08:01:11.000Z</time>
      </trkpt>
      <trkpt lat="46.03449" lon="4.57045">
        <ele>516</ele>
        <time>2018-08-05T08:01:12.000Z</time>
      </trkpt>
      <trkpt lat="46.03447" lon="4.57047">
        <ele>516</ele>
        <time>2018-08-05T08:01:13.000Z</time>
      </trkpt>
      <trkpt lat="46.03445" lon="4.57048">
        <ele>516</ele>
        <time>2018-08-05T08:01:14.000Z</time>
      </trkpt>
      <trkpt lat="46.03443" lon="4.5705">
        <ele>516</ele>
        <time>2018-08-05T08:01:15.000Z</time>
      </trkpt>
      <trkpt lat="46.03441" lon="4.57051">
        <ele>516</ele>
        <time>2018-08-05T08:01:16.000Z</time>
      </trkpt>
      <trkpt lat="46.03439" lon="4.57053">
        <ele>516</ele>
        <time>2018-08-05T08:01:17.000Z</time>
      </trkpt>
      <trkpt lat="46.03437" lon="4.57055">
        <ele>516</ele>
        <time>2018-08-05T08:01:18.000Z</time>
      </trkpt>
      <trkpt lat="46.03435" lon="4.57056">
        <ele>516</ele>
        <time>2018-08-05T08:01:19.000Z</time>
      </trkpt>
      <trkpt lat="46.03433" lon="4.57057">
        <ele>516</ele>
        <time>2018-08-05T08:01:20.000Z</time>
      </trkpt>
      <trkpt lat="46.0343" lon="4.57058">
        <ele>516</ele>
        <time>2018-08-05T08:01:21.000Z</time>
      </trkpt>
      <trkpt lat="46.03428" lon="4.57059">
        <ele>516</ele>
        <time>2018-08-05T08:01:22.000Z</time>
      </trkpt>
      <trkpt lat="46.03426" lon="4.5706">
        <ele>516</ele>
        <time>2018-08-05T08:01:23.000Z</time>
      </trkpt>
      <trkpt lat="46.03424" lon="4.57061">
        <ele>516</ele>
        <time>2018-08-05T08:01:24.000Z</time>
      </trkpt>
      <trkpt lat="46.03422" lon="4.57062">
        <ele>517</ele>
        <time>2018-08-05T08:01:25.000Z</time>
      </trkpt>
      <trkpt lat="46.03419" lon="4.57063">
        <ele>517</ele>
        <time>2018-08-05T08:01:26.000Z</time>
      </trkpt>
      <trkpt lat="46.03417" lon="4.57064">
        <ele>517</ele>
        <time>2018-08-05T08:01:27.000Z</time>
      </trkpt>
      <trkpt lat="46.03415" lon="4.57064">
        <ele>523</ele>
        <time>2018-08-05T08:01:28.000Z</time>
      </trkpt>
      <trkpt lat="46.03413" lon="4.57065">
        <ele>523</ele>
        <time>2018-08-05T08:01:29.000Z</time>
      </trkpt>
      <trkpt lat="46.03411" lon="4.57066">
        <ele>523</ele>
        <time>2018-08-05T08:01:30.000Z</time>
      </trkpt>
      <trkpt lat="46.03409" lon="4.57066">
        <ele>523</ele>
        <time>2018-08-05T08:01:31.000Z</time>
      </trkpt>
      <trkpt lat="46.03407" lon="4.57066">
        <ele>524</ele>
        <time>2018-08-05T08:01:32.000Z</time>
      </trkpt>
      <trkpt lat="46.03405" lon="4.57066">
        <ele>524</ele>
        <time>2018-08-05T08:01:33.000Z</time>
      </trkpt>
      <trkpt lat="46.03403" lon="4.57066">
        <ele>524</ele>
        <time>2018-08-05T08:01:34.000Z</time>
      </trkpt>
      <trkpt lat="46.03401" lon="4.57066">
        <ele>524</ele>
        <time>2018-08-05T08:01:35.000Z</time>
      </trkpt>
      <trkpt lat="46.03398" lon="4.57066">
        <ele>525</ele>
        <time>2018-08-05T08:01:36.000Z</time>
      </trkpt>
      <trkpt lat="46.03397" lon="4.57067">
        <ele>525</ele>
        <time>2018-08-05T08:01:37.000Z</time>
      </trkpt>
      <trkpt lat="46.03395" lon="4.57068">
        <ele>525</ele>
        <time>2018-08-05T08:01:38.000Z</time>
      </trkpt>
      <trkpt lat="46.03393" lon="4.57068">
        <ele>525</ele>
        <time>2018-08-05T08:01:39.000Z</time>
      </trkpt>
      <trkpt lat="46.03391" lon="4.57069">
        <ele>526</ele>
        <time>2018-08-05T08:01:40.000Z</time>
      </trkpt>
      <trkpt lat="46.03389" lon="4.5707">
        <ele>526</ele>
        <time>2018-08-05T08:01:41.000Z</time>
      </trkpt>
      <trkpt lat="46.03386" lon="4.57071">
        <ele>527</ele>
        <time>2018-08-05T08:01:42.000Z</time>
      </trkpt>
      <trkpt lat="46.03383" lon="4.57072">
        <ele>527</ele>
        <time>2018-08-05T08:01:43.000Z</time>
      </trkpt>
      <trkpt lat="46.03381" lon="4.57073">
        <ele>527</ele>
        <time>2018-08-05T08:01:44.000Z</time>
      </trkpt>
      <trkpt lat="46.03379" lon="4.57074">
        <ele>528</ele>
        <time>2018-08-05T08:01:45.000Z</time>
      </trkpt>
      <trkpt lat="46.03376" lon="4.57075">
        <ele>528</ele>
        <time>2018-08-05T08:01:46.000Z</time>
      </trkpt>
      <trkpt lat="46.03374" lon="4.57075">
        <ele>529</ele>
        <time>2018-08-05T08:01:47.000Z</time>
      </trkpt>
      <trkpt lat="46.03371" lon="4.57076">
        <ele>529</ele>
        <time>2018-08-05T08:01:48.000Z</time>
      </trkpt>
      <trkpt lat="46.03369" lon="4.57076">
        <ele>530</ele>
        <time>2018-08-05T08:01:49.000Z</time>
      </trkpt>
      <trkpt lat="46.03366" lon="4.57076">
        <ele>530</ele>
        <time>2018-08-05T08:01:50.000Z</time>
      </trkpt>
      <trkpt lat="46.03363" lon="4.57077">
        <ele>531</ele>
        <time>2018-08-05T08:01:51.000Z</time>
      </trkpt>
      <trkpt lat="46.03361" lon="4.57077">
        <ele>531</ele>
        <time>2018-08-05T08:01:52.000Z</time>
      </trkpt>
      <trkpt lat="46.03358" lon="4.57077">
        <ele>531</ele>
        <time>2018-08-05T08:01:53.000Z</time>
      </trkpt>
      <trkpt lat="46.03355" lon="4.57076">
        <ele>532</ele>
        <time>2018-08-05T08:01:54.000Z</time>
      </trkpt>
      <trkpt lat="46.03353" lon="4.57076">
        <ele>532</ele>
        <time>2018-08-05T08:01:55.000Z</time>
      </trkpt>
      <trkpt lat="46.03351" lon="4.57076">
        <ele>533</ele>
        <time>2018-08-05T08:01:56.000Z</time>
      </trkpt>
      <trkpt lat="46.03348" lon="4.57076">
        <ele>533</ele>
        <time>2018-08-05T08:01:57.000Z</time>
      </trkpt>
      <trkpt lat="46.03346" lon="4.57076">
        <ele>534</ele>
        <time>2018-08-05T08:01:58.000Z</time>
      </trkpt>
      <trkpt lat="46.03344" lon="4.57076">
        <ele>534</ele>
        <time>2018-08-05T08:01:59.000Z</time>
      </trkpt>
      <trkpt lat="46.03341" lon="4.57077">
        <ele>534</ele>
        <time>2018-08-05T08:02:00.000Z</time>
      </trkpt>
      <trkpt lat="46.03339" lon="4.57077">
        <ele>535</ele>
        <time>2018-08-05T08:02:01.000Z</time>
      </trkpt>
      <trkpt lat="46.03338" lon="4.57079">
        <ele>535</ele>
        <time>2018-08-05T08:02:02.000Z</time>
      </trkpt>
      <trkpt lat="46.03336" lon="4.5708">
        <ele>536</ele>
        <time>2018-08-05T08:02:03.000Z</time>
      </trkpt>
      <trkpt lat="46.03334" lon="4.57081">
        <ele>536</ele>
        <time>2018-08-05T08:02:04.000Z</time>
      </trkpt>
      <trkpt lat="46.03332" lon="4.57083">
        <ele>538</ele>
        <time>2018-08-05T08:02:05.000Z</time>
      </trkpt>
      <trkpt lat="46.03331" lon="4.57084">
        <ele>537</ele>
        <time>2018-08-05T08:02:06.000Z</time>
      </trkpt>
      <trkpt lat="46.0333" lon="4.57086">
        <ele>537</ele>
        <time>2018-08-05T08:02:07.000Z</time>
      </trkpt>
      <trkpt lat="46.03329" lon="4.57089">
        <ele>536</ele>
        <time>2018-08-05T08:02:08.000Z</time>
      </trkpt>
      <trkpt lat="46.03328" lon="4.57093">
        <ele>536</ele>
        <time>2018-08-05T08:02:09.000Z</time>
      </trkpt>
      <trkpt lat="46.03327" lon="4.57096">
        <ele>536</ele>
        <time>2018-08-05T08:02:10.000Z</time>
      </trkpt>
      <trkpt lat="46.03325" lon="4.571">
        <ele>536</ele>
        <time>2018-08-05T08:02:11.000Z</time>
      </trkpt>
      <trkpt lat="46.03324" lon="4.57104">
        <ele>535</ele>
        <time>2018-08-05T08:02:12.000Z</time>
      </trkpt>
      <trkpt lat="46.03323" lon="4.57107">
        <ele>535</ele>
        <time>2018-08-05T08:02:13.000Z</time>
      </trkpt>
      <trkpt lat="46.03322" lon="4.5711">
        <ele>535</ele>
        <time>2018-08-05T08:02:14.000Z</time>
      </trkpt>
      <trkpt lat="46.03321" lon="4.57114">
        <ele>534</ele>
        <time>2018-08-05T08:02:15.000Z</time>
      </trkpt>
      <trkpt lat="46.0332" lon="4.57118">
        <ele>534</ele>
        <time>2018-08-05T08:02:16.000Z</time>
      </trkpt>
      <trkpt lat="46.0332" lon="4.57122">
        <ele>534</ele>
        <time>2018-08-05T08:02:17.000Z</time>
      </trkpt>
      <trkpt lat="46.03319" lon="4.57125">
        <ele>533</ele>
        <time>2018-08-05T08:02:18.000Z</time>
      </trkpt>
      <trkpt lat="46.03318" lon="4.57129">
        <ele>533</ele>
        <time>2018-08-05T08:02:19.000Z</time>
      </trkpt>
      <trkpt lat="46.03317" lon="4.57132">
        <ele>532</ele>
        <time>2018-08-05T08:02:20.000Z</time>
      </trkpt>
      <trkpt lat="46.03316" lon="4.57136">
        <ele>532</ele>
        <time>2018-08-05T08:02:21.000Z</time>
      </trkpt>
      <trkpt lat="46.03315" lon="4.5714">
        <ele>531</ele>
        <time>2018-08-05T08:02:22.000Z</time>
      </trkpt>
      <trkpt lat="46.03314" lon="4.57144">
        <ele>531</ele>
        <time>2018-08-05T08:02:23.000Z</time>
      </trkpt>
      <trkpt lat="46.03313" lon="4.57147">
        <ele>531</ele>
        <time>2018-08-05T08:02:24.000Z</time>
      </trkpt>
      <trkpt lat="46.03311" lon="4.5715">
        <ele>530</ele>
        <time>2018-08-05T08:02:25.000Z</time>
      </trkpt>
      <trkpt lat="46.0331" lon="4.57154">
        <ele>530</ele>
        <time>2018-08-05T08:02:26.000Z</time>
      </trkpt>
      <trkpt lat="46.03308" lon="4.57157">
        <ele>530</ele>
        <time>2018-08-05T08:02:27.000Z</time>
      </trkpt>
      <trkpt lat="46.03306" lon="4.5716">
        <ele>530</ele>
        <time>2018-08-05T08:02:28.000Z</time>
      </trkpt>
      <trkpt lat="46.03304" lon="4.57163">
        <ele>530</ele>
        <time>2018-08-05T08:02:29.000Z</time>
      </trkpt>
      <trkpt lat="46.03302" lon="4.57166">
        <ele>530</ele>
        <time>2018-08-05T08:02:30.000Z</time>
      </trkpt>
      <trkpt lat="46.033" lon="4.57168">
        <ele>521</ele>
        <time>2018-08-05T08:02:31.000Z</time>
      </trkpt>
      <trkpt lat="46.03297" lon="4.57171">
        <ele>521</ele>
        <time>2018-08-05T08:02:32.000Z</time>
      </trkpt>
      <trkpt lat="46.03295" lon="4.57173">
        <ele>521</ele>
        <time>2018-08-05T08:02:33.000Z</time>
      </trkpt>
      <trkpt lat="46.03292" lon="4.57175">
        <ele>521</ele>
        <time>2018-08-05T08:02:34.000Z</time>
      </trkpt>
      <trkpt lat="46.03289" lon="4.57177">
        <ele>521</ele>
        <time>2018-08-05T08:02:35.000Z</time>
      </trkpt>
      <trkpt lat="46.03287" lon="4.57178">
        <ele>521</ele>
        <time>2018-08-05T08:02:36.000Z</time>
      </trkpt>
      <trkpt lat="46.03283" lon="4.57179">
        <ele>521</ele>
        <time>2018-08-05T08:02:37.000Z</time>
      </trkpt>
      <trkpt lat="46.0328" lon="4.5718">
        <ele>521</ele>
        <time>2018-08-05T08:02:38.000Z</time>
      </trkpt>
      <trkpt lat="46.03278" lon="4.57179">
        <ele>521</ele>
        <time>2018-08-05T08:02:39.000Z</time>
      </trkpt>
      <trkpt lat="46.03275" lon="4.57178">
        <ele>522</ele>
        <time>2018-08-05T08:02:40.000Z</time>
      </trkpt>
      <trkpt lat="46.03272" lon="4.57176">
        <ele>522</ele>
        <time>2018-08-05T08:02:41.000Z</time>
      </trkpt>
      <trkpt lat="46.0327" lon="4.57173">
        <ele>523</ele>
        <time>2018-08-05T08:02:42.000Z</time>
      </trkpt>
      <trkpt lat="46.03268" lon="4.5717">
        <ele>523</ele>
        <time>2018-08-05T08:02:43.000Z</time>
      </trkpt>
      <trkpt lat="46.03266" lon="4.57168">
        <ele>524</ele>
        <time>2018-08-05T08:02:44.000Z</time>
      </trkpt>
      <trkpt lat="46.03265" lon="4.57165">
        <ele>531</ele>
        <time>2018-08-05T08:02:45.000Z</time>
      </trkpt>
      <trkpt lat="46.03263" lon="4.57162">
        <ele>531</ele>
        <time>2018-08-05T08:02:46.000Z</time>
      </trkpt>
      <trkpt lat="46.03261" lon="4.57159">
        <ele>531</ele>
        <time>2018-08-05T08:02:47.000Z</time>
      </trkpt>
      <trkpt lat="46.03259" lon="4.57156">
        <ele>531</ele>
        <time>2018-08-05T08:02:48.000Z</time>
      </trkpt>
      <trkpt lat="46.03257" lon="4.57153">
        <ele>531</ele>
        <time>2018-08-05T08:02:49.000Z</time>
      </trkpt>
      <trkpt lat="46.03255" lon="4.5715">
        <ele>532</ele>
        <time>2018-08-05T08:02:50.000Z</time>
      </trkpt>
      <trkpt lat="46.03252" lon="4.57147">
        <ele>532</ele>
        <time>2018-08-05T08:02:51.000Z</time>
      </trkpt>
      <trkpt lat="46.0325" lon="4.57144">
        <ele>534</ele>
        <time>2018-08-05T08:02:52.000Z</time>
      </trkpt>
      <trkpt lat="46.03247" lon="4.57141">
        <ele>534</ele>
        <time>2018-08-05T08:02:53.000Z</time>
      </trkpt>
      <trkpt lat="46.03244" lon="4.57137">
        <ele>535</ele>
        <time>2018-08-05T08:02:54.000Z</time>
      </trkpt>
      <trkpt lat="46.03241" lon="4.57134">
        <ele>535</ele>
        <time>2018-08-05T08:02:55.000Z</time>
      </trkpt>
      <trkpt lat="46.03237" lon="4.57131">
        <ele>536</ele>
        <time>2018-08-05T08:02:56.000Z</time>
      </trkpt>
      <trkpt lat="46.03234" lon="4.57127">
        <ele>536</ele>
        <time>2018-08-05T08:02:57.000Z</time>
      </trkpt>
      <trkpt lat="46.03231" lon="4.57124">
        <ele>537</ele>
        <time>2018-08-05T08:02:58.000Z</time>
      </trkpt>
      <trkpt lat="46.03227" lon="4.5712">
        <ele>537</ele>
        <time>2018-08-05T08:02:59.000Z</time>
      </trkpt>
      <trkpt lat="46.03223" lon="4.57116">
        <ele>538</ele>
        <time>2018-08-05T08:03:00.000Z</time>
      </trkpt>
      <trkpt lat="46.0322" lon="4.57113">
        <ele>538</ele>
        <time>2018-08-05T08:03:01.000Z</time>
      </trkpt>
      <trkpt lat="46.03217" lon="4.57109">
        <ele>538</ele>
        <time>2018-08-05T08:03:02.000Z</time>
      </trkpt>
      <trkpt lat="46.03213" lon="4.57105">
        <ele>539</ele>
        <time>2018-08-05T08:03:03.000Z</time>
      </trkpt>
      <trkpt lat="46.03209" lon="4.57102">
        <ele>539</ele>
        <time>2018-08-05T08:03:04.000Z</time>
      </trkpt>
      <trkpt lat="46.03206" lon="4.57098">
        <ele>539</ele>
        <time>2018-08-05T08:03:05.000Z</time>
      </trkpt>
      <trkpt lat="46.03202" lon="4.57095">
        <ele>539</ele>
        <time>2018-08-05T08:03:06.000Z</time>
      </trkpt>
      <trkpt lat="46.03199" lon="4.57092">
        <ele>539</ele>
        <time>2018-08-05T08:03:07.000Z</time>
      </trkpt>
      <trkpt lat="46.03196" lon="4.57089">
        <ele>539</ele>
        <time>2018-08-05T08:03:08.000Z</time>
      </trkpt>
      <trkpt lat="46.03193" lon="4.57087">
        <ele>540</ele>
        <time>2018-08-05T08:03:09.000Z</time>
      </trkpt>
      <trkpt lat="46.0319" lon="4.57085">
        <ele>540</ele>
        <time>2018-08-05T08:03:10.000Z</time>
      </trkpt>
      <trkpt lat="46.03186" lon="4.57084">
        <ele>540</ele>
        <time>2018-08-05T08:03:11.000Z</time>
      </trkpt>
      <trkpt lat="46.03183" lon="4.57083">
        <ele>549</ele>
        <time>2018-08-05T08:03:12.000Z</time>
      </trkpt>
      <trkpt lat="46.0318" lon="4.57082">
        <ele>549</ele>
        <time>2018-08-05T08:03:13.000Z</time>
      </trkpt>
      <trkpt lat="46.03177" lon="4.57081">
        <ele>548</ele>
        <time>2018-08-05T08:03:14.000Z</time>
      </trkpt>
      <trkpt lat="46.03174" lon="4.57081">
        <ele>547</ele>
        <time>2018-08-05T08:03:15.000Z</time>
      </trkpt>
      <trkpt lat="46.03171" lon="4.57082">
        <ele>545</ele>
        <time>2018-08-05T08:03:16.000Z</time>
      </trkpt>
      <trkpt lat="46.03168" lon="4.57082">
        <ele>544</ele>
        <time>2018-08-05T08:03:17.000Z</time>
      </trkpt>
      <trkpt lat="46.03166" lon="4.57083">
        <ele>544</ele>
        <time>2018-08-05T08:03:18.000Z</time>
      </trkpt>
      <trkpt lat="46.03164" lon="4.57085">
        <ele>543</ele>
        <time>2018-08-05T08:03:19.000Z</time>
      </trkpt>
      <trkpt lat="46.03161" lon="4.57086">
        <ele>542</ele>
        <time>2018-08-05T08:03:20.000Z</time>
      </trkpt>
      <trkpt lat="46.03159" lon="4.57087">
        <ele>542</ele>
        <time>2018-08-05T08:03:21.000Z</time>
      </trkpt>
      <trkpt lat="46.03157" lon="4.57088">
        <ele>542</ele>
        <time>2018-08-05T08:03:22.000Z</time>
      </trkpt>
      <trkpt lat="46.03154" lon="4.57089">
        <ele>542</ele>
        <time>2018-08-05T08:03:23.000Z</time>
      </trkpt>
      <trkpt lat="46.03152" lon="4.5709">
        <ele>542</ele>
        <time>2018-08-05T08:03:24.000Z</time>
      </trkpt>
      <trkpt lat="46.03149" lon="4.57091">
        <ele>542</ele>
        <time>2018-08-05T08:03:25.000Z</time>
      </trkpt>
      <trkpt lat="46.03147" lon="4.57092">
        <ele>542</ele>
        <time>2018-08-05T08:03:26.000Z</time>
      </trkpt>
      <trkpt lat="46.03145" lon="4.57093">
        <ele>542</ele>
        <time>2018-08-05T08:03:27.000Z</time>
      </trkpt>
      <trkpt lat="46.03143" lon="4.57094">
        <ele>542</ele>
        <time>2018-08-05T08:03:28.000Z</time>
      </trkpt>
      <trkpt lat="46.03141" lon="4.57095">
        <ele>542</ele>
        <time>2018-08-05T08:03:29.000Z</time>
      </trkpt>
      <trkpt lat="46.03139" lon="4.57096">
        <ele>542</ele>
        <time>2018-08-05T08:03:30.000Z</time>
      </trkpt>
      <trkpt lat="46.03137" lon="4.57097">
        <ele>542</ele>
        <time>2018-08-05T08:03:31.000Z</time>
      </trkpt>
      <trkpt lat="46.03135" lon="4.57098">
        <ele>542</ele>
        <time>2018-08-05T08:03:32.000Z</time>
      </trkpt>
      <trkpt lat="46.03133" lon="4.57099">
        <ele>542</ele>
        <time>2018-08-05T08:03:33.000Z</time>
      </trkpt>
      <trkpt lat="46.03131" lon="4.57099">
        <ele>542</ele>
        <time>2018-08-05T08:03:34.000Z</time>
      </trkpt>
      <trkpt lat="46.03129" lon="4.571">
        <ele>542</ele>
        <time>2018-08-05T08:03:35.000Z</time>
      </trkpt>
      <trkpt lat="46.03127" lon="4.57101">
        <ele>542</ele>
        <time>2018-08-05T08:03:36.000Z</time>
      </trkpt>
      <trkpt lat="46.03125" lon="4.57102">
        <ele>543</ele>
        <time>2018-08-05T08:03:37.000Z</time>
      </trkpt>
      <trkpt lat="46.03123" lon="4.57103">
        <ele>543</ele>
        <time>2018-08-05T08:03:38.000Z</time>
      </trkpt>
      <trkpt lat="46.03121" lon="4.57104">
        <ele>543</ele>
        <time>2018-08-05T08:03:39.000Z</time>
      </trkpt>
      <trkpt lat="46.03119" lon="4.57105">
        <ele>543</ele>
        <time>2018-08-05T08:03:40.000Z</time>
      </trkpt>
      <trkpt lat="46.03117" lon="4.57106">
        <ele>543</ele>
        <time>2018-08-05T08:03:41.000Z</time>
      </trkpt>
      <trkpt lat="46.03115" lon="4.57107">
        <ele>543</ele>
        <time>2018-08-05T08:03:42.000Z</time>
      </trkpt>
      <trkpt lat="46.03113" lon="4.57108">
        <ele>543</ele>
        <time>2018-08-05T08:03:43.000Z</time>
      </trkpt>
      <trkpt lat="46.03111" lon="4.57109">
        <ele>543</ele>
        <time>2018-08-05T08:03:44.000Z</time>
      </trkpt>
      <trkpt lat="46.03109" lon="4.5711">
        <ele>543</ele>
        <time>2018-08-05T08:03:45.000Z</time>
      </trkpt>
      <trkpt lat="46.03108" lon="4.57111">
        <ele>543</ele>
        <time>2018-08-05T08:03:46.000Z</time>
      </trkpt>
      <trkpt lat="46.03106" lon="4.57112">
        <ele>544</ele>
        <time>2018-08-05T08:03:47.000Z</time>
      </trkpt>
      <trkpt lat="46.03104" lon="4.57113">
        <ele>544</ele>
        <time>2018-08-05T08:03:48.000Z</time>
      </trkpt>
      <trkpt lat="46.03102" lon="4.57114">
        <ele>544</ele>
        <time>2018-08-05T08:03:49.000Z</time>
      </trkpt>
      <trkpt lat="46.031" lon="4.57114">
        <ele>544</ele>
        <time>2018-08-05T08:03:50.000Z</time>
      </trkpt>
      <trkpt lat="46.03098" lon="4.57115">
        <ele>544</ele>
        <time>2018-08-05T08:03:51.000Z</time>
      </trkpt>
      <trkpt lat="46.03096" lon="4.57116">
        <ele>544</ele>
        <time>2018-08-05T08:03:52.000Z</time>
      </trkpt>
      <trkpt lat="46.03094" lon="4.57117">
        <ele>544</ele>
        <time>2018-08-05T08:03:53.000Z</time>
      </trkpt>
      <trkpt lat="46.03092" lon="4.57117">
        <ele>544</ele>
        <time>2018-08-05T08:03:54.000Z</time>
      </trkpt>
      <trkpt lat="46.0309" lon="4.57118">
        <ele>544</ele>
        <time>2018-08-05T08:03:55.000Z</time>
      </trkpt>
      <trkpt lat="46.03088" lon="4.57118">
        <ele>544</ele>
        <time>2018-08-05T08:03:56.000Z</time>
      </trkpt>
      <trkpt lat="46.03086" lon="4.57119">
        <ele>544</ele>
        <time>2018-08-05T08:03:57.000Z</time>
      </trkpt>
      <trkpt lat="46.03083" lon="4.57119">
        <ele>551</ele>
        <time>2018-08-05T08:03:58.000Z</time>
      </trkpt>
      <trkpt lat="46.03081" lon="4.57119">
        <ele>551</ele>
        <time>2018-08-05T08:03:59.000Z</time>
      </trkpt>
      <trkpt lat="46.03079" lon="4.57118">
        <ele>551</ele>
        <time>2018-08-05T08:04:00.000Z</time>
      </trkpt>
      <trkpt lat="46.03077" lon="4.57118">
        <ele>551</ele>
        <time>2018-08-05T08:04:01.000Z</time>
      </trkpt>
      <trkpt lat="46.03075" lon="4.57119">
        <ele>551</ele>
        <time>2018-08-05T08:04:02.000Z</time>
      </trkpt>
      <trkpt lat="46.03073" lon="4.57119">
        <ele>551</ele>
        <time>2018-08-05T08:04:03.000Z</time>
      </trkpt>
      <trkpt lat="46.03071" lon="4.57118">
        <ele>551</ele>
        <time>2018-08-05T08:04:04.000Z</time>
      </trkpt>
      <trkpt lat="46.03069" lon="4.57118">
        <ele>551</ele>
        <time>2018-08-05T08:04:05.000Z</time>
      </trkpt>
      <trkpt lat="46.03067" lon="4.57118">
        <ele>551</ele>
        <time>2018-08-05T08:04:06.000Z</time>
      </trkpt>
      <trkpt lat="46.03065" lon="4.57117">
        <ele>551</ele>
        <time>2018-08-05T08:04:07.000Z</time>
      </trkpt>
      <trkpt lat="46.03063" lon="4.57118">
        <ele>552</ele>
        <time>2018-08-05T08:04:08.000Z</time>
      </trkpt>
      <trkpt lat="46.0306" lon="4.57117">
        <ele>552</ele>
        <time>2018-08-05T08:04:09.000Z</time>
      </trkpt>
      <trkpt lat="46.03059" lon="4.57116">
        <ele>552</ele>
        <time>2018-08-05T08:04:10.000Z</time>
      </trkpt>
      <trkpt lat="46.03057" lon="4.57116">
        <ele>552</ele>
        <time>2018-08-05T08:04:11.000Z</time>
      </trkpt>
      <trkpt lat="46.03055" lon="4.57116">
        <ele>552</ele>
        <time>2018-08-05T08:04:12.000Z</time>
      </trkpt>
      <trkpt lat="46.03053" lon="4.57115">
        <ele>552</ele>
        <time>2018-08-05T08:04:13.000Z</time>
      </trkpt>
      <trkpt lat="46.03051" lon="4.57115">
        <ele>552</ele>
        <time>2018-08-05T08:04:14.000Z</time>
      </trkpt>
      <trkpt lat="46.03049" lon="4.57115">
        <ele>553</ele>
        <time>2018-08-05T08:04:15.000Z</time>
      </trkpt>
      <trkpt lat="46.03046" lon="4.57114">
        <ele>553</ele>
        <time>2018-08-05T08:04:16.000Z</time>
      </trkpt>
      <trkpt lat="46.03044" lon="4.57114">
        <ele>553</ele>
        <time>2018-08-05T08:04:17.000Z</time>
      </trkpt>
      <trkpt lat="46.03041" lon="4.57114">
        <ele>553</ele>
        <time>2018-08-05T08:04:18.000Z</time>
      </trkpt>
      <trkpt lat="46.03039" lon="4.57113">
        <ele>553</ele>
        <time>2018-08-05T08:04:19.000Z</time>
      </trkpt>
      <trkpt lat="46.03036" lon="4.57113">
        <ele>554</ele>
        <time>2018-08-05T08:04:20.000Z</time>
      </trkpt>
      <trkpt lat="46.03033" lon="4.57112">
        <ele>554</ele>
        <time>2018-08-05T08:04:21.000Z</time>
      </trkpt>
      <trkpt lat="46.03031" lon="4.57112">
        <ele>554</ele>
        <time>2018-08-05T08:04:22.000Z</time>
      </trkpt>
      <trkpt lat="46.03028" lon="4.57112">
        <ele>555</ele>
        <time>2018-08-05T08:04:23.000Z</time>
      </trkpt>
      <trkpt lat="46.03025" lon="4.57111">
        <ele>555</ele>
        <time>2018-08-05T08:04:24.000Z</time>
      </trkpt>
      <trkpt lat="46.03023" lon="4.57111">
        <ele>555</ele>
        <time>2018-08-05T08:04:25.000Z</time>
      </trkpt>
      <trkpt lat="46.0302" lon="4.5711">
        <ele>556</ele>
        <time>2018-08-05T08:04:26.000Z</time>
      </trkpt>
      <trkpt lat="46.03018" lon="4.5711">
        <ele>556</ele>
        <time>2018-08-05T08:04:27.000Z</time>
      </trkpt>
      <trkpt lat="46.03015" lon="4.5711">
        <ele>556</ele>
        <time>2018-08-05T08:04:28.000Z</time>
      </trkpt>
      <trkpt lat="46.03013" lon="4.5711">
        <ele>557</ele>
        <time>2018-08-05T08:04:29.000Z</time>
      </trkpt>
      <trkpt lat="46.03011" lon="4.5711">
        <ele>557</ele>
        <time>2018-08-05T08:04:30.000Z</time>
      </trkpt>
      <trkpt lat="46.03008" lon="4.57109">
        <ele>557</ele>
        <time>2018-08-05T08:04:31.000Z</time>
      </trkpt>
      <trkpt lat="46.03006" lon="4.57109">
        <ele>558</ele>
        <time>2018-08-05T08:04:32.000Z</time>
      </trkpt>
      <trkpt lat="46.03004" lon="4.57109">
        <ele>558</ele>
        <time>2018-08-05T08:04:33.000Z</time>
      </trkpt>
      <trkpt lat="46.03001" lon="4.57108">
        <ele>558</ele>
        <time>2018-08-05T08:04:34.000Z</time>
      </trkpt>
      <trkpt lat="46.02999" lon="4.57108">
        <ele>565</ele>
        <time>2018-08-05T08:04:35.000Z</time>
      </trkpt>
      <trkpt lat="46.02996" lon="4.57108">
        <ele>565</ele>
        <time>2018-08-05T08:04:36.000Z</time>
      </trkpt>
      <trkpt lat="46.02994" lon="4.57108">
        <ele>565</ele>
        <time>2018-08-05T08:04:37.000Z</time>
      </trkpt>
      <trkpt lat="46.02992" lon="4.57108">
        <ele>565</ele>
        <time>2018-08-05T08:04:38.000Z</time>
      </trkpt>
      <trkpt lat="46.02989" lon="4.57108">
        <ele>565</ele>
        <time>2018-08-05T08:04:39.000Z</time>
      </trkpt>
      <trkpt lat="46.02987" lon="4.57108">
        <ele>565</ele>
        <time>2018-08-05T08:04:40.000Z</time>
      </trkpt>
      <trkpt lat="46.02984" lon="4.57109">
        <ele>564</ele>
        <time>2018-08-05T08:04:41.000Z</time>
      </trkpt>
      <trkpt lat="46.02982" lon="4.57109">
        <ele>564</ele>
        <time>2018-08-05T08:04:42.000Z</time>
      </trkpt>
      <trkpt lat="46.0298" lon="4.57108">
        <ele>564</ele>
        <time>2018-08-05T08:04:43.000Z</time>
      </trkpt>
      <trkpt lat="46.02977" lon="4.57108">
        <ele>565</ele>
        <time>2018-08-05T08:04:44.000Z</time>
      </trkpt>
      <trkpt lat="46.02975" lon="4.57108">
        <ele>565</ele>
        <time>2018-08-05T08:04:45.000Z</time>
      </trkpt>
      <trkpt lat="46.02972" lon="4.57107">
        <ele>565</ele>
        <time>2018-08-05T08:04:46.000Z</time>
      </trkpt>
      <trkpt lat="46.0297" lon="4.57107">
        <ele>565</ele>
        <time>2018-08-05T08:04:47.000Z</time>
      </trkpt>
      <trkpt lat="46.02968" lon="4.57106">
        <ele>565</ele>
        <time>2018-08-05T08:04:48.000Z</time>
      </trkpt>
      <trkpt lat="46.02965" lon="4.57105">
        <ele>565</ele>
        <time>2018-08-05T08:04:49.000Z</time>
      </trkpt>
      <trkpt lat="46.02963" lon="4.57105">
        <ele>565</ele>
        <time>2018-08-05T08:04:50.000Z</time>
      </trkpt>
      <trkpt lat="46.02961" lon="4.57104">
        <ele>566</ele>
        <time>2018-08-05T08:04:51.000Z</time>
      </trkpt>
      <trkpt lat="46.02959" lon="4.57103">
        <ele>566</ele>
        <time>2018-08-05T08:04:52.000Z</time>
      </trkpt>
      <trkpt lat="46.02956" lon="4.57102">
        <ele>566</ele>
        <time>2018-08-05T08:04:53.000Z</time>
      </trkpt>
      <trkpt lat="46.02954" lon="4.57101">
        <ele>567</ele>
        <time>2018-08-05T08:04:54.000Z</time>
      </trkpt>
      <trkpt lat="46.02952" lon="4.571">
        <ele>567</ele>
        <time>2018-08-05T08:04:55.000Z</time>
      </trkpt>
      <trkpt lat="46.0295" lon="4.57099">
        <ele>567</ele>
        <time>2018-08-05T08:04:56.000Z</time>
      </trkpt>
      <trkpt lat="46.02948" lon="4.57097">
        <ele>568</ele>
        <time>2018-08-05T08:04:57.000Z</time>
      </trkpt>
      <trkpt lat="46.02946" lon="4.57096">
        <ele>568</ele>
        <time>2018-08-05T08:04:58.000Z</time>
      </trkpt>
      <trkpt lat="46.02944" lon="4.57095">
        <ele>568</ele>
        <time>2018-08-05T08:04:59.000Z</time>
      </trkpt>
      <trkpt lat="46.02942" lon="4.57094">
        <ele>569</ele>
        <time>2018-08-05T08:05:00.000Z</time>
      </trkpt>
      <trkpt lat="46.0294" lon="4.57094">
        <ele>569</ele>
        <time>2018-08-05T08:05:01.000Z</time>
      </trkpt>
      <trkpt lat="46.02938" lon="4.57093">
        <ele>570</ele>
        <time>2018-08-05T08:05:02.000Z</time>
      </trkpt>
      <trkpt lat="46.02936" lon="4.57092">
        <ele>570</ele>
        <time>2018-08-05T08:05:03.000Z</time>
      </trkpt>
      <trkpt lat="46.02934" lon="4.57091">
        <ele>571</ele>
        <time>2018-08-05T08:05:04.000Z</time>
      </trkpt>
      <trkpt lat="46.02932" lon="4.5709">
        <ele>571</ele>
        <time>2018-08-05T08:05:05.000Z</time>
      </trkpt>
      <trkpt lat="46.02931" lon="4.57089">
        <ele>572</ele>
        <time>2018-08-05T08:05:06.000Z</time>
      </trkpt>
      <trkpt lat="46.02929" lon="4.57089">
        <ele>573</ele>
        <time>2018-08-05T08:05:07.000Z</time>
      </trkpt>
      <trkpt lat="46.02926" lon="4.57088">
        <ele>574</ele>
        <time>2018-08-05T08:05:08.000Z</time>
      </trkpt>
      <trkpt lat="46.02924" lon="4.57088">
        <ele>574</ele>
        <time>2018-08-05T08:05:09.000Z</time>
      </trkpt>
      <trkpt lat="46.02922" lon="4.57088">
        <ele>575</ele>
        <time>2018-08-05T08:05:10.000Z</time>
      </trkpt>
      <trkpt lat="46.02921" lon="4.57087">
        <ele>576</ele>
        <time>2018-08-05T08:05:11.000Z</time>
      </trkpt>
      <trkpt lat="46.02919" lon="4.57087">
        <ele>577</ele>
        <time>2018-08-05T08:05:12.000Z</time>
      </trkpt>
      <trkpt lat="46.02917" lon="4.57086">
        <ele>577</ele>
        <time>2018-08-05T08:05:13.000Z</time>
      </trkpt>
      <trkpt lat="46.02915" lon="4.57086">
        <ele>579</ele>
        <time>2018-08-05T08:05:14.000Z</time>
      </trkpt>
      <trkpt lat="46.02913" lon="4.57086">
        <ele>579</ele>
        <time>2018-08-05T08:05:15.000Z</time>
      </trkpt>
      <trkpt lat="46.02911" lon="4.57085">
        <ele>580</ele>
        <time>2018-08-05T08:05:16.000Z</time>
      </trkpt>
      <trkpt lat="46.02909" lon="4.57085">
        <ele>580</ele>
        <time>2018-08-05T08:05:17.000Z</time>
      </trkpt>
      <trkpt lat="46.02907" lon="4.57085">
        <ele>580</ele>
        <time>2018-08-05T08:05:18.000Z</time>
      </trkpt>
      <trkpt lat="46.02906" lon="4.57084">
        <ele>580</ele>
        <time>2018-08-05T08:05:19.000Z</time>
      </trkpt>
      <trkpt lat="46.02904" lon="4.57084">
        <ele>580</ele>
        <time>2018-08-05T08:05:20.000Z</time>
      </trkpt>
      <trkpt lat="46.02903" lon="4.57083">
        <ele>581</ele>
        <time>2018-08-05T08:05:21.000Z</time>
      </trkpt>
      <trkpt lat="46.02901" lon="4.57084">
        <ele>581</ele>
        <time>2018-08-05T08:05:22.000Z</time>
      </trkpt>
      <trkpt lat="46.02899" lon="4.57083">
        <ele>581</ele>
        <time>2018-08-05T08:05:23.000Z</time>
      </trkpt>
      <trkpt lat="46.02897" lon="4.57083">
        <ele>589</ele>
        <time>2018-08-05T08:05:24.000Z</time>
      </trkpt>
      <trkpt lat="46.02895" lon="4.57083">
        <ele>590</ele>
        <time>2018-08-05T08:05:25.000Z</time>
      </trkpt>
      <trkpt lat="46.02894" lon="4.57083">
        <ele>590</ele>
        <time>2018-08-05T08:05:26.000Z</time>
      </trkpt>
      <trkpt lat="46.02892" lon="4.57082">
        <ele>591</ele>
        <time>2018-08-05T08:05:27.000Z</time>
      </trkpt>
      <trkpt lat="46.0289" lon="4.57082">
        <ele>591</ele>
        <time>2018-08-05T08:05:28.000Z</time>
      </trkpt>
      <trkpt lat="46.02888" lon="4.57081">
        <ele>592</ele>
        <time>2018-08-05T08:05:29.000Z</time>
      </trkpt>
      <trkpt lat="46.02886" lon="4.57081">
        <ele>592</ele>
        <time>2018-08-05T08:05:30.000Z</time>
      </trkpt>
      <trkpt lat="46.02885" lon="4.57081">
        <ele>592</ele>
        <time>2018-08-05T08:05:31.000Z</time>
      </trkpt>
      <trkpt lat="46.02883" lon="4.57082">
        <ele>593</ele>
        <time>2018-08-05T08:05:32.000Z</time>
      </trkpt>
      <trkpt lat="46.02881" lon="4.57082">
        <ele>593</ele>
        <time>2018-08-05T08:05:33.000Z</time>
      </trkpt>
      <trkpt lat="46.02879" lon="4.57082">
        <ele>593</ele>
        <time>2018-08-05T08:05:34.000Z</time>
      </trkpt>
      <trkpt lat="46.02877" lon="4.57083">
        <ele>594</ele>
        <time>2018-08-05T08:05:35.000Z</time>
      </trkpt>
      <trkpt lat="46.02875" lon="4.57084">
        <ele>584</ele>
        <time>2018-08-05T08:05:36.000Z</time>
      </trkpt>
      <trkpt lat="46.02874" lon="4.57085">
        <ele>585</ele>
        <time>2018-08-05T08:05:37.000Z</time>
      </trkpt>
      <trkpt lat="46.02872" lon="4.57085">
        <ele>585</ele>
        <time>2018-08-05T08:05:38.000Z</time>
      </trkpt>
      <trkpt lat="46.0287" lon="4.57086">
        <ele>585</ele>
        <time>2018-08-05T08:05:39.000Z</time>
      </trkpt>
      <trkpt lat="46.02868" lon="4.57088">
        <ele>586</ele>
        <time>2018-08-05T08:05:40.000Z</time>
      </trkpt>
      <trkpt lat="46.02866" lon="4.57089">
        <ele>586</ele>
        <time>2018-08-05T08:05:41.000Z</time>
      </trkpt>
      <trkpt lat="46.02865" lon="4.57091">
        <ele>586</ele>
        <time>2018-08-05T08:05:42.000Z</time>
      </trkpt>
      <trkpt lat="46.02863" lon="4.57093">
        <ele>586</ele>
        <time>2018-08-05T08:05:43.000Z</time>
      </trkpt>
      <trkpt lat="46.02863" lon="4.57094">
        <ele>586</ele>
        <time>2018-08-05T08:05:44.000Z</time>
      </trkpt>
      <trkpt lat="46.02862" lon="4.57096">
        <ele>586</ele>
        <time>2018-08-05T08:05:45.000Z</time>
      </trkpt>
      <trkpt lat="46.02861" lon="4.57098">
        <ele>586</ele>
        <time>2018-08-05T08:05:46.000Z</time>
      </trkpt>
      <trkpt lat="46.0286" lon="4.571">
        <ele>586</ele>
        <time>2018-08-05T08:05:47.000Z</time>
      </trkpt>
      <trkpt lat="46.0286" lon="4.57102">
        <ele>586</ele>
        <time>2018-08-05T08:05:48.000Z</time>
      </trkpt>
      <trkpt lat="46.02859" lon="4.57105">
        <ele>586</ele>
        <time>2018-08-05T08:05:49.000Z</time>
      </trkpt>
      <trkpt lat="46.02858" lon="4.57108">
        <ele>586</ele>
        <time>2018-08-05T08:05:50.000Z</time>
      </trkpt>
      <trkpt lat="46.02858" lon="4.57111">
        <ele>586</ele>
        <time>2018-08-05T08:05:51.000Z</time>
      </trkpt>
      <trkpt lat="46.02857" lon="4.57115">
        <ele>586</ele>
        <time>2018-08-05T08:05:52.000Z</time>
      </trkpt>
      <trkpt lat="46.02857" lon="4.57118">
        <ele>586</ele>
        <time>2018-08-05T08:05:53.000Z</time>
      </trkpt>
      <trkpt lat="46.02856" lon="4.57121">
        <ele>585</ele>
        <time>2018-08-05T08:05:54.000Z</time>
      </trkpt>
      <trkpt lat="46.02857" lon="4.57124">
        <ele>585</ele>
        <time>2018-08-05T08:05:55.000Z</time>
      </trkpt>
      <trkpt lat="46.02857" lon="4.57127">
        <ele>585</ele>
        <time>2018-08-05T08:05:56.000Z</time>
      </trkpt>
      <trkpt lat="46.02856" lon="4.57131">
        <ele>585</ele>
        <time>2018-08-05T08:05:57.000Z</time>
      </trkpt>
      <trkpt lat="46.02856" lon="4.57134">
        <ele>585</ele>
        <time>2018-08-05T08:05:58.000Z</time>
      </trkpt>
      <trkpt lat="46.02857" lon="4.57136">
        <ele>585</ele>
        <time>2018-08-05T08:05:59.000Z</time>
      </trkpt>
      <trkpt lat="46.02857" lon="4.57139">
        <ele>585</ele>
        <time>2018-08-05T08:06:00.000Z</time>
      </trkpt>
      <trkpt lat="46.02857" lon="4.57142">
        <ele>585</ele>
        <time>2018-08-05T08:06:01.000Z</time>
      </trkpt>
      <trkpt lat="46.02858" lon="4.57145">
        <ele>585</ele>
        <time>2018-08-05T08:06:02.000Z</time>
      </trkpt>
      <trkpt lat="46.02858" lon="4.57149">
        <ele>585</ele>
        <time>2018-08-05T08:06:03.000Z</time>
      </trkpt>
      <trkpt lat="46.02858" lon="4.57153">
        <ele>585</ele>
        <time>2018-08-05T08:06:04.000Z</time>
      </trkpt>
      <trkpt lat="46.02858" lon="4.57156">
        <ele>585</ele>
        <time>2018-08-05T08:06:05.000Z</time>
      </trkpt>
      <trkpt lat="46.02859" lon="4.57159">
        <ele>585</ele>
        <time>2018-08-05T08:06:06.000Z</time>
      </trkpt>
      <trkpt lat="46.02859" lon="4.57162">
        <ele>585</ele>
        <time>2018-08-05T08:06:07.000Z</time>
      </trkpt>
      <trkpt lat="46.0286" lon="4.57165">
        <ele>585</ele>
        <time>2018-08-05T08:06:08.000Z</time>
      </trkpt>
      <trkpt lat="46.0286" lon="4.57169">
        <ele>582</ele>
        <time>2018-08-05T08:06:09.000Z</time>
      </trkpt>
      <trkpt lat="46.0286" lon="4.57172">
        <ele>582</ele>
        <time>2018-08-05T08:06:10.000Z</time>
      </trkpt>
      <trkpt lat="46.0286" lon="4.57175">
        <ele>582</ele>
        <time>2018-08-05T08:06:11.000Z</time>
      </trkpt>
      <trkpt lat="46.02861" lon="4.57178">
        <ele>581</ele>
        <time>2018-08-05T08:06:12.000Z</time>
      </trkpt>
      <trkpt lat="46.02861" lon="4.57181">
        <ele>581</ele>
        <time>2018-08-05T08:06:13.000Z</time>
      </trkpt>
      <trkpt lat="46.02861" lon="4.57184">
        <ele>581</ele>
        <time>2018-08-05T08:06:14.000Z</time>
      </trkpt>
      <trkpt lat="46.02862" lon="4.57188">
        <ele>581</ele>
        <time>2018-08-05T08:06:15.000Z</time>
      </trkpt>
      <trkpt lat="46.02862" lon="4.57191">
        <ele>580</ele>
        <time>2018-08-05T08:06:16.000Z</time>
      </trkpt>
      <trkpt lat="46.02862" lon="4.57194">
        <ele>580</ele>
        <time>2018-08-05T08:06:17.000Z</time>
      </trkpt>
      <trkpt lat="46.02863" lon="4.57197">
        <ele>580</ele>
        <time>2018-08-05T08:06:18.000Z</time>
      </trkpt>
      <trkpt lat="46.02863" lon="4.572">
        <ele>580</ele>
        <time>2018-08-05T08:06:19.000Z</time>
      </trkpt>
      <trkpt lat="46.02863" lon="4.57203">
        <ele>579</ele>
        <time>2018-08-05T08:06:20.000Z</time>
      </trkpt>
      <trkpt lat="46.02864" lon="4.57206">
        <ele>579</ele>
        <time>2018-08-05T08:06:21.000Z</time>
      </trkpt>
      <trkpt lat="46.02864" lon="4.57209">
        <ele>579</ele>
        <time>2018-08-05T08:06:22.000Z</time>
      </trkpt>
      <trkpt lat="46.02864" lon="4.57211">
        <ele>579</ele>
        <time>2018-08-05T08:06:23.000Z</time>
      </trkpt>
      <trkpt lat="46.02865" lon="4.57215">
        <ele>579</ele>
        <time>2018-08-05T08:06:24.000Z</time>
      </trkpt>
      <trkpt lat="46.02865" lon="4.57218">
        <ele>579</ele>
        <time>2018-08-05T08:06:25.000Z</time>
      </trkpt>
      <trkpt lat="46.02865" lon="4.57221">
        <ele>579</ele>
        <time>2018-08-05T08:06:26.000Z</time>
      </trkpt>
      <trkpt lat="46.02865" lon="4.57224">
        <ele>579</ele>
        <time>2018-08-05T08:06:27.000Z</time>
      </trkpt>
      <trkpt lat="46.02866" lon="4.57227">
        <ele>579</ele>
        <time>2018-08-05T08:06:28.000Z</time>
      </trkpt>
      <trkpt lat="46.02866" lon="4.57229">
        <ele>579</ele>
        <time>2018-08-05T08:06:29.000Z</time>
      </trkpt>
      <trkpt lat="46.02866" lon="4.57232">
        <ele>579</ele>
        <time>2018-08-05T08:06:30.000Z</time>
      </trkpt>
      <trkpt lat="46.02866" lon="4.57235">
        <ele>579</ele>
        <time>2018-08-05T08:06:31.000Z</time>
      </trkpt>
      <trkpt lat="46.02867" lon="4.57238">
        <ele>579</ele>
        <time>2018-08-05T08:06:32.000Z</time>
      </trkpt>
      <trkpt lat="46.02867" lon="4.57241">
        <ele>579</ele>
        <time>2018-08-05T08:06:33.000Z</time>
      </trkpt>
      <trkpt lat="46.02867" lon="4.57244">
        <ele>579</ele>
        <time>2018-08-05T08:06:34.000Z</time>
      </trkpt>
      <trkpt lat="46.02866" lon="4.57247">
        <ele>580</ele>
        <time>2018-08-05T08:06:35.000Z</time>
      </trkpt>
      <trkpt lat="46.02866" lon="4.5725">
        <ele>580</ele>
        <time>2018-08-05T08:06:36.000Z</time>
      </trkpt>
      <trkpt lat="46.02866" lon="4.57253">
        <ele>577</ele>
        <time>2018-08-05T08:06:37.000Z</time>
      </trkpt>
      <trkpt lat="46.02865" lon="4.57256">
        <ele>577</ele>
        <time>2018-08-05T08:06:38.000Z</time>
      </trkpt>
      <trkpt lat="46.02864" lon="4.57259">
        <ele>577</ele>
        <time>2018-08-05T08:06:39.000Z</time>
      </trkpt>
      <trkpt lat="46.02863" lon="4.57262">
        <ele>577</ele>
        <time>2018-08-05T08:06:40.000Z</time>
      </trkpt>
      <trkpt lat="46.02862" lon="4.57264">
        <ele>577</ele>
        <time>2018-08-05T08:06:41.000Z</time>
      </trkpt>
      <trkpt lat="46.0286" lon="4.57267">
        <ele>577</ele>
        <time>2018-08-05T08:06:42.000Z</time>
      </trkpt>
      <trkpt lat="46.02858" lon="4.57269">
        <ele>578</ele>
        <time>2018-08-05T08:06:43.000Z</time>
      </trkpt>
      <trkpt lat="46.02857" lon="4.5727">
        <ele>578</ele>
        <time>2018-08-05T08:06:44.000Z</time>
      </trkpt>
      <trkpt lat="46.02855" lon="4.57272">
        <ele>578</ele>
        <time>2018-08-05T08:06:45.000Z</time>
      </trkpt>
      <trkpt lat="46.02853" lon="4.57274">
        <ele>578</ele>
        <time>2018-08-05T08:06:46.000Z</time>
      </trkpt>
      <trkpt lat="46.0285" lon="4.57275">
        <ele>579</ele>
        <time>2018-08-05T08:06:47.000Z</time>
      </trkpt>
      <trkpt lat="46.02848" lon="4.57276">
        <ele>579</ele>
        <time>2018-08-05T08:06:48.000Z</time>
      </trkpt>
      <trkpt lat="46.02846" lon="4.57277">
        <ele>579</ele>
        <time>2018-08-05T08:06:49.000Z</time>
      </trkpt>
      <trkpt lat="46.02844" lon="4.57278">
        <ele>579</ele>
        <time>2018-08-05T08:06:50.000Z</time>
      </trkpt>
      <trkpt lat="46.02841" lon="4.57279">
        <ele>579</ele>
        <time>2018-08-05T08:06:51.000Z</time>
      </trkpt>
      <trkpt lat="46.02839" lon="4.5728">
        <ele>579</ele>
        <time>2018-08-05T08:06:52.000Z</time>
      </trkpt>
      <trkpt lat="46.02837" lon="4.57281">
        <ele>579</ele>
        <time>2018-08-05T08:06:53.000Z</time>
      </trkpt>
      <trkpt lat="46.02834" lon="4.57282">
        <ele>579</ele>
        <time>2018-08-05T08:06:54.000Z</time>
      </trkpt>
      <trkpt lat="46.02832" lon="4.57283">
        <ele>595</ele>
        <time>2018-08-05T08:06:55.000Z</time>
      </trkpt>
      <trkpt lat="46.0283" lon="4.57284">
        <ele>595</ele>
        <time>2018-08-05T08:06:56.000Z</time>
      </trkpt>
      <trkpt lat="46.02828" lon="4.57285">
        <ele>595</ele>
        <time>2018-08-05T08:06:57.000Z</time>
      </trkpt>
      <trkpt lat="46.02826" lon="4.57286">
        <ele>595</ele>
        <time>2018-08-05T08:06:58.000Z</time>
      </trkpt>
      <trkpt lat="46.02824" lon="4.57287">
        <ele>595</ele>
        <time>2018-08-05T08:06:59.000Z</time>
      </trkpt>
      <trkpt lat="46.02821" lon="4.57288">
        <ele>595</ele>
        <time>2018-08-05T08:07:00.000Z</time>
      </trkpt>
      <trkpt lat="46.02819" lon="4.57289">
        <ele>595</ele>
        <time>2018-08-05T08:07:01.000Z</time>
      </trkpt>
      <trkpt lat="46.02817" lon="4.57291">
        <ele>595</ele>
        <time>2018-08-05T08:07:02.000Z</time>
      </trkpt>
      <trkpt lat="46.02815" lon="4.57292">
        <ele>595</ele>
        <time>2018-08-05T08:07:03.000Z</time>
      </trkpt>
      <trkpt lat="46.02813" lon="4.57293">
        <ele>596</ele>
        <time>2018-08-05T08:07:04.000Z</time>
      </trkpt>
      <trkpt lat="46.02811" lon="4.57294">
        <ele>596</ele>
        <time>2018-08-05T08:07:05.000Z</time>
      </trkpt>
      <trkpt lat="46.02809" lon="4.57296">
        <ele>596</ele>
        <time>2018-08-05T08:07:06.000Z</time>
      </trkpt>
      <trkpt lat="46.02808" lon="4.57297">
        <ele>596</ele>
        <time>2018-08-05T08:07:07.000Z</time>
      </trkpt>
      <trkpt lat="46.02806" lon="4.57299">
        <ele>596</ele>
        <time>2018-08-05T08:07:08.000Z</time>
      </trkpt>
      <trkpt lat="46.02804" lon="4.573">
        <ele>596</ele>
        <time>2018-08-05T08:07:09.000Z</time>
      </trkpt>
      <trkpt lat="46.02802" lon="4.57302">
        <ele>596</ele>
        <time>2018-08-05T08:07:10.000Z</time>
      </trkpt>
      <trkpt lat="46.02801" lon="4.57304">
        <ele>596</ele>
        <time>2018-08-05T08:07:11.000Z</time>
      </trkpt>
      <trkpt lat="46.02799" lon="4.57306">
        <ele>596</ele>
        <time>2018-08-05T08:07:12.000Z</time>
      </trkpt>
      <trkpt lat="46.02798" lon="4.57308">
        <ele>596</ele>
        <time>2018-08-05T08:07:13.000Z</time>
      </trkpt>
      <trkpt lat="46.02796" lon="4.5731">
        <ele>596</ele>
        <time>2018-08-05T08:07:14.000Z</time>
      </trkpt>
      <trkpt lat="46.02795" lon="4.57312">
        <ele>596</ele>
        <time>2018-08-05T08:07:15.000Z</time>
      </trkpt>
      <trkpt lat="46.02793" lon="4.57313">
        <ele>596</ele>
        <time>2018-08-05T08:07:16.000Z</time>
      </trkpt>
      <trkpt lat="46.02792" lon="4.57315">
        <ele>596</ele>
        <time>2018-08-05T08:07:17.000Z</time>
      </trkpt>
      <trkpt lat="46.0279" lon="4.57317">
        <ele>596</ele>
        <time>2018-08-05T08:07:18.000Z</time>
      </trkpt>
      <trkpt lat="46.02788" lon="4.57319">
        <ele>597</ele>
        <time>2018-08-05T08:07:19.000Z</time>
      </trkpt>
      <trkpt lat="46.02787" lon="4.5732">
        <ele>597</ele>
        <time>2018-08-05T08:07:20.000Z</time>
      </trkpt>
      <trkpt lat="46.02785" lon="4.57322">
        <ele>597</ele>
        <time>2018-08-05T08:07:21.000Z</time>
      </trkpt>
      <trkpt lat="46.02784" lon="4.57324">
        <ele>597</ele>
        <time>2018-08-05T08:07:22.000Z</time>
      </trkpt>
      <trkpt lat="46.02783" lon="4.57326">
        <ele>597</ele>
        <time>2018-08-05T08:07:23.000Z</time>
      </trkpt>
      <trkpt lat="46.02781" lon="4.57328">
        <ele>597</ele>
        <time>2018-08-05T08:07:24.000Z</time>
      </trkpt>
      <trkpt lat="46.0278" lon="4.5733">
        <ele>597</ele>
        <time>2018-08-05T08:07:25.000Z</time>
      </trkpt>
      <trkpt lat="46.02778" lon="4.57331">
        <ele>597</ele>
        <time>2018-08-05T08:07:26.000Z</time>
      </trkpt>
      <trkpt lat="46.02776" lon="4.57333">
        <ele>598</ele>
        <time>2018-08-05T08:07:27.000Z</time>
      </trkpt>
      <trkpt lat="46.02775" lon="4.57335">
        <ele>590</ele>
        <time>2018-08-05T08:07:28.000Z</time>
      </trkpt>
      <trkpt lat="46.02773" lon="4.57336">
        <ele>590</ele>
        <time>2018-08-05T08:07:29.000Z</time>
      </trkpt>
      <trkpt lat="46.02772" lon="4.57338">
        <ele>590</ele>
        <time>2018-08-05T08:07:30.000Z</time>
      </trkpt>
      <trkpt lat="46.02771" lon="4.57339">
        <ele>590</ele>
        <time>2018-08-05T08:07:31.000Z</time>
      </trkpt>
      <trkpt lat="46.0277" lon="4.57341">
        <ele>591</ele>
        <time>2018-08-05T08:07:32.000Z</time>
      </trkpt>
      <trkpt lat="46.02768" lon="4.57342">
        <ele>591</ele>
        <time>2018-08-05T08:07:33.000Z</time>
      </trkpt>
      <trkpt lat="46.02766" lon="4.57342">
        <ele>591</ele>
        <time>2018-08-05T08:07:34.000Z</time>
      </trkpt>
      <trkpt lat="46.02765" lon="4.57343">
        <ele>592</ele>
        <time>2018-08-05T08:07:35.000Z</time>
      </trkpt>
      <trkpt lat="46.02763" lon="4.57344">
        <ele>592</ele>
        <time>2018-08-05T08:07:36.000Z</time>
      </trkpt>
      <trkpt lat="46.02761" lon="4.57345">
        <ele>592</ele>
        <time>2018-08-05T08:07:37.000Z</time>
      </trkpt>
      <trkpt lat="46.02759" lon="4.57346">
        <ele>592</ele>
        <time>2018-08-05T08:07:38.000Z</time>
      </trkpt>
      <trkpt lat="46.02757" lon="4.57347">
        <ele>593</ele>
        <time>2018-08-05T08:07:39.000Z</time>
      </trkpt>
      <trkpt lat="46.02755" lon="4.57348">
        <ele>593</ele>
        <time>2018-08-05T08:07:40.000Z</time>
      </trkpt>
      <trkpt lat="46.02753" lon="4.57349">
        <ele>592</ele>
        <time>2018-08-05T08:07:41.000Z</time>
      </trkpt>
      <trkpt lat="46.02751" lon="4.57351">
        <ele>592</ele>
        <time>2018-08-05T08:07:42.000Z</time>
      </trkpt>
      <trkpt lat="46.02749" lon="4.57352">
        <ele>598</ele>
        <time>2018-08-05T08:07:43.000Z</time>
      </trkpt>
      <trkpt lat="46.02746" lon="4.57353">
        <ele>598</ele>
        <time>2018-08-05T08:07:44.000Z</time>
      </trkpt>
      <trkpt lat="46.02744" lon="4.57354">
        <ele>598</ele>
        <time>2018-08-05T08:07:45.000Z</time>
      </trkpt>
      <trkpt lat="46.02742" lon="4.57355">
        <ele>598</ele>
        <time>2018-08-05T08:07:46.000Z</time>
      </trkpt>
      <trkpt lat="46.0274" lon="4.57357">
        <ele>598</ele>
        <time>2018-08-05T08:07:47.000Z</time>
      </trkpt>
      <trkpt lat="46.02738" lon="4.57359">
        <ele>598</ele>
        <time>2018-08-05T08:07:48.000Z</time>
      </trkpt>
      <trkpt lat="46.02735" lon="4.5736">
        <ele>598</ele>
        <time>2018-08-05T08:07:49.000Z</time>
      </trkpt>
      <trkpt lat="46.02733" lon="4.57361">
        <ele>598</ele>
        <time>2018-08-05T08:07:50.000Z</time>
      </trkpt>
      <trkpt lat="46.02731" lon="4.57362">
        <ele>598</ele>
        <time>2018-08-05T08:07:51.000Z</time>
      </trkpt>
      <trkpt lat="46.0273" lon="4.57364">
        <ele>598</ele>
        <time>2018-08-05T08:07:52.000Z</time>
      </trkpt>
      <trkpt lat="46.02728" lon="4.57365">
        <ele>598</ele>
        <time>2018-08-05T08:07:53.000Z</time>
      </trkpt>
      <trkpt lat="46.02726" lon="4.57366">
        <ele>598</ele>
        <time>2018-08-05T08:07:54.000Z</time>
      </trkpt>
      <trkpt lat="46.02724" lon="4.57366">
        <ele>598</ele>
        <time>2018-08-05T08:07:55.000Z</time>
      </trkpt>
      <trkpt lat="46.02722" lon="4.57367">
        <ele>598</ele>
        <time>2018-08-05T08:07:56.000Z</time>
      </trkpt>
      <trkpt lat="46.02719" lon="4.57368">
        <ele>598</ele>
        <time>2018-08-05T08:07:57.000Z</time>
      </trkpt>
      <trkpt lat="46.02717" lon="4.5737">
        <ele>597</ele>
        <time>2018-08-05T08:07:58.000Z</time>
      </trkpt>
      <trkpt lat="46.02715" lon="4.57372">
        <ele>597</ele>
        <time>2018-08-05T08:07:59.000Z</time>
      </trkpt>
      <trkpt lat="46.02713" lon="4.57373">
        <ele>597</ele>
        <time>2018-08-05T08:08:00.000Z</time>
      </trkpt>
      <trkpt lat="46.02711" lon="4.57374">
        <ele>597</ele>
        <time>2018-08-05T08:08:01.000Z</time>
      </trkpt>
      <trkpt lat="46.02709" lon="4.57375">
        <ele>597</ele>
        <time>2018-08-05T08:08:02.000Z</time>
      </trkpt>
      <trkpt lat="46.02708" lon="4.57376">
        <ele>597</ele>
        <time>2018-08-05T08:08:03.000Z</time>
      </trkpt>
      <trkpt lat="46.02707" lon="4.57377">
        <ele>597</ele>
        <time>2018-08-05T08:08:04.000Z</time>
      </trkpt>
      <trkpt lat="46.02707" lon="4.57377">
        <ele>597</ele>
        <time>2018-08-05T08:08:05.000Z</time>
      </trkpt>
      <trkpt lat="46.02706" lon="4.57377">
        <ele>597</ele>
        <time>2018-08-05T08:08:06.000Z</time>
      </trkpt>
      <trkpt lat="46.02706" lon="4.57377">
        <ele>597</ele>
        <time>2018-08-05T08:08:07.000Z</time>
      </trkpt>
      <trkpt lat="46.02706" lon="4.57377">
        <ele>597</ele>
        <time>2018-08-05T08:08:08.000Z</time>
      </trkpt>
      <trkpt lat="46.02706" lon="4.57377">
        <ele>597</ele>
        <time>2018-08-05T08:08:09.000Z</time>
      </trkpt>
      <trkpt lat="46.02707" lon="4.57377">
        <ele>597</ele>
        <time>2018-08-05T08:08:10.000Z</time>
      </trkpt>
      <trkpt lat="46.02707" lon="4.57377">
        <ele>597</ele>
        <time>2018-08-05T08:08:11.000Z</time>
      </trkpt>
      <trkpt lat="46.02707" lon="4.57377">
        <ele>597</ele>
        <time>2018-08-05T08:08:12.000Z</time>
      </trkpt>
      <trkpt lat="46.02707" lon="4.57377">
        <ele>597</ele>
        <time>2018-08-05T08:08:13.000Z</time>
      </trkpt>
      <trkpt lat="46.02707" lon="4.57377">
        <ele>597</ele>
        <time>2018-08-05T08:08:14.000Z</time>
      </trkpt>
      <trkpt lat="46.02702" lon="4.57391">
        <ele>597</ele>
        <time>2018-08-05T08:11:46.000Z</time>
      </trkpt>
      <trkpt lat="46.02701" lon="4.57394">
        <ele>597</ele>
        <time>2018-08-05T08:11:47.000Z</time>
      </trkpt>
      <trkpt lat="46.027" lon="4.57397">
        <ele>597</ele>
        <time>2018-08-05T08:11:48.000Z</time>
      </trkpt>
      <trkpt lat="46.02699" lon="4.574">
        <ele>596</ele>
        <time>2018-08-05T08:11:49.000Z</time>
      </trkpt>
      <trkpt lat="46.02698" lon="4.57403">
        <ele>596</ele>
        <time>2018-08-05T08:11:50.000Z</time>
      </trkpt>
      <trkpt lat="46.02697" lon="4.57406">
        <ele>596</ele>
        <time>2018-08-05T08:11:51.000Z</time>
      </trkpt>
      <trkpt lat="46.02697" lon="4.5741">
        <ele>596</ele>
        <time>2018-08-05T08:11:52.000Z</time>
      </trkpt>
      <trkpt lat="46.02696" lon="4.57413">
        <ele>596</ele>
        <time>2018-08-05T08:11:53.000Z</time>
      </trkpt>
      <trkpt lat="46.02695" lon="4.57416">
        <ele>596</ele>
        <time>2018-08-05T08:11:54.000Z</time>
      </trkpt>
      <trkpt lat="46.02694" lon="4.57418">
        <ele>593</ele>
        <time>2018-08-05T08:11:55.000Z</time>
      </trkpt>
      <trkpt lat="46.02693" lon="4.57421">
        <ele>593</ele>
        <time>2018-08-05T08:11:56.000Z</time>
      </trkpt>
      <trkpt lat="46.02693" lon="4.57424">
        <ele>593</ele>
        <time>2018-08-05T08:11:57.000Z</time>
      </trkpt>
      <trkpt lat="46.02692" lon="4.57427">
        <ele>593</ele>
        <time>2018-08-05T08:11:58.000Z</time>
      </trkpt>
      <trkpt lat="46.02692" lon="4.5743">
        <ele>593</ele>
        <time>2018-08-05T08:11:59.000Z</time>
      </trkpt>
      <trkpt lat="46.02691" lon="4.57435">
        <ele>593</ele>
        <time>2018-08-05T08:12:00.000Z</time>
      </trkpt>
      <trkpt lat="46.02692" lon="4.5744">
        <ele>593</ele>
        <time>2018-08-05T08:12:01.000Z</time>
      </trkpt>
      <trkpt lat="46.02692" lon="4.57445">
        <ele>593</ele>
        <time>2018-08-05T08:12:02.000Z</time>
      </trkpt>
      <trkpt lat="46.02692" lon="4.5745">
        <ele>593</ele>
        <time>2018-08-05T08:12:03.000Z</time>
      </trkpt>
      <trkpt lat="46.02693" lon="4.57455">
        <ele>593</ele>
        <time>2018-08-05T08:12:04.000Z</time>
      </trkpt>
      <trkpt lat="46.02693" lon="4.57461">
        <ele>593</ele>
        <time>2018-08-05T08:12:05.000Z</time>
      </trkpt>
      <trkpt lat="46.02694" lon="4.57467">
        <ele>593</ele>
        <time>2018-08-05T08:12:06.000Z</time>
      </trkpt>
      <trkpt lat="46.02694" lon="4.57473">
        <ele>593</ele>
        <time>2018-08-05T08:12:07.000Z</time>
      </trkpt>
      <trkpt lat="46.02695" lon="4.57478">
        <ele>593</ele>
        <time>2018-08-05T08:12:08.000Z</time>
      </trkpt>
      <trkpt lat="46.02695" lon="4.57484">
        <ele>593</ele>
        <time>2018-08-05T08:12:09.000Z</time>
      </trkpt>
      <trkpt lat="46.02696" lon="4.5749">
        <ele>593</ele>
        <time>2018-08-05T08:12:10.000Z</time>
      </trkpt>
      <trkpt lat="46.02696" lon="4.57497">
        <ele>593</ele>
        <time>2018-08-05T08:12:11.000Z</time>
      </trkpt>
      <trkpt lat="46.02696" lon="4.57503">
        <ele>594</ele>
        <time>2018-08-05T08:12:12.000Z</time>
      </trkpt>
      <trkpt lat="46.02697" lon="4.5751">
        <ele>594</ele>
        <time>2018-08-05T08:12:13.000Z</time>
      </trkpt>
      <trkpt lat="46.02697" lon="4.57516">
        <ele>594</ele>
        <time>2018-08-05T08:12:14.000Z</time>
      </trkpt>
      <trkpt lat="46.02698" lon="4.57522">
        <ele>594</ele>
        <time>2018-08-05T08:12:15.000Z</time>
      </trkpt>
      <trkpt lat="46.02698" lon="4.57528">
        <ele>594</ele>
        <time>2018-08-05T08:12:16.000Z</time>
      </trkpt>
      <trkpt lat="46.02699" lon="4.57534">
        <ele>594</ele>
        <time>2018-08-05T08:12:17.000Z</time>
      </trkpt>
      <trkpt lat="46.02699" lon="4.5754">
        <ele>594</ele>
        <time>2018-08-05T08:12:18.000Z</time>
      </trkpt>
      <trkpt lat="46.02699" lon="4.57546">
        <ele>594</ele>
        <time>2018-08-05T08:12:19.000Z</time>
      </trkpt>
      <trkpt lat="46.02699" lon="4.57552">
        <ele>594</ele>
        <time>2018-08-05T08:12:20.000Z</time>
      </trkpt>
      <trkpt lat="46.02699" lon="4.57558">
        <ele>594</ele>
        <time>2018-08-05T08:12:21.000Z</time>
      </trkpt>
      <trkpt lat="46.02699" lon="4.57563">
        <ele>594</ele>
        <time>2018-08-05T08:12:22.000Z</time>
      </trkpt>
      <trkpt lat="46.02699" lon="4.57569">
        <ele>594</ele>
        <time>2018-08-05T08:12:23.000Z</time>
      </trkpt>
      <trkpt lat="46.02698" lon="4.57575">
        <ele>594</ele>
        <time>2018-08-05T08:12:24.000Z</time>
      </trkpt>
      <trkpt lat="46.02698" lon="4.57581">
        <ele>594</ele>
        <time>2018-08-05T08:12:25.000Z</time>
      </trkpt>
      <trkpt lat="46.02698" lon="4.57587">
        <ele>595</ele>
        <time>2018-08-05T08:12:26.000Z</time>
      </trkpt>
      <trkpt lat="46.02697" lon="4.57592">
        <ele>595</ele>
        <time>2018-08-05T08:12:27.000Z</time>
      </trkpt>
      <trkpt lat="46.02697" lon="4.57598">
        <ele>595</ele>
        <time>2018-08-05T08:12:28.000Z</time>
      </trkpt>
      <trkpt lat="46.02696" lon="4.57604">
        <ele>595</ele>
        <time>2018-08-05T08:12:29.000Z</time>
      </trkpt>
      <trkpt lat="46.02695" lon="4.57609">
        <ele>595</ele>
        <time>2018-08-05T08:12:30.000Z</time>
      </trkpt>
      <trkpt lat="46.02694" lon="4.57613">
        <ele>596</ele>
        <time>2018-08-05T08:12:31.000Z</time>
      </trkpt>
      <trkpt lat="46.02693" lon="4.57617">
        <ele>596</ele>
        <time>2018-08-05T08:12:32.000Z</time>
      </trkpt>
      <trkpt lat="46.02693" lon="4.57622">
        <ele>596</ele>
        <time>2018-08-05T08:12:33.000Z</time>
      </trkpt>
      <trkpt lat="46.02692" lon="4.57626">
        <ele>596</ele>
        <time>2018-08-05T08:12:34.000Z</time>
      </trkpt>
      <trkpt lat="46.02691" lon="4.57631">
        <ele>596</ele>
        <time>2018-08-05T08:12:35.000Z</time>
      </trkpt>
      <trkpt lat="46.02691" lon="4.57636">
        <ele>596</ele>
        <time>2018-08-05T08:12:36.000Z</time>
      </trkpt>
      <trkpt lat="46.0269" lon="4.57641">
        <ele>596</ele>
        <time>2018-08-05T08:12:37.000Z</time>
      </trkpt>
      <trkpt lat="46.02689" lon="4.57646">
        <ele>596</ele>
        <time>2018-08-05T08:12:38.000Z</time>
      </trkpt>
      <trkpt lat="46.02689" lon="4.57651">
        <ele>596</ele>
        <time>2018-08-05T08:12:39.000Z</time>
      </trkpt>
      <trkpt lat="46.02688" lon="4.57657">
        <ele>596</ele>
        <time>2018-08-05T08:12:40.000Z</time>
      </trkpt>
      <trkpt lat="46.02687" lon="4.57663">
        <ele>596</ele>
        <time>2018-08-05T08:12:41.000Z</time>
      </trkpt>
      <trkpt lat="46.02685" lon="4.57669">
        <ele>598</ele>
        <time>2018-08-05T08:12:42.000Z</time>
      </trkpt>
      <trkpt lat="46.02684" lon="4.57675">
        <ele>598</ele>
        <time>2018-08-05T08:12:43.000Z</time>
      </trkpt>
      <trkpt lat="46.02683" lon="4.57681">
        <ele>598</ele>
        <time>2018-08-05T08:12:44.000Z</time>
      </trkpt>
      <trkpt lat="46.02682" lon="4.57686">
        <ele>598</ele>
        <time>2018-08-05T08:12:45.000Z</time>
      </trkpt>
      <trkpt lat="46.0268" lon="4.57691">
        <ele>598</ele>
        <time>2018-08-05T08:12:46.000Z</time>
      </trkpt>
      <trkpt lat="46.02679" lon="4.57696">
        <ele>598</ele>
        <time>2018-08-05T08:12:47.000Z</time>
      </trkpt>
      <trkpt lat="46.02677" lon="4.577">
        <ele>598</ele>
        <time>2018-08-05T08:12:48.000Z</time>
      </trkpt>
      <trkpt lat="46.02676" lon="4.57704">
        <ele>598</ele>
        <time>2018-08-05T08:12:49.000Z</time>
      </trkpt>
      <trkpt lat="46.02674" lon="4.57708">
        <ele>598</ele>
        <time>2018-08-05T08:12:50.000Z</time>
      </trkpt>
      <trkpt lat="46.02673" lon="4.57714">
        <ele>598</ele>
        <time>2018-08-05T08:12:51.000Z</time>
      </trkpt>
      <trkpt lat="46.02672" lon="4.57719">
        <ele>598</ele>
        <time>2018-08-05T08:12:52.000Z</time>
      </trkpt>
      <trkpt lat="46.0267" lon="4.57725">
        <ele>598</ele>
        <time>2018-08-05T08:12:53.000Z</time>
      </trkpt>
      <trkpt lat="46.0267" lon="4.57731">
        <ele>598</ele>
        <time>2018-08-05T08:12:54.000Z</time>
      </trkpt>
      <trkpt lat="46.02669" lon="4.57738">
        <ele>597</ele>
        <time>2018-08-05T08:12:55.000Z</time>
      </trkpt>
      <trkpt lat="46.02669" lon="4.57745">
        <ele>596</ele>
        <time>2018-08-05T08:12:56.000Z</time>
      </trkpt>
      <trkpt lat="46.02669" lon="4.57752">
        <ele>596</ele>
        <time>2018-08-05T08:12:57.000Z</time>
      </trkpt>
      <trkpt lat="46.02669" lon="4.5776">
        <ele>598</ele>
        <time>2018-08-05T08:12:58.000Z</time>
      </trkpt>
      <trkpt lat="46.02669" lon="4.57768">
        <ele>599</ele>
        <time>2018-08-05T08:12:59.000Z</time>
      </trkpt>
      <trkpt lat="46.0267" lon="4.57776">
        <ele>600</ele>
        <time>2018-08-05T08:13:00.000Z</time>
      </trkpt>
      <trkpt lat="46.0267" lon="4.57785">
        <ele>600</ele>
        <time>2018-08-05T08:13:01.000Z</time>
      </trkpt>
      <trkpt lat="46.02671" lon="4.57794">
        <ele>600</ele>
        <time>2018-08-05T08:13:02.000Z</time>
      </trkpt>
      <trkpt lat="46.02671" lon="4.57803">
        <ele>599</ele>
        <time>2018-08-05T08:13:03.000Z</time>
      </trkpt>
      <trkpt lat="46.02671" lon="4.57812">
        <ele>598</ele>
        <time>2018-08-05T08:13:04.000Z</time>
      </trkpt>
      <trkpt lat="46.02671" lon="4.57822">
        <ele>596</ele>
        <time>2018-08-05T08:13:05.000Z</time>
      </trkpt>
      <trkpt lat="46.02671" lon="4.57833">
        <ele>594</ele>
        <time>2018-08-05T08:13:06.000Z</time>
      </trkpt>
      <trkpt lat="46.0267" lon="4.57843">
        <ele>596</ele>
        <time>2018-08-05T08:13:07.000Z</time>
      </trkpt>
      <trkpt lat="46.0267" lon="4.57854">
        <ele>599</ele>
        <time>2018-08-05T08:13:08.000Z</time>
      </trkpt>
      <trkpt lat="46.02669" lon="4.57865">
        <ele>600</ele>
        <time>2018-08-05T08:13:09.000Z</time>
      </trkpt>
      <trkpt lat="46.02668" lon="4.57876">
        <ele>600</ele>
        <time>2018-08-05T08:13:10.000Z</time>
      </trkpt>
      <trkpt lat="46.02668" lon="4.57888">
        <ele>600</ele>
        <time>2018-08-05T08:13:11.000Z</time>
      </trkpt>
      <trkpt lat="46.02668" lon="4.579">
        <ele>598</ele>
        <time>2018-08-05T08:13:12.000Z</time>
      </trkpt>
      <trkpt lat="46.02669" lon="4.57912">
        <ele>594</ele>
        <time>2018-08-05T08:13:13.000Z</time>
      </trkpt>
      <trkpt lat="46.02671" lon="4.57925">
        <ele>595</ele>
        <time>2018-08-05T08:13:14.000Z</time>
      </trkpt>
      <trkpt lat="46.02674" lon="4.57937">
        <ele>598</ele>
        <time>2018-08-05T08:13:15.000Z</time>
      </trkpt>
      <trkpt lat="46.02678" lon="4.57948">
        <ele>599</ele>
        <time>2018-08-05T08:13:16.000Z</time>
      </trkpt>
      <trkpt lat="46.02683" lon="4.57959">
        <ele>600</ele>
        <time>2018-08-05T08:13:17.000Z</time>
      </trkpt>
      <trkpt lat="46.02688" lon="4.57969">
        <ele>600</ele>
        <time>2018-08-05T08:13:18.000Z</time>
      </trkpt>
      <trkpt lat="46.02694" lon="4.5798">
        <ele>600</ele>
        <time>2018-08-05T08:13:19.000Z</time>
      </trkpt>
      <trkpt lat="46.02699" lon="4.57991">
        <ele>601</ele>
        <time>2018-08-05T08:13:20.000Z</time>
      </trkpt>
      <trkpt lat="46.02704" lon="4.58003">
        <ele>599</ele>
        <time>2018-08-05T08:13:21.000Z</time>
      </trkpt>
      <trkpt lat="46.02707" lon="4.58015">
        <ele>600</ele>
        <time>2018-08-05T08:13:22.000Z</time>
      </trkpt>
      <trkpt lat="46.02711" lon="4.58028">
        <ele>601</ele>
        <time>2018-08-05T08:13:23.000Z</time>
      </trkpt>
      <trkpt lat="46.02713" lon="4.58041">
        <ele>601</ele>
        <time>2018-08-05T08:13:24.000Z</time>
      </trkpt>
      <trkpt lat="46.02713" lon="4.58054">
        <ele>601</ele>
        <time>2018-08-05T08:13:25.000Z</time>
      </trkpt>
      <trkpt lat="46.02712" lon="4.58067">
        <ele>600</ele>
        <time>2018-08-05T08:13:26.000Z</time>
      </trkpt>
      <trkpt lat="46.02708" lon="4.5808">
        <ele>599</ele>
        <time>2018-08-05T08:13:27.000Z</time>
      </trkpt>
      <trkpt lat="46.02702" lon="4.5809">
        <ele>601</ele>
        <time>2018-08-05T08:13:28.000Z</time>
      </trkpt>
      <trkpt lat="46.02694" lon="4.58098">
        <ele>600</ele>
        <time>2018-08-05T08:13:29.000Z</time>
      </trkpt>
      <trkpt lat="46.02684" lon="4.58102">
        <ele>599</ele>
        <time>2018-08-05T08:13:30.000Z</time>
      </trkpt>
      <trkpt lat="46.02674" lon="4.58102">
        <ele>598</ele>
        <time>2018-08-05T08:13:31.000Z</time>
      </trkpt>
      <trkpt lat="46.02664" lon="4.58099">
        <ele>593</ele>
        <time>2018-08-05T08:13:32.000Z</time>
      </trkpt>
      <trkpt lat="46.02655" lon="4.58094">
        <ele>592</ele>
        <time>2018-08-05T08:13:33.000Z</time>
      </trkpt>
      <trkpt lat="46.02646" lon="4.58088">
        <ele>592</ele>
        <time>2018-08-05T08:13:34.000Z</time>
      </trkpt>
      <trkpt lat="46.02637" lon="4.58082">
        <ele>584</ele>
        <time>2018-08-05T08:13:35.000Z</time>
      </trkpt>
      <trkpt lat="46.02627" lon="4.58078">
        <ele>583</ele>
        <time>2018-08-05T08:13:36.000Z</time>
      </trkpt>
      <trkpt lat="46.02617" lon="4.58074">
        <ele>582</ele>
        <time>2018-08-05T08:13:37.000Z</time>
      </trkpt>
      <trkpt lat="46.02607" lon="4.58072">
        <ele>582</ele>
        <time>2018-08-05T08:13:38.000Z</time>
      </trkpt>
      <trkpt lat="46.02597" lon="4.58071">
        <ele>582</ele>
        <time>2018-08-05T08:13:39.000Z</time>
      </trkpt>
      <trkpt lat="46.02587" lon="4.58072">
        <ele>583</ele>
        <time>2018-08-05T08:13:40.000Z</time>
      </trkpt>
      <trkpt lat="46.02578" lon="4.58075">
        <ele>579</ele>
        <time>2018-08-05T08:13:41.000Z</time>
      </trkpt>
      <trkpt lat="46.02568" lon="4.58079">
        <ele>576</ele>
        <time>2018-08-05T08:13:42.000Z</time>
      </trkpt>
      <trkpt lat="46.02558" lon="4.58083">
        <ele>584</ele>
        <time>2018-08-05T08:13:43.000Z</time>
      </trkpt>
      <trkpt lat="46.02549" lon="4.58089">
        <ele>583</ele>
        <time>2018-08-05T08:13:44.000Z</time>
      </trkpt>
      <trkpt lat="46.0254" lon="4.58095">
        <ele>582</ele>
        <time>2018-08-05T08:13:45.000Z</time>
      </trkpt>
      <trkpt lat="46.02531" lon="4.58102">
        <ele>582</ele>
        <time>2018-08-05T08:13:46.000Z</time>
      </trkpt>
      <trkpt lat="46.02523" lon="4.5811">
        <ele>582</ele>
        <time>2018-08-05T08:13:47.000Z</time>
      </trkpt>
      <trkpt lat="46.02515" lon="4.58118">
        <ele>582</ele>
        <time>2018-08-05T08:13:48.000Z</time>
      </trkpt>
      <trkpt lat="46.02508" lon="4.58128">
        <ele>583</ele>
        <time>2018-08-05T08:13:49.000Z</time>
      </trkpt>
      <trkpt lat="46.02501" lon="4.58138">
        <ele>584</ele>
        <time>2018-08-05T08:13:50.000Z</time>
      </trkpt>
      <trkpt lat="46.02494" lon="4.58148">
        <ele>575</ele>
        <time>2018-08-05T08:13:51.000Z</time>
      </trkpt>
      <trkpt lat="46.02487" lon="4.58158">
        <ele>576</ele>
        <time>2018-08-05T08:13:52.000Z</time>
      </trkpt>
      <trkpt lat="46.0248" lon="4.58168">
        <ele>582</ele>
        <time>2018-08-05T08:13:53.000Z</time>
      </trkpt>
      <trkpt lat="46.02473" lon="4.58179">
        <ele>581</ele>
        <time>2018-08-05T08:13:54.000Z</time>
      </trkpt>
      <trkpt lat="46.02467" lon="4.58189">
        <ele>581</ele>
        <time>2018-08-05T08:13:55.000Z</time>
      </trkpt>
      <trkpt lat="46.0246" lon="4.582">
        <ele>581</ele>
        <time>2018-08-05T08:13:56.000Z</time>
      </trkpt>
      <trkpt lat="46.02454" lon="4.58211">
        <ele>581</ele>
        <time>2018-08-05T08:13:57.000Z</time>
      </trkpt>
      <trkpt lat="46.02447" lon="4.58222">
        <ele>581</ele>
        <time>2018-08-05T08:13:58.000Z</time>
      </trkpt>
      <trkpt lat="46.0244" lon="4.58233">
        <ele>580</ele>
        <time>2018-08-05T08:13:59.000Z</time>
      </trkpt>
      <trkpt lat="46.02433" lon="4.58244">
        <ele>580</ele>
        <time>2018-08-05T08:14:00.000Z</time>
      </trkpt>
      <trkpt lat="46.02426" lon="4.58254">
        <ele>583</ele>
        <time>2018-08-05T08:14:01.000Z</time>
      </trkpt>
      <trkpt lat="46.02418" lon="4.58264">
        <ele>585</ele>
        <time>2018-08-05T08:14:02.000Z</time>
      </trkpt>
      <trkpt lat="46.0241" lon="4.58273">
        <ele>577</ele>
        <time>2018-08-05T08:14:03.000Z</time>
      </trkpt>
      <trkpt lat="46.02401" lon="4.58282">
        <ele>577</ele>
        <time>2018-08-05T08:14:04.000Z</time>
      </trkpt>
      <trkpt lat="46.02392" lon="4.5829">
        <ele>577</ele>
        <time>2018-08-05T08:14:05.000Z</time>
      </trkpt>
      <trkpt lat="46.02383" lon="4.58298">
        <ele>577</ele>
        <time>2018-08-05T08:14:06.000Z</time>
      </trkpt>
      <trkpt lat="46.02374" lon="4.58307">
        <ele>577</ele>
        <time>2018-08-05T08:14:07.000Z</time>
      </trkpt>
      <trkpt lat="46.02365" lon="4.58316">
        <ele>576</ele>
        <time>2018-08-05T08:14:08.000Z</time>
      </trkpt>
      <trkpt lat="46.02356" lon="4.58324">
        <ele>576</ele>
        <time>2018-08-05T08:14:09.000Z</time>
      </trkpt>
      <trkpt lat="46.02346" lon="4.58332">
        <ele>575</ele>
        <time>2018-08-05T08:14:10.000Z</time>
      </trkpt>
      <trkpt lat="46.02336" lon="4.58341">
        <ele>580</ele>
        <time>2018-08-05T08:14:11.000Z</time>
      </trkpt>
      <trkpt lat="46.02326" lon="4.5835">
        <ele>575</ele>
        <time>2018-08-05T08:14:12.000Z</time>
      </trkpt>
      <trkpt lat="46.02317" lon="4.58358">
        <ele>574</ele>
        <time>2018-08-05T08:14:13.000Z</time>
      </trkpt>
      <trkpt lat="46.02307" lon="4.58367">
        <ele>574</ele>
        <time>2018-08-05T08:14:14.000Z</time>
      </trkpt>
      <trkpt lat="46.02296" lon="4.58376">
        <ele>574</ele>
        <time>2018-08-05T08:14:15.000Z</time>
      </trkpt>
      <trkpt lat="46.02286" lon="4.58385">
        <ele>573</ele>
        <time>2018-08-05T08:14:16.000Z</time>
      </trkpt>
      <trkpt lat="46.02276" lon="4.58394">
        <ele>573</ele>
        <time>2018-08-05T08:14:17.000Z</time>
      </trkpt>
      <trkpt lat="46.02266" lon="4.58403">
        <ele>572</ele>
        <time>2018-08-05T08:14:18.000Z</time>
      </trkpt>
      <trkpt lat="46.02257" lon="4.58413">
        <ele>571</ele>
        <time>2018-08-05T08:14:19.000Z</time>
      </trkpt>
      <trkpt lat="46.02248" lon="4.58423">
        <ele>569</ele>
        <time>2018-08-05T08:14:20.000Z</time>
      </trkpt>
      <trkpt lat="46.0224" lon="4.58435">
        <ele>567</ele>
        <time>2018-08-05T08:14:21.000Z</time>
      </trkpt>
      <trkpt lat="46.02232" lon="4.58447">
        <ele>566</ele>
        <time>2018-08-05T08:14:22.000Z</time>
      </trkpt>
      <trkpt lat="46.02225" lon="4.5846">
        <ele>566</ele>
        <time>2018-08-05T08:14:23.000Z</time>
      </trkpt>
      <trkpt lat="46.02219" lon="4.58474">
        <ele>566</ele>
        <time>2018-08-05T08:14:24.000Z</time>
      </trkpt>
      <trkpt lat="46.02213" lon="4.58488">
        <ele>566</ele>
        <time>2018-08-05T08:14:25.000Z</time>
      </trkpt>
      <trkpt lat="46.02209" lon="4.58502">
        <ele>574</ele>
        <time>2018-08-05T08:14:26.000Z</time>
      </trkpt>
      <trkpt lat="46.02206" lon="4.58517">
        <ele>574</ele>
        <time>2018-08-05T08:14:27.000Z</time>
      </trkpt>
      <trkpt lat="46.02203" lon="4.58532">
        <ele>574</ele>
        <time>2018-08-05T08:14:28.000Z</time>
      </trkpt>
      <trkpt lat="46.022" lon="4.58546">
        <ele>575</ele>
        <time>2018-08-05T08:14:29.000Z</time>
      </trkpt>
      <trkpt lat="46.02196" lon="4.58561">
        <ele>576</ele>
        <time>2018-08-05T08:14:30.000Z</time>
      </trkpt>
      <trkpt lat="46.02191" lon="4.58575">
        <ele>575</ele>
        <time>2018-08-05T08:14:31.000Z</time>
      </trkpt>
      <trkpt lat="46.02185" lon="4.58587">
        <ele>581</ele>
        <time>2018-08-05T08:14:32.000Z</time>
      </trkpt>
      <trkpt lat="46.02178" lon="4.58598">
        <ele>580</ele>
        <time>2018-08-05T08:14:33.000Z</time>
      </trkpt>
      <trkpt lat="46.0217" lon="4.58607">
        <ele>582</ele>
        <time>2018-08-05T08:14:34.000Z</time>
      </trkpt>
      <trkpt lat="46.02162" lon="4.58616">
        <ele>566</ele>
        <time>2018-08-05T08:14:35.000Z</time>
      </trkpt>
      <trkpt lat="46.02154" lon="4.58625">
        <ele>567</ele>
        <time>2018-08-05T08:14:36.000Z</time>
      </trkpt>
      <trkpt lat="46.02147" lon="4.58634">
        <ele>567</ele>
        <time>2018-08-05T08:14:37.000Z</time>
      </trkpt>
      <trkpt lat="46.0214" lon="4.58645">
        <ele>567</ele>
        <time>2018-08-05T08:14:38.000Z</time>
      </trkpt>
      <trkpt lat="46.02133" lon="4.58656">
        <ele>567</ele>
        <time>2018-08-05T08:14:39.000Z</time>
      </trkpt>
      <trkpt lat="46.02128" lon="4.58668">
        <ele>574</ele>
        <time>2018-08-05T08:14:40.000Z</time>
      </trkpt>
      <trkpt lat="46.02123" lon="4.58681">
        <ele>574</ele>
        <time>2018-08-05T08:14:41.000Z</time>
      </trkpt>
      <trkpt lat="46.02119" lon="4.58695">
        <ele>574</ele>
        <time>2018-08-05T08:14:42.000Z</time>
      </trkpt>
      <trkpt lat="46.02116" lon="4.58708">
        <ele>575</ele>
        <time>2018-08-05T08:14:43.000Z</time>
      </trkpt>
      <trkpt lat="46.02112" lon="4.58722">
        <ele>575</ele>
        <time>2018-08-05T08:14:44.000Z</time>
      </trkpt>
      <trkpt lat="46.02109" lon="4.58736">
        <ele>575</ele>
        <time>2018-08-05T08:14:45.000Z</time>
      </trkpt>
      <trkpt lat="46.02106" lon="4.5875">
        <ele>583</ele>
        <time>2018-08-05T08:14:46.000Z</time>
      </trkpt>
      <trkpt lat="46.02101" lon="4.58763">
        <ele>583</ele>
        <time>2018-08-05T08:14:47.000Z</time>
      </trkpt>
      <trkpt lat="46.02094" lon="4.58774">
        <ele>584</ele>
        <time>2018-08-05T08:14:48.000Z</time>
      </trkpt>
      <trkpt lat="46.02085" lon="4.58781">
        <ele>585</ele>
        <time>2018-08-05T08:14:49.000Z</time>
      </trkpt>
      <trkpt lat="46.02076" lon="4.58783">
        <ele>574</ele>
        <time>2018-08-05T08:14:50.000Z</time>
      </trkpt>
      <trkpt lat="46.02066" lon="4.58782">
        <ele>574</ele>
        <time>2018-08-05T08:14:51.000Z</time>
      </trkpt>
      <trkpt lat="46.02056" lon="4.58779">
        <ele>573</ele>
        <time>2018-08-05T08:14:52.000Z</time>
      </trkpt>
      <trkpt lat="46.02047" lon="4.58776">
        <ele>573</ele>
        <time>2018-08-05T08:14:53.000Z</time>
      </trkpt>
      <trkpt lat="46.02037" lon="4.58774">
        <ele>572</ele>
        <time>2018-08-05T08:14:54.000Z</time>
      </trkpt>
      <trkpt lat="46.02027" lon="4.58774">
        <ele>571</ele>
        <time>2018-08-05T08:14:55.000Z</time>
      </trkpt>
      <trkpt lat="46.02017" lon="4.58776">
        <ele>571</ele>
        <time>2018-08-05T08:14:56.000Z</time>
      </trkpt>
      <trkpt lat="46.02008" lon="4.58779">
        <ele>571</ele>
        <time>2018-08-05T08:14:57.000Z</time>
      </trkpt>
      <trkpt lat="46.01999" lon="4.58785">
        <ele>561</ele>
        <time>2018-08-05T08:14:58.000Z</time>
      </trkpt>
      <trkpt lat="46.01991" lon="4.58793">
        <ele>561</ele>
        <time>2018-08-05T08:14:59.000Z</time>
      </trkpt>
      <trkpt lat="46.01984" lon="4.58802">
        <ele>561</ele>
        <time>2018-08-05T08:15:00.000Z</time>
      </trkpt>
      <trkpt lat="46.01979" lon="4.58813">
        <ele>562</ele>
        <time>2018-08-05T08:15:01.000Z</time>
      </trkpt>
      <trkpt lat="46.01976" lon="4.58826">
        <ele>563</ele>
        <time>2018-08-05T08:15:02.000Z</time>
      </trkpt>
      <trkpt lat="46.01975" lon="4.58839">
        <ele>568</ele>
        <time>2018-08-05T08:15:03.000Z</time>
      </trkpt>
      <trkpt lat="46.01975" lon="4.58853">
        <ele>568</ele>
        <time>2018-08-05T08:15:04.000Z</time>
      </trkpt>
      <trkpt lat="46.01975" lon="4.58866">
        <ele>568</ele>
        <time>2018-08-05T08:15:05.000Z</time>
      </trkpt>
      <trkpt lat="46.01975" lon="4.5888">
        <ele>569</ele>
        <time>2018-08-05T08:15:06.000Z</time>
      </trkpt>
      <trkpt lat="46.01975" lon="4.58893">
        <ele>570</ele>
        <time>2018-08-05T08:15:07.000Z</time>
      </trkpt>
      <trkpt lat="46.01973" lon="4.58905">
        <ele>571</ele>
        <time>2018-08-05T08:15:08.000Z</time>
      </trkpt>
      <trkpt lat="46.0197" lon="4.58917">
        <ele>579</ele>
        <time>2018-08-05T08:15:09.000Z</time>
      </trkpt>
      <trkpt lat="46.01965" lon="4.58928">
        <ele>579</ele>
        <time>2018-08-05T08:15:10.000Z</time>
      </trkpt>
      <trkpt lat="46.01959" lon="4.58937">
        <ele>578</ele>
        <time>2018-08-05T08:15:11.000Z</time>
      </trkpt>
      <trkpt lat="46.01953" lon="4.58946">
        <ele>578</ele>
        <time>2018-08-05T08:15:12.000Z</time>
      </trkpt>
      <trkpt lat="46.01946" lon="4.58954">
        <ele>578</ele>
        <time>2018-08-05T08:15:13.000Z</time>
      </trkpt>
      <trkpt lat="46.01939" lon="4.58961">
        <ele>577</ele>
        <time>2018-08-05T08:15:14.000Z</time>
      </trkpt>
      <trkpt lat="46.01931" lon="4.58968">
        <ele>577</ele>
        <time>2018-08-05T08:15:15.000Z</time>
      </trkpt>
      <trkpt lat="46.01924" lon="4.58974">
        <ele>577</ele>
        <time>2018-08-05T08:15:16.000Z</time>
      </trkpt>
      <trkpt lat="46.01916" lon="4.5898">
        <ele>568</ele>
        <time>2018-08-05T08:15:17.000Z</time>
      </trkpt>
      <trkpt lat="46.01908" lon="4.58985">
        <ele>569</ele>
        <time>2018-08-05T08:15:18.000Z</time>
      </trkpt>
      <trkpt lat="46.019" lon="4.58989">
        <ele>569</ele>
        <time>2018-08-05T08:15:19.000Z</time>
      </trkpt>
      <trkpt lat="46.01891" lon="4.58992">
        <ele>567</ele>
        <time>2018-08-05T08:15:20.000Z</time>
      </trkpt>
      <trkpt lat="46.01882" lon="4.58995">
        <ele>566</ele>
        <time>2018-08-05T08:15:21.000Z</time>
      </trkpt>
      <trkpt lat="46.01873" lon="4.58998">
        <ele>565</ele>
        <time>2018-08-05T08:15:22.000Z</time>
      </trkpt>
      <trkpt lat="46.01865" lon="4.59">
        <ele>565</ele>
        <time>2018-08-05T08:15:23.000Z</time>
      </trkpt>
      <trkpt lat="46.01856" lon="4.59001">
        <ele>576</ele>
        <time>2018-08-05T08:15:24.000Z</time>
      </trkpt>
      <trkpt lat="46.01847" lon="4.59001">
        <ele>573</ele>
        <time>2018-08-05T08:15:25.000Z</time>
      </trkpt>
      <trkpt lat="46.01838" lon="4.59">
        <ele>569</ele>
        <time>2018-08-05T08:15:26.000Z</time>
      </trkpt>
      <trkpt lat="46.01829" lon="4.58999">
        <ele>565</ele>
        <time>2018-08-05T08:15:27.000Z</time>
      </trkpt>
      <trkpt lat="46.01819" lon="4.58997">
        <ele>562</ele>
        <time>2018-08-05T08:15:28.000Z</time>
      </trkpt>
      <trkpt lat="46.0181" lon="4.58995">
        <ele>561</ele>
        <time>2018-08-05T08:15:29.000Z</time>
      </trkpt>
      <trkpt lat="46.01801" lon="4.58994">
        <ele>560</ele>
        <time>2018-08-05T08:15:30.000Z</time>
      </trkpt>
      <trkpt lat="46.01792" lon="4.58993">
        <ele>559</ele>
        <time>2018-08-05T08:15:31.000Z</time>
      </trkpt>
      <trkpt lat="46.01783" lon="4.58993">
        <ele>559</ele>
        <time>2018-08-05T08:15:32.000Z</time>
      </trkpt>
      <trkpt lat="46.01775" lon="4.58994">
        <ele>560</ele>
        <time>2018-08-05T08:15:33.000Z</time>
      </trkpt>
      <trkpt lat="46.01766" lon="4.58997">
        <ele>561</ele>
        <time>2018-08-05T08:15:34.000Z</time>
      </trkpt>
      <trkpt lat="46.01758" lon="4.59001">
        <ele>567</ele>
        <time>2018-08-05T08:15:35.000Z</time>
      </trkpt>
      <trkpt lat="46.0175" lon="4.59006">
        <ele>565</ele>
        <time>2018-08-05T08:15:36.000Z</time>
      </trkpt>
      <trkpt lat="46.01742" lon="4.59011">
        <ele>565</ele>
        <time>2018-08-05T08:15:37.000Z</time>
      </trkpt>
      <trkpt lat="46.01734" lon="4.59017">
        <ele>565</ele>
        <time>2018-08-05T08:15:38.000Z</time>
      </trkpt>
      <trkpt lat="46.01726" lon="4.59023">
        <ele>565</ele>
        <time>2018-08-05T08:15:39.000Z</time>
      </trkpt>
      <trkpt lat="46.01719" lon="4.5903">
        <ele>565</ele>
        <time>2018-08-05T08:15:40.000Z</time>
      </trkpt>
      <trkpt lat="46.01712" lon="4.59037">
        <ele>565</ele>
        <time>2018-08-05T08:15:41.000Z</time>
      </trkpt>
      <trkpt lat="46.01705" lon="4.59045">
        <ele>565</ele>
        <time>2018-08-05T08:15:42.000Z</time>
      </trkpt>
      <trkpt lat="46.01699" lon="4.59054">
        <ele>565</ele>
        <time>2018-08-05T08:15:43.000Z</time>
      </trkpt>
      <trkpt lat="46.01693" lon="4.59063">
        <ele>565</ele>
        <time>2018-08-05T08:15:44.000Z</time>
      </trkpt>
      <trkpt lat="46.01687" lon="4.59073">
        <ele>565</ele>
        <time>2018-08-05T08:15:45.000Z</time>
      </trkpt>
      <trkpt lat="46.01683" lon="4.59084">
        <ele>567</ele>
        <time>2018-08-05T08:15:46.000Z</time>
      </trkpt>
      <trkpt lat="46.01681" lon="4.59096">
        <ele>567</ele>
        <time>2018-08-05T08:15:47.000Z</time>
      </trkpt>
      <trkpt lat="46.01681" lon="4.59109">
        <ele>567</ele>
        <time>2018-08-05T08:15:48.000Z</time>
      </trkpt>
      <trkpt lat="46.01682" lon="4.59122">
        <ele>567</ele>
        <time>2018-08-05T08:15:49.000Z</time>
      </trkpt>
      <trkpt lat="46.01685" lon="4.59135">
        <ele>567</ele>
        <time>2018-08-05T08:15:50.000Z</time>
      </trkpt>
      <trkpt lat="46.01689" lon="4.59146">
        <ele>567</ele>
        <time>2018-08-05T08:15:51.000Z</time>
      </trkpt>
      <trkpt lat="46.01695" lon="4.59156">
        <ele>567</ele>
        <time>2018-08-05T08:15:52.000Z</time>
      </trkpt>
      <trkpt lat="46.01701" lon="4.59165">
        <ele>568</ele>
        <time>2018-08-05T08:15:53.000Z</time>
      </trkpt>
      <trkpt lat="46.01709" lon="4.59173">
        <ele>565</ele>
        <time>2018-08-05T08:15:54.000Z</time>
      </trkpt>
      <trkpt lat="46.01715" lon="4.5918">
        <ele>566</ele>
        <time>2018-08-05T08:15:55.000Z</time>
      </trkpt>
      <trkpt lat="46.01722" lon="4.59187">
        <ele>567</ele>
        <time>2018-08-05T08:15:56.000Z</time>
      </trkpt>
      <trkpt lat="46.01729" lon="4.59195">
        <ele>567</ele>
        <time>2018-08-05T08:15:57.000Z</time>
      </trkpt>
      <trkpt lat="46.01736" lon="4.59203">
        <ele>567</ele>
        <time>2018-08-05T08:15:58.000Z</time>
      </trkpt>
      <trkpt lat="46.01741" lon="4.59212">
        <ele>567</ele>
        <time>2018-08-05T08:15:59.000Z</time>
      </trkpt>
      <trkpt lat="46.01747" lon="4.59222">
        <ele>567</ele>
        <time>2018-08-05T08:16:00.000Z</time>
      </trkpt>
      <trkpt lat="46.01751" lon="4.59233">
        <ele>579</ele>
        <time>2018-08-05T08:16:01.000Z</time>
      </trkpt>
      <trkpt lat="46.01754" lon="4.59244">
        <ele>575</ele>
        <time>2018-08-05T08:16:02.000Z</time>
      </trkpt>
      <trkpt lat="46.01757" lon="4.59256">
        <ele>576</ele>
        <time>2018-08-05T08:16:03.000Z</time>
      </trkpt>
      <trkpt lat="46.01758" lon="4.59269">
        <ele>580</ele>
        <time>2018-08-05T08:16:04.000Z</time>
      </trkpt>
      <trkpt lat="46.01758" lon="4.59281">
        <ele>582</ele>
        <time>2018-08-05T08:16:05.000Z</time>
      </trkpt>
      <trkpt lat="46.01756" lon="4.59293">
        <ele>583</ele>
        <time>2018-08-05T08:16:06.000Z</time>
      </trkpt>
      <trkpt lat="46.01752" lon="4.59305">
        <ele>582</ele>
        <time>2018-08-05T08:16:07.000Z</time>
      </trkpt>
      <trkpt lat="46.01748" lon="4.59315">
        <ele>567</ele>
        <time>2018-08-05T08:16:08.000Z</time>
      </trkpt>
      <trkpt lat="46.01742" lon="4.59325">
        <ele>568</ele>
        <time>2018-08-05T08:16:09.000Z</time>
      </trkpt>
      <trkpt lat="46.01736" lon="4.59334">
        <ele>570</ele>
        <time>2018-08-05T08:16:10.000Z</time>
      </trkpt>
      <trkpt lat="46.0173" lon="4.59343">
        <ele>569</ele>
        <time>2018-08-05T08:16:11.000Z</time>
      </trkpt>
      <trkpt lat="46.01724" lon="4.59352">
        <ele>568</ele>
        <time>2018-08-05T08:16:12.000Z</time>
      </trkpt>
      <trkpt lat="46.01718" lon="4.59362">
        <ele>567</ele>
        <time>2018-08-05T08:16:13.000Z</time>
      </trkpt>
      <trkpt lat="46.01712" lon="4.59372">
        <ele>567</ele>
        <time>2018-08-05T08:16:14.000Z</time>
      </trkpt>
      <trkpt lat="46.01706" lon="4.59382">
        <ele>566</ele>
        <time>2018-08-05T08:16:15.000Z</time>
      </trkpt>
      <trkpt lat="46.017" lon="4.59392">
        <ele>566</ele>
        <time>2018-08-05T08:16:16.000Z</time>
      </trkpt>
      <trkpt lat="46.01694" lon="4.59401">
        <ele>565</ele>
        <time>2018-08-05T08:16:17.000Z</time>
      </trkpt>
      <trkpt lat="46.01689" lon="4.59411">
        <ele>564</ele>
        <time>2018-08-05T08:16:18.000Z</time>
      </trkpt>
      <trkpt lat="46.01684" lon="4.59422">
        <ele>567</ele>
        <time>2018-08-05T08:16:19.000Z</time>
      </trkpt>
      <trkpt lat="46.0168" lon="4.59433">
        <ele>568</ele>
        <time>2018-08-05T08:16:20.000Z</time>
      </trkpt>
      <trkpt lat="46.01677" lon="4.59445">
        <ele>569</ele>
        <time>2018-08-05T08:16:21.000Z</time>
      </trkpt>
      <trkpt lat="46.01674" lon="4.59457">
        <ele>569</ele>
        <time>2018-08-05T08:16:22.000Z</time>
      </trkpt>
      <trkpt lat="46.01671" lon="4.59468">
        <ele>569</ele>
        <time>2018-08-05T08:16:23.000Z</time>
      </trkpt>
      <trkpt lat="46.0167" lon="4.59481">
        <ele>568</ele>
        <time>2018-08-05T08:16:24.000Z</time>
      </trkpt>
      <trkpt lat="46.01669" lon="4.59494">
        <ele>565</ele>
        <time>2018-08-05T08:16:25.000Z</time>
      </trkpt>
      <trkpt lat="46.01671" lon="4.59507">
        <ele>564</ele>
        <time>2018-08-05T08:16:26.000Z</time>
      </trkpt>
      <trkpt lat="46.01673" lon="4.59519">
        <ele>566</ele>
        <time>2018-08-05T08:16:27.000Z</time>
      </trkpt>
      <trkpt lat="46.01677" lon="4.5953">
        <ele>567</ele>
        <time>2018-08-05T08:16:28.000Z</time>
      </trkpt>
      <trkpt lat="46.01682" lon="4.59539">
        <ele>567</ele>
        <time>2018-08-05T08:16:29.000Z</time>
      </trkpt>
      <trkpt lat="46.01688" lon="4.59546">
        <ele>567</ele>
        <time>2018-08-05T08:16:30.000Z</time>
      </trkpt>
      <trkpt lat="46.01694" lon="4.59551">
        <ele>567</ele>
        <time>2018-08-05T08:16:31.000Z</time>
      </trkpt>
      <trkpt lat="46.01698" lon="4.59555">
        <ele>568</ele>
        <time>2018-08-05T08:16:32.000Z</time>
      </trkpt>
      <trkpt lat="46.01703" lon="4.59558">
        <ele>568</ele>
        <time>2018-08-05T08:16:33.000Z</time>
      </trkpt>
      <trkpt lat="46.01705" lon="4.59561">
        <ele>569</ele>
        <time>2018-08-05T08:16:34.000Z</time>
      </trkpt>
      <trkpt lat="46.01708" lon="4.59563">
        <ele>569</ele>
        <time>2018-08-05T08:16:35.000Z</time>
      </trkpt>
      <trkpt lat="46.0171" lon="4.59565">
        <ele>569</ele>
        <time>2018-08-05T08:16:36.000Z</time>
      </trkpt>
      <trkpt lat="46.01713" lon="4.59568">
        <ele>570</ele>
        <time>2018-08-05T08:16:37.000Z</time>
      </trkpt>
      <trkpt lat="46.01717" lon="4.59571">
        <ele>571</ele>
        <time>2018-08-05T08:16:38.000Z</time>
      </trkpt>
      <trkpt lat="46.01721" lon="4.59575">
        <ele>571</ele>
        <time>2018-08-05T08:16:39.000Z</time>
      </trkpt>
      <trkpt lat="46.01725" lon="4.5958">
        <ele>572</ele>
        <time>2018-08-05T08:16:40.000Z</time>
      </trkpt>
      <trkpt lat="46.0173" lon="4.59584">
        <ele>567</ele>
        <time>2018-08-05T08:16:41.000Z</time>
      </trkpt>
      <trkpt lat="46.01735" lon="4.59589">
        <ele>568</ele>
        <time>2018-08-05T08:16:42.000Z</time>
      </trkpt>
      <trkpt lat="46.0174" lon="4.59595">
        <ele>569</ele>
        <time>2018-08-05T08:16:43.000Z</time>
      </trkpt>
      <trkpt lat="46.01745" lon="4.59601">
        <ele>568</ele>
        <time>2018-08-05T08:16:44.000Z</time>
      </trkpt>
      <trkpt lat="46.0175" lon="4.59608">
        <ele>566</ele>
        <time>2018-08-05T08:16:45.000Z</time>
      </trkpt>
      <trkpt lat="46.01754" lon="4.59616">
        <ele>582</ele>
        <time>2018-08-05T08:16:46.000Z</time>
      </trkpt>
      <trkpt lat="46.01758" lon="4.59625">
        <ele>582</ele>
        <time>2018-08-05T08:16:47.000Z</time>
      </trkpt>
      <trkpt lat="46.0176" lon="4.59634">
        <ele>580</ele>
        <time>2018-08-05T08:16:48.000Z</time>
      </trkpt>
      <trkpt lat="46.01762" lon="4.59643">
        <ele>579</ele>
        <time>2018-08-05T08:16:49.000Z</time>
      </trkpt>
      <trkpt lat="46.01763" lon="4.59654">
        <ele>576</ele>
        <time>2018-08-05T08:16:50.000Z</time>
      </trkpt>
      <trkpt lat="46.01763" lon="4.59665">
        <ele>573</ele>
        <time>2018-08-05T08:16:51.000Z</time>
      </trkpt>
      <trkpt lat="46.01761" lon="4.59677">
        <ele>572</ele>
        <time>2018-08-05T08:16:52.000Z</time>
      </trkpt>
      <trkpt lat="46.01758" lon="4.59688">
        <ele>575</ele>
        <time>2018-08-05T08:16:53.000Z</time>
      </trkpt>
      <trkpt lat="46.01756" lon="4.597">
        <ele>576</ele>
        <time>2018-08-05T08:16:54.000Z</time>
      </trkpt>
      <trkpt lat="46.01753" lon="4.59712">
        <ele>576</ele>
        <time>2018-08-05T08:16:55.000Z</time>
      </trkpt>
      <trkpt lat="46.01751" lon="4.59723">
        <ele>575</ele>
        <time>2018-08-05T08:16:56.000Z</time>
      </trkpt>
      <trkpt lat="46.0175" lon="4.59734">
        <ele>558</ele>
        <time>2018-08-05T08:16:57.000Z</time>
      </trkpt>
      <trkpt lat="46.01749" lon="4.59746">
        <ele>563</ele>
        <time>2018-08-05T08:16:58.000Z</time>
      </trkpt>
      <trkpt lat="46.01749" lon="4.59759">
        <ele>562</ele>
        <time>2018-08-05T08:16:59.000Z</time>
      </trkpt>
      <trkpt lat="46.01748" lon="4.59771">
        <ele>559</ele>
        <time>2018-08-05T08:17:00.000Z</time>
      </trkpt>
      <trkpt lat="46.01746" lon="4.59784">
        <ele>558</ele>
        <time>2018-08-05T08:17:01.000Z</time>
      </trkpt>
      <trkpt lat="46.01743" lon="4.59796">
        <ele>559</ele>
        <time>2018-08-05T08:17:02.000Z</time>
      </trkpt>
      <trkpt lat="46.01739" lon="4.59807">
        <ele>560</ele>
        <time>2018-08-05T08:17:03.000Z</time>
      </trkpt>
      <trkpt lat="46.01733" lon="4.59818">
        <ele>560</ele>
        <time>2018-08-05T08:17:04.000Z</time>
      </trkpt>
      <trkpt lat="46.01727" lon="4.59827">
        <ele>560</ele>
        <time>2018-08-05T08:17:05.000Z</time>
      </trkpt>
      <trkpt lat="46.01721" lon="4.59837">
        <ele>565</ele>
        <time>2018-08-05T08:17:06.000Z</time>
      </trkpt>
      <trkpt lat="46.01714" lon="4.59846">
        <ele>564</ele>
        <time>2018-08-05T08:17:07.000Z</time>
      </trkpt>
      <trkpt lat="46.01708" lon="4.59856">
        <ele>564</ele>
        <time>2018-08-05T08:17:08.000Z</time>
      </trkpt>
      <trkpt lat="46.01702" lon="4.59866">
        <ele>563</ele>
        <time>2018-08-05T08:17:09.000Z</time>
      </trkpt>
      <trkpt lat="46.01695" lon="4.59875">
        <ele>563</ele>
        <time>2018-08-05T08:17:10.000Z</time>
      </trkpt>
      <trkpt lat="46.01689" lon="4.59885">
        <ele>563</ele>
        <time>2018-08-05T08:17:11.000Z</time>
      </trkpt>
      <trkpt lat="46.01683" lon="4.59895">
        <ele>563</ele>
        <time>2018-08-05T08:17:12.000Z</time>
      </trkpt>
      <trkpt lat="46.01678" lon="4.59906">
        <ele>563</ele>
        <time>2018-08-05T08:17:13.000Z</time>
      </trkpt>
      <trkpt lat="46.01672" lon="4.59916">
        <ele>561</ele>
        <time>2018-08-05T08:17:14.000Z</time>
      </trkpt>
      <trkpt lat="46.01667" lon="4.59927">
        <ele>568</ele>
        <time>2018-08-05T08:17:15.000Z</time>
      </trkpt>
      <trkpt lat="46.01662" lon="4.59937">
        <ele>559</ele>
        <time>2018-08-05T08:17:16.000Z</time>
      </trkpt>
      <trkpt lat="46.01657" lon="4.59948">
        <ele>560</ele>
        <time>2018-08-05T08:17:17.000Z</time>
      </trkpt>
      <trkpt lat="46.01652" lon="4.59958">
        <ele>561</ele>
        <time>2018-08-05T08:17:18.000Z</time>
      </trkpt>
      <trkpt lat="46.01646" lon="4.59969">
        <ele>562</ele>
        <time>2018-08-05T08:17:19.000Z</time>
      </trkpt>
      <trkpt lat="46.01641" lon="4.59979">
        <ele>563</ele>
        <time>2018-08-05T08:17:20.000Z</time>
      </trkpt>
      <trkpt lat="46.01636" lon="4.59989">
        <ele>563</ele>
        <time>2018-08-05T08:17:21.000Z</time>
      </trkpt>
      <trkpt lat="46.0163" lon="4.59999">
        <ele>562</ele>
        <time>2018-08-05T08:17:22.000Z</time>
      </trkpt>
      <trkpt lat="46.01623" lon="4.60008">
        <ele>572</ele>
        <time>2018-08-05T08:17:23.000Z</time>
      </trkpt>
      <trkpt lat="46.01617" lon="4.60017">
        <ele>572</ele>
        <time>2018-08-05T08:17:24.000Z</time>
      </trkpt>
      <trkpt lat="46.01611" lon="4.60026">
        <ele>572</ele>
        <time>2018-08-05T08:17:25.000Z</time>
      </trkpt>
      <trkpt lat="46.01605" lon="4.60034">
        <ele>572</ele>
        <time>2018-08-05T08:17:26.000Z</time>
      </trkpt>
      <trkpt lat="46.01598" lon="4.60042">
        <ele>573</ele>
        <time>2018-08-05T08:17:27.000Z</time>
      </trkpt>
      <trkpt lat="46.01591" lon="4.60049">
        <ele>573</ele>
        <time>2018-08-05T08:17:28.000Z</time>
      </trkpt>
      <trkpt lat="46.01584" lon="4.60056">
        <ele>574</ele>
        <time>2018-08-05T08:17:29.000Z</time>
      </trkpt>
      <trkpt lat="46.01576" lon="4.6006">
        <ele>568</ele>
        <time>2018-08-05T08:17:30.000Z</time>
      </trkpt>
      <trkpt lat="46.01568" lon="4.60062">
        <ele>568</ele>
        <time>2018-08-05T08:17:31.000Z</time>
      </trkpt>
      <trkpt lat="46.0156" lon="4.60062">
        <ele>567</ele>
        <time>2018-08-05T08:17:32.000Z</time>
      </trkpt>
      <trkpt lat="46.01551" lon="4.60061">
        <ele>567</ele>
        <time>2018-08-05T08:17:33.000Z</time>
      </trkpt>
      <trkpt lat="46.01543" lon="4.60059">
        <ele>566</ele>
        <time>2018-08-05T08:17:34.000Z</time>
      </trkpt>
      <trkpt lat="46.01536" lon="4.60056">
        <ele>566</ele>
        <time>2018-08-05T08:17:35.000Z</time>
      </trkpt>
      <trkpt lat="46.01528" lon="4.60054">
        <ele>566</ele>
        <time>2018-08-05T08:17:36.000Z</time>
      </trkpt>
      <trkpt lat="46.0152" lon="4.60051">
        <ele>565</ele>
        <time>2018-08-05T08:17:37.000Z</time>
      </trkpt>
      <trkpt lat="46.01513" lon="4.60046">
        <ele>565</ele>
        <time>2018-08-05T08:17:38.000Z</time>
      </trkpt>
      <trkpt lat="46.01507" lon="4.60041">
        <ele>564</ele>
        <time>2018-08-05T08:17:39.000Z</time>
      </trkpt>
      <trkpt lat="46.01501" lon="4.60036">
        <ele>563</ele>
        <time>2018-08-05T08:17:40.000Z</time>
      </trkpt>
      <trkpt lat="46.01494" lon="4.60031">
        <ele>562</ele>
        <time>2018-08-05T08:17:41.000Z</time>
      </trkpt>
      <trkpt lat="46.01487" lon="4.60027">
        <ele>561</ele>
        <time>2018-08-05T08:17:42.000Z</time>
      </trkpt>
      <trkpt lat="46.0148" lon="4.60022">
        <ele>561</ele>
        <time>2018-08-05T08:17:43.000Z</time>
      </trkpt>
      <trkpt lat="46.01473" lon="4.60017">
        <ele>561</ele>
        <time>2018-08-05T08:17:44.000Z</time>
      </trkpt>
      <trkpt lat="46.01465" lon="4.60014">
        <ele>561</ele>
        <time>2018-08-05T08:17:45.000Z</time>
      </trkpt>
      <trkpt lat="46.01456" lon="4.6001">
        <ele>561</ele>
        <time>2018-08-05T08:17:46.000Z</time>
      </trkpt>
      <trkpt lat="46.01448" lon="4.60007">
        <ele>561</ele>
        <time>2018-08-05T08:17:47.000Z</time>
      </trkpt>
      <trkpt lat="46.0144" lon="4.60005">
        <ele>560</ele>
        <time>2018-08-05T08:17:48.000Z</time>
      </trkpt>
      <trkpt lat="46.01432" lon="4.60003">
        <ele>559</ele>
        <time>2018-08-05T08:17:49.000Z</time>
      </trkpt>
      <trkpt lat="46.01423" lon="4.60002">
        <ele>558</ele>
        <time>2018-08-05T08:17:50.000Z</time>
      </trkpt>
      <trkpt lat="46.01415" lon="4.6">
        <ele>556</ele>
        <time>2018-08-05T08:17:51.000Z</time>
      </trkpt>
      <trkpt lat="46.01407" lon="4.59999">
        <ele>553</ele>
        <time>2018-08-05T08:17:52.000Z</time>
      </trkpt>
      <trkpt lat="46.01399" lon="4.59998">
        <ele>552</ele>
        <time>2018-08-05T08:17:53.000Z</time>
      </trkpt>
      <trkpt lat="46.01391" lon="4.59997">
        <ele>551</ele>
        <time>2018-08-05T08:17:54.000Z</time>
      </trkpt>
      <trkpt lat="46.01383" lon="4.59996">
        <ele>551</ele>
        <time>2018-08-05T08:17:55.000Z</time>
      </trkpt>
      <trkpt lat="46.01375" lon="4.59995">
        <ele>550</ele>
        <time>2018-08-05T08:17:56.000Z</time>
      </trkpt>
      <trkpt lat="46.01367" lon="4.59994">
        <ele>550</ele>
        <time>2018-08-05T08:17:57.000Z</time>
      </trkpt>
      <trkpt lat="46.01359" lon="4.59992">
        <ele>551</ele>
        <time>2018-08-05T08:17:58.000Z</time>
      </trkpt>
      <trkpt lat="46.01352" lon="4.5999">
        <ele>551</ele>
        <time>2018-08-05T08:17:59.000Z</time>
      </trkpt>
      <trkpt lat="46.01345" lon="4.59989">
        <ele>552</ele>
        <time>2018-08-05T08:18:00.000Z</time>
      </trkpt>
      <trkpt lat="46.01338" lon="4.59988">
        <ele>552</ele>
        <time>2018-08-05T08:18:01.000Z</time>
      </trkpt>
      <trkpt lat="46.01331" lon="4.59987">
        <ele>550</ele>
        <time>2018-08-05T08:18:02.000Z</time>
      </trkpt>
      <trkpt lat="46.01324" lon="4.59988">
        <ele>549</ele>
        <time>2018-08-05T08:18:03.000Z</time>
      </trkpt>
      <trkpt lat="46.01318" lon="4.59991">
        <ele>548</ele>
        <time>2018-08-05T08:18:04.000Z</time>
      </trkpt>
      <trkpt lat="46.01313" lon="4.59997">
        <ele>547</ele>
        <time>2018-08-05T08:18:05.000Z</time>
      </trkpt>
      <trkpt lat="46.0131" lon="4.60005">
        <ele>549</ele>
        <time>2018-08-05T08:18:06.000Z</time>
      </trkpt>
      <trkpt lat="46.01309" lon="4.60015">
        <ele>548</ele>
        <time>2018-08-05T08:18:07.000Z</time>
      </trkpt>
      <trkpt lat="46.01309" lon="4.60027">
        <ele>548</ele>
        <time>2018-08-05T08:18:08.000Z</time>
      </trkpt>
      <trkpt lat="46.0131" lon="4.60038">
        <ele>547</ele>
        <time>2018-08-05T08:18:09.000Z</time>
      </trkpt>
      <trkpt lat="46.01312" lon="4.6005">
        <ele>548</ele>
        <time>2018-08-05T08:18:10.000Z</time>
      </trkpt>
      <trkpt lat="46.01316" lon="4.60061">
        <ele>549</ele>
        <time>2018-08-05T08:18:11.000Z</time>
      </trkpt>
      <trkpt lat="46.01319" lon="4.60072">
        <ele>551</ele>
        <time>2018-08-05T08:18:12.000Z</time>
      </trkpt>
      <trkpt lat="46.01323" lon="4.60083">
        <ele>553</ele>
        <time>2018-08-05T08:18:13.000Z</time>
      </trkpt>
      <trkpt lat="46.01328" lon="4.60094">
        <ele>550</ele>
        <time>2018-08-05T08:18:14.000Z</time>
      </trkpt>
      <trkpt lat="46.01333" lon="4.60105">
        <ele>546</ele>
        <time>2018-08-05T08:18:15.000Z</time>
      </trkpt>
      <trkpt lat="46.01337" lon="4.60117">
        <ele>559</ele>
        <time>2018-08-05T08:18:16.000Z</time>
      </trkpt>
      <trkpt lat="46.01341" lon="4.60129">
        <ele>559</ele>
        <time>2018-08-05T08:18:17.000Z</time>
      </trkpt>
      <trkpt lat="46.01345" lon="4.60142">
        <ele>557</ele>
        <time>2018-08-05T08:18:18.000Z</time>
      </trkpt>
      <trkpt lat="46.01349" lon="4.60156">
        <ele>556</ele>
        <time>2018-08-05T08:18:19.000Z</time>
      </trkpt>
      <trkpt lat="46.01353" lon="4.6017">
        <ele>552</ele>
        <time>2018-08-05T08:18:20.000Z</time>
      </trkpt>
      <trkpt lat="46.01356" lon="4.60185">
        <ele>553</ele>
        <time>2018-08-05T08:18:21.000Z</time>
      </trkpt>
      <trkpt lat="46.01358" lon="4.602">
        <ele>554</ele>
        <time>2018-08-05T08:18:22.000Z</time>
      </trkpt>
      <trkpt lat="46.01361" lon="4.60216">
        <ele>553</ele>
        <time>2018-08-05T08:18:23.000Z</time>
      </trkpt>
      <trkpt lat="46.01364" lon="4.60232">
        <ele>552</ele>
        <time>2018-08-05T08:18:24.000Z</time>
      </trkpt>
      <trkpt lat="46.01366" lon="4.60249">
        <ele>552</ele>
        <time>2018-08-05T08:18:25.000Z</time>
      </trkpt>
      <trkpt lat="46.0137" lon="4.60265">
        <ele>545</ele>
        <time>2018-08-05T08:18:26.000Z</time>
      </trkpt>
      <trkpt lat="46.01374" lon="4.6028">
        <ele>545</ele>
        <time>2018-08-05T08:18:27.000Z</time>
      </trkpt>
      <trkpt lat="46.01379" lon="4.60295">
        <ele>545</ele>
        <time>2018-08-05T08:18:28.000Z</time>
      </trkpt>
      <trkpt lat="46.01386" lon="4.60308">
        <ele>545</ele>
        <time>2018-08-05T08:18:29.000Z</time>
      </trkpt>
      <trkpt lat="46.01394" lon="4.6032">
        <ele>546</ele>
        <time>2018-08-05T08:18:30.000Z</time>
      </trkpt>
      <trkpt lat="46.01403" lon="4.6033">
        <ele>547</ele>
        <time>2018-08-05T08:18:31.000Z</time>
      </trkpt>
      <trkpt lat="46.01413" lon="4.60337">
        <ele>545</ele>
        <time>2018-08-05T08:18:32.000Z</time>
      </trkpt>
      <trkpt lat="46.01423" lon="4.60344">
        <ele>550</ele>
        <time>2018-08-05T08:18:33.000Z</time>
      </trkpt>
      <trkpt lat="46.01433" lon="4.6035">
        <ele>550</ele>
        <time>2018-08-05T08:18:34.000Z</time>
      </trkpt>
      <trkpt lat="46.01444" lon="4.60358">
        <ele>550</ele>
        <time>2018-08-05T08:18:35.000Z</time>
      </trkpt>
      <trkpt lat="46.01453" lon="4.60368">
        <ele>550</ele>
        <time>2018-08-05T08:18:36.000Z</time>
      </trkpt>
      <trkpt lat="46.01461" lon="4.60379">
        <ele>549</ele>
        <time>2018-08-05T08:18:37.000Z</time>
      </trkpt>
      <trkpt lat="46.01467" lon="4.60394">
        <ele>549</ele>
        <time>2018-08-05T08:18:38.000Z</time>
      </trkpt>
      <trkpt lat="46.01472" lon="4.6041">
        <ele>548</ele>
        <time>2018-08-05T08:18:39.000Z</time>
      </trkpt>
      <trkpt lat="46.01475" lon="4.60427">
        <ele>536</ele>
        <time>2018-08-05T08:18:40.000Z</time>
      </trkpt>
      <trkpt lat="46.01479" lon="4.60444">
        <ele>535</ele>
        <time>2018-08-05T08:18:41.000Z</time>
      </trkpt>
      <trkpt lat="46.01484" lon="4.60461">
        <ele>533</ele>
        <time>2018-08-05T08:18:42.000Z</time>
      </trkpt>
      <trkpt lat="46.01489" lon="4.60477">
        <ele>532</ele>
        <time>2018-08-05T08:18:43.000Z</time>
      </trkpt>
      <trkpt lat="46.01494" lon="4.60493">
        <ele>533</ele>
        <time>2018-08-05T08:18:44.000Z</time>
      </trkpt>
      <trkpt lat="46.015" lon="4.60509">
        <ele>538</ele>
        <time>2018-08-05T08:18:45.000Z</time>
      </trkpt>
      <trkpt lat="46.01505" lon="4.60525">
        <ele>540</ele>
        <time>2018-08-05T08:18:46.000Z</time>
      </trkpt>
      <trkpt lat="46.01508" lon="4.60543">
        <ele>540</ele>
        <time>2018-08-05T08:18:47.000Z</time>
      </trkpt>
      <trkpt lat="46.01507" lon="4.60561">
        <ele>537</ele>
        <time>2018-08-05T08:18:48.000Z</time>
      </trkpt>
      <trkpt lat="46.01503" lon="4.60578">
        <ele>531</ele>
        <time>2018-08-05T08:18:49.000Z</time>
      </trkpt>
      <trkpt lat="46.01497" lon="4.60594">
        <ele>524</ele>
        <time>2018-08-05T08:18:50.000Z</time>
      </trkpt>
      <trkpt lat="46.01489" lon="4.60608">
        <ele>521</ele>
        <time>2018-08-05T08:18:51.000Z</time>
      </trkpt>
      <trkpt lat="46.01481" lon="4.6062">
        <ele>520</ele>
        <time>2018-08-05T08:18:52.000Z</time>
      </trkpt>
      <trkpt lat="46.01473" lon="4.60631">
        <ele>520</ele>
        <time>2018-08-05T08:18:53.000Z</time>
      </trkpt>
      <trkpt lat="46.01466" lon="4.60641">
        <ele>519</ele>
        <time>2018-08-05T08:18:54.000Z</time>
      </trkpt>
      <trkpt lat="46.0146" lon="4.60652">
        <ele>519</ele>
        <time>2018-08-05T08:18:55.000Z</time>
      </trkpt>
      <trkpt lat="46.01458" lon="4.60663">
        <ele>518</ele>
        <time>2018-08-05T08:18:56.000Z</time>
      </trkpt>
      <trkpt lat="46.01458" lon="4.60675">
        <ele>518</ele>
        <time>2018-08-05T08:18:57.000Z</time>
      </trkpt>
      <trkpt lat="46.01461" lon="4.60686">
        <ele>518</ele>
        <time>2018-08-05T08:18:58.000Z</time>
      </trkpt>
      <trkpt lat="46.01465" lon="4.60697">
        <ele>518</ele>
        <time>2018-08-05T08:18:59.000Z</time>
      </trkpt>
      <trkpt lat="46.01469" lon="4.60708">
        <ele>518</ele>
        <time>2018-08-05T08:19:00.000Z</time>
      </trkpt>
      <trkpt lat="46.01475" lon="4.60718">
        <ele>518</ele>
        <time>2018-08-05T08:19:01.000Z</time>
      </trkpt>
      <trkpt lat="46.01481" lon="4.60727">
        <ele>518</ele>
        <time>2018-08-05T08:19:02.000Z</time>
      </trkpt>
      <trkpt lat="46.01487" lon="4.60737">
        <ele>519</ele>
        <time>2018-08-05T08:19:03.000Z</time>
      </trkpt>
      <trkpt lat="46.01493" lon="4.60746">
        <ele>520</ele>
        <time>2018-08-05T08:19:04.000Z</time>
      </trkpt>
      <trkpt lat="46.01499" lon="4.60755">
        <ele>520</ele>
        <time>2018-08-05T08:19:05.000Z</time>
      </trkpt>
      <trkpt lat="46.01504" lon="4.60766">
        <ele>523</ele>
        <time>2018-08-05T08:19:06.000Z</time>
      </trkpt>
      <trkpt lat="46.01508" lon="4.60777">
        <ele>523</ele>
        <time>2018-08-05T08:19:07.000Z</time>
      </trkpt>
      <trkpt lat="46.0151" lon="4.6079">
        <ele>523</ele>
        <time>2018-08-05T08:19:08.000Z</time>
      </trkpt>
      <trkpt lat="46.01513" lon="4.60802">
        <ele>522</ele>
        <time>2018-08-05T08:19:09.000Z</time>
      </trkpt>
      <trkpt lat="46.01514" lon="4.60815">
        <ele>520</ele>
        <time>2018-08-05T08:19:10.000Z</time>
      </trkpt>
      <trkpt lat="46.01515" lon="4.60828">
        <ele>519</ele>
        <time>2018-08-05T08:19:11.000Z</time>
      </trkpt>
      <trkpt lat="46.01515" lon="4.60842">
        <ele>516</ele>
        <time>2018-08-05T08:19:12.000Z</time>
      </trkpt>
      <trkpt lat="46.01515" lon="4.60856">
        <ele>516</ele>
        <time>2018-08-05T08:19:13.000Z</time>
      </trkpt>
      <trkpt lat="46.01515" lon="4.6087">
        <ele>516</ele>
        <time>2018-08-05T08:19:14.000Z</time>
      </trkpt>
      <trkpt lat="46.01516" lon="4.60884">
        <ele>515</ele>
        <time>2018-08-05T08:19:15.000Z</time>
      </trkpt>
      <trkpt lat="46.01515" lon="4.60897">
        <ele>515</ele>
        <time>2018-08-05T08:19:16.000Z</time>
      </trkpt>
      <trkpt lat="46.01514" lon="4.6091">
        <ele>514</ele>
        <time>2018-08-05T08:19:17.000Z</time>
      </trkpt>
      <trkpt lat="46.01513" lon="4.60923">
        <ele>512</ele>
        <time>2018-08-05T08:19:18.000Z</time>
      </trkpt>
      <trkpt lat="46.01512" lon="4.60936">
        <ele>512</ele>
        <time>2018-08-05T08:19:19.000Z</time>
      </trkpt>
      <trkpt lat="46.01511" lon="4.60948">
        <ele>512</ele>
        <time>2018-08-05T08:19:20.000Z</time>
      </trkpt>
      <trkpt lat="46.0151" lon="4.6096">
        <ele>512</ele>
        <time>2018-08-05T08:19:21.000Z</time>
      </trkpt>
      <trkpt lat="46.0151" lon="4.6097">
        <ele>512</ele>
        <time>2018-08-05T08:19:22.000Z</time>
      </trkpt>
      <trkpt lat="46.01509" lon="4.60978">
        <ele>512</ele>
        <time>2018-08-05T08:19:23.000Z</time>
      </trkpt>
      <trkpt lat="46.01507" lon="4.60984">
        <ele>511</ele>
        <time>2018-08-05T08:19:24.000Z</time>
      </trkpt>
      <trkpt lat="46.01504" lon="4.60988">
        <ele>511</ele>
        <time>2018-08-05T08:19:25.000Z</time>
      </trkpt>
      <trkpt lat="46.015" lon="4.60989">
        <ele>507</ele>
        <time>2018-08-05T08:19:26.000Z</time>
      </trkpt>
      <trkpt lat="46.01494" lon="4.60988">
        <ele>507</ele>
        <time>2018-08-05T08:19:27.000Z</time>
      </trkpt>
      <trkpt lat="46.01488" lon="4.60986">
        <ele>506</ele>
        <time>2018-08-05T08:19:28.000Z</time>
      </trkpt>
      <trkpt lat="46.01481" lon="4.60983">
        <ele>505</ele>
        <time>2018-08-05T08:19:29.000Z</time>
      </trkpt>
      <trkpt lat="46.01474" lon="4.6098">
        <ele>505</ele>
        <time>2018-08-05T08:19:30.000Z</time>
      </trkpt>
      <trkpt lat="46.01466" lon="4.60977">
        <ele>504</ele>
        <time>2018-08-05T08:19:31.000Z</time>
      </trkpt>
      <trkpt lat="46.01457" lon="4.60975">
        <ele>503</ele>
        <time>2018-08-05T08:19:32.000Z</time>
      </trkpt>
      <trkpt lat="46.01448" lon="4.60972">
        <ele>502</ele>
        <time>2018-08-05T08:19:33.000Z</time>
      </trkpt>
      <trkpt lat="46.01438" lon="4.6097">
        <ele>502</ele>
        <time>2018-08-05T08:19:34.000Z</time>
      </trkpt>
      <trkpt lat="46.01428" lon="4.60967">
        <ele>501</ele>
        <time>2018-08-05T08:19:35.000Z</time>
      </trkpt>
      <trkpt lat="46.01417" lon="4.60965">
        <ele>501</ele>
        <time>2018-08-05T08:19:36.000Z</time>
      </trkpt>
      <trkpt lat="46.01406" lon="4.60962">
        <ele>494</ele>
        <time>2018-08-05T08:19:37.000Z</time>
      </trkpt>
      <trkpt lat="46.01395" lon="4.60959">
        <ele>493</ele>
        <time>2018-08-05T08:19:38.000Z</time>
      </trkpt>
      <trkpt lat="46.01384" lon="4.60955">
        <ele>493</ele>
        <time>2018-08-05T08:19:39.000Z</time>
      </trkpt>
      <trkpt lat="46.01372" lon="4.60953">
        <ele>492</ele>
        <time>2018-08-05T08:19:40.000Z</time>
      </trkpt>
      <trkpt lat="46.01359" lon="4.60951">
        <ele>491</ele>
        <time>2018-08-05T08:19:41.000Z</time>
      </trkpt>
      <trkpt lat="46.01346" lon="4.6095">
        <ele>490</ele>
        <time>2018-08-05T08:19:42.000Z</time>
      </trkpt>
      <trkpt lat="46.01333" lon="4.60949">
        <ele>485</ele>
        <time>2018-08-05T08:19:43.000Z</time>
      </trkpt>
      <trkpt lat="46.0132" lon="4.6095">
        <ele>485</ele>
        <time>2018-08-05T08:19:44.000Z</time>
      </trkpt>
      <trkpt lat="46.01307" lon="4.60949">
        <ele>484</ele>
        <time>2018-08-05T08:19:45.000Z</time>
      </trkpt>
      <trkpt lat="46.01294" lon="4.60949">
        <ele>484</ele>
        <time>2018-08-05T08:19:46.000Z</time>
      </trkpt>
      <trkpt lat="46.0128" lon="4.60945">
        <ele>483</ele>
        <time>2018-08-05T08:19:47.000Z</time>
      </trkpt>
      <trkpt lat="46.01267" lon="4.60938">
        <ele>482</ele>
        <time>2018-08-05T08:19:48.000Z</time>
      </trkpt>
      <trkpt lat="46.01254" lon="4.6093">
        <ele>480</ele>
        <time>2018-08-05T08:19:49.000Z</time>
      </trkpt>
      <trkpt lat="46.01241" lon="4.6092">
        <ele>477</ele>
        <time>2018-08-05T08:19:50.000Z</time>
      </trkpt>
      <trkpt lat="46.01227" lon="4.6091">
        <ele>474</ele>
        <time>2018-08-05T08:19:51.000Z</time>
      </trkpt>
      <trkpt lat="46.01213" lon="4.60899">
        <ele>473</ele>
        <time>2018-08-05T08:19:52.000Z</time>
      </trkpt>
      <trkpt lat="46.01199" lon="4.60889">
        <ele>472</ele>
        <time>2018-08-05T08:19:53.000Z</time>
      </trkpt>
      <trkpt lat="46.01185" lon="4.60878">
        <ele>471</ele>
        <time>2018-08-05T08:19:54.000Z</time>
      </trkpt>
      <trkpt lat="46.01171" lon="4.60867">
        <ele>471</ele>
        <time>2018-08-05T08:19:55.000Z</time>
      </trkpt>
      <trkpt lat="46.01159" lon="4.60855">
        <ele>467</ele>
        <time>2018-08-05T08:19:56.000Z</time>
      </trkpt>
      <trkpt lat="46.01147" lon="4.60842">
        <ele>467</ele>
        <time>2018-08-05T08:19:57.000Z</time>
      </trkpt>
      <trkpt lat="46.01137" lon="4.60828">
        <ele>464</ele>
        <time>2018-08-05T08:19:58.000Z</time>
      </trkpt>
      <trkpt lat="46.01127" lon="4.60814">
        <ele>464</ele>
        <time>2018-08-05T08:19:59.000Z</time>
      </trkpt>
      <trkpt lat="46.01118" lon="4.60801">
        <ele>463</ele>
        <time>2018-08-05T08:20:00.000Z</time>
      </trkpt>
      <trkpt lat="46.0111" lon="4.60789">
        <ele>463</ele>
        <time>2018-08-05T08:20:01.000Z</time>
      </trkpt>
      <trkpt lat="46.01103" lon="4.60776">
        <ele>463</ele>
        <time>2018-08-05T08:20:02.000Z</time>
      </trkpt>
      <trkpt lat="46.01097" lon="4.60762">
        <ele>463</ele>
        <time>2018-08-05T08:20:03.000Z</time>
      </trkpt>
      <trkpt lat="46.01093" lon="4.60748">
        <ele>461</ele>
        <time>2018-08-05T08:20:04.000Z</time>
      </trkpt>
      <trkpt lat="46.01089" lon="4.60734">
        <ele>460</ele>
        <time>2018-08-05T08:20:05.000Z</time>
      </trkpt>
      <trkpt lat="46.01087" lon="4.6072">
        <ele>460</ele>
        <time>2018-08-05T08:20:06.000Z</time>
      </trkpt>
      <trkpt lat="46.01085" lon="4.60707">
        <ele>459</ele>
        <time>2018-08-05T08:20:07.000Z</time>
      </trkpt>
      <trkpt lat="46.01083" lon="4.60695">
        <ele>459</ele>
        <time>2018-08-05T08:20:08.000Z</time>
      </trkpt>
      <trkpt lat="46.01083" lon="4.60683">
        <ele>458</ele>
        <time>2018-08-05T08:20:09.000Z</time>
      </trkpt>
      <trkpt lat="46.01085" lon="4.60672">
        <ele>458</ele>
        <time>2018-08-05T08:20:10.000Z</time>
      </trkpt>
      <trkpt lat="46.01089" lon="4.60662">
        <ele>457</ele>
        <time>2018-08-05T08:20:11.000Z</time>
      </trkpt>
      <trkpt lat="46.01095" lon="4.60653">
        <ele>455</ele>
        <time>2018-08-05T08:20:12.000Z</time>
      </trkpt>
      <trkpt lat="46.01104" lon="4.60646">
        <ele>455</ele>
        <time>2018-08-05T08:20:13.000Z</time>
      </trkpt>
      <trkpt lat="46.01113" lon="4.60642">
        <ele>454</ele>
        <time>2018-08-05T08:20:14.000Z</time>
      </trkpt>
      <trkpt lat="46.01123" lon="4.6064">
        <ele>454</ele>
        <time>2018-08-05T08:20:15.000Z</time>
      </trkpt>
      <trkpt lat="46.01134" lon="4.60639">
        <ele>453</ele>
        <time>2018-08-05T08:20:16.000Z</time>
      </trkpt>
      <trkpt lat="46.01144" lon="4.60639">
        <ele>453</ele>
        <time>2018-08-05T08:20:17.000Z</time>
      </trkpt>
      <trkpt lat="46.01154" lon="4.60638">
        <ele>453</ele>
        <time>2018-08-05T08:20:18.000Z</time>
      </trkpt>
      <trkpt lat="46.01164" lon="4.60636">
        <ele>453</ele>
        <time>2018-08-05T08:20:19.000Z</time>
      </trkpt>
      <trkpt lat="46.01172" lon="4.60632">
        <ele>455</ele>
        <time>2018-08-05T08:20:20.000Z</time>
      </trkpt>
      <trkpt lat="46.01179" lon="4.60626">
        <ele>455</ele>
        <time>2018-08-05T08:20:21.000Z</time>
      </trkpt>
      <trkpt lat="46.01186" lon="4.60619">
        <ele>455</ele>
        <time>2018-08-05T08:20:22.000Z</time>
      </trkpt>
      <trkpt lat="46.01192" lon="4.6061">
        <ele>455</ele>
        <time>2018-08-05T08:20:23.000Z</time>
      </trkpt>
      <trkpt lat="46.01197" lon="4.606">
        <ele>455</ele>
        <time>2018-08-05T08:20:24.000Z</time>
      </trkpt>
      <trkpt lat="46.01201" lon="4.6059">
        <ele>455</ele>
        <time>2018-08-05T08:20:25.000Z</time>
      </trkpt>
      <trkpt lat="46.01204" lon="4.6058">
        <ele>452</ele>
        <time>2018-08-05T08:20:26.000Z</time>
      </trkpt>
      <trkpt lat="46.01207" lon="4.6057">
        <ele>453</ele>
        <time>2018-08-05T08:20:27.000Z</time>
      </trkpt>
      <trkpt lat="46.0121" lon="4.6056">
        <ele>453</ele>
        <time>2018-08-05T08:20:28.000Z</time>
      </trkpt>
      <trkpt lat="46.01213" lon="4.6055">
        <ele>453</ele>
        <time>2018-08-05T08:20:29.000Z</time>
      </trkpt>
      <trkpt lat="46.01215" lon="4.6054">
        <ele>453</ele>
        <time>2018-08-05T08:20:30.000Z</time>
      </trkpt>
      <trkpt lat="46.01218" lon="4.6053">
        <ele>453</ele>
        <time>2018-08-05T08:20:31.000Z</time>
      </trkpt>
      <trkpt lat="46.01221" lon="4.6052">
        <ele>453</ele>
        <time>2018-08-05T08:20:32.000Z</time>
      </trkpt>
      <trkpt lat="46.01223" lon="4.60511">
        <ele>454</ele>
        <time>2018-08-05T08:20:33.000Z</time>
      </trkpt>
      <trkpt lat="46.01223" lon="4.60501">
        <ele>454</ele>
        <time>2018-08-05T08:20:34.000Z</time>
      </trkpt>
      <trkpt lat="46.01221" lon="4.60492">
        <ele>455</ele>
        <time>2018-08-05T08:20:35.000Z</time>
      </trkpt>
      <trkpt lat="46.01216" lon="4.60482">
        <ele>455</ele>
        <time>2018-08-05T08:20:36.000Z</time>
      </trkpt>
      <trkpt lat="46.01211" lon="4.60473">
        <ele>454</ele>
        <time>2018-08-05T08:20:37.000Z</time>
      </trkpt>
      <trkpt lat="46.01205" lon="4.60464">
        <ele>454</ele>
        <time>2018-08-05T08:20:38.000Z</time>
      </trkpt>
      <trkpt lat="46.01198" lon="4.60455">
        <ele>453</ele>
        <time>2018-08-05T08:20:39.000Z</time>
      </trkpt>
      <trkpt lat="46.01192" lon="4.60445">
        <ele>453</ele>
        <time>2018-08-05T08:20:40.000Z</time>
      </trkpt>
      <trkpt lat="46.01185" lon="4.60434">
        <ele>451</ele>
        <time>2018-08-05T08:20:41.000Z</time>
      </trkpt>
      <trkpt lat="46.0118" lon="4.60422">
        <ele>449</ele>
        <time>2018-08-05T08:20:42.000Z</time>
      </trkpt>
      <trkpt lat="46.01174" lon="4.60409">
        <ele>451</ele>
        <time>2018-08-05T08:20:43.000Z</time>
      </trkpt>
      <trkpt lat="46.01169" lon="4.60395">
        <ele>455</ele>
        <time>2018-08-05T08:20:44.000Z</time>
      </trkpt>
      <trkpt lat="46.01163" lon="4.60382">
        <ele>442</ele>
        <time>2018-08-05T08:20:45.000Z</time>
      </trkpt>
      <trkpt lat="46.01157" lon="4.60368">
        <ele>442</ele>
        <time>2018-08-05T08:20:46.000Z</time>
      </trkpt>
      <trkpt lat="46.0115" lon="4.60355">
        <ele>443</ele>
        <time>2018-08-05T08:20:47.000Z</time>
      </trkpt>
      <trkpt lat="46.01144" lon="4.60341">
        <ele>442</ele>
        <time>2018-08-05T08:20:48.000Z</time>
      </trkpt>
      <trkpt lat="46.01137" lon="4.60326">
        <ele>442</ele>
        <time>2018-08-05T08:20:49.000Z</time>
      </trkpt>
      <trkpt lat="46.01131" lon="4.60312">
        <ele>441</ele>
        <time>2018-08-05T08:20:50.000Z</time>
      </trkpt>
      <trkpt lat="46.01125" lon="4.60298">
        <ele>440</ele>
        <time>2018-08-05T08:20:51.000Z</time>
      </trkpt>
      <trkpt lat="46.0112" lon="4.60284">
        <ele>439</ele>
        <time>2018-08-05T08:20:52.000Z</time>
      </trkpt>
      <trkpt lat="46.01113" lon="4.60272">
        <ele>438</ele>
        <time>2018-08-05T08:20:53.000Z</time>
      </trkpt>
      <trkpt lat="46.01106" lon="4.60261">
        <ele>436</ele>
        <time>2018-08-05T08:20:54.000Z</time>
      </trkpt>
      <trkpt lat="46.011" lon="4.60249">
        <ele>437</ele>
        <time>2018-08-05T08:20:55.000Z</time>
      </trkpt>
      <trkpt lat="46.01094" lon="4.60235">
        <ele>437</ele>
        <time>2018-08-05T08:20:56.000Z</time>
      </trkpt>
      <trkpt lat="46.01089" lon="4.60221">
        <ele>440</ele>
        <time>2018-08-05T08:20:57.000Z</time>
      </trkpt>
      <trkpt lat="46.01084" lon="4.60207">
        <ele>441</ele>
        <time>2018-08-05T08:20:58.000Z</time>
      </trkpt>
      <trkpt lat="46.01079" lon="4.60193">
        <ele>424</ele>
        <time>2018-08-05T08:20:59.000Z</time>
      </trkpt>
      <trkpt lat="46.01073" lon="4.60179">
        <ele>426</ele>
        <time>2018-08-05T08:21:00.000Z</time>
      </trkpt>
      <trkpt lat="46.01068" lon="4.60167">
        <ele>430</ele>
        <time>2018-08-05T08:21:01.000Z</time>
      </trkpt>
      <trkpt lat="46.01062" lon="4.60154">
        <ele>429</ele>
        <time>2018-08-05T08:21:02.000Z</time>
      </trkpt>
      <trkpt lat="46.01056" lon="4.60143">
        <ele>428</ele>
        <time>2018-08-05T08:21:03.000Z</time>
      </trkpt>
      <trkpt lat="46.01048" lon="4.60133">
        <ele>428</ele>
        <time>2018-08-05T08:21:04.000Z</time>
      </trkpt>
      <trkpt lat="46.0104" lon="4.60124">
        <ele>428</ele>
        <time>2018-08-05T08:21:05.000Z</time>
      </trkpt>
      <trkpt lat="46.0103" lon="4.60116">
        <ele>427</ele>
        <time>2018-08-05T08:21:06.000Z</time>
      </trkpt>
      <trkpt lat="46.0102" lon="4.60108">
        <ele>426</ele>
        <time>2018-08-05T08:21:07.000Z</time>
      </trkpt>
      <trkpt lat="46.01011" lon="4.60098">
        <ele>424</ele>
        <time>2018-08-05T08:21:08.000Z</time>
      </trkpt>
      <trkpt lat="46.01001" lon="4.60088">
        <ele>422</ele>
        <time>2018-08-05T08:21:09.000Z</time>
      </trkpt>
      <trkpt lat="46.00991" lon="4.60077">
        <ele>418</ele>
        <time>2018-08-05T08:21:10.000Z</time>
      </trkpt>
      <trkpt lat="46.00981" lon="4.60067">
        <ele>415</ele>
        <time>2018-08-05T08:21:11.000Z</time>
      </trkpt>
      <trkpt lat="46.00971" lon="4.60057">
        <ele>414</ele>
        <time>2018-08-05T08:21:12.000Z</time>
      </trkpt>
      <trkpt lat="46.00962" lon="4.60047">
        <ele>413</ele>
        <time>2018-08-05T08:21:13.000Z</time>
      </trkpt>
      <trkpt lat="46.00953" lon="4.60036">
        <ele>412</ele>
        <time>2018-08-05T08:21:14.000Z</time>
      </trkpt>
      <trkpt lat="46.00945" lon="4.60025">
        <ele>411</ele>
        <time>2018-08-05T08:21:15.000Z</time>
      </trkpt>
      <trkpt lat="46.00938" lon="4.60012">
        <ele>409</ele>
        <time>2018-08-05T08:21:16.000Z</time>
      </trkpt>
      <trkpt lat="46.00931" lon="4.59999">
        <ele>412</ele>
        <time>2018-08-05T08:21:17.000Z</time>
      </trkpt>
      <trkpt lat="46.00925" lon="4.59985">
        <ele>413</ele>
        <time>2018-08-05T08:21:18.000Z</time>
      </trkpt>
      <trkpt lat="46.00919" lon="4.59972">
        <ele>416</ele>
        <time>2018-08-05T08:21:19.000Z</time>
      </trkpt>
      <trkpt lat="46.00911" lon="4.5996">
        <ele>401</ele>
        <time>2018-08-05T08:21:20.000Z</time>
      </trkpt>
      <trkpt lat="46.00902" lon="4.59949">
        <ele>401</ele>
        <time>2018-08-05T08:21:21.000Z</time>
      </trkpt>
      <trkpt lat="46.00893" lon="4.59939">
        <ele>401</ele>
        <time>2018-08-05T08:21:22.000Z</time>
      </trkpt>
      <trkpt lat="46.00884" lon="4.59931">
        <ele>400</ele>
        <time>2018-08-05T08:21:23.000Z</time>
      </trkpt>
      <trkpt lat="46.00874" lon="4.59923">
        <ele>399</ele>
        <time>2018-08-05T08:21:24.000Z</time>
      </trkpt>
      <trkpt lat="46.00863" lon="4.59917">
        <ele>397</ele>
        <time>2018-08-05T08:21:25.000Z</time>
      </trkpt>
      <trkpt lat="46.00853" lon="4.59911">
        <ele>400</ele>
        <time>2018-08-05T08:21:26.000Z</time>
      </trkpt>
      <trkpt lat="46.00842" lon="4.59907">
        <ele>398</ele>
        <time>2018-08-05T08:21:27.000Z</time>
      </trkpt>
      <trkpt lat="46.00832" lon="4.59904">
        <ele>391</ele>
        <time>2018-08-05T08:21:28.000Z</time>
      </trkpt>
      <trkpt lat="46.00823" lon="4.59902">
        <ele>390</ele>
        <time>2018-08-05T08:21:29.000Z</time>
      </trkpt>
      <trkpt lat="46.00813" lon="4.599">
        <ele>389</ele>
        <time>2018-08-05T08:21:30.000Z</time>
      </trkpt>
      <trkpt lat="46.00804" lon="4.599">
        <ele>388</ele>
        <time>2018-08-05T08:21:31.000Z</time>
      </trkpt>
      <trkpt lat="46.00795" lon="4.59902">
        <ele>386</ele>
        <time>2018-08-05T08:21:32.000Z</time>
      </trkpt>
      <trkpt lat="46.00786" lon="4.59905">
        <ele>385</ele>
        <time>2018-08-05T08:21:33.000Z</time>
      </trkpt>
      <trkpt lat="46.00777" lon="4.59909">
        <ele>384</ele>
        <time>2018-08-05T08:21:34.000Z</time>
      </trkpt>
      <trkpt lat="46.00769" lon="4.59913">
        <ele>383</ele>
        <time>2018-08-05T08:21:35.000Z</time>
      </trkpt>
      <trkpt lat="46.00761" lon="4.59916">
        <ele>382</ele>
        <time>2018-08-05T08:21:36.000Z</time>
      </trkpt>
      <trkpt lat="46.00753" lon="4.59919">
        <ele>380</ele>
        <time>2018-08-05T08:21:37.000Z</time>
      </trkpt>
      <trkpt lat="46.00746" lon="4.59922">
        <ele>376</ele>
        <time>2018-08-05T08:21:38.000Z</time>
      </trkpt>
      <trkpt lat="46.00739" lon="4.59924">
        <ele>373</ele>
        <time>2018-08-05T08:21:39.000Z</time>
      </trkpt>
      <trkpt lat="46.00732" lon="4.59923">
        <ele>371</ele>
        <time>2018-08-05T08:21:40.000Z</time>
      </trkpt>
      <trkpt lat="46.00727" lon="4.59919">
        <ele>370</ele>
        <time>2018-08-05T08:21:41.000Z</time>
      </trkpt>
      <trkpt lat="46.00723" lon="4.59912">
        <ele>371</ele>
        <time>2018-08-05T08:21:42.000Z</time>
      </trkpt>
      <trkpt lat="46.00723" lon="4.59903">
        <ele>371</ele>
        <time>2018-08-05T08:21:43.000Z</time>
      </trkpt>
      <trkpt lat="46.00725" lon="4.59893">
        <ele>370</ele>
        <time>2018-08-05T08:21:44.000Z</time>
      </trkpt>
      <trkpt lat="46.00728" lon="4.59882">
        <ele>370</ele>
        <time>2018-08-05T08:21:45.000Z</time>
      </trkpt>
      <trkpt lat="46.00734" lon="4.59871">
        <ele>370</ele>
        <time>2018-08-05T08:21:46.000Z</time>
      </trkpt>
      <trkpt lat="46.00739" lon="4.5986">
        <ele>370</ele>
        <time>2018-08-05T08:21:47.000Z</time>
      </trkpt>
      <trkpt lat="46.00745" lon="4.59849">
        <ele>371</ele>
        <time>2018-08-05T08:21:48.000Z</time>
      </trkpt>
      <trkpt lat="46.00751" lon="4.59838">
        <ele>376</ele>
        <time>2018-08-05T08:21:49.000Z</time>
      </trkpt>
      <trkpt lat="46.00758" lon="4.59827">
        <ele>376</ele>
        <time>2018-08-05T08:21:50.000Z</time>
      </trkpt>
      <trkpt lat="46.00765" lon="4.59815">
        <ele>378</ele>
        <time>2018-08-05T08:21:51.000Z</time>
      </trkpt>
      <trkpt lat="46.00772" lon="4.59804">
        <ele>378</ele>
        <time>2018-08-05T08:21:52.000Z</time>
      </trkpt>
      <trkpt lat="46.0078" lon="4.59793">
        <ele>379</ele>
        <time>2018-08-05T08:21:53.000Z</time>
      </trkpt>
      <trkpt lat="46.00789" lon="4.59782">
        <ele>379</ele>
        <time>2018-08-05T08:21:54.000Z</time>
      </trkpt>
      <trkpt lat="46.00798" lon="4.59773">
        <ele>379</ele>
        <time>2018-08-05T08:21:55.000Z</time>
      </trkpt>
      <trkpt lat="46.00806" lon="4.59764">
        <ele>379</ele>
        <time>2018-08-05T08:21:56.000Z</time>
      </trkpt>
      <trkpt lat="46.00813" lon="4.59757">
        <ele>379</ele>
        <time>2018-08-05T08:21:57.000Z</time>
      </trkpt>
      <trkpt lat="46.0082" lon="4.59751">
        <ele>379</ele>
        <time>2018-08-05T08:21:58.000Z</time>
      </trkpt>
      <trkpt lat="46.00825" lon="4.59744">
        <ele>379</ele>
        <time>2018-08-05T08:21:59.000Z</time>
      </trkpt>
      <trkpt lat="46.00829" lon="4.59735">
        <ele>379</ele>
        <time>2018-08-05T08:22:00.000Z</time>
      </trkpt>
      <trkpt lat="46.00829" lon="4.59726">
        <ele>379</ele>
        <time>2018-08-05T08:22:01.000Z</time>
      </trkpt>
      <trkpt lat="46.00827" lon="4.59717">
        <ele>380</ele>
        <time>2018-08-05T08:22:02.000Z</time>
      </trkpt>
      <trkpt lat="46.00822" lon="4.59711">
        <ele>380</ele>
        <time>2018-08-05T08:22:03.000Z</time>
      </trkpt>
      <trkpt lat="46.00814" lon="4.59709">
        <ele>380</ele>
        <time>2018-08-05T08:22:04.000Z</time>
      </trkpt>
      <trkpt lat="46.00807" lon="4.59709">
        <ele>380</ele>
        <time>2018-08-05T08:22:05.000Z</time>
      </trkpt>
      <trkpt lat="46.00799" lon="4.59711">
        <ele>379</ele>
        <time>2018-08-05T08:22:06.000Z</time>
      </trkpt>
      <trkpt lat="46.0079" lon="4.59712">
        <ele>379</ele>
        <time>2018-08-05T08:22:07.000Z</time>
      </trkpt>
      <trkpt lat="46.00782" lon="4.59713">
        <ele>379</ele>
        <time>2018-08-05T08:22:08.000Z</time>
      </trkpt>
      <trkpt lat="46.00773" lon="4.59715">
        <ele>379</ele>
        <time>2018-08-05T08:22:09.000Z</time>
      </trkpt>
      <trkpt lat="46.00765" lon="4.59718">
        <ele>378</ele>
        <time>2018-08-05T08:22:10.000Z</time>
      </trkpt>
      <trkpt lat="46.00756" lon="4.59721">
        <ele>377</ele>
        <time>2018-08-05T08:22:11.000Z</time>
      </trkpt>
      <trkpt lat="46.00747" lon="4.59726">
        <ele>372</ele>
        <time>2018-08-05T08:22:12.000Z</time>
      </trkpt>
      <trkpt lat="46.00739" lon="4.59733">
        <ele>371</ele>
        <time>2018-08-05T08:22:13.000Z</time>
      </trkpt>
      <trkpt lat="46.0073" lon="4.5974">
        <ele>371</ele>
        <time>2018-08-05T08:22:14.000Z</time>
      </trkpt>
      <trkpt lat="46.00721" lon="4.59746">
        <ele>371</ele>
        <time>2018-08-05T08:22:15.000Z</time>
      </trkpt>
      <trkpt lat="46.00711" lon="4.59753">
        <ele>365</ele>
        <time>2018-08-05T08:22:16.000Z</time>
      </trkpt>
      <trkpt lat="46.00702" lon="4.59761">
        <ele>365</ele>
        <time>2018-08-05T08:22:17.000Z</time>
      </trkpt>
      <trkpt lat="46.00693" lon="4.59768">
        <ele>364</ele>
        <time>2018-08-05T08:22:18.000Z</time>
      </trkpt>
      <trkpt lat="46.00685" lon="4.59774">
        <ele>363</ele>
        <time>2018-08-05T08:22:19.000Z</time>
      </trkpt>
      <trkpt lat="46.00678" lon="4.5978">
        <ele>363</ele>
        <time>2018-08-05T08:22:20.000Z</time>
      </trkpt>
      <trkpt lat="46.00671" lon="4.59785">
        <ele>363</ele>
        <time>2018-08-05T08:22:21.000Z</time>
      </trkpt>
      <trkpt lat="46.00665" lon="4.5979">
        <ele>354</ele>
        <time>2018-08-05T08:22:22.000Z</time>
      </trkpt>
      <trkpt lat="46.00659" lon="4.59795">
        <ele>354</ele>
        <time>2018-08-05T08:22:23.000Z</time>
      </trkpt>
      <trkpt lat="46.00652" lon="4.598">
        <ele>353</ele>
        <time>2018-08-05T08:22:24.000Z</time>
      </trkpt>
      <trkpt lat="46.00647" lon="4.59804">
        <ele>353</ele>
        <time>2018-08-05T08:22:25.000Z</time>
      </trkpt>
      <trkpt lat="46.00641" lon="4.59808">
        <ele>353</ele>
        <time>2018-08-05T08:22:26.000Z</time>
      </trkpt>
      <trkpt lat="46.00636" lon="4.5981">
        <ele>352</ele>
        <time>2018-08-05T08:22:27.000Z</time>
      </trkpt>
      <trkpt lat="46.00632" lon="4.59812">
        <ele>352</ele>
        <time>2018-08-05T08:22:28.000Z</time>
      </trkpt>
      <trkpt lat="46.00627" lon="4.59811">
        <ele>351</ele>
        <time>2018-08-05T08:22:29.000Z</time>
      </trkpt>
      <trkpt lat="46.00623" lon="4.5981">
        <ele>351</ele>
        <time>2018-08-05T08:22:30.000Z</time>
      </trkpt>
      <trkpt lat="46.0062" lon="4.59808">
        <ele>351</ele>
        <time>2018-08-05T08:22:31.000Z</time>
      </trkpt>
      <trkpt lat="46.00618" lon="4.59806">
        <ele>351</ele>
        <time>2018-08-05T08:22:32.000Z</time>
      </trkpt>
      <trkpt lat="46.00616" lon="4.59802">
        <ele>351</ele>
        <time>2018-08-05T08:22:33.000Z</time>
      </trkpt>
      <trkpt lat="46.00615" lon="4.59799">
        <ele>351</ele>
        <time>2018-08-05T08:22:34.000Z</time>
      </trkpt>
      <trkpt lat="46.00615" lon="4.59794">
        <ele>351</ele>
        <time>2018-08-05T08:22:35.000Z</time>
      </trkpt>
      <trkpt lat="46.00616" lon="4.59791">
        <ele>351</ele>
        <time>2018-08-05T08:22:36.000Z</time>
      </trkpt>
      <trkpt lat="46.00616" lon="4.59788">
        <ele>351</ele>
        <time>2018-08-05T08:22:37.000Z</time>
      </trkpt>
      <trkpt lat="46.00616" lon="4.59785">
        <ele>351</ele>
        <time>2018-08-05T08:22:38.000Z</time>
      </trkpt>
      <trkpt lat="46.00616" lon="4.59782">
        <ele>351</ele>
        <time>2018-08-05T08:22:39.000Z</time>
      </trkpt>
      <trkpt lat="46.00616" lon="4.59778">
        <ele>351</ele>
        <time>2018-08-05T08:22:40.000Z</time>
      </trkpt>
      <trkpt lat="46.00616" lon="4.59775">
        <ele>352</ele>
        <time>2018-08-05T08:22:41.000Z</time>
      </trkpt>
      <trkpt lat="46.00617" lon="4.59771">
        <ele>352</ele>
        <time>2018-08-05T08:22:42.000Z</time>
      </trkpt>
      <trkpt lat="46.00617" lon="4.59768">
        <ele>352</ele>
        <time>2018-08-05T08:22:43.000Z</time>
      </trkpt>
      <trkpt lat="46.00617" lon="4.59764">
        <ele>352</ele>
        <time>2018-08-05T08:22:44.000Z</time>
      </trkpt>
      <trkpt lat="46.00617" lon="4.5976">
        <ele>352</ele>
        <time>2018-08-05T08:22:45.000Z</time>
      </trkpt>
      <trkpt lat="46.00617" lon="4.59757">
        <ele>352</ele>
        <time>2018-08-05T08:22:46.000Z</time>
      </trkpt>
      <trkpt lat="46.00617" lon="4.59752">
        <ele>352</ele>
        <time>2018-08-05T08:22:47.000Z</time>
      </trkpt>
      <trkpt lat="46.00617" lon="4.59747">
        <ele>356</ele>
        <time>2018-08-05T08:22:48.000Z</time>
      </trkpt>
      <trkpt lat="46.00617" lon="4.59742">
        <ele>357</ele>
        <time>2018-08-05T08:22:49.000Z</time>
      </trkpt>
      <trkpt lat="46.00617" lon="4.59737">
        <ele>357</ele>
        <time>2018-08-05T08:22:50.000Z</time>
      </trkpt>
      <trkpt lat="46.00617" lon="4.59733">
        <ele>357</ele>
        <time>2018-08-05T08:22:51.000Z</time>
      </trkpt>
      <trkpt lat="46.00617" lon="4.59728">
        <ele>357</ele>
        <time>2018-08-05T08:22:52.000Z</time>
      </trkpt>
      <trkpt lat="46.00617" lon="4.59724">
        <ele>358</ele>
        <time>2018-08-05T08:22:53.000Z</time>
      </trkpt>
      <trkpt lat="46.00618" lon="4.5972">
        <ele>358</ele>
        <time>2018-08-05T08:22:54.000Z</time>
      </trkpt>
      <trkpt lat="46.00618" lon="4.59715">
        <ele>358</ele>
        <time>2018-08-05T08:22:55.000Z</time>
      </trkpt>
      <trkpt lat="46.00618" lon="4.59711">
        <ele>358</ele>
        <time>2018-08-05T08:22:56.000Z</time>
      </trkpt>
      <trkpt lat="46.00618" lon="4.59707">
        <ele>359</ele>
        <time>2018-08-05T08:22:57.000Z</time>
      </trkpt>
      <trkpt lat="46.00618" lon="4.59702">
        <ele>359</ele>
        <time>2018-08-05T08:22:58.000Z</time>
      </trkpt>
      <trkpt lat="46.00618" lon="4.59698">
        <ele>359</ele>
        <time>2018-08-05T08:22:59.000Z</time>
      </trkpt>
      <trkpt lat="46.00618" lon="4.59694">
        <ele>359</ele>
        <time>2018-08-05T08:23:00.000Z</time>
      </trkpt>
      <trkpt lat="46.00619" lon="4.5969">
        <ele>360</ele>
        <time>2018-08-05T08:23:01.000Z</time>
      </trkpt>
      <trkpt lat="46.00619" lon="4.59685">
        <ele>360</ele>
        <time>2018-08-05T08:23:02.000Z</time>
      </trkpt>
      <trkpt lat="46.00619" lon="4.59681">
        <ele>360</ele>
        <time>2018-08-05T08:23:03.000Z</time>
      </trkpt>
      <trkpt lat="46.00619" lon="4.59677">
        <ele>360</ele>
        <time>2018-08-05T08:23:04.000Z</time>
      </trkpt>
      <trkpt lat="46.00619" lon="4.59672">
        <ele>360</ele>
        <time>2018-08-05T08:23:05.000Z</time>
      </trkpt>
      <trkpt lat="46.00619" lon="4.59668">
        <ele>360</ele>
        <time>2018-08-05T08:23:06.000Z</time>
      </trkpt>
      <trkpt lat="46.0062" lon="4.59664">
        <ele>365</ele>
        <time>2018-08-05T08:23:07.000Z</time>
      </trkpt>
      <trkpt lat="46.0062" lon="4.5966">
        <ele>365</ele>
        <time>2018-08-05T08:23:08.000Z</time>
      </trkpt>
      <trkpt lat="46.0062" lon="4.59656">
        <ele>365</ele>
        <time>2018-08-05T08:23:09.000Z</time>
      </trkpt>
      <trkpt lat="46.0062" lon="4.59652">
        <ele>365</ele>
        <time>2018-08-05T08:23:10.000Z</time>
      </trkpt>
      <trkpt lat="46.0062" lon="4.59648">
        <ele>365</ele>
        <time>2018-08-05T08:23:11.000Z</time>
      </trkpt>
      <trkpt lat="46.00621" lon="4.59644">
        <ele>366</ele>
        <time>2018-08-05T08:23:12.000Z</time>
      </trkpt>
      <trkpt lat="46.00621" lon="4.5964">
        <ele>366</ele>
        <time>2018-08-05T08:23:13.000Z</time>
      </trkpt>
      <trkpt lat="46.00621" lon="4.59636">
        <ele>366</ele>
        <time>2018-08-05T08:23:14.000Z</time>
      </trkpt>
      <trkpt lat="46.00621" lon="4.59632">
        <ele>366</ele>
        <time>2018-08-05T08:23:15.000Z</time>
      </trkpt>
      <trkpt lat="46.00621" lon="4.59628">
        <ele>366</ele>
        <time>2018-08-05T08:23:16.000Z</time>
      </trkpt>
      <trkpt lat="46.00621" lon="4.59624">
        <ele>366</ele>
        <time>2018-08-05T08:23:17.000Z</time>
      </trkpt>
      <trkpt lat="46.00621" lon="4.5962">
        <ele>366</ele>
        <time>2018-08-05T08:23:18.000Z</time>
      </trkpt>
      <trkpt lat="46.00622" lon="4.59616">
        <ele>367</ele>
        <time>2018-08-05T08:23:19.000Z</time>
      </trkpt>
      <trkpt lat="46.00622" lon="4.59612">
        <ele>367</ele>
        <time>2018-08-05T08:23:20.000Z</time>
      </trkpt>
      <trkpt lat="46.00622" lon="4.59608">
        <ele>367</ele>
        <time>2018-08-05T08:23:21.000Z</time>
      </trkpt>
      <trkpt lat="46.00622" lon="4.59604">
        <ele>367</ele>
        <time>2018-08-05T08:23:22.000Z</time>
      </trkpt>
      <trkpt lat="46.00622" lon="4.596">
        <ele>367</ele>
        <time>2018-08-05T08:23:23.000Z</time>
      </trkpt>
      <trkpt lat="46.00622" lon="4.59596">
        <ele>367</ele>
        <time>2018-08-05T08:23:24.000Z</time>
      </trkpt>
      <trkpt lat="46.00623" lon="4.59592">
        <ele>367</ele>
        <time>2018-08-05T08:23:25.000Z</time>
      </trkpt>
      <trkpt lat="46.00623" lon="4.59588">
        <ele>367</ele>
        <time>2018-08-05T08:23:26.000Z</time>
      </trkpt>
      <trkpt lat="46.00623" lon="4.59584">
        <ele>367</ele>
        <time>2018-08-05T08:23:27.000Z</time>
      </trkpt>
      <trkpt lat="46.00623" lon="4.5958">
        <ele>370</ele>
        <time>2018-08-05T08:23:28.000Z</time>
      </trkpt>
      <trkpt lat="46.00623" lon="4.59576">
        <ele>371</ele>
        <time>2018-08-05T08:23:29.000Z</time>
      </trkpt>
      <trkpt lat="46.00623" lon="4.59572">
        <ele>371</ele>
        <time>2018-08-05T08:23:30.000Z</time>
      </trkpt>
      <trkpt lat="46.00623" lon="4.59568">
        <ele>371</ele>
        <time>2018-08-05T08:23:31.000Z</time>
      </trkpt>
      <trkpt lat="46.00623" lon="4.59564">
        <ele>371</ele>
        <time>2018-08-05T08:23:32.000Z</time>
      </trkpt>
      <trkpt lat="46.00623" lon="4.5956">
        <ele>371</ele>
        <time>2018-08-05T08:23:33.000Z</time>
      </trkpt>
      <trkpt lat="46.00623" lon="4.59556">
        <ele>371</ele>
        <time>2018-08-05T08:23:34.000Z</time>
      </trkpt>
      <trkpt lat="46.00623" lon="4.59552">
        <ele>371</ele>
        <time>2018-08-05T08:23:35.000Z</time>
      </trkpt>
      <trkpt lat="46.00623" lon="4.59548">
        <ele>371</ele>
        <time>2018-08-05T08:23:36.000Z</time>
      </trkpt>
      <trkpt lat="46.00622" lon="4.59544">
        <ele>371</ele>
        <time>2018-08-05T08:23:37.000Z</time>
      </trkpt>
      <trkpt lat="46.00622" lon="4.5954">
        <ele>371</ele>
        <time>2018-08-05T08:23:38.000Z</time>
      </trkpt>
      <trkpt lat="46.00623" lon="4.59536">
        <ele>371</ele>
        <time>2018-08-05T08:23:39.000Z</time>
      </trkpt>
      <trkpt lat="46.00623" lon="4.59532">
        <ele>372</ele>
        <time>2018-08-05T08:23:40.000Z</time>
      </trkpt>
      <trkpt lat="46.00623" lon="4.59529">
        <ele>372</ele>
        <time>2018-08-05T08:23:41.000Z</time>
      </trkpt>
      <trkpt lat="46.00622" lon="4.59525">
        <ele>372</ele>
        <time>2018-08-05T08:23:42.000Z</time>
      </trkpt>
      <trkpt lat="46.00622" lon="4.59521">
        <ele>372</ele>
        <time>2018-08-05T08:23:43.000Z</time>
      </trkpt>
      <trkpt lat="46.00622" lon="4.59517">
        <ele>372</ele>
        <time>2018-08-05T08:23:44.000Z</time>
      </trkpt>
      <trkpt lat="46.00621" lon="4.59513">
        <ele>372</ele>
        <time>2018-08-05T08:23:45.000Z</time>
      </trkpt>
      <trkpt lat="46.00621" lon="4.5951">
        <ele>371</ele>
        <time>2018-08-05T08:23:46.000Z</time>
      </trkpt>
      <trkpt lat="46.00621" lon="4.59506">
        <ele>371</ele>
        <time>2018-08-05T08:23:47.000Z</time>
      </trkpt>
      <trkpt lat="46.00621" lon="4.59502">
        <ele>372</ele>
        <time>2018-08-05T08:23:48.000Z</time>
      </trkpt>
      <trkpt lat="46.0062" lon="4.59498">
        <ele>373</ele>
        <time>2018-08-05T08:23:49.000Z</time>
      </trkpt>
      <trkpt lat="46.0062" lon="4.59494">
        <ele>373</ele>
        <time>2018-08-05T08:23:50.000Z</time>
      </trkpt>
      <trkpt lat="46.0062" lon="4.5949">
        <ele>373</ele>
        <time>2018-08-05T08:23:51.000Z</time>
      </trkpt>
      <trkpt lat="46.00619" lon="4.59486">
        <ele>373</ele>
        <time>2018-08-05T08:23:52.000Z</time>
      </trkpt>
      <trkpt lat="46.00619" lon="4.59482">
        <ele>373</ele>
        <time>2018-08-05T08:23:53.000Z</time>
      </trkpt>
      <trkpt lat="46.00618" lon="4.59478">
        <ele>373</ele>
        <time>2018-08-05T08:23:54.000Z</time>
      </trkpt>
      <trkpt lat="46.00618" lon="4.59474">
        <ele>373</ele>
        <time>2018-08-05T08:23:55.000Z</time>
      </trkpt>
      <trkpt lat="46.00618" lon="4.5947">
        <ele>373</ele>
        <time>2018-08-05T08:23:56.000Z</time>
      </trkpt>
      <trkpt lat="46.00617" lon="4.59466">
        <ele>373</ele>
        <time>2018-08-05T08:23:57.000Z</time>
      </trkpt>
      <trkpt lat="46.00617" lon="4.59462">
        <ele>373</ele>
        <time>2018-08-05T08:23:58.000Z</time>
      </trkpt>
      <trkpt lat="46.00617" lon="4.59458">
        <ele>373</ele>
        <time>2018-08-05T08:23:59.000Z</time>
      </trkpt>
      <trkpt lat="46.00616" lon="4.59454">
        <ele>373</ele>
        <time>2018-08-05T08:24:00.000Z</time>
      </trkpt>
      <trkpt lat="46.00616" lon="4.5945">
        <ele>373</ele>
        <time>2018-08-05T08:24:01.000Z</time>
      </trkpt>
      <trkpt lat="46.00616" lon="4.59446">
        <ele>373</ele>
        <time>2018-08-05T08:24:02.000Z</time>
      </trkpt>
      <trkpt lat="46.00616" lon="4.59442">
        <ele>373</ele>
        <time>2018-08-05T08:24:03.000Z</time>
      </trkpt>
      <trkpt lat="46.00616" lon="4.59438">
        <ele>373</ele>
        <time>2018-08-05T08:24:04.000Z</time>
      </trkpt>
      <trkpt lat="46.00616" lon="4.59434">
        <ele>372</ele>
        <time>2018-08-05T08:24:05.000Z</time>
      </trkpt>
      <trkpt lat="46.00616" lon="4.59431">
        <ele>372</ele>
        <time>2018-08-05T08:24:06.000Z</time>
      </trkpt>
      <trkpt lat="46.00616" lon="4.59427">
        <ele>372</ele>
        <time>2018-08-05T08:24:07.000Z</time>
      </trkpt>
      <trkpt lat="46.00615" lon="4.59423">
        <ele>372</ele>
        <time>2018-08-05T08:24:08.000Z</time>
      </trkpt>
      <trkpt lat="46.00615" lon="4.59419">
        <ele>372</ele>
        <time>2018-08-05T08:24:09.000Z</time>
      </trkpt>
      <trkpt lat="46.00615" lon="4.59415">
        <ele>374</ele>
        <time>2018-08-05T08:24:10.000Z</time>
      </trkpt>
      <trkpt lat="46.00615" lon="4.59411">
        <ele>374</ele>
        <time>2018-08-05T08:24:11.000Z</time>
      </trkpt>
      <trkpt lat="46.00615" lon="4.59407">
        <ele>374</ele>
        <time>2018-08-05T08:24:12.000Z</time>
      </trkpt>
      <trkpt lat="46.00614" lon="4.59403">
        <ele>374</ele>
        <time>2018-08-05T08:24:13.000Z</time>
      </trkpt>
      <trkpt lat="46.00614" lon="4.59399">
        <ele>374</ele>
        <time>2018-08-05T08:24:14.000Z</time>
      </trkpt>
      <trkpt lat="46.00613" lon="4.59395">
        <ele>374</ele>
        <time>2018-08-05T08:24:15.000Z</time>
      </trkpt>
      <trkpt lat="46.00613" lon="4.59391">
        <ele>375</ele>
        <time>2018-08-05T08:24:16.000Z</time>
      </trkpt>
      <trkpt lat="46.00612" lon="4.59387">
        <ele>375</ele>
        <time>2018-08-05T08:24:17.000Z</time>
      </trkpt>
      <trkpt lat="46.00611" lon="4.59383">
        <ele>375</ele>
        <time>2018-08-05T08:24:18.000Z</time>
      </trkpt>
      <trkpt lat="46.00611" lon="4.5938">
        <ele>375</ele>
        <time>2018-08-05T08:24:19.000Z</time>
      </trkpt>
      <trkpt lat="46.0061" lon="4.59376">
        <ele>375</ele>
        <time>2018-08-05T08:24:20.000Z</time>
      </trkpt>
      <trkpt lat="46.00609" lon="4.59372">
        <ele>375</ele>
        <time>2018-08-05T08:24:21.000Z</time>
      </trkpt>
      <trkpt lat="46.00608" lon="4.59368">
        <ele>375</ele>
        <time>2018-08-05T08:24:22.000Z</time>
      </trkpt>
      <trkpt lat="46.00607" lon="4.59365">
        <ele>375</ele>
        <time>2018-08-05T08:24:23.000Z</time>
      </trkpt>
      <trkpt lat="46.00607" lon="4.59361">
        <ele>375</ele>
        <time>2018-08-05T08:24:24.000Z</time>
      </trkpt>
      <trkpt lat="46.00606" lon="4.59358">
        <ele>374</ele>
        <time>2018-08-05T08:24:25.000Z</time>
      </trkpt>
      <trkpt lat="46.00605" lon="4.59354">
        <ele>374</ele>
        <time>2018-08-05T08:24:26.000Z</time>
      </trkpt>
      <trkpt lat="46.00604" lon="4.59351">
        <ele>374</ele>
        <time>2018-08-05T08:24:27.000Z</time>
      </trkpt>
      <trkpt lat="46.00603" lon="4.59347">
        <ele>373</ele>
        <time>2018-08-05T08:24:28.000Z</time>
      </trkpt>
      <trkpt lat="46.00602" lon="4.59344">
        <ele>373</ele>
        <time>2018-08-05T08:24:29.000Z</time>
      </trkpt>
      <trkpt lat="46.00601" lon="4.5934">
        <ele>372</ele>
        <time>2018-08-05T08:24:30.000Z</time>
      </trkpt>
      <trkpt lat="46.006" lon="4.59336">
        <ele>372</ele>
        <time>2018-08-05T08:24:31.000Z</time>
      </trkpt>
      <trkpt lat="46.00599" lon="4.59333">
        <ele>374</ele>
        <time>2018-08-05T08:24:32.000Z</time>
      </trkpt>
      <trkpt lat="46.00597" lon="4.59329">
        <ele>373</ele>
        <time>2018-08-05T08:24:33.000Z</time>
      </trkpt>
      <trkpt lat="46.00596" lon="4.59326">
        <ele>373</ele>
        <time>2018-08-05T08:24:34.000Z</time>
      </trkpt>
      <trkpt lat="46.00595" lon="4.59322">
        <ele>374</ele>
        <time>2018-08-05T08:24:35.000Z</time>
      </trkpt>
      <trkpt lat="46.00594" lon="4.59319">
        <ele>374</ele>
        <time>2018-08-05T08:24:36.000Z</time>
      </trkpt>
      <trkpt lat="46.00593" lon="4.59316">
        <ele>375</ele>
        <time>2018-08-05T08:24:37.000Z</time>
      </trkpt>
      <trkpt lat="46.00591" lon="4.59312">
        <ele>375</ele>
        <time>2018-08-05T08:24:38.000Z</time>
      </trkpt>
      <trkpt lat="46.00589" lon="4.59309">
        <ele>376</ele>
        <time>2018-08-05T08:24:39.000Z</time>
      </trkpt>
      <trkpt lat="46.00589" lon="4.59306">
        <ele>376</ele>
        <time>2018-08-05T08:24:40.000Z</time>
      </trkpt>
      <trkpt lat="46.00588" lon="4.59303">
        <ele>376</ele>
        <time>2018-08-05T08:24:41.000Z</time>
      </trkpt>
      <trkpt lat="46.00587" lon="4.59299">
        <ele>377</ele>
        <time>2018-08-05T08:24:42.000Z</time>
      </trkpt>
      <trkpt lat="46.00587" lon="4.59296">
        <ele>377</ele>
        <time>2018-08-05T08:24:43.000Z</time>
      </trkpt>
      <trkpt lat="46.00586" lon="4.59292">
        <ele>377</ele>
        <time>2018-08-05T08:24:44.000Z</time>
      </trkpt>
      <trkpt lat="46.00586" lon="4.59287">
        <ele>377</ele>
        <time>2018-08-05T08:24:45.000Z</time>
      </trkpt>
      <trkpt lat="46.00585" lon="4.59283">
        <ele>377</ele>
        <time>2018-08-05T08:24:46.000Z</time>
      </trkpt>
      <trkpt lat="46.00585" lon="4.59279">
        <ele>377</ele>
        <time>2018-08-05T08:24:47.000Z</time>
      </trkpt>
      <trkpt lat="46.00585" lon="4.59275">
        <ele>377</ele>
        <time>2018-08-05T08:24:48.000Z</time>
      </trkpt>
      <trkpt lat="46.00584" lon="4.59271">
        <ele>376</ele>
        <time>2018-08-05T08:24:49.000Z</time>
      </trkpt>
      <trkpt lat="46.00584" lon="4.59266">
        <ele>376</ele>
        <time>2018-08-05T08:24:50.000Z</time>
      </trkpt>
      <trkpt lat="46.00585" lon="4.59262">
        <ele>375</ele>
        <time>2018-08-05T08:24:51.000Z</time>
      </trkpt>
      <trkpt lat="46.00585" lon="4.59258">
        <ele>374</ele>
        <time>2018-08-05T08:24:52.000Z</time>
      </trkpt>
      <trkpt lat="46.00586" lon="4.59254">
        <ele>373</ele>
        <time>2018-08-05T08:24:53.000Z</time>
      </trkpt>
      <trkpt lat="46.00586" lon="4.59249">
        <ele>373</ele>
        <time>2018-08-05T08:24:54.000Z</time>
      </trkpt>
      <trkpt lat="46.00587" lon="4.59246">
        <ele>374</ele>
        <time>2018-08-05T08:24:55.000Z</time>
      </trkpt>
      <trkpt lat="46.00587" lon="4.59242">
        <ele>376</ele>
        <time>2018-08-05T08:24:56.000Z</time>
      </trkpt>
      <trkpt lat="46.00588" lon="4.59238">
        <ele>377</ele>
        <time>2018-08-05T08:24:57.000Z</time>
      </trkpt>
      <trkpt lat="46.00589" lon="4.59234">
        <ele>378</ele>
        <time>2018-08-05T08:24:58.000Z</time>
      </trkpt>
      <trkpt lat="46.0059" lon="4.5923">
        <ele>379</ele>
        <time>2018-08-05T08:24:59.000Z</time>
      </trkpt>
      <trkpt lat="46.00591" lon="4.59225">
        <ele>380</ele>
        <time>2018-08-05T08:25:00.000Z</time>
      </trkpt>
      <trkpt lat="46.00592" lon="4.59221">
        <ele>381</ele>
        <time>2018-08-05T08:25:01.000Z</time>
      </trkpt>
      <trkpt lat="46.00593" lon="4.59217">
        <ele>381</ele>
        <time>2018-08-05T08:25:02.000Z</time>
      </trkpt>
      <trkpt lat="46.00594" lon="4.59213">
        <ele>381</ele>
        <time>2018-08-05T08:25:03.000Z</time>
      </trkpt>
      <trkpt lat="46.00595" lon="4.59209">
        <ele>382</ele>
        <time>2018-08-05T08:25:04.000Z</time>
      </trkpt>
      <trkpt lat="46.00596" lon="4.59206">
        <ele>382</ele>
        <time>2018-08-05T08:25:05.000Z</time>
      </trkpt>
      <trkpt lat="46.00597" lon="4.59202">
        <ele>382</ele>
        <time>2018-08-05T08:25:06.000Z</time>
      </trkpt>
      <trkpt lat="46.00599" lon="4.59198">
        <ele>382</ele>
        <time>2018-08-05T08:25:07.000Z</time>
      </trkpt>
      <trkpt lat="46.006" lon="4.59194">
        <ele>382</ele>
        <time>2018-08-05T08:25:08.000Z</time>
      </trkpt>
      <trkpt lat="46.00601" lon="4.59191">
        <ele>382</ele>
        <time>2018-08-05T08:25:09.000Z</time>
      </trkpt>
      <trkpt lat="46.00602" lon="4.59187">
        <ele>381</ele>
        <time>2018-08-05T08:25:10.000Z</time>
      </trkpt>
      <trkpt lat="46.00603" lon="4.59183">
        <ele>381</ele>
        <time>2018-08-05T08:25:11.000Z</time>
      </trkpt>
      <trkpt lat="46.00604" lon="4.59179">
        <ele>381</ele>
        <time>2018-08-05T08:25:12.000Z</time>
      </trkpt>
      <trkpt lat="46.00605" lon="4.59175">
        <ele>381</ele>
        <time>2018-08-05T08:25:13.000Z</time>
      </trkpt>
      <trkpt lat="46.00605" lon="4.59171">
        <ele>381</ele>
        <time>2018-08-05T08:25:14.000Z</time>
      </trkpt>
      <trkpt lat="46.00606" lon="4.59167">
        <ele>381</ele>
        <time>2018-08-05T08:25:15.000Z</time>
      </trkpt>
      <trkpt lat="46.00607" lon="4.59164">
        <ele>382</ele>
        <time>2018-08-05T08:25:16.000Z</time>
      </trkpt>
      <trkpt lat="46.00608" lon="4.5916">
        <ele>383</ele>
        <time>2018-08-05T08:25:17.000Z</time>
      </trkpt>
      <trkpt lat="46.00608" lon="4.59156">
        <ele>383</ele>
        <time>2018-08-05T08:25:18.000Z</time>
      </trkpt>
      <trkpt lat="46.00608" lon="4.59153">
        <ele>384</ele>
        <time>2018-08-05T08:25:19.000Z</time>
      </trkpt>
      <trkpt lat="46.00608" lon="4.59149">
        <ele>384</ele>
        <time>2018-08-05T08:25:20.000Z</time>
      </trkpt>
      <trkpt lat="46.00608" lon="4.59144">
        <ele>384</ele>
        <time>2018-08-05T08:25:21.000Z</time>
      </trkpt>
      <trkpt lat="46.00608" lon="4.5914">
        <ele>385</ele>
        <time>2018-08-05T08:25:22.000Z</time>
      </trkpt>
      <trkpt lat="46.00607" lon="4.59135">
        <ele>385</ele>
        <time>2018-08-05T08:25:23.000Z</time>
      </trkpt>
      <trkpt lat="46.00607" lon="4.59131">
        <ele>385</ele>
        <time>2018-08-05T08:25:24.000Z</time>
      </trkpt>
      <trkpt lat="46.00607" lon="4.59126">
        <ele>385</ele>
        <time>2018-08-05T08:25:25.000Z</time>
      </trkpt>
      <trkpt lat="46.00606" lon="4.59121">
        <ele>385</ele>
        <time>2018-08-05T08:25:26.000Z</time>
      </trkpt>
      <trkpt lat="46.00606" lon="4.59117">
        <ele>385</ele>
        <time>2018-08-05T08:25:27.000Z</time>
      </trkpt>
      <trkpt lat="46.00605" lon="4.59112">
        <ele>384</ele>
        <time>2018-08-05T08:25:28.000Z</time>
      </trkpt>
      <trkpt lat="46.00604" lon="4.59108">
        <ele>384</ele>
        <time>2018-08-05T08:25:29.000Z</time>
      </trkpt>
      <trkpt lat="46.00604" lon="4.59104">
        <ele>383</ele>
        <time>2018-08-05T08:25:30.000Z</time>
      </trkpt>
      <trkpt lat="46.00603" lon="4.59099">
        <ele>383</ele>
        <time>2018-08-05T08:25:31.000Z</time>
      </trkpt>
      <trkpt lat="46.00603" lon="4.59095">
        <ele>382</ele>
        <time>2018-08-05T08:25:32.000Z</time>
      </trkpt>
      <trkpt lat="46.00602" lon="4.59091">
        <ele>382</ele>
        <time>2018-08-05T08:25:33.000Z</time>
      </trkpt>
      <trkpt lat="46.00602" lon="4.59087">
        <ele>381</ele>
        <time>2018-08-05T08:25:34.000Z</time>
      </trkpt>
      <trkpt lat="46.00602" lon="4.59083">
        <ele>380</ele>
        <time>2018-08-05T08:25:35.000Z</time>
      </trkpt>
      <trkpt lat="46.00602" lon="4.59079">
        <ele>380</ele>
        <time>2018-08-05T08:25:36.000Z</time>
      </trkpt>
      <trkpt lat="46.00603" lon="4.59074">
        <ele>380</ele>
        <time>2018-08-05T08:25:37.000Z</time>
      </trkpt>
      <trkpt lat="46.00604" lon="4.5907">
        <ele>381</ele>
        <time>2018-08-05T08:25:38.000Z</time>
      </trkpt>
      <trkpt lat="46.00605" lon="4.59067">
        <ele>381</ele>
        <time>2018-08-05T08:25:39.000Z</time>
      </trkpt>
      <trkpt lat="46.00606" lon="4.59063">
        <ele>382</ele>
        <time>2018-08-05T08:25:40.000Z</time>
      </trkpt>
      <trkpt lat="46.00607" lon="4.59059">
        <ele>382</ele>
        <time>2018-08-05T08:25:41.000Z</time>
      </trkpt>
      <trkpt lat="46.00609" lon="4.59056">
        <ele>382</ele>
        <time>2018-08-05T08:25:42.000Z</time>
      </trkpt>
      <trkpt lat="46.00611" lon="4.59052">
        <ele>382</ele>
        <time>2018-08-05T08:25:43.000Z</time>
      </trkpt>
      <trkpt lat="46.00613" lon="4.59049">
        <ele>383</ele>
        <time>2018-08-05T08:25:44.000Z</time>
      </trkpt>
      <trkpt lat="46.00615" lon="4.59046">
        <ele>383</ele>
        <time>2018-08-05T08:25:45.000Z</time>
      </trkpt>
      <trkpt lat="46.00617" lon="4.59043">
        <ele>383</ele>
        <time>2018-08-05T08:25:46.000Z</time>
      </trkpt>
      <trkpt lat="46.00619" lon="4.5904">
        <ele>383</ele>
        <time>2018-08-05T08:25:47.000Z</time>
      </trkpt>
      <trkpt lat="46.00621" lon="4.59038">
        <ele>383</ele>
        <time>2018-08-05T08:25:48.000Z</time>
      </trkpt>
      <trkpt lat="46.00624" lon="4.59036">
        <ele>384</ele>
        <time>2018-08-05T08:25:49.000Z</time>
      </trkpt>
      <trkpt lat="46.00627" lon="4.59034">
        <ele>384</ele>
        <time>2018-08-05T08:25:50.000Z</time>
      </trkpt>
      <trkpt lat="46.00629" lon="4.59031">
        <ele>384</ele>
        <time>2018-08-05T08:25:51.000Z</time>
      </trkpt>
      <trkpt lat="46.00632" lon="4.59029">
        <ele>384</ele>
        <time>2018-08-05T08:25:52.000Z</time>
      </trkpt>
      <trkpt lat="46.00635" lon="4.59027">
        <ele>384</ele>
        <time>2018-08-05T08:25:53.000Z</time>
      </trkpt>
      <trkpt lat="46.00638" lon="4.59025">
        <ele>384</ele>
        <time>2018-08-05T08:25:54.000Z</time>
      </trkpt>
      <trkpt lat="46.00641" lon="4.59023">
        <ele>385</ele>
        <time>2018-08-05T08:25:55.000Z</time>
      </trkpt>
      <trkpt lat="46.00644" lon="4.5902">
        <ele>385</ele>
        <time>2018-08-05T08:25:56.000Z</time>
      </trkpt>
      <trkpt lat="46.00647" lon="4.59018">
        <ele>385</ele>
        <time>2018-08-05T08:25:57.000Z</time>
      </trkpt>
      <trkpt lat="46.0065" lon="4.59016">
        <ele>385</ele>
        <time>2018-08-05T08:25:58.000Z</time>
      </trkpt>
      <trkpt lat="46.00653" lon="4.59014">
        <ele>385</ele>
        <time>2018-08-05T08:25:59.000Z</time>
      </trkpt>
      <trkpt lat="46.00656" lon="4.59012">
        <ele>385</ele>
        <time>2018-08-05T08:26:00.000Z</time>
      </trkpt>
      <trkpt lat="46.00658" lon="4.5901">
        <ele>385</ele>
        <time>2018-08-05T08:26:01.000Z</time>
      </trkpt>
      <trkpt lat="46.00661" lon="4.59008">
        <ele>385</ele>
        <time>2018-08-05T08:26:02.000Z</time>
      </trkpt>
      <trkpt lat="46.00664" lon="4.59006">
        <ele>385</ele>
        <time>2018-08-05T08:26:03.000Z</time>
      </trkpt>
      <trkpt lat="46.00667" lon="4.59004">
        <ele>388</ele>
        <time>2018-08-05T08:26:04.000Z</time>
      </trkpt>
      <trkpt lat="46.0067" lon="4.59002">
        <ele>388</ele>
        <time>2018-08-05T08:26:05.000Z</time>
      </trkpt>
      <trkpt lat="46.00672" lon="4.59">
        <ele>387</ele>
        <time>2018-08-05T08:26:06.000Z</time>
      </trkpt>
      <trkpt lat="46.00675" lon="4.58998">
        <ele>388</ele>
        <time>2018-08-05T08:26:07.000Z</time>
      </trkpt>
      <trkpt lat="46.00678" lon="4.58996">
        <ele>389</ele>
        <time>2018-08-05T08:26:08.000Z</time>
      </trkpt>
      <trkpt lat="46.0068" lon="4.58994">
        <ele>389</ele>
        <time>2018-08-05T08:26:09.000Z</time>
      </trkpt>
      <trkpt lat="46.00682" lon="4.58993">
        <ele>390</ele>
        <time>2018-08-05T08:26:10.000Z</time>
      </trkpt>
      <trkpt lat="46.00685" lon="4.58991">
        <ele>390</ele>
        <time>2018-08-05T08:26:11.000Z</time>
      </trkpt>
      <trkpt lat="46.00687" lon="4.58989">
        <ele>391</ele>
        <time>2018-08-05T08:26:12.000Z</time>
      </trkpt>
      <trkpt lat="46.0069" lon="4.58987">
        <ele>391</ele>
        <time>2018-08-05T08:26:13.000Z</time>
      </trkpt>
      <trkpt lat="46.00692" lon="4.58985">
        <ele>392</ele>
        <time>2018-08-05T08:26:14.000Z</time>
      </trkpt>
      <trkpt lat="46.00695" lon="4.58983">
        <ele>392</ele>
        <time>2018-08-05T08:26:15.000Z</time>
      </trkpt>
      <trkpt lat="46.00698" lon="4.5898">
        <ele>393</ele>
        <time>2018-08-05T08:26:16.000Z</time>
      </trkpt>
      <trkpt lat="46.00701" lon="4.58978">
        <ele>393</ele>
        <time>2018-08-05T08:26:17.000Z</time>
      </trkpt>
      <trkpt lat="46.00704" lon="4.58976">
        <ele>394</ele>
        <time>2018-08-05T08:26:18.000Z</time>
      </trkpt>
      <trkpt lat="46.00707" lon="4.58973">
        <ele>394</ele>
        <time>2018-08-05T08:26:19.000Z</time>
      </trkpt>
      <trkpt lat="46.0071" lon="4.58971">
        <ele>394</ele>
        <time>2018-08-05T08:26:20.000Z</time>
      </trkpt>
      <trkpt lat="46.00713" lon="4.58968">
        <ele>395</ele>
        <time>2018-08-05T08:26:21.000Z</time>
      </trkpt>
      <trkpt lat="46.00716" lon="4.58965">
        <ele>395</ele>
        <time>2018-08-05T08:26:22.000Z</time>
      </trkpt>
      <trkpt lat="46.00719" lon="4.58962">
        <ele>395</ele>
        <time>2018-08-05T08:26:23.000Z</time>
      </trkpt>
      <trkpt lat="46.00722" lon="4.58959">
        <ele>395</ele>
        <time>2018-08-05T08:26:24.000Z</time>
      </trkpt>
      <trkpt lat="46.00725" lon="4.58956">
        <ele>395</ele>
        <time>2018-08-05T08:26:25.000Z</time>
      </trkpt>
      <trkpt lat="46.00728" lon="4.58954">
        <ele>395</ele>
        <time>2018-08-05T08:26:26.000Z</time>
      </trkpt>
      <trkpt lat="46.00731" lon="4.58951">
        <ele>395</ele>
        <time>2018-08-05T08:26:27.000Z</time>
      </trkpt>
      <trkpt lat="46.00733" lon="4.58948">
        <ele>394</ele>
        <time>2018-08-05T08:26:28.000Z</time>
      </trkpt>
      <trkpt lat="46.00736" lon="4.58945">
        <ele>394</ele>
        <time>2018-08-05T08:26:29.000Z</time>
      </trkpt>
      <trkpt lat="46.00739" lon="4.58941">
        <ele>394</ele>
        <time>2018-08-05T08:26:30.000Z</time>
      </trkpt>
      <trkpt lat="46.00742" lon="4.58938">
        <ele>394</ele>
        <time>2018-08-05T08:26:31.000Z</time>
      </trkpt>
      <trkpt lat="46.00744" lon="4.58933">
        <ele>393</ele>
        <time>2018-08-05T08:26:32.000Z</time>
      </trkpt>
      <trkpt lat="46.00746" lon="4.58929">
        <ele>393</ele>
        <time>2018-08-05T08:26:33.000Z</time>
      </trkpt>
      <trkpt lat="46.00749" lon="4.58926">
        <ele>393</ele>
        <time>2018-08-05T08:26:34.000Z</time>
      </trkpt>
      <trkpt lat="46.00752" lon="4.58922">
        <ele>398</ele>
        <time>2018-08-05T08:26:35.000Z</time>
      </trkpt>
      <trkpt lat="46.00754" lon="4.58919">
        <ele>397</ele>
        <time>2018-08-05T08:26:36.000Z</time>
      </trkpt>
      <trkpt lat="46.00757" lon="4.58915">
        <ele>394</ele>
        <time>2018-08-05T08:26:37.000Z</time>
      </trkpt>
      <trkpt lat="46.00759" lon="4.58912">
        <ele>395</ele>
        <time>2018-08-05T08:26:38.000Z</time>
      </trkpt>
      <trkpt lat="46.00761" lon="4.58909">
        <ele>396</ele>
        <time>2018-08-05T08:26:39.000Z</time>
      </trkpt>
      <trkpt lat="46.00763" lon="4.58905">
        <ele>397</ele>
        <time>2018-08-05T08:26:40.000Z</time>
      </trkpt>
      <trkpt lat="46.00765" lon="4.58902">
        <ele>398</ele>
        <time>2018-08-05T08:26:41.000Z</time>
      </trkpt>
      <trkpt lat="46.00768" lon="4.58898">
        <ele>398</ele>
        <time>2018-08-05T08:26:42.000Z</time>
      </trkpt>
      <trkpt lat="46.0077" lon="4.58894">
        <ele>399</ele>
        <time>2018-08-05T08:26:43.000Z</time>
      </trkpt>
      <trkpt lat="46.00773" lon="4.5889">
        <ele>399</ele>
        <time>2018-08-05T08:26:44.000Z</time>
      </trkpt>
      <trkpt lat="46.00776" lon="4.58886">
        <ele>399</ele>
        <time>2018-08-05T08:26:45.000Z</time>
      </trkpt>
      <trkpt lat="46.0078" lon="4.58882">
        <ele>400</ele>
        <time>2018-08-05T08:26:46.000Z</time>
      </trkpt>
      <trkpt lat="46.00783" lon="4.58877">
        <ele>400</ele>
        <time>2018-08-05T08:26:47.000Z</time>
      </trkpt>
      <trkpt lat="46.00786" lon="4.58872">
        <ele>400</ele>
        <time>2018-08-05T08:26:48.000Z</time>
      </trkpt>
      <trkpt lat="46.0079" lon="4.58868">
        <ele>400</ele>
        <time>2018-08-05T08:26:49.000Z</time>
      </trkpt>
      <trkpt lat="46.00793" lon="4.58863">
        <ele>400</ele>
        <time>2018-08-05T08:26:50.000Z</time>
      </trkpt>
      <trkpt lat="46.00797" lon="4.58858">
        <ele>400</ele>
        <time>2018-08-05T08:26:51.000Z</time>
      </trkpt>
      <trkpt lat="46.00801" lon="4.58853">
        <ele>400</ele>
        <time>2018-08-05T08:26:52.000Z</time>
      </trkpt>
      <trkpt lat="46.00804" lon="4.58848">
        <ele>401</ele>
        <time>2018-08-05T08:26:53.000Z</time>
      </trkpt>
      <trkpt lat="46.00807" lon="4.58843">
        <ele>401</ele>
        <time>2018-08-05T08:26:54.000Z</time>
      </trkpt>
      <trkpt lat="46.0081" lon="4.58838">
        <ele>401</ele>
        <time>2018-08-05T08:26:55.000Z</time>
      </trkpt>
      <trkpt lat="46.00814" lon="4.58833">
        <ele>397</ele>
        <time>2018-08-05T08:26:56.000Z</time>
      </trkpt>
      <trkpt lat="46.00816" lon="4.58828">
        <ele>397</ele>
        <time>2018-08-05T08:26:57.000Z</time>
      </trkpt>
      <trkpt lat="46.00819" lon="4.58823">
        <ele>397</ele>
        <time>2018-08-05T08:26:58.000Z</time>
      </trkpt>
      <trkpt lat="46.00822" lon="4.58817">
        <ele>397</ele>
        <time>2018-08-05T08:26:59.000Z</time>
      </trkpt>
      <trkpt lat="46.00824" lon="4.58812">
        <ele>396</ele>
        <time>2018-08-05T08:27:00.000Z</time>
      </trkpt>
      <trkpt lat="46.00827" lon="4.58807">
        <ele>395</ele>
        <time>2018-08-05T08:27:01.000Z</time>
      </trkpt>
      <trkpt lat="46.0083" lon="4.58802">
        <ele>395</ele>
        <time>2018-08-05T08:27:02.000Z</time>
      </trkpt>
      <trkpt lat="46.00832" lon="4.58798">
        <ele>394</ele>
        <time>2018-08-05T08:27:03.000Z</time>
      </trkpt>
      <trkpt lat="46.00834" lon="4.58792">
        <ele>406</ele>
        <time>2018-08-05T08:27:04.000Z</time>
      </trkpt>
      <trkpt lat="46.00836" lon="4.58787">
        <ele>405</ele>
        <time>2018-08-05T08:27:05.000Z</time>
      </trkpt>
      <trkpt lat="46.00839" lon="4.58782">
        <ele>404</ele>
        <time>2018-08-05T08:27:06.000Z</time>
      </trkpt>
      <trkpt lat="46.00841" lon="4.58776">
        <ele>403</ele>
        <time>2018-08-05T08:27:07.000Z</time>
      </trkpt>
      <trkpt lat="46.00844" lon="4.58771">
        <ele>402</ele>
        <time>2018-08-05T08:27:08.000Z</time>
      </trkpt>
      <trkpt lat="46.00847" lon="4.58766">
        <ele>401</ele>
        <time>2018-08-05T08:27:09.000Z</time>
      </trkpt>
      <trkpt lat="46.0085" lon="4.58761">
        <ele>401</ele>
        <time>2018-08-05T08:27:10.000Z</time>
      </trkpt>
      <trkpt lat="46.00853" lon="4.58756">
        <ele>401</ele>
        <time>2018-08-05T08:27:11.000Z</time>
      </trkpt>
      <trkpt lat="46.00856" lon="4.58751">
        <ele>402</ele>
        <time>2018-08-05T08:27:12.000Z</time>
      </trkpt>
      <trkpt lat="46.00859" lon="4.58746">
        <ele>397</ele>
        <time>2018-08-05T08:27:13.000Z</time>
      </trkpt>
      <trkpt lat="46.00862" lon="4.58741">
        <ele>398</ele>
        <time>2018-08-05T08:27:14.000Z</time>
      </trkpt>
      <trkpt lat="46.00865" lon="4.58736">
        <ele>399</ele>
        <time>2018-08-05T08:27:15.000Z</time>
      </trkpt>
      <trkpt lat="46.00869" lon="4.58731">
        <ele>399</ele>
        <time>2018-08-05T08:27:16.000Z</time>
      </trkpt>
      <trkpt lat="46.00872" lon="4.58725">
        <ele>400</ele>
        <time>2018-08-05T08:27:17.000Z</time>
      </trkpt>
      <trkpt lat="46.00876" lon="4.5872">
        <ele>400</ele>
        <time>2018-08-05T08:27:18.000Z</time>
      </trkpt>
      <trkpt lat="46.0088" lon="4.58714">
        <ele>401</ele>
        <time>2018-08-05T08:27:19.000Z</time>
      </trkpt>
      <trkpt lat="46.00884" lon="4.58709">
        <ele>401</ele>
        <time>2018-08-05T08:27:20.000Z</time>
      </trkpt>
      <trkpt lat="46.00887" lon="4.58704">
        <ele>401</ele>
        <time>2018-08-05T08:27:21.000Z</time>
      </trkpt>
      <trkpt lat="46.00891" lon="4.587">
        <ele>401</ele>
        <time>2018-08-05T08:27:22.000Z</time>
      </trkpt>
      <trkpt lat="46.00895" lon="4.58696">
        <ele>401</ele>
        <time>2018-08-05T08:27:23.000Z</time>
      </trkpt>
      <trkpt lat="46.00898" lon="4.58691">
        <ele>401</ele>
        <time>2018-08-05T08:27:24.000Z</time>
      </trkpt>
      <trkpt lat="46.00902" lon="4.58686">
        <ele>402</ele>
        <time>2018-08-05T08:27:25.000Z</time>
      </trkpt>
      <trkpt lat="46.00906" lon="4.58682">
        <ele>402</ele>
        <time>2018-08-05T08:27:26.000Z</time>
      </trkpt>
      <trkpt lat="46.00909" lon="4.58676">
        <ele>402</ele>
        <time>2018-08-05T08:27:27.000Z</time>
      </trkpt>
      <trkpt lat="46.00912" lon="4.58669">
        <ele>402</ele>
        <time>2018-08-05T08:27:28.000Z</time>
      </trkpt>
      <trkpt lat="46.00914" lon="4.58662">
        <ele>401</ele>
        <time>2018-08-05T08:27:29.000Z</time>
      </trkpt>
      <trkpt lat="46.00915" lon="4.58654">
        <ele>400</ele>
        <time>2018-08-05T08:27:30.000Z</time>
      </trkpt>
      <trkpt lat="46.00916" lon="4.58646">
        <ele>399</ele>
        <time>2018-08-05T08:27:31.000Z</time>
      </trkpt>
      <trkpt lat="46.00916" lon="4.58639">
        <ele>398</ele>
        <time>2018-08-05T08:27:32.000Z</time>
      </trkpt>
      <trkpt lat="46.00915" lon="4.58633">
        <ele>397</ele>
        <time>2018-08-05T08:27:33.000Z</time>
      </trkpt>
      <trkpt lat="46.00914" lon="4.58626">
        <ele>397</ele>
        <time>2018-08-05T08:27:34.000Z</time>
      </trkpt>
      <trkpt lat="46.00913" lon="4.58619">
        <ele>396</ele>
        <time>2018-08-05T08:27:35.000Z</time>
      </trkpt>
      <trkpt lat="46.00913" lon="4.58612">
        <ele>396</ele>
        <time>2018-08-05T08:27:36.000Z</time>
      </trkpt>
      <trkpt lat="46.00912" lon="4.58606">
        <ele>395</ele>
        <time>2018-08-05T08:27:37.000Z</time>
      </trkpt>
      <trkpt lat="46.00912" lon="4.586">
        <ele>395</ele>
        <time>2018-08-05T08:27:38.000Z</time>
      </trkpt>
      <trkpt lat="46.00912" lon="4.58594">
        <ele>394</ele>
        <time>2018-08-05T08:27:39.000Z</time>
      </trkpt>
      <trkpt lat="46.00912" lon="4.58588">
        <ele>394</ele>
        <time>2018-08-05T08:27:40.000Z</time>
      </trkpt>
      <trkpt lat="46.00912" lon="4.58583">
        <ele>393</ele>
        <time>2018-08-05T08:27:41.000Z</time>
      </trkpt>
      <trkpt lat="46.00913" lon="4.58577">
        <ele>394</ele>
        <time>2018-08-05T08:27:42.000Z</time>
      </trkpt>
      <trkpt lat="46.00914" lon="4.58572">
        <ele>394</ele>
        <time>2018-08-05T08:27:43.000Z</time>
      </trkpt>
      <trkpt lat="46.00915" lon="4.58567">
        <ele>394</ele>
        <time>2018-08-05T08:27:44.000Z</time>
      </trkpt>
      <trkpt lat="46.00915" lon="4.58562">
        <ele>394</ele>
        <time>2018-08-05T08:27:45.000Z</time>
      </trkpt>
      <trkpt lat="46.00916" lon="4.58557">
        <ele>394</ele>
        <time>2018-08-05T08:27:46.000Z</time>
      </trkpt>
      <trkpt lat="46.00918" lon="4.58552">
        <ele>396</ele>
        <time>2018-08-05T08:27:47.000Z</time>
      </trkpt>
      <trkpt lat="46.00919" lon="4.58547">
        <ele>397</ele>
        <time>2018-08-05T08:27:48.000Z</time>
      </trkpt>
      <trkpt lat="46.0092" lon="4.58543">
        <ele>397</ele>
        <time>2018-08-05T08:27:49.000Z</time>
      </trkpt>
      <trkpt lat="46.0092" lon="4.58538">
        <ele>397</ele>
        <time>2018-08-05T08:27:50.000Z</time>
      </trkpt>
      <trkpt lat="46.00921" lon="4.58534">
        <ele>397</ele>
        <time>2018-08-05T08:27:51.000Z</time>
      </trkpt>
      <trkpt lat="46.00922" lon="4.58529">
        <ele>397</ele>
        <time>2018-08-05T08:27:52.000Z</time>
      </trkpt>
      <trkpt lat="46.00923" lon="4.58525">
        <ele>396</ele>
        <time>2018-08-05T08:27:53.000Z</time>
      </trkpt>
      <trkpt lat="46.00924" lon="4.5852">
        <ele>396</ele>
        <time>2018-08-05T08:27:54.000Z</time>
      </trkpt>
      <trkpt lat="46.00924" lon="4.58516">
        <ele>396</ele>
        <time>2018-08-05T08:27:55.000Z</time>
      </trkpt>
      <trkpt lat="46.00925" lon="4.58512">
        <ele>396</ele>
        <time>2018-08-05T08:27:56.000Z</time>
      </trkpt>
      <trkpt lat="46.00926" lon="4.58508">
        <ele>396</ele>
        <time>2018-08-05T08:27:57.000Z</time>
      </trkpt>
      <trkpt lat="46.00927" lon="4.58505">
        <ele>395</ele>
        <time>2018-08-05T08:27:58.000Z</time>
      </trkpt>
      <trkpt lat="46.00928" lon="4.58501">
        <ele>395</ele>
        <time>2018-08-05T08:27:59.000Z</time>
      </trkpt>
      <trkpt lat="46.00929" lon="4.58497">
        <ele>396</ele>
        <time>2018-08-05T08:28:00.000Z</time>
      </trkpt>
      <trkpt lat="46.0093" lon="4.58493">
        <ele>396</ele>
        <time>2018-08-05T08:28:01.000Z</time>
      </trkpt>
      <trkpt lat="46.0093" lon="4.5849">
        <ele>396</ele>
        <time>2018-08-05T08:28:02.000Z</time>
      </trkpt>
      <trkpt lat="46.00931" lon="4.58486">
        <ele>396</ele>
        <time>2018-08-05T08:28:03.000Z</time>
      </trkpt>
      <trkpt lat="46.00932" lon="4.58482">
        <ele>397</ele>
        <time>2018-08-05T08:28:04.000Z</time>
      </trkpt>
      <trkpt lat="46.00933" lon="4.58478">
        <ele>397</ele>
        <time>2018-08-05T08:28:05.000Z</time>
      </trkpt>
      <trkpt lat="46.00934" lon="4.58474">
        <ele>397</ele>
        <time>2018-08-05T08:28:06.000Z</time>
      </trkpt>
      <trkpt lat="46.00934" lon="4.5847">
        <ele>397</ele>
        <time>2018-08-05T08:28:07.000Z</time>
      </trkpt>
      <trkpt lat="46.00935" lon="4.58466">
        <ele>397</ele>
        <time>2018-08-05T08:28:08.000Z</time>
      </trkpt>
      <trkpt lat="46.00936" lon="4.58463">
        <ele>398</ele>
        <time>2018-08-05T08:28:09.000Z</time>
      </trkpt>
      <trkpt lat="46.00937" lon="4.58459">
        <ele>398</ele>
        <time>2018-08-05T08:28:10.000Z</time>
      </trkpt>
      <trkpt lat="46.00938" lon="4.58456">
        <ele>398</ele>
        <time>2018-08-05T08:28:11.000Z</time>
      </trkpt>
      <trkpt lat="46.00939" lon="4.58452">
        <ele>398</ele>
        <time>2018-08-05T08:28:12.000Z</time>
      </trkpt>
      <trkpt lat="46.0094" lon="4.58449">
        <ele>398</ele>
        <time>2018-08-05T08:28:13.000Z</time>
      </trkpt>
      <trkpt lat="46.00941" lon="4.58445">
        <ele>398</ele>
        <time>2018-08-05T08:28:14.000Z</time>
      </trkpt>
      <trkpt lat="46.00941" lon="4.58442">
        <ele>399</ele>
        <time>2018-08-05T08:28:15.000Z</time>
      </trkpt>
      <trkpt lat="46.00942" lon="4.58438">
        <ele>399</ele>
        <time>2018-08-05T08:28:16.000Z</time>
      </trkpt>
      <trkpt lat="46.00943" lon="4.58435">
        <ele>399</ele>
        <time>2018-08-05T08:28:17.000Z</time>
      </trkpt>
      <trkpt lat="46.00944" lon="4.58431">
        <ele>399</ele>
        <time>2018-08-05T08:28:18.000Z</time>
      </trkpt>
      <trkpt lat="46.00945" lon="4.58427">
        <ele>399</ele>
        <time>2018-08-05T08:28:19.000Z</time>
      </trkpt>
      <trkpt lat="46.00946" lon="4.58423">
        <ele>399</ele>
        <time>2018-08-05T08:28:20.000Z</time>
      </trkpt>
      <trkpt lat="46.00947" lon="4.5842">
        <ele>399</ele>
        <time>2018-08-05T08:28:21.000Z</time>
      </trkpt>
      <trkpt lat="46.00947" lon="4.58416">
        <ele>402</ele>
        <time>2018-08-05T08:28:22.000Z</time>
      </trkpt>
      <trkpt lat="46.00948" lon="4.58413">
        <ele>402</ele>
        <time>2018-08-05T08:28:23.000Z</time>
      </trkpt>
      <trkpt lat="46.00949" lon="4.58409">
        <ele>402</ele>
        <time>2018-08-05T08:28:24.000Z</time>
      </trkpt>
      <trkpt lat="46.00949" lon="4.58406">
        <ele>402</ele>
        <time>2018-08-05T08:28:25.000Z</time>
      </trkpt>
      <trkpt lat="46.0095" lon="4.58402">
        <ele>403</ele>
        <time>2018-08-05T08:28:26.000Z</time>
      </trkpt>
      <trkpt lat="46.0095" lon="4.58399">
        <ele>403</ele>
        <time>2018-08-05T08:28:27.000Z</time>
      </trkpt>
      <trkpt lat="46.00951" lon="4.58395">
        <ele>403</ele>
        <time>2018-08-05T08:28:28.000Z</time>
      </trkpt>
      <trkpt lat="46.00951" lon="4.58392">
        <ele>403</ele>
        <time>2018-08-05T08:28:29.000Z</time>
      </trkpt>
      <trkpt lat="46.00951" lon="4.58388">
        <ele>403</ele>
        <time>2018-08-05T08:28:30.000Z</time>
      </trkpt>
      <trkpt lat="46.0095" lon="4.58385">
        <ele>403</ele>
        <time>2018-08-05T08:28:31.000Z</time>
      </trkpt>
      <trkpt lat="46.0095" lon="4.58382">
        <ele>403</ele>
        <time>2018-08-05T08:28:32.000Z</time>
      </trkpt>
      <trkpt lat="46.00949" lon="4.58379">
        <ele>403</ele>
        <time>2018-08-05T08:28:33.000Z</time>
      </trkpt>
      <trkpt lat="46.00949" lon="4.58375">
        <ele>404</ele>
        <time>2018-08-05T08:28:34.000Z</time>
      </trkpt>
      <trkpt lat="46.00949" lon="4.58371">
        <ele>404</ele>
        <time>2018-08-05T08:28:35.000Z</time>
      </trkpt>
      <trkpt lat="46.00948" lon="4.58367">
        <ele>404</ele>
        <time>2018-08-05T08:28:36.000Z</time>
      </trkpt>
      <trkpt lat="46.00947" lon="4.58364">
        <ele>404</ele>
        <time>2018-08-05T08:28:37.000Z</time>
      </trkpt>
      <trkpt lat="46.00947" lon="4.5836">
        <ele>404</ele>
        <time>2018-08-05T08:28:38.000Z</time>
      </trkpt>
      <trkpt lat="46.00946" lon="4.58357">
        <ele>404</ele>
        <time>2018-08-05T08:28:39.000Z</time>
      </trkpt>
      <trkpt lat="46.00945" lon="4.58353">
        <ele>404</ele>
        <time>2018-08-05T08:28:40.000Z</time>
      </trkpt>
      <trkpt lat="46.00944" lon="4.5835">
        <ele>404</ele>
        <time>2018-08-05T08:28:41.000Z</time>
      </trkpt>
      <trkpt lat="46.00943" lon="4.58346">
        <ele>405</ele>
        <time>2018-08-05T08:28:42.000Z</time>
      </trkpt>
      <trkpt lat="46.00942" lon="4.58343">
        <ele>405</ele>
        <time>2018-08-05T08:28:43.000Z</time>
      </trkpt>
      <trkpt lat="46.00941" lon="4.58339">
        <ele>405</ele>
        <time>2018-08-05T08:28:44.000Z</time>
      </trkpt>
      <trkpt lat="46.0094" lon="4.58336">
        <ele>405</ele>
        <time>2018-08-05T08:28:45.000Z</time>
      </trkpt>
      <trkpt lat="46.00939" lon="4.58333">
        <ele>408</ele>
        <time>2018-08-05T08:28:46.000Z</time>
      </trkpt>
      <trkpt lat="46.00938" lon="4.58329">
        <ele>408</ele>
        <time>2018-08-05T08:28:47.000Z</time>
      </trkpt>
      <trkpt lat="46.00937" lon="4.58326">
        <ele>408</ele>
        <time>2018-08-05T08:28:48.000Z</time>
      </trkpt>
      <trkpt lat="46.00936" lon="4.58323">
        <ele>409</ele>
        <time>2018-08-05T08:28:49.000Z</time>
      </trkpt>
      <trkpt lat="46.00935" lon="4.58319">
        <ele>409</ele>
        <time>2018-08-05T08:28:50.000Z</time>
      </trkpt>
      <trkpt lat="46.00934" lon="4.58316">
        <ele>409</ele>
        <time>2018-08-05T08:28:51.000Z</time>
      </trkpt>
      <trkpt lat="46.00933" lon="4.58312">
        <ele>409</ele>
        <time>2018-08-05T08:28:52.000Z</time>
      </trkpt>
      <trkpt lat="46.00932" lon="4.58309">
        <ele>409</ele>
        <time>2018-08-05T08:28:53.000Z</time>
      </trkpt>
      <trkpt lat="46.0093" lon="4.58305">
        <ele>409</ele>
        <time>2018-08-05T08:28:54.000Z</time>
      </trkpt>
      <trkpt lat="46.00929" lon="4.58302">
        <ele>410</ele>
        <time>2018-08-05T08:28:55.000Z</time>
      </trkpt>
      <trkpt lat="46.00928" lon="4.58299">
        <ele>410</ele>
        <time>2018-08-05T08:28:56.000Z</time>
      </trkpt>
      <trkpt lat="46.00928" lon="4.58295">
        <ele>410</ele>
        <time>2018-08-05T08:28:57.000Z</time>
      </trkpt>
      <trkpt lat="46.00927" lon="4.58292">
        <ele>410</ele>
        <time>2018-08-05T08:28:58.000Z</time>
      </trkpt>
      <trkpt lat="46.00926" lon="4.58289">
        <ele>411</ele>
        <time>2018-08-05T08:28:59.000Z</time>
      </trkpt>
      <trkpt lat="46.00925" lon="4.58286">
        <ele>411</ele>
        <time>2018-08-05T08:29:00.000Z</time>
      </trkpt>
      <trkpt lat="46.00924" lon="4.58282">
        <ele>411</ele>
        <time>2018-08-05T08:29:01.000Z</time>
      </trkpt>
      <trkpt lat="46.00923" lon="4.58278">
        <ele>412</ele>
        <time>2018-08-05T08:29:02.000Z</time>
      </trkpt>
      <trkpt lat="46.00922" lon="4.58275">
        <ele>412</ele>
        <time>2018-08-05T08:29:03.000Z</time>
      </trkpt>
      <trkpt lat="46.00922" lon="4.58271">
        <ele>412</ele>
        <time>2018-08-05T08:29:04.000Z</time>
      </trkpt>
      <trkpt lat="46.00921" lon="4.58268">
        <ele>413</ele>
        <time>2018-08-05T08:29:05.000Z</time>
      </trkpt>
      <trkpt lat="46.0092" lon="4.58264">
        <ele>413</ele>
        <time>2018-08-05T08:29:06.000Z</time>
      </trkpt>
      <trkpt lat="46.00919" lon="4.58261">
        <ele>414</ele>
        <time>2018-08-05T08:29:07.000Z</time>
      </trkpt>
      <trkpt lat="46.00919" lon="4.58257">
        <ele>414</ele>
        <time>2018-08-05T08:29:08.000Z</time>
      </trkpt>
      <trkpt lat="46.00918" lon="4.58253">
        <ele>415</ele>
        <time>2018-08-05T08:29:09.000Z</time>
      </trkpt>
      <trkpt lat="46.00918" lon="4.5825">
        <ele>416</ele>
        <time>2018-08-05T08:29:10.000Z</time>
      </trkpt>
      <trkpt lat="46.00918" lon="4.58246">
        <ele>416</ele>
        <time>2018-08-05T08:29:11.000Z</time>
      </trkpt>
      <trkpt lat="46.00917" lon="4.58242">
        <ele>416</ele>
        <time>2018-08-05T08:29:12.000Z</time>
      </trkpt>
      <trkpt lat="46.00917" lon="4.58238">
        <ele>416</ele>
        <time>2018-08-05T08:29:13.000Z</time>
      </trkpt>
      <trkpt lat="46.00916" lon="4.58235">
        <ele>421</ele>
        <time>2018-08-05T08:29:14.000Z</time>
      </trkpt>
      <trkpt lat="46.00916" lon="4.58231">
        <ele>422</ele>
        <time>2018-08-05T08:29:15.000Z</time>
      </trkpt>
      <trkpt lat="46.00915" lon="4.58228">
        <ele>423</ele>
        <time>2018-08-05T08:29:16.000Z</time>
      </trkpt>
      <trkpt lat="46.00915" lon="4.58224">
        <ele>423</ele>
        <time>2018-08-05T08:29:17.000Z</time>
      </trkpt>
      <trkpt lat="46.00914" lon="4.5822">
        <ele>424</ele>
        <time>2018-08-05T08:29:18.000Z</time>
      </trkpt>
      <trkpt lat="46.00913" lon="4.58217">
        <ele>424</ele>
        <time>2018-08-05T08:29:19.000Z</time>
      </trkpt>
      <trkpt lat="46.00912" lon="4.58213">
        <ele>424</ele>
        <time>2018-08-05T08:29:20.000Z</time>
      </trkpt>
      <trkpt lat="46.0091" lon="4.5821">
        <ele>425</ele>
        <time>2018-08-05T08:29:21.000Z</time>
      </trkpt>
      <trkpt lat="46.00909" lon="4.58207">
        <ele>425</ele>
        <time>2018-08-05T08:29:22.000Z</time>
      </trkpt>
      <trkpt lat="46.00907" lon="4.58205">
        <ele>425</ele>
        <time>2018-08-05T08:29:23.000Z</time>
      </trkpt>
      <trkpt lat="46.00905" lon="4.58204">
        <ele>425</ele>
        <time>2018-08-05T08:29:24.000Z</time>
      </trkpt>
      <trkpt lat="46.00903" lon="4.58203">
        <ele>426</ele>
        <time>2018-08-05T08:29:25.000Z</time>
      </trkpt>
      <trkpt lat="46.009" lon="4.58202">
        <ele>426</ele>
        <time>2018-08-05T08:29:26.000Z</time>
      </trkpt>
      <trkpt lat="46.00897" lon="4.58201">
        <ele>426</ele>
        <time>2018-08-05T08:29:27.000Z</time>
      </trkpt>
      <trkpt lat="46.00894" lon="4.58201">
        <ele>426</ele>
        <time>2018-08-05T08:29:28.000Z</time>
      </trkpt>
      <trkpt lat="46.00891" lon="4.58201">
        <ele>427</ele>
        <time>2018-08-05T08:29:29.000Z</time>
      </trkpt>
      <trkpt lat="46.00888" lon="4.58202">
        <ele>427</ele>
        <time>2018-08-05T08:29:30.000Z</time>
      </trkpt>
      <trkpt lat="46.00886" lon="4.58202">
        <ele>427</ele>
        <time>2018-08-05T08:29:31.000Z</time>
      </trkpt>
      <trkpt lat="46.00884" lon="4.58204">
        <ele>427</ele>
        <time>2018-08-05T08:29:32.000Z</time>
      </trkpt>
      <trkpt lat="46.00882" lon="4.58206">
        <ele>427</ele>
        <time>2018-08-05T08:29:33.000Z</time>
      </trkpt>
      <trkpt lat="46.0088" lon="4.58207">
        <ele>428</ele>
        <time>2018-08-05T08:29:34.000Z</time>
      </trkpt>
      <trkpt lat="46.00878" lon="4.5821">
        <ele>428</ele>
        <time>2018-08-05T08:29:35.000Z</time>
      </trkpt>
      <trkpt lat="46.00876" lon="4.58212">
        <ele>428</ele>
        <time>2018-08-05T08:29:36.000Z</time>
      </trkpt>
      <trkpt lat="46.00875" lon="4.58215">
        <ele>428</ele>
        <time>2018-08-05T08:29:37.000Z</time>
      </trkpt>
      <trkpt lat="46.00873" lon="4.58218">
        <ele>428</ele>
        <time>2018-08-05T08:29:38.000Z</time>
      </trkpt>
      <trkpt lat="46.00872" lon="4.58221">
        <ele>428</ele>
        <time>2018-08-05T08:29:39.000Z</time>
      </trkpt>
      <trkpt lat="46.00871" lon="4.58224">
        <ele>428</ele>
        <time>2018-08-05T08:29:40.000Z</time>
      </trkpt>
      <trkpt lat="46.0087" lon="4.58226">
        <ele>428</ele>
        <time>2018-08-05T08:29:41.000Z</time>
      </trkpt>
      <trkpt lat="46.0087" lon="4.58229">
        <ele>428</ele>
        <time>2018-08-05T08:29:42.000Z</time>
      </trkpt>
      <trkpt lat="46.0087" lon="4.58231">
        <ele>428</ele>
        <time>2018-08-05T08:29:43.000Z</time>
      </trkpt>
      <trkpt lat="46.00869" lon="4.58233">
        <ele>428</ele>
        <time>2018-08-05T08:29:44.000Z</time>
      </trkpt>
      <trkpt lat="46.00869" lon="4.58234">
        <ele>428</ele>
        <time>2018-08-05T08:29:45.000Z</time>
      </trkpt>
      <trkpt lat="46.00868" lon="4.58235">
        <ele>428</ele>
        <time>2018-08-05T08:29:46.000Z</time>
      </trkpt>
      <trkpt lat="46.00866" lon="4.58236">
        <ele>428</ele>
        <time>2018-08-05T08:29:47.000Z</time>
      </trkpt>
      <trkpt lat="46.00865" lon="4.58237">
        <ele>428</ele>
        <time>2018-08-05T08:29:48.000Z</time>
      </trkpt>
      <trkpt lat="46.00865" lon="4.58239">
        <ele>428</ele>
        <time>2018-08-05T08:29:49.000Z</time>
      </trkpt>
      <trkpt lat="46.00864" lon="4.58241">
        <ele>428</ele>
        <time>2018-08-05T08:29:50.000Z</time>
      </trkpt>
      <trkpt lat="46.00864" lon="4.58241">
        <ele>428</ele>
        <time>2018-08-05T08:29:51.000Z</time>
      </trkpt>
      <trkpt lat="46.00864" lon="4.58242">
        <ele>428</ele>
        <time>2018-08-05T08:29:52.000Z</time>
      </trkpt>
      <trkpt lat="46.00864" lon="4.58242">
        <ele>428</ele>
        <time>2018-08-05T08:29:53.000Z</time>
      </trkpt>
      <trkpt lat="46.00864" lon="4.58242">
        <ele>428</ele>
        <time>2018-08-05T08:29:54.000Z</time>
      </trkpt>
      <trkpt lat="46.00864" lon="4.58242">
        <ele>428</ele>
        <time>2018-08-05T08:29:55.000Z</time>
      </trkpt>
      <trkpt lat="46.00864" lon="4.58242">
        <ele>428</ele>
        <time>2018-08-05T08:29:56.000Z</time>
      </trkpt>
      <trkpt lat="46.00863" lon="4.58242">
        <ele>428</ele>
        <time>2018-08-05T08:29:57.000Z</time>
      </trkpt>
      <trkpt lat="46.00863" lon="4.58242">
        <ele>428</ele>
        <time>2018-08-05T08:29:58.000Z</time>
      </trkpt>
      <trkpt lat="46.0086" lon="4.5825">
        <ele>429</ele>
        <time>2018-08-05T08:30:24.000Z</time>
      </trkpt>
      <trkpt lat="46.00859" lon="4.58253">
        <ele>424</ele>
        <time>2018-08-05T08:30:25.000Z</time>
      </trkpt>
      <trkpt lat="46.00858" lon="4.58257">
        <ele>424</ele>
        <time>2018-08-05T08:30:26.000Z</time>
      </trkpt>
      <trkpt lat="46.00856" lon="4.5826">
        <ele>424</ele>
        <time>2018-08-05T08:30:27.000Z</time>
      </trkpt>
      <trkpt lat="46.00855" lon="4.58263">
        <ele>424</ele>
        <time>2018-08-05T08:30:28.000Z</time>
      </trkpt>
      <trkpt lat="46.00854" lon="4.58266">
        <ele>424</ele>
        <time>2018-08-05T08:30:29.000Z</time>
      </trkpt>
      <trkpt lat="46.00852" lon="4.58269">
        <ele>423</ele>
        <time>2018-08-05T08:30:30.000Z</time>
      </trkpt>
      <trkpt lat="46.00851" lon="4.58272">
        <ele>423</ele>
        <time>2018-08-05T08:30:31.000Z</time>
      </trkpt>
      <trkpt lat="46.00849" lon="4.58276">
        <ele>423</ele>
        <time>2018-08-05T08:30:32.000Z</time>
      </trkpt>
      <trkpt lat="46.00847" lon="4.58279">
        <ele>423</ele>
        <time>2018-08-05T08:30:33.000Z</time>
      </trkpt>
      <trkpt lat="46.00844" lon="4.58282">
        <ele>422</ele>
        <time>2018-08-05T08:30:34.000Z</time>
      </trkpt>
      <trkpt lat="46.00842" lon="4.58286">
        <ele>422</ele>
        <time>2018-08-05T08:30:35.000Z</time>
      </trkpt>
      <trkpt lat="46.0084" lon="4.5829">
        <ele>422</ele>
        <time>2018-08-05T08:30:36.000Z</time>
      </trkpt>
      <trkpt lat="46.00839" lon="4.58294">
        <ele>421</ele>
        <time>2018-08-05T08:30:37.000Z</time>
      </trkpt>
      <trkpt lat="46.00837" lon="4.58298">
        <ele>421</ele>
        <time>2018-08-05T08:30:38.000Z</time>
      </trkpt>
      <trkpt lat="46.00836" lon="4.58301">
        <ele>421</ele>
        <time>2018-08-05T08:30:39.000Z</time>
      </trkpt>
      <trkpt lat="46.00834" lon="4.58305">
        <ele>420</ele>
        <time>2018-08-05T08:30:40.000Z</time>
      </trkpt>
      <trkpt lat="46.00832" lon="4.58309">
        <ele>429</ele>
        <time>2018-08-05T08:30:41.000Z</time>
      </trkpt>
      <trkpt lat="46.0083" lon="4.58313">
        <ele>429</ele>
        <time>2018-08-05T08:30:42.000Z</time>
      </trkpt>
      <trkpt lat="46.00828" lon="4.58316">
        <ele>428</ele>
        <time>2018-08-05T08:30:43.000Z</time>
      </trkpt>
      <trkpt lat="46.00826" lon="4.5832">
        <ele>427</ele>
        <time>2018-08-05T08:30:44.000Z</time>
      </trkpt>
      <trkpt lat="46.00824" lon="4.58323">
        <ele>427</ele>
        <time>2018-08-05T08:30:45.000Z</time>
      </trkpt>
      <trkpt lat="46.00823" lon="4.58326">
        <ele>426</ele>
        <time>2018-08-05T08:30:46.000Z</time>
      </trkpt>
      <trkpt lat="46.00821" lon="4.5833">
        <ele>426</ele>
        <time>2018-08-05T08:30:47.000Z</time>
      </trkpt>
      <trkpt lat="46.00819" lon="4.58333">
        <ele>427</ele>
        <time>2018-08-05T08:30:48.000Z</time>
      </trkpt>
      <trkpt lat="46.00817" lon="4.58337">
        <ele>423</ele>
        <time>2018-08-05T08:30:49.000Z</time>
      </trkpt>
      <trkpt lat="46.00815" lon="4.5834">
        <ele>423</ele>
        <time>2018-08-05T08:30:50.000Z</time>
      </trkpt>
      <trkpt lat="46.00813" lon="4.58343">
        <ele>423</ele>
        <time>2018-08-05T08:30:51.000Z</time>
      </trkpt>
      <trkpt lat="46.0081" lon="4.58346">
        <ele>424</ele>
        <time>2018-08-05T08:30:52.000Z</time>
      </trkpt>
      <trkpt lat="46.00808" lon="4.58349">
        <ele>424</ele>
        <time>2018-08-05T08:30:53.000Z</time>
      </trkpt>
      <trkpt lat="46.00806" lon="4.58352">
        <ele>424</ele>
        <time>2018-08-05T08:30:54.000Z</time>
      </trkpt>
      <trkpt lat="46.00803" lon="4.58355">
        <ele>424</ele>
        <time>2018-08-05T08:30:55.000Z</time>
      </trkpt>
      <trkpt lat="46.00801" lon="4.58358">
        <ele>425</ele>
        <time>2018-08-05T08:30:56.000Z</time>
      </trkpt>
      <trkpt lat="46.00799" lon="4.58361">
        <ele>425</ele>
        <time>2018-08-05T08:30:57.000Z</time>
      </trkpt>
      <trkpt lat="46.00797" lon="4.58364">
        <ele>425</ele>
        <time>2018-08-05T08:30:58.000Z</time>
      </trkpt>
      <trkpt lat="46.00795" lon="4.58366">
        <ele>425</ele>
        <time>2018-08-05T08:30:59.000Z</time>
      </trkpt>
      <trkpt lat="46.00793" lon="4.58369">
        <ele>425</ele>
        <time>2018-08-05T08:31:00.000Z</time>
      </trkpt>
      <trkpt lat="46.00791" lon="4.58371">
        <ele>425</ele>
        <time>2018-08-05T08:31:01.000Z</time>
      </trkpt>
      <trkpt lat="46.00789" lon="4.58374">
        <ele>425</ele>
        <time>2018-08-05T08:31:02.000Z</time>
      </trkpt>
      <trkpt lat="46.00787" lon="4.58377">
        <ele>425</ele>
        <time>2018-08-05T08:31:03.000Z</time>
      </trkpt>
      <trkpt lat="46.00785" lon="4.5838">
        <ele>425</ele>
        <time>2018-08-05T08:31:04.000Z</time>
      </trkpt>
      <trkpt lat="46.00783" lon="4.58383">
        <ele>425</ele>
        <time>2018-08-05T08:31:05.000Z</time>
      </trkpt>
      <trkpt lat="46.00781" lon="4.58386">
        <ele>425</ele>
        <time>2018-08-05T08:31:06.000Z</time>
      </trkpt>
      <trkpt lat="46.00779" lon="4.58389">
        <ele>425</ele>
        <time>2018-08-05T08:31:07.000Z</time>
      </trkpt>
      <trkpt lat="46.00777" lon="4.58392">
        <ele>426</ele>
        <time>2018-08-05T08:31:08.000Z</time>
      </trkpt>
      <trkpt lat="46.00774" lon="4.58395">
        <ele>426</ele>
        <time>2018-08-05T08:31:09.000Z</time>
      </trkpt>
      <trkpt lat="46.00772" lon="4.58398">
        <ele>426</ele>
        <time>2018-08-05T08:31:10.000Z</time>
      </trkpt>
      <trkpt lat="46.0077" lon="4.58401">
        <ele>426</ele>
        <time>2018-08-05T08:31:11.000Z</time>
      </trkpt>
      <trkpt lat="46.00768" lon="4.58404">
        <ele>426</ele>
        <time>2018-08-05T08:31:12.000Z</time>
      </trkpt>
      <trkpt lat="46.00765" lon="4.58408">
        <ele>427</ele>
        <time>2018-08-05T08:31:13.000Z</time>
      </trkpt>
      <trkpt lat="46.00763" lon="4.58411">
        <ele>427</ele>
        <time>2018-08-05T08:31:14.000Z</time>
      </trkpt>
      <trkpt lat="46.00761" lon="4.58414">
        <ele>427</ele>
        <time>2018-08-05T08:31:15.000Z</time>
      </trkpt>
      <trkpt lat="46.00758" lon="4.58417">
        <ele>428</ele>
        <time>2018-08-05T08:31:16.000Z</time>
      </trkpt>
      <trkpt lat="46.00756" lon="4.5842">
        <ele>426</ele>
        <time>2018-08-05T08:31:17.000Z</time>
      </trkpt>
      <trkpt lat="46.00753" lon="4.58423">
        <ele>425</ele>
        <time>2018-08-05T08:31:18.000Z</time>
      </trkpt>
      <trkpt lat="46.00751" lon="4.58426">
        <ele>424</ele>
        <time>2018-08-05T08:31:19.000Z</time>
      </trkpt>
      <trkpt lat="46.00749" lon="4.58428">
        <ele>428</ele>
        <time>2018-08-05T08:31:20.000Z</time>
      </trkpt>
      <trkpt lat="46.00746" lon="4.58431">
        <ele>428</ele>
        <time>2018-08-05T08:31:21.000Z</time>
      </trkpt>
      <trkpt lat="46.00744" lon="4.58434">
        <ele>427</ele>
        <time>2018-08-05T08:31:22.000Z</time>
      </trkpt>
      <trkpt lat="46.00741" lon="4.58436">
        <ele>427</ele>
        <time>2018-08-05T08:31:23.000Z</time>
      </trkpt>
      <trkpt lat="46.00739" lon="4.58439">
        <ele>427</ele>
        <time>2018-08-05T08:31:24.000Z</time>
      </trkpt>
      <trkpt lat="46.00736" lon="4.58441">
        <ele>427</ele>
        <time>2018-08-05T08:31:25.000Z</time>
      </trkpt>
      <trkpt lat="46.00734" lon="4.58443">
        <ele>427</ele>
        <time>2018-08-05T08:31:26.000Z</time>
      </trkpt>
      <trkpt lat="46.00731" lon="4.58445">
        <ele>427</ele>
        <time>2018-08-05T08:31:27.000Z</time>
      </trkpt>
      <trkpt lat="46.00728" lon="4.58447">
        <ele>427</ele>
        <time>2018-08-05T08:31:28.000Z</time>
      </trkpt>
      <trkpt lat="46.00725" lon="4.58449">
        <ele>427</ele>
        <time>2018-08-05T08:31:29.000Z</time>
      </trkpt>
      <trkpt lat="46.00723" lon="4.58451">
        <ele>426</ele>
        <time>2018-08-05T08:31:30.000Z</time>
      </trkpt>
      <trkpt lat="46.0072" lon="4.58453">
        <ele>426</ele>
        <time>2018-08-05T08:31:31.000Z</time>
      </trkpt>
      <trkpt lat="46.00717" lon="4.58455">
        <ele>426</ele>
        <time>2018-08-05T08:31:32.000Z</time>
      </trkpt>
      <trkpt lat="46.00714" lon="4.58457">
        <ele>426</ele>
        <time>2018-08-05T08:31:33.000Z</time>
      </trkpt>
      <trkpt lat="46.00712" lon="4.58458">
        <ele>426</ele>
        <time>2018-08-05T08:31:34.000Z</time>
      </trkpt>
      <trkpt lat="46.00709" lon="4.5846">
        <ele>426</ele>
        <time>2018-08-05T08:31:35.000Z</time>
      </trkpt>
      <trkpt lat="46.00706" lon="4.58461">
        <ele>426</ele>
        <time>2018-08-05T08:31:36.000Z</time>
      </trkpt>
      <trkpt lat="46.00703" lon="4.58462">
        <ele>426</ele>
        <time>2018-08-05T08:31:37.000Z</time>
      </trkpt>
      <trkpt lat="46.007" lon="4.58464">
        <ele>426</ele>
        <time>2018-08-05T08:31:38.000Z</time>
      </trkpt>
      <trkpt lat="46.00697" lon="4.58465">
        <ele>427</ele>
        <time>2018-08-05T08:31:39.000Z</time>
      </trkpt>
      <trkpt lat="46.00694" lon="4.58466">
        <ele>427</ele>
        <time>2018-08-05T08:31:40.000Z</time>
      </trkpt>
      <trkpt lat="46.00691" lon="4.58466">
        <ele>427</ele>
        <time>2018-08-05T08:31:41.000Z</time>
      </trkpt>
      <trkpt lat="46.00687" lon="4.58466">
        <ele>427</ele>
        <time>2018-08-05T08:31:42.000Z</time>
      </trkpt>
      <trkpt lat="46.00684" lon="4.58466">
        <ele>427</ele>
        <time>2018-08-05T08:31:43.000Z</time>
      </trkpt>
      <trkpt lat="46.00681" lon="4.58466">
        <ele>427</ele>
        <time>2018-08-05T08:31:44.000Z</time>
      </trkpt>
      <trkpt lat="46.00677" lon="4.58466">
        <ele>427</ele>
        <time>2018-08-05T08:31:45.000Z</time>
      </trkpt>
      <trkpt lat="46.00674" lon="4.58465">
        <ele>427</ele>
        <time>2018-08-05T08:31:46.000Z</time>
      </trkpt>
      <trkpt lat="46.00671" lon="4.58464">
        <ele>427</ele>
        <time>2018-08-05T08:31:47.000Z</time>
      </trkpt>
      <trkpt lat="46.00668" lon="4.58463">
        <ele>427</ele>
        <time>2018-08-05T08:31:48.000Z</time>
      </trkpt>
      <trkpt lat="46.00665" lon="4.58461">
        <ele>428</ele>
        <time>2018-08-05T08:31:49.000Z</time>
      </trkpt>
      <trkpt lat="46.00662" lon="4.5846">
        <ele>429</ele>
        <time>2018-08-05T08:31:50.000Z</time>
      </trkpt>
      <trkpt lat="46.0066" lon="4.58458">
        <ele>429</ele>
        <time>2018-08-05T08:31:51.000Z</time>
      </trkpt>
      <trkpt lat="46.00657" lon="4.58457">
        <ele>429</ele>
        <time>2018-08-05T08:31:52.000Z</time>
      </trkpt>
      <trkpt lat="46.00654" lon="4.58455">
        <ele>429</ele>
        <time>2018-08-05T08:31:53.000Z</time>
      </trkpt>
      <trkpt lat="46.00652" lon="4.58453">
        <ele>429</ele>
        <time>2018-08-05T08:31:54.000Z</time>
      </trkpt>
      <trkpt lat="46.00649" lon="4.5845">
        <ele>429</ele>
        <time>2018-08-05T08:31:55.000Z</time>
      </trkpt>
      <trkpt lat="46.00646" lon="4.58448">
        <ele>429</ele>
        <time>2018-08-05T08:31:56.000Z</time>
      </trkpt>
      <trkpt lat="46.00644" lon="4.58445">
        <ele>429</ele>
        <time>2018-08-05T08:31:57.000Z</time>
      </trkpt>
      <trkpt lat="46.00642" lon="4.58443">
        <ele>430</ele>
        <time>2018-08-05T08:31:58.000Z</time>
      </trkpt>
      <trkpt lat="46.0064" lon="4.5844">
        <ele>430</ele>
        <time>2018-08-05T08:31:59.000Z</time>
      </trkpt>
      <trkpt lat="46.00638" lon="4.58436">
        <ele>430</ele>
        <time>2018-08-05T08:32:00.000Z</time>
      </trkpt>
      <trkpt lat="46.00636" lon="4.58433">
        <ele>430</ele>
        <time>2018-08-05T08:32:01.000Z</time>
      </trkpt>
      <trkpt lat="46.00634" lon="4.5843">
        <ele>430</ele>
        <time>2018-08-05T08:32:02.000Z</time>
      </trkpt>
      <trkpt lat="46.00632" lon="4.58427">
        <ele>430</ele>
        <time>2018-08-05T08:32:03.000Z</time>
      </trkpt>
      <trkpt lat="46.0063" lon="4.58423">
        <ele>430</ele>
        <time>2018-08-05T08:32:04.000Z</time>
      </trkpt>
      <trkpt lat="46.00629" lon="4.5842">
        <ele>430</ele>
        <time>2018-08-05T08:32:05.000Z</time>
      </trkpt>
      <trkpt lat="46.00627" lon="4.58415">
        <ele>437</ele>
        <time>2018-08-05T08:32:06.000Z</time>
      </trkpt>
      <trkpt lat="46.00626" lon="4.58411">
        <ele>437</ele>
        <time>2018-08-05T08:32:07.000Z</time>
      </trkpt>
      <trkpt lat="46.00625" lon="4.58407">
        <ele>438</ele>
        <time>2018-08-05T08:32:08.000Z</time>
      </trkpt>
      <trkpt lat="46.00623" lon="4.58403">
        <ele>438</ele>
        <time>2018-08-05T08:32:09.000Z</time>
      </trkpt>
      <trkpt lat="46.00622" lon="4.58399">
        <ele>438</ele>
        <time>2018-08-05T08:32:10.000Z</time>
      </trkpt>
      <trkpt lat="46.00621" lon="4.58395">
        <ele>438</ele>
        <time>2018-08-05T08:32:11.000Z</time>
      </trkpt>
      <trkpt lat="46.0062" lon="4.58391">
        <ele>438</ele>
        <time>2018-08-05T08:32:12.000Z</time>
      </trkpt>
      <trkpt lat="46.00619" lon="4.58388">
        <ele>439</ele>
        <time>2018-08-05T08:32:13.000Z</time>
      </trkpt>
      <trkpt lat="46.00617" lon="4.58384">
        <ele>439</ele>
        <time>2018-08-05T08:32:14.000Z</time>
      </trkpt>
      <trkpt lat="46.00615" lon="4.58382">
        <ele>439</ele>
        <time>2018-08-05T08:32:15.000Z</time>
      </trkpt>
      <trkpt lat="46.00612" lon="4.58379">
        <ele>439</ele>
        <time>2018-08-05T08:32:16.000Z</time>
      </trkpt>
      <trkpt lat="46.0061" lon="4.58376">
        <ele>439</ele>
        <time>2018-08-05T08:32:17.000Z</time>
      </trkpt>
      <trkpt lat="46.00608" lon="4.58374">
        <ele>439</ele>
        <time>2018-08-05T08:32:18.000Z</time>
      </trkpt>
      <trkpt lat="46.00605" lon="4.58371">
        <ele>439</ele>
        <time>2018-08-05T08:32:19.000Z</time>
      </trkpt>
      <trkpt lat="46.00602" lon="4.58369">
        <ele>440</ele>
        <time>2018-08-05T08:32:20.000Z</time>
      </trkpt>
      <trkpt lat="46.006" lon="4.58367">
        <ele>440</ele>
        <time>2018-08-05T08:32:21.000Z</time>
      </trkpt>
      <trkpt lat="46.00597" lon="4.58364">
        <ele>440</ele>
        <time>2018-08-05T08:32:22.000Z</time>
      </trkpt>
      <trkpt lat="46.00594" lon="4.58363">
        <ele>440</ele>
        <time>2018-08-05T08:32:23.000Z</time>
      </trkpt>
      <trkpt lat="46.00592" lon="4.58361">
        <ele>440</ele>
        <time>2018-08-05T08:32:24.000Z</time>
      </trkpt>
      <trkpt lat="46.00589" lon="4.58359">
        <ele>440</ele>
        <time>2018-08-05T08:32:25.000Z</time>
      </trkpt>
      <trkpt lat="46.00587" lon="4.58357">
        <ele>441</ele>
        <time>2018-08-05T08:32:26.000Z</time>
      </trkpt>
      <trkpt lat="46.00584" lon="4.58355">
        <ele>441</ele>
        <time>2018-08-05T08:32:27.000Z</time>
      </trkpt>
      <trkpt lat="46.00582" lon="4.58354">
        <ele>438</ele>
        <time>2018-08-05T08:32:28.000Z</time>
      </trkpt>
      <trkpt lat="46.0058" lon="4.58352">
        <ele>438</ele>
        <time>2018-08-05T08:32:29.000Z</time>
      </trkpt>
      <trkpt lat="46.00578" lon="4.5835">
        <ele>438</ele>
        <time>2018-08-05T08:32:30.000Z</time>
      </trkpt>
      <trkpt lat="46.00575" lon="4.58349">
        <ele>438</ele>
        <time>2018-08-05T08:32:31.000Z</time>
      </trkpt>
      <trkpt lat="46.00573" lon="4.58347">
        <ele>439</ele>
        <time>2018-08-05T08:32:32.000Z</time>
      </trkpt>
      <trkpt lat="46.00572" lon="4.58345">
        <ele>439</ele>
        <time>2018-08-05T08:32:33.000Z</time>
      </trkpt>
      <trkpt lat="46.0057" lon="4.58344">
        <ele>439</ele>
        <time>2018-08-05T08:32:34.000Z</time>
      </trkpt>
      <trkpt lat="46.00568" lon="4.58342">
        <ele>438</ele>
        <time>2018-08-05T08:32:35.000Z</time>
      </trkpt>
      <trkpt lat="46.00565" lon="4.5834">
        <ele>438</ele>
        <time>2018-08-05T08:32:36.000Z</time>
      </trkpt>
      <trkpt lat="46.00563" lon="4.58338">
        <ele>438</ele>
        <time>2018-08-05T08:32:37.000Z</time>
      </trkpt>
      <trkpt lat="46.00559" lon="4.58337">
        <ele>438</ele>
        <time>2018-08-05T08:32:38.000Z</time>
      </trkpt>
      <trkpt lat="46.00556" lon="4.58336">
        <ele>437</ele>
        <time>2018-08-05T08:32:39.000Z</time>
      </trkpt>
      <trkpt lat="46.00554" lon="4.58334">
        <ele>437</ele>
        <time>2018-08-05T08:32:40.000Z</time>
      </trkpt>
      <trkpt lat="46.00551" lon="4.58333">
        <ele>446</ele>
        <time>2018-08-05T08:32:41.000Z</time>
      </trkpt>
      <trkpt lat="46.00549" lon="4.58332">
        <ele>446</ele>
        <time>2018-08-05T08:32:42.000Z</time>
      </trkpt>
      <trkpt lat="46.00546" lon="4.5833">
        <ele>446</ele>
        <time>2018-08-05T08:32:43.000Z</time>
      </trkpt>
      <trkpt lat="46.00544" lon="4.58328">
        <ele>446</ele>
        <time>2018-08-05T08:32:44.000Z</time>
      </trkpt>
      <trkpt lat="46.00541" lon="4.58327">
        <ele>446</ele>
        <time>2018-08-05T08:32:45.000Z</time>
      </trkpt>
      <trkpt lat="46.00539" lon="4.58326">
        <ele>446</ele>
        <time>2018-08-05T08:32:46.000Z</time>
      </trkpt>
      <trkpt lat="46.00536" lon="4.58325">
        <ele>446</ele>
        <time>2018-08-05T08:32:47.000Z</time>
      </trkpt>
      <trkpt lat="46.00533" lon="4.58324">
        <ele>445</ele>
        <time>2018-08-05T08:32:48.000Z</time>
      </trkpt>
      <trkpt lat="46.00531" lon="4.58323">
        <ele>445</ele>
        <time>2018-08-05T08:32:49.000Z</time>
      </trkpt>
      <trkpt lat="46.00528" lon="4.58322">
        <ele>445</ele>
        <time>2018-08-05T08:32:50.000Z</time>
      </trkpt>
      <trkpt lat="46.00525" lon="4.5832">
        <ele>445</ele>
        <time>2018-08-05T08:32:51.000Z</time>
      </trkpt>
      <trkpt lat="46.00522" lon="4.58319">
        <ele>445</ele>
        <time>2018-08-05T08:32:52.000Z</time>
      </trkpt>
      <trkpt lat="46.0052" lon="4.58316">
        <ele>445</ele>
        <time>2018-08-05T08:32:53.000Z</time>
      </trkpt>
      <trkpt lat="46.00518" lon="4.58312">
        <ele>445</ele>
        <time>2018-08-05T08:32:54.000Z</time>
      </trkpt>
      <trkpt lat="46.00518" lon="4.58308">
        <ele>446</ele>
        <time>2018-08-05T08:32:55.000Z</time>
      </trkpt>
      <trkpt lat="46.00518" lon="4.58303">
        <ele>446</ele>
        <time>2018-08-05T08:32:56.000Z</time>
      </trkpt>
      <trkpt lat="46.00519" lon="4.58299">
        <ele>447</ele>
        <time>2018-08-05T08:32:57.000Z</time>
      </trkpt>
      <trkpt lat="46.00521" lon="4.58296">
        <ele>447</ele>
        <time>2018-08-05T08:32:58.000Z</time>
      </trkpt>
      <trkpt lat="46.00523" lon="4.58295">
        <ele>448</ele>
        <time>2018-08-05T08:32:59.000Z</time>
      </trkpt>
      <trkpt lat="46.00526" lon="4.58295">
        <ele>448</ele>
        <time>2018-08-05T08:33:00.000Z</time>
      </trkpt>
      <trkpt lat="46.00529" lon="4.58295">
        <ele>448</ele>
        <time>2018-08-05T08:33:01.000Z</time>
      </trkpt>
      <trkpt lat="46.00532" lon="4.58296">
        <ele>448</ele>
        <time>2018-08-05T08:33:02.000Z</time>
      </trkpt>
      <trkpt lat="46.00535" lon="4.58297">
        <ele>448</ele>
        <time>2018-08-05T08:33:03.000Z</time>
      </trkpt>
      <trkpt lat="46.00537" lon="4.58298">
        <ele>448</ele>
        <time>2018-08-05T08:33:04.000Z</time>
      </trkpt>
      <trkpt lat="46.0054" lon="4.58299">
        <ele>448</ele>
        <time>2018-08-05T08:33:05.000Z</time>
      </trkpt>
      <trkpt lat="46.00543" lon="4.583">
        <ele>448</ele>
        <time>2018-08-05T08:33:06.000Z</time>
      </trkpt>
      <trkpt lat="46.00546" lon="4.58301">
        <ele>448</ele>
        <time>2018-08-05T08:33:07.000Z</time>
      </trkpt>
      <trkpt lat="46.00548" lon="4.58301">
        <ele>448</ele>
        <time>2018-08-05T08:33:08.000Z</time>
      </trkpt>
      <trkpt lat="46.00551" lon="4.58302">
        <ele>448</ele>
        <time>2018-08-05T08:33:09.000Z</time>
      </trkpt>
      <trkpt lat="46.00554" lon="4.58303">
        <ele>447</ele>
        <time>2018-08-05T08:33:10.000Z</time>
      </trkpt>
      <trkpt lat="46.00557" lon="4.58304">
        <ele>447</ele>
        <time>2018-08-05T08:33:11.000Z</time>
      </trkpt>
      <trkpt lat="46.0056" lon="4.58305">
        <ele>447</ele>
        <time>2018-08-05T08:33:12.000Z</time>
      </trkpt>
      <trkpt lat="46.00563" lon="4.58306">
        <ele>447</ele>
        <time>2018-08-05T08:33:13.000Z</time>
      </trkpt>
      <trkpt lat="46.00566" lon="4.58308">
        <ele>447</ele>
        <time>2018-08-05T08:33:14.000Z</time>
      </trkpt>
      <trkpt lat="46.00569" lon="4.58309">
        <ele>447</ele>
        <time>2018-08-05T08:33:15.000Z</time>
      </trkpt>
      <trkpt lat="46.00572" lon="4.5831">
        <ele>447</ele>
        <time>2018-08-05T08:33:16.000Z</time>
      </trkpt>
      <trkpt lat="46.00575" lon="4.58311">
        <ele>447</ele>
        <time>2018-08-05T08:33:17.000Z</time>
      </trkpt>
      <trkpt lat="46.00578" lon="4.58312">
        <ele>446</ele>
        <time>2018-08-05T08:33:18.000Z</time>
      </trkpt>
      <trkpt lat="46.00581" lon="4.58313">
        <ele>446</ele>
        <time>2018-08-05T08:33:19.000Z</time>
      </trkpt>
      <trkpt lat="46.00584" lon="4.58314">
        <ele>449</ele>
        <time>2018-08-05T08:33:20.000Z</time>
      </trkpt>
      <trkpt lat="46.00587" lon="4.58314">
        <ele>449</ele>
        <time>2018-08-05T08:33:21.000Z</time>
      </trkpt>
      <trkpt lat="46.0059" lon="4.58314">
        <ele>449</ele>
        <time>2018-08-05T08:33:22.000Z</time>
      </trkpt>
      <trkpt lat="46.00593" lon="4.58313">
        <ele>449</ele>
        <time>2018-08-05T08:33:23.000Z</time>
      </trkpt>
      <trkpt lat="46.00596" lon="4.58311">
        <ele>450</ele>
        <time>2018-08-05T08:33:24.000Z</time>
      </trkpt>
      <trkpt lat="46.00598" lon="4.58308">
        <ele>450</ele>
        <time>2018-08-05T08:33:25.000Z</time>
      </trkpt>
      <trkpt lat="46.006" lon="4.58304">
        <ele>451</ele>
        <time>2018-08-05T08:33:26.000Z</time>
      </trkpt>
      <trkpt lat="46.006" lon="4.583">
        <ele>452</ele>
        <time>2018-08-05T08:33:27.000Z</time>
      </trkpt>
      <trkpt lat="46.006" lon="4.58296">
        <ele>452</ele>
        <time>2018-08-05T08:33:28.000Z</time>
      </trkpt>
      <trkpt lat="46.00598" lon="4.58292">
        <ele>453</ele>
        <time>2018-08-05T08:33:29.000Z</time>
      </trkpt>
      <trkpt lat="46.00596" lon="4.58288">
        <ele>453</ele>
        <time>2018-08-05T08:33:30.000Z</time>
      </trkpt>
      <trkpt lat="46.00593" lon="4.58286">
        <ele>453</ele>
        <time>2018-08-05T08:33:31.000Z</time>
      </trkpt>
      <trkpt lat="46.0059" lon="4.58284">
        <ele>453</ele>
        <time>2018-08-05T08:33:32.000Z</time>
      </trkpt>
      <trkpt lat="46.00587" lon="4.58283">
        <ele>453</ele>
        <time>2018-08-05T08:33:33.000Z</time>
      </trkpt>
      <trkpt lat="46.00583" lon="4.58282">
        <ele>450</ele>
        <time>2018-08-05T08:33:34.000Z</time>
      </trkpt>
      <trkpt lat="46.0058" lon="4.5828">
        <ele>450</ele>
        <time>2018-08-05T08:33:35.000Z</time>
      </trkpt>
      <trkpt lat="46.00577" lon="4.58279">
        <ele>451</ele>
        <time>2018-08-05T08:33:36.000Z</time>
      </trkpt>
      <trkpt lat="46.00574" lon="4.58277">
        <ele>451</ele>
        <time>2018-08-05T08:33:37.000Z</time>
      </trkpt>
      <trkpt lat="46.00571" lon="4.58276">
        <ele>451</ele>
        <time>2018-08-05T08:33:38.000Z</time>
      </trkpt>
      <trkpt lat="46.00568" lon="4.58274">
        <ele>451</ele>
        <time>2018-08-05T08:33:39.000Z</time>
      </trkpt>
      <trkpt lat="46.00565" lon="4.58272">
        <ele>451</ele>
        <time>2018-08-05T08:33:40.000Z</time>
      </trkpt>
      <trkpt lat="46.00563" lon="4.58269">
        <ele>451</ele>
        <time>2018-08-05T08:33:41.000Z</time>
      </trkpt>
      <trkpt lat="46.0056" lon="4.58267">
        <ele>451</ele>
        <time>2018-08-05T08:33:42.000Z</time>
      </trkpt>
      <trkpt lat="46.00557" lon="4.58265">
        <ele>451</ele>
        <time>2018-08-05T08:33:43.000Z</time>
      </trkpt>
      <trkpt lat="46.00555" lon="4.58263">
        <ele>451</ele>
        <time>2018-08-05T08:33:44.000Z</time>
      </trkpt>
      <trkpt lat="46.00552" lon="4.58261">
        <ele>451</ele>
        <time>2018-08-05T08:33:45.000Z</time>
      </trkpt>
      <trkpt lat="46.00549" lon="4.58258">
        <ele>451</ele>
        <time>2018-08-05T08:33:46.000Z</time>
      </trkpt>
      <trkpt lat="46.00547" lon="4.58256">
        <ele>451</ele>
        <time>2018-08-05T08:33:47.000Z</time>
      </trkpt>
      <trkpt lat="46.00545" lon="4.58253">
        <ele>451</ele>
        <time>2018-08-05T08:33:48.000Z</time>
      </trkpt>
      <trkpt lat="46.00542" lon="4.58251">
        <ele>451</ele>
        <time>2018-08-05T08:33:49.000Z</time>
      </trkpt>
      <trkpt lat="46.0054" lon="4.58249">
        <ele>462</ele>
        <time>2018-08-05T08:33:50.000Z</time>
      </trkpt>
      <trkpt lat="46.00537" lon="4.58246">
        <ele>462</ele>
        <time>2018-08-05T08:33:51.000Z</time>
      </trkpt>
      <trkpt lat="46.00535" lon="4.58244">
        <ele>461</ele>
        <time>2018-08-05T08:33:52.000Z</time>
      </trkpt>
      <trkpt lat="46.00532" lon="4.58242">
        <ele>461</ele>
        <time>2018-08-05T08:33:53.000Z</time>
      </trkpt>
      <trkpt lat="46.00529" lon="4.5824">
        <ele>461</ele>
        <time>2018-08-05T08:33:54.000Z</time>
      </trkpt>
      <trkpt lat="46.00527" lon="4.58239">
        <ele>461</ele>
        <time>2018-08-05T08:33:55.000Z</time>
      </trkpt>
      <trkpt lat="46.00524" lon="4.58237">
        <ele>461</ele>
        <time>2018-08-05T08:33:56.000Z</time>
      </trkpt>
      <trkpt lat="46.00521" lon="4.58236">
        <ele>461</ele>
        <time>2018-08-05T08:33:57.000Z</time>
      </trkpt>
      <trkpt lat="46.00518" lon="4.58236">
        <ele>461</ele>
        <time>2018-08-05T08:33:58.000Z</time>
      </trkpt>
      <trkpt lat="46.00515" lon="4.58235">
        <ele>460</ele>
        <time>2018-08-05T08:33:59.000Z</time>
      </trkpt>
      <trkpt lat="46.00512" lon="4.58235">
        <ele>460</ele>
        <time>2018-08-05T08:34:00.000Z</time>
      </trkpt>
      <trkpt lat="46.00509" lon="4.58236">
        <ele>460</ele>
        <time>2018-08-05T08:34:01.000Z</time>
      </trkpt>
      <trkpt lat="46.00506" lon="4.58236">
        <ele>459</ele>
        <time>2018-08-05T08:34:02.000Z</time>
      </trkpt>
      <trkpt lat="46.00503" lon="4.58237">
        <ele>459</ele>
        <time>2018-08-05T08:34:03.000Z</time>
      </trkpt>
      <trkpt lat="46.005" lon="4.58237">
        <ele>459</ele>
        <time>2018-08-05T08:34:04.000Z</time>
      </trkpt>
      <trkpt lat="46.00498" lon="4.58238">
        <ele>458</ele>
        <time>2018-08-05T08:34:05.000Z</time>
      </trkpt>
      <trkpt lat="46.00495" lon="4.58238">
        <ele>458</ele>
        <time>2018-08-05T08:34:06.000Z</time>
      </trkpt>
      <trkpt lat="46.00492" lon="4.58239">
        <ele>458</ele>
        <time>2018-08-05T08:34:07.000Z</time>
      </trkpt>
      <trkpt lat="46.00489" lon="4.5824">
        <ele>459</ele>
        <time>2018-08-05T08:34:08.000Z</time>
      </trkpt>
      <trkpt lat="46.00487" lon="4.5824">
        <ele>459</ele>
        <time>2018-08-05T08:34:09.000Z</time>
      </trkpt>
      <trkpt lat="46.00484" lon="4.58241">
        <ele>459</ele>
        <time>2018-08-05T08:34:10.000Z</time>
      </trkpt>
      <trkpt lat="46.00481" lon="4.58241">
        <ele>460</ele>
        <time>2018-08-05T08:34:11.000Z</time>
      </trkpt>
      <trkpt lat="46.00478" lon="4.58241">
        <ele>460</ele>
        <time>2018-08-05T08:34:12.000Z</time>
      </trkpt>
      <trkpt lat="46.00475" lon="4.58241">
        <ele>460</ele>
        <time>2018-08-05T08:34:13.000Z</time>
      </trkpt>
      <trkpt lat="46.00473" lon="4.58241">
        <ele>461</ele>
        <time>2018-08-05T08:34:14.000Z</time>
      </trkpt>
      <trkpt lat="46.0047" lon="4.58241">
        <ele>461</ele>
        <time>2018-08-05T08:34:15.000Z</time>
      </trkpt>
      <trkpt lat="46.00467" lon="4.5824">
        <ele>461</ele>
        <time>2018-08-05T08:34:16.000Z</time>
      </trkpt>
      <trkpt lat="46.00464" lon="4.5824">
        <ele>461</ele>
        <time>2018-08-05T08:34:17.000Z</time>
      </trkpt>
      <trkpt lat="46.00462" lon="4.5824">
        <ele>461</ele>
        <time>2018-08-05T08:34:18.000Z</time>
      </trkpt>
      <trkpt lat="46.00459" lon="4.58239">
        <ele>461</ele>
        <time>2018-08-05T08:34:19.000Z</time>
      </trkpt>
      <trkpt lat="46.00456" lon="4.58239">
        <ele>462</ele>
        <time>2018-08-05T08:34:20.000Z</time>
      </trkpt>
      <trkpt lat="46.00453" lon="4.58238">
        <ele>462</ele>
        <time>2018-08-05T08:34:21.000Z</time>
      </trkpt>
      <trkpt lat="46.00451" lon="4.58238">
        <ele>462</ele>
        <time>2018-08-05T08:34:22.000Z</time>
      </trkpt>
      <trkpt lat="46.00448" lon="4.58238">
        <ele>462</ele>
        <time>2018-08-05T08:34:23.000Z</time>
      </trkpt>
      <trkpt lat="46.00445" lon="4.58237">
        <ele>462</ele>
        <time>2018-08-05T08:34:24.000Z</time>
      </trkpt>
      <trkpt lat="46.00442" lon="4.58236">
        <ele>462</ele>
        <time>2018-08-05T08:34:25.000Z</time>
      </trkpt>
      <trkpt lat="46.00439" lon="4.58235">
        <ele>461</ele>
        <time>2018-08-05T08:34:26.000Z</time>
      </trkpt>
      <trkpt lat="46.00437" lon="4.58234">
        <ele>461</ele>
        <time>2018-08-05T08:34:27.000Z</time>
      </trkpt>
      <trkpt lat="46.00434" lon="4.58233">
        <ele>461</ele>
        <time>2018-08-05T08:34:28.000Z</time>
      </trkpt>
      <trkpt lat="46.00431" lon="4.58232">
        <ele>461</ele>
        <time>2018-08-05T08:34:29.000Z</time>
      </trkpt>
      <trkpt lat="46.00428" lon="4.58231">
        <ele>461</ele>
        <time>2018-08-05T08:34:30.000Z</time>
      </trkpt>
      <trkpt lat="46.00425" lon="4.5823">
        <ele>461</ele>
        <time>2018-08-05T08:34:31.000Z</time>
      </trkpt>
      <trkpt lat="46.00422" lon="4.58229">
        <ele>461</ele>
        <time>2018-08-05T08:34:32.000Z</time>
      </trkpt>
      <trkpt lat="46.00419" lon="4.58227">
        <ele>462</ele>
        <time>2018-08-05T08:34:33.000Z</time>
      </trkpt>
      <trkpt lat="46.00416" lon="4.58226">
        <ele>462</ele>
        <time>2018-08-05T08:34:34.000Z</time>
      </trkpt>
      <trkpt lat="46.00413" lon="4.58225">
        <ele>462</ele>
        <time>2018-08-05T08:34:35.000Z</time>
      </trkpt>
      <trkpt lat="46.0041" lon="4.58224">
        <ele>462</ele>
        <time>2018-08-05T08:34:36.000Z</time>
      </trkpt>
      <trkpt lat="46.00408" lon="4.58222">
        <ele>463</ele>
        <time>2018-08-05T08:34:37.000Z</time>
      </trkpt>
      <trkpt lat="46.00405" lon="4.58222">
        <ele>463</ele>
        <time>2018-08-05T08:34:38.000Z</time>
      </trkpt>
      <trkpt lat="46.00402" lon="4.58221">
        <ele>463</ele>
        <time>2018-08-05T08:34:39.000Z</time>
      </trkpt>
      <trkpt lat="46.00399" lon="4.5822">
        <ele>463</ele>
        <time>2018-08-05T08:34:40.000Z</time>
      </trkpt>
      <trkpt lat="46.00396" lon="4.5822">
        <ele>463</ele>
        <time>2018-08-05T08:34:41.000Z</time>
      </trkpt>
      <trkpt lat="46.00393" lon="4.58219">
        <ele>463</ele>
        <time>2018-08-05T08:34:42.000Z</time>
      </trkpt>
      <trkpt lat="46.0039" lon="4.58218">
        <ele>464</ele>
        <time>2018-08-05T08:34:43.000Z</time>
      </trkpt>
      <trkpt lat="46.00387" lon="4.58217">
        <ele>464</ele>
        <time>2018-08-05T08:34:44.000Z</time>
      </trkpt>
      <trkpt lat="46.00384" lon="4.58217">
        <ele>464</ele>
        <time>2018-08-05T08:34:45.000Z</time>
      </trkpt>
      <trkpt lat="46.00381" lon="4.58216">
        <ele>464</ele>
        <time>2018-08-05T08:34:46.000Z</time>
      </trkpt>
      <trkpt lat="46.00378" lon="4.58216">
        <ele>464</ele>
        <time>2018-08-05T08:34:47.000Z</time>
      </trkpt>
      <trkpt lat="46.00375" lon="4.58216">
        <ele>464</ele>
        <time>2018-08-05T08:34:48.000Z</time>
      </trkpt>
      <trkpt lat="46.00372" lon="4.58216">
        <ele>464</ele>
        <time>2018-08-05T08:34:49.000Z</time>
      </trkpt>
      <trkpt lat="46.00369" lon="4.58216">
        <ele>464</ele>
        <time>2018-08-05T08:34:50.000Z</time>
      </trkpt>
      <trkpt lat="46.00366" lon="4.58216">
        <ele>463</ele>
        <time>2018-08-05T08:34:51.000Z</time>
      </trkpt>
      <trkpt lat="46.00364" lon="4.58216">
        <ele>463</ele>
        <time>2018-08-05T08:34:52.000Z</time>
      </trkpt>
      <trkpt lat="46.00361" lon="4.58216">
        <ele>463</ele>
        <time>2018-08-05T08:34:53.000Z</time>
      </trkpt>
      <trkpt lat="46.00358" lon="4.58215">
        <ele>463</ele>
        <time>2018-08-05T08:34:54.000Z</time>
      </trkpt>
      <trkpt lat="46.00355" lon="4.58215">
        <ele>463</ele>
        <time>2018-08-05T08:34:55.000Z</time>
      </trkpt>
      <trkpt lat="46.00352" lon="4.58214">
        <ele>463</ele>
        <time>2018-08-05T08:34:56.000Z</time>
      </trkpt>
      <trkpt lat="46.00349" lon="4.58214">
        <ele>463</ele>
        <time>2018-08-05T08:34:57.000Z</time>
      </trkpt>
      <trkpt lat="46.00347" lon="4.58214">
        <ele>463</ele>
        <time>2018-08-05T08:34:58.000Z</time>
      </trkpt>
      <trkpt lat="46.00344" lon="4.58213">
        <ele>463</ele>
        <time>2018-08-05T08:34:59.000Z</time>
      </trkpt>
      <trkpt lat="46.00341" lon="4.58213">
        <ele>463</ele>
        <time>2018-08-05T08:35:00.000Z</time>
      </trkpt>
      <trkpt lat="46.00339" lon="4.58212">
        <ele>463</ele>
        <time>2018-08-05T08:35:01.000Z</time>
      </trkpt>
      <trkpt lat="46.00337" lon="4.58211">
        <ele>464</ele>
        <time>2018-08-05T08:35:02.000Z</time>
      </trkpt>
      <trkpt lat="46.00335" lon="4.5821">
        <ele>464</ele>
        <time>2018-08-05T08:35:03.000Z</time>
      </trkpt>
      <trkpt lat="46.00333" lon="4.58208">
        <ele>464</ele>
        <time>2018-08-05T08:35:04.000Z</time>
      </trkpt>
      <trkpt lat="46.00332" lon="4.58207">
        <ele>462</ele>
        <time>2018-08-05T08:35:05.000Z</time>
      </trkpt>
      <trkpt lat="46.0033" lon="4.58206">
        <ele>462</ele>
        <time>2018-08-05T08:35:06.000Z</time>
      </trkpt>
      <trkpt lat="46.00328" lon="4.58204">
        <ele>462</ele>
        <time>2018-08-05T08:35:07.000Z</time>
      </trkpt>
      <trkpt lat="46.00326" lon="4.58203">
        <ele>462</ele>
        <time>2018-08-05T08:35:08.000Z</time>
      </trkpt>
      <trkpt lat="46.00325" lon="4.58201">
        <ele>462</ele>
        <time>2018-08-05T08:35:09.000Z</time>
      </trkpt>
      <trkpt lat="46.00323" lon="4.58199">
        <ele>463</ele>
        <time>2018-08-05T08:35:10.000Z</time>
      </trkpt>
      <trkpt lat="46.00322" lon="4.58197">
        <ele>463</ele>
        <time>2018-08-05T08:35:11.000Z</time>
      </trkpt>
      <trkpt lat="46.0032" lon="4.58195">
        <ele>463</ele>
        <time>2018-08-05T08:35:12.000Z</time>
      </trkpt>
      <trkpt lat="46.00319" lon="4.58194">
        <ele>463</ele>
        <time>2018-08-05T08:35:13.000Z</time>
      </trkpt>
      <trkpt lat="46.00317" lon="4.58192">
        <ele>463</ele>
        <time>2018-08-05T08:35:14.000Z</time>
      </trkpt>
      <trkpt lat="46.00316" lon="4.5819">
        <ele>463</ele>
        <time>2018-08-05T08:35:15.000Z</time>
      </trkpt>
      <trkpt lat="46.00314" lon="4.58189">
        <ele>464</ele>
        <time>2018-08-05T08:35:16.000Z</time>
      </trkpt>
      <trkpt lat="46.00313" lon="4.58187">
        <ele>464</ele>
        <time>2018-08-05T08:35:17.000Z</time>
      </trkpt>
      <trkpt lat="46.00312" lon="4.58184">
        <ele>464</ele>
        <time>2018-08-05T08:35:18.000Z</time>
      </trkpt>
      <trkpt lat="46.0031" lon="4.58182">
        <ele>464</ele>
        <time>2018-08-05T08:35:19.000Z</time>
      </trkpt>
      <trkpt lat="46.00309" lon="4.5818">
        <ele>464</ele>
        <time>2018-08-05T08:35:20.000Z</time>
      </trkpt>
      <trkpt lat="46.00308" lon="4.58178">
        <ele>464</ele>
        <time>2018-08-05T08:35:21.000Z</time>
      </trkpt>
      <trkpt lat="46.00307" lon="4.58176">
        <ele>464</ele>
        <time>2018-08-05T08:35:22.000Z</time>
      </trkpt>
      <trkpt lat="46.00306" lon="4.58174">
        <ele>464</ele>
        <time>2018-08-05T08:35:23.000Z</time>
      </trkpt>
      <trkpt lat="46.00304" lon="4.58172">
        <ele>464</ele>
        <time>2018-08-05T08:35:24.000Z</time>
      </trkpt>
      <trkpt lat="46.00304" lon="4.58171">
        <ele>464</ele>
        <time>2018-08-05T08:35:25.000Z</time>
      </trkpt>
      <trkpt lat="46.00302" lon="4.58169">
        <ele>464</ele>
        <time>2018-08-05T08:35:26.000Z</time>
      </trkpt>
      <trkpt lat="46.00301" lon="4.58167">
        <ele>464</ele>
        <time>2018-08-05T08:35:27.000Z</time>
      </trkpt>
      <trkpt lat="46.00301" lon="4.58164">
        <ele>472</ele>
        <time>2018-08-05T08:35:28.000Z</time>
      </trkpt>
      <trkpt lat="46.003" lon="4.58162">
        <ele>472</ele>
        <time>2018-08-05T08:35:29.000Z</time>
      </trkpt>
      <trkpt lat="46.00299" lon="4.5816">
        <ele>472</ele>
        <time>2018-08-05T08:35:30.000Z</time>
      </trkpt>
      <trkpt lat="46.00298" lon="4.58157">
        <ele>472</ele>
        <time>2018-08-05T08:35:31.000Z</time>
      </trkpt>
      <trkpt lat="46.00298" lon="4.58154">
        <ele>472</ele>
        <time>2018-08-05T08:35:32.000Z</time>
      </trkpt>
      <trkpt lat="46.00297" lon="4.58151">
        <ele>472</ele>
        <time>2018-08-05T08:35:33.000Z</time>
      </trkpt>
      <trkpt lat="46.00297" lon="4.58148">
        <ele>472</ele>
        <time>2018-08-05T08:35:34.000Z</time>
      </trkpt>
      <trkpt lat="46.00297" lon="4.58146">
        <ele>472</ele>
        <time>2018-08-05T08:35:35.000Z</time>
      </trkpt>
      <trkpt lat="46.00296" lon="4.58143">
        <ele>472</ele>
        <time>2018-08-05T08:35:36.000Z</time>
      </trkpt>
      <trkpt lat="46.00296" lon="4.58141">
        <ele>472</ele>
        <time>2018-08-05T08:35:37.000Z</time>
      </trkpt>
      <trkpt lat="46.00296" lon="4.58139">
        <ele>473</ele>
        <time>2018-08-05T08:35:38.000Z</time>
      </trkpt>
      <trkpt lat="46.00296" lon="4.58136">
        <ele>473</ele>
        <time>2018-08-05T08:35:39.000Z</time>
      </trkpt>
      <trkpt lat="46.00296" lon="4.58134">
        <ele>473</ele>
        <time>2018-08-05T08:35:40.000Z</time>
      </trkpt>
      <trkpt lat="46.00296" lon="4.58131">
        <ele>473</ele>
        <time>2018-08-05T08:35:41.000Z</time>
      </trkpt>
      <trkpt lat="46.00296" lon="4.58128">
        <ele>473</ele>
        <time>2018-08-05T08:35:42.000Z</time>
      </trkpt>
      <trkpt lat="46.00295" lon="4.58126">
        <ele>473</ele>
        <time>2018-08-05T08:35:43.000Z</time>
      </trkpt>
      <trkpt lat="46.00295" lon="4.58124">
        <ele>474</ele>
        <time>2018-08-05T08:35:44.000Z</time>
      </trkpt>
      <trkpt lat="46.00295" lon="4.58121">
        <ele>474</ele>
        <time>2018-08-05T08:35:45.000Z</time>
      </trkpt>
      <trkpt lat="46.00295" lon="4.58118">
        <ele>474</ele>
        <time>2018-08-05T08:35:46.000Z</time>
      </trkpt>
      <trkpt lat="46.00295" lon="4.58115">
        <ele>474</ele>
        <time>2018-08-05T08:35:47.000Z</time>
      </trkpt>
      <trkpt lat="46.00295" lon="4.58112">
        <ele>474</ele>
        <time>2018-08-05T08:35:48.000Z</time>
      </trkpt>
      <trkpt lat="46.00295" lon="4.58108">
        <ele>475</ele>
        <time>2018-08-05T08:35:49.000Z</time>
      </trkpt>
      <trkpt lat="46.00295" lon="4.58105">
        <ele>475</ele>
        <time>2018-08-05T08:35:50.000Z</time>
      </trkpt>
      <trkpt lat="46.00295" lon="4.58101">
        <ele>475</ele>
        <time>2018-08-05T08:35:51.000Z</time>
      </trkpt>
      <trkpt lat="46.00295" lon="4.58098">
        <ele>475</ele>
        <time>2018-08-05T08:35:52.000Z</time>
      </trkpt>
      <trkpt lat="46.00295" lon="4.58094">
        <ele>475</ele>
        <time>2018-08-05T08:35:53.000Z</time>
      </trkpt>
      <trkpt lat="46.00295" lon="4.5809">
        <ele>476</ele>
        <time>2018-08-05T08:35:54.000Z</time>
      </trkpt>
      <trkpt lat="46.00295" lon="4.58086">
        <ele>476</ele>
        <time>2018-08-05T08:35:55.000Z</time>
      </trkpt>
      <trkpt lat="46.00296" lon="4.58083">
        <ele>483</ele>
        <time>2018-08-05T08:35:56.000Z</time>
      </trkpt>
      <trkpt lat="46.00296" lon="4.58079">
        <ele>483</ele>
        <time>2018-08-05T08:35:57.000Z</time>
      </trkpt>
      <trkpt lat="46.00296" lon="4.58076">
        <ele>483</ele>
        <time>2018-08-05T08:35:58.000Z</time>
      </trkpt>
      <trkpt lat="46.00297" lon="4.58073">
        <ele>483</ele>
        <time>2018-08-05T08:35:59.000Z</time>
      </trkpt>
      <trkpt lat="46.00297" lon="4.58069">
        <ele>483</ele>
        <time>2018-08-05T08:36:00.000Z</time>
      </trkpt>
      <trkpt lat="46.00297" lon="4.58066">
        <ele>484</ele>
        <time>2018-08-05T08:36:01.000Z</time>
      </trkpt>
      <trkpt lat="46.00296" lon="4.58062">
        <ele>484</ele>
        <time>2018-08-05T08:36:02.000Z</time>
      </trkpt>
      <trkpt lat="46.00296" lon="4.58058">
        <ele>484</ele>
        <time>2018-08-05T08:36:03.000Z</time>
      </trkpt>
      <trkpt lat="46.00295" lon="4.58054">
        <ele>484</ele>
        <time>2018-08-05T08:36:04.000Z</time>
      </trkpt>
      <trkpt lat="46.00294" lon="4.58051">
        <ele>484</ele>
        <time>2018-08-05T08:36:05.000Z</time>
      </trkpt>
      <trkpt lat="46.00293" lon="4.58048">
        <ele>484</ele>
        <time>2018-08-05T08:36:06.000Z</time>
      </trkpt>
      <trkpt lat="46.00292" lon="4.58045">
        <ele>485</ele>
        <time>2018-08-05T08:36:07.000Z</time>
      </trkpt>
      <trkpt lat="46.0029" lon="4.58043">
        <ele>485</ele>
        <time>2018-08-05T08:36:08.000Z</time>
      </trkpt>
      <trkpt lat="46.00288" lon="4.5804">
        <ele>485</ele>
        <time>2018-08-05T08:36:09.000Z</time>
      </trkpt>
      <trkpt lat="46.00286" lon="4.58038">
        <ele>485</ele>
        <time>2018-08-05T08:36:10.000Z</time>
      </trkpt>
      <trkpt lat="46.00284" lon="4.58036">
        <ele>485</ele>
        <time>2018-08-05T08:36:11.000Z</time>
      </trkpt>
      <trkpt lat="46.00281" lon="4.58035">
        <ele>485</ele>
        <time>2018-08-05T08:36:12.000Z</time>
      </trkpt>
      <trkpt lat="46.00279" lon="4.58033">
        <ele>485</ele>
        <time>2018-08-05T08:36:13.000Z</time>
      </trkpt>
      <trkpt lat="46.00276" lon="4.58032">
        <ele>485</ele>
        <time>2018-08-05T08:36:14.000Z</time>
      </trkpt>
      <trkpt lat="46.00274" lon="4.58032">
        <ele>485</ele>
        <time>2018-08-05T08:36:15.000Z</time>
      </trkpt>
      <trkpt lat="46.00271" lon="4.58031">
        <ele>485</ele>
        <time>2018-08-05T08:36:16.000Z</time>
      </trkpt>
      <trkpt lat="46.00269" lon="4.58031">
        <ele>485</ele>
        <time>2018-08-05T08:36:17.000Z</time>
      </trkpt>
      <trkpt lat="46.00266" lon="4.58031">
        <ele>485</ele>
        <time>2018-08-05T08:36:18.000Z</time>
      </trkpt>
      <trkpt lat="46.00264" lon="4.58031">
        <ele>485</ele>
        <time>2018-08-05T08:36:19.000Z</time>
      </trkpt>
      <trkpt lat="46.00261" lon="4.58031">
        <ele>485</ele>
        <time>2018-08-05T08:36:20.000Z</time>
      </trkpt>
      <trkpt lat="46.00259" lon="4.5803">
        <ele>485</ele>
        <time>2018-08-05T08:36:21.000Z</time>
      </trkpt>
      <trkpt lat="46.00256" lon="4.5803">
        <ele>485</ele>
        <time>2018-08-05T08:36:22.000Z</time>
      </trkpt>
      <trkpt lat="46.00253" lon="4.58029">
        <ele>485</ele>
        <time>2018-08-05T08:36:23.000Z</time>
      </trkpt>
      <trkpt lat="46.00251" lon="4.58029">
        <ele>485</ele>
        <time>2018-08-05T08:36:24.000Z</time>
      </trkpt>
      <trkpt lat="46.00248" lon="4.58028">
        <ele>484</ele>
        <time>2018-08-05T08:36:25.000Z</time>
      </trkpt>
      <trkpt lat="46.00245" lon="4.58027">
        <ele>484</ele>
        <time>2018-08-05T08:36:26.000Z</time>
      </trkpt>
      <trkpt lat="46.00242" lon="4.58025">
        <ele>484</ele>
        <time>2018-08-05T08:36:27.000Z</time>
      </trkpt>
      <trkpt lat="46.0024" lon="4.58024">
        <ele>485</ele>
        <time>2018-08-05T08:36:28.000Z</time>
      </trkpt>
      <trkpt lat="46.00237" lon="4.58022">
        <ele>485</ele>
        <time>2018-08-05T08:36:29.000Z</time>
      </trkpt>
      <trkpt lat="46.00235" lon="4.5802">
        <ele>485</ele>
        <time>2018-08-05T08:36:30.000Z</time>
      </trkpt>
      <trkpt lat="46.00232" lon="4.58018">
        <ele>485</ele>
        <time>2018-08-05T08:36:31.000Z</time>
      </trkpt>
      <trkpt lat="46.0023" lon="4.58016">
        <ele>485</ele>
        <time>2018-08-05T08:36:32.000Z</time>
      </trkpt>
      <trkpt lat="46.00227" lon="4.58014">
        <ele>485</ele>
        <time>2018-08-05T08:36:33.000Z</time>
      </trkpt>
      <trkpt lat="46.00225" lon="4.58011">
        <ele>485</ele>
        <time>2018-08-05T08:36:34.000Z</time>
      </trkpt>
      <trkpt lat="46.00222" lon="4.58009">
        <ele>485</ele>
        <time>2018-08-05T08:36:35.000Z</time>
      </trkpt>
      <trkpt lat="46.0022" lon="4.58007">
        <ele>485</ele>
        <time>2018-08-05T08:36:36.000Z</time>
      </trkpt>
      <trkpt lat="46.00218" lon="4.58005">
        <ele>485</ele>
        <time>2018-08-05T08:36:37.000Z</time>
      </trkpt>
      <trkpt lat="46.00215" lon="4.58003">
        <ele>486</ele>
        <time>2018-08-05T08:36:38.000Z</time>
      </trkpt>
      <trkpt lat="46.00213" lon="4.58001">
        <ele>486</ele>
        <time>2018-08-05T08:36:39.000Z</time>
      </trkpt>
      <trkpt lat="46.0021" lon="4.58">
        <ele>494</ele>
        <time>2018-08-05T08:36:40.000Z</time>
      </trkpt>
      <trkpt lat="46.00208" lon="4.57998">
        <ele>494</ele>
        <time>2018-08-05T08:36:41.000Z</time>
      </trkpt>
      <trkpt lat="46.00206" lon="4.57996">
        <ele>494</ele>
        <time>2018-08-05T08:36:42.000Z</time>
      </trkpt>
      <trkpt lat="46.00203" lon="4.57994">
        <ele>494</ele>
        <time>2018-08-05T08:36:43.000Z</time>
      </trkpt>
      <trkpt lat="46.00201" lon="4.57993">
        <ele>494</ele>
        <time>2018-08-05T08:36:44.000Z</time>
      </trkpt>
      <trkpt lat="46.00199" lon="4.57991">
        <ele>494</ele>
        <time>2018-08-05T08:36:45.000Z</time>
      </trkpt>
      <trkpt lat="46.00196" lon="4.5799">
        <ele>494</ele>
        <time>2018-08-05T08:36:46.000Z</time>
      </trkpt>
      <trkpt lat="46.00194" lon="4.57988">
        <ele>494</ele>
        <time>2018-08-05T08:36:47.000Z</time>
      </trkpt>
      <trkpt lat="46.00191" lon="4.57987">
        <ele>494</ele>
        <time>2018-08-05T08:36:48.000Z</time>
      </trkpt>
      <trkpt lat="46.00189" lon="4.57985">
        <ele>495</ele>
        <time>2018-08-05T08:36:49.000Z</time>
      </trkpt>
      <trkpt lat="46.00187" lon="4.57984">
        <ele>495</ele>
        <time>2018-08-05T08:36:50.000Z</time>
      </trkpt>
      <trkpt lat="46.00184" lon="4.57983">
        <ele>495</ele>
        <time>2018-08-05T08:36:51.000Z</time>
      </trkpt>
      <trkpt lat="46.00182" lon="4.57982">
        <ele>495</ele>
        <time>2018-08-05T08:36:52.000Z</time>
      </trkpt>
      <trkpt lat="46.0018" lon="4.57981">
        <ele>495</ele>
        <time>2018-08-05T08:36:53.000Z</time>
      </trkpt>
      <trkpt lat="46.00178" lon="4.5798">
        <ele>495</ele>
        <time>2018-08-05T08:36:54.000Z</time>
      </trkpt>
      <trkpt lat="46.00175" lon="4.57979">
        <ele>495</ele>
        <time>2018-08-05T08:36:55.000Z</time>
      </trkpt>
      <trkpt lat="46.00173" lon="4.57978">
        <ele>495</ele>
        <time>2018-08-05T08:36:56.000Z</time>
      </trkpt>
      <trkpt lat="46.00171" lon="4.57977">
        <ele>495</ele>
        <time>2018-08-05T08:36:57.000Z</time>
      </trkpt>
      <trkpt lat="46.00168" lon="4.57977">
        <ele>495</ele>
        <time>2018-08-05T08:36:58.000Z</time>
      </trkpt>
      <trkpt lat="46.00166" lon="4.57976">
        <ele>498</ele>
        <time>2018-08-05T08:36:59.000Z</time>
      </trkpt>
      <trkpt lat="46.00163" lon="4.57975">
        <ele>499</ele>
        <time>2018-08-05T08:37:00.000Z</time>
      </trkpt>
      <trkpt lat="46.00161" lon="4.57975">
        <ele>499</ele>
        <time>2018-08-05T08:37:01.000Z</time>
      </trkpt>
      <trkpt lat="46.00159" lon="4.57974">
        <ele>499</ele>
        <time>2018-08-05T08:37:02.000Z</time>
      </trkpt>
      <trkpt lat="46.00157" lon="4.57974">
        <ele>499</ele>
        <time>2018-08-05T08:37:03.000Z</time>
      </trkpt>
      <trkpt lat="46.00154" lon="4.57974">
        <ele>500</ele>
        <time>2018-08-05T08:37:04.000Z</time>
      </trkpt>
      <trkpt lat="46.00152" lon="4.57974">
        <ele>500</ele>
        <time>2018-08-05T08:37:05.000Z</time>
      </trkpt>
      <trkpt lat="46.00149" lon="4.57974">
        <ele>500</ele>
        <time>2018-08-05T08:37:06.000Z</time>
      </trkpt>
      <trkpt lat="46.00147" lon="4.57975">
        <ele>500</ele>
        <time>2018-08-05T08:37:07.000Z</time>
      </trkpt>
      <trkpt lat="46.00145" lon="4.57976">
        <ele>500</ele>
        <time>2018-08-05T08:37:08.000Z</time>
      </trkpt>
      <trkpt lat="46.00143" lon="4.57976">
        <ele>500</ele>
        <time>2018-08-05T08:37:09.000Z</time>
      </trkpt>
      <trkpt lat="46.0014" lon="4.57978">
        <ele>501</ele>
        <time>2018-08-05T08:37:10.000Z</time>
      </trkpt>
      <trkpt lat="46.00138" lon="4.57979">
        <ele>501</ele>
        <time>2018-08-05T08:37:11.000Z</time>
      </trkpt>
      <trkpt lat="46.00136" lon="4.57981">
        <ele>501</ele>
        <time>2018-08-05T08:37:12.000Z</time>
      </trkpt>
      <trkpt lat="46.00135" lon="4.57983">
        <ele>501</ele>
        <time>2018-08-05T08:37:13.000Z</time>
      </trkpt>
      <trkpt lat="46.00133" lon="4.57986">
        <ele>501</ele>
        <time>2018-08-05T08:37:14.000Z</time>
      </trkpt>
      <trkpt lat="46.00132" lon="4.57989">
        <ele>501</ele>
        <time>2018-08-05T08:37:15.000Z</time>
      </trkpt>
      <trkpt lat="46.0013" lon="4.57992">
        <ele>501</ele>
        <time>2018-08-05T08:37:16.000Z</time>
      </trkpt>
      <trkpt lat="46.00129" lon="4.57995">
        <ele>501</ele>
        <time>2018-08-05T08:37:17.000Z</time>
      </trkpt>
      <trkpt lat="46.00128" lon="4.57999">
        <ele>501</ele>
        <time>2018-08-05T08:37:18.000Z</time>
      </trkpt>
      <trkpt lat="46.00127" lon="4.58003">
        <ele>494</ele>
        <time>2018-08-05T08:37:19.000Z</time>
      </trkpt>
      <trkpt lat="46.00126" lon="4.58006">
        <ele>494</ele>
        <time>2018-08-05T08:37:20.000Z</time>
      </trkpt>
      <trkpt lat="46.00125" lon="4.5801">
        <ele>494</ele>
        <time>2018-08-05T08:37:21.000Z</time>
      </trkpt>
      <trkpt lat="46.00124" lon="4.58014">
        <ele>494</ele>
        <time>2018-08-05T08:37:22.000Z</time>
      </trkpt>
      <trkpt lat="46.00123" lon="4.58018">
        <ele>494</ele>
        <time>2018-08-05T08:37:23.000Z</time>
      </trkpt>
      <trkpt lat="46.00122" lon="4.58021">
        <ele>494</ele>
        <time>2018-08-05T08:37:24.000Z</time>
      </trkpt>
      <trkpt lat="46.00121" lon="4.58025">
        <ele>494</ele>
        <time>2018-08-05T08:37:25.000Z</time>
      </trkpt>
      <trkpt lat="46.0012" lon="4.58029">
        <ele>494</ele>
        <time>2018-08-05T08:37:26.000Z</time>
      </trkpt>
      <trkpt lat="46.00118" lon="4.58032">
        <ele>494</ele>
        <time>2018-08-05T08:37:27.000Z</time>
      </trkpt>
      <trkpt lat="46.00117" lon="4.58036">
        <ele>494</ele>
        <time>2018-08-05T08:37:28.000Z</time>
      </trkpt>
      <trkpt lat="46.00115" lon="4.58039">
        <ele>493</ele>
        <time>2018-08-05T08:37:29.000Z</time>
      </trkpt>
      <trkpt lat="46.00113" lon="4.58042">
        <ele>493</ele>
        <time>2018-08-05T08:37:30.000Z</time>
      </trkpt>
      <trkpt lat="46.00111" lon="4.58043">
        <ele>493</ele>
        <time>2018-08-05T08:37:31.000Z</time>
      </trkpt>
      <trkpt lat="46.00108" lon="4.58045">
        <ele>494</ele>
        <time>2018-08-05T08:37:32.000Z</time>
      </trkpt>
      <trkpt lat="46.00106" lon="4.58046">
        <ele>494</ele>
        <time>2018-08-05T08:37:33.000Z</time>
      </trkpt>
      <trkpt lat="46.00103" lon="4.58047">
        <ele>494</ele>
        <time>2018-08-05T08:37:34.000Z</time>
      </trkpt>
      <trkpt lat="46.001" lon="4.58047">
        <ele>494</ele>
        <time>2018-08-05T08:37:35.000Z</time>
      </trkpt>
      <trkpt lat="46.00098" lon="4.58046">
        <ele>494</ele>
        <time>2018-08-05T08:37:36.000Z</time>
      </trkpt>
      <trkpt lat="46.00095" lon="4.58046">
        <ele>494</ele>
        <time>2018-08-05T08:37:37.000Z</time>
      </trkpt>
      <trkpt lat="46.00092" lon="4.58045">
        <ele>494</ele>
        <time>2018-08-05T08:37:38.000Z</time>
      </trkpt>
      <trkpt lat="46.0009" lon="4.58044">
        <ele>495</ele>
        <time>2018-08-05T08:37:39.000Z</time>
      </trkpt>
      <trkpt lat="46.00087" lon="4.58043">
        <ele>495</ele>
        <time>2018-08-05T08:37:40.000Z</time>
      </trkpt>
      <trkpt lat="46.00085" lon="4.58041">
        <ele>495</ele>
        <time>2018-08-05T08:37:41.000Z</time>
      </trkpt>
      <trkpt lat="46.00082" lon="4.5804">
        <ele>501</ele>
        <time>2018-08-05T08:37:42.000Z</time>
      </trkpt>
      <trkpt lat="46.0008" lon="4.58039">
        <ele>501</ele>
        <time>2018-08-05T08:37:43.000Z</time>
      </trkpt>
      <trkpt lat="46.00078" lon="4.58038">
        <ele>501</ele>
        <time>2018-08-05T08:37:44.000Z</time>
      </trkpt>
      <trkpt lat="46.00076" lon="4.58036">
        <ele>501</ele>
        <time>2018-08-05T08:37:45.000Z</time>
      </trkpt>
      <trkpt lat="46.00073" lon="4.58034">
        <ele>502</ele>
        <time>2018-08-05T08:37:46.000Z</time>
      </trkpt>
      <trkpt lat="46.00071" lon="4.58032">
        <ele>502</ele>
        <time>2018-08-05T08:37:47.000Z</time>
      </trkpt>
      <trkpt lat="46.00069" lon="4.5803">
        <ele>502</ele>
        <time>2018-08-05T08:37:48.000Z</time>
      </trkpt>
      <trkpt lat="46.00067" lon="4.58028">
        <ele>502</ele>
        <time>2018-08-05T08:37:49.000Z</time>
      </trkpt>
      <trkpt lat="46.00064" lon="4.58026">
        <ele>502</ele>
        <time>2018-08-05T08:37:50.000Z</time>
      </trkpt>
      <trkpt lat="46.00062" lon="4.58023">
        <ele>502</ele>
        <time>2018-08-05T08:37:51.000Z</time>
      </trkpt>
      <trkpt lat="46.0006" lon="4.58021">
        <ele>503</ele>
        <time>2018-08-05T08:37:52.000Z</time>
      </trkpt>
      <trkpt lat="46.00058" lon="4.58019">
        <ele>503</ele>
        <time>2018-08-05T08:37:53.000Z</time>
      </trkpt>
      <trkpt lat="46.00056" lon="4.58016">
        <ele>503</ele>
        <time>2018-08-05T08:37:54.000Z</time>
      </trkpt>
      <trkpt lat="46.00054" lon="4.58013">
        <ele>503</ele>
        <time>2018-08-05T08:37:55.000Z</time>
      </trkpt>
      <trkpt lat="46.00052" lon="4.58011">
        <ele>503</ele>
        <time>2018-08-05T08:37:56.000Z</time>
      </trkpt>
      <trkpt lat="46.0005" lon="4.58009">
        <ele>503</ele>
        <time>2018-08-05T08:37:57.000Z</time>
      </trkpt>
      <trkpt lat="46.00047" lon="4.58007">
        <ele>503</ele>
        <time>2018-08-05T08:37:58.000Z</time>
      </trkpt>
      <trkpt lat="46.00045" lon="4.58005">
        <ele>504</ele>
        <time>2018-08-05T08:37:59.000Z</time>
      </trkpt>
      <trkpt lat="46.00042" lon="4.58003">
        <ele>504</ele>
        <time>2018-08-05T08:38:00.000Z</time>
      </trkpt>
      <trkpt lat="46.0004" lon="4.58001">
        <ele>504</ele>
        <time>2018-08-05T08:38:01.000Z</time>
      </trkpt>
      <trkpt lat="46.00037" lon="4.58">
        <ele>504</ele>
        <time>2018-08-05T08:38:02.000Z</time>
      </trkpt>
      <trkpt lat="46.00034" lon="4.57999">
        <ele>510</ele>
        <time>2018-08-05T08:38:03.000Z</time>
      </trkpt>
      <trkpt lat="46.00032" lon="4.57998">
        <ele>511</ele>
        <time>2018-08-05T08:38:04.000Z</time>
      </trkpt>
      <trkpt lat="46.00029" lon="4.57997">
        <ele>511</ele>
        <time>2018-08-05T08:38:05.000Z</time>
      </trkpt>
      <trkpt lat="46.00026" lon="4.57996">
        <ele>511</ele>
        <time>2018-08-05T08:38:06.000Z</time>
      </trkpt>
      <trkpt lat="46.00023" lon="4.57995">
        <ele>511</ele>
        <time>2018-08-05T08:38:07.000Z</time>
      </trkpt>
      <trkpt lat="46.00021" lon="4.57994">
        <ele>511</ele>
        <time>2018-08-05T08:38:08.000Z</time>
      </trkpt>
      <trkpt lat="46.00018" lon="4.57994">
        <ele>511</ele>
        <time>2018-08-05T08:38:09.000Z</time>
      </trkpt>
      <trkpt lat="46.00016" lon="4.57993">
        <ele>511</ele>
        <time>2018-08-05T08:38:10.000Z</time>
      </trkpt>
      <trkpt lat="46.00013" lon="4.57993">
        <ele>510</ele>
        <time>2018-08-05T08:38:11.000Z</time>
      </trkpt>
      <trkpt lat="46.00011" lon="4.57992">
        <ele>510</ele>
        <time>2018-08-05T08:38:12.000Z</time>
      </trkpt>
      <trkpt lat="46.00008" lon="4.57992">
        <ele>510</ele>
        <time>2018-08-05T08:38:13.000Z</time>
      </trkpt>
      <trkpt lat="46.00006" lon="4.57992">
        <ele>510</ele>
        <time>2018-08-05T08:38:14.000Z</time>
      </trkpt>
      <trkpt lat="46.00004" lon="4.57992">
        <ele>510</ele>
        <time>2018-08-05T08:38:15.000Z</time>
      </trkpt>
      <trkpt lat="46.00002" lon="4.57993">
        <ele>510</ele>
        <time>2018-08-05T08:38:16.000Z</time>
      </trkpt>
      <trkpt lat="45.99999" lon="4.57993">
        <ele>512</ele>
        <time>2018-08-05T08:38:17.000Z</time>
      </trkpt>
      <trkpt lat="45.99997" lon="4.57993">
        <ele>512</ele>
        <time>2018-08-05T08:38:18.000Z</time>
      </trkpt>
      <trkpt lat="45.99994" lon="4.57994">
        <ele>512</ele>
        <time>2018-08-05T08:38:19.000Z</time>
      </trkpt>
      <trkpt lat="45.99992" lon="4.57994">
        <ele>513</ele>
        <time>2018-08-05T08:38:20.000Z</time>
      </trkpt>
      <trkpt lat="45.99989" lon="4.57995">
        <ele>513</ele>
        <time>2018-08-05T08:38:21.000Z</time>
      </trkpt>
      <trkpt lat="45.99987" lon="4.57996">
        <ele>514</ele>
        <time>2018-08-05T08:38:22.000Z</time>
      </trkpt>
      <trkpt lat="45.99984" lon="4.57997">
        <ele>514</ele>
        <time>2018-08-05T08:38:23.000Z</time>
      </trkpt>
      <trkpt lat="45.99982" lon="4.57998">
        <ele>515</ele>
        <time>2018-08-05T08:38:24.000Z</time>
      </trkpt>
      <trkpt lat="45.99979" lon="4.58">
        <ele>515</ele>
        <time>2018-08-05T08:38:25.000Z</time>
      </trkpt>
      <trkpt lat="45.99977" lon="4.58001">
        <ele>509</ele>
        <time>2018-08-05T08:38:26.000Z</time>
      </trkpt>
      <trkpt lat="45.99974" lon="4.58003">
        <ele>509</ele>
        <time>2018-08-05T08:38:27.000Z</time>
      </trkpt>
      <trkpt lat="45.99972" lon="4.58004">
        <ele>509</ele>
        <time>2018-08-05T08:38:28.000Z</time>
      </trkpt>
      <trkpt lat="45.99969" lon="4.58006">
        <ele>509</ele>
        <time>2018-08-05T08:38:29.000Z</time>
      </trkpt>
      <trkpt lat="45.99967" lon="4.58008">
        <ele>509</ele>
        <time>2018-08-05T08:38:30.000Z</time>
      </trkpt>
      <trkpt lat="45.99965" lon="4.5801">
        <ele>509</ele>
        <time>2018-08-05T08:38:31.000Z</time>
      </trkpt>
      <trkpt lat="45.99962" lon="4.58011">
        <ele>509</ele>
        <time>2018-08-05T08:38:32.000Z</time>
      </trkpt>
      <trkpt lat="45.9996" lon="4.58012">
        <ele>509</ele>
        <time>2018-08-05T08:38:33.000Z</time>
      </trkpt>
      <trkpt lat="45.99958" lon="4.58013">
        <ele>509</ele>
        <time>2018-08-05T08:38:34.000Z</time>
      </trkpt>
      <trkpt lat="45.99955" lon="4.58014">
        <ele>510</ele>
        <time>2018-08-05T08:38:35.000Z</time>
      </trkpt>
      <trkpt lat="45.99952" lon="4.58015">
        <ele>510</ele>
        <time>2018-08-05T08:38:36.000Z</time>
      </trkpt>
      <trkpt lat="45.99949" lon="4.58016">
        <ele>510</ele>
        <time>2018-08-05T08:38:37.000Z</time>
      </trkpt>
      <trkpt lat="45.99946" lon="4.58017">
        <ele>510</ele>
        <time>2018-08-05T08:38:38.000Z</time>
      </trkpt>
      <trkpt lat="45.99943" lon="4.58017">
        <ele>510</ele>
        <time>2018-08-05T08:38:39.000Z</time>
      </trkpt>
      <trkpt lat="45.99939" lon="4.58017">
        <ele>511</ele>
        <time>2018-08-05T08:38:40.000Z</time>
      </trkpt>
      <trkpt lat="45.99936" lon="4.58016">
        <ele>511</ele>
        <time>2018-08-05T08:38:41.000Z</time>
      </trkpt>
      <trkpt lat="45.99933" lon="4.58016">
        <ele>511</ele>
        <time>2018-08-05T08:38:42.000Z</time>
      </trkpt>
      <trkpt lat="45.9993" lon="4.58015">
        <ele>512</ele>
        <time>2018-08-05T08:38:43.000Z</time>
      </trkpt>
      <trkpt lat="45.99927" lon="4.58015">
        <ele>512</ele>
        <time>2018-08-05T08:38:44.000Z</time>
      </trkpt>
      <trkpt lat="45.99925" lon="4.58014">
        <ele>512</ele>
        <time>2018-08-05T08:38:45.000Z</time>
      </trkpt>
      <trkpt lat="45.99922" lon="4.58014">
        <ele>512</ele>
        <time>2018-08-05T08:38:46.000Z</time>
      </trkpt>
      <trkpt lat="45.99919" lon="4.58013">
        <ele>513</ele>
        <time>2018-08-05T08:38:47.000Z</time>
      </trkpt>
      <trkpt lat="45.99917" lon="4.58013">
        <ele>513</ele>
        <time>2018-08-05T08:38:48.000Z</time>
      </trkpt>
      <trkpt lat="45.99915" lon="4.58012">
        <ele>517</ele>
        <time>2018-08-05T08:38:49.000Z</time>
      </trkpt>
      <trkpt lat="45.99912" lon="4.58012">
        <ele>517</ele>
        <time>2018-08-05T08:38:50.000Z</time>
      </trkpt>
      <trkpt lat="45.99909" lon="4.58011">
        <ele>517</ele>
        <time>2018-08-05T08:38:51.000Z</time>
      </trkpt>
      <trkpt lat="45.99907" lon="4.5801">
        <ele>517</ele>
        <time>2018-08-05T08:38:52.000Z</time>
      </trkpt>
      <trkpt lat="45.99904" lon="4.58008">
        <ele>517</ele>
        <time>2018-08-05T08:38:53.000Z</time>
      </trkpt>
      <trkpt lat="45.99901" lon="4.58008">
        <ele>518</ele>
        <time>2018-08-05T08:38:54.000Z</time>
      </trkpt>
      <trkpt lat="45.99897" lon="4.58007">
        <ele>518</ele>
        <time>2018-08-05T08:38:55.000Z</time>
      </trkpt>
      <trkpt lat="45.99893" lon="4.58006">
        <ele>518</ele>
        <time>2018-08-05T08:38:56.000Z</time>
      </trkpt>
      <trkpt lat="45.9989" lon="4.58006">
        <ele>519</ele>
        <time>2018-08-05T08:38:57.000Z</time>
      </trkpt>
      <trkpt lat="45.99886" lon="4.58006">
        <ele>519</ele>
        <time>2018-08-05T08:38:58.000Z</time>
      </trkpt>
      <trkpt lat="45.99883" lon="4.58006">
        <ele>519</ele>
        <time>2018-08-05T08:38:59.000Z</time>
      </trkpt>
      <trkpt lat="45.9988" lon="4.58007">
        <ele>520</ele>
        <time>2018-08-05T08:39:00.000Z</time>
      </trkpt>
      <trkpt lat="45.99877" lon="4.58008">
        <ele>520</ele>
        <time>2018-08-05T08:39:01.000Z</time>
      </trkpt>
      <trkpt lat="45.99873" lon="4.58009">
        <ele>520</ele>
        <time>2018-08-05T08:39:02.000Z</time>
      </trkpt>
      <trkpt lat="45.9987" lon="4.58011">
        <ele>520</ele>
        <time>2018-08-05T08:39:03.000Z</time>
      </trkpt>
      <trkpt lat="45.99867" lon="4.58013">
        <ele>521</ele>
        <time>2018-08-05T08:39:04.000Z</time>
      </trkpt>
      <trkpt lat="45.99865" lon="4.58016">
        <ele>521</ele>
        <time>2018-08-05T08:39:05.000Z</time>
      </trkpt>
      <trkpt lat="45.99863" lon="4.58019">
        <ele>521</ele>
        <time>2018-08-05T08:39:06.000Z</time>
      </trkpt>
      <trkpt lat="45.99861" lon="4.58023">
        <ele>521</ele>
        <time>2018-08-05T08:39:07.000Z</time>
      </trkpt>
      <trkpt lat="45.99861" lon="4.58027">
        <ele>521</ele>
        <time>2018-08-05T08:39:08.000Z</time>
      </trkpt>
      <trkpt lat="45.9986" lon="4.5803">
        <ele>521</ele>
        <time>2018-08-05T08:39:09.000Z</time>
      </trkpt>
      <trkpt lat="45.9986" lon="4.58034">
        <ele>521</ele>
        <time>2018-08-05T08:39:10.000Z</time>
      </trkpt>
      <trkpt lat="45.9986" lon="4.58039">
        <ele>521</ele>
        <time>2018-08-05T08:39:11.000Z</time>
      </trkpt>
      <trkpt lat="45.9986" lon="4.58043">
        <ele>521</ele>
        <time>2018-08-05T08:39:12.000Z</time>
      </trkpt>
      <trkpt lat="45.99861" lon="4.58048">
        <ele>520</ele>
        <time>2018-08-05T08:39:13.000Z</time>
      </trkpt>
      <trkpt lat="45.99861" lon="4.58052">
        <ele>520</ele>
        <time>2018-08-05T08:39:14.000Z</time>
      </trkpt>
      <trkpt lat="45.99862" lon="4.58056">
        <ele>520</ele>
        <time>2018-08-05T08:39:15.000Z</time>
      </trkpt>
      <trkpt lat="45.99863" lon="4.5806">
        <ele>520</ele>
        <time>2018-08-05T08:39:16.000Z</time>
      </trkpt>
      <trkpt lat="45.99863" lon="4.58064">
        <ele>520</ele>
        <time>2018-08-05T08:39:17.000Z</time>
      </trkpt>
      <trkpt lat="45.99864" lon="4.58069">
        <ele>520</ele>
        <time>2018-08-05T08:39:18.000Z</time>
      </trkpt>
      <trkpt lat="45.99864" lon="4.58073">
        <ele>520</ele>
        <time>2018-08-05T08:39:19.000Z</time>
      </trkpt>
      <trkpt lat="45.99865" lon="4.58078">
        <ele>520</ele>
        <time>2018-08-05T08:39:20.000Z</time>
      </trkpt>
      <trkpt lat="45.99865" lon="4.58082">
        <ele>520</ele>
        <time>2018-08-05T08:39:21.000Z</time>
      </trkpt>
      <trkpt lat="45.99865" lon="4.58086">
        <ele>521</ele>
        <time>2018-08-05T08:39:22.000Z</time>
      </trkpt>
      <trkpt lat="45.99866" lon="4.58091">
        <ele>521</ele>
        <time>2018-08-05T08:39:23.000Z</time>
      </trkpt>
      <trkpt lat="45.99866" lon="4.58095">
        <ele>521</ele>
        <time>2018-08-05T08:39:24.000Z</time>
      </trkpt>
      <trkpt lat="45.99866" lon="4.581">
        <ele>521</ele>
        <time>2018-08-05T08:39:25.000Z</time>
      </trkpt>
      <trkpt lat="45.99867" lon="4.58105">
        <ele>521</ele>
        <time>2018-08-05T08:39:26.000Z</time>
      </trkpt>
      <trkpt lat="45.99867" lon="4.58109">
        <ele>522</ele>
        <time>2018-08-05T08:39:27.000Z</time>
      </trkpt>
      <trkpt lat="45.99868" lon="4.58114">
        <ele>522</ele>
        <time>2018-08-05T08:39:28.000Z</time>
      </trkpt>
      <trkpt lat="45.99868" lon="4.58118">
        <ele>522</ele>
        <time>2018-08-05T08:39:29.000Z</time>
      </trkpt>
      <trkpt lat="45.99869" lon="4.58122">
        <ele>522</ele>
        <time>2018-08-05T08:39:30.000Z</time>
      </trkpt>
      <trkpt lat="45.99869" lon="4.58127">
        <ele>522</ele>
        <time>2018-08-05T08:39:31.000Z</time>
      </trkpt>
      <trkpt lat="45.9987" lon="4.58131">
        <ele>522</ele>
        <time>2018-08-05T08:39:32.000Z</time>
      </trkpt>
      <trkpt lat="45.99871" lon="4.58135">
        <ele>522</ele>
        <time>2018-08-05T08:39:33.000Z</time>
      </trkpt>
      <trkpt lat="45.99872" lon="4.5814">
        <ele>522</ele>
        <time>2018-08-05T08:39:34.000Z</time>
      </trkpt>
      <trkpt lat="45.99872" lon="4.58145">
        <ele>523</ele>
        <time>2018-08-05T08:39:35.000Z</time>
      </trkpt>
      <trkpt lat="45.99873" lon="4.58149">
        <ele>523</ele>
        <time>2018-08-05T08:39:36.000Z</time>
      </trkpt>
      <trkpt lat="45.99874" lon="4.58154">
        <ele>523</ele>
        <time>2018-08-05T08:39:37.000Z</time>
      </trkpt>
      <trkpt lat="45.99875" lon="4.58159">
        <ele>523</ele>
        <time>2018-08-05T08:39:38.000Z</time>
      </trkpt>
      <trkpt lat="45.99876" lon="4.58164">
        <ele>523</ele>
        <time>2018-08-05T08:39:39.000Z</time>
      </trkpt>
      <trkpt lat="45.99876" lon="4.58168">
        <ele>527</ele>
        <time>2018-08-05T08:39:40.000Z</time>
      </trkpt>
      <trkpt lat="45.99877" lon="4.58173">
        <ele>527</ele>
        <time>2018-08-05T08:39:41.000Z</time>
      </trkpt>
      <trkpt lat="45.99879" lon="4.58177">
        <ele>527</ele>
        <time>2018-08-05T08:39:42.000Z</time>
      </trkpt>
      <trkpt lat="45.9988" lon="4.58182">
        <ele>527</ele>
        <time>2018-08-05T08:39:43.000Z</time>
      </trkpt>
      <trkpt lat="45.99881" lon="4.58186">
        <ele>527</ele>
        <time>2018-08-05T08:39:44.000Z</time>
      </trkpt>
      <trkpt lat="45.99883" lon="4.5819">
        <ele>527</ele>
        <time>2018-08-05T08:39:45.000Z</time>
      </trkpt>
      <trkpt lat="45.99885" lon="4.58194">
        <ele>527</ele>
        <time>2018-08-05T08:39:46.000Z</time>
      </trkpt>
      <trkpt lat="45.99886" lon="4.58198">
        <ele>527</ele>
        <time>2018-08-05T08:39:47.000Z</time>
      </trkpt>
      <trkpt lat="45.99888" lon="4.58202">
        <ele>527</ele>
        <time>2018-08-05T08:39:48.000Z</time>
      </trkpt>
      <trkpt lat="45.99889" lon="4.58206">
        <ele>527</ele>
        <time>2018-08-05T08:39:49.000Z</time>
      </trkpt>
      <trkpt lat="45.9989" lon="4.5821">
        <ele>527</ele>
        <time>2018-08-05T08:39:50.000Z</time>
      </trkpt>
      <trkpt lat="45.99892" lon="4.58214">
        <ele>527</ele>
        <time>2018-08-05T08:39:51.000Z</time>
      </trkpt>
      <trkpt lat="45.99893" lon="4.58218">
        <ele>527</ele>
        <time>2018-08-05T08:39:52.000Z</time>
      </trkpt>
      <trkpt lat="45.99894" lon="4.58222">
        <ele>527</ele>
        <time>2018-08-05T08:39:53.000Z</time>
      </trkpt>
      <trkpt lat="45.99896" lon="4.58226">
        <ele>527</ele>
        <time>2018-08-05T08:39:54.000Z</time>
      </trkpt>
      <trkpt lat="45.99897" lon="4.5823">
        <ele>527</ele>
        <time>2018-08-05T08:39:55.000Z</time>
      </trkpt>
      <trkpt lat="45.99898" lon="4.58234">
        <ele>527</ele>
        <time>2018-08-05T08:39:56.000Z</time>
      </trkpt>
      <trkpt lat="45.99899" lon="4.58239">
        <ele>527</ele>
        <time>2018-08-05T08:39:57.000Z</time>
      </trkpt>
      <trkpt lat="45.999" lon="4.58243">
        <ele>527</ele>
        <time>2018-08-05T08:39:58.000Z</time>
      </trkpt>
      <trkpt lat="45.999" lon="4.58248">
        <ele>527</ele>
        <time>2018-08-05T08:39:59.000Z</time>
      </trkpt>
      <trkpt lat="45.99899" lon="4.58253">
        <ele>528</ele>
        <time>2018-08-05T08:40:00.000Z</time>
      </trkpt>
      <trkpt lat="45.99899" lon="4.58257">
        <ele>528</ele>
        <time>2018-08-05T08:40:01.000Z</time>
      </trkpt>
      <trkpt lat="45.99898" lon="4.58262">
        <ele>528</ele>
        <time>2018-08-05T08:40:02.000Z</time>
      </trkpt>
      <trkpt lat="45.99897" lon="4.58266">
        <ele>528</ele>
        <time>2018-08-05T08:40:03.000Z</time>
      </trkpt>
      <trkpt lat="45.99896" lon="4.5827">
        <ele>528</ele>
        <time>2018-08-05T08:40:04.000Z</time>
      </trkpt>
      <trkpt lat="45.99895" lon="4.58274">
        <ele>529</ele>
        <time>2018-08-05T08:40:05.000Z</time>
      </trkpt>
      <trkpt lat="45.99894" lon="4.58278">
        <ele>529</ele>
        <time>2018-08-05T08:40:06.000Z</time>
      </trkpt>
      <trkpt lat="45.99892" lon="4.58282">
        <ele>529</ele>
        <time>2018-08-05T08:40:07.000Z</time>
      </trkpt>
      <trkpt lat="45.99891" lon="4.58287">
        <ele>529</ele>
        <time>2018-08-05T08:40:08.000Z</time>
      </trkpt>
      <trkpt lat="45.99889" lon="4.58291">
        <ele>529</ele>
        <time>2018-08-05T08:40:09.000Z</time>
      </trkpt>
      <trkpt lat="45.99887" lon="4.58294">
        <ele>529</ele>
        <time>2018-08-05T08:40:10.000Z</time>
      </trkpt>
      <trkpt lat="45.99884" lon="4.58298">
        <ele>529</ele>
        <time>2018-08-05T08:40:11.000Z</time>
      </trkpt>
      <trkpt lat="45.99882" lon="4.58302">
        <ele>529</ele>
        <time>2018-08-05T08:40:12.000Z</time>
      </trkpt>
      <trkpt lat="45.99879" lon="4.58306">
        <ele>529</ele>
        <time>2018-08-05T08:40:13.000Z</time>
      </trkpt>
      <trkpt lat="45.99877" lon="4.5831">
        <ele>529</ele>
        <time>2018-08-05T08:40:14.000Z</time>
      </trkpt>
      <trkpt lat="45.99874" lon="4.58314">
        <ele>529</ele>
        <time>2018-08-05T08:40:15.000Z</time>
      </trkpt>
      <trkpt lat="45.9987" lon="4.58317">
        <ele>529</ele>
        <time>2018-08-05T08:40:16.000Z</time>
      </trkpt>
      <trkpt lat="45.99867" lon="4.5832">
        <ele>529</ele>
        <time>2018-08-05T08:40:17.000Z</time>
      </trkpt>
      <trkpt lat="45.99863" lon="4.58323">
        <ele>529</ele>
        <time>2018-08-05T08:40:18.000Z</time>
      </trkpt>
      <trkpt lat="45.9986" lon="4.58326">
        <ele>529</ele>
        <time>2018-08-05T08:40:19.000Z</time>
      </trkpt>
      <trkpt lat="45.99856" lon="4.58329">
        <ele>529</ele>
        <time>2018-08-05T08:40:20.000Z</time>
      </trkpt>
      <trkpt lat="45.99852" lon="4.58331">
        <ele>529</ele>
        <time>2018-08-05T08:40:21.000Z</time>
      </trkpt>
      <trkpt lat="45.99848" lon="4.58333">
        <ele>525</ele>
        <time>2018-08-05T08:40:22.000Z</time>
      </trkpt>
      <trkpt lat="45.99844" lon="4.58336">
        <ele>526</ele>
        <time>2018-08-05T08:40:23.000Z</time>
      </trkpt>
      <trkpt lat="45.9984" lon="4.58337">
        <ele>526</ele>
        <time>2018-08-05T08:40:24.000Z</time>
      </trkpt>
      <trkpt lat="45.99835" lon="4.58339">
        <ele>527</ele>
        <time>2018-08-05T08:40:25.000Z</time>
      </trkpt>
      <trkpt lat="45.99831" lon="4.58341">
        <ele>527</ele>
        <time>2018-08-05T08:40:26.000Z</time>
      </trkpt>
      <trkpt lat="45.99827" lon="4.58344">
        <ele>527</ele>
        <time>2018-08-05T08:40:27.000Z</time>
      </trkpt>
      <trkpt lat="45.99822" lon="4.58346">
        <ele>526</ele>
        <time>2018-08-05T08:40:28.000Z</time>
      </trkpt>
      <trkpt lat="45.99818" lon="4.58348">
        <ele>526</ele>
        <time>2018-08-05T08:40:29.000Z</time>
      </trkpt>
      <trkpt lat="45.99813" lon="4.5835">
        <ele>526</ele>
        <time>2018-08-05T08:40:30.000Z</time>
      </trkpt>
      <trkpt lat="45.99808" lon="4.58352">
        <ele>526</ele>
        <time>2018-08-05T08:40:31.000Z</time>
      </trkpt>
      <trkpt lat="45.99804" lon="4.58353">
        <ele>526</ele>
        <time>2018-08-05T08:40:32.000Z</time>
      </trkpt>
      <trkpt lat="45.99799" lon="4.58355">
        <ele>526</ele>
        <time>2018-08-05T08:40:33.000Z</time>
      </trkpt>
      <trkpt lat="45.99795" lon="4.58357">
        <ele>526</ele>
        <time>2018-08-05T08:40:34.000Z</time>
      </trkpt>
      <trkpt lat="45.9979" lon="4.58358">
        <ele>526</ele>
        <time>2018-08-05T08:40:35.000Z</time>
      </trkpt>
      <trkpt lat="45.99786" lon="4.5836">
        <ele>526</ele>
        <time>2018-08-05T08:40:36.000Z</time>
      </trkpt>
      <trkpt lat="45.99781" lon="4.58361">
        <ele>526</ele>
        <time>2018-08-05T08:40:37.000Z</time>
      </trkpt>
      <trkpt lat="45.99776" lon="4.58363">
        <ele>526</ele>
        <time>2018-08-05T08:40:38.000Z</time>
      </trkpt>
      <trkpt lat="45.99772" lon="4.58365">
        <ele>526</ele>
        <time>2018-08-05T08:40:39.000Z</time>
      </trkpt>
      <trkpt lat="45.99767" lon="4.58366">
        <ele>527</ele>
        <time>2018-08-05T08:40:40.000Z</time>
      </trkpt>
      <trkpt lat="45.99763" lon="4.58367">
        <ele>527</ele>
        <time>2018-08-05T08:40:41.000Z</time>
      </trkpt>
      <trkpt lat="45.99758" lon="4.58368">
        <ele>527</ele>
        <time>2018-08-05T08:40:42.000Z</time>
      </trkpt>
      <trkpt lat="45.99753" lon="4.58369">
        <ele>527</ele>
        <time>2018-08-05T08:40:43.000Z</time>
      </trkpt>
      <trkpt lat="45.99749" lon="4.5837">
        <ele>533</ele>
        <time>2018-08-05T08:40:44.000Z</time>
      </trkpt>
      <trkpt lat="45.99744" lon="4.58371">
        <ele>533</ele>
        <time>2018-08-05T08:40:45.000Z</time>
      </trkpt>
      <trkpt lat="45.99739" lon="4.58372">
        <ele>533</ele>
        <time>2018-08-05T08:40:46.000Z</time>
      </trkpt>
      <trkpt lat="45.99734" lon="4.58373">
        <ele>533</ele>
        <time>2018-08-05T08:40:47.000Z</time>
      </trkpt>
      <trkpt lat="45.99728" lon="4.58376">
        <ele>532</ele>
        <time>2018-08-05T08:40:48.000Z</time>
      </trkpt>
      <trkpt lat="45.99723" lon="4.58378">
        <ele>532</ele>
        <time>2018-08-05T08:40:49.000Z</time>
      </trkpt>
      <trkpt lat="45.99718" lon="4.58381">
        <ele>532</ele>
        <time>2018-08-05T08:40:50.000Z</time>
      </trkpt>
      <trkpt lat="45.99713" lon="4.58385">
        <ele>532</ele>
        <time>2018-08-05T08:40:51.000Z</time>
      </trkpt>
      <trkpt lat="45.99708" lon="4.58389">
        <ele>532</ele>
        <time>2018-08-05T08:40:52.000Z</time>
      </trkpt>
      <trkpt lat="45.99702" lon="4.58393">
        <ele>531</ele>
        <time>2018-08-05T08:40:53.000Z</time>
      </trkpt>
      <trkpt lat="45.99697" lon="4.58396">
        <ele>531</ele>
        <time>2018-08-05T08:40:54.000Z</time>
      </trkpt>
      <trkpt lat="45.99691" lon="4.584">
        <ele>530</ele>
        <time>2018-08-05T08:40:55.000Z</time>
      </trkpt>
      <trkpt lat="45.99684" lon="4.58402">
        <ele>530</ele>
        <time>2018-08-05T08:40:56.000Z</time>
      </trkpt>
      <trkpt lat="45.99678" lon="4.58404">
        <ele>529</ele>
        <time>2018-08-05T08:40:57.000Z</time>
      </trkpt>
      <trkpt lat="45.99672" lon="4.58406">
        <ele>528</ele>
        <time>2018-08-05T08:40:58.000Z</time>
      </trkpt>
      <trkpt lat="45.99665" lon="4.58407">
        <ele>531</ele>
        <time>2018-08-05T08:40:59.000Z</time>
      </trkpt>
      <trkpt lat="45.99659" lon="4.58407">
        <ele>532</ele>
        <time>2018-08-05T08:41:00.000Z</time>
      </trkpt>
      <trkpt lat="45.99652" lon="4.58407">
        <ele>534</ele>
        <time>2018-08-05T08:41:01.000Z</time>
      </trkpt>
      <trkpt lat="45.99646" lon="4.58408">
        <ele>536</ele>
        <time>2018-08-05T08:41:02.000Z</time>
      </trkpt>
      <trkpt lat="45.9964" lon="4.5841">
        <ele>537</ele>
        <time>2018-08-05T08:41:03.000Z</time>
      </trkpt>
      <trkpt lat="45.99635" lon="4.58413">
        <ele>538</ele>
        <time>2018-08-05T08:41:04.000Z</time>
      </trkpt>
      <trkpt lat="45.99629" lon="4.58416">
        <ele>538</ele>
        <time>2018-08-05T08:41:05.000Z</time>
      </trkpt>
      <trkpt lat="45.99624" lon="4.5842">
        <ele>524</ele>
        <time>2018-08-05T08:41:06.000Z</time>
      </trkpt>
      <trkpt lat="45.99619" lon="4.58424">
        <ele>524</ele>
        <time>2018-08-05T08:41:07.000Z</time>
      </trkpt>
      <trkpt lat="45.99615" lon="4.58428">
        <ele>524</ele>
        <time>2018-08-05T08:41:08.000Z</time>
      </trkpt>
      <trkpt lat="45.99609" lon="4.5843">
        <ele>525</ele>
        <time>2018-08-05T08:41:09.000Z</time>
      </trkpt>
      <trkpt lat="45.99604" lon="4.58432">
        <ele>525</ele>
        <time>2018-08-05T08:41:10.000Z</time>
      </trkpt>
      <trkpt lat="45.99598" lon="4.58433">
        <ele>526</ele>
        <time>2018-08-05T08:41:11.000Z</time>
      </trkpt>
      <trkpt lat="45.99592" lon="4.58433">
        <ele>527</ele>
        <time>2018-08-05T08:41:12.000Z</time>
      </trkpt>
      <trkpt lat="45.99587" lon="4.58433">
        <ele>528</ele>
        <time>2018-08-05T08:41:13.000Z</time>
      </trkpt>
      <trkpt lat="45.99582" lon="4.58432">
        <ele>533</ele>
        <time>2018-08-05T08:41:14.000Z</time>
      </trkpt>
      <trkpt lat="45.99578" lon="4.58431">
        <ele>533</ele>
        <time>2018-08-05T08:41:15.000Z</time>
      </trkpt>
      <trkpt lat="45.99573" lon="4.5843">
        <ele>533</ele>
        <time>2018-08-05T08:41:16.000Z</time>
      </trkpt>
      <trkpt lat="45.99568" lon="4.5843">
        <ele>533</ele>
        <time>2018-08-05T08:41:17.000Z</time>
      </trkpt>
      <trkpt lat="45.99563" lon="4.58429">
        <ele>533</ele>
        <time>2018-08-05T08:41:18.000Z</time>
      </trkpt>
      <trkpt lat="45.99559" lon="4.58428">
        <ele>533</ele>
        <time>2018-08-05T08:41:19.000Z</time>
      </trkpt>
      <trkpt lat="45.99556" lon="4.58427">
        <ele>533</ele>
        <time>2018-08-05T08:41:20.000Z</time>
      </trkpt>
      <trkpt lat="45.99552" lon="4.58425">
        <ele>534</ele>
        <time>2018-08-05T08:41:21.000Z</time>
      </trkpt>
      <trkpt lat="45.99548" lon="4.58424">
        <ele>534</ele>
        <time>2018-08-05T08:41:22.000Z</time>
      </trkpt>
      <trkpt lat="45.99543" lon="4.58425">
        <ele>534</ele>
        <time>2018-08-05T08:41:23.000Z</time>
      </trkpt>
      <trkpt lat="45.99537" lon="4.58428">
        <ele>534</ele>
        <time>2018-08-05T08:41:24.000Z</time>
      </trkpt>
      <trkpt lat="45.99533" lon="4.58434">
        <ele>534</ele>
        <time>2018-08-05T08:41:25.000Z</time>
      </trkpt>
      <trkpt lat="45.99529" lon="4.5844">
        <ele>534</ele>
        <time>2018-08-05T08:41:26.000Z</time>
      </trkpt>
      <trkpt lat="45.99526" lon="4.58447">
        <ele>534</ele>
        <time>2018-08-05T08:41:27.000Z</time>
      </trkpt>
      <trkpt lat="45.99524" lon="4.58453">
        <ele>533</ele>
        <time>2018-08-05T08:41:28.000Z</time>
      </trkpt>
      <trkpt lat="45.99523" lon="4.5846">
        <ele>533</ele>
        <time>2018-08-05T08:41:29.000Z</time>
      </trkpt>
      <trkpt lat="45.99522" lon="4.58466">
        <ele>532</ele>
        <time>2018-08-05T08:41:30.000Z</time>
      </trkpt>
      <trkpt lat="45.99521" lon="4.58471">
        <ele>532</ele>
        <time>2018-08-05T08:41:31.000Z</time>
      </trkpt>
      <trkpt lat="45.99519" lon="4.58476">
        <ele>531</ele>
        <time>2018-08-05T08:41:32.000Z</time>
      </trkpt>
      <trkpt lat="45.99517" lon="4.58481">
        <ele>531</ele>
        <time>2018-08-05T08:41:33.000Z</time>
      </trkpt>
      <trkpt lat="45.99515" lon="4.58485">
        <ele>531</ele>
        <time>2018-08-05T08:41:34.000Z</time>
      </trkpt>
      <trkpt lat="45.99512" lon="4.58488">
        <ele>531</ele>
        <time>2018-08-05T08:41:35.000Z</time>
      </trkpt>
      <trkpt lat="45.99511" lon="4.5849">
        <ele>531</ele>
        <time>2018-08-05T08:41:36.000Z</time>
      </trkpt>
      <trkpt lat="45.99508" lon="4.58492">
        <ele>530</ele>
        <time>2018-08-05T08:41:37.000Z</time>
      </trkpt>
      <trkpt lat="45.99506" lon="4.58494">
        <ele>530</ele>
        <time>2018-08-05T08:41:38.000Z</time>
      </trkpt>
      <trkpt lat="45.99503" lon="4.58495">
        <ele>530</ele>
        <time>2018-08-05T08:41:39.000Z</time>
      </trkpt>
      <trkpt lat="45.995" lon="4.58497">
        <ele>531</ele>
        <time>2018-08-05T08:41:40.000Z</time>
      </trkpt>
      <trkpt lat="45.99496" lon="4.58499">
        <ele>532</ele>
        <time>2018-08-05T08:41:41.000Z</time>
      </trkpt>
      <trkpt lat="45.99493" lon="4.58501">
        <ele>531</ele>
        <time>2018-08-05T08:41:42.000Z</time>
      </trkpt>
      <trkpt lat="45.99489" lon="4.58503">
        <ele>532</ele>
        <time>2018-08-05T08:41:43.000Z</time>
      </trkpt>
      <trkpt lat="45.99486" lon="4.58505">
        <ele>532</ele>
        <time>2018-08-05T08:41:44.000Z</time>
      </trkpt>
      <trkpt lat="45.99482" lon="4.58507">
        <ele>532</ele>
        <time>2018-08-05T08:41:45.000Z</time>
      </trkpt>
      <trkpt lat="45.99479" lon="4.58509">
        <ele>533</ele>
        <time>2018-08-05T08:41:46.000Z</time>
      </trkpt>
      <trkpt lat="45.99476" lon="4.58511">
        <ele>533</ele>
        <time>2018-08-05T08:41:47.000Z</time>
      </trkpt>
      <trkpt lat="45.99473" lon="4.58513">
        <ele>533</ele>
        <time>2018-08-05T08:41:48.000Z</time>
      </trkpt>
      <trkpt lat="45.99471" lon="4.58515">
        <ele>533</ele>
        <time>2018-08-05T08:41:49.000Z</time>
      </trkpt>
      <trkpt lat="45.99468" lon="4.58516">
        <ele>533</ele>
        <time>2018-08-05T08:41:50.000Z</time>
      </trkpt>
      <trkpt lat="45.99465" lon="4.58517">
        <ele>534</ele>
        <time>2018-08-05T08:41:51.000Z</time>
      </trkpt>
      <trkpt lat="45.99462" lon="4.58519">
        <ele>534</ele>
        <time>2018-08-05T08:41:52.000Z</time>
      </trkpt>
      <trkpt lat="45.9946" lon="4.58521">
        <ele>534</ele>
        <time>2018-08-05T08:41:53.000Z</time>
      </trkpt>
      <trkpt lat="45.99457" lon="4.58523">
        <ele>534</ele>
        <time>2018-08-05T08:41:54.000Z</time>
      </trkpt>
      <trkpt lat="45.99454" lon="4.58525">
        <ele>534</ele>
        <time>2018-08-05T08:41:55.000Z</time>
      </trkpt>
      <trkpt lat="45.99451" lon="4.58527">
        <ele>534</ele>
        <time>2018-08-05T08:41:56.000Z</time>
      </trkpt>
      <trkpt lat="45.99448" lon="4.5853">
        <ele>534</ele>
        <time>2018-08-05T08:41:57.000Z</time>
      </trkpt>
      <trkpt lat="45.99445" lon="4.58532">
        <ele>535</ele>
        <time>2018-08-05T08:41:58.000Z</time>
      </trkpt>
      <trkpt lat="45.99442" lon="4.58534">
        <ele>535</ele>
        <time>2018-08-05T08:41:59.000Z</time>
      </trkpt>
      <trkpt lat="45.99439" lon="4.58536">
        <ele>535</ele>
        <time>2018-08-05T08:42:00.000Z</time>
      </trkpt>
      <trkpt lat="45.99436" lon="4.58538">
        <ele>535</ele>
        <time>2018-08-05T08:42:01.000Z</time>
      </trkpt>
      <trkpt lat="45.99433" lon="4.58541">
        <ele>535</ele>
        <time>2018-08-05T08:42:02.000Z</time>
      </trkpt>
      <trkpt lat="45.9943" lon="4.58543">
        <ele>535</ele>
        <time>2018-08-05T08:42:03.000Z</time>
      </trkpt>
      <trkpt lat="45.99427" lon="4.58545">
        <ele>534</ele>
        <time>2018-08-05T08:42:04.000Z</time>
      </trkpt>
      <trkpt lat="45.99423" lon="4.58547">
        <ele>534</ele>
        <time>2018-08-05T08:42:05.000Z</time>
      </trkpt>
      <trkpt lat="45.9942" lon="4.58549">
        <ele>534</ele>
        <time>2018-08-05T08:42:06.000Z</time>
      </trkpt>
      <trkpt lat="45.99417" lon="4.5855">
        <ele>534</ele>
        <time>2018-08-05T08:42:07.000Z</time>
      </trkpt>
      <trkpt lat="45.99414" lon="4.58552">
        <ele>537</ele>
        <time>2018-08-05T08:42:08.000Z</time>
      </trkpt>
      <trkpt lat="45.99411" lon="4.58554">
        <ele>537</ele>
        <time>2018-08-05T08:42:09.000Z</time>
      </trkpt>
      <trkpt lat="45.99409" lon="4.58556">
        <ele>537</ele>
        <time>2018-08-05T08:42:10.000Z</time>
      </trkpt>
      <trkpt lat="45.99406" lon="4.58557">
        <ele>537</ele>
        <time>2018-08-05T08:42:11.000Z</time>
      </trkpt>
      <trkpt lat="45.99404" lon="4.5856">
        <ele>537</ele>
        <time>2018-08-05T08:42:12.000Z</time>
      </trkpt>
      <trkpt lat="45.99401" lon="4.58562">
        <ele>537</ele>
        <time>2018-08-05T08:42:13.000Z</time>
      </trkpt>
      <trkpt lat="45.99399" lon="4.58564">
        <ele>537</ele>
        <time>2018-08-05T08:42:14.000Z</time>
      </trkpt>
      <trkpt lat="45.99396" lon="4.58566">
        <ele>537</ele>
        <time>2018-08-05T08:42:15.000Z</time>
      </trkpt>
      <trkpt lat="45.99393" lon="4.58568">
        <ele>537</ele>
        <time>2018-08-05T08:42:16.000Z</time>
      </trkpt>
      <trkpt lat="45.99391" lon="4.5857">
        <ele>537</ele>
        <time>2018-08-05T08:42:17.000Z</time>
      </trkpt>
      <trkpt lat="45.99388" lon="4.58573">
        <ele>537</ele>
        <time>2018-08-05T08:42:18.000Z</time>
      </trkpt>
      <trkpt lat="45.99385" lon="4.58575">
        <ele>537</ele>
        <time>2018-08-05T08:42:19.000Z</time>
      </trkpt>
      <trkpt lat="45.99382" lon="4.58578">
        <ele>537</ele>
        <time>2018-08-05T08:42:20.000Z</time>
      </trkpt>
      <trkpt lat="45.99379" lon="4.58581">
        <ele>537</ele>
        <time>2018-08-05T08:42:21.000Z</time>
      </trkpt>
      <trkpt lat="45.99377" lon="4.58584">
        <ele>537</ele>
        <time>2018-08-05T08:42:22.000Z</time>
      </trkpt>
      <trkpt lat="45.99375" lon="4.58588">
        <ele>537</ele>
        <time>2018-08-05T08:42:23.000Z</time>
      </trkpt>
      <trkpt lat="45.99372" lon="4.58591">
        <ele>538</ele>
        <time>2018-08-05T08:42:24.000Z</time>
      </trkpt>
      <trkpt lat="45.99369" lon="4.58594">
        <ele>538</ele>
        <time>2018-08-05T08:42:25.000Z</time>
      </trkpt>
      <trkpt lat="45.99367" lon="4.58597">
        <ele>538</ele>
        <time>2018-08-05T08:42:26.000Z</time>
      </trkpt>
      <trkpt lat="45.99364" lon="4.58601">
        <ele>538</ele>
        <time>2018-08-05T08:42:27.000Z</time>
      </trkpt>
      <trkpt lat="45.99362" lon="4.58604">
        <ele>538</ele>
        <time>2018-08-05T08:42:28.000Z</time>
      </trkpt>
      <trkpt lat="45.99359" lon="4.58608">
        <ele>538</ele>
        <time>2018-08-05T08:42:29.000Z</time>
      </trkpt>
      <trkpt lat="45.99356" lon="4.58612">
        <ele>538</ele>
        <time>2018-08-05T08:42:30.000Z</time>
      </trkpt>
      <trkpt lat="45.99354" lon="4.58616">
        <ele>538</ele>
        <time>2018-08-05T08:42:31.000Z</time>
      </trkpt>
      <trkpt lat="45.99351" lon="4.5862">
        <ele>538</ele>
        <time>2018-08-05T08:42:32.000Z</time>
      </trkpt>
      <trkpt lat="45.99348" lon="4.58623">
        <ele>538</ele>
        <time>2018-08-05T08:42:33.000Z</time>
      </trkpt>
      <trkpt lat="45.99346" lon="4.58627">
        <ele>538</ele>
        <time>2018-08-05T08:42:34.000Z</time>
      </trkpt>
      <trkpt lat="45.99343" lon="4.5863">
        <ele>539</ele>
        <time>2018-08-05T08:42:35.000Z</time>
      </trkpt>
      <trkpt lat="45.99341" lon="4.58633">
        <ele>539</ele>
        <time>2018-08-05T08:42:36.000Z</time>
      </trkpt>
      <trkpt lat="45.99339" lon="4.58637">
        <ele>539</ele>
        <time>2018-08-05T08:42:37.000Z</time>
      </trkpt>
      <trkpt lat="45.99337" lon="4.58639">
        <ele>539</ele>
        <time>2018-08-05T08:42:38.000Z</time>
      </trkpt>
      <trkpt lat="45.99335" lon="4.58642">
        <ele>539</ele>
        <time>2018-08-05T08:42:39.000Z</time>
      </trkpt>
      <trkpt lat="45.99334" lon="4.58645">
        <ele>539</ele>
        <time>2018-08-05T08:42:40.000Z</time>
      </trkpt>
      <trkpt lat="45.99332" lon="4.58647">
        <ele>536</ele>
        <time>2018-08-05T08:42:41.000Z</time>
      </trkpt>
      <trkpt lat="45.99331" lon="4.58649">
        <ele>536</ele>
        <time>2018-08-05T08:42:42.000Z</time>
      </trkpt>
      <trkpt lat="45.9933" lon="4.58651">
        <ele>536</ele>
        <time>2018-08-05T08:42:43.000Z</time>
      </trkpt>
      <trkpt lat="45.99329" lon="4.58653">
        <ele>536</ele>
        <time>2018-08-05T08:42:44.000Z</time>
      </trkpt>
      <trkpt lat="45.99327" lon="4.58654">
        <ele>536</ele>
        <time>2018-08-05T08:42:45.000Z</time>
      </trkpt>
      <trkpt lat="45.99326" lon="4.58656">
        <ele>537</ele>
        <time>2018-08-05T08:42:46.000Z</time>
      </trkpt>
      <trkpt lat="45.99325" lon="4.58659">
        <ele>537</ele>
        <time>2018-08-05T08:42:47.000Z</time>
      </trkpt>
      <trkpt lat="45.99323" lon="4.58661">
        <ele>537</ele>
        <time>2018-08-05T08:42:48.000Z</time>
      </trkpt>
      <trkpt lat="45.99322" lon="4.58663">
        <ele>537</ele>
        <time>2018-08-05T08:42:49.000Z</time>
      </trkpt>
      <trkpt lat="45.99321" lon="4.58665">
        <ele>536</ele>
        <time>2018-08-05T08:42:50.000Z</time>
      </trkpt>
      <trkpt lat="45.99319" lon="4.58667">
        <ele>536</ele>
        <time>2018-08-05T08:42:51.000Z</time>
      </trkpt>
      <trkpt lat="45.99318" lon="4.58669">
        <ele>536</ele>
        <time>2018-08-05T08:42:52.000Z</time>
      </trkpt>
      <trkpt lat="45.99316" lon="4.58672">
        <ele>536</ele>
        <time>2018-08-05T08:42:53.000Z</time>
      </trkpt>
      <trkpt lat="45.99315" lon="4.58675">
        <ele>535</ele>
        <time>2018-08-05T08:42:54.000Z</time>
      </trkpt>
      <trkpt lat="45.99313" lon="4.58678">
        <ele>535</ele>
        <time>2018-08-05T08:42:55.000Z</time>
      </trkpt>
      <trkpt lat="45.99311" lon="4.58682">
        <ele>535</ele>
        <time>2018-08-05T08:42:56.000Z</time>
      </trkpt>
      <trkpt lat="45.99309" lon="4.58686">
        <ele>534</ele>
        <time>2018-08-05T08:42:57.000Z</time>
      </trkpt>
      <trkpt lat="45.99307" lon="4.5869">
        <ele>534</ele>
        <time>2018-08-05T08:42:58.000Z</time>
      </trkpt>
      <trkpt lat="45.99305" lon="4.58696">
        <ele>534</ele>
        <time>2018-08-05T08:42:59.000Z</time>
      </trkpt>
      <trkpt lat="45.99304" lon="4.58702">
        <ele>534</ele>
        <time>2018-08-05T08:43:00.000Z</time>
      </trkpt>
      <trkpt lat="45.99303" lon="4.58706">
        <ele>534</ele>
        <time>2018-08-05T08:43:01.000Z</time>
      </trkpt>
      <trkpt lat="45.99302" lon="4.5871">
        <ele>534</ele>
        <time>2018-08-05T08:43:02.000Z</time>
      </trkpt>
      <trkpt lat="45.99301" lon="4.58714">
        <ele>534</ele>
        <time>2018-08-05T08:43:03.000Z</time>
      </trkpt>
      <trkpt lat="45.993" lon="4.58716">
        <ele>534</ele>
        <time>2018-08-05T08:43:04.000Z</time>
      </trkpt>
      <trkpt lat="45.99299" lon="4.58717">
        <ele>534</ele>
        <time>2018-08-05T08:43:05.000Z</time>
      </trkpt>
      <trkpt lat="45.99299" lon="4.58719">
        <ele>534</ele>
        <time>2018-08-05T08:43:06.000Z</time>
      </trkpt>
      <trkpt lat="45.99298" lon="4.58719">
        <ele>534</ele>
        <time>2018-08-05T08:43:07.000Z</time>
      </trkpt>
      <trkpt lat="45.99297" lon="4.5872">
        <ele>534</ele>
        <time>2018-08-05T08:43:08.000Z</time>
      </trkpt>
      <trkpt lat="45.99296" lon="4.5872">
        <ele>533</ele>
        <time>2018-08-05T08:43:09.000Z</time>
      </trkpt>
      <trkpt lat="45.99296" lon="4.5872">
        <ele>533</ele>
        <time>2018-08-05T08:43:10.000Z</time>
      </trkpt>
      <trkpt lat="45.99296" lon="4.5872">
        <ele>533</ele>
        <time>2018-08-05T08:43:11.000Z</time>
      </trkpt>
      <trkpt lat="45.99296" lon="4.5872">
        <ele>533</ele>
        <time>2018-08-05T08:43:12.000Z</time>
      </trkpt>
      <trkpt lat="45.99296" lon="4.5872">
        <ele>533</ele>
        <time>2018-08-05T08:43:13.000Z</time>
      </trkpt>
      <trkpt lat="45.99296" lon="4.5872">
        <ele>533</ele>
        <time>2018-08-05T08:43:14.000Z</time>
      </trkpt>
      <trkpt lat="45.99296" lon="4.5872">
        <ele>533</ele>
        <time>2018-08-05T08:43:15.000Z</time>
      </trkpt>
      <trkpt lat="45.99296" lon="4.5872">
        <ele>533</ele>
        <time>2018-08-05T08:43:16.000Z</time>
      </trkpt>
      <trkpt lat="45.99296" lon="4.5872">
        <ele>533</ele>
        <time>2018-08-05T08:43:17.000Z</time>
      </trkpt>
      <trkpt lat="45.99296" lon="4.5872">
        <ele>533</ele>
        <time>2018-08-05T08:43:18.000Z</time>
      </trkpt>
      <trkpt lat="45.99296" lon="4.5872">
        <ele>533</ele>
        <time>2018-08-05T08:43:19.000Z</time>
      </trkpt>
      <trkpt lat="45.99297" lon="4.5873">
        <ele>534</ele>
        <time>2018-08-05T08:43:47.000Z</time>
      </trkpt>
      <trkpt lat="45.99297" lon="4.58734">
        <ele>534</ele>
        <time>2018-08-05T08:43:48.000Z</time>
      </trkpt>
      <trkpt lat="45.99297" lon="4.58737">
        <ele>534</ele>
        <time>2018-08-05T08:43:49.000Z</time>
      </trkpt>
      <trkpt lat="45.99296" lon="4.58742">
        <ele>534</ele>
        <time>2018-08-05T08:43:50.000Z</time>
      </trkpt>
      <trkpt lat="45.99295" lon="4.58747">
        <ele>534</ele>
        <time>2018-08-05T08:43:51.000Z</time>
      </trkpt>
      <trkpt lat="45.99295" lon="4.58752">
        <ele>535</ele>
        <time>2018-08-05T08:43:52.000Z</time>
      </trkpt>
      <trkpt lat="45.99295" lon="4.58758">
        <ele>535</ele>
        <time>2018-08-05T08:43:53.000Z</time>
      </trkpt>
      <trkpt lat="45.99295" lon="4.58764">
        <ele>535</ele>
        <time>2018-08-05T08:43:54.000Z</time>
      </trkpt>
      <trkpt lat="45.99294" lon="4.5877">
        <ele>535</ele>
        <time>2018-08-05T08:43:55.000Z</time>
      </trkpt>
      <trkpt lat="45.99294" lon="4.58777">
        <ele>535</ele>
        <time>2018-08-05T08:43:56.000Z</time>
      </trkpt>
      <trkpt lat="45.99293" lon="4.58783">
        <ele>535</ele>
        <time>2018-08-05T08:43:57.000Z</time>
      </trkpt>
      <trkpt lat="45.99292" lon="4.58789">
        <ele>535</ele>
        <time>2018-08-05T08:43:58.000Z</time>
      </trkpt>
      <trkpt lat="45.9929" lon="4.58795">
        <ele>535</ele>
        <time>2018-08-05T08:43:59.000Z</time>
      </trkpt>
      <trkpt lat="45.99288" lon="4.58801">
        <ele>535</ele>
        <time>2018-08-05T08:44:00.000Z</time>
      </trkpt>
      <trkpt lat="45.99286" lon="4.58806">
        <ele>534</ele>
        <time>2018-08-05T08:44:01.000Z</time>
      </trkpt>
      <trkpt lat="45.99284" lon="4.58811">
        <ele>534</ele>
        <time>2018-08-05T08:44:02.000Z</time>
      </trkpt>
      <trkpt lat="45.99282" lon="4.58816">
        <ele>534</ele>
        <time>2018-08-05T08:44:03.000Z</time>
      </trkpt>
      <trkpt lat="45.9928" lon="4.58821">
        <ele>534</ele>
        <time>2018-08-05T08:44:04.000Z</time>
      </trkpt>
      <trkpt lat="45.99277" lon="4.58826">
        <ele>533</ele>
        <time>2018-08-05T08:44:05.000Z</time>
      </trkpt>
      <trkpt lat="45.99275" lon="4.58832">
        <ele>533</ele>
        <time>2018-08-05T08:44:06.000Z</time>
      </trkpt>
      <trkpt lat="45.99273" lon="4.58837">
        <ele>534</ele>
        <time>2018-08-05T08:44:07.000Z</time>
      </trkpt>
      <trkpt lat="45.9927" lon="4.58841">
        <ele>534</ele>
        <time>2018-08-05T08:44:08.000Z</time>
      </trkpt>
      <trkpt lat="45.99268" lon="4.58846">
        <ele>534</ele>
        <time>2018-08-05T08:44:09.000Z</time>
      </trkpt>
      <trkpt lat="45.99266" lon="4.5885">
        <ele>534</ele>
        <time>2018-08-05T08:44:10.000Z</time>
      </trkpt>
      <trkpt lat="45.99263" lon="4.58855">
        <ele>534</ele>
        <time>2018-08-05T08:44:11.000Z</time>
      </trkpt>
      <trkpt lat="45.99261" lon="4.58858">
        <ele>534</ele>
        <time>2018-08-05T08:44:12.000Z</time>
      </trkpt>
      <trkpt lat="45.99258" lon="4.58862">
        <ele>534</ele>
        <time>2018-08-05T08:44:13.000Z</time>
      </trkpt>
      <trkpt lat="45.99256" lon="4.58867">
        <ele>534</ele>
        <time>2018-08-05T08:44:14.000Z</time>
      </trkpt>
      <trkpt lat="45.99253" lon="4.58871">
        <ele>534</ele>
        <time>2018-08-05T08:44:15.000Z</time>
      </trkpt>
      <trkpt lat="45.99251" lon="4.58875">
        <ele>534</ele>
        <time>2018-08-05T08:44:16.000Z</time>
      </trkpt>
      <trkpt lat="45.99249" lon="4.5888">
        <ele>526</ele>
        <time>2018-08-05T08:44:17.000Z</time>
      </trkpt>
      <trkpt lat="45.99247" lon="4.58885">
        <ele>527</ele>
        <time>2018-08-05T08:44:18.000Z</time>
      </trkpt>
      <trkpt lat="45.99244" lon="4.58891">
        <ele>527</ele>
        <time>2018-08-05T08:44:19.000Z</time>
      </trkpt>
      <trkpt lat="45.99242" lon="4.58897">
        <ele>527</ele>
        <time>2018-08-05T08:44:20.000Z</time>
      </trkpt>
      <trkpt lat="45.9924" lon="4.58903">
        <ele>528</ele>
        <time>2018-08-05T08:44:21.000Z</time>
      </trkpt>
      <trkpt lat="45.99237" lon="4.5891">
        <ele>528</ele>
        <time>2018-08-05T08:44:22.000Z</time>
      </trkpt>
      <trkpt lat="45.99235" lon="4.58918">
        <ele>529</ele>
        <time>2018-08-05T08:44:23.000Z</time>
      </trkpt>
      <trkpt lat="45.99232" lon="4.58926">
        <ele>528</ele>
        <time>2018-08-05T08:44:24.000Z</time>
      </trkpt>
      <trkpt lat="45.9923" lon="4.58935">
        <ele>527</ele>
        <time>2018-08-05T08:44:25.000Z</time>
      </trkpt>
      <trkpt lat="45.99227" lon="4.58944">
        <ele>527</ele>
        <time>2018-08-05T08:44:26.000Z</time>
      </trkpt>
      <trkpt lat="45.99224" lon="4.58954">
        <ele>526</ele>
        <time>2018-08-05T08:44:27.000Z</time>
      </trkpt>
      <trkpt lat="45.9922" lon="4.58964">
        <ele>526</ele>
        <time>2018-08-05T08:44:28.000Z</time>
      </trkpt>
      <trkpt lat="45.99217" lon="4.58973">
        <ele>526</ele>
        <time>2018-08-05T08:44:29.000Z</time>
      </trkpt>
      <trkpt lat="45.99214" lon="4.58984">
        <ele>526</ele>
        <time>2018-08-05T08:44:30.000Z</time>
      </trkpt>
      <trkpt lat="45.99211" lon="4.58995">
        <ele>526</ele>
        <time>2018-08-05T08:44:31.000Z</time>
      </trkpt>
      <trkpt lat="45.99207" lon="4.59006">
        <ele>525</ele>
        <time>2018-08-05T08:44:32.000Z</time>
      </trkpt>
      <trkpt lat="45.99204" lon="4.59018">
        <ele>524</ele>
        <time>2018-08-05T08:44:33.000Z</time>
      </trkpt>
      <trkpt lat="45.99201" lon="4.59031">
        <ele>524</ele>
        <time>2018-08-05T08:44:34.000Z</time>
      </trkpt>
      <trkpt lat="45.99198" lon="4.59045">
        <ele>523</ele>
        <time>2018-08-05T08:44:35.000Z</time>
      </trkpt>
      <trkpt lat="45.99195" lon="4.59059">
        <ele>523</ele>
        <time>2018-08-05T08:44:36.000Z</time>
      </trkpt>
      <trkpt lat="45.99192" lon="4.59074">
        <ele>522</ele>
        <time>2018-08-05T08:44:37.000Z</time>
      </trkpt>
      <trkpt lat="45.99191" lon="4.59089">
        <ele>521</ele>
        <time>2018-08-05T08:44:38.000Z</time>
      </trkpt>
      <trkpt lat="45.99189" lon="4.59105">
        <ele>521</ele>
        <time>2018-08-05T08:44:39.000Z</time>
      </trkpt>
      <trkpt lat="45.99189" lon="4.5912">
        <ele>521</ele>
        <time>2018-08-05T08:44:40.000Z</time>
      </trkpt>
      <trkpt lat="45.99188" lon="4.59136">
        <ele>521</ele>
        <time>2018-08-05T08:44:41.000Z</time>
      </trkpt>
      <trkpt lat="45.99187" lon="4.59151">
        <ele>520</ele>
        <time>2018-08-05T08:44:42.000Z</time>
      </trkpt>
      <trkpt lat="45.99187" lon="4.59166">
        <ele>520</ele>
        <time>2018-08-05T08:44:43.000Z</time>
      </trkpt>
      <trkpt lat="45.99186" lon="4.5918">
        <ele>519</ele>
        <time>2018-08-05T08:44:44.000Z</time>
      </trkpt>
      <trkpt lat="45.99185" lon="4.59194">
        <ele>519</ele>
        <time>2018-08-05T08:44:45.000Z</time>
      </trkpt>
      <trkpt lat="45.99184" lon="4.59206">
        <ele>519</ele>
        <time>2018-08-05T08:44:46.000Z</time>
      </trkpt>
      <trkpt lat="45.99183" lon="4.59218">
        <ele>519</ele>
        <time>2018-08-05T08:44:47.000Z</time>
      </trkpt>
      <trkpt lat="45.99182" lon="4.59229">
        <ele>519</ele>
        <time>2018-08-05T08:44:48.000Z</time>
      </trkpt>
      <trkpt lat="45.99181" lon="4.59239">
        <ele>518</ele>
        <time>2018-08-05T08:44:49.000Z</time>
      </trkpt>
      <trkpt lat="45.9918" lon="4.59249">
        <ele>518</ele>
        <time>2018-08-05T08:44:50.000Z</time>
      </trkpt>
      <trkpt lat="45.99178" lon="4.59259">
        <ele>518</ele>
        <time>2018-08-05T08:44:51.000Z</time>
      </trkpt>
      <trkpt lat="45.99175" lon="4.59269">
        <ele>518</ele>
        <time>2018-08-05T08:44:52.000Z</time>
      </trkpt>
      <trkpt lat="45.99173" lon="4.59278">
        <ele>518</ele>
        <time>2018-08-05T08:44:53.000Z</time>
      </trkpt>
      <trkpt lat="45.9917" lon="4.59287">
        <ele>519</ele>
        <time>2018-08-05T08:44:54.000Z</time>
      </trkpt>
      <trkpt lat="45.99168" lon="4.59296">
        <ele>519</ele>
        <time>2018-08-05T08:44:55.000Z</time>
      </trkpt>
      <trkpt lat="45.99164" lon="4.59303">
        <ele>516</ele>
        <time>2018-08-05T08:44:56.000Z</time>
      </trkpt>
      <trkpt lat="45.99161" lon="4.5931">
        <ele>516</ele>
        <time>2018-08-05T08:44:57.000Z</time>
      </trkpt>
      <trkpt lat="45.99157" lon="4.59317">
        <ele>516</ele>
        <time>2018-08-05T08:44:58.000Z</time>
      </trkpt>
      <trkpt lat="45.99153" lon="4.59323">
        <ele>516</ele>
        <time>2018-08-05T08:44:59.000Z</time>
      </trkpt>
      <trkpt lat="45.99148" lon="4.59328">
        <ele>516</ele>
        <time>2018-08-05T08:45:00.000Z</time>
      </trkpt>
      <trkpt lat="45.99143" lon="4.59332">
        <ele>516</ele>
        <time>2018-08-05T08:45:01.000Z</time>
      </trkpt>
      <trkpt lat="45.99139" lon="4.59337">
        <ele>518</ele>
        <time>2018-08-05T08:45:02.000Z</time>
      </trkpt>
      <trkpt lat="45.99134" lon="4.59341">
        <ele>518</ele>
        <time>2018-08-05T08:45:03.000Z</time>
      </trkpt>
      <trkpt lat="45.9913" lon="4.59345">
        <ele>517</ele>
        <time>2018-08-05T08:45:04.000Z</time>
      </trkpt>
      <trkpt lat="45.99125" lon="4.59349">
        <ele>517</ele>
        <time>2018-08-05T08:45:05.000Z</time>
      </trkpt>
      <trkpt lat="45.9912" lon="4.59354">
        <ele>517</ele>
        <time>2018-08-05T08:45:06.000Z</time>
      </trkpt>
      <trkpt lat="45.99115" lon="4.59359">
        <ele>517</ele>
        <time>2018-08-05T08:45:07.000Z</time>
      </trkpt>
      <trkpt lat="45.99111" lon="4.59364">
        <ele>517</ele>
        <time>2018-08-05T08:45:08.000Z</time>
      </trkpt>
      <trkpt lat="45.99106" lon="4.59369">
        <ele>517</ele>
        <time>2018-08-05T08:45:09.000Z</time>
      </trkpt>
      <trkpt lat="45.99101" lon="4.59375">
        <ele>517</ele>
        <time>2018-08-05T08:45:10.000Z</time>
      </trkpt>
      <trkpt lat="45.99097" lon="4.5938">
        <ele>517</ele>
        <time>2018-08-05T08:45:11.000Z</time>
      </trkpt>
      <trkpt lat="45.99093" lon="4.59387">
        <ele>517</ele>
        <time>2018-08-05T08:45:12.000Z</time>
      </trkpt>
      <trkpt lat="45.9909" lon="4.59393">
        <ele>517</ele>
        <time>2018-08-05T08:45:13.000Z</time>
      </trkpt>
      <trkpt lat="45.99086" lon="4.594">
        <ele>517</ele>
        <time>2018-08-05T08:45:14.000Z</time>
      </trkpt>
      <trkpt lat="45.99083" lon="4.59407">
        <ele>517</ele>
        <time>2018-08-05T08:45:15.000Z</time>
      </trkpt>
      <trkpt lat="45.99081" lon="4.59413">
        <ele>516</ele>
        <time>2018-08-05T08:45:16.000Z</time>
      </trkpt>
      <trkpt lat="45.99079" lon="4.5942">
        <ele>516</ele>
        <time>2018-08-05T08:45:17.000Z</time>
      </trkpt>
      <trkpt lat="45.99077" lon="4.59426">
        <ele>516</ele>
        <time>2018-08-05T08:45:18.000Z</time>
      </trkpt>
      <trkpt lat="45.99074" lon="4.59433">
        <ele>515</ele>
        <time>2018-08-05T08:45:19.000Z</time>
      </trkpt>
      <trkpt lat="45.99071" lon="4.59439">
        <ele>515</ele>
        <time>2018-08-05T08:45:20.000Z</time>
      </trkpt>
      <trkpt lat="45.99067" lon="4.59444">
        <ele>514</ele>
        <time>2018-08-05T08:45:21.000Z</time>
      </trkpt>
      <trkpt lat="45.99062" lon="4.59449">
        <ele>514</ele>
        <time>2018-08-05T08:45:22.000Z</time>
      </trkpt>
      <trkpt lat="45.99056" lon="4.59452">
        <ele>514</ele>
        <time>2018-08-05T08:45:23.000Z</time>
      </trkpt>
      <trkpt lat="45.9905" lon="4.59456">
        <ele>513</ele>
        <time>2018-08-05T08:45:24.000Z</time>
      </trkpt>
      <trkpt lat="45.99043" lon="4.5946">
        <ele>513</ele>
        <time>2018-08-05T08:45:25.000Z</time>
      </trkpt>
      <trkpt lat="45.99037" lon="4.59465">
        <ele>512</ele>
        <time>2018-08-05T08:45:26.000Z</time>
      </trkpt>
      <trkpt lat="45.99032" lon="4.5947">
        <ele>512</ele>
        <time>2018-08-05T08:45:27.000Z</time>
      </trkpt>
      <trkpt lat="45.99028" lon="4.59475">
        <ele>512</ele>
        <time>2018-08-05T08:45:28.000Z</time>
      </trkpt>
      <trkpt lat="45.99024" lon="4.59479">
        <ele>511</ele>
        <time>2018-08-05T08:45:29.000Z</time>
      </trkpt>
      <trkpt lat="45.99021" lon="4.59484">
        <ele>511</ele>
        <time>2018-08-05T08:45:30.000Z</time>
      </trkpt>
      <trkpt lat="45.99018" lon="4.5949">
        <ele>510</ele>
        <time>2018-08-05T08:45:31.000Z</time>
      </trkpt>
      <trkpt lat="45.99016" lon="4.59495">
        <ele>509</ele>
        <time>2018-08-05T08:45:32.000Z</time>
      </trkpt>
      <trkpt lat="45.99015" lon="4.59501">
        <ele>508</ele>
        <time>2018-08-05T08:45:33.000Z</time>
      </trkpt>
      <trkpt lat="45.99014" lon="4.59507">
        <ele>508</ele>
        <time>2018-08-05T08:45:34.000Z</time>
      </trkpt>
      <trkpt lat="45.99014" lon="4.59512">
        <ele>508</ele>
        <time>2018-08-05T08:45:35.000Z</time>
      </trkpt>
      <trkpt lat="45.99014" lon="4.59514">
        <ele>509</ele>
        <time>2018-08-05T08:45:36.000Z</time>
      </trkpt>
      <trkpt lat="45.99013" lon="4.59515">
        <ele>509</ele>
        <time>2018-08-05T08:45:37.000Z</time>
      </trkpt>
      <trkpt lat="45.99013" lon="4.59515">
        <ele>509</ele>
        <time>2018-08-05T08:45:38.000Z</time>
      </trkpt>
      <trkpt lat="45.99014" lon="4.59515">
        <ele>509</ele>
        <time>2018-08-05T08:45:39.000Z</time>
      </trkpt>
      <trkpt lat="45.99014" lon="4.59515">
        <ele>509</ele>
        <time>2018-08-05T08:45:40.000Z</time>
      </trkpt>
      <trkpt lat="45.99014" lon="4.59515">
        <ele>509</ele>
        <time>2018-08-05T08:45:41.000Z</time>
      </trkpt>
      <trkpt lat="45.99013" lon="4.59515">
        <ele>509</ele>
        <time>2018-08-05T08:45:42.000Z</time>
      </trkpt>
      <trkpt lat="45.99013" lon="4.59514">
        <ele>509</ele>
        <time>2018-08-05T08:45:43.000Z</time>
      </trkpt>
      <trkpt lat="45.99013" lon="4.59514">
        <ele>508</ele>
        <time>2018-08-05T08:45:44.000Z</time>
      </trkpt>
      <trkpt lat="45.99013" lon="4.59513">
        <ele>508</ele>
        <time>2018-08-05T08:45:45.000Z</time>
      </trkpt>
      <trkpt lat="45.99012" lon="4.59512">
        <ele>508</ele>
        <time>2018-08-05T08:45:46.000Z</time>
      </trkpt>
      <trkpt lat="45.99012" lon="4.59511">
        <ele>508</ele>
        <time>2018-08-05T08:45:47.000Z</time>
      </trkpt>
      <trkpt lat="45.99012" lon="4.5951">
        <ele>508</ele>
        <time>2018-08-05T08:45:48.000Z</time>
      </trkpt>
      <trkpt lat="45.99012" lon="4.5951">
        <ele>508</ele>
        <time>2018-08-05T08:45:49.000Z</time>
      </trkpt>
      <trkpt lat="45.99012" lon="4.59509">
        <ele>508</ele>
        <time>2018-08-05T08:45:50.000Z</time>
      </trkpt>
      <trkpt lat="45.99012" lon="4.59508">
        <ele>508</ele>
        <time>2018-08-05T08:45:51.000Z</time>
      </trkpt>
      <trkpt lat="45.99011" lon="4.59506">
        <ele>508</ele>
        <time>2018-08-05T08:45:52.000Z</time>
      </trkpt>
      <trkpt lat="45.9901" lon="4.59503">
        <ele>508</ele>
        <time>2018-08-05T08:45:53.000Z</time>
      </trkpt>
      <trkpt lat="45.9901" lon="4.59501">
        <ele>508</ele>
        <time>2018-08-05T08:45:54.000Z</time>
      </trkpt>
      <trkpt lat="45.99009" lon="4.59497">
        <ele>508</ele>
        <time>2018-08-05T08:45:55.000Z</time>
      </trkpt>
      <trkpt lat="45.99008" lon="4.59494">
        <ele>508</ele>
        <time>2018-08-05T08:45:56.000Z</time>
      </trkpt>
      <trkpt lat="45.99007" lon="4.59491">
        <ele>509</ele>
        <time>2018-08-05T08:45:57.000Z</time>
      </trkpt>
      <trkpt lat="45.99005" lon="4.59487">
        <ele>509</ele>
        <time>2018-08-05T08:45:58.000Z</time>
      </trkpt>
      <trkpt lat="45.99004" lon="4.59483">
        <ele>509</ele>
        <time>2018-08-05T08:45:59.000Z</time>
      </trkpt>
      <trkpt lat="45.99002" lon="4.5948">
        <ele>510</ele>
        <time>2018-08-05T08:46:00.000Z</time>
      </trkpt>
      <trkpt lat="45.99" lon="4.59476">
        <ele>510</ele>
        <time>2018-08-05T08:46:01.000Z</time>
      </trkpt>
      <trkpt lat="45.98998" lon="4.59472">
        <ele>504</ele>
        <time>2018-08-05T08:46:02.000Z</time>
      </trkpt>
      <trkpt lat="45.98996" lon="4.59468">
        <ele>504</ele>
        <time>2018-08-05T08:46:03.000Z</time>
      </trkpt>
      <trkpt lat="45.98994" lon="4.59464">
        <ele>504</ele>
        <time>2018-08-05T08:46:04.000Z</time>
      </trkpt>
      <trkpt lat="45.98992" lon="4.5946">
        <ele>504</ele>
        <time>2018-08-05T08:46:05.000Z</time>
      </trkpt>
      <trkpt lat="45.9899" lon="4.59455">
        <ele>504</ele>
        <time>2018-08-05T08:46:06.000Z</time>
      </trkpt>
      <trkpt lat="45.98988" lon="4.59451">
        <ele>504</ele>
        <time>2018-08-05T08:46:07.000Z</time>
      </trkpt>
      <trkpt lat="45.98986" lon="4.59446">
        <ele>504</ele>
        <time>2018-08-05T08:46:08.000Z</time>
      </trkpt>
      <trkpt lat="45.98984" lon="4.59442">
        <ele>504</ele>
        <time>2018-08-05T08:46:09.000Z</time>
      </trkpt>
      <trkpt lat="45.98981" lon="4.59436">
        <ele>505</ele>
        <time>2018-08-05T08:46:10.000Z</time>
      </trkpt>
      <trkpt lat="45.98978" lon="4.59431">
        <ele>505</ele>
        <time>2018-08-05T08:46:11.000Z</time>
      </trkpt>
      <trkpt lat="45.98975" lon="4.59425">
        <ele>505</ele>
        <time>2018-08-05T08:46:12.000Z</time>
      </trkpt>
      <trkpt lat="45.98972" lon="4.5942">
        <ele>504</ele>
        <time>2018-08-05T08:46:13.000Z</time>
      </trkpt>
      <trkpt lat="45.98969" lon="4.59414">
        <ele>506</ele>
        <time>2018-08-05T08:46:14.000Z</time>
      </trkpt>
      <trkpt lat="45.98965" lon="4.59408">
        <ele>505</ele>
        <time>2018-08-05T08:46:15.000Z</time>
      </trkpt>
      <trkpt lat="45.98962" lon="4.59401">
        <ele>505</ele>
        <time>2018-08-05T08:46:16.000Z</time>
      </trkpt>
      <trkpt lat="45.98958" lon="4.59395">
        <ele>504</ele>
        <time>2018-08-05T08:46:17.000Z</time>
      </trkpt>
      <trkpt lat="45.98954" lon="4.5939">
        <ele>504</ele>
        <time>2018-08-05T08:46:18.000Z</time>
      </trkpt>
      <trkpt lat="45.9895" lon="4.59384">
        <ele>504</ele>
        <time>2018-08-05T08:46:19.000Z</time>
      </trkpt>
      <trkpt lat="45.98945" lon="4.59379">
        <ele>503</ele>
        <time>2018-08-05T08:46:20.000Z</time>
      </trkpt>
      <trkpt lat="45.98942" lon="4.59374">
        <ele>503</ele>
        <time>2018-08-05T08:46:21.000Z</time>
      </trkpt>
      <trkpt lat="45.98939" lon="4.5937">
        <ele>503</ele>
        <time>2018-08-05T08:46:22.000Z</time>
      </trkpt>
      <trkpt lat="45.98938" lon="4.59367">
        <ele>503</ele>
        <time>2018-08-05T08:46:23.000Z</time>
      </trkpt>
      <trkpt lat="45.98937" lon="4.59364">
        <ele>503</ele>
        <time>2018-08-05T08:46:24.000Z</time>
      </trkpt>
      <trkpt lat="45.98937" lon="4.59362">
        <ele>503</ele>
        <time>2018-08-05T08:46:25.000Z</time>
      </trkpt>
      <trkpt lat="45.98936" lon="4.59361">
        <ele>503</ele>
        <time>2018-08-05T08:46:26.000Z</time>
      </trkpt>
      <trkpt lat="45.98936" lon="4.59361">
        <ele>503</ele>
        <time>2018-08-05T08:46:27.000Z</time>
      </trkpt>
      <trkpt lat="45.98936" lon="4.59361">
        <ele>503</ele>
        <time>2018-08-05T08:46:28.000Z</time>
      </trkpt>
      <trkpt lat="45.98936" lon="4.59361">
        <ele>503</ele>
        <time>2018-08-05T08:46:29.000Z</time>
      </trkpt>
      <trkpt lat="45.98936" lon="4.59361">
        <ele>503</ele>
        <time>2018-08-05T08:46:30.000Z</time>
      </trkpt>
      <trkpt lat="45.98936" lon="4.59361">
        <ele>503</ele>
        <time>2018-08-05T08:46:31.000Z</time>
      </trkpt>
      <trkpt lat="45.98936" lon="4.5936">
        <ele>503</ele>
        <time>2018-08-05T08:46:32.000Z</time>
      </trkpt>
      <trkpt lat="45.98936" lon="4.5936">
        <ele>503</ele>
        <time>2018-08-05T08:46:33.000Z</time>
      </trkpt>
      <trkpt lat="45.98936" lon="4.5936">
        <ele>503</ele>
        <time>2018-08-05T08:46:34.000Z</time>
      </trkpt>
      <trkpt lat="45.98936" lon="4.59359">
        <ele>503</ele>
        <time>2018-08-05T08:46:35.000Z</time>
      </trkpt>
      <trkpt lat="45.98936" lon="4.59359">
        <ele>503</ele>
        <time>2018-08-05T08:46:36.000Z</time>
      </trkpt>
      <trkpt lat="45.98936" lon="4.59359">
        <ele>503</ele>
        <time>2018-08-05T08:46:37.000Z</time>
      </trkpt>
      <trkpt lat="45.98936" lon="4.59359">
        <ele>503</ele>
        <time>2018-08-05T08:46:38.000Z</time>
      </trkpt>
      <trkpt lat="45.98935" lon="4.59359">
        <ele>503</ele>
        <time>2018-08-05T08:46:39.000Z</time>
      </trkpt>
      <trkpt lat="45.98935" lon="4.59358">
        <ele>503</ele>
        <time>2018-08-05T08:46:40.000Z</time>
      </trkpt>
      <trkpt lat="45.98936" lon="4.59357">
        <ele>503</ele>
        <time>2018-08-05T08:46:41.000Z</time>
      </trkpt>
      <trkpt lat="45.98937" lon="4.59355">
        <ele>503</ele>
        <time>2018-08-05T08:46:42.000Z</time>
      </trkpt>
      <trkpt lat="45.98938" lon="4.59354">
        <ele>503</ele>
        <time>2018-08-05T08:46:43.000Z</time>
      </trkpt>
      <trkpt lat="45.9894" lon="4.59352">
        <ele>503</ele>
        <time>2018-08-05T08:46:44.000Z</time>
      </trkpt>
      <trkpt lat="45.98941" lon="4.5935">
        <ele>503</ele>
        <time>2018-08-05T08:46:45.000Z</time>
      </trkpt>
      <trkpt lat="45.98942" lon="4.59348">
        <ele>503</ele>
        <time>2018-08-05T08:46:46.000Z</time>
      </trkpt>
      <trkpt lat="45.98943" lon="4.59345">
        <ele>503</ele>
        <time>2018-08-05T08:46:47.000Z</time>
      </trkpt>
      <trkpt lat="45.98945" lon="4.59342">
        <ele>503</ele>
        <time>2018-08-05T08:46:48.000Z</time>
      </trkpt>
      <trkpt lat="45.98946" lon="4.59341">
        <ele>503</ele>
        <time>2018-08-05T08:46:49.000Z</time>
      </trkpt>
      <trkpt lat="45.98948" lon="4.59339">
        <ele>504</ele>
        <time>2018-08-05T08:46:50.000Z</time>
      </trkpt>
      <trkpt lat="45.98949" lon="4.59337">
        <ele>504</ele>
        <time>2018-08-05T08:46:51.000Z</time>
      </trkpt>
      <trkpt lat="45.9895" lon="4.59335">
        <ele>504</ele>
        <time>2018-08-05T08:46:52.000Z</time>
      </trkpt>
      <trkpt lat="45.98952" lon="4.59334">
        <ele>504</ele>
        <time>2018-08-05T08:46:53.000Z</time>
      </trkpt>
      <trkpt lat="45.98954" lon="4.59332">
        <ele>502</ele>
        <time>2018-08-05T08:46:54.000Z</time>
      </trkpt>
      <trkpt lat="45.98955" lon="4.5933">
        <ele>502</ele>
        <time>2018-08-05T08:46:55.000Z</time>
      </trkpt>
      <trkpt lat="45.98957" lon="4.59329">
        <ele>502</ele>
        <time>2018-08-05T08:46:56.000Z</time>
      </trkpt>
      <trkpt lat="45.98959" lon="4.59327">
        <ele>502</ele>
        <time>2018-08-05T08:46:57.000Z</time>
      </trkpt>
      <trkpt lat="45.9896" lon="4.59326">
        <ele>502</ele>
        <time>2018-08-05T08:46:58.000Z</time>
      </trkpt>
      <trkpt lat="45.98962" lon="4.59325">
        <ele>502</ele>
        <time>2018-08-05T08:46:59.000Z</time>
      </trkpt>
      <trkpt lat="45.98964" lon="4.59324">
        <ele>503</ele>
        <time>2018-08-05T08:47:00.000Z</time>
      </trkpt>
      <trkpt lat="45.98966" lon="4.59324">
        <ele>503</ele>
        <time>2018-08-05T08:47:01.000Z</time>
      </trkpt>
      <trkpt lat="45.98969" lon="4.59323">
        <ele>503</ele>
        <time>2018-08-05T08:47:02.000Z</time>
      </trkpt>
      <trkpt lat="45.98971" lon="4.59323">
        <ele>503</ele>
        <time>2018-08-05T08:47:03.000Z</time>
      </trkpt>
      <trkpt lat="45.98974" lon="4.59322">
        <ele>504</ele>
        <time>2018-08-05T08:47:04.000Z</time>
      </trkpt>
      <trkpt lat="45.98976" lon="4.59322">
        <ele>504</ele>
        <time>2018-08-05T08:47:05.000Z</time>
      </trkpt>
      <trkpt lat="45.98978" lon="4.59322">
        <ele>504</ele>
        <time>2018-08-05T08:47:06.000Z</time>
      </trkpt>
      <trkpt lat="45.98981" lon="4.59321">
        <ele>505</ele>
        <time>2018-08-05T08:47:07.000Z</time>
      </trkpt>
      <trkpt lat="45.98983" lon="4.59321">
        <ele>505</ele>
        <time>2018-08-05T08:47:08.000Z</time>
      </trkpt>
      <trkpt lat="45.98985" lon="4.59321">
        <ele>505</ele>
        <time>2018-08-05T08:47:09.000Z</time>
      </trkpt>
      <trkpt lat="45.98987" lon="4.5932">
        <ele>505</ele>
        <time>2018-08-05T08:47:10.000Z</time>
      </trkpt>
      <trkpt lat="45.98989" lon="4.5932">
        <ele>506</ele>
        <time>2018-08-05T08:47:11.000Z</time>
      </trkpt>
      <trkpt lat="45.98991" lon="4.5932">
        <ele>506</ele>
        <time>2018-08-05T08:47:12.000Z</time>
      </trkpt>
      <trkpt lat="45.98993" lon="4.5932">
        <ele>506</ele>
        <time>2018-08-05T08:47:13.000Z</time>
      </trkpt>
      <trkpt lat="45.98995" lon="4.59319">
        <ele>506</ele>
        <time>2018-08-05T08:47:14.000Z</time>
      </trkpt>
      <trkpt lat="45.98998" lon="4.59319">
        <ele>506</ele>
        <time>2018-08-05T08:47:15.000Z</time>
      </trkpt>
      <trkpt lat="45.99" lon="4.5932">
        <ele>510</ele>
        <time>2018-08-05T08:47:16.000Z</time>
      </trkpt>
      <trkpt lat="45.99003" lon="4.5932">
        <ele>510</ele>
        <time>2018-08-05T08:47:17.000Z</time>
      </trkpt>
      <trkpt lat="45.99005" lon="4.5932">
        <ele>510</ele>
        <time>2018-08-05T08:47:18.000Z</time>
      </trkpt>
      <trkpt lat="45.99008" lon="4.59319">
        <ele>510</ele>
        <time>2018-08-05T08:47:19.000Z</time>
      </trkpt>
      <trkpt lat="45.9901" lon="4.59318">
        <ele>510</ele>
        <time>2018-08-05T08:47:20.000Z</time>
      </trkpt>
      <trkpt lat="45.99013" lon="4.59318">
        <ele>510</ele>
        <time>2018-08-05T08:47:21.000Z</time>
      </trkpt>
      <trkpt lat="45.99016" lon="4.59317">
        <ele>509</ele>
        <time>2018-08-05T08:47:22.000Z</time>
      </trkpt>
      <trkpt lat="45.99018" lon="4.59315">
        <ele>509</ele>
        <time>2018-08-05T08:47:23.000Z</time>
      </trkpt>
      <trkpt lat="45.99021" lon="4.59314">
        <ele>509</ele>
        <time>2018-08-05T08:47:24.000Z</time>
      </trkpt>
      <trkpt lat="45.99023" lon="4.59312">
        <ele>509</ele>
        <time>2018-08-05T08:47:25.000Z</time>
      </trkpt>
      <trkpt lat="45.99025" lon="4.5931">
        <ele>509</ele>
        <time>2018-08-05T08:47:26.000Z</time>
      </trkpt>
      <trkpt lat="45.99027" lon="4.59308">
        <ele>509</ele>
        <time>2018-08-05T08:47:27.000Z</time>
      </trkpt>
      <trkpt lat="45.99029" lon="4.59306">
        <ele>509</ele>
        <time>2018-08-05T08:47:28.000Z</time>
      </trkpt>
      <trkpt lat="45.99032" lon="4.59304">
        <ele>509</ele>
        <time>2018-08-05T08:47:29.000Z</time>
      </trkpt>
      <trkpt lat="45.99034" lon="4.59302">
        <ele>509</ele>
        <time>2018-08-05T08:47:30.000Z</time>
      </trkpt>
      <trkpt lat="45.99037" lon="4.59299">
        <ele>509</ele>
        <time>2018-08-05T08:47:31.000Z</time>
      </trkpt>
      <trkpt lat="45.99039" lon="4.59296">
        <ele>509</ele>
        <time>2018-08-05T08:47:32.000Z</time>
      </trkpt>
      <trkpt lat="45.99042" lon="4.59293">
        <ele>509</ele>
        <time>2018-08-05T08:47:33.000Z</time>
      </trkpt>
      <trkpt lat="45.99045" lon="4.5929">
        <ele>509</ele>
        <time>2018-08-05T08:47:34.000Z</time>
      </trkpt>
      <trkpt lat="45.99048" lon="4.59287">
        <ele>509</ele>
        <time>2018-08-05T08:47:35.000Z</time>
      </trkpt>
      <trkpt lat="45.99051" lon="4.59284">
        <ele>509</ele>
        <time>2018-08-05T08:47:36.000Z</time>
      </trkpt>
      <trkpt lat="45.99055" lon="4.59281">
        <ele>509</ele>
        <time>2018-08-05T08:47:37.000Z</time>
      </trkpt>
      <trkpt lat="45.99058" lon="4.59278">
        <ele>509</ele>
        <time>2018-08-05T08:47:38.000Z</time>
      </trkpt>
      <trkpt lat="45.99062" lon="4.59275">
        <ele>509</ele>
        <time>2018-08-05T08:47:39.000Z</time>
      </trkpt>
      <trkpt lat="45.99066" lon="4.59272">
        <ele>509</ele>
        <time>2018-08-05T08:47:40.000Z</time>
      </trkpt>
      <trkpt lat="45.9907" lon="4.5927">
        <ele>509</ele>
        <time>2018-08-05T08:47:41.000Z</time>
      </trkpt>
      <trkpt lat="45.99074" lon="4.59267">
        <ele>509</ele>
        <time>2018-08-05T08:47:42.000Z</time>
      </trkpt>
      <trkpt lat="45.99078" lon="4.59264">
        <ele>509</ele>
        <time>2018-08-05T08:47:43.000Z</time>
      </trkpt>
      <trkpt lat="45.99082" lon="4.59262">
        <ele>509</ele>
        <time>2018-08-05T08:47:44.000Z</time>
      </trkpt>
      <trkpt lat="45.99086" lon="4.59259">
        <ele>511</ele>
        <time>2018-08-05T08:47:45.000Z</time>
      </trkpt>
      <trkpt lat="45.9909" lon="4.59256">
        <ele>511</ele>
        <time>2018-08-05T08:47:46.000Z</time>
      </trkpt>
      <trkpt lat="45.99094" lon="4.59253">
        <ele>511</ele>
        <time>2018-08-05T08:47:47.000Z</time>
      </trkpt>
      <trkpt lat="45.99097" lon="4.5925">
        <ele>510</ele>
        <time>2018-08-05T08:47:48.000Z</time>
      </trkpt>
      <trkpt lat="45.99101" lon="4.59247">
        <ele>511</ele>
        <time>2018-08-05T08:47:49.000Z</time>
      </trkpt>
      <trkpt lat="45.99105" lon="4.59243">
        <ele>511</ele>
        <time>2018-08-05T08:47:50.000Z</time>
      </trkpt>
      <trkpt lat="45.99109" lon="4.5924">
        <ele>511</ele>
        <time>2018-08-05T08:47:51.000Z</time>
      </trkpt>
      <trkpt lat="45.99113" lon="4.59237">
        <ele>512</ele>
        <time>2018-08-05T08:47:52.000Z</time>
      </trkpt>
      <trkpt lat="45.99117" lon="4.59234">
        <ele>512</ele>
        <time>2018-08-05T08:47:53.000Z</time>
      </trkpt>
      <trkpt lat="45.99121" lon="4.5923">
        <ele>512</ele>
        <time>2018-08-05T08:47:54.000Z</time>
      </trkpt>
      <trkpt lat="45.99124" lon="4.59227">
        <ele>512</ele>
        <time>2018-08-05T08:47:55.000Z</time>
      </trkpt>
      <trkpt lat="45.99128" lon="4.59223">
        <ele>512</ele>
        <time>2018-08-05T08:47:56.000Z</time>
      </trkpt>
      <trkpt lat="45.99131" lon="4.5922">
        <ele>513</ele>
        <time>2018-08-05T08:47:57.000Z</time>
      </trkpt>
      <trkpt lat="45.99135" lon="4.59218">
        <ele>513</ele>
        <time>2018-08-05T08:47:58.000Z</time>
      </trkpt>
      <trkpt lat="45.99139" lon="4.59215">
        <ele>513</ele>
        <time>2018-08-05T08:47:59.000Z</time>
      </trkpt>
      <trkpt lat="45.99142" lon="4.59213">
        <ele>513</ele>
        <time>2018-08-05T08:48:00.000Z</time>
      </trkpt>
      <trkpt lat="45.99146" lon="4.59212">
        <ele>513</ele>
        <time>2018-08-05T08:48:01.000Z</time>
      </trkpt>
      <trkpt lat="45.99149" lon="4.59212">
        <ele>513</ele>
        <time>2018-08-05T08:48:02.000Z</time>
      </trkpt>
      <trkpt lat="45.99152" lon="4.59211">
        <ele>514</ele>
        <time>2018-08-05T08:48:03.000Z</time>
      </trkpt>
      <trkpt lat="45.99155" lon="4.59211">
        <ele>514</ele>
        <time>2018-08-05T08:48:04.000Z</time>
      </trkpt>
      <trkpt lat="45.99158" lon="4.59211">
        <ele>514</ele>
        <time>2018-08-05T08:48:05.000Z</time>
      </trkpt>
      <trkpt lat="45.99161" lon="4.5921">
        <ele>514</ele>
        <time>2018-08-05T08:48:06.000Z</time>
      </trkpt>
      <trkpt lat="45.99163" lon="4.5921">
        <ele>514</ele>
        <time>2018-08-05T08:48:07.000Z</time>
      </trkpt>
      <trkpt lat="45.99166" lon="4.59209">
        <ele>514</ele>
        <time>2018-08-05T08:48:08.000Z</time>
      </trkpt>
      <trkpt lat="45.99168" lon="4.59209">
        <ele>519</ele>
        <time>2018-08-05T08:48:09.000Z</time>
      </trkpt>
      <trkpt lat="45.99171" lon="4.59208">
        <ele>519</ele>
        <time>2018-08-05T08:48:10.000Z</time>
      </trkpt>
      <trkpt lat="45.99173" lon="4.59208">
        <ele>519</ele>
        <time>2018-08-05T08:48:11.000Z</time>
      </trkpt>
      <trkpt lat="45.99176" lon="4.59208">
        <ele>519</ele>
        <time>2018-08-05T08:48:12.000Z</time>
      </trkpt>
      <trkpt lat="45.99178" lon="4.5921">
        <ele>519</ele>
        <time>2018-08-05T08:48:13.000Z</time>
      </trkpt>
      <trkpt lat="45.99179" lon="4.59212">
        <ele>519</ele>
        <time>2018-08-05T08:48:14.000Z</time>
      </trkpt>
      <trkpt lat="45.99181" lon="4.59215">
        <ele>519</ele>
        <time>2018-08-05T08:48:15.000Z</time>
      </trkpt>
      <trkpt lat="45.99182" lon="4.59218">
        <ele>519</ele>
        <time>2018-08-05T08:48:16.000Z</time>
      </trkpt>
      <trkpt lat="45.99183" lon="4.59221">
        <ele>519</ele>
        <time>2018-08-05T08:48:17.000Z</time>
      </trkpt>
      <trkpt lat="45.99183" lon="4.59226">
        <ele>519</ele>
        <time>2018-08-05T08:48:18.000Z</time>
      </trkpt>
      <trkpt lat="45.99182" lon="4.59231">
        <ele>519</ele>
        <time>2018-08-05T08:48:19.000Z</time>
      </trkpt>
      <trkpt lat="45.99181" lon="4.59236">
        <ele>518</ele>
        <time>2018-08-05T08:48:20.000Z</time>
      </trkpt>
      <trkpt lat="45.99181" lon="4.59242">
        <ele>518</ele>
        <time>2018-08-05T08:48:21.000Z</time>
      </trkpt>
      <trkpt lat="45.99179" lon="4.59248">
        <ele>518</ele>
        <time>2018-08-05T08:48:22.000Z</time>
      </trkpt>
      <trkpt lat="45.99178" lon="4.59254">
        <ele>518</ele>
        <time>2018-08-05T08:48:23.000Z</time>
      </trkpt>
      <trkpt lat="45.99177" lon="4.5926">
        <ele>518</ele>
        <time>2018-08-05T08:48:24.000Z</time>
      </trkpt>
      <trkpt lat="45.99175" lon="4.59266">
        <ele>518</ele>
        <time>2018-08-05T08:48:25.000Z</time>
      </trkpt>
      <trkpt lat="45.99174" lon="4.59272">
        <ele>518</ele>
        <time>2018-08-05T08:48:26.000Z</time>
      </trkpt>
      <trkpt lat="45.99172" lon="4.59278">
        <ele>518</ele>
        <time>2018-08-05T08:48:27.000Z</time>
      </trkpt>
      <trkpt lat="45.99171" lon="4.59284">
        <ele>519</ele>
        <time>2018-08-05T08:48:28.000Z</time>
      </trkpt>
      <trkpt lat="45.99169" lon="4.59291">
        <ele>519</ele>
        <time>2018-08-05T08:48:29.000Z</time>
      </trkpt>
      <trkpt lat="45.99166" lon="4.59297">
        <ele>516</ele>
        <time>2018-08-05T08:48:30.000Z</time>
      </trkpt>
      <trkpt lat="45.99164" lon="4.59303">
        <ele>516</ele>
        <time>2018-08-05T08:48:31.000Z</time>
      </trkpt>
      <trkpt lat="45.99161" lon="4.59309">
        <ele>516</ele>
        <time>2018-08-05T08:48:32.000Z</time>
      </trkpt>
      <trkpt lat="45.99158" lon="4.59315">
        <ele>516</ele>
        <time>2018-08-05T08:48:33.000Z</time>
      </trkpt>
      <trkpt lat="45.99154" lon="4.59321">
        <ele>516</ele>
        <time>2018-08-05T08:48:34.000Z</time>
      </trkpt>
      <trkpt lat="45.9915" lon="4.59326">
        <ele>516</ele>
        <time>2018-08-05T08:48:35.000Z</time>
      </trkpt>
      <trkpt lat="45.99146" lon="4.59331">
        <ele>516</ele>
        <time>2018-08-05T08:48:36.000Z</time>
      </trkpt>
      <trkpt lat="45.99142" lon="4.59335">
        <ele>518</ele>
        <time>2018-08-05T08:48:37.000Z</time>
      </trkpt>
      <trkpt lat="45.99138" lon="4.59339">
        <ele>518</ele>
        <time>2018-08-05T08:48:38.000Z</time>
      </trkpt>
      <trkpt lat="45.99134" lon="4.59342">
        <ele>518</ele>
        <time>2018-08-05T08:48:39.000Z</time>
      </trkpt>
      <trkpt lat="45.9913" lon="4.59346">
        <ele>517</ele>
        <time>2018-08-05T08:48:40.000Z</time>
      </trkpt>
      <trkpt lat="45.99126" lon="4.59349">
        <ele>517</ele>
        <time>2018-08-05T08:48:41.000Z</time>
      </trkpt>
      <trkpt lat="45.99122" lon="4.59353">
        <ele>517</ele>
        <time>2018-08-05T08:48:42.000Z</time>
      </trkpt>
      <trkpt lat="45.99118" lon="4.59357">
        <ele>517</ele>
        <time>2018-08-05T08:48:43.000Z</time>
      </trkpt>
      <trkpt lat="45.99114" lon="4.59361">
        <ele>517</ele>
        <time>2018-08-05T08:48:44.000Z</time>
      </trkpt>
      <trkpt lat="45.9911" lon="4.59366">
        <ele>517</ele>
        <time>2018-08-05T08:48:45.000Z</time>
      </trkpt>
      <trkpt lat="45.99106" lon="4.5937">
        <ele>517</ele>
        <time>2018-08-05T08:48:46.000Z</time>
      </trkpt>
      <trkpt lat="45.99102" lon="4.59375">
        <ele>517</ele>
        <time>2018-08-05T08:48:47.000Z</time>
      </trkpt>
      <trkpt lat="45.99098" lon="4.5938">
        <ele>517</ele>
        <time>2018-08-05T08:48:48.000Z</time>
      </trkpt>
      <trkpt lat="45.99095" lon="4.59384">
        <ele>517</ele>
        <time>2018-08-05T08:48:49.000Z</time>
      </trkpt>
      <trkpt lat="45.99092" lon="4.59389">
        <ele>517</ele>
        <time>2018-08-05T08:48:50.000Z</time>
      </trkpt>
      <trkpt lat="45.99089" lon="4.59395">
        <ele>517</ele>
        <time>2018-08-05T08:48:51.000Z</time>
      </trkpt>
      <trkpt lat="45.99086" lon="4.594">
        <ele>517</ele>
        <time>2018-08-05T08:48:52.000Z</time>
      </trkpt>
      <trkpt lat="45.99083" lon="4.59406">
        <ele>516</ele>
        <time>2018-08-05T08:48:53.000Z</time>
      </trkpt>
      <trkpt lat="45.99081" lon="4.59412">
        <ele>516</ele>
        <time>2018-08-05T08:48:54.000Z</time>
      </trkpt>
      <trkpt lat="45.99079" lon="4.59418">
        <ele>516</ele>
        <time>2018-08-05T08:48:55.000Z</time>
      </trkpt>
      <trkpt lat="45.99076" lon="4.59424">
        <ele>516</ele>
        <time>2018-08-05T08:48:56.000Z</time>
      </trkpt>
      <trkpt lat="45.99074" lon="4.5943">
        <ele>515</ele>
        <time>2018-08-05T08:48:57.000Z</time>
      </trkpt>
      <trkpt lat="45.99071" lon="4.59436">
        <ele>515</ele>
        <time>2018-08-05T08:48:58.000Z</time>
      </trkpt>
      <trkpt lat="45.99068" lon="4.59442">
        <ele>514</ele>
        <time>2018-08-05T08:48:59.000Z</time>
      </trkpt>
      <trkpt lat="45.99063" lon="4.59447">
        <ele>514</ele>
        <time>2018-08-05T08:49:00.000Z</time>
      </trkpt>
      <trkpt lat="45.99058" lon="4.59451">
        <ele>514</ele>
        <time>2018-08-05T08:49:01.000Z</time>
      </trkpt>
      <trkpt lat="45.99052" lon="4.59456">
        <ele>513</ele>
        <time>2018-08-05T08:49:02.000Z</time>
      </trkpt>
      <trkpt lat="45.99046" lon="4.5946">
        <ele>513</ele>
        <time>2018-08-05T08:49:03.000Z</time>
      </trkpt>
      <trkpt lat="45.9904" lon="4.59464">
        <ele>513</ele>
        <time>2018-08-05T08:49:04.000Z</time>
      </trkpt>
      <trkpt lat="45.99034" lon="4.59469">
        <ele>512</ele>
        <time>2018-08-05T08:49:05.000Z</time>
      </trkpt>
      <trkpt lat="45.99029" lon="4.59474">
        <ele>512</ele>
        <time>2018-08-05T08:49:06.000Z</time>
      </trkpt>
      <trkpt lat="45.99025" lon="4.59479">
        <ele>511</ele>
        <time>2018-08-05T08:49:07.000Z</time>
      </trkpt>
      <trkpt lat="45.99021" lon="4.59487">
        <ele>510</ele>
        <time>2018-08-05T08:49:08.000Z</time>
      </trkpt>
      <trkpt lat="45.99017" lon="4.59496">
        <ele>510</ele>
        <time>2018-08-05T08:49:09.000Z</time>
      </trkpt>
      <trkpt lat="45.99015" lon="4.59507">
        <ele>508</ele>
        <time>2018-08-05T08:49:10.000Z</time>
      </trkpt>
      <trkpt lat="45.99014" lon="4.59519">
        <ele>509</ele>
        <time>2018-08-05T08:49:11.000Z</time>
      </trkpt>
      <trkpt lat="45.99013" lon="4.59532">
        <ele>509</ele>
        <time>2018-08-05T08:49:12.000Z</time>
      </trkpt>
      <trkpt lat="45.99012" lon="4.59546">
        <ele>509</ele>
        <time>2018-08-05T08:49:13.000Z</time>
      </trkpt>
      <trkpt lat="45.9901" lon="4.59559">
        <ele>508</ele>
        <time>2018-08-05T08:49:14.000Z</time>
      </trkpt>
      <trkpt lat="45.99008" lon="4.59573">
        <ele>507</ele>
        <time>2018-08-05T08:49:15.000Z</time>
      </trkpt>
      <trkpt lat="45.99006" lon="4.59587">
        <ele>505</ele>
        <time>2018-08-05T08:49:16.000Z</time>
      </trkpt>
      <trkpt lat="45.99003" lon="4.59601">
        <ele>506</ele>
        <time>2018-08-05T08:49:17.000Z</time>
      </trkpt>
      <trkpt lat="45.99001" lon="4.59615">
        <ele>507</ele>
        <time>2018-08-05T08:49:18.000Z</time>
      </trkpt>
      <trkpt lat="45.98999" lon="4.59629">
        <ele>500</ele>
        <time>2018-08-05T08:49:19.000Z</time>
      </trkpt>
      <trkpt lat="45.98998" lon="4.59644">
        <ele>501</ele>
        <time>2018-08-05T08:49:20.000Z</time>
      </trkpt>
      <trkpt lat="45.98996" lon="4.59658">
        <ele>502</ele>
        <time>2018-08-05T08:49:21.000Z</time>
      </trkpt>
      <trkpt lat="45.98995" lon="4.59672">
        <ele>501</ele>
        <time>2018-08-05T08:49:22.000Z</time>
      </trkpt>
      <trkpt lat="45.98993" lon="4.59686">
        <ele>500</ele>
        <time>2018-08-05T08:49:23.000Z</time>
      </trkpt>
      <trkpt lat="45.98992" lon="4.59699">
        <ele>499</ele>
        <time>2018-08-05T08:49:24.000Z</time>
      </trkpt>
      <trkpt lat="45.98991" lon="4.59711">
        <ele>498</ele>
        <time>2018-08-05T08:49:25.000Z</time>
      </trkpt>
      <trkpt lat="45.9899" lon="4.59722">
        <ele>498</ele>
        <time>2018-08-05T08:49:26.000Z</time>
      </trkpt>
      <trkpt lat="45.98989" lon="4.59733">
        <ele>498</ele>
        <time>2018-08-05T08:49:27.000Z</time>
      </trkpt>
      <trkpt lat="45.98988" lon="4.59743">
        <ele>498</ele>
        <time>2018-08-05T08:49:28.000Z</time>
      </trkpt>
      <trkpt lat="45.98986" lon="4.59752">
        <ele>497</ele>
        <time>2018-08-05T08:49:29.000Z</time>
      </trkpt>
      <trkpt lat="45.98984" lon="4.5976">
        <ele>497</ele>
        <time>2018-08-05T08:49:30.000Z</time>
      </trkpt>
      <trkpt lat="45.98983" lon="4.59766">
        <ele>496</ele>
        <time>2018-08-05T08:49:31.000Z</time>
      </trkpt>
      <trkpt lat="45.98982" lon="4.59771">
        <ele>496</ele>
        <time>2018-08-05T08:49:32.000Z</time>
      </trkpt>
      <trkpt lat="45.98981" lon="4.59774">
        <ele>496</ele>
        <time>2018-08-05T08:49:33.000Z</time>
      </trkpt>
      <trkpt lat="45.98978" lon="4.59777">
        <ele>496</ele>
        <time>2018-08-05T08:49:34.000Z</time>
      </trkpt>
      <trkpt lat="45.98975" lon="4.5978">
        <ele>496</ele>
        <time>2018-08-05T08:49:35.000Z</time>
      </trkpt>
      <trkpt lat="45.98971" lon="4.59783">
        <ele>495</ele>
        <time>2018-08-05T08:49:36.000Z</time>
      </trkpt>
      <trkpt lat="45.98965" lon="4.59786">
        <ele>495</ele>
        <time>2018-08-05T08:49:37.000Z</time>
      </trkpt>
      <trkpt lat="45.98959" lon="4.59789">
        <ele>495</ele>
        <time>2018-08-05T08:49:38.000Z</time>
      </trkpt>
      <trkpt lat="45.98952" lon="4.59791">
        <ele>494</ele>
        <time>2018-08-05T08:49:39.000Z</time>
      </trkpt>
      <trkpt lat="45.98944" lon="4.59794">
        <ele>494</ele>
        <time>2018-08-05T08:49:40.000Z</time>
      </trkpt>
      <trkpt lat="45.98935" lon="4.59797">
        <ele>493</ele>
        <time>2018-08-05T08:49:41.000Z</time>
      </trkpt>
      <trkpt lat="45.98926" lon="4.598">
        <ele>493</ele>
        <time>2018-08-05T08:49:42.000Z</time>
      </trkpt>
      <trkpt lat="45.98917" lon="4.59803">
        <ele>492</ele>
        <time>2018-08-05T08:49:43.000Z</time>
      </trkpt>
      <trkpt lat="45.98907" lon="4.59806">
        <ele>488</ele>
        <time>2018-08-05T08:49:44.000Z</time>
      </trkpt>
      <trkpt lat="45.98897" lon="4.5981">
        <ele>487</ele>
        <time>2018-08-05T08:49:45.000Z</time>
      </trkpt>
      <trkpt lat="45.98887" lon="4.59814">
        <ele>487</ele>
        <time>2018-08-05T08:49:46.000Z</time>
      </trkpt>
      <trkpt lat="45.98876" lon="4.59818">
        <ele>486</ele>
        <time>2018-08-05T08:49:47.000Z</time>
      </trkpt>
      <trkpt lat="45.98866" lon="4.59822">
        <ele>486</ele>
        <time>2018-08-05T08:49:48.000Z</time>
      </trkpt>
      <trkpt lat="45.98856" lon="4.59826">
        <ele>485</ele>
        <time>2018-08-05T08:49:49.000Z</time>
      </trkpt>
      <trkpt lat="45.98845" lon="4.5983">
        <ele>483</ele>
        <time>2018-08-05T08:49:50.000Z</time>
      </trkpt>
      <trkpt lat="45.98835" lon="4.59834">
        <ele>481</ele>
        <time>2018-08-05T08:49:51.000Z</time>
      </trkpt>
      <trkpt lat="45.98824" lon="4.59838">
        <ele>479</ele>
        <time>2018-08-05T08:49:52.000Z</time>
      </trkpt>
      <trkpt lat="45.98813" lon="4.5984">
        <ele>478</ele>
        <time>2018-08-05T08:49:53.000Z</time>
      </trkpt>
      <trkpt lat="45.98802" lon="4.59842">
        <ele>477</ele>
        <time>2018-08-05T08:49:54.000Z</time>
      </trkpt>
      <trkpt lat="45.98791" lon="4.59844">
        <ele>477</ele>
        <time>2018-08-05T08:49:55.000Z</time>
      </trkpt>
      <trkpt lat="45.9878" lon="4.59846">
        <ele>476</ele>
        <time>2018-08-05T08:49:56.000Z</time>
      </trkpt>
      <trkpt lat="45.9877" lon="4.59848">
        <ele>476</ele>
        <time>2018-08-05T08:49:57.000Z</time>
      </trkpt>
      <trkpt lat="45.98761" lon="4.59851">
        <ele>475</ele>
        <time>2018-08-05T08:49:58.000Z</time>
      </trkpt>
      <trkpt lat="45.98752" lon="4.59854">
        <ele>475</ele>
        <time>2018-08-05T08:49:59.000Z</time>
      </trkpt>
      <trkpt lat="45.98744" lon="4.59857">
        <ele>472</ele>
        <time>2018-08-05T08:50:00.000Z</time>
      </trkpt>
      <trkpt lat="45.98736" lon="4.59861">
        <ele>471</ele>
        <time>2018-08-05T08:50:01.000Z</time>
      </trkpt>
      <trkpt lat="45.98728" lon="4.59866">
        <ele>471</ele>
        <time>2018-08-05T08:50:02.000Z</time>
      </trkpt>
      <trkpt lat="45.9872" lon="4.59869">
        <ele>470</ele>
        <time>2018-08-05T08:50:03.000Z</time>
      </trkpt>
      <trkpt lat="45.98711" lon="4.59868">
        <ele>470</ele>
        <time>2018-08-05T08:50:04.000Z</time>
      </trkpt>
      <trkpt lat="45.98703" lon="4.59864">
        <ele>470</ele>
        <time>2018-08-05T08:50:05.000Z</time>
      </trkpt>
      <trkpt lat="45.98695" lon="4.59858">
        <ele>470</ele>
        <time>2018-08-05T08:50:06.000Z</time>
      </trkpt>
      <trkpt lat="45.98687" lon="4.59851">
        <ele>469</ele>
        <time>2018-08-05T08:50:07.000Z</time>
      </trkpt>
      <trkpt lat="45.9868" lon="4.59845">
        <ele>469</ele>
        <time>2018-08-05T08:50:08.000Z</time>
      </trkpt>
      <trkpt lat="45.98672" lon="4.59839">
        <ele>469</ele>
        <time>2018-08-05T08:50:09.000Z</time>
      </trkpt>
      <trkpt lat="45.98664" lon="4.59832">
        <ele>469</ele>
        <time>2018-08-05T08:50:10.000Z</time>
      </trkpt>
      <trkpt lat="45.98656" lon="4.59826">
        <ele>468</ele>
        <time>2018-08-05T08:50:11.000Z</time>
      </trkpt>
      <trkpt lat="45.98648" lon="4.5982">
        <ele>468</ele>
        <time>2018-08-05T08:50:12.000Z</time>
      </trkpt>
      <trkpt lat="45.98641" lon="4.59815">
        <ele>467</ele>
        <time>2018-08-05T08:50:13.000Z</time>
      </trkpt>
      <trkpt lat="45.98634" lon="4.59809">
        <ele>467</ele>
        <time>2018-08-05T08:50:14.000Z</time>
      </trkpt>
      <trkpt lat="45.98628" lon="4.59804">
        <ele>467</ele>
        <time>2018-08-05T08:50:15.000Z</time>
      </trkpt>
      <trkpt lat="45.98622" lon="4.598">
        <ele>467</ele>
        <time>2018-08-05T08:50:16.000Z</time>
      </trkpt>
      <trkpt lat="45.98618" lon="4.59796">
        <ele>466</ele>
        <time>2018-08-05T08:50:17.000Z</time>
      </trkpt>
      <trkpt lat="45.98614" lon="4.59791">
        <ele>466</ele>
        <time>2018-08-05T08:50:18.000Z</time>
      </trkpt>
      <trkpt lat="45.98611" lon="4.59786">
        <ele>466</ele>
        <time>2018-08-05T08:50:19.000Z</time>
      </trkpt>
      <trkpt lat="45.98608" lon="4.59781">
        <ele>466</ele>
        <time>2018-08-05T08:50:20.000Z</time>
      </trkpt>
      <trkpt lat="45.98606" lon="4.59776">
        <ele>466</ele>
        <time>2018-08-05T08:50:21.000Z</time>
      </trkpt>
      <trkpt lat="45.98605" lon="4.59771">
        <ele>466</ele>
        <time>2018-08-05T08:50:22.000Z</time>
      </trkpt>
      <trkpt lat="45.98604" lon="4.59767">
        <ele>466</ele>
        <time>2018-08-05T08:50:23.000Z</time>
      </trkpt>
      <trkpt lat="45.98602" lon="4.59764">
        <ele>466</ele>
        <time>2018-08-05T08:50:24.000Z</time>
      </trkpt>
      <trkpt lat="45.98601" lon="4.5976">
        <ele>466</ele>
        <time>2018-08-05T08:50:25.000Z</time>
      </trkpt>
      <trkpt lat="45.986" lon="4.59757">
        <ele>466</ele>
        <time>2018-08-05T08:50:26.000Z</time>
      </trkpt>
      <trkpt lat="45.98599" lon="4.59753">
        <ele>466</ele>
        <time>2018-08-05T08:50:27.000Z</time>
      </trkpt>
      <trkpt lat="45.98598" lon="4.59749">
        <ele>465</ele>
        <time>2018-08-05T08:50:28.000Z</time>
      </trkpt>
      <trkpt lat="45.98597" lon="4.59746">
        <ele>465</ele>
        <time>2018-08-05T08:50:29.000Z</time>
      </trkpt>
      <trkpt lat="45.98597" lon="4.59742">
        <ele>465</ele>
        <time>2018-08-05T08:50:30.000Z</time>
      </trkpt>
      <trkpt lat="45.98597" lon="4.59739">
        <ele>465</ele>
        <time>2018-08-05T08:50:31.000Z</time>
      </trkpt>
      <trkpt lat="45.98597" lon="4.59735">
        <ele>465</ele>
        <time>2018-08-05T08:50:32.000Z</time>
      </trkpt>
      <trkpt lat="45.98597" lon="4.59732">
        <ele>465</ele>
        <time>2018-08-05T08:50:33.000Z</time>
      </trkpt>
      <trkpt lat="45.98598" lon="4.59728">
        <ele>465</ele>
        <time>2018-08-05T08:50:34.000Z</time>
      </trkpt>
      <trkpt lat="45.98599" lon="4.59725">
        <ele>464</ele>
        <time>2018-08-05T08:50:35.000Z</time>
      </trkpt>
      <trkpt lat="45.986" lon="4.59721">
        <ele>464</ele>
        <time>2018-08-05T08:50:36.000Z</time>
      </trkpt>
      <trkpt lat="45.986" lon="4.59717">
        <ele>464</ele>
        <time>2018-08-05T08:50:37.000Z</time>
      </trkpt>
      <trkpt lat="45.98601" lon="4.59713">
        <ele>464</ele>
        <time>2018-08-05T08:50:38.000Z</time>
      </trkpt>
      <trkpt lat="45.98602" lon="4.59709">
        <ele>464</ele>
        <time>2018-08-05T08:50:39.000Z</time>
      </trkpt>
      <trkpt lat="45.98603" lon="4.59704">
        <ele>463</ele>
        <time>2018-08-05T08:50:40.000Z</time>
      </trkpt>
      <trkpt lat="45.98604" lon="4.59698">
        <ele>463</ele>
        <time>2018-08-05T08:50:41.000Z</time>
      </trkpt>
      <trkpt lat="45.98605" lon="4.59692">
        <ele>463</ele>
        <time>2018-08-05T08:50:42.000Z</time>
      </trkpt>
      <trkpt lat="45.98608" lon="4.59685">
        <ele>462</ele>
        <time>2018-08-05T08:50:43.000Z</time>
      </trkpt>
      <trkpt lat="45.98611" lon="4.59679">
        <ele>462</ele>
        <time>2018-08-05T08:50:44.000Z</time>
      </trkpt>
      <trkpt lat="45.98614" lon="4.59672">
        <ele>463</ele>
        <time>2018-08-05T08:50:45.000Z</time>
      </trkpt>
      <trkpt lat="45.98619" lon="4.59665">
        <ele>458</ele>
        <time>2018-08-05T08:50:46.000Z</time>
      </trkpt>
      <trkpt lat="45.98624" lon="4.59658">
        <ele>458</ele>
        <time>2018-08-05T08:50:47.000Z</time>
      </trkpt>
      <trkpt lat="45.98629" lon="4.59652">
        <ele>458</ele>
        <time>2018-08-05T08:50:48.000Z</time>
      </trkpt>
      <trkpt lat="45.98634" lon="4.59644">
        <ele>459</ele>
        <time>2018-08-05T08:50:49.000Z</time>
      </trkpt>
      <trkpt lat="45.9864" lon="4.59637">
        <ele>459</ele>
        <time>2018-08-05T08:50:50.000Z</time>
      </trkpt>
      <trkpt lat="45.98646" lon="4.5963">
        <ele>458</ele>
        <time>2018-08-05T08:50:51.000Z</time>
      </trkpt>
      <trkpt lat="45.98652" lon="4.59623">
        <ele>458</ele>
        <time>2018-08-05T08:50:52.000Z</time>
      </trkpt>
      <trkpt lat="45.98658" lon="4.59615">
        <ele>458</ele>
        <time>2018-08-05T08:50:53.000Z</time>
      </trkpt>
      <trkpt lat="45.98664" lon="4.59607">
        <ele>458</ele>
        <time>2018-08-05T08:50:54.000Z</time>
      </trkpt>
      <trkpt lat="45.9867" lon="4.59599">
        <ele>465</ele>
        <time>2018-08-05T08:50:55.000Z</time>
      </trkpt>
      <trkpt lat="45.98676" lon="4.59591">
        <ele>464</ele>
        <time>2018-08-05T08:50:56.000Z</time>
      </trkpt>
      <trkpt lat="45.98683" lon="4.59583">
        <ele>460</ele>
        <time>2018-08-05T08:50:57.000Z</time>
      </trkpt>
      <trkpt lat="45.9869" lon="4.59576">
        <ele>461</ele>
        <time>2018-08-05T08:50:58.000Z</time>
      </trkpt>
      <trkpt lat="45.98697" lon="4.5957">
        <ele>461</ele>
        <time>2018-08-05T08:50:59.000Z</time>
      </trkpt>
      <trkpt lat="45.98703" lon="4.59563">
        <ele>461</ele>
        <time>2018-08-05T08:51:00.000Z</time>
      </trkpt>
      <trkpt lat="45.98709" lon="4.59557">
        <ele>462</ele>
        <time>2018-08-05T08:51:01.000Z</time>
      </trkpt>
      <trkpt lat="45.98715" lon="4.59551">
        <ele>462</ele>
        <time>2018-08-05T08:51:02.000Z</time>
      </trkpt>
      <trkpt lat="45.98721" lon="4.59544">
        <ele>462</ele>
        <time>2018-08-05T08:51:03.000Z</time>
      </trkpt>
      <trkpt lat="45.98726" lon="4.59537">
        <ele>462</ele>
        <time>2018-08-05T08:51:04.000Z</time>
      </trkpt>
      <trkpt lat="45.9873" lon="4.59529">
        <ele>462</ele>
        <time>2018-08-05T08:51:05.000Z</time>
      </trkpt>
      <trkpt lat="45.98734" lon="4.59521">
        <ele>462</ele>
        <time>2018-08-05T08:51:06.000Z</time>
      </trkpt>
      <trkpt lat="45.98737" lon="4.59513">
        <ele>462</ele>
        <time>2018-08-05T08:51:07.000Z</time>
      </trkpt>
      <trkpt lat="45.98739" lon="4.59504">
        <ele>462</ele>
        <time>2018-08-05T08:51:08.000Z</time>
      </trkpt>
      <trkpt lat="45.98741" lon="4.59494">
        <ele>459</ele>
        <time>2018-08-05T08:51:09.000Z</time>
      </trkpt>
      <trkpt lat="45.98742" lon="4.59485">
        <ele>457</ele>
        <time>2018-08-05T08:51:10.000Z</time>
      </trkpt>
      <trkpt lat="45.98742" lon="4.59476">
        <ele>456</ele>
        <time>2018-08-05T08:51:11.000Z</time>
      </trkpt>
      <trkpt lat="45.98743" lon="4.59467">
        <ele>455</ele>
        <time>2018-08-05T08:51:12.000Z</time>
      </trkpt>
      <trkpt lat="45.98743" lon="4.59459">
        <ele>455</ele>
        <time>2018-08-05T08:51:13.000Z</time>
      </trkpt>
      <trkpt lat="45.98743" lon="4.59451">
        <ele>455</ele>
        <time>2018-08-05T08:51:14.000Z</time>
      </trkpt>
      <trkpt lat="45.98743" lon="4.59444">
        <ele>455</ele>
        <time>2018-08-05T08:51:15.000Z</time>
      </trkpt>
      <trkpt lat="45.98743" lon="4.59437">
        <ele>456</ele>
        <time>2018-08-05T08:51:16.000Z</time>
      </trkpt>
      <trkpt lat="45.98742" lon="4.59431">
        <ele>457</ele>
        <time>2018-08-05T08:51:17.000Z</time>
      </trkpt>
      <trkpt lat="45.98742" lon="4.59426">
        <ele>458</ele>
        <time>2018-08-05T08:51:18.000Z</time>
      </trkpt>
      <trkpt lat="45.98741" lon="4.59421">
        <ele>458</ele>
        <time>2018-08-05T08:51:19.000Z</time>
      </trkpt>
      <trkpt lat="45.9874" lon="4.59416">
        <ele>457</ele>
        <time>2018-08-05T08:51:20.000Z</time>
      </trkpt>
      <trkpt lat="45.98739" lon="4.59411">
        <ele>457</ele>
        <time>2018-08-05T08:51:21.000Z</time>
      </trkpt>
      <trkpt lat="45.98738" lon="4.59407">
        <ele>456</ele>
        <time>2018-08-05T08:51:22.000Z</time>
      </trkpt>
      <trkpt lat="45.98737" lon="4.59403">
        <ele>455</ele>
        <time>2018-08-05T08:51:23.000Z</time>
      </trkpt>
      <trkpt lat="45.98735" lon="4.59398">
        <ele>454</ele>
        <time>2018-08-05T08:51:24.000Z</time>
      </trkpt>
      <trkpt lat="45.98733" lon="4.59392">
        <ele>453</ele>
        <time>2018-08-05T08:51:25.000Z</time>
      </trkpt>
      <trkpt lat="45.98731" lon="4.59385">
        <ele>452</ele>
        <time>2018-08-05T08:51:26.000Z</time>
      </trkpt>
      <trkpt lat="45.9873" lon="4.59379">
        <ele>452</ele>
        <time>2018-08-05T08:51:27.000Z</time>
      </trkpt>
      <trkpt lat="45.98728" lon="4.59371">
        <ele>452</ele>
        <time>2018-08-05T08:51:28.000Z</time>
      </trkpt>
      <trkpt lat="45.98727" lon="4.59364">
        <ele>452</ele>
        <time>2018-08-05T08:51:29.000Z</time>
      </trkpt>
      <trkpt lat="45.98727" lon="4.59356">
        <ele>452</ele>
        <time>2018-08-05T08:51:30.000Z</time>
      </trkpt>
      <trkpt lat="45.98727" lon="4.59348">
        <ele>453</ele>
        <time>2018-08-05T08:51:31.000Z</time>
      </trkpt>
      <trkpt lat="45.98728" lon="4.5934">
        <ele>454</ele>
        <time>2018-08-05T08:51:32.000Z</time>
      </trkpt>
      <trkpt lat="45.9873" lon="4.59332">
        <ele>453</ele>
        <time>2018-08-05T08:51:33.000Z</time>
      </trkpt>
      <trkpt lat="45.98731" lon="4.59324">
        <ele>453</ele>
        <time>2018-08-05T08:51:34.000Z</time>
      </trkpt>
      <trkpt lat="45.98734" lon="4.59316">
        <ele>452</ele>
        <time>2018-08-05T08:51:35.000Z</time>
      </trkpt>
      <trkpt lat="45.98736" lon="4.59308">
        <ele>451</ele>
        <time>2018-08-05T08:51:36.000Z</time>
      </trkpt>
      <trkpt lat="45.9874" lon="4.59301">
        <ele>450</ele>
        <time>2018-08-05T08:51:37.000Z</time>
      </trkpt>
      <trkpt lat="45.98743" lon="4.59293">
        <ele>450</ele>
        <time>2018-08-05T08:51:38.000Z</time>
      </trkpt>
      <trkpt lat="45.98746" lon="4.59287">
        <ele>450</ele>
        <time>2018-08-05T08:51:39.000Z</time>
      </trkpt>
      <trkpt lat="45.9875" lon="4.5928">
        <ele>450</ele>
        <time>2018-08-05T08:51:40.000Z</time>
      </trkpt>
      <trkpt lat="45.98754" lon="4.59274">
        <ele>464</ele>
        <time>2018-08-05T08:51:41.000Z</time>
      </trkpt>
      <trkpt lat="45.98757" lon="4.59268">
        <ele>463</ele>
        <time>2018-08-05T08:51:42.000Z</time>
      </trkpt>
      <trkpt lat="45.98761" lon="4.59262">
        <ele>462</ele>
        <time>2018-08-05T08:51:43.000Z</time>
      </trkpt>
      <trkpt lat="45.98765" lon="4.59255">
        <ele>462</ele>
        <time>2018-08-05T08:51:44.000Z</time>
      </trkpt>
      <trkpt lat="45.98769" lon="4.59248">
        <ele>458</ele>
        <time>2018-08-05T08:51:45.000Z</time>
      </trkpt>
      <trkpt lat="45.98772" lon="4.59241">
        <ele>459</ele>
        <time>2018-08-05T08:51:46.000Z</time>
      </trkpt>
      <trkpt lat="45.98776" lon="4.59233">
        <ele>459</ele>
        <time>2018-08-05T08:51:47.000Z</time>
      </trkpt>
      <trkpt lat="45.98779" lon="4.59225">
        <ele>459</ele>
        <time>2018-08-05T08:51:48.000Z</time>
      </trkpt>
      <trkpt lat="45.98782" lon="4.59217">
        <ele>460</ele>
        <time>2018-08-05T08:51:49.000Z</time>
      </trkpt>
      <trkpt lat="45.98786" lon="4.59209">
        <ele>459</ele>
        <time>2018-08-05T08:51:50.000Z</time>
      </trkpt>
      <trkpt lat="45.98789" lon="4.59201">
        <ele>459</ele>
        <time>2018-08-05T08:51:51.000Z</time>
      </trkpt>
      <trkpt lat="45.98793" lon="4.59193">
        <ele>459</ele>
        <time>2018-08-05T08:51:52.000Z</time>
      </trkpt>
      <trkpt lat="45.98797" lon="4.59185">
        <ele>460</ele>
        <time>2018-08-05T08:51:53.000Z</time>
      </trkpt>
      <trkpt lat="45.98801" lon="4.59177">
        <ele>460</ele>
        <time>2018-08-05T08:51:54.000Z</time>
      </trkpt>
      <trkpt lat="45.98806" lon="4.5917">
        <ele>461</ele>
        <time>2018-08-05T08:51:55.000Z</time>
      </trkpt>
      <trkpt lat="45.98811" lon="4.59162">
        <ele>454</ele>
        <time>2018-08-05T08:51:56.000Z</time>
      </trkpt>
      <trkpt lat="45.98816" lon="4.59155">
        <ele>455</ele>
        <time>2018-08-05T08:51:57.000Z</time>
      </trkpt>
      <trkpt lat="45.98821" lon="4.59147">
        <ele>454</ele>
        <time>2018-08-05T08:51:58.000Z</time>
      </trkpt>
      <trkpt lat="45.98826" lon="4.5914">
        <ele>453</ele>
        <time>2018-08-05T08:51:59.000Z</time>
      </trkpt>
      <trkpt lat="45.98831" lon="4.59133">
        <ele>452</ele>
        <time>2018-08-05T08:52:00.000Z</time>
      </trkpt>
      <trkpt lat="45.98835" lon="4.59126">
        <ele>462</ele>
        <time>2018-08-05T08:52:01.000Z</time>
      </trkpt>
      <trkpt lat="45.98841" lon="4.59119">
        <ele>461</ele>
        <time>2018-08-05T08:52:02.000Z</time>
      </trkpt>
      <trkpt lat="45.98846" lon="4.59111">
        <ele>460</ele>
        <time>2018-08-05T08:52:03.000Z</time>
      </trkpt>
      <trkpt lat="45.98851" lon="4.59104">
        <ele>459</ele>
        <time>2018-08-05T08:52:04.000Z</time>
      </trkpt>
      <trkpt lat="45.98857" lon="4.59096">
        <ele>459</ele>
        <time>2018-08-05T08:52:05.000Z</time>
      </trkpt>
      <trkpt lat="45.98863" lon="4.59089">
        <ele>460</ele>
        <time>2018-08-05T08:52:06.000Z</time>
      </trkpt>
      <trkpt lat="45.98869" lon="4.59084">
        <ele>460</ele>
        <time>2018-08-05T08:52:07.000Z</time>
      </trkpt>
      <trkpt lat="45.98877" lon="4.5908">
        <ele>451</ele>
        <time>2018-08-05T08:52:08.000Z</time>
      </trkpt>
      <trkpt lat="45.98884" lon="4.5908">
        <ele>452</ele>
        <time>2018-08-05T08:52:09.000Z</time>
      </trkpt>
      <trkpt lat="45.98891" lon="4.5908">
        <ele>454</ele>
        <time>2018-08-05T08:52:10.000Z</time>
      </trkpt>
      <trkpt lat="45.98898" lon="4.59081">
        <ele>455</ele>
        <time>2018-08-05T08:52:11.000Z</time>
      </trkpt>
      <trkpt lat="45.98905" lon="4.59083">
        <ele>457</ele>
        <time>2018-08-05T08:52:12.000Z</time>
      </trkpt>
      <trkpt lat="45.98912" lon="4.59083">
        <ele>460</ele>
        <time>2018-08-05T08:52:13.000Z</time>
      </trkpt>
      <trkpt lat="45.98919" lon="4.59081">
        <ele>463</ele>
        <time>2018-08-05T08:52:14.000Z</time>
      </trkpt>
      <trkpt lat="45.98926" lon="4.59077">
        <ele>464</ele>
        <time>2018-08-05T08:52:15.000Z</time>
      </trkpt>
      <trkpt lat="45.98932" lon="4.59072">
        <ele>465</ele>
        <time>2018-08-05T08:52:16.000Z</time>
      </trkpt>
      <trkpt lat="45.98936" lon="4.59065">
        <ele>466</ele>
        <time>2018-08-05T08:52:17.000Z</time>
      </trkpt>
      <trkpt lat="45.9894" lon="4.59057">
        <ele>466</ele>
        <time>2018-08-05T08:52:18.000Z</time>
      </trkpt>
      <trkpt lat="45.98944" lon="4.59047">
        <ele>467</ele>
        <time>2018-08-05T08:52:19.000Z</time>
      </trkpt>
      <trkpt lat="45.98946" lon="4.59037">
        <ele>466</ele>
        <time>2018-08-05T08:52:20.000Z</time>
      </trkpt>
      <trkpt lat="45.98948" lon="4.59028">
        <ele>466</ele>
        <time>2018-08-05T08:52:21.000Z</time>
      </trkpt>
      <trkpt lat="45.9895" lon="4.59017">
        <ele>465</ele>
        <time>2018-08-05T08:52:22.000Z</time>
      </trkpt>
      <trkpt lat="45.98951" lon="4.59007">
        <ele>465</ele>
        <time>2018-08-05T08:52:23.000Z</time>
      </trkpt>
      <trkpt lat="45.98951" lon="4.58996">
        <ele>461</ele>
        <time>2018-08-05T08:52:24.000Z</time>
      </trkpt>
      <trkpt lat="45.98952" lon="4.58985">
        <ele>461</ele>
        <time>2018-08-05T08:52:25.000Z</time>
      </trkpt>
      <trkpt lat="45.98952" lon="4.58974">
        <ele>461</ele>
        <time>2018-08-05T08:52:26.000Z</time>
      </trkpt>
      <trkpt lat="45.98951" lon="4.58962">
        <ele>460</ele>
        <time>2018-08-05T08:52:27.000Z</time>
      </trkpt>
      <trkpt lat="45.98951" lon="4.58951">
        <ele>460</ele>
        <time>2018-08-05T08:52:28.000Z</time>
      </trkpt>
      <trkpt lat="45.98952" lon="4.58939">
        <ele>459</ele>
        <time>2018-08-05T08:52:29.000Z</time>
      </trkpt>
      <trkpt lat="45.98953" lon="4.58927">
        <ele>459</ele>
        <time>2018-08-05T08:52:30.000Z</time>
      </trkpt>
      <trkpt lat="45.98954" lon="4.58916">
        <ele>456</ele>
        <time>2018-08-05T08:52:31.000Z</time>
      </trkpt>
      <trkpt lat="45.98955" lon="4.58904">
        <ele>456</ele>
        <time>2018-08-05T08:52:32.000Z</time>
      </trkpt>
      <trkpt lat="45.98957" lon="4.58893">
        <ele>456</ele>
        <time>2018-08-05T08:52:33.000Z</time>
      </trkpt>
      <trkpt lat="45.98959" lon="4.58882">
        <ele>457</ele>
        <time>2018-08-05T08:52:34.000Z</time>
      </trkpt>
      <trkpt lat="45.98961" lon="4.58871">
        <ele>457</ele>
        <time>2018-08-05T08:52:35.000Z</time>
      </trkpt>
      <trkpt lat="45.98963" lon="4.5886">
        <ele>457</ele>
        <time>2018-08-05T08:52:36.000Z</time>
      </trkpt>
      <trkpt lat="45.98966" lon="4.5885">
        <ele>457</ele>
        <time>2018-08-05T08:52:37.000Z</time>
      </trkpt>
      <trkpt lat="45.98969" lon="4.58839">
        <ele>458</ele>
        <time>2018-08-05T08:52:38.000Z</time>
      </trkpt>
      <trkpt lat="45.98972" lon="4.5883">
        <ele>456</ele>
        <time>2018-08-05T08:52:39.000Z</time>
      </trkpt>
      <trkpt lat="45.98975" lon="4.58821">
        <ele>457</ele>
        <time>2018-08-05T08:52:40.000Z</time>
      </trkpt>
      <trkpt lat="45.98978" lon="4.58811">
        <ele>456</ele>
        <time>2018-08-05T08:52:41.000Z</time>
      </trkpt>
      <trkpt lat="45.9898" lon="4.58802">
        <ele>456</ele>
        <time>2018-08-05T08:52:42.000Z</time>
      </trkpt>
      <trkpt lat="45.98982" lon="4.58794">
        <ele>456</ele>
        <time>2018-08-05T08:52:43.000Z</time>
      </trkpt>
      <trkpt lat="45.98985" lon="4.58785">
        <ele>456</ele>
        <time>2018-08-05T08:52:44.000Z</time>
      </trkpt>
      <trkpt lat="45.98987" lon="4.58777">
        <ele>457</ele>
        <time>2018-08-05T08:52:45.000Z</time>
      </trkpt>
      <trkpt lat="45.98988" lon="4.58768">
        <ele>458</ele>
        <time>2018-08-05T08:52:46.000Z</time>
      </trkpt>
      <trkpt lat="45.98989" lon="4.58759">
        <ele>459</ele>
        <time>2018-08-05T08:52:47.000Z</time>
      </trkpt>
      <trkpt lat="45.9899" lon="4.5875">
        <ele>461</ele>
        <time>2018-08-05T08:52:48.000Z</time>
      </trkpt>
      <trkpt lat="45.9899" lon="4.58741">
        <ele>460</ele>
        <time>2018-08-05T08:52:49.000Z</time>
      </trkpt>
      <trkpt lat="45.9899" lon="4.58732">
        <ele>459</ele>
        <time>2018-08-05T08:52:50.000Z</time>
      </trkpt>
      <trkpt lat="45.98989" lon="4.58723">
        <ele>458</ele>
        <time>2018-08-05T08:52:51.000Z</time>
      </trkpt>
      <trkpt lat="45.98987" lon="4.58715">
        <ele>457</ele>
        <time>2018-08-05T08:52:52.000Z</time>
      </trkpt>
      <trkpt lat="45.98986" lon="4.58707">
        <ele>457</ele>
        <time>2018-08-05T08:52:53.000Z</time>
      </trkpt>
      <trkpt lat="45.98984" lon="4.58699">
        <ele>457</ele>
        <time>2018-08-05T08:52:54.000Z</time>
      </trkpt>
      <trkpt lat="45.98982" lon="4.58691">
        <ele>458</ele>
        <time>2018-08-05T08:52:55.000Z</time>
      </trkpt>
      <trkpt lat="45.9898" lon="4.58683">
        <ele>459</ele>
        <time>2018-08-05T08:52:56.000Z</time>
      </trkpt>
      <trkpt lat="45.98978" lon="4.58676">
        <ele>459</ele>
        <time>2018-08-05T08:52:57.000Z</time>
      </trkpt>
      <trkpt lat="45.98977" lon="4.58668">
        <ele>459</ele>
        <time>2018-08-05T08:52:58.000Z</time>
      </trkpt>
      <trkpt lat="45.98975" lon="4.58661">
        <ele>461</ele>
        <time>2018-08-05T08:52:59.000Z</time>
      </trkpt>
      <trkpt lat="45.98973" lon="4.58653">
        <ele>460</ele>
        <time>2018-08-05T08:53:00.000Z</time>
      </trkpt>
      <trkpt lat="45.98972" lon="4.58646">
        <ele>460</ele>
        <time>2018-08-05T08:53:01.000Z</time>
      </trkpt>
      <trkpt lat="45.98971" lon="4.58638">
        <ele>459</ele>
        <time>2018-08-05T08:53:02.000Z</time>
      </trkpt>
      <trkpt lat="45.98969" lon="4.5863">
        <ele>459</ele>
        <time>2018-08-05T08:53:03.000Z</time>
      </trkpt>
      <trkpt lat="45.98968" lon="4.58622">
        <ele>459</ele>
        <time>2018-08-05T08:53:04.000Z</time>
      </trkpt>
      <trkpt lat="45.98967" lon="4.58614">
        <ele>459</ele>
        <time>2018-08-05T08:53:05.000Z</time>
      </trkpt>
      <trkpt lat="45.98965" lon="4.58607">
        <ele>459</ele>
        <time>2018-08-05T08:53:06.000Z</time>
      </trkpt>
      <trkpt lat="45.98964" lon="4.58599">
        <ele>459</ele>
        <time>2018-08-05T08:53:07.000Z</time>
      </trkpt>
      <trkpt lat="45.98963" lon="4.58591">
        <ele>459</ele>
        <time>2018-08-05T08:53:08.000Z</time>
      </trkpt>
      <trkpt lat="45.98962" lon="4.58584">
        <ele>459</ele>
        <time>2018-08-05T08:53:09.000Z</time>
      </trkpt>
      <trkpt lat="45.98961" lon="4.58576">
        <ele>462</ele>
        <time>2018-08-05T08:53:10.000Z</time>
      </trkpt>
      <trkpt lat="45.9896" lon="4.58568">
        <ele>461</ele>
        <time>2018-08-05T08:53:11.000Z</time>
      </trkpt>
      <trkpt lat="45.98959" lon="4.5856">
        <ele>461</ele>
        <time>2018-08-05T08:53:12.000Z</time>
      </trkpt>
      <trkpt lat="45.98958" lon="4.58552">
        <ele>461</ele>
        <time>2018-08-05T08:53:13.000Z</time>
      </trkpt>
      <trkpt lat="45.98957" lon="4.58544">
        <ele>461</ele>
        <time>2018-08-05T08:53:14.000Z</time>
      </trkpt>
      <trkpt lat="45.98956" lon="4.58536">
        <ele>462</ele>
        <time>2018-08-05T08:53:15.000Z</time>
      </trkpt>
      <trkpt lat="45.98955" lon="4.58528">
        <ele>462</ele>
        <time>2018-08-05T08:53:16.000Z</time>
      </trkpt>
      <trkpt lat="45.98954" lon="4.5852">
        <ele>462</ele>
        <time>2018-08-05T08:53:17.000Z</time>
      </trkpt>
      <trkpt lat="45.98953" lon="4.58512">
        <ele>462</ele>
        <time>2018-08-05T08:53:18.000Z</time>
      </trkpt>
      <trkpt lat="45.98952" lon="4.58504">
        <ele>461</ele>
        <time>2018-08-05T08:53:19.000Z</time>
      </trkpt>
      <trkpt lat="45.98952" lon="4.58495">
        <ele>464</ele>
        <time>2018-08-05T08:53:20.000Z</time>
      </trkpt>
      <trkpt lat="45.98951" lon="4.58486">
        <ele>464</ele>
        <time>2018-08-05T08:53:21.000Z</time>
      </trkpt>
      <trkpt lat="45.9895" lon="4.58477">
        <ele>464</ele>
        <time>2018-08-05T08:53:22.000Z</time>
      </trkpt>
      <trkpt lat="45.98949" lon="4.58469">
        <ele>465</ele>
        <time>2018-08-05T08:53:23.000Z</time>
      </trkpt>
      <trkpt lat="45.98948" lon="4.58461">
        <ele>465</ele>
        <time>2018-08-05T08:53:24.000Z</time>
      </trkpt>
      <trkpt lat="45.98947" lon="4.58453">
        <ele>465</ele>
        <time>2018-08-05T08:53:25.000Z</time>
      </trkpt>
      <trkpt lat="45.98946" lon="4.58446">
        <ele>465</ele>
        <time>2018-08-05T08:53:26.000Z</time>
      </trkpt>
      <trkpt lat="45.98946" lon="4.58439">
        <ele>465</ele>
        <time>2018-08-05T08:53:27.000Z</time>
      </trkpt>
      <trkpt lat="45.98945" lon="4.58433">
        <ele>464</ele>
        <time>2018-08-05T08:53:28.000Z</time>
      </trkpt>
      <trkpt lat="45.98944" lon="4.58428">
        <ele>464</ele>
        <time>2018-08-05T08:53:29.000Z</time>
      </trkpt>
      <trkpt lat="45.98943" lon="4.58423">
        <ele>464</ele>
        <time>2018-08-05T08:53:30.000Z</time>
      </trkpt>
      <trkpt lat="45.98942" lon="4.58418">
        <ele>464</ele>
        <time>2018-08-05T08:53:31.000Z</time>
      </trkpt>
      <trkpt lat="45.98942" lon="4.58413">
        <ele>467</ele>
        <time>2018-08-05T08:53:32.000Z</time>
      </trkpt>
      <trkpt lat="45.98941" lon="4.58407">
        <ele>467</ele>
        <time>2018-08-05T08:53:33.000Z</time>
      </trkpt>
      <trkpt lat="45.9894" lon="4.58402">
        <ele>467</ele>
        <time>2018-08-05T08:53:34.000Z</time>
      </trkpt>
      <trkpt lat="45.98939" lon="4.58396">
        <ele>467</ele>
        <time>2018-08-05T08:53:35.000Z</time>
      </trkpt>
      <trkpt lat="45.98937" lon="4.58391">
        <ele>467</ele>
        <time>2018-08-05T08:53:36.000Z</time>
      </trkpt>
      <trkpt lat="45.98936" lon="4.58386">
        <ele>468</ele>
        <time>2018-08-05T08:53:37.000Z</time>
      </trkpt>
      <trkpt lat="45.98935" lon="4.5838">
        <ele>468</ele>
        <time>2018-08-05T08:53:38.000Z</time>
      </trkpt>
      <trkpt lat="45.98934" lon="4.58374">
        <ele>468</ele>
        <time>2018-08-05T08:53:39.000Z</time>
      </trkpt>
      <trkpt lat="45.98933" lon="4.58369">
        <ele>468</ele>
        <time>2018-08-05T08:53:40.000Z</time>
      </trkpt>
      <trkpt lat="45.98932" lon="4.58364">
        <ele>468</ele>
        <time>2018-08-05T08:53:41.000Z</time>
      </trkpt>
      <trkpt lat="45.9893" lon="4.58359">
        <ele>468</ele>
        <time>2018-08-05T08:53:42.000Z</time>
      </trkpt>
      <trkpt lat="45.98929" lon="4.58354">
        <ele>467</ele>
        <time>2018-08-05T08:53:43.000Z</time>
      </trkpt>
      <trkpt lat="45.98928" lon="4.58349">
        <ele>467</ele>
        <time>2018-08-05T08:53:44.000Z</time>
      </trkpt>
      <trkpt lat="45.98927" lon="4.58343">
        <ele>466</ele>
        <time>2018-08-05T08:53:45.000Z</time>
      </trkpt>
      <trkpt lat="45.98925" lon="4.58338">
        <ele>465</ele>
        <time>2018-08-05T08:53:46.000Z</time>
      </trkpt>
      <trkpt lat="45.98923" lon="4.58331">
        <ele>467</ele>
        <time>2018-08-05T08:53:47.000Z</time>
      </trkpt>
      <trkpt lat="45.98922" lon="4.58325">
        <ele>469</ele>
        <time>2018-08-05T08:53:48.000Z</time>
      </trkpt>
      <trkpt lat="45.9892" lon="4.58319">
        <ele>472</ele>
        <time>2018-08-05T08:53:49.000Z</time>
      </trkpt>
      <trkpt lat="45.98919" lon="4.58312">
        <ele>474</ele>
        <time>2018-08-05T08:53:50.000Z</time>
      </trkpt>
      <trkpt lat="45.98917" lon="4.58305">
        <ele>467</ele>
        <time>2018-08-05T08:53:51.000Z</time>
      </trkpt>
      <trkpt lat="45.98915" lon="4.58299">
        <ele>467</ele>
        <time>2018-08-05T08:53:52.000Z</time>
      </trkpt>
      <trkpt lat="45.98913" lon="4.58292">
        <ele>468</ele>
        <time>2018-08-05T08:53:53.000Z</time>
      </trkpt>
      <trkpt lat="45.98911" lon="4.58286">
        <ele>469</ele>
        <time>2018-08-05T08:53:54.000Z</time>
      </trkpt>
      <trkpt lat="45.9891" lon="4.58279">
        <ele>470</ele>
        <time>2018-08-05T08:53:55.000Z</time>
      </trkpt>
      <trkpt lat="45.98908" lon="4.58273">
        <ele>471</ele>
        <time>2018-08-05T08:53:56.000Z</time>
      </trkpt>
      <trkpt lat="45.98906" lon="4.58266">
        <ele>472</ele>
        <time>2018-08-05T08:53:57.000Z</time>
      </trkpt>
      <trkpt lat="45.98905" lon="4.58259">
        <ele>473</ele>
        <time>2018-08-05T08:53:58.000Z</time>
      </trkpt>
      <trkpt lat="45.98903" lon="4.58253">
        <ele>473</ele>
        <time>2018-08-05T08:53:59.000Z</time>
      </trkpt>
      <trkpt lat="45.98901" lon="4.58247">
        <ele>477</ele>
        <time>2018-08-05T08:54:00.000Z</time>
      </trkpt>
      <trkpt lat="45.989" lon="4.58241">
        <ele>477</ele>
        <time>2018-08-05T08:54:01.000Z</time>
      </trkpt>
      <trkpt lat="45.98898" lon="4.58234">
        <ele>477</ele>
        <time>2018-08-05T08:54:02.000Z</time>
      </trkpt>
      <trkpt lat="45.98897" lon="4.58228">
        <ele>477</ele>
        <time>2018-08-05T08:54:03.000Z</time>
      </trkpt>
      <trkpt lat="45.98895" lon="4.58221">
        <ele>477</ele>
        <time>2018-08-05T08:54:04.000Z</time>
      </trkpt>
      <trkpt lat="45.98893" lon="4.58215">
        <ele>477</ele>
        <time>2018-08-05T08:54:05.000Z</time>
      </trkpt>
      <trkpt lat="45.98892" lon="4.58208">
        <ele>477</ele>
        <time>2018-08-05T08:54:06.000Z</time>
      </trkpt>
      <trkpt lat="45.9889" lon="4.58201">
        <ele>477</ele>
        <time>2018-08-05T08:54:07.000Z</time>
      </trkpt>
      <trkpt lat="45.98889" lon="4.58194">
        <ele>478</ele>
        <time>2018-08-05T08:54:08.000Z</time>
      </trkpt>
      <trkpt lat="45.98887" lon="4.58187">
        <ele>478</ele>
        <time>2018-08-05T08:54:09.000Z</time>
      </trkpt>
      <trkpt lat="45.98885" lon="4.58181">
        <ele>478</ele>
        <time>2018-08-05T08:54:10.000Z</time>
      </trkpt>
      <trkpt lat="45.98882" lon="4.58175">
        <ele>478</ele>
        <time>2018-08-05T08:54:11.000Z</time>
      </trkpt>
      <trkpt lat="45.98879" lon="4.58169">
        <ele>478</ele>
        <time>2018-08-05T08:54:12.000Z</time>
      </trkpt>
      <trkpt lat="45.98875" lon="4.58164">
        <ele>481</ele>
        <time>2018-08-05T08:54:13.000Z</time>
      </trkpt>
      <trkpt lat="45.98871" lon="4.58161">
        <ele>481</ele>
        <time>2018-08-05T08:54:14.000Z</time>
      </trkpt>
      <trkpt lat="45.98867" lon="4.58158">
        <ele>481</ele>
        <time>2018-08-05T08:54:15.000Z</time>
      </trkpt>
      <trkpt lat="45.98862" lon="4.58156">
        <ele>480</ele>
        <time>2018-08-05T08:54:16.000Z</time>
      </trkpt>
      <trkpt lat="45.98858" lon="4.58156">
        <ele>480</ele>
        <time>2018-08-05T08:54:17.000Z</time>
      </trkpt>
      <trkpt lat="45.98853" lon="4.58157">
        <ele>479</ele>
        <time>2018-08-05T08:54:18.000Z</time>
      </trkpt>
      <trkpt lat="45.98849" lon="4.58158">
        <ele>478</ele>
        <time>2018-08-05T08:54:19.000Z</time>
      </trkpt>
      <trkpt lat="45.98845" lon="4.58161">
        <ele>477</ele>
        <time>2018-08-05T08:54:20.000Z</time>
      </trkpt>
      <trkpt lat="45.98842" lon="4.58165">
        <ele>477</ele>
        <time>2018-08-05T08:54:21.000Z</time>
      </trkpt>
      <trkpt lat="45.98839" lon="4.58169">
        <ele>474</ele>
        <time>2018-08-05T08:54:22.000Z</time>
      </trkpt>
      <trkpt lat="45.98836" lon="4.58175">
        <ele>475</ele>
        <time>2018-08-05T08:54:23.000Z</time>
      </trkpt>
      <trkpt lat="45.98835" lon="4.58181">
        <ele>475</ele>
        <time>2018-08-05T08:54:24.000Z</time>
      </trkpt>
      <trkpt lat="45.98833" lon="4.58186">
        <ele>476</ele>
        <time>2018-08-05T08:54:25.000Z</time>
      </trkpt>
      <trkpt lat="45.98832" lon="4.58191">
        <ele>477</ele>
        <time>2018-08-05T08:54:26.000Z</time>
      </trkpt>
      <trkpt lat="45.9883" lon="4.58197">
        <ele>477</ele>
        <time>2018-08-05T08:54:27.000Z</time>
      </trkpt>
      <trkpt lat="45.98829" lon="4.58202">
        <ele>476</ele>
        <time>2018-08-05T08:54:28.000Z</time>
      </trkpt>
      <trkpt lat="45.98827" lon="4.58208">
        <ele>476</ele>
        <time>2018-08-05T08:54:29.000Z</time>
      </trkpt>
      <trkpt lat="45.98825" lon="4.58214">
        <ele>476</ele>
        <time>2018-08-05T08:54:30.000Z</time>
      </trkpt>
      <trkpt lat="45.98823" lon="4.58219">
        <ele>475</ele>
        <time>2018-08-05T08:54:31.000Z</time>
      </trkpt>
      <trkpt lat="45.98822" lon="4.58225">
        <ele>475</ele>
        <time>2018-08-05T08:54:32.000Z</time>
      </trkpt>
      <trkpt lat="45.9882" lon="4.5823">
        <ele>474</ele>
        <time>2018-08-05T08:54:33.000Z</time>
      </trkpt>
      <trkpt lat="45.98818" lon="4.58236">
        <ele>474</ele>
        <time>2018-08-05T08:54:34.000Z</time>
      </trkpt>
      <trkpt lat="45.98815" lon="4.58241">
        <ele>474</ele>
        <time>2018-08-05T08:54:35.000Z</time>
      </trkpt>
      <trkpt lat="45.98813" lon="4.58246">
        <ele>474</ele>
        <time>2018-08-05T08:54:36.000Z</time>
      </trkpt>
      <trkpt lat="45.98811" lon="4.58251">
        <ele>470</ele>
        <time>2018-08-05T08:54:37.000Z</time>
      </trkpt>
      <trkpt lat="45.98809" lon="4.58257">
        <ele>470</ele>
        <time>2018-08-05T08:54:38.000Z</time>
      </trkpt>
      <trkpt lat="45.98806" lon="4.58262">
        <ele>470</ele>
        <time>2018-08-05T08:54:39.000Z</time>
      </trkpt>
      <trkpt lat="45.98804" lon="4.58267">
        <ele>471</ele>
        <time>2018-08-05T08:54:40.000Z</time>
      </trkpt>
      <trkpt lat="45.98802" lon="4.58272">
        <ele>471</ele>
        <time>2018-08-05T08:54:41.000Z</time>
      </trkpt>
      <trkpt lat="45.988" lon="4.58277">
        <ele>471</ele>
        <time>2018-08-05T08:54:42.000Z</time>
      </trkpt>
      <trkpt lat="45.98798" lon="4.58282">
        <ele>471</ele>
        <time>2018-08-05T08:54:43.000Z</time>
      </trkpt>
      <trkpt lat="45.98795" lon="4.58286">
        <ele>471</ele>
        <time>2018-08-05T08:54:44.000Z</time>
      </trkpt>
      <trkpt lat="45.98793" lon="4.58291">
        <ele>471</ele>
        <time>2018-08-05T08:54:45.000Z</time>
      </trkpt>
      <trkpt lat="45.98791" lon="4.58295">
        <ele>471</ele>
        <time>2018-08-05T08:54:46.000Z</time>
      </trkpt>
      <trkpt lat="45.98789" lon="4.58299">
        <ele>471</ele>
        <time>2018-08-05T08:54:47.000Z</time>
      </trkpt>
      <trkpt lat="45.98787" lon="4.58303">
        <ele>471</ele>
        <time>2018-08-05T08:54:48.000Z</time>
      </trkpt>
      <trkpt lat="45.98785" lon="4.58307">
        <ele>471</ele>
        <time>2018-08-05T08:54:49.000Z</time>
      </trkpt>
      <trkpt lat="45.98782" lon="4.5831">
        <ele>471</ele>
        <time>2018-08-05T08:54:50.000Z</time>
      </trkpt>
      <trkpt lat="45.9878" lon="4.58314">
        <ele>471</ele>
        <time>2018-08-05T08:54:51.000Z</time>
      </trkpt>
      <trkpt lat="45.98777" lon="4.58318">
        <ele>472</ele>
        <time>2018-08-05T08:54:52.000Z</time>
      </trkpt>
      <trkpt lat="45.98775" lon="4.58322">
        <ele>472</ele>
        <time>2018-08-05T08:54:53.000Z</time>
      </trkpt>
      <trkpt lat="45.98772" lon="4.58326">
        <ele>472</ele>
        <time>2018-08-05T08:54:54.000Z</time>
      </trkpt>
      <trkpt lat="45.9877" lon="4.5833">
        <ele>472</ele>
        <time>2018-08-05T08:54:55.000Z</time>
      </trkpt>
      <trkpt lat="45.98768" lon="4.58334">
        <ele>471</ele>
        <time>2018-08-05T08:54:56.000Z</time>
      </trkpt>
      <trkpt lat="45.98765" lon="4.58338">
        <ele>471</ele>
        <time>2018-08-05T08:54:57.000Z</time>
      </trkpt>
      <trkpt lat="45.98762" lon="4.58342">
        <ele>471</ele>
        <time>2018-08-05T08:54:58.000Z</time>
      </trkpt>
      <trkpt lat="45.9876" lon="4.58346">
        <ele>471</ele>
        <time>2018-08-05T08:54:59.000Z</time>
      </trkpt>
      <trkpt lat="45.98758" lon="4.5835">
        <ele>471</ele>
        <time>2018-08-05T08:55:00.000Z</time>
      </trkpt>
      <trkpt lat="45.98756" lon="4.58354">
        <ele>470</ele>
        <time>2018-08-05T08:55:01.000Z</time>
      </trkpt>
      <trkpt lat="45.98753" lon="4.58357">
        <ele>470</ele>
        <time>2018-08-05T08:55:02.000Z</time>
      </trkpt>
      <trkpt lat="45.98751" lon="4.58361">
        <ele>470</ele>
        <time>2018-08-05T08:55:03.000Z</time>
      </trkpt>
      <trkpt lat="45.98749" lon="4.58365">
        <ele>476</ele>
        <time>2018-08-05T08:55:04.000Z</time>
      </trkpt>
      <trkpt lat="45.98746" lon="4.58369">
        <ele>476</ele>
        <time>2018-08-05T08:55:05.000Z</time>
      </trkpt>
      <trkpt lat="45.98744" lon="4.58372">
        <ele>476</ele>
        <time>2018-08-05T08:55:06.000Z</time>
      </trkpt>
      <trkpt lat="45.98741" lon="4.58376">
        <ele>476</ele>
        <time>2018-08-05T08:55:07.000Z</time>
      </trkpt>
      <trkpt lat="45.98739" lon="4.58379">
        <ele>476</ele>
        <time>2018-08-05T08:55:08.000Z</time>
      </trkpt>
      <trkpt lat="45.98736" lon="4.58382">
        <ele>476</ele>
        <time>2018-08-05T08:55:09.000Z</time>
      </trkpt>
      <trkpt lat="45.98733" lon="4.58384">
        <ele>476</ele>
        <time>2018-08-05T08:55:10.000Z</time>
      </trkpt>
      <trkpt lat="45.98731" lon="4.58386">
        <ele>476</ele>
        <time>2018-08-05T08:55:11.000Z</time>
      </trkpt>
      <trkpt lat="45.98728" lon="4.58388">
        <ele>476</ele>
        <time>2018-08-05T08:55:12.000Z</time>
      </trkpt>
      <trkpt lat="45.98725" lon="4.58389">
        <ele>476</ele>
        <time>2018-08-05T08:55:13.000Z</time>
      </trkpt>
      <trkpt lat="45.98723" lon="4.58391">
        <ele>476</ele>
        <time>2018-08-05T08:55:14.000Z</time>
      </trkpt>
      <trkpt lat="45.9872" lon="4.58393">
        <ele>476</ele>
        <time>2018-08-05T08:55:15.000Z</time>
      </trkpt>
      <trkpt lat="45.98718" lon="4.58395">
        <ele>476</ele>
        <time>2018-08-05T08:55:16.000Z</time>
      </trkpt>
      <trkpt lat="45.98715" lon="4.58397">
        <ele>476</ele>
        <time>2018-08-05T08:55:17.000Z</time>
      </trkpt>
      <trkpt lat="45.98712" lon="4.58399">
        <ele>477</ele>
        <time>2018-08-05T08:55:18.000Z</time>
      </trkpt>
      <trkpt lat="45.98709" lon="4.58401">
        <ele>477</ele>
        <time>2018-08-05T08:55:19.000Z</time>
      </trkpt>
      <trkpt lat="45.98707" lon="4.58404">
        <ele>477</ele>
        <time>2018-08-05T08:55:20.000Z</time>
      </trkpt>
      <trkpt lat="45.98704" lon="4.58406">
        <ele>477</ele>
        <time>2018-08-05T08:55:21.000Z</time>
      </trkpt>
      <trkpt lat="45.98701" lon="4.58408">
        <ele>477</ele>
        <time>2018-08-05T08:55:22.000Z</time>
      </trkpt>
      <trkpt lat="45.98698" lon="4.5841">
        <ele>477</ele>
        <time>2018-08-05T08:55:23.000Z</time>
      </trkpt>
      <trkpt lat="45.98695" lon="4.58412">
        <ele>478</ele>
        <time>2018-08-05T08:55:24.000Z</time>
      </trkpt>
      <trkpt lat="45.98692" lon="4.58414">
        <ele>478</ele>
        <time>2018-08-05T08:55:25.000Z</time>
      </trkpt>
      <trkpt lat="45.98689" lon="4.58416">
        <ele>478</ele>
        <time>2018-08-05T08:55:26.000Z</time>
      </trkpt>
      <trkpt lat="45.98686" lon="4.58417">
        <ele>475</ele>
        <time>2018-08-05T08:55:27.000Z</time>
      </trkpt>
      <trkpt lat="45.98683" lon="4.5842">
        <ele>475</ele>
        <time>2018-08-05T08:55:28.000Z</time>
      </trkpt>
      <trkpt lat="45.9868" lon="4.58422">
        <ele>476</ele>
        <time>2018-08-05T08:55:29.000Z</time>
      </trkpt>
      <trkpt lat="45.98677" lon="4.58424">
        <ele>476</ele>
        <time>2018-08-05T08:55:30.000Z</time>
      </trkpt>
      <trkpt lat="45.98675" lon="4.58426">
        <ele>476</ele>
        <time>2018-08-05T08:55:31.000Z</time>
      </trkpt>
      <trkpt lat="45.98672" lon="4.58429">
        <ele>476</ele>
        <time>2018-08-05T08:55:32.000Z</time>
      </trkpt>
      <trkpt lat="45.98669" lon="4.58431">
        <ele>476</ele>
        <time>2018-08-05T08:55:33.000Z</time>
      </trkpt>
      <trkpt lat="45.98666" lon="4.58432">
        <ele>479</ele>
        <time>2018-08-05T08:55:34.000Z</time>
      </trkpt>
      <trkpt lat="45.98664" lon="4.58434">
        <ele>479</ele>
        <time>2018-08-05T08:55:35.000Z</time>
      </trkpt>
      <trkpt lat="45.98661" lon="4.58436">
        <ele>479</ele>
        <time>2018-08-05T08:55:36.000Z</time>
      </trkpt>
      <trkpt lat="45.98658" lon="4.58438">
        <ele>479</ele>
        <time>2018-08-05T08:55:37.000Z</time>
      </trkpt>
      <trkpt lat="45.98655" lon="4.5844">
        <ele>479</ele>
        <time>2018-08-05T08:55:38.000Z</time>
      </trkpt>
      <trkpt lat="45.98652" lon="4.58443">
        <ele>479</ele>
        <time>2018-08-05T08:55:39.000Z</time>
      </trkpt>
      <trkpt lat="45.9865" lon="4.58445">
        <ele>479</ele>
        <time>2018-08-05T08:55:40.000Z</time>
      </trkpt>
      <trkpt lat="45.98647" lon="4.58447">
        <ele>479</ele>
        <time>2018-08-05T08:55:41.000Z</time>
      </trkpt>
      <trkpt lat="45.98644" lon="4.5845">
        <ele>479</ele>
        <time>2018-08-05T08:55:42.000Z</time>
      </trkpt>
      <trkpt lat="45.98641" lon="4.58452">
        <ele>479</ele>
        <time>2018-08-05T08:55:43.000Z</time>
      </trkpt>
      <trkpt lat="45.98638" lon="4.58455">
        <ele>479</ele>
        <time>2018-08-05T08:55:44.000Z</time>
      </trkpt>
      <trkpt lat="45.98635" lon="4.58457">
        <ele>479</ele>
        <time>2018-08-05T08:55:45.000Z</time>
      </trkpt>
      <trkpt lat="45.98632" lon="4.58459">
        <ele>479</ele>
        <time>2018-08-05T08:55:46.000Z</time>
      </trkpt>
      <trkpt lat="45.98628" lon="4.5846">
        <ele>480</ele>
        <time>2018-08-05T08:55:47.000Z</time>
      </trkpt>
      <trkpt lat="45.98625" lon="4.58462">
        <ele>480</ele>
        <time>2018-08-05T08:55:48.000Z</time>
      </trkpt>
      <trkpt lat="45.98622" lon="4.58463">
        <ele>480</ele>
        <time>2018-08-05T08:55:49.000Z</time>
      </trkpt>
      <trkpt lat="45.98618" lon="4.58465">
        <ele>480</ele>
        <time>2018-08-05T08:55:50.000Z</time>
      </trkpt>
      <trkpt lat="45.98615" lon="4.58466">
        <ele>480</ele>
        <time>2018-08-05T08:55:51.000Z</time>
      </trkpt>
      <trkpt lat="45.98611" lon="4.58467">
        <ele>480</ele>
        <time>2018-08-05T08:55:52.000Z</time>
      </trkpt>
      <trkpt lat="45.98608" lon="4.58468">
        <ele>480</ele>
        <time>2018-08-05T08:55:53.000Z</time>
      </trkpt>
      <trkpt lat="45.98605" lon="4.5847">
        <ele>480</ele>
        <time>2018-08-05T08:55:54.000Z</time>
      </trkpt>
      <trkpt lat="45.98601" lon="4.58471">
        <ele>481</ele>
        <time>2018-08-05T08:55:55.000Z</time>
      </trkpt>
      <trkpt lat="45.98597" lon="4.58472">
        <ele>481</ele>
        <time>2018-08-05T08:55:56.000Z</time>
      </trkpt>
      <trkpt lat="45.98594" lon="4.58474">
        <ele>481</ele>
        <time>2018-08-05T08:55:57.000Z</time>
      </trkpt>
      <trkpt lat="45.9859" lon="4.58476">
        <ele>481</ele>
        <time>2018-08-05T08:55:58.000Z</time>
      </trkpt>
      <trkpt lat="45.98587" lon="4.58478">
        <ele>481</ele>
        <time>2018-08-05T08:55:59.000Z</time>
      </trkpt>
      <trkpt lat="45.98583" lon="4.5848">
        <ele>487</ele>
        <time>2018-08-05T08:56:00.000Z</time>
      </trkpt>
      <trkpt lat="45.9858" lon="4.58482">
        <ele>487</ele>
        <time>2018-08-05T08:56:01.000Z</time>
      </trkpt>
      <trkpt lat="45.98577" lon="4.58485">
        <ele>487</ele>
        <time>2018-08-05T08:56:02.000Z</time>
      </trkpt>
      <trkpt lat="45.98574" lon="4.58488">
        <ele>487</ele>
        <time>2018-08-05T08:56:03.000Z</time>
      </trkpt>
      <trkpt lat="45.98571" lon="4.58491">
        <ele>487</ele>
        <time>2018-08-05T08:56:04.000Z</time>
      </trkpt>
      <trkpt lat="45.98569" lon="4.58495">
        <ele>487</ele>
        <time>2018-08-05T08:56:05.000Z</time>
      </trkpt>
      <trkpt lat="45.98566" lon="4.58498">
        <ele>487</ele>
        <time>2018-08-05T08:56:06.000Z</time>
      </trkpt>
      <trkpt lat="45.98563" lon="4.58502">
        <ele>485</ele>
        <time>2018-08-05T08:56:07.000Z</time>
      </trkpt>
      <trkpt lat="45.98561" lon="4.58505">
        <ele>485</ele>
        <time>2018-08-05T08:56:08.000Z</time>
      </trkpt>
      <trkpt lat="45.98558" lon="4.58509">
        <ele>486</ele>
        <time>2018-08-05T08:56:09.000Z</time>
      </trkpt>
      <trkpt lat="45.98556" lon="4.58514">
        <ele>486</ele>
        <time>2018-08-05T08:56:10.000Z</time>
      </trkpt>
      <trkpt lat="45.98554" lon="4.58518">
        <ele>486</ele>
        <time>2018-08-05T08:56:11.000Z</time>
      </trkpt>
      <trkpt lat="45.98552" lon="4.58522">
        <ele>486</ele>
        <time>2018-08-05T08:56:12.000Z</time>
      </trkpt>
      <trkpt lat="45.9855" lon="4.58526">
        <ele>486</ele>
        <time>2018-08-05T08:56:13.000Z</time>
      </trkpt>
      <trkpt lat="45.98548" lon="4.5853">
        <ele>486</ele>
        <time>2018-08-05T08:56:14.000Z</time>
      </trkpt>
      <trkpt lat="45.98546" lon="4.58534">
        <ele>487</ele>
        <time>2018-08-05T08:56:15.000Z</time>
      </trkpt>
      <trkpt lat="45.98544" lon="4.58538">
        <ele>487</ele>
        <time>2018-08-05T08:56:16.000Z</time>
      </trkpt>
      <trkpt lat="45.98542" lon="4.58542">
        <ele>487</ele>
        <time>2018-08-05T08:56:17.000Z</time>
      </trkpt>
      <trkpt lat="45.98541" lon="4.58546">
        <ele>487</ele>
        <time>2018-08-05T08:56:18.000Z</time>
      </trkpt>
      <trkpt lat="45.98539" lon="4.5855">
        <ele>487</ele>
        <time>2018-08-05T08:56:19.000Z</time>
      </trkpt>
      <trkpt lat="45.98537" lon="4.58553">
        <ele>487</ele>
        <time>2018-08-05T08:56:20.000Z</time>
      </trkpt>
      <trkpt lat="45.98535" lon="4.58557">
        <ele>487</ele>
        <time>2018-08-05T08:56:21.000Z</time>
      </trkpt>
      <trkpt lat="45.98533" lon="4.58561">
        <ele>487</ele>
        <time>2018-08-05T08:56:22.000Z</time>
      </trkpt>
      <trkpt lat="45.98531" lon="4.58565">
        <ele>487</ele>
        <time>2018-08-05T08:56:23.000Z</time>
      </trkpt>
      <trkpt lat="45.9853" lon="4.58569">
        <ele>488</ele>
        <time>2018-08-05T08:56:24.000Z</time>
      </trkpt>
      <trkpt lat="45.98528" lon="4.58572">
        <ele>488</ele>
        <time>2018-08-05T08:56:25.000Z</time>
      </trkpt>
      <trkpt lat="45.98526" lon="4.58576">
        <ele>488</ele>
        <time>2018-08-05T08:56:26.000Z</time>
      </trkpt>
      <trkpt lat="45.98524" lon="4.5858">
        <ele>489</ele>
        <time>2018-08-05T08:56:27.000Z</time>
      </trkpt>
      <trkpt lat="45.98522" lon="4.58584">
        <ele>487</ele>
        <time>2018-08-05T08:56:28.000Z</time>
      </trkpt>
      <trkpt lat="45.9852" lon="4.58587">
        <ele>487</ele>
        <time>2018-08-05T08:56:29.000Z</time>
      </trkpt>
      <trkpt lat="45.98518" lon="4.58591">
        <ele>487</ele>
        <time>2018-08-05T08:56:30.000Z</time>
      </trkpt>
      <trkpt lat="45.98515" lon="4.58595">
        <ele>487</ele>
        <time>2018-08-05T08:56:31.000Z</time>
      </trkpt>
      <trkpt lat="45.98513" lon="4.58598">
        <ele>487</ele>
        <time>2018-08-05T08:56:32.000Z</time>
      </trkpt>
      <trkpt lat="45.98511" lon="4.58602">
        <ele>487</ele>
        <time>2018-08-05T08:56:33.000Z</time>
      </trkpt>
      <trkpt lat="45.98509" lon="4.58605">
        <ele>487</ele>
        <time>2018-08-05T08:56:34.000Z</time>
      </trkpt>
      <trkpt lat="45.98506" lon="4.58608">
        <ele>487</ele>
        <time>2018-08-05T08:56:35.000Z</time>
      </trkpt>
      <trkpt lat="45.98503" lon="4.58612">
        <ele>487</ele>
        <time>2018-08-05T08:56:36.000Z</time>
      </trkpt>
      <trkpt lat="45.98501" lon="4.58615">
        <ele>487</ele>
        <time>2018-08-05T08:56:37.000Z</time>
      </trkpt>
      <trkpt lat="45.98499" lon="4.58618">
        <ele>494</ele>
        <time>2018-08-05T08:56:38.000Z</time>
      </trkpt>
      <trkpt lat="45.98496" lon="4.58621">
        <ele>494</ele>
        <time>2018-08-05T08:56:39.000Z</time>
      </trkpt>
      <trkpt lat="45.98493" lon="4.58623">
        <ele>494</ele>
        <time>2018-08-05T08:56:40.000Z</time>
      </trkpt>
      <trkpt lat="45.9849" lon="4.58625">
        <ele>494</ele>
        <time>2018-08-05T08:56:41.000Z</time>
      </trkpt>
      <trkpt lat="45.98488" lon="4.58627">
        <ele>494</ele>
        <time>2018-08-05T08:56:42.000Z</time>
      </trkpt>
      <trkpt lat="45.98485" lon="4.58629">
        <ele>494</ele>
        <time>2018-08-05T08:56:43.000Z</time>
      </trkpt>
      <trkpt lat="45.98482" lon="4.58631">
        <ele>494</ele>
        <time>2018-08-05T08:56:44.000Z</time>
      </trkpt>
      <trkpt lat="45.9848" lon="4.58633">
        <ele>494</ele>
        <time>2018-08-05T08:56:45.000Z</time>
      </trkpt>
      <trkpt lat="45.98477" lon="4.58634">
        <ele>494</ele>
        <time>2018-08-05T08:56:46.000Z</time>
      </trkpt>
      <trkpt lat="45.98474" lon="4.58636">
        <ele>494</ele>
        <time>2018-08-05T08:56:47.000Z</time>
      </trkpt>
      <trkpt lat="45.98471" lon="4.58637">
        <ele>495</ele>
        <time>2018-08-05T08:56:48.000Z</time>
      </trkpt>
      <trkpt lat="45.98468" lon="4.58639">
        <ele>495</ele>
        <time>2018-08-05T08:56:49.000Z</time>
      </trkpt>
      <trkpt lat="45.98465" lon="4.5864">
        <ele>495</ele>
        <time>2018-08-05T08:56:50.000Z</time>
      </trkpt>
      <trkpt lat="45.98461" lon="4.58641">
        <ele>495</ele>
        <time>2018-08-05T08:56:51.000Z</time>
      </trkpt>
      <trkpt lat="45.98458" lon="4.58642">
        <ele>495</ele>
        <time>2018-08-05T08:56:52.000Z</time>
      </trkpt>
      <trkpt lat="45.98455" lon="4.58643">
        <ele>495</ele>
        <time>2018-08-05T08:56:53.000Z</time>
      </trkpt>
      <trkpt lat="45.98452" lon="4.58644">
        <ele>495</ele>
        <time>2018-08-05T08:56:54.000Z</time>
      </trkpt>
      <trkpt lat="45.98448" lon="4.58644">
        <ele>495</ele>
        <time>2018-08-05T08:56:55.000Z</time>
      </trkpt>
      <trkpt lat="45.98445" lon="4.58645">
        <ele>496</ele>
        <time>2018-08-05T08:56:56.000Z</time>
      </trkpt>
      <trkpt lat="45.98441" lon="4.58646">
        <ele>496</ele>
        <time>2018-08-05T08:56:57.000Z</time>
      </trkpt>
      <trkpt lat="45.98438" lon="4.58646">
        <ele>496</ele>
        <time>2018-08-05T08:56:58.000Z</time>
      </trkpt>
      <trkpt lat="45.98435" lon="4.58647">
        <ele>496</ele>
        <time>2018-08-05T08:56:59.000Z</time>
      </trkpt>
      <trkpt lat="45.98431" lon="4.58648">
        <ele>496</ele>
        <time>2018-08-05T08:57:00.000Z</time>
      </trkpt>
      <trkpt lat="45.98428" lon="4.58648">
        <ele>496</ele>
        <time>2018-08-05T08:57:01.000Z</time>
      </trkpt>
      <trkpt lat="45.98424" lon="4.58649">
        <ele>496</ele>
        <time>2018-08-05T08:57:02.000Z</time>
      </trkpt>
      <trkpt lat="45.98421" lon="4.58649">
        <ele>496</ele>
        <time>2018-08-05T08:57:03.000Z</time>
      </trkpt>
      <trkpt lat="45.98417" lon="4.58649">
        <ele>496</ele>
        <time>2018-08-05T08:57:04.000Z</time>
      </trkpt>
      <trkpt lat="45.98414" lon="4.5865">
        <ele>499</ele>
        <time>2018-08-05T08:57:05.000Z</time>
      </trkpt>
      <trkpt lat="45.9841" lon="4.5865">
        <ele>499</ele>
        <time>2018-08-05T08:57:06.000Z</time>
      </trkpt>
      <trkpt lat="45.98407" lon="4.5865">
        <ele>500</ele>
        <time>2018-08-05T08:57:07.000Z</time>
      </trkpt>
      <trkpt lat="45.98403" lon="4.5865">
        <ele>500</ele>
        <time>2018-08-05T08:57:08.000Z</time>
      </trkpt>
      <trkpt lat="45.984" lon="4.58651">
        <ele>500</ele>
        <time>2018-08-05T08:57:09.000Z</time>
      </trkpt>
      <trkpt lat="45.98396" lon="4.58651">
        <ele>500</ele>
        <time>2018-08-05T08:57:10.000Z</time>
      </trkpt>
      <trkpt lat="45.98393" lon="4.58652">
        <ele>501</ele>
        <time>2018-08-05T08:57:11.000Z</time>
      </trkpt>
      <trkpt lat="45.98389" lon="4.58652">
        <ele>501</ele>
        <time>2018-08-05T08:57:12.000Z</time>
      </trkpt>
      <trkpt lat="45.98386" lon="4.58653">
        <ele>501</ele>
        <time>2018-08-05T08:57:13.000Z</time>
      </trkpt>
      <trkpt lat="45.98383" lon="4.58653">
        <ele>501</ele>
        <time>2018-08-05T08:57:14.000Z</time>
      </trkpt>
      <trkpt lat="45.98379" lon="4.58654">
        <ele>501</ele>
        <time>2018-08-05T08:57:15.000Z</time>
      </trkpt>
      <trkpt lat="45.98376" lon="4.58654">
        <ele>502</ele>
        <time>2018-08-05T08:57:16.000Z</time>
      </trkpt>
      <trkpt lat="45.98372" lon="4.58655">
        <ele>502</ele>
        <time>2018-08-05T08:57:17.000Z</time>
      </trkpt>
      <trkpt lat="45.98369" lon="4.58655">
        <ele>502</ele>
        <time>2018-08-05T08:57:18.000Z</time>
      </trkpt>
      <trkpt lat="45.98366" lon="4.58656">
        <ele>502</ele>
        <time>2018-08-05T08:57:19.000Z</time>
      </trkpt>
      <trkpt lat="45.98363" lon="4.58656">
        <ele>502</ele>
        <time>2018-08-05T08:57:20.000Z</time>
      </trkpt>
      <trkpt lat="45.9836" lon="4.58657">
        <ele>502</ele>
        <time>2018-08-05T08:57:21.000Z</time>
      </trkpt>
      <trkpt lat="45.98357" lon="4.58657">
        <ele>502</ele>
        <time>2018-08-05T08:57:22.000Z</time>
      </trkpt>
      <trkpt lat="45.98354" lon="4.58657">
        <ele>502</ele>
        <time>2018-08-05T08:57:23.000Z</time>
      </trkpt>
      <trkpt lat="45.98352" lon="4.58658">
        <ele>502</ele>
        <time>2018-08-05T08:57:24.000Z</time>
      </trkpt>
      <trkpt lat="45.9835" lon="4.58658">
        <ele>502</ele>
        <time>2018-08-05T08:57:25.000Z</time>
      </trkpt>
      <trkpt lat="45.98348" lon="4.58659">
        <ele>502</ele>
        <time>2018-08-05T08:57:26.000Z</time>
      </trkpt>
      <trkpt lat="45.98346" lon="4.5866">
        <ele>502</ele>
        <time>2018-08-05T08:57:27.000Z</time>
      </trkpt>
      <trkpt lat="45.98345" lon="4.5866">
        <ele>502</ele>
        <time>2018-08-05T08:57:28.000Z</time>
      </trkpt>
      <trkpt lat="45.98343" lon="4.5866">
        <ele>502</ele>
        <time>2018-08-05T08:57:29.000Z</time>
      </trkpt>
      <trkpt lat="45.98342" lon="4.5866">
        <ele>502</ele>
        <time>2018-08-05T08:57:30.000Z</time>
      </trkpt>
      <trkpt lat="45.9834" lon="4.58658">
        <ele>502</ele>
        <time>2018-08-05T08:57:31.000Z</time>
      </trkpt>
      <trkpt lat="45.9834" lon="4.58656">
        <ele>502</ele>
        <time>2018-08-05T08:57:32.000Z</time>
      </trkpt>
      <trkpt lat="45.9834" lon="4.58654">
        <ele>502</ele>
        <time>2018-08-05T08:57:33.000Z</time>
      </trkpt>
      <trkpt lat="45.98341" lon="4.58653">
        <ele>502</ele>
        <time>2018-08-05T08:57:34.000Z</time>
      </trkpt>
      <trkpt lat="45.98343" lon="4.58651">
        <ele>503</ele>
        <time>2018-08-05T08:57:35.000Z</time>
      </trkpt>
      <trkpt lat="45.98344" lon="4.5865">
        <ele>503</ele>
        <time>2018-08-05T08:57:36.000Z</time>
      </trkpt>
      <trkpt lat="45.98345" lon="4.58649">
        <ele>503</ele>
        <time>2018-08-05T08:57:37.000Z</time>
      </trkpt>
      <trkpt lat="45.98347" lon="4.58648">
        <ele>503</ele>
        <time>2018-08-05T08:57:38.000Z</time>
      </trkpt>
      <trkpt lat="45.98348" lon="4.58647">
        <ele>503</ele>
        <time>2018-08-05T08:57:39.000Z</time>
      </trkpt>
      <trkpt lat="45.98348" lon="4.58647">
        <ele>503</ele>
        <time>2018-08-05T08:57:40.000Z</time>
      </trkpt>
      <trkpt lat="45.98348" lon="4.58647">
        <ele>503</ele>
        <time>2018-08-05T08:57:41.000Z</time>
      </trkpt>
      <trkpt lat="45.98349" lon="4.58647">
        <ele>503</ele>
        <time>2018-08-05T08:57:42.000Z</time>
      </trkpt>
      <trkpt lat="45.98349" lon="4.58647">
        <ele>503</ele>
        <time>2018-08-05T08:57:43.000Z</time>
      </trkpt>
      <trkpt lat="45.98349" lon="4.58647">
        <ele>503</ele>
        <time>2018-08-05T08:57:44.000Z</time>
      </trkpt>
      <trkpt lat="45.98349" lon="4.58647">
        <ele>503</ele>
        <time>2018-08-05T08:57:45.000Z</time>
      </trkpt>
      <trkpt lat="45.98349" lon="4.58647">
        <ele>503</ele>
        <time>2018-08-05T08:57:46.000Z</time>
      </trkpt>
      <trkpt lat="45.98349" lon="4.58647">
        <ele>503</ele>
        <time>2018-08-05T08:57:47.000Z</time>
      </trkpt>
      <trkpt lat="45.98349" lon="4.58647">
        <ele>503</ele>
        <time>2018-08-05T08:57:48.000Z</time>
      </trkpt>
      <trkpt lat="45.98349" lon="4.58648">
        <ele>503</ele>
        <time>2018-08-05T08:57:49.000Z</time>
      </trkpt>
      <trkpt lat="45.98349" lon="4.58648">
        <ele>503</ele>
        <time>2018-08-05T08:57:50.000Z</time>
      </trkpt>
      <trkpt lat="45.98354" lon="4.58643">
        <ele>503</ele>
        <time>2018-08-05T08:58:07.000Z</time>
      </trkpt>
      <trkpt lat="45.98356" lon="4.58642">
        <ele>503</ele>
        <time>2018-08-05T08:58:08.000Z</time>
      </trkpt>
      <trkpt lat="45.98358" lon="4.5864">
        <ele>503</ele>
        <time>2018-08-05T08:58:09.000Z</time>
      </trkpt>
      <trkpt lat="45.9836" lon="4.58639">
        <ele>503</ele>
        <time>2018-08-05T08:58:10.000Z</time>
      </trkpt>
      <trkpt lat="45.98363" lon="4.58636">
        <ele>503</ele>
        <time>2018-08-05T08:58:11.000Z</time>
      </trkpt>
      <trkpt lat="45.98366" lon="4.58634">
        <ele>503</ele>
        <time>2018-08-05T08:58:12.000Z</time>
      </trkpt>
      <trkpt lat="45.98368" lon="4.58631">
        <ele>503</ele>
        <time>2018-08-05T08:58:13.000Z</time>
      </trkpt>
      <trkpt lat="45.98371" lon="4.58628">
        <ele>503</ele>
        <time>2018-08-05T08:58:14.000Z</time>
      </trkpt>
      <trkpt lat="45.98374" lon="4.58625">
        <ele>503</ele>
        <time>2018-08-05T08:58:15.000Z</time>
      </trkpt>
      <trkpt lat="45.98377" lon="4.58621">
        <ele>503</ele>
        <time>2018-08-05T08:58:16.000Z</time>
      </trkpt>
      <trkpt lat="45.98379" lon="4.58617">
        <ele>503</ele>
        <time>2018-08-05T08:58:17.000Z</time>
      </trkpt>
      <trkpt lat="45.98381" lon="4.58612">
        <ele>503</ele>
        <time>2018-08-05T08:58:18.000Z</time>
      </trkpt>
      <trkpt lat="45.98382" lon="4.58608">
        <ele>503</ele>
        <time>2018-08-05T08:58:19.000Z</time>
      </trkpt>
      <trkpt lat="45.98383" lon="4.58603">
        <ele>503</ele>
        <time>2018-08-05T08:58:20.000Z</time>
      </trkpt>
      <trkpt lat="45.98383" lon="4.58599">
        <ele>503</ele>
        <time>2018-08-05T08:58:21.000Z</time>
      </trkpt>
      <trkpt lat="45.98383" lon="4.58594">
        <ele>504</ele>
        <time>2018-08-05T08:58:22.000Z</time>
      </trkpt>
      <trkpt lat="45.98382" lon="4.5859">
        <ele>504</ele>
        <time>2018-08-05T08:58:23.000Z</time>
      </trkpt>
      <trkpt lat="45.98381" lon="4.58586">
        <ele>504</ele>
        <time>2018-08-05T08:58:24.000Z</time>
      </trkpt>
      <trkpt lat="45.98379" lon="4.58583">
        <ele>509</ele>
        <time>2018-08-05T08:58:25.000Z</time>
      </trkpt>
      <trkpt lat="45.98376" lon="4.5858">
        <ele>509</ele>
        <time>2018-08-05T08:58:26.000Z</time>
      </trkpt>
      <trkpt lat="45.98374" lon="4.58577">
        <ele>510</ele>
        <time>2018-08-05T08:58:27.000Z</time>
      </trkpt>
      <trkpt lat="45.98371" lon="4.58576">
        <ele>510</ele>
        <time>2018-08-05T08:58:28.000Z</time>
      </trkpt>
      <trkpt lat="45.98368" lon="4.58575">
        <ele>510</ele>
        <time>2018-08-05T08:58:29.000Z</time>
      </trkpt>
      <trkpt lat="45.98365" lon="4.58574">
        <ele>510</ele>
        <time>2018-08-05T08:58:30.000Z</time>
      </trkpt>
      <trkpt lat="45.98362" lon="4.58574">
        <ele>510</ele>
        <time>2018-08-05T08:58:31.000Z</time>
      </trkpt>
      <trkpt lat="45.98359" lon="4.58574">
        <ele>510</ele>
        <time>2018-08-05T08:58:32.000Z</time>
      </trkpt>
      <trkpt lat="45.98356" lon="4.58574">
        <ele>510</ele>
        <time>2018-08-05T08:58:33.000Z</time>
      </trkpt>
      <trkpt lat="45.98353" lon="4.58574">
        <ele>510</ele>
        <time>2018-08-05T08:58:34.000Z</time>
      </trkpt>
      <trkpt lat="45.9835" lon="4.58574">
        <ele>510</ele>
        <time>2018-08-05T08:58:35.000Z</time>
      </trkpt>
      <trkpt lat="45.98347" lon="4.58574">
        <ele>510</ele>
        <time>2018-08-05T08:58:36.000Z</time>
      </trkpt>
      <trkpt lat="45.98344" lon="4.58574">
        <ele>510</ele>
        <time>2018-08-05T08:58:37.000Z</time>
      </trkpt>
      <trkpt lat="45.98341" lon="4.58575">
        <ele>510</ele>
        <time>2018-08-05T08:58:38.000Z</time>
      </trkpt>
      <trkpt lat="45.98338" lon="4.58575">
        <ele>510</ele>
        <time>2018-08-05T08:58:39.000Z</time>
      </trkpt>
      <trkpt lat="45.98336" lon="4.58575">
        <ele>510</ele>
        <time>2018-08-05T08:58:40.000Z</time>
      </trkpt>
      <trkpt lat="45.98333" lon="4.58576">
        <ele>512</ele>
        <time>2018-08-05T08:58:41.000Z</time>
      </trkpt>
      <trkpt lat="45.9833" lon="4.58576">
        <ele>513</ele>
        <time>2018-08-05T08:58:42.000Z</time>
      </trkpt>
      <trkpt lat="45.98328" lon="4.58576">
        <ele>513</ele>
        <time>2018-08-05T08:58:43.000Z</time>
      </trkpt>
      <trkpt lat="45.98326" lon="4.58576">
        <ele>513</ele>
        <time>2018-08-05T08:58:44.000Z</time>
      </trkpt>
      <trkpt lat="45.98323" lon="4.58576">
        <ele>514</ele>
        <time>2018-08-05T08:58:45.000Z</time>
      </trkpt>
      <trkpt lat="45.9832" lon="4.58577">
        <ele>514</ele>
        <time>2018-08-05T08:58:46.000Z</time>
      </trkpt>
      <trkpt lat="45.98318" lon="4.58577">
        <ele>514</ele>
        <time>2018-08-05T08:58:47.000Z</time>
      </trkpt>
      <trkpt lat="45.98315" lon="4.58577">
        <ele>515</ele>
        <time>2018-08-05T08:58:48.000Z</time>
      </trkpt>
      <trkpt lat="45.98312" lon="4.58578">
        <ele>515</ele>
        <time>2018-08-05T08:58:49.000Z</time>
      </trkpt>
      <trkpt lat="45.98309" lon="4.58578">
        <ele>516</ele>
        <time>2018-08-05T08:58:50.000Z</time>
      </trkpt>
      <trkpt lat="45.98306" lon="4.58578">
        <ele>516</ele>
        <time>2018-08-05T08:58:51.000Z</time>
      </trkpt>
      <trkpt lat="45.98303" lon="4.58578">
        <ele>516</ele>
        <time>2018-08-05T08:58:52.000Z</time>
      </trkpt>
      <trkpt lat="45.983" lon="4.58578">
        <ele>517</ele>
        <time>2018-08-05T08:58:53.000Z</time>
      </trkpt>
      <trkpt lat="45.98297" lon="4.58579">
        <ele>517</ele>
        <time>2018-08-05T08:58:54.000Z</time>
      </trkpt>
      <trkpt lat="45.98294" lon="4.5858">
        <ele>517</ele>
        <time>2018-08-05T08:58:55.000Z</time>
      </trkpt>
      <trkpt lat="45.98291" lon="4.5858">
        <ele>517</ele>
        <time>2018-08-05T08:58:56.000Z</time>
      </trkpt>
      <trkpt lat="45.98288" lon="4.5858">
        <ele>518</ele>
        <time>2018-08-05T08:58:57.000Z</time>
      </trkpt>
      <trkpt lat="45.98285" lon="4.58581">
        <ele>518</ele>
        <time>2018-08-05T08:58:58.000Z</time>
      </trkpt>
      <trkpt lat="45.98282" lon="4.58581">
        <ele>518</ele>
        <time>2018-08-05T08:58:59.000Z</time>
      </trkpt>
      <trkpt lat="45.98279" lon="4.58581">
        <ele>518</ele>
        <time>2018-08-05T08:59:00.000Z</time>
      </trkpt>
      <trkpt lat="45.98276" lon="4.58581">
        <ele>518</ele>
        <time>2018-08-05T08:59:01.000Z</time>
      </trkpt>
      <trkpt lat="45.98273" lon="4.58581">
        <ele>518</ele>
        <time>2018-08-05T08:59:02.000Z</time>
      </trkpt>
      <trkpt lat="45.9827" lon="4.58581">
        <ele>518</ele>
        <time>2018-08-05T08:59:03.000Z</time>
      </trkpt>
      <trkpt lat="45.98267" lon="4.58581">
        <ele>518</ele>
        <time>2018-08-05T08:59:04.000Z</time>
      </trkpt>
      <trkpt lat="45.98264" lon="4.58581">
        <ele>518</ele>
        <time>2018-08-05T08:59:05.000Z</time>
      </trkpt>
      <trkpt lat="45.98261" lon="4.58581">
        <ele>518</ele>
        <time>2018-08-05T08:59:06.000Z</time>
      </trkpt>
      <trkpt lat="45.98258" lon="4.58581">
        <ele>518</ele>
        <time>2018-08-05T08:59:07.000Z</time>
      </trkpt>
      <trkpt lat="45.98255" lon="4.58581">
        <ele>518</ele>
        <time>2018-08-05T08:59:08.000Z</time>
      </trkpt>
      <trkpt lat="45.98252" lon="4.58581">
        <ele>518</ele>
        <time>2018-08-05T08:59:09.000Z</time>
      </trkpt>
      <trkpt lat="45.9825" lon="4.58581">
        <ele>519</ele>
        <time>2018-08-05T08:59:10.000Z</time>
      </trkpt>
      <trkpt lat="45.98247" lon="4.5858">
        <ele>519</ele>
        <time>2018-08-05T08:59:11.000Z</time>
      </trkpt>
      <trkpt lat="45.98243" lon="4.5858">
        <ele>520</ele>
        <time>2018-08-05T08:59:12.000Z</time>
      </trkpt>
      <trkpt lat="45.9824" lon="4.58579">
        <ele>520</ele>
        <time>2018-08-05T08:59:13.000Z</time>
      </trkpt>
      <trkpt lat="45.98235" lon="4.58578">
        <ele>521</ele>
        <time>2018-08-05T08:59:14.000Z</time>
      </trkpt>
      <trkpt lat="45.98231" lon="4.58577">
        <ele>521</ele>
        <time>2018-08-05T08:59:15.000Z</time>
      </trkpt>
      <trkpt lat="45.98227" lon="4.58575">
        <ele>521</ele>
        <time>2018-08-05T08:59:16.000Z</time>
      </trkpt>
      <trkpt lat="45.98223" lon="4.58575">
        <ele>522</ele>
        <time>2018-08-05T08:59:17.000Z</time>
      </trkpt>
      <trkpt lat="45.9822" lon="4.58575">
        <ele>522</ele>
        <time>2018-08-05T08:59:18.000Z</time>
      </trkpt>
      <trkpt lat="45.98217" lon="4.58575">
        <ele>522</ele>
        <time>2018-08-05T08:59:19.000Z</time>
      </trkpt>
      <trkpt lat="45.98215" lon="4.58575">
        <ele>522</ele>
        <time>2018-08-05T08:59:20.000Z</time>
      </trkpt>
      <trkpt lat="45.98213" lon="4.58575">
        <ele>522</ele>
        <time>2018-08-05T08:59:21.000Z</time>
      </trkpt>
      <trkpt lat="45.98212" lon="4.58575">
        <ele>522</ele>
        <time>2018-08-05T08:59:22.000Z</time>
      </trkpt>
      <trkpt lat="45.9821" lon="4.58574">
        <ele>522</ele>
        <time>2018-08-05T08:59:23.000Z</time>
      </trkpt>
      <trkpt lat="45.98208" lon="4.58574">
        <ele>522</ele>
        <time>2018-08-05T08:59:24.000Z</time>
      </trkpt>
      <trkpt lat="45.98206" lon="4.58573">
        <ele>522</ele>
        <time>2018-08-05T08:59:25.000Z</time>
      </trkpt>
      <trkpt lat="45.98204" lon="4.58573">
        <ele>522</ele>
        <time>2018-08-05T08:59:26.000Z</time>
      </trkpt>
      <trkpt lat="45.98201" lon="4.58572">
        <ele>522</ele>
        <time>2018-08-05T08:59:27.000Z</time>
      </trkpt>
      <trkpt lat="45.98199" lon="4.58571">
        <ele>522</ele>
        <time>2018-08-05T08:59:28.000Z</time>
      </trkpt>
      <trkpt lat="45.98196" lon="4.58571">
        <ele>522</ele>
        <time>2018-08-05T08:59:29.000Z</time>
      </trkpt>
      <trkpt lat="45.98194" lon="4.5857">
        <ele>522</ele>
        <time>2018-08-05T08:59:30.000Z</time>
      </trkpt>
      <trkpt lat="45.98191" lon="4.5857">
        <ele>522</ele>
        <time>2018-08-05T08:59:31.000Z</time>
      </trkpt>
      <trkpt lat="45.98189" lon="4.5857">
        <ele>522</ele>
        <time>2018-08-05T08:59:32.000Z</time>
      </trkpt>
      <trkpt lat="45.98186" lon="4.58569">
        <ele>522</ele>
        <time>2018-08-05T08:59:33.000Z</time>
      </trkpt>
      <trkpt lat="45.98183" lon="4.58569">
        <ele>522</ele>
        <time>2018-08-05T08:59:34.000Z</time>
      </trkpt>
      <trkpt lat="45.98181" lon="4.58568">
        <ele>521</ele>
        <time>2018-08-05T08:59:35.000Z</time>
      </trkpt>
      <trkpt lat="45.98178" lon="4.58568">
        <ele>521</ele>
        <time>2018-08-05T08:59:36.000Z</time>
      </trkpt>
      <trkpt lat="45.98175" lon="4.58567">
        <ele>521</ele>
        <time>2018-08-05T08:59:37.000Z</time>
      </trkpt>
      <trkpt lat="45.98172" lon="4.58567">
        <ele>521</ele>
        <time>2018-08-05T08:59:38.000Z</time>
      </trkpt>
      <trkpt lat="45.9817" lon="4.58566">
        <ele>521</ele>
        <time>2018-08-05T08:59:39.000Z</time>
      </trkpt>
      <trkpt lat="45.98167" lon="4.58566">
        <ele>521</ele>
        <time>2018-08-05T08:59:40.000Z</time>
      </trkpt>
      <trkpt lat="45.98165" lon="4.58565">
        <ele>522</ele>
        <time>2018-08-05T08:59:41.000Z</time>
      </trkpt>
      <trkpt lat="45.98162" lon="4.58565">
        <ele>522</ele>
        <time>2018-08-05T08:59:42.000Z</time>
      </trkpt>
      <trkpt lat="45.98159" lon="4.58565">
        <ele>522</ele>
        <time>2018-08-05T08:59:43.000Z</time>
      </trkpt>
      <trkpt lat="45.98157" lon="4.58564">
        <ele>523</ele>
        <time>2018-08-05T08:59:44.000Z</time>
      </trkpt>
      <trkpt lat="45.98154" lon="4.58564">
        <ele>523</ele>
        <time>2018-08-05T08:59:45.000Z</time>
      </trkpt>
      <trkpt lat="45.98151" lon="4.58563">
        <ele>523</ele>
        <time>2018-08-05T08:59:46.000Z</time>
      </trkpt>
      <trkpt lat="45.98149" lon="4.58563">
        <ele>523</ele>
        <time>2018-08-05T08:59:47.000Z</time>
      </trkpt>
      <trkpt lat="45.98146" lon="4.58562">
        <ele>524</ele>
        <time>2018-08-05T08:59:48.000Z</time>
      </trkpt>
      <trkpt lat="45.98143" lon="4.58562">
        <ele>524</ele>
        <time>2018-08-05T08:59:49.000Z</time>
      </trkpt>
      <trkpt lat="45.9814" lon="4.58561">
        <ele>524</ele>
        <time>2018-08-05T08:59:50.000Z</time>
      </trkpt>
      <trkpt lat="45.98138" lon="4.58561">
        <ele>524</ele>
        <time>2018-08-05T08:59:51.000Z</time>
      </trkpt>
      <trkpt lat="45.98135" lon="4.58561">
        <ele>524</ele>
        <time>2018-08-05T08:59:52.000Z</time>
      </trkpt>
      <trkpt lat="45.98132" lon="4.5856">
        <ele>524</ele>
        <time>2018-08-05T08:59:53.000Z</time>
      </trkpt>
      <trkpt lat="45.98129" lon="4.5856">
        <ele>524</ele>
        <time>2018-08-05T08:59:54.000Z</time>
      </trkpt>
      <trkpt lat="45.98127" lon="4.58559">
        <ele>525</ele>
        <time>2018-08-05T08:59:55.000Z</time>
      </trkpt>
      <trkpt lat="45.98124" lon="4.58559">
        <ele>525</ele>
        <time>2018-08-05T08:59:56.000Z</time>
      </trkpt>
      <trkpt lat="45.98122" lon="4.58558">
        <ele>525</ele>
        <time>2018-08-05T08:59:57.000Z</time>
      </trkpt>
      <trkpt lat="45.98119" lon="4.58558">
        <ele>525</ele>
        <time>2018-08-05T08:59:58.000Z</time>
      </trkpt>
      <trkpt lat="45.98116" lon="4.58557">
        <ele>525</ele>
        <time>2018-08-05T08:59:59.000Z</time>
      </trkpt>
      <trkpt lat="45.98113" lon="4.58557">
        <ele>525</ele>
        <time>2018-08-05T09:00:00.000Z</time>
      </trkpt>
      <trkpt lat="45.9811" lon="4.58556">
        <ele>525</ele>
        <time>2018-08-05T09:00:01.000Z</time>
      </trkpt>
      <trkpt lat="45.98108" lon="4.58556">
        <ele>525</ele>
        <time>2018-08-05T09:00:02.000Z</time>
      </trkpt>
      <trkpt lat="45.98105" lon="4.58556">
        <ele>525</ele>
        <time>2018-08-05T09:00:03.000Z</time>
      </trkpt>
      <trkpt lat="45.98102" lon="4.58555">
        <ele>525</ele>
        <time>2018-08-05T09:00:04.000Z</time>
      </trkpt>
      <trkpt lat="45.98099" lon="4.58554">
        <ele>525</ele>
        <time>2018-08-05T09:00:05.000Z</time>
      </trkpt>
      <trkpt lat="45.98097" lon="4.58553">
        <ele>525</ele>
        <time>2018-08-05T09:00:06.000Z</time>
      </trkpt>
      <trkpt lat="45.98094" lon="4.58553">
        <ele>525</ele>
        <time>2018-08-05T09:00:07.000Z</time>
      </trkpt>
      <trkpt lat="45.98091" lon="4.58553">
        <ele>525</ele>
        <time>2018-08-05T09:00:08.000Z</time>
      </trkpt>
      <trkpt lat="45.98088" lon="4.58552">
        <ele>525</ele>
        <time>2018-08-05T09:00:09.000Z</time>
      </trkpt>
      <trkpt lat="45.98086" lon="4.58552">
        <ele>525</ele>
        <time>2018-08-05T09:00:10.000Z</time>
      </trkpt>
      <trkpt lat="45.98083" lon="4.58552">
        <ele>528</ele>
        <time>2018-08-05T09:00:11.000Z</time>
      </trkpt>
      <trkpt lat="45.9808" lon="4.58551">
        <ele>528</ele>
        <time>2018-08-05T09:00:12.000Z</time>
      </trkpt>
      <trkpt lat="45.98077" lon="4.58551">
        <ele>528</ele>
        <time>2018-08-05T09:00:13.000Z</time>
      </trkpt>
      <trkpt lat="45.98075" lon="4.5855">
        <ele>528</ele>
        <time>2018-08-05T09:00:14.000Z</time>
      </trkpt>
      <trkpt lat="45.98072" lon="4.5855">
        <ele>528</ele>
        <time>2018-08-05T09:00:15.000Z</time>
      </trkpt>
      <trkpt lat="45.98069" lon="4.58549">
        <ele>528</ele>
        <time>2018-08-05T09:00:16.000Z</time>
      </trkpt>
      <trkpt lat="45.98066" lon="4.58549">
        <ele>528</ele>
        <time>2018-08-05T09:00:17.000Z</time>
      </trkpt>
      <trkpt lat="45.98063" lon="4.58548">
        <ele>529</ele>
        <time>2018-08-05T09:00:18.000Z</time>
      </trkpt>
      <trkpt lat="45.9806" lon="4.58547">
        <ele>529</ele>
        <time>2018-08-05T09:00:19.000Z</time>
      </trkpt>
      <trkpt lat="45.98057" lon="4.58547">
        <ele>529</ele>
        <time>2018-08-05T09:00:20.000Z</time>
      </trkpt>
      <trkpt lat="45.98054" lon="4.58546">
        <ele>529</ele>
        <time>2018-08-05T09:00:21.000Z</time>
      </trkpt>
      <trkpt lat="45.98051" lon="4.58546">
        <ele>529</ele>
        <time>2018-08-05T09:00:22.000Z</time>
      </trkpt>
      <trkpt lat="45.98049" lon="4.58546">
        <ele>529</ele>
        <time>2018-08-05T09:00:23.000Z</time>
      </trkpt>
      <trkpt lat="45.98046" lon="4.58546">
        <ele>529</ele>
        <time>2018-08-05T09:00:24.000Z</time>
      </trkpt>
      <trkpt lat="45.98043" lon="4.58546">
        <ele>529</ele>
        <time>2018-08-05T09:00:25.000Z</time>
      </trkpt>
      <trkpt lat="45.9804" lon="4.58545">
        <ele>530</ele>
        <time>2018-08-05T09:00:26.000Z</time>
      </trkpt>
      <trkpt lat="45.98037" lon="4.58545">
        <ele>530</ele>
        <time>2018-08-05T09:00:27.000Z</time>
      </trkpt>
      <trkpt lat="45.98034" lon="4.58545">
        <ele>530</ele>
        <time>2018-08-05T09:00:28.000Z</time>
      </trkpt>
      <trkpt lat="45.98032" lon="4.58545">
        <ele>530</ele>
        <time>2018-08-05T09:00:29.000Z</time>
      </trkpt>
      <trkpt lat="45.98029" lon="4.58545">
        <ele>530</ele>
        <time>2018-08-05T09:00:30.000Z</time>
      </trkpt>
      <trkpt lat="45.98026" lon="4.58544">
        <ele>530</ele>
        <time>2018-08-05T09:00:31.000Z</time>
      </trkpt>
      <trkpt lat="45.98024" lon="4.58544">
        <ele>530</ele>
        <time>2018-08-05T09:00:32.000Z</time>
      </trkpt>
      <trkpt lat="45.98021" lon="4.58544">
        <ele>530</ele>
        <time>2018-08-05T09:00:33.000Z</time>
      </trkpt>
      <trkpt lat="45.98018" lon="4.58544">
        <ele>530</ele>
        <time>2018-08-05T09:00:34.000Z</time>
      </trkpt>
      <trkpt lat="45.98016" lon="4.58544">
        <ele>530</ele>
        <time>2018-08-05T09:00:35.000Z</time>
      </trkpt>
      <trkpt lat="45.98013" lon="4.58544">
        <ele>530</ele>
        <time>2018-08-05T09:00:36.000Z</time>
      </trkpt>
      <trkpt lat="45.9801" lon="4.58544">
        <ele>530</ele>
        <time>2018-08-05T09:00:37.000Z</time>
      </trkpt>
      <trkpt lat="45.98008" lon="4.58544">
        <ele>530</ele>
        <time>2018-08-05T09:00:38.000Z</time>
      </trkpt>
      <trkpt lat="45.98005" lon="4.58544">
        <ele>531</ele>
        <time>2018-08-05T09:00:39.000Z</time>
      </trkpt>
      <trkpt lat="45.98002" lon="4.58544">
        <ele>531</ele>
        <time>2018-08-05T09:00:40.000Z</time>
      </trkpt>
      <trkpt lat="45.97999" lon="4.58545">
        <ele>534</ele>
        <time>2018-08-05T09:00:41.000Z</time>
      </trkpt>
      <trkpt lat="45.97997" lon="4.58545">
        <ele>534</ele>
        <time>2018-08-05T09:00:42.000Z</time>
      </trkpt>
      <trkpt lat="45.97994" lon="4.58545">
        <ele>534</ele>
        <time>2018-08-05T09:00:43.000Z</time>
      </trkpt>
      <trkpt lat="45.97991" lon="4.58546">
        <ele>534</ele>
        <time>2018-08-05T09:00:44.000Z</time>
      </trkpt>
      <trkpt lat="45.97988" lon="4.58546">
        <ele>534</ele>
        <time>2018-08-05T09:00:45.000Z</time>
      </trkpt>
      <trkpt lat="45.97985" lon="4.58546">
        <ele>534</ele>
        <time>2018-08-05T09:00:46.000Z</time>
      </trkpt>
      <trkpt lat="45.97982" lon="4.58546">
        <ele>534</ele>
        <time>2018-08-05T09:00:47.000Z</time>
      </trkpt>
      <trkpt lat="45.97979" lon="4.58546">
        <ele>534</ele>
        <time>2018-08-05T09:00:48.000Z</time>
      </trkpt>
      <trkpt lat="45.97977" lon="4.58546">
        <ele>535</ele>
        <time>2018-08-05T09:00:49.000Z</time>
      </trkpt>
      <trkpt lat="45.97974" lon="4.58546">
        <ele>535</ele>
        <time>2018-08-05T09:00:50.000Z</time>
      </trkpt>
      <trkpt lat="45.97971" lon="4.58546">
        <ele>535</ele>
        <time>2018-08-05T09:00:51.000Z</time>
      </trkpt>
      <trkpt lat="45.97968" lon="4.58546">
        <ele>535</ele>
        <time>2018-08-05T09:00:52.000Z</time>
      </trkpt>
      <trkpt lat="45.97965" lon="4.58546">
        <ele>535</ele>
        <time>2018-08-05T09:00:53.000Z</time>
      </trkpt>
      <trkpt lat="45.97962" lon="4.58547">
        <ele>535</ele>
        <time>2018-08-05T09:00:54.000Z</time>
      </trkpt>
      <trkpt lat="45.97959" lon="4.58547">
        <ele>535</ele>
        <time>2018-08-05T09:00:55.000Z</time>
      </trkpt>
      <trkpt lat="45.97956" lon="4.58547">
        <ele>535</ele>
        <time>2018-08-05T09:00:56.000Z</time>
      </trkpt>
      <trkpt lat="45.97953" lon="4.58547">
        <ele>535</ele>
        <time>2018-08-05T09:00:57.000Z</time>
      </trkpt>
      <trkpt lat="45.97951" lon="4.58547">
        <ele>536</ele>
        <time>2018-08-05T09:00:58.000Z</time>
      </trkpt>
      <trkpt lat="45.97948" lon="4.58548">
        <ele>536</ele>
        <time>2018-08-05T09:00:59.000Z</time>
      </trkpt>
      <trkpt lat="45.97945" lon="4.58548">
        <ele>536</ele>
        <time>2018-08-05T09:01:00.000Z</time>
      </trkpt>
      <trkpt lat="45.97942" lon="4.58548">
        <ele>536</ele>
        <time>2018-08-05T09:01:01.000Z</time>
      </trkpt>
      <trkpt lat="45.9794" lon="4.58548">
        <ele>536</ele>
        <time>2018-08-05T09:01:02.000Z</time>
      </trkpt>
      <trkpt lat="45.97937" lon="4.58548">
        <ele>536</ele>
        <time>2018-08-05T09:01:03.000Z</time>
      </trkpt>
      <trkpt lat="45.97934" lon="4.58547">
        <ele>536</ele>
        <time>2018-08-05T09:01:04.000Z</time>
      </trkpt>
      <trkpt lat="45.97931" lon="4.58548">
        <ele>536</ele>
        <time>2018-08-05T09:01:05.000Z</time>
      </trkpt>
      <trkpt lat="45.97928" lon="4.58548">
        <ele>536</ele>
        <time>2018-08-05T09:01:06.000Z</time>
      </trkpt>
      <trkpt lat="45.97925" lon="4.58548">
        <ele>536</ele>
        <time>2018-08-05T09:01:07.000Z</time>
      </trkpt>
      <trkpt lat="45.97922" lon="4.58548">
        <ele>536</ele>
        <time>2018-08-05T09:01:08.000Z</time>
      </trkpt>
      <trkpt lat="45.9792" lon="4.58548">
        <ele>536</ele>
        <time>2018-08-05T09:01:09.000Z</time>
      </trkpt>
      <trkpt lat="45.97917" lon="4.58548">
        <ele>536</ele>
        <time>2018-08-05T09:01:10.000Z</time>
      </trkpt>
      <trkpt lat="45.97914" lon="4.58548">
        <ele>539</ele>
        <time>2018-08-05T09:01:11.000Z</time>
      </trkpt>
      <trkpt lat="45.97911" lon="4.58548">
        <ele>539</ele>
        <time>2018-08-05T09:01:12.000Z</time>
      </trkpt>
      <trkpt lat="45.97909" lon="4.58548">
        <ele>539</ele>
        <time>2018-08-05T09:01:13.000Z</time>
      </trkpt>
      <trkpt lat="45.97906" lon="4.58548">
        <ele>539</ele>
        <time>2018-08-05T09:01:14.000Z</time>
      </trkpt>
      <trkpt lat="45.97903" lon="4.58549">
        <ele>539</ele>
        <time>2018-08-05T09:01:15.000Z</time>
      </trkpt>
      <trkpt lat="45.979" lon="4.58549">
        <ele>539</ele>
        <time>2018-08-05T09:01:16.000Z</time>
      </trkpt>
      <trkpt lat="45.97898" lon="4.58549">
        <ele>540</ele>
        <time>2018-08-05T09:01:17.000Z</time>
      </trkpt>
      <trkpt lat="45.97895" lon="4.58549">
        <ele>540</ele>
        <time>2018-08-05T09:01:18.000Z</time>
      </trkpt>
      <trkpt lat="45.97892" lon="4.58549">
        <ele>540</ele>
        <time>2018-08-05T09:01:19.000Z</time>
      </trkpt>
      <trkpt lat="45.97889" lon="4.58549">
        <ele>540</ele>
        <time>2018-08-05T09:01:20.000Z</time>
      </trkpt>
      <trkpt lat="45.97886" lon="4.5855">
        <ele>540</ele>
        <time>2018-08-05T09:01:21.000Z</time>
      </trkpt>
      <trkpt lat="45.97884" lon="4.5855">
        <ele>540</ele>
        <time>2018-08-05T09:01:22.000Z</time>
      </trkpt>
      <trkpt lat="45.97881" lon="4.5855">
        <ele>540</ele>
        <time>2018-08-05T09:01:23.000Z</time>
      </trkpt>
      <trkpt lat="45.97878" lon="4.5855">
        <ele>540</ele>
        <time>2018-08-05T09:01:24.000Z</time>
      </trkpt>
      <trkpt lat="45.97875" lon="4.5855">
        <ele>540</ele>
        <time>2018-08-05T09:01:25.000Z</time>
      </trkpt>
      <trkpt lat="45.97873" lon="4.58551">
        <ele>540</ele>
        <time>2018-08-05T09:01:26.000Z</time>
      </trkpt>
      <trkpt lat="45.9787" lon="4.58551">
        <ele>540</ele>
        <time>2018-08-05T09:01:27.000Z</time>
      </trkpt>
      <trkpt lat="45.97867" lon="4.58551">
        <ele>540</ele>
        <time>2018-08-05T09:01:28.000Z</time>
      </trkpt>
      <trkpt lat="45.97865" lon="4.58551">
        <ele>540</ele>
        <time>2018-08-05T09:01:29.000Z</time>
      </trkpt>
      <trkpt lat="45.97862" lon="4.58551">
        <ele>540</ele>
        <time>2018-08-05T09:01:30.000Z</time>
      </trkpt>
      <trkpt lat="45.97859" lon="4.58551">
        <ele>540</ele>
        <time>2018-08-05T09:01:31.000Z</time>
      </trkpt>
      <trkpt lat="45.97857" lon="4.58551">
        <ele>540</ele>
        <time>2018-08-05T09:01:32.000Z</time>
      </trkpt>
      <trkpt lat="45.97854" lon="4.58551">
        <ele>540</ele>
        <time>2018-08-05T09:01:33.000Z</time>
      </trkpt>
      <trkpt lat="45.97852" lon="4.5855">
        <ele>540</ele>
        <time>2018-08-05T09:01:34.000Z</time>
      </trkpt>
      <trkpt lat="45.97849" lon="4.5855">
        <ele>540</ele>
        <time>2018-08-05T09:01:35.000Z</time>
      </trkpt>
      <trkpt lat="45.97846" lon="4.58549">
        <ele>540</ele>
        <time>2018-08-05T09:01:36.000Z</time>
      </trkpt>
      <trkpt lat="45.97844" lon="4.58547">
        <ele>541</ele>
        <time>2018-08-05T09:01:37.000Z</time>
      </trkpt>
      <trkpt lat="45.97841" lon="4.58545">
        <ele>541</ele>
        <time>2018-08-05T09:01:38.000Z</time>
      </trkpt>
      <trkpt lat="45.97839" lon="4.58543">
        <ele>541</ele>
        <time>2018-08-05T09:01:39.000Z</time>
      </trkpt>
      <trkpt lat="45.97836" lon="4.5854">
        <ele>541</ele>
        <time>2018-08-05T09:01:40.000Z</time>
      </trkpt>
      <trkpt lat="45.97834" lon="4.58538">
        <ele>541</ele>
        <time>2018-08-05T09:01:41.000Z</time>
      </trkpt>
      <trkpt lat="45.97832" lon="4.58534">
        <ele>544</ele>
        <time>2018-08-05T09:01:42.000Z</time>
      </trkpt>
      <trkpt lat="45.9783" lon="4.5853">
        <ele>544</ele>
        <time>2018-08-05T09:01:43.000Z</time>
      </trkpt>
      <trkpt lat="45.97828" lon="4.58526">
        <ele>544</ele>
        <time>2018-08-05T09:01:44.000Z</time>
      </trkpt>
      <trkpt lat="45.97827" lon="4.58522">
        <ele>544</ele>
        <time>2018-08-05T09:01:45.000Z</time>
      </trkpt>
      <trkpt lat="45.97826" lon="4.58517">
        <ele>544</ele>
        <time>2018-08-05T09:01:46.000Z</time>
      </trkpt>
      <trkpt lat="45.97825" lon="4.58513">
        <ele>545</ele>
        <time>2018-08-05T09:01:47.000Z</time>
      </trkpt>
      <trkpt lat="45.97824" lon="4.58508">
        <ele>545</ele>
        <time>2018-08-05T09:01:48.000Z</time>
      </trkpt>
      <trkpt lat="45.97824" lon="4.58503">
        <ele>545</ele>
        <time>2018-08-05T09:01:49.000Z</time>
      </trkpt>
      <trkpt lat="45.97823" lon="4.58498">
        <ele>546</ele>
        <time>2018-08-05T09:01:50.000Z</time>
      </trkpt>
      <trkpt lat="45.97823" lon="4.58493">
        <ele>547</ele>
        <time>2018-08-05T09:01:51.000Z</time>
      </trkpt>
      <trkpt lat="45.97823" lon="4.58488">
        <ele>547</ele>
        <time>2018-08-05T09:01:52.000Z</time>
      </trkpt>
      <trkpt lat="45.97822" lon="4.58482">
        <ele>547</ele>
        <time>2018-08-05T09:01:53.000Z</time>
      </trkpt>
      <trkpt lat="45.97822" lon="4.58478">
        <ele>548</ele>
        <time>2018-08-05T09:01:54.000Z</time>
      </trkpt>
      <trkpt lat="45.97822" lon="4.58473">
        <ele>548</ele>
        <time>2018-08-05T09:01:55.000Z</time>
      </trkpt>
      <trkpt lat="45.97822" lon="4.58468">
        <ele>548</ele>
        <time>2018-08-05T09:01:56.000Z</time>
      </trkpt>
      <trkpt lat="45.97822" lon="4.58463">
        <ele>548</ele>
        <time>2018-08-05T09:01:57.000Z</time>
      </trkpt>
      <trkpt lat="45.97822" lon="4.58458">
        <ele>549</ele>
        <time>2018-08-05T09:01:58.000Z</time>
      </trkpt>
      <trkpt lat="45.97822" lon="4.58454">
        <ele>549</ele>
        <time>2018-08-05T09:01:59.000Z</time>
      </trkpt>
      <trkpt lat="45.97822" lon="4.58449">
        <ele>549</ele>
        <time>2018-08-05T09:02:00.000Z</time>
      </trkpt>
      <trkpt lat="45.97822" lon="4.58444">
        <ele>549</ele>
        <time>2018-08-05T09:02:01.000Z</time>
      </trkpt>
      <trkpt lat="45.97822" lon="4.5844">
        <ele>549</ele>
        <time>2018-08-05T09:02:02.000Z</time>
      </trkpt>
      <trkpt lat="45.97822" lon="4.58435">
        <ele>550</ele>
        <time>2018-08-05T09:02:03.000Z</time>
      </trkpt>
      <trkpt lat="45.97822" lon="4.5843">
        <ele>550</ele>
        <time>2018-08-05T09:02:04.000Z</time>
      </trkpt>
      <trkpt lat="45.97822" lon="4.58425">
        <ele>550</ele>
        <time>2018-08-05T09:02:05.000Z</time>
      </trkpt>
      <trkpt lat="45.97822" lon="4.5842">
        <ele>550</ele>
        <time>2018-08-05T09:02:06.000Z</time>
      </trkpt>
      <trkpt lat="45.97822" lon="4.58415">
        <ele>551</ele>
        <time>2018-08-05T09:02:07.000Z</time>
      </trkpt>
      <trkpt lat="45.97822" lon="4.5841">
        <ele>551</ele>
        <time>2018-08-05T09:02:08.000Z</time>
      </trkpt>
      <trkpt lat="45.97822" lon="4.58405">
        <ele>551</ele>
        <time>2018-08-05T09:02:09.000Z</time>
      </trkpt>
      <trkpt lat="45.97822" lon="4.584">
        <ele>551</ele>
        <time>2018-08-05T09:02:10.000Z</time>
      </trkpt>
      <trkpt lat="45.97822" lon="4.58395">
        <ele>551</ele>
        <time>2018-08-05T09:02:11.000Z</time>
      </trkpt>
      <trkpt lat="45.97821" lon="4.5839">
        <ele>551</ele>
        <time>2018-08-05T09:02:12.000Z</time>
      </trkpt>
      <trkpt lat="45.97821" lon="4.58386">
        <ele>551</ele>
        <time>2018-08-05T09:02:13.000Z</time>
      </trkpt>
      <trkpt lat="45.97821" lon="4.58382">
        <ele>551</ele>
        <time>2018-08-05T09:02:14.000Z</time>
      </trkpt>
      <trkpt lat="45.97821" lon="4.58377">
        <ele>551</ele>
        <time>2018-08-05T09:02:15.000Z</time>
      </trkpt>
      <trkpt lat="45.97821" lon="4.58373">
        <ele>551</ele>
        <time>2018-08-05T09:02:16.000Z</time>
      </trkpt>
      <trkpt lat="45.97821" lon="4.5837">
        <ele>551</ele>
        <time>2018-08-05T09:02:17.000Z</time>
      </trkpt>
      <trkpt lat="45.97821" lon="4.58366">
        <ele>551</ele>
        <time>2018-08-05T09:02:18.000Z</time>
      </trkpt>
      <trkpt lat="45.97821" lon="4.58362">
        <ele>551</ele>
        <time>2018-08-05T09:02:19.000Z</time>
      </trkpt>
      <trkpt lat="45.97821" lon="4.58358">
        <ele>551</ele>
        <time>2018-08-05T09:02:20.000Z</time>
      </trkpt>
      <trkpt lat="45.97821" lon="4.58354">
        <ele>551</ele>
        <time>2018-08-05T09:02:21.000Z</time>
      </trkpt>
      <trkpt lat="45.97821" lon="4.5835">
        <ele>551</ele>
        <time>2018-08-05T09:02:22.000Z</time>
      </trkpt>
      <trkpt lat="45.97821" lon="4.58346">
        <ele>551</ele>
        <time>2018-08-05T09:02:23.000Z</time>
      </trkpt>
      <trkpt lat="45.97822" lon="4.58342">
        <ele>551</ele>
        <time>2018-08-05T09:02:24.000Z</time>
      </trkpt>
      <trkpt lat="45.97822" lon="4.58338">
        <ele>551</ele>
        <time>2018-08-05T09:02:25.000Z</time>
      </trkpt>
      <trkpt lat="45.97822" lon="4.58334">
        <ele>551</ele>
        <time>2018-08-05T09:02:26.000Z</time>
      </trkpt>
      <trkpt lat="45.97821" lon="4.5833">
        <ele>551</ele>
        <time>2018-08-05T09:02:27.000Z</time>
      </trkpt>
      <trkpt lat="45.97821" lon="4.58326">
        <ele>551</ele>
        <time>2018-08-05T09:02:28.000Z</time>
      </trkpt>
      <trkpt lat="45.9782" lon="4.58322">
        <ele>551</ele>
        <time>2018-08-05T09:02:29.000Z</time>
      </trkpt>
      <trkpt lat="45.97819" lon="4.58318">
        <ele>551</ele>
        <time>2018-08-05T09:02:30.000Z</time>
      </trkpt>
      <trkpt lat="45.97818" lon="4.58313">
        <ele>551</ele>
        <time>2018-08-05T09:02:31.000Z</time>
      </trkpt>
      <trkpt lat="45.97816" lon="4.58309">
        <ele>551</ele>
        <time>2018-08-05T09:02:32.000Z</time>
      </trkpt>
      <trkpt lat="45.97814" lon="4.58304">
        <ele>551</ele>
        <time>2018-08-05T09:02:33.000Z</time>
      </trkpt>
      <trkpt lat="45.97812" lon="4.583">
        <ele>551</ele>
        <time>2018-08-05T09:02:34.000Z</time>
      </trkpt>
      <trkpt lat="45.9781" lon="4.58295">
        <ele>551</ele>
        <time>2018-08-05T09:02:35.000Z</time>
      </trkpt>
      <trkpt lat="45.97808" lon="4.58291">
        <ele>551</ele>
        <time>2018-08-05T09:02:36.000Z</time>
      </trkpt>
      <trkpt lat="45.97806" lon="4.58287">
        <ele>551</ele>
        <time>2018-08-05T09:02:37.000Z</time>
      </trkpt>
      <trkpt lat="45.97803" lon="4.58283">
        <ele>551</ele>
        <time>2018-08-05T09:02:38.000Z</time>
      </trkpt>
      <trkpt lat="45.97801" lon="4.58279">
        <ele>551</ele>
        <time>2018-08-05T09:02:39.000Z</time>
      </trkpt>
      <trkpt lat="45.97799" lon="4.58276">
        <ele>551</ele>
        <time>2018-08-05T09:02:40.000Z</time>
      </trkpt>
      <trkpt lat="45.97797" lon="4.58273">
        <ele>551</ele>
        <time>2018-08-05T09:02:41.000Z</time>
      </trkpt>
      <trkpt lat="45.97794" lon="4.5827">
        <ele>551</ele>
        <time>2018-08-05T09:02:42.000Z</time>
      </trkpt>
      <trkpt lat="45.97791" lon="4.58267">
        <ele>551</ele>
        <time>2018-08-05T09:02:43.000Z</time>
      </trkpt>
      <trkpt lat="45.97789" lon="4.58264">
        <ele>551</ele>
        <time>2018-08-05T09:02:44.000Z</time>
      </trkpt>
      <trkpt lat="45.97786" lon="4.5826">
        <ele>551</ele>
        <time>2018-08-05T09:02:45.000Z</time>
      </trkpt>
      <trkpt lat="45.97783" lon="4.58256">
        <ele>551</ele>
        <time>2018-08-05T09:02:46.000Z</time>
      </trkpt>
      <trkpt lat="45.9778" lon="4.58252">
        <ele>551</ele>
        <time>2018-08-05T09:02:47.000Z</time>
      </trkpt>
      <trkpt lat="45.97777" lon="4.58248">
        <ele>550</ele>
        <time>2018-08-05T09:02:48.000Z</time>
      </trkpt>
      <trkpt lat="45.97774" lon="4.58244">
        <ele>550</ele>
        <time>2018-08-05T09:02:49.000Z</time>
      </trkpt>
      <trkpt lat="45.97771" lon="4.5824">
        <ele>550</ele>
        <time>2018-08-05T09:02:50.000Z</time>
      </trkpt>
      <trkpt lat="45.97767" lon="4.58237">
        <ele>550</ele>
        <time>2018-08-05T09:02:51.000Z</time>
      </trkpt>
      <trkpt lat="45.97764" lon="4.58233">
        <ele>550</ele>
        <time>2018-08-05T09:02:52.000Z</time>
      </trkpt>
      <trkpt lat="45.9776" lon="4.58229">
        <ele>549</ele>
        <time>2018-08-05T09:02:53.000Z</time>
      </trkpt>
      <trkpt lat="45.97756" lon="4.58226">
        <ele>549</ele>
        <time>2018-08-05T09:02:54.000Z</time>
      </trkpt>
      <trkpt lat="45.97752" lon="4.58223">
        <ele>549</ele>
        <time>2018-08-05T09:02:55.000Z</time>
      </trkpt>
      <trkpt lat="45.97748" lon="4.5822">
        <ele>548</ele>
        <time>2018-08-05T09:02:56.000Z</time>
      </trkpt>
      <trkpt lat="45.97744" lon="4.58217">
        <ele>548</ele>
        <time>2018-08-05T09:02:57.000Z</time>
      </trkpt>
      <trkpt lat="45.9774" lon="4.58214">
        <ele>548</ele>
        <time>2018-08-05T09:02:58.000Z</time>
      </trkpt>
      <trkpt lat="45.97735" lon="4.58211">
        <ele>548</ele>
        <time>2018-08-05T09:02:59.000Z</time>
      </trkpt>
      <trkpt lat="45.9773" lon="4.58208">
        <ele>547</ele>
        <time>2018-08-05T09:03:00.000Z</time>
      </trkpt>
      <trkpt lat="45.97725" lon="4.58205">
        <ele>547</ele>
        <time>2018-08-05T09:03:01.000Z</time>
      </trkpt>
      <trkpt lat="45.9772" lon="4.58202">
        <ele>547</ele>
        <time>2018-08-05T09:03:02.000Z</time>
      </trkpt>
      <trkpt lat="45.97715" lon="4.58199">
        <ele>547</ele>
        <time>2018-08-05T09:03:03.000Z</time>
      </trkpt>
      <trkpt lat="45.9771" lon="4.58196">
        <ele>547</ele>
        <time>2018-08-05T09:03:04.000Z</time>
      </trkpt>
      <trkpt lat="45.97705" lon="4.58193">
        <ele>547</ele>
        <time>2018-08-05T09:03:05.000Z</time>
      </trkpt>
      <trkpt lat="45.97699" lon="4.58191">
        <ele>546</ele>
        <time>2018-08-05T09:03:06.000Z</time>
      </trkpt>
      <trkpt lat="45.97693" lon="4.58188">
        <ele>546</ele>
        <time>2018-08-05T09:03:07.000Z</time>
      </trkpt>
      <trkpt lat="45.97688" lon="4.58186">
        <ele>546</ele>
        <time>2018-08-05T09:03:08.000Z</time>
      </trkpt>
      <trkpt lat="45.97681" lon="4.58183">
        <ele>545</ele>
        <time>2018-08-05T09:03:09.000Z</time>
      </trkpt>
      <trkpt lat="45.97675" lon="4.58181">
        <ele>545</ele>
        <time>2018-08-05T09:03:10.000Z</time>
      </trkpt>
      <trkpt lat="45.97669" lon="4.58179">
        <ele>544</ele>
        <time>2018-08-05T09:03:11.000Z</time>
      </trkpt>
      <trkpt lat="45.97662" lon="4.58177">
        <ele>544</ele>
        <time>2018-08-05T09:03:12.000Z</time>
      </trkpt>
      <trkpt lat="45.97656" lon="4.58175">
        <ele>544</ele>
        <time>2018-08-05T09:03:13.000Z</time>
      </trkpt>
      <trkpt lat="45.9765" lon="4.58173">
        <ele>545</ele>
        <time>2018-08-05T09:03:14.000Z</time>
      </trkpt>
      <trkpt lat="45.97643" lon="4.58172">
        <ele>545</ele>
        <time>2018-08-05T09:03:15.000Z</time>
      </trkpt>
      <trkpt lat="45.97637" lon="4.5817">
        <ele>545</ele>
        <time>2018-08-05T09:03:16.000Z</time>
      </trkpt>
      <trkpt lat="45.9763" lon="4.58169">
        <ele>546</ele>
        <time>2018-08-05T09:03:17.000Z</time>
      </trkpt>
      <trkpt lat="45.97624" lon="4.58168">
        <ele>546</ele>
        <time>2018-08-05T09:03:18.000Z</time>
      </trkpt>
      <trkpt lat="45.97617" lon="4.58167">
        <ele>536</ele>
        <time>2018-08-05T09:03:19.000Z</time>
      </trkpt>
      <trkpt lat="45.9761" lon="4.58166">
        <ele>537</ele>
        <time>2018-08-05T09:03:20.000Z</time>
      </trkpt>
      <trkpt lat="45.97603" lon="4.58165">
        <ele>537</ele>
        <time>2018-08-05T09:03:21.000Z</time>
      </trkpt>
      <trkpt lat="45.97597" lon="4.58164">
        <ele>538</ele>
        <time>2018-08-05T09:03:22.000Z</time>
      </trkpt>
      <trkpt lat="45.9759" lon="4.58164">
        <ele>539</ele>
        <time>2018-08-05T09:03:23.000Z</time>
      </trkpt>
      <trkpt lat="45.97583" lon="4.58163">
        <ele>540</ele>
        <time>2018-08-05T09:03:24.000Z</time>
      </trkpt>
      <trkpt lat="45.97576" lon="4.58162">
        <ele>540</ele>
        <time>2018-08-05T09:03:25.000Z</time>
      </trkpt>
      <trkpt lat="45.97568" lon="4.58162">
        <ele>540</ele>
        <time>2018-08-05T09:03:26.000Z</time>
      </trkpt>
      <trkpt lat="45.97561" lon="4.5816">
        <ele>539</ele>
        <time>2018-08-05T09:03:27.000Z</time>
      </trkpt>
      <trkpt lat="45.97553" lon="4.58159">
        <ele>539</ele>
        <time>2018-08-05T09:03:28.000Z</time>
      </trkpt>
      <trkpt lat="45.97546" lon="4.58157">
        <ele>540</ele>
        <time>2018-08-05T09:03:29.000Z</time>
      </trkpt>
      <trkpt lat="45.97538" lon="4.58155">
        <ele>540</ele>
        <time>2018-08-05T09:03:30.000Z</time>
      </trkpt>
      <trkpt lat="45.9753" lon="4.58153">
        <ele>541</ele>
        <time>2018-08-05T09:03:31.000Z</time>
      </trkpt>
      <trkpt lat="45.97523" lon="4.5815">
        <ele>541</ele>
        <time>2018-08-05T09:03:32.000Z</time>
      </trkpt>
      <trkpt lat="45.97515" lon="4.58147">
        <ele>542</ele>
        <time>2018-08-05T09:03:33.000Z</time>
      </trkpt>
      <trkpt lat="45.97507" lon="4.58143">
        <ele>542</ele>
        <time>2018-08-05T09:03:34.000Z</time>
      </trkpt>
      <trkpt lat="45.975" lon="4.58139">
        <ele>546</ele>
        <time>2018-08-05T09:03:35.000Z</time>
      </trkpt>
      <trkpt lat="45.97492" lon="4.58135">
        <ele>546</ele>
        <time>2018-08-05T09:03:36.000Z</time>
      </trkpt>
      <trkpt lat="45.97484" lon="4.5813">
        <ele>546</ele>
        <time>2018-08-05T09:03:37.000Z</time>
      </trkpt>
      <trkpt lat="45.97476" lon="4.58126">
        <ele>545</ele>
        <time>2018-08-05T09:03:38.000Z</time>
      </trkpt>
      <trkpt lat="45.97469" lon="4.58121">
        <ele>545</ele>
        <time>2018-08-05T09:03:39.000Z</time>
      </trkpt>
      <trkpt lat="45.97461" lon="4.58116">
        <ele>545</ele>
        <time>2018-08-05T09:03:40.000Z</time>
      </trkpt>
      <trkpt lat="45.97454" lon="4.5811">
        <ele>545</ele>
        <time>2018-08-05T09:03:41.000Z</time>
      </trkpt>
      <trkpt lat="45.97446" lon="4.58104">
        <ele>545</ele>
        <time>2018-08-05T09:03:42.000Z</time>
      </trkpt>
      <trkpt lat="45.97439" lon="4.58097">
        <ele>545</ele>
        <time>2018-08-05T09:03:43.000Z</time>
      </trkpt>
      <trkpt lat="45.97432" lon="4.58091">
        <ele>545</ele>
        <time>2018-08-05T09:03:44.000Z</time>
      </trkpt>
      <trkpt lat="45.97426" lon="4.58083">
        <ele>540</ele>
        <time>2018-08-05T09:03:45.000Z</time>
      </trkpt>
      <trkpt lat="45.97419" lon="4.58076">
        <ele>540</ele>
        <time>2018-08-05T09:03:46.000Z</time>
      </trkpt>
      <trkpt lat="45.97412" lon="4.58068">
        <ele>540</ele>
        <time>2018-08-05T09:03:47.000Z</time>
      </trkpt>
      <trkpt lat="45.97405" lon="4.58061">
        <ele>539</ele>
        <time>2018-08-05T09:03:48.000Z</time>
      </trkpt>
      <trkpt lat="45.97398" lon="4.58054">
        <ele>537</ele>
        <time>2018-08-05T09:03:49.000Z</time>
      </trkpt>
      <trkpt lat="45.97391" lon="4.58049">
        <ele>537</ele>
        <time>2018-08-05T09:03:50.000Z</time>
      </trkpt>
      <trkpt lat="45.97382" lon="4.58045">
        <ele>536</ele>
        <time>2018-08-05T09:03:51.000Z</time>
      </trkpt>
      <trkpt lat="45.97374" lon="4.58042">
        <ele>536</ele>
        <time>2018-08-05T09:03:52.000Z</time>
      </trkpt>
      <trkpt lat="45.97365" lon="4.58042">
        <ele>535</ele>
        <time>2018-08-05T09:03:53.000Z</time>
      </trkpt>
      <trkpt lat="45.97356" lon="4.58044">
        <ele>535</ele>
        <time>2018-08-05T09:03:54.000Z</time>
      </trkpt>
      <trkpt lat="45.97347" lon="4.58047">
        <ele>536</ele>
        <time>2018-08-05T09:03:55.000Z</time>
      </trkpt>
      <trkpt lat="45.97339" lon="4.58052">
        <ele>537</ele>
        <time>2018-08-05T09:03:56.000Z</time>
      </trkpt>
      <trkpt lat="45.97331" lon="4.58057">
        <ele>536</ele>
        <time>2018-08-05T09:03:57.000Z</time>
      </trkpt>
      <trkpt lat="45.97323" lon="4.58064">
        <ele>538</ele>
        <time>2018-08-05T09:03:58.000Z</time>
      </trkpt>
      <trkpt lat="45.97316" lon="4.58072">
        <ele>538</ele>
        <time>2018-08-05T09:03:59.000Z</time>
      </trkpt>
      <trkpt lat="45.97308" lon="4.58079">
        <ele>538</ele>
        <time>2018-08-05T09:04:00.000Z</time>
      </trkpt>
      <trkpt lat="45.97301" lon="4.58087">
        <ele>550</ele>
        <time>2018-08-05T09:04:01.000Z</time>
      </trkpt>
      <trkpt lat="45.97293" lon="4.58093">
        <ele>550</ele>
        <time>2018-08-05T09:04:02.000Z</time>
      </trkpt>
      <trkpt lat="45.97285" lon="4.58098">
        <ele>551</ele>
        <time>2018-08-05T09:04:03.000Z</time>
      </trkpt>
      <trkpt lat="45.97277" lon="4.58102">
        <ele>551</ele>
        <time>2018-08-05T09:04:04.000Z</time>
      </trkpt>
      <trkpt lat="45.97268" lon="4.58105">
        <ele>551</ele>
        <time>2018-08-05T09:04:05.000Z</time>
      </trkpt>
      <trkpt lat="45.97259" lon="4.58105">
        <ele>550</ele>
        <time>2018-08-05T09:04:06.000Z</time>
      </trkpt>
      <trkpt lat="45.97251" lon="4.58103">
        <ele>549</ele>
        <time>2018-08-05T09:04:07.000Z</time>
      </trkpt>
      <trkpt lat="45.97242" lon="4.58099">
        <ele>550</ele>
        <time>2018-08-05T09:04:08.000Z</time>
      </trkpt>
      <trkpt lat="45.97233" lon="4.58093">
        <ele>550</ele>
        <time>2018-08-05T09:04:09.000Z</time>
      </trkpt>
      <trkpt lat="45.97226" lon="4.58086">
        <ele>551</ele>
        <time>2018-08-05T09:04:10.000Z</time>
      </trkpt>
      <trkpt lat="45.97219" lon="4.58078">
        <ele>540</ele>
        <time>2018-08-05T09:04:11.000Z</time>
      </trkpt>
      <trkpt lat="45.97212" lon="4.58069">
        <ele>540</ele>
        <time>2018-08-05T09:04:12.000Z</time>
      </trkpt>
      <trkpt lat="45.97205" lon="4.5806">
        <ele>539</ele>
        <time>2018-08-05T09:04:13.000Z</time>
      </trkpt>
      <trkpt lat="45.97199" lon="4.58052">
        <ele>539</ele>
        <time>2018-08-05T09:04:14.000Z</time>
      </trkpt>
      <trkpt lat="45.97192" lon="4.58044">
        <ele>538</ele>
        <time>2018-08-05T09:04:15.000Z</time>
      </trkpt>
      <trkpt lat="45.97186" lon="4.58036">
        <ele>537</ele>
        <time>2018-08-05T09:04:16.000Z</time>
      </trkpt>
      <trkpt lat="45.97179" lon="4.58029">
        <ele>536</ele>
        <time>2018-08-05T09:04:17.000Z</time>
      </trkpt>
      <trkpt lat="45.97172" lon="4.58023">
        <ele>536</ele>
        <time>2018-08-05T09:04:18.000Z</time>
      </trkpt>
      <trkpt lat="45.97165" lon="4.58017">
        <ele>536</ele>
        <time>2018-08-05T09:04:19.000Z</time>
      </trkpt>
      <trkpt lat="45.97158" lon="4.58012">
        <ele>535</ele>
        <time>2018-08-05T09:04:20.000Z</time>
      </trkpt>
      <trkpt lat="45.97151" lon="4.58008">
        <ele>535</ele>
        <time>2018-08-05T09:04:21.000Z</time>
      </trkpt>
      <trkpt lat="45.97144" lon="4.58004">
        <ele>536</ele>
        <time>2018-08-05T09:04:22.000Z</time>
      </trkpt>
      <trkpt lat="45.97137" lon="4.58001">
        <ele>536</ele>
        <time>2018-08-05T09:04:23.000Z</time>
      </trkpt>
      <trkpt lat="45.97129" lon="4.57998">
        <ele>527</ele>
        <time>2018-08-05T09:04:24.000Z</time>
      </trkpt>
      <trkpt lat="45.97121" lon="4.57997">
        <ele>526</ele>
        <time>2018-08-05T09:04:25.000Z</time>
      </trkpt>
      <trkpt lat="45.97113" lon="4.57997">
        <ele>526</ele>
        <time>2018-08-05T09:04:26.000Z</time>
      </trkpt>
      <trkpt lat="45.97104" lon="4.57998">
        <ele>527</ele>
        <time>2018-08-05T09:04:27.000Z</time>
      </trkpt>
      <trkpt lat="45.97096" lon="4.58002">
        <ele>533</ele>
        <time>2018-08-05T09:04:28.000Z</time>
      </trkpt>
      <trkpt lat="45.97088" lon="4.58007">
        <ele>533</ele>
        <time>2018-08-05T09:04:29.000Z</time>
      </trkpt>
      <trkpt lat="45.97081" lon="4.58014">
        <ele>531</ele>
        <time>2018-08-05T09:04:30.000Z</time>
      </trkpt>
      <trkpt lat="45.97074" lon="4.58022">
        <ele>531</ele>
        <time>2018-08-05T09:04:31.000Z</time>
      </trkpt>
      <trkpt lat="45.97068" lon="4.58031">
        <ele>531</ele>
        <time>2018-08-05T09:04:32.000Z</time>
      </trkpt>
      <trkpt lat="45.97061" lon="4.5804">
        <ele>532</ele>
        <time>2018-08-05T09:04:33.000Z</time>
      </trkpt>
      <trkpt lat="45.97055" lon="4.5805">
        <ele>533</ele>
        <time>2018-08-05T09:04:34.000Z</time>
      </trkpt>
      <trkpt lat="45.97049" lon="4.58059">
        <ele>533</ele>
        <time>2018-08-05T09:04:35.000Z</time>
      </trkpt>
      <trkpt lat="45.97042" lon="4.58069">
        <ele>533</ele>
        <time>2018-08-05T09:04:36.000Z</time>
      </trkpt>
      <trkpt lat="45.97036" lon="4.58078">
        <ele>533</ele>
        <time>2018-08-05T09:04:37.000Z</time>
      </trkpt>
      <trkpt lat="45.97029" lon="4.58087">
        <ele>544</ele>
        <time>2018-08-05T09:04:38.000Z</time>
      </trkpt>
      <trkpt lat="45.97023" lon="4.58096">
        <ele>543</ele>
        <time>2018-08-05T09:04:39.000Z</time>
      </trkpt>
      <trkpt lat="45.97016" lon="4.58105">
        <ele>544</ele>
        <time>2018-08-05T09:04:40.000Z</time>
      </trkpt>
      <trkpt lat="45.97008" lon="4.58112">
        <ele>545</ele>
        <time>2018-08-05T09:04:41.000Z</time>
      </trkpt>
      <trkpt lat="45.97" lon="4.58118">
        <ele>544</ele>
        <time>2018-08-05T09:04:42.000Z</time>
      </trkpt>
      <trkpt lat="45.96991" lon="4.5812">
        <ele>544</ele>
        <time>2018-08-05T09:04:43.000Z</time>
      </trkpt>
      <trkpt lat="45.96982" lon="4.5812">
        <ele>544</ele>
        <time>2018-08-05T09:04:44.000Z</time>
      </trkpt>
      <trkpt lat="45.96973" lon="4.58116">
        <ele>544</ele>
        <time>2018-08-05T09:04:45.000Z</time>
      </trkpt>
      <trkpt lat="45.96964" lon="4.5811">
        <ele>544</ele>
        <time>2018-08-05T09:04:46.000Z</time>
      </trkpt>
      <trkpt lat="45.96956" lon="4.58103">
        <ele>543</ele>
        <time>2018-08-05T09:04:47.000Z</time>
      </trkpt>
      <trkpt lat="45.96948" lon="4.58095">
        <ele>543</ele>
        <time>2018-08-05T09:04:48.000Z</time>
      </trkpt>
      <trkpt lat="45.96941" lon="4.58086">
        <ele>542</ele>
        <time>2018-08-05T09:04:49.000Z</time>
      </trkpt>
      <trkpt lat="45.96934" lon="4.58077">
        <ele>533</ele>
        <time>2018-08-05T09:04:50.000Z</time>
      </trkpt>
      <trkpt lat="45.96926" lon="4.58068">
        <ele>532</ele>
        <time>2018-08-05T09:04:51.000Z</time>
      </trkpt>
      <trkpt lat="45.9692" lon="4.58058">
        <ele>531</ele>
        <time>2018-08-05T09:04:52.000Z</time>
      </trkpt>
      <trkpt lat="45.96912" lon="4.58048">
        <ele>531</ele>
        <time>2018-08-05T09:04:53.000Z</time>
      </trkpt>
      <trkpt lat="45.96904" lon="4.5804">
        <ele>530</ele>
        <time>2018-08-05T09:04:54.000Z</time>
      </trkpt>
      <trkpt lat="45.96896" lon="4.58032">
        <ele>529</ele>
        <time>2018-08-05T09:04:55.000Z</time>
      </trkpt>
      <trkpt lat="45.96888" lon="4.58026">
        <ele>529</ele>
        <time>2018-08-05T09:04:56.000Z</time>
      </trkpt>
      <trkpt lat="45.9688" lon="4.5802">
        <ele>528</ele>
        <time>2018-08-05T09:04:57.000Z</time>
      </trkpt>
      <trkpt lat="45.96871" lon="4.58015">
        <ele>528</ele>
        <time>2018-08-05T09:04:58.000Z</time>
      </trkpt>
      <trkpt lat="45.96862" lon="4.58011">
        <ele>528</ele>
        <time>2018-08-05T09:04:59.000Z</time>
      </trkpt>
      <trkpt lat="45.96852" lon="4.58009">
        <ele>527</ele>
        <time>2018-08-05T09:05:00.000Z</time>
      </trkpt>
      <trkpt lat="45.96843" lon="4.58009">
        <ele>526</ele>
        <time>2018-08-05T09:05:01.000Z</time>
      </trkpt>
      <trkpt lat="45.96834" lon="4.5801">
        <ele>526</ele>
        <time>2018-08-05T09:05:02.000Z</time>
      </trkpt>
      <trkpt lat="45.96825" lon="4.58014">
        <ele>522</ele>
        <time>2018-08-05T09:05:03.000Z</time>
      </trkpt>
      <trkpt lat="45.96816" lon="4.58019">
        <ele>522</ele>
        <time>2018-08-05T09:05:04.000Z</time>
      </trkpt>
      <trkpt lat="45.96808" lon="4.58026">
        <ele>522</ele>
        <time>2018-08-05T09:05:05.000Z</time>
      </trkpt>
      <trkpt lat="45.968" lon="4.58035">
        <ele>522</ele>
        <time>2018-08-05T09:05:06.000Z</time>
      </trkpt>
      <trkpt lat="45.96794" lon="4.58045">
        <ele>522</ele>
        <time>2018-08-05T09:05:07.000Z</time>
      </trkpt>
      <trkpt lat="45.96787" lon="4.58055">
        <ele>522</ele>
        <time>2018-08-05T09:05:08.000Z</time>
      </trkpt>
      <trkpt lat="45.96782" lon="4.58066">
        <ele>522</ele>
        <time>2018-08-05T09:05:09.000Z</time>
      </trkpt>
      <trkpt lat="45.96776" lon="4.58078">
        <ele>521</ele>
        <time>2018-08-05T09:05:10.000Z</time>
      </trkpt>
      <trkpt lat="45.9677" lon="4.58089">
        <ele>527</ele>
        <time>2018-08-05T09:05:11.000Z</time>
      </trkpt>
      <trkpt lat="45.96765" lon="4.581">
        <ele>527</ele>
        <time>2018-08-05T09:05:12.000Z</time>
      </trkpt>
      <trkpt lat="45.96759" lon="4.58111">
        <ele>529</ele>
        <time>2018-08-05T09:05:13.000Z</time>
      </trkpt>
      <trkpt lat="45.96753" lon="4.58122">
        <ele>530</ele>
        <time>2018-08-05T09:05:14.000Z</time>
      </trkpt>
      <trkpt lat="45.96747" lon="4.58134">
        <ele>515</ele>
        <time>2018-08-05T09:05:15.000Z</time>
      </trkpt>
      <trkpt lat="45.96741" lon="4.58145">
        <ele>517</ele>
        <time>2018-08-05T09:05:16.000Z</time>
      </trkpt>
      <trkpt lat="45.96736" lon="4.58156">
        <ele>519</ele>
        <time>2018-08-05T09:05:17.000Z</time>
      </trkpt>
      <trkpt lat="45.9673" lon="4.58168">
        <ele>522</ele>
        <time>2018-08-05T09:05:18.000Z</time>
      </trkpt>
      <trkpt lat="45.96725" lon="4.5818">
        <ele>520</ele>
        <time>2018-08-05T09:05:19.000Z</time>
      </trkpt>
      <trkpt lat="45.96721" lon="4.58193">
        <ele>519</ele>
        <time>2018-08-05T09:05:20.000Z</time>
      </trkpt>
      <trkpt lat="45.96718" lon="4.58206">
        <ele>519</ele>
        <time>2018-08-05T09:05:21.000Z</time>
      </trkpt>
      <trkpt lat="45.96716" lon="4.5822">
        <ele>519</ele>
        <time>2018-08-05T09:05:22.000Z</time>
      </trkpt>
      <trkpt lat="45.96715" lon="4.58234">
        <ele>520</ele>
        <time>2018-08-05T09:05:23.000Z</time>
      </trkpt>
      <trkpt lat="45.96716" lon="4.58247">
        <ele>521</ele>
        <time>2018-08-05T09:05:24.000Z</time>
      </trkpt>
      <trkpt lat="45.96717" lon="4.58261">
        <ele>521</ele>
        <time>2018-08-05T09:05:25.000Z</time>
      </trkpt>
      <trkpt lat="45.96719" lon="4.58273">
        <ele>521</ele>
        <time>2018-08-05T09:05:26.000Z</time>
      </trkpt>
      <trkpt lat="45.96722" lon="4.58286">
        <ele>521</ele>
        <time>2018-08-05T09:05:27.000Z</time>
      </trkpt>
      <trkpt lat="45.96726" lon="4.58298">
        <ele>522</ele>
        <time>2018-08-05T09:05:28.000Z</time>
      </trkpt>
      <trkpt lat="45.9673" lon="4.5831">
        <ele>523</ele>
        <time>2018-08-05T09:05:29.000Z</time>
      </trkpt>
      <trkpt lat="45.96734" lon="4.58322">
        <ele>525</ele>
        <time>2018-08-05T09:05:30.000Z</time>
      </trkpt>
      <trkpt lat="45.96737" lon="4.58335">
        <ele>527</ele>
        <time>2018-08-05T09:05:31.000Z</time>
      </trkpt>
      <trkpt lat="45.96741" lon="4.58348">
        <ele>525</ele>
        <time>2018-08-05T09:05:32.000Z</time>
      </trkpt>
      <trkpt lat="45.96743" lon="4.58362">
        <ele>523</ele>
        <time>2018-08-05T09:05:33.000Z</time>
      </trkpt>
      <trkpt lat="45.96746" lon="4.58376">
        <ele>522</ele>
        <time>2018-08-05T09:05:34.000Z</time>
      </trkpt>
      <trkpt lat="45.96748" lon="4.5839">
        <ele>522</ele>
        <time>2018-08-05T09:05:35.000Z</time>
      </trkpt>
      <trkpt lat="45.96749" lon="4.58404">
        <ele>524</ele>
        <time>2018-08-05T09:05:36.000Z</time>
      </trkpt>
      <trkpt lat="45.9675" lon="4.58418">
        <ele>530</ele>
        <time>2018-08-05T09:05:37.000Z</time>
      </trkpt>
      <trkpt lat="45.96751" lon="4.58432">
        <ele>539</ele>
        <time>2018-08-05T09:05:38.000Z</time>
      </trkpt>
      <trkpt lat="45.9675" lon="4.58446">
        <ele>525</ele>
        <time>2018-08-05T09:05:39.000Z</time>
      </trkpt>
      <trkpt lat="45.96748" lon="4.5846">
        <ele>525</ele>
        <time>2018-08-05T09:05:40.000Z</time>
      </trkpt>
      <trkpt lat="45.96746" lon="4.58473">
        <ele>527</ele>
        <time>2018-08-05T09:05:41.000Z</time>
      </trkpt>
      <trkpt lat="45.96742" lon="4.58486">
        <ele>529</ele>
        <time>2018-08-05T09:05:42.000Z</time>
      </trkpt>
      <trkpt lat="45.96739" lon="4.58498">
        <ele>530</ele>
        <time>2018-08-05T09:05:43.000Z</time>
      </trkpt>
      <trkpt lat="45.96734" lon="4.58512">
        <ele>535</ele>
        <time>2018-08-05T09:05:44.000Z</time>
      </trkpt>
      <trkpt lat="45.96729" lon="4.58523">
        <ele>535</ele>
        <time>2018-08-05T09:05:45.000Z</time>
      </trkpt>
      <trkpt lat="45.96723" lon="4.58534">
        <ele>535</ele>
        <time>2018-08-05T09:05:46.000Z</time>
      </trkpt>
      <trkpt lat="45.96715" lon="4.58541">
        <ele>535</ele>
        <time>2018-08-05T09:05:47.000Z</time>
      </trkpt>
      <trkpt lat="45.96707" lon="4.58544">
        <ele>535</ele>
        <time>2018-08-05T09:05:48.000Z</time>
      </trkpt>
      <trkpt lat="45.96698" lon="4.58544">
        <ele>535</ele>
        <time>2018-08-05T09:05:49.000Z</time>
      </trkpt>
      <trkpt lat="45.9669" lon="4.58542">
        <ele>534</ele>
        <time>2018-08-05T09:05:50.000Z</time>
      </trkpt>
      <trkpt lat="45.96681" lon="4.58541">
        <ele>533</ele>
        <time>2018-08-05T09:05:51.000Z</time>
      </trkpt>
      <trkpt lat="45.96672" lon="4.58538">
        <ele>532</ele>
        <time>2018-08-05T09:05:52.000Z</time>
      </trkpt>
      <trkpt lat="45.96664" lon="4.58534">
        <ele>533</ele>
        <time>2018-08-05T09:05:53.000Z</time>
      </trkpt>
      <trkpt lat="45.96656" lon="4.58529">
        <ele>533</ele>
        <time>2018-08-05T09:05:54.000Z</time>
      </trkpt>
      <trkpt lat="45.96649" lon="4.58523">
        <ele>532</ele>
        <time>2018-08-05T09:05:55.000Z</time>
      </trkpt>
      <trkpt lat="45.96643" lon="4.58516">
        <ele>532</ele>
        <time>2018-08-05T09:05:56.000Z</time>
      </trkpt>
      <trkpt lat="45.96637" lon="4.58508">
        <ele>532</ele>
        <time>2018-08-05T09:05:57.000Z</time>
      </trkpt>
      <trkpt lat="45.96631" lon="4.585">
        <ele>533</ele>
        <time>2018-08-05T09:05:58.000Z</time>
      </trkpt>
      <trkpt lat="45.96625" lon="4.58492">
        <ele>521</ele>
        <time>2018-08-05T09:05:59.000Z</time>
      </trkpt>
      <trkpt lat="45.96618" lon="4.58484">
        <ele>521</ele>
        <time>2018-08-05T09:06:00.000Z</time>
      </trkpt>
      <trkpt lat="45.96611" lon="4.58477">
        <ele>521</ele>
        <time>2018-08-05T09:06:01.000Z</time>
      </trkpt>
      <trkpt lat="45.96604" lon="4.5847">
        <ele>521</ele>
        <time>2018-08-05T09:06:02.000Z</time>
      </trkpt>
      <trkpt lat="45.96596" lon="4.58463">
        <ele>521</ele>
        <time>2018-08-05T09:06:03.000Z</time>
      </trkpt>
      <trkpt lat="45.96589" lon="4.58457">
        <ele>520</ele>
        <time>2018-08-05T09:06:04.000Z</time>
      </trkpt>
      <trkpt lat="45.96582" lon="4.58451">
        <ele>527</ele>
        <time>2018-08-05T09:06:05.000Z</time>
      </trkpt>
      <trkpt lat="45.96574" lon="4.58445">
        <ele>526</ele>
        <time>2018-08-05T09:06:06.000Z</time>
      </trkpt>
      <trkpt lat="45.96566" lon="4.5844">
        <ele>526</ele>
        <time>2018-08-05T09:06:07.000Z</time>
      </trkpt>
      <trkpt lat="45.96559" lon="4.58434">
        <ele>526</ele>
        <time>2018-08-05T09:06:08.000Z</time>
      </trkpt>
      <trkpt lat="45.96551" lon="4.58429">
        <ele>527</ele>
        <time>2018-08-05T09:06:09.000Z</time>
      </trkpt>
      <trkpt lat="45.96544" lon="4.58424">
        <ele>528</ele>
        <time>2018-08-05T09:06:10.000Z</time>
      </trkpt>
      <trkpt lat="45.96536" lon="4.58419">
        <ele>528</ele>
        <time>2018-08-05T09:06:11.000Z</time>
      </trkpt>
      <trkpt lat="45.96529" lon="4.58415">
        <ele>516</ele>
        <time>2018-08-05T09:06:12.000Z</time>
      </trkpt>
      <trkpt lat="45.96521" lon="4.58411">
        <ele>518</ele>
        <time>2018-08-05T09:06:13.000Z</time>
      </trkpt>
      <trkpt lat="45.96513" lon="4.58407">
        <ele>519</ele>
        <time>2018-08-05T09:06:14.000Z</time>
      </trkpt>
      <trkpt lat="45.96506" lon="4.58404">
        <ele>520</ele>
        <time>2018-08-05T09:06:15.000Z</time>
      </trkpt>
      <trkpt lat="45.96498" lon="4.58403">
        <ele>520</ele>
        <time>2018-08-05T09:06:16.000Z</time>
      </trkpt>
      <trkpt lat="45.9649" lon="4.58403">
        <ele>519</ele>
        <time>2018-08-05T09:06:17.000Z</time>
      </trkpt>
      <trkpt lat="45.96482" lon="4.58405">
        <ele>517</ele>
        <time>2018-08-05T09:06:18.000Z</time>
      </trkpt>
      <trkpt lat="45.96475" lon="4.58408">
        <ele>516</ele>
        <time>2018-08-05T09:06:19.000Z</time>
      </trkpt>
      <trkpt lat="45.96467" lon="4.58413">
        <ele>515</ele>
        <time>2018-08-05T09:06:20.000Z</time>
      </trkpt>
      <trkpt lat="45.9646" lon="4.5842">
        <ele>527</ele>
        <time>2018-08-05T09:06:21.000Z</time>
      </trkpt>
      <trkpt lat="45.96453" lon="4.58426">
        <ele>526</ele>
        <time>2018-08-05T09:06:22.000Z</time>
      </trkpt>
      <trkpt lat="45.96447" lon="4.58433">
        <ele>526</ele>
        <time>2018-08-05T09:06:23.000Z</time>
      </trkpt>
      <trkpt lat="45.9644" lon="4.58441">
        <ele>526</ele>
        <time>2018-08-05T09:06:24.000Z</time>
      </trkpt>
      <trkpt lat="45.96434" lon="4.58448">
        <ele>527</ele>
        <time>2018-08-05T09:06:25.000Z</time>
      </trkpt>
      <trkpt lat="45.96427" lon="4.58456">
        <ele>528</ele>
        <time>2018-08-05T09:06:26.000Z</time>
      </trkpt>
      <trkpt lat="45.96421" lon="4.58463">
        <ele>529</ele>
        <time>2018-08-05T09:06:27.000Z</time>
      </trkpt>
      <trkpt lat="45.96415" lon="4.5847">
        <ele>519</ele>
        <time>2018-08-05T09:06:28.000Z</time>
      </trkpt>
      <trkpt lat="45.96409" lon="4.58478">
        <ele>521</ele>
        <time>2018-08-05T09:06:29.000Z</time>
      </trkpt>
      <trkpt lat="45.96402" lon="4.58485">
        <ele>522</ele>
        <time>2018-08-05T09:06:30.000Z</time>
      </trkpt>
      <trkpt lat="45.96396" lon="4.58493">
        <ele>521</ele>
        <time>2018-08-05T09:06:31.000Z</time>
      </trkpt>
      <trkpt lat="45.9639" lon="4.585">
        <ele>532</ele>
        <time>2018-08-05T09:06:32.000Z</time>
      </trkpt>
      <trkpt lat="45.96383" lon="4.58508">
        <ele>531</ele>
        <time>2018-08-05T09:06:33.000Z</time>
      </trkpt>
      <trkpt lat="45.96377" lon="4.58515">
        <ele>531</ele>
        <time>2018-08-05T09:06:34.000Z</time>
      </trkpt>
      <trkpt lat="45.96371" lon="4.58522">
        <ele>530</ele>
        <time>2018-08-05T09:06:35.000Z</time>
      </trkpt>
      <trkpt lat="45.96364" lon="4.58528">
        <ele>530</ele>
        <time>2018-08-05T09:06:36.000Z</time>
      </trkpt>
      <trkpt lat="45.96357" lon="4.58533">
        <ele>530</ele>
        <time>2018-08-05T09:06:37.000Z</time>
      </trkpt>
      <trkpt lat="45.9635" lon="4.58537">
        <ele>530</ele>
        <time>2018-08-05T09:06:38.000Z</time>
      </trkpt>
      <trkpt lat="45.96343" lon="4.5854">
        <ele>530</ele>
        <time>2018-08-05T09:06:39.000Z</time>
      </trkpt>
      <trkpt lat="45.96335" lon="4.58542">
        <ele>530</ele>
        <time>2018-08-05T09:06:40.000Z</time>
      </trkpt>
      <trkpt lat="45.96328" lon="4.58542">
        <ele>526</ele>
        <time>2018-08-05T09:06:41.000Z</time>
      </trkpt>
      <trkpt lat="45.9632" lon="4.5854">
        <ele>526</ele>
        <time>2018-08-05T09:06:42.000Z</time>
      </trkpt>
      <trkpt lat="45.96313" lon="4.58538">
        <ele>526</ele>
        <time>2018-08-05T09:06:43.000Z</time>
      </trkpt>
      <trkpt lat="45.96306" lon="4.58535">
        <ele>526</ele>
        <time>2018-08-05T09:06:44.000Z</time>
      </trkpt>
      <trkpt lat="45.96299" lon="4.58532">
        <ele>526</ele>
        <time>2018-08-05T09:06:45.000Z</time>
      </trkpt>
      <trkpt lat="45.96292" lon="4.58528">
        <ele>526</ele>
        <time>2018-08-05T09:06:46.000Z</time>
      </trkpt>
      <trkpt lat="45.96286" lon="4.58525">
        <ele>525</ele>
        <time>2018-08-05T09:06:47.000Z</time>
      </trkpt>
      <trkpt lat="45.96279" lon="4.58522">
        <ele>525</ele>
        <time>2018-08-05T09:06:48.000Z</time>
      </trkpt>
      <trkpt lat="45.96273" lon="4.58519">
        <ele>525</ele>
        <time>2018-08-05T09:06:49.000Z</time>
      </trkpt>
      <trkpt lat="45.96267" lon="4.58516">
        <ele>524</ele>
        <time>2018-08-05T09:06:50.000Z</time>
      </trkpt>
      <trkpt lat="45.96262" lon="4.58513">
        <ele>523</ele>
        <time>2018-08-05T09:06:51.000Z</time>
      </trkpt>
      <trkpt lat="45.96256" lon="4.5851">
        <ele>522</ele>
        <time>2018-08-05T09:06:52.000Z</time>
      </trkpt>
      <trkpt lat="45.9625" lon="4.58508">
        <ele>521</ele>
        <time>2018-08-05T09:06:53.000Z</time>
      </trkpt>
      <trkpt lat="45.96245" lon="4.58506">
        <ele>520</ele>
        <time>2018-08-05T09:06:54.000Z</time>
      </trkpt>
      <trkpt lat="45.96239" lon="4.58504">
        <ele>521</ele>
        <time>2018-08-05T09:06:55.000Z</time>
      </trkpt>
      <trkpt lat="45.96233" lon="4.58504">
        <ele>521</ele>
        <time>2018-08-05T09:06:56.000Z</time>
      </trkpt>
      <trkpt lat="45.96227" lon="4.58504">
        <ele>522</ele>
        <time>2018-08-05T09:06:57.000Z</time>
      </trkpt>
      <trkpt lat="45.96222" lon="4.58506">
        <ele>522</ele>
        <time>2018-08-05T09:06:58.000Z</time>
      </trkpt>
      <trkpt lat="45.96216" lon="4.58508">
        <ele>522</ele>
        <time>2018-08-05T09:06:59.000Z</time>
      </trkpt>
      <trkpt lat="45.96211" lon="4.5851">
        <ele>522</ele>
        <time>2018-08-05T09:07:00.000Z</time>
      </trkpt>
      <trkpt lat="45.96205" lon="4.58513">
        <ele>522</ele>
        <time>2018-08-05T09:07:01.000Z</time>
      </trkpt>
      <trkpt lat="45.962" lon="4.58517">
        <ele>522</ele>
        <time>2018-08-05T09:07:02.000Z</time>
      </trkpt>
      <trkpt lat="45.96195" lon="4.58521">
        <ele>521</ele>
        <time>2018-08-05T09:07:03.000Z</time>
      </trkpt>
      <trkpt lat="45.9619" lon="4.58525">
        <ele>522</ele>
        <time>2018-08-05T09:07:04.000Z</time>
      </trkpt>
      <trkpt lat="45.96185" lon="4.58531">
        <ele>522</ele>
        <time>2018-08-05T09:07:05.000Z</time>
      </trkpt>
      <trkpt lat="45.9618" lon="4.58536">
        <ele>523</ele>
        <time>2018-08-05T09:07:06.000Z</time>
      </trkpt>
      <trkpt lat="45.96175" lon="4.58542">
        <ele>524</ele>
        <time>2018-08-05T09:07:07.000Z</time>
      </trkpt>
      <trkpt lat="45.96171" lon="4.58549">
        <ele>525</ele>
        <time>2018-08-05T09:07:08.000Z</time>
      </trkpt>
      <trkpt lat="45.96166" lon="4.58555">
        <ele>518</ele>
        <time>2018-08-05T09:07:09.000Z</time>
      </trkpt>
      <trkpt lat="45.96161" lon="4.58561">
        <ele>519</ele>
        <time>2018-08-05T09:07:10.000Z</time>
      </trkpt>
      <trkpt lat="45.96157" lon="4.58568">
        <ele>521</ele>
        <time>2018-08-05T09:07:11.000Z</time>
      </trkpt>
      <trkpt lat="45.96152" lon="4.58575">
        <ele>521</ele>
        <time>2018-08-05T09:07:12.000Z</time>
      </trkpt>
      <trkpt lat="45.96147" lon="4.58581">
        <ele>521</ele>
        <time>2018-08-05T09:07:13.000Z</time>
      </trkpt>
      <trkpt lat="45.96143" lon="4.58588">
        <ele>531</ele>
        <time>2018-08-05T09:07:14.000Z</time>
      </trkpt>
      <trkpt lat="45.96138" lon="4.58595">
        <ele>531</ele>
        <time>2018-08-05T09:07:15.000Z</time>
      </trkpt>
      <trkpt lat="45.96133" lon="4.58601">
        <ele>531</ele>
        <time>2018-08-05T09:07:16.000Z</time>
      </trkpt>
      <trkpt lat="45.96128" lon="4.58607">
        <ele>531</ele>
        <time>2018-08-05T09:07:17.000Z</time>
      </trkpt>
      <trkpt lat="45.96123" lon="4.58612">
        <ele>531</ele>
        <time>2018-08-05T09:07:18.000Z</time>
      </trkpt>
      <trkpt lat="45.96118" lon="4.58617">
        <ele>531</ele>
        <time>2018-08-05T09:07:19.000Z</time>
      </trkpt>
      <trkpt lat="45.96112" lon="4.58621">
        <ele>531</ele>
        <time>2018-08-05T09:07:20.000Z</time>
      </trkpt>
      <trkpt lat="45.96107" lon="4.58624">
        <ele>531</ele>
        <time>2018-08-05T09:07:21.000Z</time>
      </trkpt>
      <trkpt lat="45.96102" lon="4.58626">
        <ele>531</ele>
        <time>2018-08-05T09:07:22.000Z</time>
      </trkpt>
      <trkpt lat="45.96096" lon="4.58628">
        <ele>531</ele>
        <time>2018-08-05T09:07:23.000Z</time>
      </trkpt>
      <trkpt lat="45.9609" lon="4.58629">
        <ele>531</ele>
        <time>2018-08-05T09:07:24.000Z</time>
      </trkpt>
      <trkpt lat="45.96084" lon="4.58629">
        <ele>531</ele>
        <time>2018-08-05T09:07:25.000Z</time>
      </trkpt>
      <trkpt lat="45.96078" lon="4.58629">
        <ele>527</ele>
        <time>2018-08-05T09:07:26.000Z</time>
      </trkpt>
      <trkpt lat="45.96072" lon="4.58629">
        <ele>527</ele>
        <time>2018-08-05T09:07:27.000Z</time>
      </trkpt>
      <trkpt lat="45.96066" lon="4.58627">
        <ele>527</ele>
        <time>2018-08-05T09:07:28.000Z</time>
      </trkpt>
      <trkpt lat="45.9606" lon="4.58625">
        <ele>527</ele>
        <time>2018-08-05T09:07:29.000Z</time>
      </trkpt>
      <trkpt lat="45.96054" lon="4.58623">
        <ele>526</ele>
        <time>2018-08-05T09:07:30.000Z</time>
      </trkpt>
      <trkpt lat="45.96048" lon="4.5862">
        <ele>526</ele>
        <time>2018-08-05T09:07:31.000Z</time>
      </trkpt>
      <trkpt lat="45.96042" lon="4.58618">
        <ele>526</ele>
        <time>2018-08-05T09:07:32.000Z</time>
      </trkpt>
      <trkpt lat="45.96037" lon="4.58615">
        <ele>526</ele>
        <time>2018-08-05T09:07:33.000Z</time>
      </trkpt>
      <trkpt lat="45.96031" lon="4.58611">
        <ele>526</ele>
        <time>2018-08-05T09:07:34.000Z</time>
      </trkpt>
      <trkpt lat="45.96025" lon="4.58608">
        <ele>525</ele>
        <time>2018-08-05T09:07:35.000Z</time>
      </trkpt>
      <trkpt lat="45.9602" lon="4.58604">
        <ele>525</ele>
        <time>2018-08-05T09:07:36.000Z</time>
      </trkpt>
      <trkpt lat="45.96015" lon="4.58601">
        <ele>524</ele>
        <time>2018-08-05T09:07:37.000Z</time>
      </trkpt>
      <trkpt lat="45.96009" lon="4.58598">
        <ele>524</ele>
        <time>2018-08-05T09:07:38.000Z</time>
      </trkpt>
      <trkpt lat="45.96004" lon="4.58594">
        <ele>523</ele>
        <time>2018-08-05T09:07:39.000Z</time>
      </trkpt>
      <trkpt lat="45.95999" lon="4.58591">
        <ele>522</ele>
        <time>2018-08-05T09:07:40.000Z</time>
      </trkpt>
      <trkpt lat="45.95994" lon="4.58588">
        <ele>522</ele>
        <time>2018-08-05T09:07:41.000Z</time>
      </trkpt>
      <trkpt lat="45.95989" lon="4.58585">
        <ele>522</ele>
        <time>2018-08-05T09:07:42.000Z</time>
      </trkpt>
      <trkpt lat="45.95984" lon="4.58583">
        <ele>516</ele>
        <time>2018-08-05T09:07:43.000Z</time>
      </trkpt>
      <trkpt lat="45.95978" lon="4.58582">
        <ele>515</ele>
        <time>2018-08-05T09:07:44.000Z</time>
      </trkpt>
      <trkpt lat="45.95973" lon="4.58581">
        <ele>515</ele>
        <time>2018-08-05T09:07:45.000Z</time>
      </trkpt>
      <trkpt lat="45.95968" lon="4.5858">
        <ele>514</ele>
        <time>2018-08-05T09:07:46.000Z</time>
      </trkpt>
      <trkpt lat="45.95962" lon="4.58581">
        <ele>514</ele>
        <time>2018-08-05T09:07:47.000Z</time>
      </trkpt>
      <trkpt lat="45.95957" lon="4.58582">
        <ele>514</ele>
        <time>2018-08-05T09:07:48.000Z</time>
      </trkpt>
      <trkpt lat="45.95953" lon="4.58584">
        <ele>523</ele>
        <time>2018-08-05T09:07:49.000Z</time>
      </trkpt>
      <trkpt lat="45.95948" lon="4.58586">
        <ele>523</ele>
        <time>2018-08-05T09:07:50.000Z</time>
      </trkpt>
      <trkpt lat="45.95943" lon="4.58589">
        <ele>523</ele>
        <time>2018-08-05T09:07:51.000Z</time>
      </trkpt>
      <trkpt lat="45.95939" lon="4.58593">
        <ele>522</ele>
        <time>2018-08-05T09:07:52.000Z</time>
      </trkpt>
      <trkpt lat="45.95935" lon="4.58598">
        <ele>522</ele>
        <time>2018-08-05T09:07:53.000Z</time>
      </trkpt>
      <trkpt lat="45.95931" lon="4.58602">
        <ele>523</ele>
        <time>2018-08-05T09:07:54.000Z</time>
      </trkpt>
      <trkpt lat="45.95928" lon="4.58606">
        <ele>523</ele>
        <time>2018-08-05T09:07:55.000Z</time>
      </trkpt>
      <trkpt lat="45.95924" lon="4.58611">
        <ele>524</ele>
        <time>2018-08-05T09:07:56.000Z</time>
      </trkpt>
      <trkpt lat="45.9592" lon="4.58616">
        <ele>524</ele>
        <time>2018-08-05T09:07:57.000Z</time>
      </trkpt>
      <trkpt lat="45.95916" lon="4.58621">
        <ele>515</ele>
        <time>2018-08-05T09:07:58.000Z</time>
      </trkpt>
      <trkpt lat="45.95913" lon="4.58626">
        <ele>516</ele>
        <time>2018-08-05T09:07:59.000Z</time>
      </trkpt>
      <trkpt lat="45.95909" lon="4.58632">
        <ele>516</ele>
        <time>2018-08-05T09:08:00.000Z</time>
      </trkpt>
      <trkpt lat="45.95906" lon="4.58637">
        <ele>517</ele>
        <time>2018-08-05T09:08:01.000Z</time>
      </trkpt>
      <trkpt lat="45.95903" lon="4.58643">
        <ele>517</ele>
        <time>2018-08-05T09:08:02.000Z</time>
      </trkpt>
      <trkpt lat="45.959" lon="4.58648">
        <ele>518</ele>
        <time>2018-08-05T09:08:03.000Z</time>
      </trkpt>
      <trkpt lat="45.95896" lon="4.58654">
        <ele>518</ele>
        <time>2018-08-05T09:08:04.000Z</time>
      </trkpt>
      <trkpt lat="45.95893" lon="4.5866">
        <ele>518</ele>
        <time>2018-08-05T09:08:05.000Z</time>
      </trkpt>
      <trkpt lat="45.9589" lon="4.58666">
        <ele>517</ele>
        <time>2018-08-05T09:08:06.000Z</time>
      </trkpt>
      <trkpt lat="45.95887" lon="4.58673">
        <ele>526</ele>
        <time>2018-08-05T09:08:07.000Z</time>
      </trkpt>
      <trkpt lat="45.95883" lon="4.58679">
        <ele>526</ele>
        <time>2018-08-05T09:08:08.000Z</time>
      </trkpt>
      <trkpt lat="45.9588" lon="4.58686">
        <ele>526</ele>
        <time>2018-08-05T09:08:09.000Z</time>
      </trkpt>
      <trkpt lat="45.95876" lon="4.58692">
        <ele>526</ele>
        <time>2018-08-05T09:08:10.000Z</time>
      </trkpt>
      <trkpt lat="45.95873" lon="4.58699">
        <ele>526</ele>
        <time>2018-08-05T09:08:11.000Z</time>
      </trkpt>
      <trkpt lat="45.95869" lon="4.58705">
        <ele>526</ele>
        <time>2018-08-05T09:08:12.000Z</time>
      </trkpt>
      <trkpt lat="45.95865" lon="4.58711">
        <ele>526</ele>
        <time>2018-08-05T09:08:13.000Z</time>
      </trkpt>
      <trkpt lat="45.95861" lon="4.58717">
        <ele>526</ele>
        <time>2018-08-05T09:08:14.000Z</time>
      </trkpt>
      <trkpt lat="45.95857" lon="4.58722">
        <ele>526</ele>
        <time>2018-08-05T09:08:15.000Z</time>
      </trkpt>
      <trkpt lat="45.95852" lon="4.58727">
        <ele>526</ele>
        <time>2018-08-05T09:08:16.000Z</time>
      </trkpt>
      <trkpt lat="45.95848" lon="4.58732">
        <ele>526</ele>
        <time>2018-08-05T09:08:17.000Z</time>
      </trkpt>
      <trkpt lat="45.95844" lon="4.58737">
        <ele>526</ele>
        <time>2018-08-05T09:08:18.000Z</time>
      </trkpt>
      <trkpt lat="45.95839" lon="4.58741">
        <ele>525</ele>
        <time>2018-08-05T09:08:19.000Z</time>
      </trkpt>
      <trkpt lat="45.95834" lon="4.58745">
        <ele>525</ele>
        <time>2018-08-05T09:08:20.000Z</time>
      </trkpt>
      <trkpt lat="45.95829" lon="4.58749">
        <ele>522</ele>
        <time>2018-08-05T09:08:21.000Z</time>
      </trkpt>
      <trkpt lat="45.95824" lon="4.58753">
        <ele>525</ele>
        <time>2018-08-05T09:08:22.000Z</time>
      </trkpt>
      <trkpt lat="45.95819" lon="4.58757">
        <ele>525</ele>
        <time>2018-08-05T09:08:23.000Z</time>
      </trkpt>
      <trkpt lat="45.95813" lon="4.58761">
        <ele>525</ele>
        <time>2018-08-05T09:08:24.000Z</time>
      </trkpt>
      <trkpt lat="45.95808" lon="4.58765">
        <ele>525</ele>
        <time>2018-08-05T09:08:25.000Z</time>
      </trkpt>
      <trkpt lat="45.95802" lon="4.58768">
        <ele>525</ele>
        <time>2018-08-05T09:08:26.000Z</time>
      </trkpt>
      <trkpt lat="45.95796" lon="4.58772">
        <ele>525</ele>
        <time>2018-08-05T09:08:27.000Z</time>
      </trkpt>
      <trkpt lat="45.9579" lon="4.58775">
        <ele>524</ele>
        <time>2018-08-05T09:08:28.000Z</time>
      </trkpt>
      <trkpt lat="45.95784" lon="4.58779">
        <ele>524</ele>
        <time>2018-08-05T09:08:29.000Z</time>
      </trkpt>
      <trkpt lat="45.95778" lon="4.58783">
        <ele>524</ele>
        <time>2018-08-05T09:08:30.000Z</time>
      </trkpt>
      <trkpt lat="45.95772" lon="4.58786">
        <ele>524</ele>
        <time>2018-08-05T09:08:31.000Z</time>
      </trkpt>
      <trkpt lat="45.95765" lon="4.5879">
        <ele>524</ele>
        <time>2018-08-05T09:08:32.000Z</time>
      </trkpt>
      <trkpt lat="45.95759" lon="4.58793">
        <ele>524</ele>
        <time>2018-08-05T09:08:33.000Z</time>
      </trkpt>
      <trkpt lat="45.95753" lon="4.58797">
        <ele>525</ele>
        <time>2018-08-05T09:08:34.000Z</time>
      </trkpt>
      <trkpt lat="45.95746" lon="4.58801">
        <ele>518</ele>
        <time>2018-08-05T09:08:35.000Z</time>
      </trkpt>
      <trkpt lat="45.9574" lon="4.58806">
        <ele>518</ele>
        <time>2018-08-05T09:08:36.000Z</time>
      </trkpt>
      <trkpt lat="45.95734" lon="4.58811">
        <ele>519</ele>
        <time>2018-08-05T09:08:37.000Z</time>
      </trkpt>
      <trkpt lat="45.95728" lon="4.58816">
        <ele>519</ele>
        <time>2018-08-05T09:08:38.000Z</time>
      </trkpt>
      <trkpt lat="45.95722" lon="4.58823">
        <ele>518</ele>
        <time>2018-08-05T09:08:39.000Z</time>
      </trkpt>
      <trkpt lat="45.95716" lon="4.58829">
        <ele>518</ele>
        <time>2018-08-05T09:08:40.000Z</time>
      </trkpt>
      <trkpt lat="45.95709" lon="4.58835">
        <ele>530</ele>
        <time>2018-08-05T09:08:41.000Z</time>
      </trkpt>
      <trkpt lat="45.95702" lon="4.5884">
        <ele>529</ele>
        <time>2018-08-05T09:08:42.000Z</time>
      </trkpt>
      <trkpt lat="45.95695" lon="4.58844">
        <ele>528</ele>
        <time>2018-08-05T09:08:43.000Z</time>
      </trkpt>
      <trkpt lat="45.95689" lon="4.58847">
        <ele>527</ele>
        <time>2018-08-05T09:08:44.000Z</time>
      </trkpt>
      <trkpt lat="45.95682" lon="4.58849">
        <ele>527</ele>
        <time>2018-08-05T09:08:45.000Z</time>
      </trkpt>
      <trkpt lat="45.95675" lon="4.58851">
        <ele>526</ele>
        <time>2018-08-05T09:08:46.000Z</time>
      </trkpt>
      <trkpt lat="45.95669" lon="4.58853">
        <ele>526</ele>
        <time>2018-08-05T09:08:47.000Z</time>
      </trkpt>
      <trkpt lat="45.95663" lon="4.58854">
        <ele>523</ele>
        <time>2018-08-05T09:08:48.000Z</time>
      </trkpt>
      <trkpt lat="45.95657" lon="4.58855">
        <ele>523</ele>
        <time>2018-08-05T09:08:49.000Z</time>
      </trkpt>
      <trkpt lat="45.95651" lon="4.58856">
        <ele>524</ele>
        <time>2018-08-05T09:08:50.000Z</time>
      </trkpt>
      <trkpt lat="45.95646" lon="4.58858">
        <ele>525</ele>
        <time>2018-08-05T09:08:51.000Z</time>
      </trkpt>
      <trkpt lat="45.95641" lon="4.5886">
        <ele>525</ele>
        <time>2018-08-05T09:08:52.000Z</time>
      </trkpt>
      <trkpt lat="45.95637" lon="4.58861">
        <ele>525</ele>
        <time>2018-08-05T09:08:53.000Z</time>
      </trkpt>
      <trkpt lat="45.95633" lon="4.58864">
        <ele>526</ele>
        <time>2018-08-05T09:08:54.000Z</time>
      </trkpt>
      <trkpt lat="45.95629" lon="4.58866">
        <ele>526</ele>
        <time>2018-08-05T09:08:55.000Z</time>
      </trkpt>
      <trkpt lat="45.95626" lon="4.58868">
        <ele>526</ele>
        <time>2018-08-05T09:08:56.000Z</time>
      </trkpt>
      <trkpt lat="45.95623" lon="4.5887">
        <ele>526</ele>
        <time>2018-08-05T09:08:57.000Z</time>
      </trkpt>
      <trkpt lat="45.95621" lon="4.58871">
        <ele>526</ele>
        <time>2018-08-05T09:08:58.000Z</time>
      </trkpt>
      <trkpt lat="45.95619" lon="4.58872">
        <ele>527</ele>
        <time>2018-08-05T09:08:59.000Z</time>
      </trkpt>
      <trkpt lat="45.95617" lon="4.58873">
        <ele>527</ele>
        <time>2018-08-05T09:09:00.000Z</time>
      </trkpt>
      <trkpt lat="45.95615" lon="4.58874">
        <ele>527</ele>
        <time>2018-08-05T09:09:01.000Z</time>
      </trkpt>
      <trkpt lat="45.95613" lon="4.58875">
        <ele>527</ele>
        <time>2018-08-05T09:09:02.000Z</time>
      </trkpt>
      <trkpt lat="45.95612" lon="4.58876">
        <ele>527</ele>
        <time>2018-08-05T09:09:03.000Z</time>
      </trkpt>
      <trkpt lat="45.9561" lon="4.58877">
        <ele>527</ele>
        <time>2018-08-05T09:09:04.000Z</time>
      </trkpt>
      <trkpt lat="45.95608" lon="4.58878">
        <ele>527</ele>
        <time>2018-08-05T09:09:05.000Z</time>
      </trkpt>
      <trkpt lat="45.95606" lon="4.58879">
        <ele>527</ele>
        <time>2018-08-05T09:09:06.000Z</time>
      </trkpt>
      <trkpt lat="45.95604" lon="4.5888">
        <ele>527</ele>
        <time>2018-08-05T09:09:07.000Z</time>
      </trkpt>
      <trkpt lat="45.95602" lon="4.58881">
        <ele>527</ele>
        <time>2018-08-05T09:09:08.000Z</time>
      </trkpt>
      <trkpt lat="45.956" lon="4.58882">
        <ele>528</ele>
        <time>2018-08-05T09:09:09.000Z</time>
      </trkpt>
      <trkpt lat="45.95598" lon="4.58883">
        <ele>528</ele>
        <time>2018-08-05T09:09:10.000Z</time>
      </trkpt>
      <trkpt lat="45.95596" lon="4.58884">
        <ele>528</ele>
        <time>2018-08-05T09:09:11.000Z</time>
      </trkpt>
      <trkpt lat="45.95594" lon="4.58885">
        <ele>528</ele>
        <time>2018-08-05T09:09:12.000Z</time>
      </trkpt>
      <trkpt lat="45.95592" lon="4.58886">
        <ele>528</ele>
        <time>2018-08-05T09:09:13.000Z</time>
      </trkpt>
      <trkpt lat="45.9559" lon="4.58888">
        <ele>528</ele>
        <time>2018-08-05T09:09:14.000Z</time>
      </trkpt>
      <trkpt lat="45.95587" lon="4.58888">
        <ele>528</ele>
        <time>2018-08-05T09:09:15.000Z</time>
      </trkpt>
      <trkpt lat="45.95585" lon="4.58889">
        <ele>529</ele>
        <time>2018-08-05T09:09:16.000Z</time>
      </trkpt>
      <trkpt lat="45.95583" lon="4.58889">
        <ele>529</ele>
        <time>2018-08-05T09:09:17.000Z</time>
      </trkpt>
      <trkpt lat="45.9558" lon="4.5889">
        <ele>529</ele>
        <time>2018-08-05T09:09:18.000Z</time>
      </trkpt>
      <trkpt lat="45.95578" lon="4.5889">
        <ele>530</ele>
        <time>2018-08-05T09:09:19.000Z</time>
      </trkpt>
      <trkpt lat="45.95575" lon="4.58891">
        <ele>530</ele>
        <time>2018-08-05T09:09:20.000Z</time>
      </trkpt>
      <trkpt lat="45.95573" lon="4.58891">
        <ele>530</ele>
        <time>2018-08-05T09:09:21.000Z</time>
      </trkpt>
      <trkpt lat="45.9557" lon="4.58891">
        <ele>530</ele>
        <time>2018-08-05T09:09:22.000Z</time>
      </trkpt>
      <trkpt lat="45.95568" lon="4.58892">
        <ele>530</ele>
        <time>2018-08-05T09:09:23.000Z</time>
      </trkpt>
      <trkpt lat="45.95565" lon="4.58892">
        <ele>530</ele>
        <time>2018-08-05T09:09:24.000Z</time>
      </trkpt>
      <trkpt lat="45.95563" lon="4.58892">
        <ele>530</ele>
        <time>2018-08-05T09:09:25.000Z</time>
      </trkpt>
      <trkpt lat="45.9556" lon="4.58893">
        <ele>530</ele>
        <time>2018-08-05T09:09:26.000Z</time>
      </trkpt>
      <trkpt lat="45.95558" lon="4.58893">
        <ele>530</ele>
        <time>2018-08-05T09:09:27.000Z</time>
      </trkpt>
      <trkpt lat="45.95556" lon="4.58894">
        <ele>530</ele>
        <time>2018-08-05T09:09:28.000Z</time>
      </trkpt>
      <trkpt lat="45.95553" lon="4.58894">
        <ele>530</ele>
        <time>2018-08-05T09:09:29.000Z</time>
      </trkpt>
      <trkpt lat="45.95551" lon="4.58894">
        <ele>530</ele>
        <time>2018-08-05T09:09:30.000Z</time>
      </trkpt>
      <trkpt lat="45.95548" lon="4.58895">
        <ele>530</ele>
        <time>2018-08-05T09:09:31.000Z</time>
      </trkpt>
      <trkpt lat="45.95546" lon="4.58895">
        <ele>530</ele>
        <time>2018-08-05T09:09:32.000Z</time>
      </trkpt>
      <trkpt lat="45.95544" lon="4.58895">
        <ele>530</ele>
        <time>2018-08-05T09:09:33.000Z</time>
      </trkpt>
      <trkpt lat="45.95542" lon="4.58896">
        <ele>530</ele>
        <time>2018-08-05T09:09:34.000Z</time>
      </trkpt>
      <trkpt lat="45.95539" lon="4.58896">
        <ele>530</ele>
        <time>2018-08-05T09:09:35.000Z</time>
      </trkpt>
      <trkpt lat="45.95537" lon="4.58896">
        <ele>530</ele>
        <time>2018-08-05T09:09:36.000Z</time>
      </trkpt>
      <trkpt lat="45.95534" lon="4.58896">
        <ele>530</ele>
        <time>2018-08-05T09:09:37.000Z</time>
      </trkpt>
      <trkpt lat="45.95532" lon="4.58896">
        <ele>531</ele>
        <time>2018-08-05T09:09:38.000Z</time>
      </trkpt>
      <trkpt lat="45.9553" lon="4.58896">
        <ele>531</ele>
        <time>2018-08-05T09:09:39.000Z</time>
      </trkpt>
      <trkpt lat="45.95527" lon="4.58896">
        <ele>531</ele>
        <time>2018-08-05T09:09:40.000Z</time>
      </trkpt>
      <trkpt lat="45.95524" lon="4.58896">
        <ele>531</ele>
        <time>2018-08-05T09:09:41.000Z</time>
      </trkpt>
      <trkpt lat="45.95522" lon="4.58895">
        <ele>531</ele>
        <time>2018-08-05T09:09:42.000Z</time>
      </trkpt>
      <trkpt lat="45.95519" lon="4.58894">
        <ele>531</ele>
        <time>2018-08-05T09:09:43.000Z</time>
      </trkpt>
      <trkpt lat="45.95517" lon="4.58893">
        <ele>531</ele>
        <time>2018-08-05T09:09:44.000Z</time>
      </trkpt>
      <trkpt lat="45.95514" lon="4.58893">
        <ele>531</ele>
        <time>2018-08-05T09:09:45.000Z</time>
      </trkpt>
      <trkpt lat="45.95511" lon="4.58892">
        <ele>531</ele>
        <time>2018-08-05T09:09:46.000Z</time>
      </trkpt>
      <trkpt lat="45.95508" lon="4.58891">
        <ele>531</ele>
        <time>2018-08-05T09:09:47.000Z</time>
      </trkpt>
      <trkpt lat="45.95506" lon="4.5889">
        <ele>531</ele>
        <time>2018-08-05T09:09:48.000Z</time>
      </trkpt>
      <trkpt lat="45.95503" lon="4.58888">
        <ele>531</ele>
        <time>2018-08-05T09:09:49.000Z</time>
      </trkpt>
      <trkpt lat="45.955" lon="4.58887">
        <ele>537</ele>
        <time>2018-08-05T09:09:50.000Z</time>
      </trkpt>
      <trkpt lat="45.95497" lon="4.58885">
        <ele>537</ele>
        <time>2018-08-05T09:09:51.000Z</time>
      </trkpt>
      <trkpt lat="45.95494" lon="4.58884">
        <ele>537</ele>
        <time>2018-08-05T09:09:52.000Z</time>
      </trkpt>
      <trkpt lat="45.95491" lon="4.58882">
        <ele>537</ele>
        <time>2018-08-05T09:09:53.000Z</time>
      </trkpt>
      <trkpt lat="45.95489" lon="4.5888">
        <ele>537</ele>
        <time>2018-08-05T09:09:54.000Z</time>
      </trkpt>
      <trkpt lat="45.95486" lon="4.58878">
        <ele>536</ele>
        <time>2018-08-05T09:09:55.000Z</time>
      </trkpt>
      <trkpt lat="45.95484" lon="4.58876">
        <ele>536</ele>
        <time>2018-08-05T09:09:56.000Z</time>
      </trkpt>
      <trkpt lat="45.95481" lon="4.58873">
        <ele>536</ele>
        <time>2018-08-05T09:09:57.000Z</time>
      </trkpt>
      <trkpt lat="45.95479" lon="4.5887">
        <ele>536</ele>
        <time>2018-08-05T09:09:58.000Z</time>
      </trkpt>
      <trkpt lat="45.95476" lon="4.58867">
        <ele>536</ele>
        <time>2018-08-05T09:09:59.000Z</time>
      </trkpt>
      <trkpt lat="45.95474" lon="4.58864">
        <ele>536</ele>
        <time>2018-08-05T09:10:00.000Z</time>
      </trkpt>
      <trkpt lat="45.95471" lon="4.5886">
        <ele>536</ele>
        <time>2018-08-05T09:10:01.000Z</time>
      </trkpt>
      <trkpt lat="45.95469" lon="4.58857">
        <ele>536</ele>
        <time>2018-08-05T09:10:02.000Z</time>
      </trkpt>
      <trkpt lat="45.95467" lon="4.58853">
        <ele>536</ele>
        <time>2018-08-05T09:10:03.000Z</time>
      </trkpt>
      <trkpt lat="45.95464" lon="4.5885">
        <ele>536</ele>
        <time>2018-08-05T09:10:04.000Z</time>
      </trkpt>
      <trkpt lat="45.95462" lon="4.58847">
        <ele>536</ele>
        <time>2018-08-05T09:10:05.000Z</time>
      </trkpt>
      <trkpt lat="45.9546" lon="4.58844">
        <ele>536</ele>
        <time>2018-08-05T09:10:06.000Z</time>
      </trkpt>
      <trkpt lat="45.95459" lon="4.5884">
        <ele>536</ele>
        <time>2018-08-05T09:10:07.000Z</time>
      </trkpt>
      <trkpt lat="45.95456" lon="4.58837">
        <ele>537</ele>
        <time>2018-08-05T09:10:08.000Z</time>
      </trkpt>
      <trkpt lat="45.95454" lon="4.58834">
        <ele>537</ele>
        <time>2018-08-05T09:10:09.000Z</time>
      </trkpt>
      <trkpt lat="45.95452" lon="4.58831">
        <ele>532</ele>
        <time>2018-08-05T09:10:10.000Z</time>
      </trkpt>
      <trkpt lat="45.9545" lon="4.58827">
        <ele>533</ele>
        <time>2018-08-05T09:10:11.000Z</time>
      </trkpt>
      <trkpt lat="45.95447" lon="4.58824">
        <ele>533</ele>
        <time>2018-08-05T09:10:12.000Z</time>
      </trkpt>
      <trkpt lat="45.95445" lon="4.58821">
        <ele>533</ele>
        <time>2018-08-05T09:10:13.000Z</time>
      </trkpt>
      <trkpt lat="45.95443" lon="4.58817">
        <ele>533</ele>
        <time>2018-08-05T09:10:14.000Z</time>
      </trkpt>
      <trkpt lat="45.95441" lon="4.58814">
        <ele>533</ele>
        <time>2018-08-05T09:10:15.000Z</time>
      </trkpt>
      <trkpt lat="45.95439" lon="4.58811">
        <ele>533</ele>
        <time>2018-08-05T09:10:16.000Z</time>
      </trkpt>
      <trkpt lat="45.95437" lon="4.58808">
        <ele>533</ele>
        <time>2018-08-05T09:10:17.000Z</time>
      </trkpt>
      <trkpt lat="45.95435" lon="4.58804">
        <ele>533</ele>
        <time>2018-08-05T09:10:18.000Z</time>
      </trkpt>
      <trkpt lat="45.95433" lon="4.58801">
        <ele>533</ele>
        <time>2018-08-05T09:10:19.000Z</time>
      </trkpt>
      <trkpt lat="45.95431" lon="4.58799">
        <ele>533</ele>
        <time>2018-08-05T09:10:20.000Z</time>
      </trkpt>
      <trkpt lat="45.95428" lon="4.58796">
        <ele>533</ele>
        <time>2018-08-05T09:10:21.000Z</time>
      </trkpt>
      <trkpt lat="45.95427" lon="4.58794">
        <ele>533</ele>
        <time>2018-08-05T09:10:22.000Z</time>
      </trkpt>
      <trkpt lat="45.95424" lon="4.58792">
        <ele>533</ele>
        <time>2018-08-05T09:10:23.000Z</time>
      </trkpt>
      <trkpt lat="45.95422" lon="4.58789">
        <ele>533</ele>
        <time>2018-08-05T09:10:24.000Z</time>
      </trkpt>
      <trkpt lat="45.9542" lon="4.58787">
        <ele>533</ele>
        <time>2018-08-05T09:10:25.000Z</time>
      </trkpt>
      <trkpt lat="45.95417" lon="4.58785">
        <ele>533</ele>
        <time>2018-08-05T09:10:26.000Z</time>
      </trkpt>
      <trkpt lat="45.95415" lon="4.58783">
        <ele>539</ele>
        <time>2018-08-05T09:10:27.000Z</time>
      </trkpt>
      <trkpt lat="45.95413" lon="4.58781">
        <ele>539</ele>
        <time>2018-08-05T09:10:28.000Z</time>
      </trkpt>
      <trkpt lat="45.95411" lon="4.58779">
        <ele>539</ele>
        <time>2018-08-05T09:10:29.000Z</time>
      </trkpt>
      <trkpt lat="45.95408" lon="4.58777">
        <ele>539</ele>
        <time>2018-08-05T09:10:30.000Z</time>
      </trkpt>
      <trkpt lat="45.95406" lon="4.58775">
        <ele>539</ele>
        <time>2018-08-05T09:10:31.000Z</time>
      </trkpt>
      <trkpt lat="45.95403" lon="4.58772">
        <ele>539</ele>
        <time>2018-08-05T09:10:32.000Z</time>
      </trkpt>
      <trkpt lat="45.954" lon="4.5877">
        <ele>539</ele>
        <time>2018-08-05T09:10:33.000Z</time>
      </trkpt>
      <trkpt lat="45.95397" lon="4.58768">
        <ele>539</ele>
        <time>2018-08-05T09:10:34.000Z</time>
      </trkpt>
      <trkpt lat="45.95394" lon="4.58766">
        <ele>539</ele>
        <time>2018-08-05T09:10:35.000Z</time>
      </trkpt>
      <trkpt lat="45.95391" lon="4.58764">
        <ele>540</ele>
        <time>2018-08-05T09:10:36.000Z</time>
      </trkpt>
      <trkpt lat="45.95388" lon="4.58762">
        <ele>540</ele>
        <time>2018-08-05T09:10:37.000Z</time>
      </trkpt>
      <trkpt lat="45.95385" lon="4.5876">
        <ele>540</ele>
        <time>2018-08-05T09:10:38.000Z</time>
      </trkpt>
      <trkpt lat="45.95382" lon="4.58758">
        <ele>540</ele>
        <time>2018-08-05T09:10:39.000Z</time>
      </trkpt>
      <trkpt lat="45.9538" lon="4.58756">
        <ele>540</ele>
        <time>2018-08-05T09:10:40.000Z</time>
      </trkpt>
      <trkpt lat="45.95377" lon="4.58753">
        <ele>540</ele>
        <time>2018-08-05T09:10:41.000Z</time>
      </trkpt>
      <trkpt lat="45.95374" lon="4.58751">
        <ele>540</ele>
        <time>2018-08-05T09:10:42.000Z</time>
      </trkpt>
      <trkpt lat="45.95371" lon="4.58748">
        <ele>539</ele>
        <time>2018-08-05T09:10:43.000Z</time>
      </trkpt>
      <trkpt lat="45.95368" lon="4.58745">
        <ele>539</ele>
        <time>2018-08-05T09:10:44.000Z</time>
      </trkpt>
      <trkpt lat="45.95365" lon="4.58743">
        <ele>539</ele>
        <time>2018-08-05T09:10:45.000Z</time>
      </trkpt>
      <trkpt lat="45.95362" lon="4.5874">
        <ele>540</ele>
        <time>2018-08-05T09:10:46.000Z</time>
      </trkpt>
      <trkpt lat="45.95359" lon="4.58738">
        <ele>540</ele>
        <time>2018-08-05T09:10:47.000Z</time>
      </trkpt>
      <trkpt lat="45.95356" lon="4.58735">
        <ele>540</ele>
        <time>2018-08-05T09:10:48.000Z</time>
      </trkpt>
      <trkpt lat="45.95353" lon="4.58732">
        <ele>540</ele>
        <time>2018-08-05T09:10:49.000Z</time>
      </trkpt>
      <trkpt lat="45.9535" lon="4.58729">
        <ele>540</ele>
        <time>2018-08-05T09:10:50.000Z</time>
      </trkpt>
      <trkpt lat="45.95347" lon="4.58725">
        <ele>540</ele>
        <time>2018-08-05T09:10:51.000Z</time>
      </trkpt>
      <trkpt lat="45.95345" lon="4.58722">
        <ele>540</ele>
        <time>2018-08-05T09:10:52.000Z</time>
      </trkpt>
      <trkpt lat="45.95342" lon="4.58719">
        <ele>540</ele>
        <time>2018-08-05T09:10:53.000Z</time>
      </trkpt>
      <trkpt lat="45.9534" lon="4.58716">
        <ele>540</ele>
        <time>2018-08-05T09:10:54.000Z</time>
      </trkpt>
      <trkpt lat="45.95337" lon="4.58713">
        <ele>540</ele>
        <time>2018-08-05T09:10:55.000Z</time>
      </trkpt>
      <trkpt lat="45.95334" lon="4.58711">
        <ele>540</ele>
        <time>2018-08-05T09:10:56.000Z</time>
      </trkpt>
      <trkpt lat="45.9533" lon="4.58708">
        <ele>544</ele>
        <time>2018-08-05T09:10:57.000Z</time>
      </trkpt>
      <trkpt lat="45.95327" lon="4.58705">
        <ele>544</ele>
        <time>2018-08-05T09:10:58.000Z</time>
      </trkpt>
      <trkpt lat="45.95324" lon="4.58702">
        <ele>544</ele>
        <time>2018-08-05T09:10:59.000Z</time>
      </trkpt>
      <trkpt lat="45.95321" lon="4.58699">
        <ele>544</ele>
        <time>2018-08-05T09:11:00.000Z</time>
      </trkpt>
      <trkpt lat="45.95317" lon="4.58696">
        <ele>544</ele>
        <time>2018-08-05T09:11:01.000Z</time>
      </trkpt>
      <trkpt lat="45.95314" lon="4.58693">
        <ele>544</ele>
        <time>2018-08-05T09:11:02.000Z</time>
      </trkpt>
      <trkpt lat="45.95311" lon="4.5869">
        <ele>544</ele>
        <time>2018-08-05T09:11:03.000Z</time>
      </trkpt>
      <trkpt lat="45.95307" lon="4.58687">
        <ele>545</ele>
        <time>2018-08-05T09:11:04.000Z</time>
      </trkpt>
      <trkpt lat="45.95304" lon="4.58685">
        <ele>545</ele>
        <time>2018-08-05T09:11:05.000Z</time>
      </trkpt>
      <trkpt lat="45.953" lon="4.58682">
        <ele>545</ele>
        <time>2018-08-05T09:11:06.000Z</time>
      </trkpt>
      <trkpt lat="45.95296" lon="4.5868">
        <ele>545</ele>
        <time>2018-08-05T09:11:07.000Z</time>
      </trkpt>
      <trkpt lat="45.95292" lon="4.58678">
        <ele>545</ele>
        <time>2018-08-05T09:11:08.000Z</time>
      </trkpt>
      <trkpt lat="45.95287" lon="4.58676">
        <ele>545</ele>
        <time>2018-08-05T09:11:09.000Z</time>
      </trkpt>
      <trkpt lat="45.95283" lon="4.58673">
        <ele>545</ele>
        <time>2018-08-05T09:11:10.000Z</time>
      </trkpt>
      <trkpt lat="45.95279" lon="4.58671">
        <ele>545</ele>
        <time>2018-08-05T09:11:11.000Z</time>
      </trkpt>
      <trkpt lat="45.95275" lon="4.58669">
        <ele>546</ele>
        <time>2018-08-05T09:11:12.000Z</time>
      </trkpt>
      <trkpt lat="45.95271" lon="4.58668">
        <ele>546</ele>
        <time>2018-08-05T09:11:13.000Z</time>
      </trkpt>
      <trkpt lat="45.95267" lon="4.58666">
        <ele>546</ele>
        <time>2018-08-05T09:11:14.000Z</time>
      </trkpt>
      <trkpt lat="45.95263" lon="4.58666">
        <ele>546</ele>
        <time>2018-08-05T09:11:15.000Z</time>
      </trkpt>
      <trkpt lat="45.95259" lon="4.58666">
        <ele>546</ele>
        <time>2018-08-05T09:11:16.000Z</time>
      </trkpt>
      <trkpt lat="45.95256" lon="4.58666">
        <ele>546</ele>
        <time>2018-08-05T09:11:17.000Z</time>
      </trkpt>
      <trkpt lat="45.95253" lon="4.58667">
        <ele>547</ele>
        <time>2018-08-05T09:11:18.000Z</time>
      </trkpt>
      <trkpt lat="45.95249" lon="4.58668">
        <ele>547</ele>
        <time>2018-08-05T09:11:19.000Z</time>
      </trkpt>
      <trkpt lat="45.95246" lon="4.58669">
        <ele>547</ele>
        <time>2018-08-05T09:11:20.000Z</time>
      </trkpt>
      <trkpt lat="45.95243" lon="4.58668">
        <ele>547</ele>
        <time>2018-08-05T09:11:21.000Z</time>
      </trkpt>
      <trkpt lat="45.9524" lon="4.58667">
        <ele>546</ele>
        <time>2018-08-05T09:11:22.000Z</time>
      </trkpt>
      <trkpt lat="45.95236" lon="4.58665">
        <ele>546</ele>
        <time>2018-08-05T09:11:23.000Z</time>
      </trkpt>
      <trkpt lat="45.95233" lon="4.58662">
        <ele>546</ele>
        <time>2018-08-05T09:11:24.000Z</time>
      </trkpt>
      <trkpt lat="45.9523" lon="4.58658">
        <ele>545</ele>
        <time>2018-08-05T09:11:25.000Z</time>
      </trkpt>
      <trkpt lat="45.95227" lon="4.58652">
        <ele>545</ele>
        <time>2018-08-05T09:11:26.000Z</time>
      </trkpt>
      <trkpt lat="45.95224" lon="4.58647">
        <ele>545</ele>
        <time>2018-08-05T09:11:27.000Z</time>
      </trkpt>
      <trkpt lat="45.9522" lon="4.58641">
        <ele>545</ele>
        <time>2018-08-05T09:11:28.000Z</time>
      </trkpt>
      <trkpt lat="45.95218" lon="4.58635">
        <ele>545</ele>
        <time>2018-08-05T09:11:29.000Z</time>
      </trkpt>
      <trkpt lat="45.95215" lon="4.58628">
        <ele>545</ele>
        <time>2018-08-05T09:11:30.000Z</time>
      </trkpt>
      <trkpt lat="45.95212" lon="4.58622">
        <ele>545</ele>
        <time>2018-08-05T09:11:31.000Z</time>
      </trkpt>
      <trkpt lat="45.9521" lon="4.58616">
        <ele>545</ele>
        <time>2018-08-05T09:11:32.000Z</time>
      </trkpt>
      <trkpt lat="45.95207" lon="4.5861">
        <ele>545</ele>
        <time>2018-08-05T09:11:33.000Z</time>
      </trkpt>
      <trkpt lat="45.95204" lon="4.58605">
        <ele>545</ele>
        <time>2018-08-05T09:11:34.000Z</time>
      </trkpt>
      <trkpt lat="45.95201" lon="4.58599">
        <ele>545</ele>
        <time>2018-08-05T09:11:35.000Z</time>
      </trkpt>
      <trkpt lat="45.95199" lon="4.58593">
        <ele>544</ele>
        <time>2018-08-05T09:11:36.000Z</time>
      </trkpt>
      <trkpt lat="45.95196" lon="4.58588">
        <ele>544</ele>
        <time>2018-08-05T09:11:37.000Z</time>
      </trkpt>
      <trkpt lat="45.95194" lon="4.58583">
        <ele>545</ele>
        <time>2018-08-05T09:11:38.000Z</time>
      </trkpt>
      <trkpt lat="45.95191" lon="4.58577">
        <ele>545</ele>
        <time>2018-08-05T09:11:39.000Z</time>
      </trkpt>
      <trkpt lat="45.95188" lon="4.58572">
        <ele>545</ele>
        <time>2018-08-05T09:11:40.000Z</time>
      </trkpt>
      <trkpt lat="45.95185" lon="4.58568">
        <ele>545</ele>
        <time>2018-08-05T09:11:41.000Z</time>
      </trkpt>
      <trkpt lat="45.95182" lon="4.58564">
        <ele>545</ele>
        <time>2018-08-05T09:11:42.000Z</time>
      </trkpt>
      <trkpt lat="45.95179" lon="4.58559">
        <ele>545</ele>
        <time>2018-08-05T09:11:43.000Z</time>
      </trkpt>
      <trkpt lat="45.95175" lon="4.58555">
        <ele>545</ele>
        <time>2018-08-05T09:11:44.000Z</time>
      </trkpt>
      <trkpt lat="45.95172" lon="4.58552">
        <ele>545</ele>
        <time>2018-08-05T09:11:45.000Z</time>
      </trkpt>
      <trkpt lat="45.95169" lon="4.58548">
        <ele>545</ele>
        <time>2018-08-05T09:11:46.000Z</time>
      </trkpt>
      <trkpt lat="45.95166" lon="4.58545">
        <ele>543</ele>
        <time>2018-08-05T09:11:47.000Z</time>
      </trkpt>
      <trkpt lat="45.95162" lon="4.58541">
        <ele>543</ele>
        <time>2018-08-05T09:11:48.000Z</time>
      </trkpt>
      <trkpt lat="45.95159" lon="4.58537">
        <ele>543</ele>
        <time>2018-08-05T09:11:49.000Z</time>
      </trkpt>
      <trkpt lat="45.95156" lon="4.58534">
        <ele>543</ele>
        <time>2018-08-05T09:11:50.000Z</time>
      </trkpt>
      <trkpt lat="45.95153" lon="4.5853">
        <ele>543</ele>
        <time>2018-08-05T09:11:51.000Z</time>
      </trkpt>
      <trkpt lat="45.95151" lon="4.58527">
        <ele>543</ele>
        <time>2018-08-05T09:11:52.000Z</time>
      </trkpt>
      <trkpt lat="45.95148" lon="4.58524">
        <ele>543</ele>
        <time>2018-08-05T09:11:53.000Z</time>
      </trkpt>
      <trkpt lat="45.95145" lon="4.58521">
        <ele>543</ele>
        <time>2018-08-05T09:11:54.000Z</time>
      </trkpt>
      <trkpt lat="45.95142" lon="4.58518">
        <ele>543</ele>
        <time>2018-08-05T09:11:55.000Z</time>
      </trkpt>
      <trkpt lat="45.9514" lon="4.58515">
        <ele>543</ele>
        <time>2018-08-05T09:11:56.000Z</time>
      </trkpt>
      <trkpt lat="45.95137" lon="4.58511">
        <ele>543</ele>
        <time>2018-08-05T09:11:57.000Z</time>
      </trkpt>
      <trkpt lat="45.95134" lon="4.58508">
        <ele>543</ele>
        <time>2018-08-05T09:11:58.000Z</time>
      </trkpt>
      <trkpt lat="45.95131" lon="4.58504">
        <ele>542</ele>
        <time>2018-08-05T09:11:59.000Z</time>
      </trkpt>
      <trkpt lat="45.95127" lon="4.58501">
        <ele>542</ele>
        <time>2018-08-05T09:12:00.000Z</time>
      </trkpt>
      <trkpt lat="45.95123" lon="4.58497">
        <ele>541</ele>
        <time>2018-08-05T09:12:01.000Z</time>
      </trkpt>
      <trkpt lat="45.9512" lon="4.58493">
        <ele>541</ele>
        <time>2018-08-05T09:12:02.000Z</time>
      </trkpt>
      <trkpt lat="45.95118" lon="4.5849">
        <ele>541</ele>
        <time>2018-08-05T09:12:03.000Z</time>
      </trkpt>
      <trkpt lat="45.95117" lon="4.58486">
        <ele>541</ele>
        <time>2018-08-05T09:12:04.000Z</time>
      </trkpt>
      <trkpt lat="45.95117" lon="4.58483">
        <ele>541</ele>
        <time>2018-08-05T09:12:05.000Z</time>
      </trkpt>
      <trkpt lat="45.95117" lon="4.58479">
        <ele>541</ele>
        <time>2018-08-05T09:12:06.000Z</time>
      </trkpt>
      <trkpt lat="45.95117" lon="4.58475">
        <ele>540</ele>
        <time>2018-08-05T09:12:07.000Z</time>
      </trkpt>
      <trkpt lat="45.95118" lon="4.58471">
        <ele>540</ele>
        <time>2018-08-05T09:12:08.000Z</time>
      </trkpt>
      <trkpt lat="45.95119" lon="4.58469">
        <ele>540</ele>
        <time>2018-08-05T09:12:09.000Z</time>
      </trkpt>
      <trkpt lat="45.9512" lon="4.58467">
        <ele>540</ele>
        <time>2018-08-05T09:12:10.000Z</time>
      </trkpt>
      <trkpt lat="45.9512" lon="4.58465">
        <ele>540</ele>
        <time>2018-08-05T09:12:11.000Z</time>
      </trkpt>
      <trkpt lat="45.95121" lon="4.58463">
        <ele>540</ele>
        <time>2018-08-05T09:12:12.000Z</time>
      </trkpt>
      <trkpt lat="45.95122" lon="4.58462">
        <ele>540</ele>
        <time>2018-08-05T09:12:13.000Z</time>
      </trkpt>
      <trkpt lat="45.95123" lon="4.5846">
        <ele>540</ele>
        <time>2018-08-05T09:12:14.000Z</time>
      </trkpt>
      <trkpt lat="45.95125" lon="4.58458">
        <ele>540</ele>
        <time>2018-08-05T09:12:15.000Z</time>
      </trkpt>
      <trkpt lat="45.95126" lon="4.58456">
        <ele>540</ele>
        <time>2018-08-05T09:12:16.000Z</time>
      </trkpt>
      <trkpt lat="45.95127" lon="4.58455">
        <ele>540</ele>
        <time>2018-08-05T09:12:17.000Z</time>
      </trkpt>
      <trkpt lat="45.95128" lon="4.58453">
        <ele>540</ele>
        <time>2018-08-05T09:12:18.000Z</time>
      </trkpt>
      <trkpt lat="45.9513" lon="4.58451">
        <ele>540</ele>
        <time>2018-08-05T09:12:19.000Z</time>
      </trkpt>
      <trkpt lat="45.9513" lon="4.5845">
        <ele>540</ele>
        <time>2018-08-05T09:12:20.000Z</time>
      </trkpt>
      <trkpt lat="45.95131" lon="4.58449">
        <ele>540</ele>
        <time>2018-08-05T09:12:21.000Z</time>
      </trkpt>
      <trkpt lat="45.95131" lon="4.58448">
        <ele>540</ele>
        <time>2018-08-05T09:12:22.000Z</time>
      </trkpt>
      <trkpt lat="45.95131" lon="4.58448">
        <ele>540</ele>
        <time>2018-08-05T09:12:23.000Z</time>
      </trkpt>
      <trkpt lat="45.9513" lon="4.58448">
        <ele>540</ele>
        <time>2018-08-05T09:12:24.000Z</time>
      </trkpt>
      <trkpt lat="45.9513" lon="4.58448">
        <ele>540</ele>
        <time>2018-08-05T09:12:25.000Z</time>
      </trkpt>
      <trkpt lat="45.95131" lon="4.58447">
        <ele>540</ele>
        <time>2018-08-05T09:12:26.000Z</time>
      </trkpt>
      <trkpt lat="45.95131" lon="4.58447">
        <ele>540</ele>
        <time>2018-08-05T09:12:27.000Z</time>
      </trkpt>
      <trkpt lat="45.95131" lon="4.58447">
        <ele>540</ele>
        <time>2018-08-05T09:12:28.000Z</time>
      </trkpt>
      <trkpt lat="45.95131" lon="4.58447">
        <ele>540</ele>
        <time>2018-08-05T09:12:29.000Z</time>
      </trkpt>
      <trkpt lat="45.95131" lon="4.58447">
        <ele>540</ele>
        <time>2018-08-05T09:12:30.000Z</time>
      </trkpt>
      <trkpt lat="45.95131" lon="4.58447">
        <ele>540</ele>
        <time>2018-08-05T09:12:31.000Z</time>
      </trkpt>
    </trkseg>
  </trk>
</gpx>